<?xml version="1.0" encoding="UTF-8" standalone="no" ?>
<gpx xmlns="http://www.topografix.com/GPX/1/1" xmlns:xsi="http://www.w3.org/2001/XMLSchema-instance" xsi:schemaLocation="http://www.topografix.com/GPX/1/1 http://www.topografix.com/GPX/1/1/gpx.xsd" version="1.1" creator="VisuGPX - https://www.visugpx.com">
  <metadata>
    <name>83 - L - Tavernes </name>
    <desc><![CDATA[83 - L - Tavernes - les 3 croix ND de bellevue]]></desc>
  </metadata>
  <wpt lat="43.62895" lon="6.01306">
    <ele>543</ele>
    <name><![CDATA[Point de passage 1]]></name>
    <type><![CDATA[GENERIC]]></type>
  </wpt>
  <wpt lat="43.629" lon="6.01302">
    <ele>543</ele>
    <name><![CDATA[Point de passage 2]]></name>
    <type><![CDATA[GENERIC]]></type>
  </wpt>
  <trk>
    <name><![CDATA[Tavernes les 3 croix ND de bellevue modifié]]></name>
    <trkseg>
      <trkpt lat="43.62895" lon="6.01306">
        <ele>543</ele>
        <time>2026-02-10T10:25:46.000Z</time>
      </trkpt>
      <trkpt lat="43.62895" lon="6.01306">
        <ele>543</ele>
        <time>2026-02-10T10:25:46.000Z</time>
      </trkpt>
      <trkpt lat="43.62894" lon="6.01306">
        <ele>543</ele>
        <time>2026-02-10T10:25:47.000Z</time>
      </trkpt>
      <trkpt lat="43.62894" lon="6.01306">
        <ele>543</ele>
        <time>2026-02-10T10:25:47.000Z</time>
      </trkpt>
      <trkpt lat="43.62894" lon="6.01307">
        <ele>543</ele>
        <time>2026-02-10T10:25:48.000Z</time>
      </trkpt>
      <trkpt lat="43.62894" lon="6.01307">
        <ele>543</ele>
        <time>2026-02-10T10:25:48.000Z</time>
      </trkpt>
      <trkpt lat="43.62894" lon="6.01307">
        <ele>543</ele>
        <time>2026-02-10T10:25:48.000Z</time>
      </trkpt>
      <trkpt lat="43.62894" lon="6.01307">
        <ele>543</ele>
        <time>2026-02-10T10:25:48.000Z</time>
      </trkpt>
      <trkpt lat="43.62894" lon="6.01307">
        <ele>543</ele>
        <time>2026-02-10T10:25:48.000Z</time>
      </trkpt>
      <trkpt lat="43.62894" lon="6.01307">
        <ele>543</ele>
        <time>2026-02-10T10:25:48.000Z</time>
      </trkpt>
      <trkpt lat="43.62894" lon="6.01307">
        <ele>543</ele>
        <time>2026-02-10T10:25:48.000Z</time>
      </trkpt>
      <trkpt lat="43.62894" lon="6.01307">
        <ele>543</ele>
        <time>2026-02-10T10:25:48.000Z</time>
      </trkpt>
      <trkpt lat="43.62894" lon="6.01306">
        <ele>543</ele>
        <time>2026-02-10T10:25:49.000Z</time>
      </trkpt>
      <trkpt lat="43.62894" lon="6.01306">
        <ele>543</ele>
        <time>2026-02-10T10:25:49.000Z</time>
      </trkpt>
      <trkpt lat="43.62894" lon="6.01306">
        <ele>543</ele>
        <time>2026-02-10T10:25:49.000Z</time>
      </trkpt>
      <trkpt lat="43.62893" lon="6.01305">
        <ele>543</ele>
        <time>2026-02-10T10:25:50.000Z</time>
      </trkpt>
      <trkpt lat="43.62893" lon="6.01305">
        <ele>543</ele>
        <time>2026-02-10T10:25:50.000Z</time>
      </trkpt>
      <trkpt lat="43.62893" lon="6.01304">
        <ele>543</ele>
        <time>2026-02-10T10:25:51.000Z</time>
      </trkpt>
      <trkpt lat="43.62893" lon="6.01303">
        <ele>543</ele>
        <time>2026-02-10T10:25:52.000Z</time>
      </trkpt>
      <trkpt lat="43.62892" lon="6.01302">
        <ele>543</ele>
        <time>2026-02-10T10:25:53.000Z</time>
      </trkpt>
      <trkpt lat="43.62892" lon="6.01302">
        <ele>543</ele>
        <time>2026-02-10T10:25:53.000Z</time>
      </trkpt>
      <trkpt lat="43.62892" lon="6.01301">
        <ele>543</ele>
        <time>2026-02-10T10:25:54.000Z</time>
      </trkpt>
      <trkpt lat="43.62892" lon="6.01301">
        <ele>543</ele>
        <time>2026-02-10T10:25:54.000Z</time>
      </trkpt>
      <trkpt lat="43.62892" lon="6.01301">
        <ele>543</ele>
        <time>2026-02-10T10:25:54.000Z</time>
      </trkpt>
      <trkpt lat="43.62892" lon="6.01301">
        <ele>543</ele>
        <time>2026-02-10T10:25:54.000Z</time>
      </trkpt>
      <trkpt lat="43.62892" lon="6.01301">
        <ele>543</ele>
        <time>2026-02-10T10:25:54.000Z</time>
      </trkpt>
      <trkpt lat="43.62892" lon="6.013">
        <ele>543</ele>
        <time>2026-02-10T10:25:55.000Z</time>
      </trkpt>
      <trkpt lat="43.62892" lon="6.01301">
        <ele>543</ele>
        <time>2026-02-10T10:25:56.000Z</time>
      </trkpt>
      <trkpt lat="43.62892" lon="6.01301">
        <ele>543</ele>
        <time>2026-02-10T10:25:56.000Z</time>
      </trkpt>
      <trkpt lat="43.62892" lon="6.013">
        <ele>543</ele>
        <time>2026-02-10T10:25:57.000Z</time>
      </trkpt>
      <trkpt lat="43.62893" lon="6.01299">
        <ele>543</ele>
        <time>2026-02-10T10:25:58.000Z</time>
      </trkpt>
      <trkpt lat="43.62893" lon="6.01299">
        <ele>543</ele>
        <time>2026-02-10T10:25:58.000Z</time>
      </trkpt>
      <trkpt lat="43.62894" lon="6.01299">
        <ele>543</ele>
        <time>2026-02-10T10:25:59.000Z</time>
      </trkpt>
      <trkpt lat="43.62893" lon="6.01299">
        <ele>543</ele>
        <time>2026-02-10T10:26:00.000Z</time>
      </trkpt>
      <trkpt lat="43.62894" lon="6.01298">
        <ele>543</ele>
        <time>2026-02-10T10:26:01.000Z</time>
      </trkpt>
      <trkpt lat="43.62894" lon="6.01298">
        <ele>543</ele>
        <time>2026-02-10T10:26:01.000Z</time>
      </trkpt>
      <trkpt lat="43.62894" lon="6.01298">
        <ele>543</ele>
        <time>2026-02-10T10:26:01.000Z</time>
      </trkpt>
      <trkpt lat="43.62893" lon="6.01298">
        <ele>543</ele>
        <time>2026-02-10T10:26:02.000Z</time>
      </trkpt>
      <trkpt lat="43.62893" lon="6.01298">
        <ele>543</ele>
        <time>2026-02-10T10:26:02.000Z</time>
      </trkpt>
      <trkpt lat="43.62893" lon="6.01298">
        <ele>543</ele>
        <time>2026-02-10T10:26:02.000Z</time>
      </trkpt>
      <trkpt lat="43.62894" lon="6.01299">
        <ele>543</ele>
        <time>2026-02-10T10:26:03.000Z</time>
      </trkpt>
      <trkpt lat="43.62894" lon="6.013">
        <ele>543</ele>
        <time>2026-02-10T10:26:04.000Z</time>
      </trkpt>
      <trkpt lat="43.62894" lon="6.01302">
        <ele>543</ele>
        <time>2026-02-10T10:26:06.000Z</time>
      </trkpt>
      <trkpt lat="43.62894" lon="6.01303">
        <ele>543</ele>
        <time>2026-02-10T10:26:07.000Z</time>
      </trkpt>
      <trkpt lat="43.62895" lon="6.01304">
        <ele>543</ele>
        <time>2026-02-10T10:26:08.000Z</time>
      </trkpt>
      <trkpt lat="43.62896" lon="6.01305">
        <ele>543</ele>
        <time>2026-02-10T10:26:09.000Z</time>
      </trkpt>
      <trkpt lat="43.62895" lon="6.01305">
        <ele>543</ele>
        <time>2026-02-10T10:26:10.000Z</time>
      </trkpt>
      <trkpt lat="43.62895" lon="6.01305">
        <ele>543</ele>
        <time>2026-02-10T10:26:10.000Z</time>
      </trkpt>
      <trkpt lat="43.62895" lon="6.01304">
        <ele>543</ele>
        <time>2026-02-10T10:26:11.000Z</time>
      </trkpt>
      <trkpt lat="43.62895" lon="6.01304">
        <ele>543</ele>
        <time>2026-02-10T10:26:11.000Z</time>
      </trkpt>
      <trkpt lat="43.62895" lon="6.01304">
        <ele>543</ele>
        <time>2026-02-10T10:26:11.000Z</time>
      </trkpt>
      <trkpt lat="43.62895" lon="6.01304">
        <ele>543</ele>
        <time>2026-02-10T10:26:11.000Z</time>
      </trkpt>
      <trkpt lat="43.62895" lon="6.01304">
        <ele>543</ele>
        <time>2026-02-10T10:26:11.000Z</time>
      </trkpt>
      <trkpt lat="43.62895" lon="6.01304">
        <ele>543</ele>
        <time>2026-02-10T10:26:11.000Z</time>
      </trkpt>
      <trkpt lat="43.62896" lon="6.01304">
        <ele>543</ele>
        <time>2026-02-10T10:26:12.000Z</time>
      </trkpt>
      <trkpt lat="43.62896" lon="6.01304">
        <ele>543</ele>
        <time>2026-02-10T10:26:12.000Z</time>
      </trkpt>
      <trkpt lat="43.62895" lon="6.01305">
        <ele>543</ele>
        <time>2026-02-10T10:26:13.000Z</time>
      </trkpt>
      <trkpt lat="43.62895" lon="6.01305">
        <ele>543</ele>
        <time>2026-02-10T10:26:13.000Z</time>
      </trkpt>
      <trkpt lat="43.62896" lon="6.01305">
        <ele>543</ele>
        <time>2026-02-10T10:26:14.000Z</time>
      </trkpt>
      <trkpt lat="43.62896" lon="6.01305">
        <ele>543</ele>
        <time>2026-02-10T10:26:14.000Z</time>
      </trkpt>
      <trkpt lat="43.62896" lon="6.01305">
        <ele>543</ele>
        <time>2026-02-10T10:26:14.000Z</time>
      </trkpt>
      <trkpt lat="43.62896" lon="6.01305">
        <ele>543</ele>
        <time>2026-02-10T10:26:14.000Z</time>
      </trkpt>
      <trkpt lat="43.62896" lon="6.01305">
        <ele>543</ele>
        <time>2026-02-10T10:26:14.000Z</time>
      </trkpt>
      <trkpt lat="43.62896" lon="6.01305">
        <ele>543</ele>
        <time>2026-02-10T10:26:14.000Z</time>
      </trkpt>
      <trkpt lat="43.62896" lon="6.01305">
        <ele>543</ele>
        <time>2026-02-10T10:26:14.000Z</time>
      </trkpt>
      <trkpt lat="43.62896" lon="6.01306">
        <ele>543</ele>
        <time>2026-02-10T10:26:15.000Z</time>
      </trkpt>
      <trkpt lat="43.62896" lon="6.01306">
        <ele>543</ele>
        <time>2026-02-10T10:26:15.000Z</time>
      </trkpt>
      <trkpt lat="43.62895" lon="6.01306">
        <ele>543</ele>
        <time>2026-02-10T10:26:16.000Z</time>
      </trkpt>
      <trkpt lat="43.62895" lon="6.01306">
        <ele>543</ele>
        <time>2026-02-10T10:26:16.000Z</time>
      </trkpt>
      <trkpt lat="43.62895" lon="6.01306">
        <ele>543</ele>
        <time>2026-02-10T10:26:16.000Z</time>
      </trkpt>
      <trkpt lat="43.62895" lon="6.01306">
        <ele>543</ele>
        <time>2026-02-10T10:26:16.000Z</time>
      </trkpt>
      <trkpt lat="43.62895" lon="6.01306">
        <ele>543</ele>
        <time>2026-02-10T10:26:16.000Z</time>
      </trkpt>
      <trkpt lat="43.62895" lon="6.01306">
        <ele>543</ele>
        <time>2026-02-10T10:26:16.000Z</time>
      </trkpt>
      <trkpt lat="43.62895" lon="6.01306">
        <ele>543</ele>
        <time>2026-02-10T10:26:16.000Z</time>
      </trkpt>
      <trkpt lat="43.62895" lon="6.01306">
        <ele>543</ele>
        <time>2026-02-10T10:26:16.000Z</time>
      </trkpt>
      <trkpt lat="43.62895" lon="6.01306">
        <ele>543</ele>
        <time>2026-02-10T10:26:16.000Z</time>
      </trkpt>
      <trkpt lat="43.62895" lon="6.01306">
        <ele>543</ele>
        <time>2026-02-10T10:26:16.000Z</time>
      </trkpt>
      <trkpt lat="43.62895" lon="6.01306">
        <ele>543</ele>
        <time>2026-02-10T10:26:16.000Z</time>
      </trkpt>
      <trkpt lat="43.62895" lon="6.01306">
        <ele>543</ele>
        <time>2026-02-10T10:26:16.000Z</time>
      </trkpt>
      <trkpt lat="43.62895" lon="6.01306">
        <ele>543</ele>
        <time>2026-02-10T10:26:16.000Z</time>
      </trkpt>
      <trkpt lat="43.62895" lon="6.01306">
        <ele>543</ele>
        <time>2026-02-10T10:26:16.000Z</time>
      </trkpt>
      <trkpt lat="43.62895" lon="6.01305">
        <ele>543</ele>
        <time>2026-02-10T10:26:17.000Z</time>
      </trkpt>
      <trkpt lat="43.62895" lon="6.01305">
        <ele>543</ele>
        <time>2026-02-10T10:26:17.000Z</time>
      </trkpt>
      <trkpt lat="43.62895" lon="6.01305">
        <ele>543</ele>
        <time>2026-02-10T10:26:17.000Z</time>
      </trkpt>
      <trkpt lat="43.62895" lon="6.01305">
        <ele>543</ele>
        <time>2026-02-10T10:26:17.000Z</time>
      </trkpt>
      <trkpt lat="43.62895" lon="6.01305">
        <ele>543</ele>
        <time>2026-02-10T10:26:17.000Z</time>
      </trkpt>
      <trkpt lat="43.62895" lon="6.01305">
        <ele>543</ele>
        <time>2026-02-10T10:26:17.000Z</time>
      </trkpt>
      <trkpt lat="43.62895" lon="6.01305">
        <ele>543</ele>
        <time>2026-02-10T10:26:17.000Z</time>
      </trkpt>
      <trkpt lat="43.62895" lon="6.01305">
        <ele>543</ele>
        <time>2026-02-10T10:26:17.000Z</time>
      </trkpt>
      <trkpt lat="43.62895" lon="6.01305">
        <ele>543</ele>
        <time>2026-02-10T10:26:17.000Z</time>
      </trkpt>
      <trkpt lat="43.62895" lon="6.01306">
        <ele>543</ele>
        <time>2026-02-10T10:26:18.000Z</time>
      </trkpt>
      <trkpt lat="43.62895" lon="6.01306">
        <ele>543</ele>
        <time>2026-02-10T10:26:18.000Z</time>
      </trkpt>
      <trkpt lat="43.62895" lon="6.01306">
        <ele>543</ele>
        <time>2026-02-10T10:26:18.000Z</time>
      </trkpt>
      <trkpt lat="43.62896" lon="6.01306">
        <ele>543</ele>
        <time>2026-02-10T10:26:19.000Z</time>
      </trkpt>
      <trkpt lat="43.62896" lon="6.01306">
        <ele>543</ele>
        <time>2026-02-10T10:26:19.000Z</time>
      </trkpt>
      <trkpt lat="43.62896" lon="6.01306">
        <ele>543</ele>
        <time>2026-02-10T10:26:19.000Z</time>
      </trkpt>
      <trkpt lat="43.62896" lon="6.01306">
        <ele>543</ele>
        <time>2026-02-10T10:26:19.000Z</time>
      </trkpt>
      <trkpt lat="43.62896" lon="6.01306">
        <ele>543</ele>
        <time>2026-02-10T10:26:19.000Z</time>
      </trkpt>
      <trkpt lat="43.62896" lon="6.01306">
        <ele>543</ele>
        <time>2026-02-10T10:26:19.000Z</time>
      </trkpt>
      <trkpt lat="43.62896" lon="6.01306">
        <ele>543</ele>
        <time>2026-02-10T10:26:19.000Z</time>
      </trkpt>
      <trkpt lat="43.62896" lon="6.01306">
        <ele>543</ele>
        <time>2026-02-10T10:26:19.000Z</time>
      </trkpt>
      <trkpt lat="43.62896" lon="6.01306">
        <ele>543</ele>
        <time>2026-02-10T10:26:19.000Z</time>
      </trkpt>
      <trkpt lat="43.62897" lon="6.01306">
        <ele>543</ele>
        <time>2026-02-10T10:26:20.000Z</time>
      </trkpt>
      <trkpt lat="43.62897" lon="6.01306">
        <ele>543</ele>
        <time>2026-02-10T10:26:20.000Z</time>
      </trkpt>
      <trkpt lat="43.62897" lon="6.01306">
        <ele>543</ele>
        <time>2026-02-10T10:26:20.000Z</time>
      </trkpt>
      <trkpt lat="43.62897" lon="6.01306">
        <ele>543</ele>
        <time>2026-02-10T10:26:20.000Z</time>
      </trkpt>
      <trkpt lat="43.62897" lon="6.01306">
        <ele>543</ele>
        <time>2026-02-10T10:26:20.000Z</time>
      </trkpt>
      <trkpt lat="43.62897" lon="6.01306">
        <ele>543</ele>
        <time>2026-02-10T10:26:20.000Z</time>
      </trkpt>
      <trkpt lat="43.62897" lon="6.01306">
        <ele>543</ele>
        <time>2026-02-10T10:26:20.000Z</time>
      </trkpt>
      <trkpt lat="43.62897" lon="6.01306">
        <ele>543</ele>
        <time>2026-02-10T10:26:20.000Z</time>
      </trkpt>
      <trkpt lat="43.62897" lon="6.01306">
        <ele>543</ele>
        <time>2026-02-10T10:26:20.000Z</time>
      </trkpt>
      <trkpt lat="43.62897" lon="6.01307">
        <ele>543</ele>
        <time>2026-02-10T10:26:21.000Z</time>
      </trkpt>
      <trkpt lat="43.62897" lon="6.01306">
        <ele>543</ele>
        <time>2026-02-10T10:26:22.000Z</time>
      </trkpt>
      <trkpt lat="43.62896" lon="6.01306">
        <ele>543</ele>
        <time>2026-02-10T10:26:23.000Z</time>
      </trkpt>
      <trkpt lat="43.62897" lon="6.01307">
        <ele>543</ele>
        <time>2026-02-10T10:26:24.000Z</time>
      </trkpt>
      <trkpt lat="43.62897" lon="6.01307">
        <ele>543</ele>
        <time>2026-02-10T10:26:24.000Z</time>
      </trkpt>
      <trkpt lat="43.62897" lon="6.01307">
        <ele>543</ele>
        <time>2026-02-10T10:26:24.000Z</time>
      </trkpt>
      <trkpt lat="43.62897" lon="6.01307">
        <ele>543</ele>
        <time>2026-02-10T10:26:24.000Z</time>
      </trkpt>
      <trkpt lat="43.62896" lon="6.01307">
        <ele>543</ele>
        <time>2026-02-10T10:26:25.000Z</time>
      </trkpt>
      <trkpt lat="43.62897" lon="6.01307">
        <ele>543</ele>
        <time>2026-02-10T10:26:26.000Z</time>
      </trkpt>
      <trkpt lat="43.62896" lon="6.01307">
        <ele>543</ele>
        <time>2026-02-10T10:26:27.000Z</time>
      </trkpt>
      <trkpt lat="43.62897" lon="6.01307">
        <ele>543</ele>
        <time>2026-02-10T10:26:28.000Z</time>
      </trkpt>
      <trkpt lat="43.62897" lon="6.01307">
        <ele>543</ele>
        <time>2026-02-10T10:26:28.000Z</time>
      </trkpt>
      <trkpt lat="43.62897" lon="6.01307">
        <ele>543</ele>
        <time>2026-02-10T10:26:28.000Z</time>
      </trkpt>
      <trkpt lat="43.62898" lon="6.01307">
        <ele>543</ele>
        <time>2026-02-10T10:26:29.000Z</time>
      </trkpt>
      <trkpt lat="43.62899" lon="6.01308">
        <ele>543</ele>
        <time>2026-02-10T10:26:30.000Z</time>
      </trkpt>
      <trkpt lat="43.62899" lon="6.01309">
        <ele>543</ele>
        <time>2026-02-10T10:26:31.000Z</time>
      </trkpt>
      <trkpt lat="43.62899" lon="6.0131">
        <ele>543</ele>
        <time>2026-02-10T10:26:32.000Z</time>
      </trkpt>
      <trkpt lat="43.629" lon="6.01311">
        <ele>543</ele>
        <time>2026-02-10T10:26:33.000Z</time>
      </trkpt>
      <trkpt lat="43.629" lon="6.01312">
        <ele>543</ele>
        <time>2026-02-10T10:26:34.000Z</time>
      </trkpt>
      <trkpt lat="43.62901" lon="6.01312">
        <ele>544</ele>
        <time>2026-02-10T10:26:45.000Z</time>
      </trkpt>
      <trkpt lat="43.62901" lon="6.01313">
        <ele>544</ele>
        <time>2026-02-10T10:26:46.000Z</time>
      </trkpt>
      <trkpt lat="43.62901" lon="6.01314">
        <ele>544</ele>
        <time>2026-02-10T10:26:47.000Z</time>
      </trkpt>
      <trkpt lat="43.62901" lon="6.01315">
        <ele>544</ele>
        <time>2026-02-10T10:26:48.000Z</time>
      </trkpt>
      <trkpt lat="43.62901" lon="6.01316">
        <ele>544</ele>
        <time>2026-02-10T10:26:49.000Z</time>
      </trkpt>
      <trkpt lat="43.62901" lon="6.01317">
        <ele>544</ele>
        <time>2026-02-10T10:26:50.000Z</time>
      </trkpt>
      <trkpt lat="43.62902" lon="6.01318">
        <ele>544</ele>
        <time>2026-02-10T10:26:51.000Z</time>
      </trkpt>
      <trkpt lat="43.62902" lon="6.01319">
        <ele>544</ele>
        <time>2026-02-10T10:26:52.000Z</time>
      </trkpt>
      <trkpt lat="43.62902" lon="6.0132">
        <ele>544</ele>
        <time>2026-02-10T10:26:53.000Z</time>
      </trkpt>
      <trkpt lat="43.62902" lon="6.01321">
        <ele>544</ele>
        <time>2026-02-10T10:26:54.000Z</time>
      </trkpt>
      <trkpt lat="43.62902" lon="6.01322">
        <ele>545</ele>
        <time>2026-02-10T10:27:05.000Z</time>
      </trkpt>
      <trkpt lat="43.62903" lon="6.01323">
        <ele>545</ele>
        <time>2026-02-10T10:27:06.000Z</time>
      </trkpt>
      <trkpt lat="43.62903" lon="6.01324">
        <ele>545</ele>
        <time>2026-02-10T10:27:07.000Z</time>
      </trkpt>
      <trkpt lat="43.62903" lon="6.01324">
        <ele>545</ele>
        <time>2026-02-10T10:27:07.000Z</time>
      </trkpt>
      <trkpt lat="43.62903" lon="6.01325">
        <ele>545</ele>
        <time>2026-02-10T10:27:08.000Z</time>
      </trkpt>
      <trkpt lat="43.62903" lon="6.01326">
        <ele>545</ele>
        <time>2026-02-10T10:27:09.000Z</time>
      </trkpt>
      <trkpt lat="43.62903" lon="6.01327">
        <ele>546</ele>
        <time>2026-02-10T10:27:20.000Z</time>
      </trkpt>
      <trkpt lat="43.62903" lon="6.01328">
        <ele>546</ele>
        <time>2026-02-10T10:27:21.000Z</time>
      </trkpt>
      <trkpt lat="43.62903" lon="6.01329">
        <ele>546</ele>
        <time>2026-02-10T10:27:22.000Z</time>
      </trkpt>
      <trkpt lat="43.62904" lon="6.0133">
        <ele>546</ele>
        <time>2026-02-10T10:27:23.000Z</time>
      </trkpt>
      <trkpt lat="43.62903" lon="6.01331">
        <ele>546</ele>
        <time>2026-02-10T10:27:24.000Z</time>
      </trkpt>
      <trkpt lat="43.62903" lon="6.01332">
        <ele>547</ele>
        <time>2026-02-10T10:27:35.000Z</time>
      </trkpt>
      <trkpt lat="43.62903" lon="6.01333">
        <ele>547</ele>
        <time>2026-02-10T10:27:36.000Z</time>
      </trkpt>
      <trkpt lat="43.62903" lon="6.01334">
        <ele>547</ele>
        <time>2026-02-10T10:27:37.000Z</time>
      </trkpt>
      <trkpt lat="43.62903" lon="6.01336">
        <ele>547</ele>
        <time>2026-02-10T10:27:39.000Z</time>
      </trkpt>
      <trkpt lat="43.62903" lon="6.01337">
        <ele>547</ele>
        <time>2026-02-10T10:27:40.000Z</time>
      </trkpt>
      <trkpt lat="43.62903" lon="6.01337">
        <ele>547</ele>
        <time>2026-02-10T10:27:40.000Z</time>
      </trkpt>
      <trkpt lat="43.62903" lon="6.01339">
        <ele>546</ele>
        <time>2026-02-10T10:27:42.000Z</time>
      </trkpt>
      <trkpt lat="43.62903" lon="6.0134">
        <ele>546</ele>
        <time>2026-02-10T10:27:43.000Z</time>
      </trkpt>
      <trkpt lat="43.62903" lon="6.01341">
        <ele>546</ele>
        <time>2026-02-10T10:27:44.000Z</time>
      </trkpt>
      <trkpt lat="43.62903" lon="6.01342">
        <ele>546</ele>
        <time>2026-02-10T10:27:45.000Z</time>
      </trkpt>
      <trkpt lat="43.62903" lon="6.01343">
        <ele>546</ele>
        <time>2026-02-10T10:27:46.000Z</time>
      </trkpt>
      <trkpt lat="43.62904" lon="6.01344">
        <ele>546</ele>
        <time>2026-02-10T10:27:47.000Z</time>
      </trkpt>
      <trkpt lat="43.62904" lon="6.01345">
        <ele>546</ele>
        <time>2026-02-10T10:27:48.000Z</time>
      </trkpt>
      <trkpt lat="43.62904" lon="6.01346">
        <ele>546</ele>
        <time>2026-02-10T10:27:49.000Z</time>
      </trkpt>
      <trkpt lat="43.62903" lon="6.01348">
        <ele>546</ele>
        <time>2026-02-10T10:27:51.000Z</time>
      </trkpt>
      <trkpt lat="43.62903" lon="6.0135">
        <ele>546</ele>
        <time>2026-02-10T10:27:53.000Z</time>
      </trkpt>
      <trkpt lat="43.62904" lon="6.01351">
        <ele>546</ele>
        <time>2026-02-10T10:27:54.000Z</time>
      </trkpt>
      <trkpt lat="43.62904" lon="6.01352">
        <ele>546</ele>
        <time>2026-02-10T10:27:55.000Z</time>
      </trkpt>
      <trkpt lat="43.62903" lon="6.01353">
        <ele>546</ele>
        <time>2026-02-10T10:27:56.000Z</time>
      </trkpt>
      <trkpt lat="43.62903" lon="6.01355">
        <ele>547</ele>
        <time>2026-02-10T10:28:08.000Z</time>
      </trkpt>
      <trkpt lat="43.62903" lon="6.01356">
        <ele>547</ele>
        <time>2026-02-10T10:28:09.000Z</time>
      </trkpt>
      <trkpt lat="43.62903" lon="6.01357">
        <ele>547</ele>
        <time>2026-02-10T10:28:10.000Z</time>
      </trkpt>
      <trkpt lat="43.62903" lon="6.01359">
        <ele>547</ele>
        <time>2026-02-10T10:28:12.000Z</time>
      </trkpt>
      <trkpt lat="43.62903" lon="6.0136">
        <ele>547</ele>
        <time>2026-02-10T10:28:13.000Z</time>
      </trkpt>
      <trkpt lat="43.62902" lon="6.01361">
        <ele>547</ele>
        <time>2026-02-10T10:28:14.000Z</time>
      </trkpt>
      <trkpt lat="43.62902" lon="6.01362">
        <ele>547</ele>
        <time>2026-02-10T10:28:15.000Z</time>
      </trkpt>
      <trkpt lat="43.62902" lon="6.01364">
        <ele>547</ele>
        <time>2026-02-10T10:28:17.000Z</time>
      </trkpt>
      <trkpt lat="43.62901" lon="6.01365">
        <ele>547</ele>
        <time>2026-02-10T10:28:18.000Z</time>
      </trkpt>
      <trkpt lat="43.62901" lon="6.01367">
        <ele>547</ele>
        <time>2026-02-10T10:28:20.000Z</time>
      </trkpt>
      <trkpt lat="43.62901" lon="6.01368">
        <ele>547</ele>
        <time>2026-02-10T10:28:21.000Z</time>
      </trkpt>
      <trkpt lat="43.62901" lon="6.01369">
        <ele>547</ele>
        <time>2026-02-10T10:28:22.000Z</time>
      </trkpt>
      <trkpt lat="43.629" lon="6.0137">
        <ele>547</ele>
        <time>2026-02-10T10:28:23.000Z</time>
      </trkpt>
      <trkpt lat="43.629" lon="6.01372">
        <ele>547</ele>
        <time>2026-02-10T10:28:25.000Z</time>
      </trkpt>
      <trkpt lat="43.629" lon="6.01373">
        <ele>547</ele>
        <time>2026-02-10T10:28:26.000Z</time>
      </trkpt>
      <trkpt lat="43.62899" lon="6.01374">
        <ele>547</ele>
        <time>2026-02-10T10:28:27.000Z</time>
      </trkpt>
      <trkpt lat="43.62899" lon="6.01376">
        <ele>547</ele>
        <time>2026-02-10T10:28:29.000Z</time>
      </trkpt>
      <trkpt lat="43.62899" lon="6.01377">
        <ele>547</ele>
        <time>2026-02-10T10:28:30.000Z</time>
      </trkpt>
      <trkpt lat="43.62899" lon="6.01379">
        <ele>547</ele>
        <time>2026-02-10T10:28:32.000Z</time>
      </trkpt>
      <trkpt lat="43.62899" lon="6.0138">
        <ele>547</ele>
        <time>2026-02-10T10:28:33.000Z</time>
      </trkpt>
      <trkpt lat="43.62898" lon="6.01381">
        <ele>547</ele>
        <time>2026-02-10T10:28:34.000Z</time>
      </trkpt>
      <trkpt lat="43.62898" lon="6.01383">
        <ele>547</ele>
        <time>2026-02-10T10:28:36.000Z</time>
      </trkpt>
      <trkpt lat="43.62897" lon="6.01384">
        <ele>547</ele>
        <time>2026-02-10T10:28:37.000Z</time>
      </trkpt>
      <trkpt lat="43.62897" lon="6.01386">
        <ele>547</ele>
        <time>2026-02-10T10:28:39.000Z</time>
      </trkpt>
      <trkpt lat="43.62897" lon="6.01388">
        <ele>547</ele>
        <time>2026-02-10T10:28:41.000Z</time>
      </trkpt>
      <trkpt lat="43.62896" lon="6.01389">
        <ele>547</ele>
        <time>2026-02-10T10:28:42.000Z</time>
      </trkpt>
      <trkpt lat="43.62896" lon="6.01391">
        <ele>547</ele>
        <time>2026-02-10T10:28:44.000Z</time>
      </trkpt>
      <trkpt lat="43.62896" lon="6.01392">
        <ele>547</ele>
        <time>2026-02-10T10:28:45.000Z</time>
      </trkpt>
      <trkpt lat="43.62896" lon="6.01393">
        <ele>547</ele>
        <time>2026-02-10T10:28:46.000Z</time>
      </trkpt>
      <trkpt lat="43.62896" lon="6.01394">
        <ele>547</ele>
        <time>2026-02-10T10:28:47.000Z</time>
      </trkpt>
      <trkpt lat="43.62895" lon="6.01396">
        <ele>547</ele>
        <time>2026-02-10T10:28:49.000Z</time>
      </trkpt>
      <trkpt lat="43.62895" lon="6.01397">
        <ele>547</ele>
        <time>2026-02-10T10:28:50.000Z</time>
      </trkpt>
      <trkpt lat="43.62895" lon="6.01399">
        <ele>547</ele>
        <time>2026-02-10T10:28:52.000Z</time>
      </trkpt>
      <trkpt lat="43.62895" lon="6.014">
        <ele>547</ele>
        <time>2026-02-10T10:28:53.000Z</time>
      </trkpt>
      <trkpt lat="43.62894" lon="6.01402">
        <ele>547</ele>
        <time>2026-02-10T10:28:55.000Z</time>
      </trkpt>
      <trkpt lat="43.62894" lon="6.01403">
        <ele>547</ele>
        <time>2026-02-10T10:28:56.000Z</time>
      </trkpt>
      <trkpt lat="43.62894" lon="6.01404">
        <ele>547</ele>
        <time>2026-02-10T10:28:57.000Z</time>
      </trkpt>
      <trkpt lat="43.62894" lon="6.01406">
        <ele>547</ele>
        <time>2026-02-10T10:28:59.000Z</time>
      </trkpt>
      <trkpt lat="43.62893" lon="6.01407">
        <ele>547</ele>
        <time>2026-02-10T10:29:00.000Z</time>
      </trkpt>
      <trkpt lat="43.62893" lon="6.01408">
        <ele>547</ele>
        <time>2026-02-10T10:29:01.000Z</time>
      </trkpt>
      <trkpt lat="43.62893" lon="6.01409">
        <ele>548</ele>
        <time>2026-02-10T10:29:12.000Z</time>
      </trkpt>
      <trkpt lat="43.62893" lon="6.01411">
        <ele>548</ele>
        <time>2026-02-10T10:29:14.000Z</time>
      </trkpt>
      <trkpt lat="43.62892" lon="6.01412">
        <ele>548</ele>
        <time>2026-02-10T10:29:15.000Z</time>
      </trkpt>
      <trkpt lat="43.62892" lon="6.01414">
        <ele>548</ele>
        <time>2026-02-10T10:29:17.000Z</time>
      </trkpt>
      <trkpt lat="43.62891" lon="6.01415">
        <ele>548</ele>
        <time>2026-02-10T10:29:18.000Z</time>
      </trkpt>
      <trkpt lat="43.62891" lon="6.01417">
        <ele>548</ele>
        <time>2026-02-10T10:29:20.000Z</time>
      </trkpt>
      <trkpt lat="43.62891" lon="6.01418">
        <ele>548</ele>
        <time>2026-02-10T10:29:21.000Z</time>
      </trkpt>
      <trkpt lat="43.62891" lon="6.0142">
        <ele>548</ele>
        <time>2026-02-10T10:29:23.000Z</time>
      </trkpt>
      <trkpt lat="43.6289" lon="6.01421">
        <ele>548</ele>
        <time>2026-02-10T10:29:24.000Z</time>
      </trkpt>
      <trkpt lat="43.6289" lon="6.01423">
        <ele>548</ele>
        <time>2026-02-10T10:29:26.000Z</time>
      </trkpt>
      <trkpt lat="43.6289" lon="6.01424">
        <ele>548</ele>
        <time>2026-02-10T10:29:27.000Z</time>
      </trkpt>
      <trkpt lat="43.6289" lon="6.01425">
        <ele>548</ele>
        <time>2026-02-10T10:29:28.000Z</time>
      </trkpt>
      <trkpt lat="43.62889" lon="6.01426">
        <ele>548</ele>
        <time>2026-02-10T10:29:29.000Z</time>
      </trkpt>
      <trkpt lat="43.62889" lon="6.01427">
        <ele>548</ele>
        <time>2026-02-10T10:29:30.000Z</time>
      </trkpt>
      <trkpt lat="43.62889" lon="6.01428">
        <ele>548</ele>
        <time>2026-02-10T10:29:31.000Z</time>
      </trkpt>
      <trkpt lat="43.62888" lon="6.0143">
        <ele>548</ele>
        <time>2026-02-10T10:29:33.000Z</time>
      </trkpt>
      <trkpt lat="43.62888" lon="6.01432">
        <ele>548</ele>
        <time>2026-02-10T10:29:35.000Z</time>
      </trkpt>
      <trkpt lat="43.62887" lon="6.01434">
        <ele>548</ele>
        <time>2026-02-10T10:29:37.000Z</time>
      </trkpt>
      <trkpt lat="43.62887" lon="6.01436">
        <ele>548</ele>
        <time>2026-02-10T10:29:39.000Z</time>
      </trkpt>
      <trkpt lat="43.62886" lon="6.01437">
        <ele>548</ele>
        <time>2026-02-10T10:29:40.000Z</time>
      </trkpt>
      <trkpt lat="43.62886" lon="6.01438">
        <ele>548</ele>
        <time>2026-02-10T10:29:41.000Z</time>
      </trkpt>
      <trkpt lat="43.62885" lon="6.0144">
        <ele>548</ele>
        <time>2026-02-10T10:29:43.000Z</time>
      </trkpt>
      <trkpt lat="43.62885" lon="6.0144">
        <ele>548</ele>
        <time>2026-02-10T10:29:43.000Z</time>
      </trkpt>
      <trkpt lat="43.62885" lon="6.01441">
        <ele>548</ele>
        <time>2026-02-10T10:29:44.000Z</time>
      </trkpt>
      <trkpt lat="43.62884" lon="6.01443">
        <ele>548</ele>
        <time>2026-02-10T10:29:46.000Z</time>
      </trkpt>
      <trkpt lat="43.62884" lon="6.01444">
        <ele>548</ele>
        <time>2026-02-10T10:29:47.000Z</time>
      </trkpt>
      <trkpt lat="43.62884" lon="6.01446">
        <ele>548</ele>
        <time>2026-02-10T10:29:49.000Z</time>
      </trkpt>
      <trkpt lat="43.62884" lon="6.01448">
        <ele>548</ele>
        <time>2026-02-10T10:29:51.000Z</time>
      </trkpt>
      <trkpt lat="43.62883" lon="6.01449">
        <ele>548</ele>
        <time>2026-02-10T10:29:52.000Z</time>
      </trkpt>
      <trkpt lat="43.62883" lon="6.01451">
        <ele>548</ele>
        <time>2026-02-10T10:29:54.000Z</time>
      </trkpt>
      <trkpt lat="43.62883" lon="6.01453">
        <ele>548</ele>
        <time>2026-02-10T10:29:56.000Z</time>
      </trkpt>
      <trkpt lat="43.62883" lon="6.01455">
        <ele>548</ele>
        <time>2026-02-10T10:29:58.000Z</time>
      </trkpt>
      <trkpt lat="43.62882" lon="6.01456">
        <ele>548</ele>
        <time>2026-02-10T10:29:59.000Z</time>
      </trkpt>
      <trkpt lat="43.62882" lon="6.01458">
        <ele>548</ele>
        <time>2026-02-10T10:30:01.000Z</time>
      </trkpt>
      <trkpt lat="43.62882" lon="6.0146">
        <ele>548</ele>
        <time>2026-02-10T10:30:03.000Z</time>
      </trkpt>
      <trkpt lat="43.62882" lon="6.01462">
        <ele>548</ele>
        <time>2026-02-10T10:30:05.000Z</time>
      </trkpt>
      <trkpt lat="43.62882" lon="6.01463">
        <ele>548</ele>
        <time>2026-02-10T10:30:06.000Z</time>
      </trkpt>
      <trkpt lat="43.62881" lon="6.01464">
        <ele>548</ele>
        <time>2026-02-10T10:30:07.000Z</time>
      </trkpt>
      <trkpt lat="43.62881" lon="6.01466">
        <ele>548</ele>
        <time>2026-02-10T10:30:09.000Z</time>
      </trkpt>
      <trkpt lat="43.6288" lon="6.01467">
        <ele>547</ele>
        <time>2026-02-10T10:30:10.000Z</time>
      </trkpt>
      <trkpt lat="43.6288" lon="6.01468">
        <ele>547</ele>
        <time>2026-02-10T10:30:11.000Z</time>
      </trkpt>
      <trkpt lat="43.62879" lon="6.01469">
        <ele>547</ele>
        <time>2026-02-10T10:30:12.000Z</time>
      </trkpt>
      <trkpt lat="43.62879" lon="6.01471">
        <ele>547</ele>
        <time>2026-02-10T10:30:14.000Z</time>
      </trkpt>
      <trkpt lat="43.62879" lon="6.01472">
        <ele>547</ele>
        <time>2026-02-10T10:30:15.000Z</time>
      </trkpt>
      <trkpt lat="43.62879" lon="6.01474">
        <ele>548</ele>
        <time>2026-02-10T10:30:27.000Z</time>
      </trkpt>
      <trkpt lat="43.62878" lon="6.01475">
        <ele>548</ele>
        <time>2026-02-10T10:30:28.000Z</time>
      </trkpt>
      <trkpt lat="43.62878" lon="6.01477">
        <ele>548</ele>
        <time>2026-02-10T10:30:30.000Z</time>
      </trkpt>
      <trkpt lat="43.62878" lon="6.01478">
        <ele>548</ele>
        <time>2026-02-10T10:30:31.000Z</time>
      </trkpt>
      <trkpt lat="43.62877" lon="6.01479">
        <ele>548</ele>
        <time>2026-02-10T10:30:32.000Z</time>
      </trkpt>
      <trkpt lat="43.62877" lon="6.01481">
        <ele>548</ele>
        <time>2026-02-10T10:30:34.000Z</time>
      </trkpt>
      <trkpt lat="43.62877" lon="6.01482">
        <ele>548</ele>
        <time>2026-02-10T10:30:35.000Z</time>
      </trkpt>
      <trkpt lat="43.62877" lon="6.01484">
        <ele>548</ele>
        <time>2026-02-10T10:30:37.000Z</time>
      </trkpt>
      <trkpt lat="43.62876" lon="6.01485">
        <ele>547</ele>
        <time>2026-02-10T10:30:38.000Z</time>
      </trkpt>
      <trkpt lat="43.62876" lon="6.01487">
        <ele>547</ele>
        <time>2026-02-10T10:30:40.000Z</time>
      </trkpt>
      <trkpt lat="43.62875" lon="6.01488">
        <ele>547</ele>
        <time>2026-02-10T10:30:41.000Z</time>
      </trkpt>
      <trkpt lat="43.62875" lon="6.01489">
        <ele>547</ele>
        <time>2026-02-10T10:30:42.000Z</time>
      </trkpt>
      <trkpt lat="43.62875" lon="6.0149">
        <ele>547</ele>
        <time>2026-02-10T10:30:43.000Z</time>
      </trkpt>
      <trkpt lat="43.62874" lon="6.01491">
        <ele>547</ele>
        <time>2026-02-10T10:30:44.000Z</time>
      </trkpt>
      <trkpt lat="43.62874" lon="6.01492">
        <ele>547</ele>
        <time>2026-02-10T10:30:45.000Z</time>
      </trkpt>
      <trkpt lat="43.62874" lon="6.01494">
        <ele>547</ele>
        <time>2026-02-10T10:30:47.000Z</time>
      </trkpt>
      <trkpt lat="43.62874" lon="6.01495">
        <ele>547</ele>
        <time>2026-02-10T10:30:48.000Z</time>
      </trkpt>
      <trkpt lat="43.62874" lon="6.01497">
        <ele>547</ele>
        <time>2026-02-10T10:30:50.000Z</time>
      </trkpt>
      <trkpt lat="43.62873" lon="6.01499">
        <ele>547</ele>
        <time>2026-02-10T10:30:52.000Z</time>
      </trkpt>
      <trkpt lat="43.62873" lon="6.015">
        <ele>547</ele>
        <time>2026-02-10T10:30:53.000Z</time>
      </trkpt>
      <trkpt lat="43.62873" lon="6.01501">
        <ele>547</ele>
        <time>2026-02-10T10:30:54.000Z</time>
      </trkpt>
      <trkpt lat="43.62872" lon="6.01503">
        <ele>547</ele>
        <time>2026-02-10T10:30:56.000Z</time>
      </trkpt>
      <trkpt lat="43.62872" lon="6.01504">
        <ele>547</ele>
        <time>2026-02-10T10:30:57.000Z</time>
      </trkpt>
      <trkpt lat="43.62871" lon="6.01505">
        <ele>547</ele>
        <time>2026-02-10T10:30:58.000Z</time>
      </trkpt>
      <trkpt lat="43.62871" lon="6.01506">
        <ele>547</ele>
        <time>2026-02-10T10:30:59.000Z</time>
      </trkpt>
      <trkpt lat="43.62871" lon="6.01508">
        <ele>547</ele>
        <time>2026-02-10T10:31:01.000Z</time>
      </trkpt>
      <trkpt lat="43.62871" lon="6.0151">
        <ele>547</ele>
        <time>2026-02-10T10:31:03.000Z</time>
      </trkpt>
      <trkpt lat="43.6287" lon="6.01511">
        <ele>547</ele>
        <time>2026-02-10T10:31:04.000Z</time>
      </trkpt>
      <trkpt lat="43.6287" lon="6.01513">
        <ele>547</ele>
        <time>2026-02-10T10:31:06.000Z</time>
      </trkpt>
      <trkpt lat="43.6287" lon="6.01515">
        <ele>547</ele>
        <time>2026-02-10T10:31:08.000Z</time>
      </trkpt>
      <trkpt lat="43.62869" lon="6.01516">
        <ele>547</ele>
        <time>2026-02-10T10:31:09.000Z</time>
      </trkpt>
      <trkpt lat="43.62869" lon="6.01518">
        <ele>547</ele>
        <time>2026-02-10T10:31:11.000Z</time>
      </trkpt>
      <trkpt lat="43.62868" lon="6.01518">
        <ele>547</ele>
        <time>2026-02-10T10:31:12.000Z</time>
      </trkpt>
      <trkpt lat="43.62868" lon="6.0152">
        <ele>547</ele>
        <time>2026-02-10T10:31:14.000Z</time>
      </trkpt>
      <trkpt lat="43.62868" lon="6.01522">
        <ele>547</ele>
        <time>2026-02-10T10:31:16.000Z</time>
      </trkpt>
      <trkpt lat="43.62868" lon="6.01523">
        <ele>547</ele>
        <time>2026-02-10T10:31:17.000Z</time>
      </trkpt>
      <trkpt lat="43.62867" lon="6.01524">
        <ele>547</ele>
        <time>2026-02-10T10:31:18.000Z</time>
      </trkpt>
      <trkpt lat="43.62867" lon="6.01526">
        <ele>547</ele>
        <time>2026-02-10T10:31:20.000Z</time>
      </trkpt>
      <trkpt lat="43.62866" lon="6.01528">
        <ele>547</ele>
        <time>2026-02-10T10:31:22.000Z</time>
      </trkpt>
      <trkpt lat="43.62866" lon="6.01529">
        <ele>547</ele>
        <time>2026-02-10T10:31:23.000Z</time>
      </trkpt>
      <trkpt lat="43.62865" lon="6.01531">
        <ele>547</ele>
        <time>2026-02-10T10:31:25.000Z</time>
      </trkpt>
      <trkpt lat="43.62865" lon="6.01532">
        <ele>547</ele>
        <time>2026-02-10T10:31:26.000Z</time>
      </trkpt>
      <trkpt lat="43.62865" lon="6.01534">
        <ele>547</ele>
        <time>2026-02-10T10:31:28.000Z</time>
      </trkpt>
      <trkpt lat="43.62864" lon="6.01535">
        <ele>547</ele>
        <time>2026-02-10T10:31:29.000Z</time>
      </trkpt>
      <trkpt lat="43.62864" lon="6.01537">
        <ele>547</ele>
        <time>2026-02-10T10:31:31.000Z</time>
      </trkpt>
      <trkpt lat="43.62864" lon="6.01539">
        <ele>547</ele>
        <time>2026-02-10T10:31:33.000Z</time>
      </trkpt>
      <trkpt lat="43.62864" lon="6.0154">
        <ele>547</ele>
        <time>2026-02-10T10:31:34.000Z</time>
      </trkpt>
      <trkpt lat="43.62863" lon="6.01541">
        <ele>547</ele>
        <time>2026-02-10T10:31:35.000Z</time>
      </trkpt>
      <trkpt lat="43.62863" lon="6.01542">
        <ele>547</ele>
        <time>2026-02-10T10:31:36.000Z</time>
      </trkpt>
      <trkpt lat="43.62862" lon="6.01544">
        <ele>547</ele>
        <time>2026-02-10T10:31:38.000Z</time>
      </trkpt>
      <trkpt lat="43.62862" lon="6.01545">
        <ele>547</ele>
        <time>2026-02-10T10:31:39.000Z</time>
      </trkpt>
      <trkpt lat="43.62861" lon="6.01546">
        <ele>547</ele>
        <time>2026-02-10T10:31:40.000Z</time>
      </trkpt>
      <trkpt lat="43.62861" lon="6.01547">
        <ele>547</ele>
        <time>2026-02-10T10:31:41.000Z</time>
      </trkpt>
      <trkpt lat="43.62861" lon="6.0155">
        <ele>547</ele>
        <time>2026-02-10T10:31:43.000Z</time>
      </trkpt>
      <trkpt lat="43.62861" lon="6.01552">
        <ele>547</ele>
        <time>2026-02-10T10:31:45.000Z</time>
      </trkpt>
      <trkpt lat="43.62861" lon="6.01553">
        <ele>547</ele>
        <time>2026-02-10T10:31:46.000Z</time>
      </trkpt>
      <trkpt lat="43.62861" lon="6.01555">
        <ele>547</ele>
        <time>2026-02-10T10:31:48.000Z</time>
      </trkpt>
      <trkpt lat="43.6286" lon="6.01557">
        <ele>547</ele>
        <time>2026-02-10T10:31:50.000Z</time>
      </trkpt>
      <trkpt lat="43.6286" lon="6.01559">
        <ele>547</ele>
        <time>2026-02-10T10:31:52.000Z</time>
      </trkpt>
      <trkpt lat="43.6286" lon="6.01561">
        <ele>547</ele>
        <time>2026-02-10T10:31:54.000Z</time>
      </trkpt>
      <trkpt lat="43.62859" lon="6.01562">
        <ele>547</ele>
        <time>2026-02-10T10:31:55.000Z</time>
      </trkpt>
      <trkpt lat="43.62859" lon="6.01563">
        <ele>547</ele>
        <time>2026-02-10T10:31:56.000Z</time>
      </trkpt>
      <trkpt lat="43.62859" lon="6.01565">
        <ele>547</ele>
        <time>2026-02-10T10:31:58.000Z</time>
      </trkpt>
      <trkpt lat="43.62858" lon="6.01566">
        <ele>547</ele>
        <time>2026-02-10T10:31:59.000Z</time>
      </trkpt>
      <trkpt lat="43.62858" lon="6.01568">
        <ele>547</ele>
        <time>2026-02-10T10:32:01.000Z</time>
      </trkpt>
      <trkpt lat="43.62858" lon="6.01569">
        <ele>547</ele>
        <time>2026-02-10T10:32:02.000Z</time>
      </trkpt>
      <trkpt lat="43.62857" lon="6.0157">
        <ele>547</ele>
        <time>2026-02-10T10:32:03.000Z</time>
      </trkpt>
      <trkpt lat="43.62857" lon="6.01572">
        <ele>547</ele>
        <time>2026-02-10T10:32:05.000Z</time>
      </trkpt>
      <trkpt lat="43.62857" lon="6.01573">
        <ele>547</ele>
        <time>2026-02-10T10:32:06.000Z</time>
      </trkpt>
      <trkpt lat="43.62856" lon="6.01574">
        <ele>547</ele>
        <time>2026-02-10T10:32:07.000Z</time>
      </trkpt>
      <trkpt lat="43.62856" lon="6.01576">
        <ele>547</ele>
        <time>2026-02-10T10:32:09.000Z</time>
      </trkpt>
      <trkpt lat="43.62856" lon="6.01577">
        <ele>547</ele>
        <time>2026-02-10T10:32:10.000Z</time>
      </trkpt>
      <trkpt lat="43.62855" lon="6.01579">
        <ele>547</ele>
        <time>2026-02-10T10:32:12.000Z</time>
      </trkpt>
      <trkpt lat="43.62855" lon="6.01581">
        <ele>547</ele>
        <time>2026-02-10T10:32:14.000Z</time>
      </trkpt>
      <trkpt lat="43.62855" lon="6.01583">
        <ele>547</ele>
        <time>2026-02-10T10:32:16.000Z</time>
      </trkpt>
      <trkpt lat="43.62854" lon="6.01584">
        <ele>547</ele>
        <time>2026-02-10T10:32:17.000Z</time>
      </trkpt>
      <trkpt lat="43.62854" lon="6.01586">
        <ele>547</ele>
        <time>2026-02-10T10:32:19.000Z</time>
      </trkpt>
      <trkpt lat="43.62854" lon="6.01587">
        <ele>547</ele>
        <time>2026-02-10T10:32:20.000Z</time>
      </trkpt>
      <trkpt lat="43.62854" lon="6.01589">
        <ele>547</ele>
        <time>2026-02-10T10:32:22.000Z</time>
      </trkpt>
      <trkpt lat="43.62853" lon="6.0159">
        <ele>547</ele>
        <time>2026-02-10T10:32:23.000Z</time>
      </trkpt>
      <trkpt lat="43.62853" lon="6.01592">
        <ele>547</ele>
        <time>2026-02-10T10:32:25.000Z</time>
      </trkpt>
      <trkpt lat="43.62852" lon="6.01593">
        <ele>547</ele>
        <time>2026-02-10T10:32:26.000Z</time>
      </trkpt>
      <trkpt lat="43.62852" lon="6.01594">
        <ele>547</ele>
        <time>2026-02-10T10:32:27.000Z</time>
      </trkpt>
      <trkpt lat="43.62852" lon="6.01595">
        <ele>547</ele>
        <time>2026-02-10T10:32:28.000Z</time>
      </trkpt>
      <trkpt lat="43.62851" lon="6.01596">
        <ele>547</ele>
        <time>2026-02-10T10:32:29.000Z</time>
      </trkpt>
      <trkpt lat="43.62851" lon="6.01597">
        <ele>547</ele>
        <time>2026-02-10T10:32:30.000Z</time>
      </trkpt>
      <trkpt lat="43.62851" lon="6.01599">
        <ele>547</ele>
        <time>2026-02-10T10:32:32.000Z</time>
      </trkpt>
      <trkpt lat="43.62851" lon="6.016">
        <ele>547</ele>
        <time>2026-02-10T10:32:33.000Z</time>
      </trkpt>
      <trkpt lat="43.6285" lon="6.01602">
        <ele>547</ele>
        <time>2026-02-10T10:32:35.000Z</time>
      </trkpt>
      <trkpt lat="43.6285" lon="6.01604">
        <ele>546</ele>
        <time>2026-02-10T10:32:37.000Z</time>
      </trkpt>
      <trkpt lat="43.6285" lon="6.01605">
        <ele>546</ele>
        <time>2026-02-10T10:32:38.000Z</time>
      </trkpt>
      <trkpt lat="43.62849" lon="6.01607">
        <ele>546</ele>
        <time>2026-02-10T10:32:40.000Z</time>
      </trkpt>
      <trkpt lat="43.62849" lon="6.01608">
        <ele>546</ele>
        <time>2026-02-10T10:32:41.000Z</time>
      </trkpt>
      <trkpt lat="43.62848" lon="6.0161">
        <ele>546</ele>
        <time>2026-02-10T10:32:43.000Z</time>
      </trkpt>
      <trkpt lat="43.62848" lon="6.01611">
        <ele>546</ele>
        <time>2026-02-10T10:32:44.000Z</time>
      </trkpt>
      <trkpt lat="43.62848" lon="6.01613">
        <ele>546</ele>
        <time>2026-02-10T10:32:46.000Z</time>
      </trkpt>
      <trkpt lat="43.62847" lon="6.01614">
        <ele>546</ele>
        <time>2026-02-10T10:32:47.000Z</time>
      </trkpt>
      <trkpt lat="43.62847" lon="6.01616">
        <ele>546</ele>
        <time>2026-02-10T10:32:49.000Z</time>
      </trkpt>
      <trkpt lat="43.62847" lon="6.01617">
        <ele>546</ele>
        <time>2026-02-10T10:32:50.000Z</time>
      </trkpt>
      <trkpt lat="43.62847" lon="6.01619">
        <ele>546</ele>
        <time>2026-02-10T10:32:52.000Z</time>
      </trkpt>
      <trkpt lat="43.62847" lon="6.01621">
        <ele>546</ele>
        <time>2026-02-10T10:32:54.000Z</time>
      </trkpt>
      <trkpt lat="43.62847" lon="6.01623">
        <ele>546</ele>
        <time>2026-02-10T10:32:56.000Z</time>
      </trkpt>
      <trkpt lat="43.62847" lon="6.01625">
        <ele>546</ele>
        <time>2026-02-10T10:32:58.000Z</time>
      </trkpt>
      <trkpt lat="43.62846" lon="6.01626">
        <ele>546</ele>
        <time>2026-02-10T10:32:59.000Z</time>
      </trkpt>
      <trkpt lat="43.62846" lon="6.01627">
        <ele>546</ele>
        <time>2026-02-10T10:33:00.000Z</time>
      </trkpt>
      <trkpt lat="43.62846" lon="6.01628">
        <ele>546</ele>
        <time>2026-02-10T10:33:01.000Z</time>
      </trkpt>
      <trkpt lat="43.62845" lon="6.01629">
        <ele>546</ele>
        <time>2026-02-10T10:33:02.000Z</time>
      </trkpt>
      <trkpt lat="43.62845" lon="6.0163">
        <ele>546</ele>
        <time>2026-02-10T10:33:03.000Z</time>
      </trkpt>
      <trkpt lat="43.62845" lon="6.01632">
        <ele>546</ele>
        <time>2026-02-10T10:33:05.000Z</time>
      </trkpt>
      <trkpt lat="43.62844" lon="6.01633">
        <ele>546</ele>
        <time>2026-02-10T10:33:06.000Z</time>
      </trkpt>
      <trkpt lat="43.62844" lon="6.01635">
        <ele>546</ele>
        <time>2026-02-10T10:33:08.000Z</time>
      </trkpt>
      <trkpt lat="43.62844" lon="6.01637">
        <ele>546</ele>
        <time>2026-02-10T10:33:10.000Z</time>
      </trkpt>
      <trkpt lat="43.62844" lon="6.01639">
        <ele>546</ele>
        <time>2026-02-10T10:33:12.000Z</time>
      </trkpt>
      <trkpt lat="43.62843" lon="6.01641">
        <ele>546</ele>
        <time>2026-02-10T10:33:14.000Z</time>
      </trkpt>
      <trkpt lat="43.62843" lon="6.01643">
        <ele>546</ele>
        <time>2026-02-10T10:33:16.000Z</time>
      </trkpt>
      <trkpt lat="43.62842" lon="6.01644">
        <ele>546</ele>
        <time>2026-02-10T10:33:17.000Z</time>
      </trkpt>
      <trkpt lat="43.62842" lon="6.01646">
        <ele>546</ele>
        <time>2026-02-10T10:33:19.000Z</time>
      </trkpt>
      <trkpt lat="43.62842" lon="6.01647">
        <ele>546</ele>
        <time>2026-02-10T10:33:20.000Z</time>
      </trkpt>
      <trkpt lat="43.62841" lon="6.01649">
        <ele>546</ele>
        <time>2026-02-10T10:33:22.000Z</time>
      </trkpt>
      <trkpt lat="43.62841" lon="6.0165">
        <ele>546</ele>
        <time>2026-02-10T10:33:23.000Z</time>
      </trkpt>
      <trkpt lat="43.62841" lon="6.01651">
        <ele>546</ele>
        <time>2026-02-10T10:33:24.000Z</time>
      </trkpt>
      <trkpt lat="43.62841" lon="6.01652">
        <ele>546</ele>
        <time>2026-02-10T10:33:25.000Z</time>
      </trkpt>
      <trkpt lat="43.6284" lon="6.01653">
        <ele>546</ele>
        <time>2026-02-10T10:33:26.000Z</time>
      </trkpt>
      <trkpt lat="43.6284" lon="6.01655">
        <ele>546</ele>
        <time>2026-02-10T10:33:28.000Z</time>
      </trkpt>
      <trkpt lat="43.6284" lon="6.01656">
        <ele>546</ele>
        <time>2026-02-10T10:33:29.000Z</time>
      </trkpt>
      <trkpt lat="43.62839" lon="6.01658">
        <ele>546</ele>
        <time>2026-02-10T10:33:31.000Z</time>
      </trkpt>
      <trkpt lat="43.62839" lon="6.0166">
        <ele>546</ele>
        <time>2026-02-10T10:33:33.000Z</time>
      </trkpt>
      <trkpt lat="43.62838" lon="6.01662">
        <ele>546</ele>
        <time>2026-02-10T10:33:35.000Z</time>
      </trkpt>
      <trkpt lat="43.62838" lon="6.01663">
        <ele>546</ele>
        <time>2026-02-10T10:33:36.000Z</time>
      </trkpt>
      <trkpt lat="43.62837" lon="6.01665">
        <ele>546</ele>
        <time>2026-02-10T10:33:38.000Z</time>
      </trkpt>
      <trkpt lat="43.62837" lon="6.01666">
        <ele>546</ele>
        <time>2026-02-10T10:33:39.000Z</time>
      </trkpt>
      <trkpt lat="43.62837" lon="6.01668">
        <ele>546</ele>
        <time>2026-02-10T10:33:41.000Z</time>
      </trkpt>
      <trkpt lat="43.62837" lon="6.01669">
        <ele>546</ele>
        <time>2026-02-10T10:33:42.000Z</time>
      </trkpt>
      <trkpt lat="43.62836" lon="6.01671">
        <ele>546</ele>
        <time>2026-02-10T10:33:44.000Z</time>
      </trkpt>
      <trkpt lat="43.62836" lon="6.01673">
        <ele>546</ele>
        <time>2026-02-10T10:33:46.000Z</time>
      </trkpt>
      <trkpt lat="43.62836" lon="6.01674">
        <ele>546</ele>
        <time>2026-02-10T10:33:47.000Z</time>
      </trkpt>
      <trkpt lat="43.62835" lon="6.01676">
        <ele>546</ele>
        <time>2026-02-10T10:33:49.000Z</time>
      </trkpt>
      <trkpt lat="43.62835" lon="6.01677">
        <ele>545</ele>
        <time>2026-02-10T10:33:50.000Z</time>
      </trkpt>
      <trkpt lat="43.62834" lon="6.01678">
        <ele>545</ele>
        <time>2026-02-10T10:33:51.000Z</time>
      </trkpt>
      <trkpt lat="43.62834" lon="6.0168">
        <ele>545</ele>
        <time>2026-02-10T10:33:53.000Z</time>
      </trkpt>
      <trkpt lat="43.62834" lon="6.01681">
        <ele>545</ele>
        <time>2026-02-10T10:33:54.000Z</time>
      </trkpt>
      <trkpt lat="43.62833" lon="6.01682">
        <ele>545</ele>
        <time>2026-02-10T10:33:55.000Z</time>
      </trkpt>
      <trkpt lat="43.62833" lon="6.01683">
        <ele>545</ele>
        <time>2026-02-10T10:33:56.000Z</time>
      </trkpt>
      <trkpt lat="43.62832" lon="6.01685">
        <ele>545</ele>
        <time>2026-02-10T10:33:58.000Z</time>
      </trkpt>
      <trkpt lat="43.62832" lon="6.01687">
        <ele>545</ele>
        <time>2026-02-10T10:34:00.000Z</time>
      </trkpt>
      <trkpt lat="43.62831" lon="6.01688">
        <ele>545</ele>
        <time>2026-02-10T10:34:01.000Z</time>
      </trkpt>
      <trkpt lat="43.62831" lon="6.0169">
        <ele>545</ele>
        <time>2026-02-10T10:34:03.000Z</time>
      </trkpt>
      <trkpt lat="43.62831" lon="6.01691">
        <ele>545</ele>
        <time>2026-02-10T10:34:04.000Z</time>
      </trkpt>
      <trkpt lat="43.6283" lon="6.01693">
        <ele>545</ele>
        <time>2026-02-10T10:34:06.000Z</time>
      </trkpt>
      <trkpt lat="43.6283" lon="6.01694">
        <ele>545</ele>
        <time>2026-02-10T10:34:07.000Z</time>
      </trkpt>
      <trkpt lat="43.6283" lon="6.01696">
        <ele>544</ele>
        <time>2026-02-10T10:34:09.000Z</time>
      </trkpt>
      <trkpt lat="43.6283" lon="6.01697">
        <ele>544</ele>
        <time>2026-02-10T10:34:10.000Z</time>
      </trkpt>
      <trkpt lat="43.6283" lon="6.01699">
        <ele>544</ele>
        <time>2026-02-10T10:34:12.000Z</time>
      </trkpt>
      <trkpt lat="43.6283" lon="6.01701">
        <ele>544</ele>
        <time>2026-02-10T10:34:14.000Z</time>
      </trkpt>
      <trkpt lat="43.62829" lon="6.01702">
        <ele>544</ele>
        <time>2026-02-10T10:34:15.000Z</time>
      </trkpt>
      <trkpt lat="43.62829" lon="6.01703">
        <ele>544</ele>
        <time>2026-02-10T10:34:16.000Z</time>
      </trkpt>
      <trkpt lat="43.62829" lon="6.01705">
        <ele>544</ele>
        <time>2026-02-10T10:34:18.000Z</time>
      </trkpt>
      <trkpt lat="43.6283" lon="6.01707">
        <ele>544</ele>
        <time>2026-02-10T10:34:20.000Z</time>
      </trkpt>
      <trkpt lat="43.62829" lon="6.01709">
        <ele>544</ele>
        <time>2026-02-10T10:34:22.000Z</time>
      </trkpt>
      <trkpt lat="43.62829" lon="6.01711">
        <ele>544</ele>
        <time>2026-02-10T10:34:24.000Z</time>
      </trkpt>
      <trkpt lat="43.62829" lon="6.01713">
        <ele>544</ele>
        <time>2026-02-10T10:34:26.000Z</time>
      </trkpt>
      <trkpt lat="43.62829" lon="6.01715">
        <ele>544</ele>
        <time>2026-02-10T10:34:28.000Z</time>
      </trkpt>
      <trkpt lat="43.62829" lon="6.01718">
        <ele>544</ele>
        <time>2026-02-10T10:34:30.000Z</time>
      </trkpt>
      <trkpt lat="43.62829" lon="6.0172">
        <ele>544</ele>
        <time>2026-02-10T10:34:32.000Z</time>
      </trkpt>
      <trkpt lat="43.62828" lon="6.01722">
        <ele>544</ele>
        <time>2026-02-10T10:34:34.000Z</time>
      </trkpt>
      <trkpt lat="43.62828" lon="6.01723">
        <ele>544</ele>
        <time>2026-02-10T10:34:35.000Z</time>
      </trkpt>
      <trkpt lat="43.62828" lon="6.01725">
        <ele>544</ele>
        <time>2026-02-10T10:34:37.000Z</time>
      </trkpt>
      <trkpt lat="43.62828" lon="6.01727">
        <ele>544</ele>
        <time>2026-02-10T10:34:39.000Z</time>
      </trkpt>
      <trkpt lat="43.62828" lon="6.01729">
        <ele>544</ele>
        <time>2026-02-10T10:34:41.000Z</time>
      </trkpt>
      <trkpt lat="43.62829" lon="6.01731">
        <ele>544</ele>
        <time>2026-02-10T10:34:43.000Z</time>
      </trkpt>
      <trkpt lat="43.6283" lon="6.01733">
        <ele>544</ele>
        <time>2026-02-10T10:34:45.000Z</time>
      </trkpt>
      <trkpt lat="43.6283" lon="6.01735">
        <ele>544</ele>
        <time>2026-02-10T10:34:47.000Z</time>
      </trkpt>
      <trkpt lat="43.6283" lon="6.01736">
        <ele>544</ele>
        <time>2026-02-10T10:34:48.000Z</time>
      </trkpt>
      <trkpt lat="43.62829" lon="6.01737">
        <ele>544</ele>
        <time>2026-02-10T10:34:49.000Z</time>
      </trkpt>
      <trkpt lat="43.62829" lon="6.01739">
        <ele>544</ele>
        <time>2026-02-10T10:34:51.000Z</time>
      </trkpt>
      <trkpt lat="43.62828" lon="6.01739">
        <ele>544</ele>
        <time>2026-02-10T10:34:52.000Z</time>
      </trkpt>
      <trkpt lat="43.62827" lon="6.01741">
        <ele>544</ele>
        <time>2026-02-10T10:34:54.000Z</time>
      </trkpt>
      <trkpt lat="43.62826" lon="6.01743">
        <ele>544</ele>
        <time>2026-02-10T10:34:56.000Z</time>
      </trkpt>
      <trkpt lat="43.62826" lon="6.01744">
        <ele>544</ele>
        <time>2026-02-10T10:34:57.000Z</time>
      </trkpt>
      <trkpt lat="43.62826" lon="6.01746">
        <ele>544</ele>
        <time>2026-02-10T10:34:59.000Z</time>
      </trkpt>
      <trkpt lat="43.62825" lon="6.01747">
        <ele>544</ele>
        <time>2026-02-10T10:35:00.000Z</time>
      </trkpt>
      <trkpt lat="43.62825" lon="6.01749">
        <ele>544</ele>
        <time>2026-02-10T10:35:02.000Z</time>
      </trkpt>
      <trkpt lat="43.62825" lon="6.0175">
        <ele>544</ele>
        <time>2026-02-10T10:35:03.000Z</time>
      </trkpt>
      <trkpt lat="43.62825" lon="6.01752">
        <ele>544</ele>
        <time>2026-02-10T10:35:05.000Z</time>
      </trkpt>
      <trkpt lat="43.62825" lon="6.01754">
        <ele>544</ele>
        <time>2026-02-10T10:35:07.000Z</time>
      </trkpt>
      <trkpt lat="43.62825" lon="6.01756">
        <ele>544</ele>
        <time>2026-02-10T10:35:09.000Z</time>
      </trkpt>
      <trkpt lat="43.62824" lon="6.01758">
        <ele>544</ele>
        <time>2026-02-10T10:35:11.000Z</time>
      </trkpt>
      <trkpt lat="43.62824" lon="6.0176">
        <ele>544</ele>
        <time>2026-02-10T10:35:13.000Z</time>
      </trkpt>
      <trkpt lat="43.62824" lon="6.01761">
        <ele>544</ele>
        <time>2026-02-10T10:35:14.000Z</time>
      </trkpt>
      <trkpt lat="43.62823" lon="6.01763">
        <ele>544</ele>
        <time>2026-02-10T10:35:16.000Z</time>
      </trkpt>
      <trkpt lat="43.62823" lon="6.01764">
        <ele>544</ele>
        <time>2026-02-10T10:35:17.000Z</time>
      </trkpt>
      <trkpt lat="43.62823" lon="6.01766">
        <ele>544</ele>
        <time>2026-02-10T10:35:19.000Z</time>
      </trkpt>
      <trkpt lat="43.62823" lon="6.01767">
        <ele>544</ele>
        <time>2026-02-10T10:35:20.000Z</time>
      </trkpt>
      <trkpt lat="43.62822" lon="6.01768">
        <ele>544</ele>
        <time>2026-02-10T10:35:21.000Z</time>
      </trkpt>
      <trkpt lat="43.62821" lon="6.0177">
        <ele>544</ele>
        <time>2026-02-10T10:35:23.000Z</time>
      </trkpt>
      <trkpt lat="43.62821" lon="6.01771">
        <ele>544</ele>
        <time>2026-02-10T10:35:24.000Z</time>
      </trkpt>
      <trkpt lat="43.6282" lon="6.01772">
        <ele>544</ele>
        <time>2026-02-10T10:35:25.000Z</time>
      </trkpt>
      <trkpt lat="43.62819" lon="6.01773">
        <ele>544</ele>
        <time>2026-02-10T10:35:26.000Z</time>
      </trkpt>
      <trkpt lat="43.62818" lon="6.01775">
        <ele>544</ele>
        <time>2026-02-10T10:35:28.000Z</time>
      </trkpt>
      <trkpt lat="43.62817" lon="6.01776">
        <ele>544</ele>
        <time>2026-02-10T10:35:29.000Z</time>
      </trkpt>
      <trkpt lat="43.62817" lon="6.01778">
        <ele>544</ele>
        <time>2026-02-10T10:35:31.000Z</time>
      </trkpt>
      <trkpt lat="43.62816" lon="6.01779">
        <ele>544</ele>
        <time>2026-02-10T10:35:32.000Z</time>
      </trkpt>
      <trkpt lat="43.62816" lon="6.01781">
        <ele>544</ele>
        <time>2026-02-10T10:35:34.000Z</time>
      </trkpt>
      <trkpt lat="43.62815" lon="6.01782">
        <ele>544</ele>
        <time>2026-02-10T10:35:35.000Z</time>
      </trkpt>
      <trkpt lat="43.62815" lon="6.01783">
        <ele>544</ele>
        <time>2026-02-10T10:35:36.000Z</time>
      </trkpt>
      <trkpt lat="43.62814" lon="6.01785">
        <ele>544</ele>
        <time>2026-02-10T10:35:38.000Z</time>
      </trkpt>
      <trkpt lat="43.62814" lon="6.01786">
        <ele>544</ele>
        <time>2026-02-10T10:35:39.000Z</time>
      </trkpt>
      <trkpt lat="43.62814" lon="6.01788">
        <ele>544</ele>
        <time>2026-02-10T10:35:41.000Z</time>
      </trkpt>
      <trkpt lat="43.62813" lon="6.0179">
        <ele>544</ele>
        <time>2026-02-10T10:35:43.000Z</time>
      </trkpt>
      <trkpt lat="43.62813" lon="6.01791">
        <ele>544</ele>
        <time>2026-02-10T10:35:44.000Z</time>
      </trkpt>
      <trkpt lat="43.62812" lon="6.01793">
        <ele>544</ele>
        <time>2026-02-10T10:35:46.000Z</time>
      </trkpt>
      <trkpt lat="43.62812" lon="6.01794">
        <ele>544</ele>
        <time>2026-02-10T10:35:47.000Z</time>
      </trkpt>
      <trkpt lat="43.62812" lon="6.01796">
        <ele>544</ele>
        <time>2026-02-10T10:35:49.000Z</time>
      </trkpt>
      <trkpt lat="43.62811" lon="6.01798">
        <ele>544</ele>
        <time>2026-02-10T10:35:51.000Z</time>
      </trkpt>
      <trkpt lat="43.62811" lon="6.01799">
        <ele>544</ele>
        <time>2026-02-10T10:35:52.000Z</time>
      </trkpt>
      <trkpt lat="43.62811" lon="6.01801">
        <ele>544</ele>
        <time>2026-02-10T10:35:54.000Z</time>
      </trkpt>
      <trkpt lat="43.6281" lon="6.01802">
        <ele>544</ele>
        <time>2026-02-10T10:35:55.000Z</time>
      </trkpt>
      <trkpt lat="43.62809" lon="6.01804">
        <ele>544</ele>
        <time>2026-02-10T10:35:57.000Z</time>
      </trkpt>
      <trkpt lat="43.62809" lon="6.01806">
        <ele>544</ele>
        <time>2026-02-10T10:35:59.000Z</time>
      </trkpt>
      <trkpt lat="43.62809" lon="6.01807">
        <ele>544</ele>
        <time>2026-02-10T10:36:00.000Z</time>
      </trkpt>
      <trkpt lat="43.62808" lon="6.01809">
        <ele>545</ele>
        <time>2026-02-10T10:36:12.000Z</time>
      </trkpt>
      <trkpt lat="43.62808" lon="6.0181">
        <ele>545</ele>
        <time>2026-02-10T10:36:13.000Z</time>
      </trkpt>
      <trkpt lat="43.62807" lon="6.01812">
        <ele>545</ele>
        <time>2026-02-10T10:36:15.000Z</time>
      </trkpt>
      <trkpt lat="43.62807" lon="6.01813">
        <ele>545</ele>
        <time>2026-02-10T10:36:16.000Z</time>
      </trkpt>
      <trkpt lat="43.62806" lon="6.01815">
        <ele>545</ele>
        <time>2026-02-10T10:36:18.000Z</time>
      </trkpt>
      <trkpt lat="43.62806" lon="6.01816">
        <ele>545</ele>
        <time>2026-02-10T10:36:19.000Z</time>
      </trkpt>
      <trkpt lat="43.62806" lon="6.01818">
        <ele>545</ele>
        <time>2026-02-10T10:36:21.000Z</time>
      </trkpt>
      <trkpt lat="43.62806" lon="6.01819">
        <ele>545</ele>
        <time>2026-02-10T10:36:22.000Z</time>
      </trkpt>
      <trkpt lat="43.62805" lon="6.01821">
        <ele>545</ele>
        <time>2026-02-10T10:36:24.000Z</time>
      </trkpt>
      <trkpt lat="43.62805" lon="6.01822">
        <ele>545</ele>
        <time>2026-02-10T10:36:25.000Z</time>
      </trkpt>
      <trkpt lat="43.62805" lon="6.01824">
        <ele>545</ele>
        <time>2026-02-10T10:36:27.000Z</time>
      </trkpt>
      <trkpt lat="43.62805" lon="6.01825">
        <ele>545</ele>
        <time>2026-02-10T10:36:28.000Z</time>
      </trkpt>
      <trkpt lat="43.62804" lon="6.01827">
        <ele>545</ele>
        <time>2026-02-10T10:36:30.000Z</time>
      </trkpt>
      <trkpt lat="43.62804" lon="6.01829">
        <ele>545</ele>
        <time>2026-02-10T10:36:32.000Z</time>
      </trkpt>
      <trkpt lat="43.62803" lon="6.0183">
        <ele>545</ele>
        <time>2026-02-10T10:36:33.000Z</time>
      </trkpt>
      <trkpt lat="43.62803" lon="6.01831">
        <ele>545</ele>
        <time>2026-02-10T10:36:34.000Z</time>
      </trkpt>
      <trkpt lat="43.62802" lon="6.01833">
        <ele>545</ele>
        <time>2026-02-10T10:36:36.000Z</time>
      </trkpt>
      <trkpt lat="43.62802" lon="6.01835">
        <ele>545</ele>
        <time>2026-02-10T10:36:38.000Z</time>
      </trkpt>
      <trkpt lat="43.62801" lon="6.01836">
        <ele>545</ele>
        <time>2026-02-10T10:36:39.000Z</time>
      </trkpt>
      <trkpt lat="43.62801" lon="6.01838">
        <ele>545</ele>
        <time>2026-02-10T10:36:41.000Z</time>
      </trkpt>
      <trkpt lat="43.62801" lon="6.0184">
        <ele>545</ele>
        <time>2026-02-10T10:36:43.000Z</time>
      </trkpt>
      <trkpt lat="43.628" lon="6.01841">
        <ele>545</ele>
        <time>2026-02-10T10:36:44.000Z</time>
      </trkpt>
      <trkpt lat="43.628" lon="6.01842">
        <ele>545</ele>
        <time>2026-02-10T10:36:45.000Z</time>
      </trkpt>
      <trkpt lat="43.62799" lon="6.01844">
        <ele>545</ele>
        <time>2026-02-10T10:36:47.000Z</time>
      </trkpt>
      <trkpt lat="43.62799" lon="6.01846">
        <ele>545</ele>
        <time>2026-02-10T10:36:49.000Z</time>
      </trkpt>
      <trkpt lat="43.62798" lon="6.01847">
        <ele>545</ele>
        <time>2026-02-10T10:36:50.000Z</time>
      </trkpt>
      <trkpt lat="43.62798" lon="6.01849">
        <ele>545</ele>
        <time>2026-02-10T10:36:52.000Z</time>
      </trkpt>
      <trkpt lat="43.62798" lon="6.0185">
        <ele>545</ele>
        <time>2026-02-10T10:36:53.000Z</time>
      </trkpt>
      <trkpt lat="43.62798" lon="6.01851">
        <ele>545</ele>
        <time>2026-02-10T10:36:54.000Z</time>
      </trkpt>
      <trkpt lat="43.62797" lon="6.01853">
        <ele>545</ele>
        <time>2026-02-10T10:36:56.000Z</time>
      </trkpt>
      <trkpt lat="43.62797" lon="6.01855">
        <ele>545</ele>
        <time>2026-02-10T10:36:58.000Z</time>
      </trkpt>
      <trkpt lat="43.62797" lon="6.01856">
        <ele>545</ele>
        <time>2026-02-10T10:36:59.000Z</time>
      </trkpt>
      <trkpt lat="43.62796" lon="6.01858">
        <ele>545</ele>
        <time>2026-02-10T10:37:01.000Z</time>
      </trkpt>
      <trkpt lat="43.62795" lon="6.01859">
        <ele>545</ele>
        <time>2026-02-10T10:37:02.000Z</time>
      </trkpt>
      <trkpt lat="43.62795" lon="6.01861">
        <ele>546</ele>
        <time>2026-02-10T10:37:14.000Z</time>
      </trkpt>
      <trkpt lat="43.62794" lon="6.01863">
        <ele>546</ele>
        <time>2026-02-10T10:37:16.000Z</time>
      </trkpt>
      <trkpt lat="43.62794" lon="6.01864">
        <ele>546</ele>
        <time>2026-02-10T10:37:17.000Z</time>
      </trkpt>
      <trkpt lat="43.62793" lon="6.01865">
        <ele>546</ele>
        <time>2026-02-10T10:37:18.000Z</time>
      </trkpt>
      <trkpt lat="43.62793" lon="6.01867">
        <ele>546</ele>
        <time>2026-02-10T10:37:20.000Z</time>
      </trkpt>
      <trkpt lat="43.62793" lon="6.01868">
        <ele>546</ele>
        <time>2026-02-10T10:37:21.000Z</time>
      </trkpt>
      <trkpt lat="43.62792" lon="6.0187">
        <ele>546</ele>
        <time>2026-02-10T10:37:23.000Z</time>
      </trkpt>
      <trkpt lat="43.62792" lon="6.01871">
        <ele>546</ele>
        <time>2026-02-10T10:37:24.000Z</time>
      </trkpt>
      <trkpt lat="43.62791" lon="6.01871">
        <ele>546</ele>
        <time>2026-02-10T10:37:25.000Z</time>
      </trkpt>
      <trkpt lat="43.62791" lon="6.01872">
        <ele>546</ele>
        <time>2026-02-10T10:37:26.000Z</time>
      </trkpt>
      <trkpt lat="43.62791" lon="6.01872">
        <ele>546</ele>
        <time>2026-02-10T10:37:26.000Z</time>
      </trkpt>
      <trkpt lat="43.62791" lon="6.01873">
        <ele>546</ele>
        <time>2026-02-10T10:37:27.000Z</time>
      </trkpt>
      <trkpt lat="43.62791" lon="6.01873">
        <ele>546</ele>
        <time>2026-02-10T10:37:27.000Z</time>
      </trkpt>
      <trkpt lat="43.62791" lon="6.01874">
        <ele>546</ele>
        <time>2026-02-10T10:37:28.000Z</time>
      </trkpt>
      <trkpt lat="43.62791" lon="6.01875">
        <ele>546</ele>
        <time>2026-02-10T10:37:29.000Z</time>
      </trkpt>
      <trkpt lat="43.62791" lon="6.01875">
        <ele>546</ele>
        <time>2026-02-10T10:37:29.000Z</time>
      </trkpt>
      <trkpt lat="43.6279" lon="6.01876">
        <ele>546</ele>
        <time>2026-02-10T10:37:30.000Z</time>
      </trkpt>
      <trkpt lat="43.6279" lon="6.01878">
        <ele>546</ele>
        <time>2026-02-10T10:37:32.000Z</time>
      </trkpt>
      <trkpt lat="43.6279" lon="6.0188">
        <ele>546</ele>
        <time>2026-02-10T10:37:34.000Z</time>
      </trkpt>
      <trkpt lat="43.6279" lon="6.01882">
        <ele>546</ele>
        <time>2026-02-10T10:37:36.000Z</time>
      </trkpt>
      <trkpt lat="43.6279" lon="6.01884">
        <ele>546</ele>
        <time>2026-02-10T10:37:38.000Z</time>
      </trkpt>
      <trkpt lat="43.6279" lon="6.01886">
        <ele>546</ele>
        <time>2026-02-10T10:37:40.000Z</time>
      </trkpt>
      <trkpt lat="43.62789" lon="6.01887">
        <ele>546</ele>
        <time>2026-02-10T10:37:41.000Z</time>
      </trkpt>
      <trkpt lat="43.62789" lon="6.01889">
        <ele>546</ele>
        <time>2026-02-10T10:37:43.000Z</time>
      </trkpt>
      <trkpt lat="43.62789" lon="6.0189">
        <ele>546</ele>
        <time>2026-02-10T10:37:44.000Z</time>
      </trkpt>
      <trkpt lat="43.62789" lon="6.01892">
        <ele>546</ele>
        <time>2026-02-10T10:37:46.000Z</time>
      </trkpt>
      <trkpt lat="43.62789" lon="6.01893">
        <ele>546</ele>
        <time>2026-02-10T10:37:47.000Z</time>
      </trkpt>
      <trkpt lat="43.6279" lon="6.01893">
        <ele>546</ele>
        <time>2026-02-10T10:37:48.000Z</time>
      </trkpt>
      <trkpt lat="43.62789" lon="6.01894">
        <ele>546</ele>
        <time>2026-02-10T10:37:49.000Z</time>
      </trkpt>
      <trkpt lat="43.62789" lon="6.01895">
        <ele>546</ele>
        <time>2026-02-10T10:37:50.000Z</time>
      </trkpt>
      <trkpt lat="43.62789" lon="6.01896">
        <ele>546</ele>
        <time>2026-02-10T10:37:51.000Z</time>
      </trkpt>
      <trkpt lat="43.62789" lon="6.01898">
        <ele>546</ele>
        <time>2026-02-10T10:37:53.000Z</time>
      </trkpt>
      <trkpt lat="43.62789" lon="6.01899">
        <ele>546</ele>
        <time>2026-02-10T10:37:54.000Z</time>
      </trkpt>
      <trkpt lat="43.62788" lon="6.019">
        <ele>546</ele>
        <time>2026-02-10T10:37:55.000Z</time>
      </trkpt>
      <trkpt lat="43.62788" lon="6.01901">
        <ele>546</ele>
        <time>2026-02-10T10:37:56.000Z</time>
      </trkpt>
      <trkpt lat="43.62788" lon="6.01902">
        <ele>546</ele>
        <time>2026-02-10T10:37:57.000Z</time>
      </trkpt>
      <trkpt lat="43.62787" lon="6.01903">
        <ele>546</ele>
        <time>2026-02-10T10:37:58.000Z</time>
      </trkpt>
      <trkpt lat="43.62787" lon="6.01905">
        <ele>546</ele>
        <time>2026-02-10T10:38:00.000Z</time>
      </trkpt>
      <trkpt lat="43.62786" lon="6.01906">
        <ele>546</ele>
        <time>2026-02-10T10:38:01.000Z</time>
      </trkpt>
      <trkpt lat="43.62786" lon="6.01908">
        <ele>546</ele>
        <time>2026-02-10T10:38:03.000Z</time>
      </trkpt>
      <trkpt lat="43.62785" lon="6.01909">
        <ele>546</ele>
        <time>2026-02-10T10:38:04.000Z</time>
      </trkpt>
      <trkpt lat="43.62784" lon="6.01911">
        <ele>546</ele>
        <time>2026-02-10T10:38:06.000Z</time>
      </trkpt>
      <trkpt lat="43.62784" lon="6.01913">
        <ele>546</ele>
        <time>2026-02-10T10:38:08.000Z</time>
      </trkpt>
      <trkpt lat="43.62783" lon="6.01914">
        <ele>546</ele>
        <time>2026-02-10T10:38:09.000Z</time>
      </trkpt>
      <trkpt lat="43.62783" lon="6.01915">
        <ele>546</ele>
        <time>2026-02-10T10:38:10.000Z</time>
      </trkpt>
      <trkpt lat="43.62782" lon="6.01916">
        <ele>546</ele>
        <time>2026-02-10T10:38:11.000Z</time>
      </trkpt>
      <trkpt lat="43.6278" lon="6.01917">
        <ele>546</ele>
        <time>2026-02-10T10:38:13.000Z</time>
      </trkpt>
      <trkpt lat="43.6278" lon="6.01918">
        <ele>546</ele>
        <time>2026-02-10T10:38:14.000Z</time>
      </trkpt>
      <trkpt lat="43.62779" lon="6.0192">
        <ele>546</ele>
        <time>2026-02-10T10:38:16.000Z</time>
      </trkpt>
      <trkpt lat="43.62779" lon="6.01921">
        <ele>546</ele>
        <time>2026-02-10T10:38:17.000Z</time>
      </trkpt>
      <trkpt lat="43.62778" lon="6.01923">
        <ele>546</ele>
        <time>2026-02-10T10:38:19.000Z</time>
      </trkpt>
      <trkpt lat="43.62778" lon="6.01924">
        <ele>546</ele>
        <time>2026-02-10T10:38:20.000Z</time>
      </trkpt>
      <trkpt lat="43.62778" lon="6.01926">
        <ele>546</ele>
        <time>2026-02-10T10:38:22.000Z</time>
      </trkpt>
      <trkpt lat="43.62777" lon="6.01927">
        <ele>546</ele>
        <time>2026-02-10T10:38:23.000Z</time>
      </trkpt>
      <trkpt lat="43.62777" lon="6.01929">
        <ele>546</ele>
        <time>2026-02-10T10:38:25.000Z</time>
      </trkpt>
      <trkpt lat="43.62776" lon="6.0193">
        <ele>546</ele>
        <time>2026-02-10T10:38:26.000Z</time>
      </trkpt>
      <trkpt lat="43.62776" lon="6.01931">
        <ele>546</ele>
        <time>2026-02-10T10:38:27.000Z</time>
      </trkpt>
      <trkpt lat="43.62775" lon="6.01933">
        <ele>546</ele>
        <time>2026-02-10T10:38:29.000Z</time>
      </trkpt>
      <trkpt lat="43.62775" lon="6.01934">
        <ele>546</ele>
        <time>2026-02-10T10:38:30.000Z</time>
      </trkpt>
      <trkpt lat="43.62774" lon="6.01936">
        <ele>546</ele>
        <time>2026-02-10T10:38:32.000Z</time>
      </trkpt>
      <trkpt lat="43.62773" lon="6.01937">
        <ele>546</ele>
        <time>2026-02-10T10:38:33.000Z</time>
      </trkpt>
      <trkpt lat="43.62773" lon="6.01938">
        <ele>546</ele>
        <time>2026-02-10T10:38:34.000Z</time>
      </trkpt>
      <trkpt lat="43.62772" lon="6.0194">
        <ele>546</ele>
        <time>2026-02-10T10:38:36.000Z</time>
      </trkpt>
      <trkpt lat="43.62771" lon="6.01941">
        <ele>546</ele>
        <time>2026-02-10T10:38:37.000Z</time>
      </trkpt>
      <trkpt lat="43.6277" lon="6.01942">
        <ele>546</ele>
        <time>2026-02-10T10:38:38.000Z</time>
      </trkpt>
      <trkpt lat="43.62769" lon="6.01943">
        <ele>547</ele>
        <time>2026-02-10T10:38:50.000Z</time>
      </trkpt>
      <trkpt lat="43.62769" lon="6.01945">
        <ele>547</ele>
        <time>2026-02-10T10:38:52.000Z</time>
      </trkpt>
      <trkpt lat="43.62768" lon="6.01946">
        <ele>547</ele>
        <time>2026-02-10T10:38:53.000Z</time>
      </trkpt>
      <trkpt lat="43.62768" lon="6.01947">
        <ele>547</ele>
        <time>2026-02-10T10:38:54.000Z</time>
      </trkpt>
      <trkpt lat="43.62767" lon="6.01948">
        <ele>547</ele>
        <time>2026-02-10T10:38:55.000Z</time>
      </trkpt>
      <trkpt lat="43.62766" lon="6.01949">
        <ele>547</ele>
        <time>2026-02-10T10:38:56.000Z</time>
      </trkpt>
      <trkpt lat="43.62766" lon="6.01951">
        <ele>547</ele>
        <time>2026-02-10T10:38:58.000Z</time>
      </trkpt>
      <trkpt lat="43.62765" lon="6.01952">
        <ele>547</ele>
        <time>2026-02-10T10:38:59.000Z</time>
      </trkpt>
      <trkpt lat="43.62765" lon="6.01954">
        <ele>547</ele>
        <time>2026-02-10T10:39:01.000Z</time>
      </trkpt>
      <trkpt lat="43.62764" lon="6.01955">
        <ele>547</ele>
        <time>2026-02-10T10:39:02.000Z</time>
      </trkpt>
      <trkpt lat="43.62763" lon="6.01956">
        <ele>547</ele>
        <time>2026-02-10T10:39:03.000Z</time>
      </trkpt>
      <trkpt lat="43.62763" lon="6.01958">
        <ele>547</ele>
        <time>2026-02-10T10:39:05.000Z</time>
      </trkpt>
      <trkpt lat="43.62762" lon="6.01959">
        <ele>547</ele>
        <time>2026-02-10T10:39:06.000Z</time>
      </trkpt>
      <trkpt lat="43.62761" lon="6.0196">
        <ele>547</ele>
        <time>2026-02-10T10:39:07.000Z</time>
      </trkpt>
      <trkpt lat="43.6276" lon="6.01962">
        <ele>547</ele>
        <time>2026-02-10T10:39:09.000Z</time>
      </trkpt>
      <trkpt lat="43.6276" lon="6.01963">
        <ele>547</ele>
        <time>2026-02-10T10:39:10.000Z</time>
      </trkpt>
      <trkpt lat="43.62759" lon="6.01964">
        <ele>547</ele>
        <time>2026-02-10T10:39:11.000Z</time>
      </trkpt>
      <trkpt lat="43.62758" lon="6.01966">
        <ele>547</ele>
        <time>2026-02-10T10:39:13.000Z</time>
      </trkpt>
      <trkpt lat="43.62757" lon="6.01967">
        <ele>547</ele>
        <time>2026-02-10T10:39:14.000Z</time>
      </trkpt>
      <trkpt lat="43.62756" lon="6.01968">
        <ele>547</ele>
        <time>2026-02-10T10:39:15.000Z</time>
      </trkpt>
      <trkpt lat="43.62755" lon="6.01969">
        <ele>547</ele>
        <time>2026-02-10T10:39:16.000Z</time>
      </trkpt>
      <trkpt lat="43.62755" lon="6.01971">
        <ele>547</ele>
        <time>2026-02-10T10:39:18.000Z</time>
      </trkpt>
      <trkpt lat="43.62754" lon="6.01972">
        <ele>547</ele>
        <time>2026-02-10T10:39:19.000Z</time>
      </trkpt>
      <trkpt lat="43.62754" lon="6.01973">
        <ele>547</ele>
        <time>2026-02-10T10:39:20.000Z</time>
      </trkpt>
      <trkpt lat="43.62753" lon="6.01975">
        <ele>547</ele>
        <time>2026-02-10T10:39:22.000Z</time>
      </trkpt>
      <trkpt lat="43.62752" lon="6.01976">
        <ele>546</ele>
        <time>2026-02-10T10:39:23.000Z</time>
      </trkpt>
      <trkpt lat="43.62752" lon="6.01978">
        <ele>546</ele>
        <time>2026-02-10T10:39:25.000Z</time>
      </trkpt>
      <trkpt lat="43.62751" lon="6.01979">
        <ele>546</ele>
        <time>2026-02-10T10:39:26.000Z</time>
      </trkpt>
      <trkpt lat="43.62751" lon="6.0198">
        <ele>546</ele>
        <time>2026-02-10T10:39:27.000Z</time>
      </trkpt>
      <trkpt lat="43.6275" lon="6.01982">
        <ele>547</ele>
        <time>2026-02-10T10:39:39.000Z</time>
      </trkpt>
      <trkpt lat="43.6275" lon="6.01983">
        <ele>547</ele>
        <time>2026-02-10T10:39:40.000Z</time>
      </trkpt>
      <trkpt lat="43.62749" lon="6.01984">
        <ele>547</ele>
        <time>2026-02-10T10:39:41.000Z</time>
      </trkpt>
      <trkpt lat="43.62748" lon="6.01986">
        <ele>547</ele>
        <time>2026-02-10T10:39:43.000Z</time>
      </trkpt>
      <trkpt lat="43.62747" lon="6.01987">
        <ele>547</ele>
        <time>2026-02-10T10:39:44.000Z</time>
      </trkpt>
      <trkpt lat="43.62747" lon="6.01988">
        <ele>547</ele>
        <time>2026-02-10T10:39:45.000Z</time>
      </trkpt>
      <trkpt lat="43.62746" lon="6.0199">
        <ele>547</ele>
        <time>2026-02-10T10:39:47.000Z</time>
      </trkpt>
      <trkpt lat="43.62746" lon="6.01991">
        <ele>547</ele>
        <time>2026-02-10T10:39:48.000Z</time>
      </trkpt>
      <trkpt lat="43.62745" lon="6.01993">
        <ele>547</ele>
        <time>2026-02-10T10:39:50.000Z</time>
      </trkpt>
      <trkpt lat="43.62745" lon="6.01994">
        <ele>547</ele>
        <time>2026-02-10T10:39:51.000Z</time>
      </trkpt>
      <trkpt lat="43.62744" lon="6.01995">
        <ele>547</ele>
        <time>2026-02-10T10:39:52.000Z</time>
      </trkpt>
      <trkpt lat="43.62743" lon="6.01996">
        <ele>547</ele>
        <time>2026-02-10T10:39:53.000Z</time>
      </trkpt>
      <trkpt lat="43.62743" lon="6.01998">
        <ele>547</ele>
        <time>2026-02-10T10:39:55.000Z</time>
      </trkpt>
      <trkpt lat="43.62742" lon="6.01999">
        <ele>547</ele>
        <time>2026-02-10T10:39:56.000Z</time>
      </trkpt>
      <trkpt lat="43.62741" lon="6.02">
        <ele>547</ele>
        <time>2026-02-10T10:39:57.000Z</time>
      </trkpt>
      <trkpt lat="43.62741" lon="6.02002">
        <ele>547</ele>
        <time>2026-02-10T10:39:59.000Z</time>
      </trkpt>
      <trkpt lat="43.6274" lon="6.02003">
        <ele>546</ele>
        <time>2026-02-10T10:40:00.000Z</time>
      </trkpt>
      <trkpt lat="43.6274" lon="6.02004">
        <ele>546</ele>
        <time>2026-02-10T10:40:01.000Z</time>
      </trkpt>
      <trkpt lat="43.62739" lon="6.02005">
        <ele>546</ele>
        <time>2026-02-10T10:40:02.000Z</time>
      </trkpt>
      <trkpt lat="43.62738" lon="6.02006">
        <ele>546</ele>
        <time>2026-02-10T10:40:03.000Z</time>
      </trkpt>
      <trkpt lat="43.62738" lon="6.02008">
        <ele>546</ele>
        <time>2026-02-10T10:40:05.000Z</time>
      </trkpt>
      <trkpt lat="43.62738" lon="6.02009">
        <ele>546</ele>
        <time>2026-02-10T10:40:06.000Z</time>
      </trkpt>
      <trkpt lat="43.62737" lon="6.0201">
        <ele>546</ele>
        <time>2026-02-10T10:40:07.000Z</time>
      </trkpt>
      <trkpt lat="43.62736" lon="6.02012">
        <ele>546</ele>
        <time>2026-02-10T10:40:09.000Z</time>
      </trkpt>
      <trkpt lat="43.62736" lon="6.02013">
        <ele>546</ele>
        <time>2026-02-10T10:40:10.000Z</time>
      </trkpt>
      <trkpt lat="43.62735" lon="6.02014">
        <ele>546</ele>
        <time>2026-02-10T10:40:11.000Z</time>
      </trkpt>
      <trkpt lat="43.62735" lon="6.02015">
        <ele>546</ele>
        <time>2026-02-10T10:40:12.000Z</time>
      </trkpt>
      <trkpt lat="43.62734" lon="6.02017">
        <ele>546</ele>
        <time>2026-02-10T10:40:14.000Z</time>
      </trkpt>
      <trkpt lat="43.62733" lon="6.02018">
        <ele>546</ele>
        <time>2026-02-10T10:40:15.000Z</time>
      </trkpt>
      <trkpt lat="43.62732" lon="6.02019">
        <ele>546</ele>
        <time>2026-02-10T10:40:16.000Z</time>
      </trkpt>
      <trkpt lat="43.62732" lon="6.02021">
        <ele>547</ele>
        <time>2026-02-10T10:40:28.000Z</time>
      </trkpt>
      <trkpt lat="43.62732" lon="6.02022">
        <ele>547</ele>
        <time>2026-02-10T10:40:29.000Z</time>
      </trkpt>
      <trkpt lat="43.62731" lon="6.02024">
        <ele>547</ele>
        <time>2026-02-10T10:40:31.000Z</time>
      </trkpt>
      <trkpt lat="43.6273" lon="6.02025">
        <ele>547</ele>
        <time>2026-02-10T10:40:32.000Z</time>
      </trkpt>
      <trkpt lat="43.62729" lon="6.02026">
        <ele>547</ele>
        <time>2026-02-10T10:40:33.000Z</time>
      </trkpt>
      <trkpt lat="43.62729" lon="6.02028">
        <ele>547</ele>
        <time>2026-02-10T10:40:35.000Z</time>
      </trkpt>
      <trkpt lat="43.62728" lon="6.02029">
        <ele>547</ele>
        <time>2026-02-10T10:40:36.000Z</time>
      </trkpt>
      <trkpt lat="43.62728" lon="6.0203">
        <ele>547</ele>
        <time>2026-02-10T10:40:37.000Z</time>
      </trkpt>
      <trkpt lat="43.62727" lon="6.02032">
        <ele>547</ele>
        <time>2026-02-10T10:40:39.000Z</time>
      </trkpt>
      <trkpt lat="43.62726" lon="6.02033">
        <ele>547</ele>
        <time>2026-02-10T10:40:40.000Z</time>
      </trkpt>
      <trkpt lat="43.62726" lon="6.02034">
        <ele>547</ele>
        <time>2026-02-10T10:40:41.000Z</time>
      </trkpt>
      <trkpt lat="43.62725" lon="6.02036">
        <ele>547</ele>
        <time>2026-02-10T10:40:43.000Z</time>
      </trkpt>
      <trkpt lat="43.62724" lon="6.02037">
        <ele>547</ele>
        <time>2026-02-10T10:40:44.000Z</time>
      </trkpt>
      <trkpt lat="43.62724" lon="6.02039">
        <ele>547</ele>
        <time>2026-02-10T10:40:46.000Z</time>
      </trkpt>
      <trkpt lat="43.62723" lon="6.0204">
        <ele>547</ele>
        <time>2026-02-10T10:40:47.000Z</time>
      </trkpt>
      <trkpt lat="43.62723" lon="6.02042">
        <ele>547</ele>
        <time>2026-02-10T10:40:49.000Z</time>
      </trkpt>
      <trkpt lat="43.62722" lon="6.02043">
        <ele>547</ele>
        <time>2026-02-10T10:40:50.000Z</time>
      </trkpt>
      <trkpt lat="43.62721" lon="6.02044">
        <ele>547</ele>
        <time>2026-02-10T10:40:51.000Z</time>
      </trkpt>
      <trkpt lat="43.62721" lon="6.02046">
        <ele>547</ele>
        <time>2026-02-10T10:40:53.000Z</time>
      </trkpt>
      <trkpt lat="43.6272" lon="6.02047">
        <ele>547</ele>
        <time>2026-02-10T10:40:54.000Z</time>
      </trkpt>
      <trkpt lat="43.62719" lon="6.02048">
        <ele>547</ele>
        <time>2026-02-10T10:40:55.000Z</time>
      </trkpt>
      <trkpt lat="43.62718" lon="6.0205">
        <ele>547</ele>
        <time>2026-02-10T10:40:57.000Z</time>
      </trkpt>
      <trkpt lat="43.62717" lon="6.02051">
        <ele>547</ele>
        <time>2026-02-10T10:40:58.000Z</time>
      </trkpt>
      <trkpt lat="43.62717" lon="6.02052">
        <ele>547</ele>
        <time>2026-02-10T10:40:59.000Z</time>
      </trkpt>
      <trkpt lat="43.62716" lon="6.02054">
        <ele>547</ele>
        <time>2026-02-10T10:41:01.000Z</time>
      </trkpt>
      <trkpt lat="43.62715" lon="6.02055">
        <ele>547</ele>
        <time>2026-02-10T10:41:02.000Z</time>
      </trkpt>
      <trkpt lat="43.62715" lon="6.02056">
        <ele>547</ele>
        <time>2026-02-10T10:41:03.000Z</time>
      </trkpt>
      <trkpt lat="43.62714" lon="6.02058">
        <ele>547</ele>
        <time>2026-02-10T10:41:05.000Z</time>
      </trkpt>
      <trkpt lat="43.62713" lon="6.02059">
        <ele>547</ele>
        <time>2026-02-10T10:41:06.000Z</time>
      </trkpt>
      <trkpt lat="43.62713" lon="6.02061">
        <ele>547</ele>
        <time>2026-02-10T10:41:08.000Z</time>
      </trkpt>
      <trkpt lat="43.62712" lon="6.02062">
        <ele>547</ele>
        <time>2026-02-10T10:41:09.000Z</time>
      </trkpt>
      <trkpt lat="43.62711" lon="6.02063">
        <ele>547</ele>
        <time>2026-02-10T10:41:10.000Z</time>
      </trkpt>
      <trkpt lat="43.6271" lon="6.02064">
        <ele>547</ele>
        <time>2026-02-10T10:41:11.000Z</time>
      </trkpt>
      <trkpt lat="43.62709" lon="6.02065">
        <ele>547</ele>
        <time>2026-02-10T10:41:12.000Z</time>
      </trkpt>
      <trkpt lat="43.62708" lon="6.02067">
        <ele>547</ele>
        <time>2026-02-10T10:41:14.000Z</time>
      </trkpt>
      <trkpt lat="43.62708" lon="6.02068">
        <ele>547</ele>
        <time>2026-02-10T10:41:15.000Z</time>
      </trkpt>
      <trkpt lat="43.62707" lon="6.0207">
        <ele>547</ele>
        <time>2026-02-10T10:41:17.000Z</time>
      </trkpt>
      <trkpt lat="43.62707" lon="6.02071">
        <ele>547</ele>
        <time>2026-02-10T10:41:18.000Z</time>
      </trkpt>
      <trkpt lat="43.62706" lon="6.02073">
        <ele>547</ele>
        <time>2026-02-10T10:41:20.000Z</time>
      </trkpt>
      <trkpt lat="43.62706" lon="6.02074">
        <ele>547</ele>
        <time>2026-02-10T10:41:21.000Z</time>
      </trkpt>
      <trkpt lat="43.62705" lon="6.02075">
        <ele>547</ele>
        <time>2026-02-10T10:41:22.000Z</time>
      </trkpt>
      <trkpt lat="43.62704" lon="6.02077">
        <ele>547</ele>
        <time>2026-02-10T10:41:24.000Z</time>
      </trkpt>
      <trkpt lat="43.62703" lon="6.02078">
        <ele>547</ele>
        <time>2026-02-10T10:41:25.000Z</time>
      </trkpt>
      <trkpt lat="43.62703" lon="6.02079">
        <ele>547</ele>
        <time>2026-02-10T10:41:26.000Z</time>
      </trkpt>
      <trkpt lat="43.62702" lon="6.02081">
        <ele>547</ele>
        <time>2026-02-10T10:41:28.000Z</time>
      </trkpt>
      <trkpt lat="43.62701" lon="6.02082">
        <ele>546</ele>
        <time>2026-02-10T10:41:29.000Z</time>
      </trkpt>
      <trkpt lat="43.627" lon="6.02083">
        <ele>546</ele>
        <time>2026-02-10T10:41:30.000Z</time>
      </trkpt>
      <trkpt lat="43.627" lon="6.02084">
        <ele>546</ele>
        <time>2026-02-10T10:41:31.000Z</time>
      </trkpt>
      <trkpt lat="43.62699" lon="6.02086">
        <ele>546</ele>
        <time>2026-02-10T10:41:33.000Z</time>
      </trkpt>
      <trkpt lat="43.62698" lon="6.02087">
        <ele>546</ele>
        <time>2026-02-10T10:41:34.000Z</time>
      </trkpt>
      <trkpt lat="43.62697" lon="6.02088">
        <ele>546</ele>
        <time>2026-02-10T10:41:35.000Z</time>
      </trkpt>
      <trkpt lat="43.62696" lon="6.02089">
        <ele>546</ele>
        <time>2026-02-10T10:41:36.000Z</time>
      </trkpt>
      <trkpt lat="43.62696" lon="6.0209">
        <ele>546</ele>
        <time>2026-02-10T10:41:37.000Z</time>
      </trkpt>
      <trkpt lat="43.62695" lon="6.02091">
        <ele>546</ele>
        <time>2026-02-10T10:41:38.000Z</time>
      </trkpt>
      <trkpt lat="43.62694" lon="6.02092">
        <ele>546</ele>
        <time>2026-02-10T10:41:39.000Z</time>
      </trkpt>
      <trkpt lat="43.62693" lon="6.02093">
        <ele>546</ele>
        <time>2026-02-10T10:41:40.000Z</time>
      </trkpt>
      <trkpt lat="43.62692" lon="6.02094">
        <ele>546</ele>
        <time>2026-02-10T10:41:41.000Z</time>
      </trkpt>
      <trkpt lat="43.62691" lon="6.02095">
        <ele>546</ele>
        <time>2026-02-10T10:41:42.000Z</time>
      </trkpt>
      <trkpt lat="43.6269" lon="6.02096">
        <ele>545</ele>
        <time>2026-02-10T10:41:43.000Z</time>
      </trkpt>
      <trkpt lat="43.62689" lon="6.02097">
        <ele>545</ele>
        <time>2026-02-10T10:41:44.000Z</time>
      </trkpt>
      <trkpt lat="43.62688" lon="6.02098">
        <ele>545</ele>
        <time>2026-02-10T10:41:45.000Z</time>
      </trkpt>
      <trkpt lat="43.62687" lon="6.02099">
        <ele>545</ele>
        <time>2026-02-10T10:41:46.000Z</time>
      </trkpt>
      <trkpt lat="43.62686" lon="6.021">
        <ele>545</ele>
        <time>2026-02-10T10:41:47.000Z</time>
      </trkpt>
      <trkpt lat="43.62685" lon="6.021">
        <ele>545</ele>
        <time>2026-02-10T10:41:48.000Z</time>
      </trkpt>
      <trkpt lat="43.62684" lon="6.02101">
        <ele>545</ele>
        <time>2026-02-10T10:41:49.000Z</time>
      </trkpt>
      <trkpt lat="43.62683" lon="6.02101">
        <ele>545</ele>
        <time>2026-02-10T10:41:50.000Z</time>
      </trkpt>
      <trkpt lat="43.62682" lon="6.02102">
        <ele>545</ele>
        <time>2026-02-10T10:41:51.000Z</time>
      </trkpt>
      <trkpt lat="43.62681" lon="6.02102">
        <ele>545</ele>
        <time>2026-02-10T10:41:52.000Z</time>
      </trkpt>
      <trkpt lat="43.62679" lon="6.02102">
        <ele>545</ele>
        <time>2026-02-10T10:41:54.000Z</time>
      </trkpt>
      <trkpt lat="43.62678" lon="6.02102">
        <ele>545</ele>
        <time>2026-02-10T10:41:55.000Z</time>
      </trkpt>
      <trkpt lat="43.62677" lon="6.02102">
        <ele>545</ele>
        <time>2026-02-10T10:41:56.000Z</time>
      </trkpt>
      <trkpt lat="43.62676" lon="6.02102">
        <ele>545</ele>
        <time>2026-02-10T10:41:57.000Z</time>
      </trkpt>
      <trkpt lat="43.62675" lon="6.02101">
        <ele>545</ele>
        <time>2026-02-10T10:41:58.000Z</time>
      </trkpt>
      <trkpt lat="43.62674" lon="6.02101">
        <ele>545</ele>
        <time>2026-02-10T10:41:59.000Z</time>
      </trkpt>
      <trkpt lat="43.62673" lon="6.02102">
        <ele>545</ele>
        <time>2026-02-10T10:42:00.000Z</time>
      </trkpt>
      <trkpt lat="43.62672" lon="6.02102">
        <ele>545</ele>
        <time>2026-02-10T10:42:01.000Z</time>
      </trkpt>
      <trkpt lat="43.62671" lon="6.02101">
        <ele>545</ele>
        <time>2026-02-10T10:42:02.000Z</time>
      </trkpt>
      <trkpt lat="43.62669" lon="6.02101">
        <ele>545</ele>
        <time>2026-02-10T10:42:04.000Z</time>
      </trkpt>
      <trkpt lat="43.62668" lon="6.021">
        <ele>546</ele>
        <time>2026-02-10T10:42:16.000Z</time>
      </trkpt>
      <trkpt lat="43.62666" lon="6.021">
        <ele>546</ele>
        <time>2026-02-10T10:42:18.000Z</time>
      </trkpt>
      <trkpt lat="43.62665" lon="6.02099">
        <ele>546</ele>
        <time>2026-02-10T10:42:19.000Z</time>
      </trkpt>
      <trkpt lat="43.62663" lon="6.02099">
        <ele>546</ele>
        <time>2026-02-10T10:42:21.000Z</time>
      </trkpt>
      <trkpt lat="43.62662" lon="6.02099">
        <ele>546</ele>
        <time>2026-02-10T10:42:22.000Z</time>
      </trkpt>
      <trkpt lat="43.62661" lon="6.02098">
        <ele>546</ele>
        <time>2026-02-10T10:42:23.000Z</time>
      </trkpt>
      <trkpt lat="43.6266" lon="6.02097">
        <ele>546</ele>
        <time>2026-02-10T10:42:24.000Z</time>
      </trkpt>
      <trkpt lat="43.62659" lon="6.02097">
        <ele>546</ele>
        <time>2026-02-10T10:42:25.000Z</time>
      </trkpt>
      <trkpt lat="43.62658" lon="6.02097">
        <ele>546</ele>
        <time>2026-02-10T10:42:26.000Z</time>
      </trkpt>
      <trkpt lat="43.62657" lon="6.02096">
        <ele>547</ele>
        <time>2026-02-10T10:42:38.000Z</time>
      </trkpt>
      <trkpt lat="43.62656" lon="6.02096">
        <ele>547</ele>
        <time>2026-02-10T10:42:39.000Z</time>
      </trkpt>
      <trkpt lat="43.62654" lon="6.02096">
        <ele>547</ele>
        <time>2026-02-10T10:42:41.000Z</time>
      </trkpt>
      <trkpt lat="43.62653" lon="6.02096">
        <ele>547</ele>
        <time>2026-02-10T10:42:42.000Z</time>
      </trkpt>
      <trkpt lat="43.62652" lon="6.02096">
        <ele>547</ele>
        <time>2026-02-10T10:42:43.000Z</time>
      </trkpt>
      <trkpt lat="43.6265" lon="6.02096">
        <ele>547</ele>
        <time>2026-02-10T10:42:45.000Z</time>
      </trkpt>
      <trkpt lat="43.62649" lon="6.02096">
        <ele>547</ele>
        <time>2026-02-10T10:42:46.000Z</time>
      </trkpt>
      <trkpt lat="43.62648" lon="6.02096">
        <ele>547</ele>
        <time>2026-02-10T10:42:47.000Z</time>
      </trkpt>
      <trkpt lat="43.62646" lon="6.02097">
        <ele>547</ele>
        <time>2026-02-10T10:42:49.000Z</time>
      </trkpt>
      <trkpt lat="43.62645" lon="6.02097">
        <ele>547</ele>
        <time>2026-02-10T10:42:50.000Z</time>
      </trkpt>
      <trkpt lat="43.62644" lon="6.02098">
        <ele>547</ele>
        <time>2026-02-10T10:42:51.000Z</time>
      </trkpt>
      <trkpt lat="43.62642" lon="6.02098">
        <ele>547</ele>
        <time>2026-02-10T10:42:53.000Z</time>
      </trkpt>
      <trkpt lat="43.62641" lon="6.02099">
        <ele>548</ele>
        <time>2026-02-10T10:43:05.000Z</time>
      </trkpt>
      <trkpt lat="43.6264" lon="6.02099">
        <ele>548</ele>
        <time>2026-02-10T10:43:06.000Z</time>
      </trkpt>
      <trkpt lat="43.62639" lon="6.021">
        <ele>548</ele>
        <time>2026-02-10T10:43:07.000Z</time>
      </trkpt>
      <trkpt lat="43.62638" lon="6.021">
        <ele>548</ele>
        <time>2026-02-10T10:43:08.000Z</time>
      </trkpt>
      <trkpt lat="43.62637" lon="6.02101">
        <ele>548</ele>
        <time>2026-02-10T10:43:09.000Z</time>
      </trkpt>
      <trkpt lat="43.62636" lon="6.02101">
        <ele>548</ele>
        <time>2026-02-10T10:43:10.000Z</time>
      </trkpt>
      <trkpt lat="43.62634" lon="6.02101">
        <ele>548</ele>
        <time>2026-02-10T10:43:12.000Z</time>
      </trkpt>
      <trkpt lat="43.62633" lon="6.02102">
        <ele>548</ele>
        <time>2026-02-10T10:43:13.000Z</time>
      </trkpt>
      <trkpt lat="43.62632" lon="6.02102">
        <ele>548</ele>
        <time>2026-02-10T10:43:14.000Z</time>
      </trkpt>
      <trkpt lat="43.62631" lon="6.02103">
        <ele>548</ele>
        <time>2026-02-10T10:43:15.000Z</time>
      </trkpt>
      <trkpt lat="43.62629" lon="6.02103">
        <ele>548</ele>
        <time>2026-02-10T10:43:17.000Z</time>
      </trkpt>
      <trkpt lat="43.62628" lon="6.02103">
        <ele>548</ele>
        <time>2026-02-10T10:43:18.000Z</time>
      </trkpt>
      <trkpt lat="43.62627" lon="6.02104">
        <ele>548</ele>
        <time>2026-02-10T10:43:19.000Z</time>
      </trkpt>
      <trkpt lat="43.62626" lon="6.02105">
        <ele>549</ele>
        <time>2026-02-10T10:43:31.000Z</time>
      </trkpt>
      <trkpt lat="43.62624" lon="6.02105">
        <ele>549</ele>
        <time>2026-02-10T10:43:33.000Z</time>
      </trkpt>
      <trkpt lat="43.62623" lon="6.02106">
        <ele>549</ele>
        <time>2026-02-10T10:43:34.000Z</time>
      </trkpt>
      <trkpt lat="43.62622" lon="6.02107">
        <ele>549</ele>
        <time>2026-02-10T10:43:35.000Z</time>
      </trkpt>
      <trkpt lat="43.62621" lon="6.02108">
        <ele>549</ele>
        <time>2026-02-10T10:43:36.000Z</time>
      </trkpt>
      <trkpt lat="43.6262" lon="6.02108">
        <ele>549</ele>
        <time>2026-02-10T10:43:37.000Z</time>
      </trkpt>
      <trkpt lat="43.62619" lon="6.02109">
        <ele>549</ele>
        <time>2026-02-10T10:43:38.000Z</time>
      </trkpt>
      <trkpt lat="43.62618" lon="6.02109">
        <ele>549</ele>
        <time>2026-02-10T10:43:39.000Z</time>
      </trkpt>
      <trkpt lat="43.62616" lon="6.0211">
        <ele>549</ele>
        <time>2026-02-10T10:43:41.000Z</time>
      </trkpt>
      <trkpt lat="43.62616" lon="6.02111">
        <ele>549</ele>
        <time>2026-02-10T10:43:42.000Z</time>
      </trkpt>
      <trkpt lat="43.62615" lon="6.02111">
        <ele>549</ele>
        <time>2026-02-10T10:43:43.000Z</time>
      </trkpt>
      <trkpt lat="43.62614" lon="6.02112">
        <ele>549</ele>
        <time>2026-02-10T10:43:44.000Z</time>
      </trkpt>
      <trkpt lat="43.62613" lon="6.02112">
        <ele>549</ele>
        <time>2026-02-10T10:43:45.000Z</time>
      </trkpt>
      <trkpt lat="43.62612" lon="6.02113">
        <ele>549</ele>
        <time>2026-02-10T10:43:46.000Z</time>
      </trkpt>
      <trkpt lat="43.62611" lon="6.02114">
        <ele>549</ele>
        <time>2026-02-10T10:43:47.000Z</time>
      </trkpt>
      <trkpt lat="43.6261" lon="6.02115">
        <ele>549</ele>
        <time>2026-02-10T10:43:48.000Z</time>
      </trkpt>
      <trkpt lat="43.62609" lon="6.02116">
        <ele>549</ele>
        <time>2026-02-10T10:43:49.000Z</time>
      </trkpt>
      <trkpt lat="43.62609" lon="6.02117">
        <ele>549</ele>
        <time>2026-02-10T10:43:50.000Z</time>
      </trkpt>
      <trkpt lat="43.62608" lon="6.02118">
        <ele>549</ele>
        <time>2026-02-10T10:43:51.000Z</time>
      </trkpt>
      <trkpt lat="43.62607" lon="6.02119">
        <ele>549</ele>
        <time>2026-02-10T10:43:52.000Z</time>
      </trkpt>
      <trkpt lat="43.62606" lon="6.0212">
        <ele>549</ele>
        <time>2026-02-10T10:43:53.000Z</time>
      </trkpt>
      <trkpt lat="43.62605" lon="6.02121">
        <ele>549</ele>
        <time>2026-02-10T10:43:54.000Z</time>
      </trkpt>
      <trkpt lat="43.62604" lon="6.02123">
        <ele>550</ele>
        <time>2026-02-10T10:44:06.000Z</time>
      </trkpt>
      <trkpt lat="43.62603" lon="6.02124">
        <ele>550</ele>
        <time>2026-02-10T10:44:07.000Z</time>
      </trkpt>
      <trkpt lat="43.62603" lon="6.02125">
        <ele>550</ele>
        <time>2026-02-10T10:44:08.000Z</time>
      </trkpt>
      <trkpt lat="43.62602" lon="6.02125">
        <ele>550</ele>
        <time>2026-02-10T10:44:09.000Z</time>
      </trkpt>
      <trkpt lat="43.62601" lon="6.02126">
        <ele>550</ele>
        <time>2026-02-10T10:44:10.000Z</time>
      </trkpt>
      <trkpt lat="43.626" lon="6.02127">
        <ele>550</ele>
        <time>2026-02-10T10:44:11.000Z</time>
      </trkpt>
      <trkpt lat="43.626" lon="6.02128">
        <ele>550</ele>
        <time>2026-02-10T10:44:12.000Z</time>
      </trkpt>
      <trkpt lat="43.62599" lon="6.02129">
        <ele>550</ele>
        <time>2026-02-10T10:44:13.000Z</time>
      </trkpt>
      <trkpt lat="43.62599" lon="6.0213">
        <ele>550</ele>
        <time>2026-02-10T10:44:14.000Z</time>
      </trkpt>
      <trkpt lat="43.62598" lon="6.02132">
        <ele>550</ele>
        <time>2026-02-10T10:44:16.000Z</time>
      </trkpt>
      <trkpt lat="43.62598" lon="6.02134">
        <ele>550</ele>
        <time>2026-02-10T10:44:18.000Z</time>
      </trkpt>
      <trkpt lat="43.62597" lon="6.02135">
        <ele>550</ele>
        <time>2026-02-10T10:44:19.000Z</time>
      </trkpt>
      <trkpt lat="43.62597" lon="6.02137">
        <ele>550</ele>
        <time>2026-02-10T10:44:21.000Z</time>
      </trkpt>
      <trkpt lat="43.62596" lon="6.02138">
        <ele>550</ele>
        <time>2026-02-10T10:44:22.000Z</time>
      </trkpt>
      <trkpt lat="43.62596" lon="6.0214">
        <ele>550</ele>
        <time>2026-02-10T10:44:24.000Z</time>
      </trkpt>
      <trkpt lat="43.62595" lon="6.02141">
        <ele>551</ele>
        <time>2026-02-10T10:44:36.000Z</time>
      </trkpt>
      <trkpt lat="43.62594" lon="6.02142">
        <ele>551</ele>
        <time>2026-02-10T10:44:37.000Z</time>
      </trkpt>
      <trkpt lat="43.62594" lon="6.02144">
        <ele>551</ele>
        <time>2026-02-10T10:44:39.000Z</time>
      </trkpt>
      <trkpt lat="43.62593" lon="6.02146">
        <ele>551</ele>
        <time>2026-02-10T10:44:41.000Z</time>
      </trkpt>
      <trkpt lat="43.62592" lon="6.02147">
        <ele>551</ele>
        <time>2026-02-10T10:44:42.000Z</time>
      </trkpt>
      <trkpt lat="43.62592" lon="6.02149">
        <ele>551</ele>
        <time>2026-02-10T10:44:44.000Z</time>
      </trkpt>
      <trkpt lat="43.62592" lon="6.0215">
        <ele>551</ele>
        <time>2026-02-10T10:44:45.000Z</time>
      </trkpt>
      <trkpt lat="43.62591" lon="6.02152">
        <ele>551</ele>
        <time>2026-02-10T10:44:47.000Z</time>
      </trkpt>
      <trkpt lat="43.62591" lon="6.02153">
        <ele>551</ele>
        <time>2026-02-10T10:44:48.000Z</time>
      </trkpt>
      <trkpt lat="43.62591" lon="6.02155">
        <ele>551</ele>
        <time>2026-02-10T10:44:50.000Z</time>
      </trkpt>
      <trkpt lat="43.6259" lon="6.02156">
        <ele>551</ele>
        <time>2026-02-10T10:44:51.000Z</time>
      </trkpt>
      <trkpt lat="43.62589" lon="6.02158">
        <ele>552</ele>
        <time>2026-02-10T10:45:03.000Z</time>
      </trkpt>
      <trkpt lat="43.62589" lon="6.02159">
        <ele>552</ele>
        <time>2026-02-10T10:45:04.000Z</time>
      </trkpt>
      <trkpt lat="43.62588" lon="6.02161">
        <ele>552</ele>
        <time>2026-02-10T10:45:06.000Z</time>
      </trkpt>
      <trkpt lat="43.62588" lon="6.02162">
        <ele>552</ele>
        <time>2026-02-10T10:45:07.000Z</time>
      </trkpt>
      <trkpt lat="43.62588" lon="6.02163">
        <ele>552</ele>
        <time>2026-02-10T10:45:08.000Z</time>
      </trkpt>
      <trkpt lat="43.62587" lon="6.02164">
        <ele>552</ele>
        <time>2026-02-10T10:45:09.000Z</time>
      </trkpt>
      <trkpt lat="43.62587" lon="6.02166">
        <ele>552</ele>
        <time>2026-02-10T10:45:11.000Z</time>
      </trkpt>
      <trkpt lat="43.62586" lon="6.02168">
        <ele>552</ele>
        <time>2026-02-10T10:45:13.000Z</time>
      </trkpt>
      <trkpt lat="43.62586" lon="6.02169">
        <ele>552</ele>
        <time>2026-02-10T10:45:14.000Z</time>
      </trkpt>
      <trkpt lat="43.62585" lon="6.0217">
        <ele>552</ele>
        <time>2026-02-10T10:45:15.000Z</time>
      </trkpt>
      <trkpt lat="43.62585" lon="6.02172">
        <ele>552</ele>
        <time>2026-02-10T10:45:17.000Z</time>
      </trkpt>
      <trkpt lat="43.62584" lon="6.02173">
        <ele>553</ele>
        <time>2026-02-10T10:45:29.000Z</time>
      </trkpt>
      <trkpt lat="43.62584" lon="6.02174">
        <ele>553</ele>
        <time>2026-02-10T10:45:30.000Z</time>
      </trkpt>
      <trkpt lat="43.62583" lon="6.02175">
        <ele>553</ele>
        <time>2026-02-10T10:45:31.000Z</time>
      </trkpt>
      <trkpt lat="43.62583" lon="6.02177">
        <ele>553</ele>
        <time>2026-02-10T10:45:33.000Z</time>
      </trkpt>
      <trkpt lat="43.62583" lon="6.02178">
        <ele>553</ele>
        <time>2026-02-10T10:45:34.000Z</time>
      </trkpt>
      <trkpt lat="43.62582" lon="6.02179">
        <ele>553</ele>
        <time>2026-02-10T10:45:35.000Z</time>
      </trkpt>
      <trkpt lat="43.62582" lon="6.0218">
        <ele>553</ele>
        <time>2026-02-10T10:45:36.000Z</time>
      </trkpt>
      <trkpt lat="43.62581" lon="6.02181">
        <ele>553</ele>
        <time>2026-02-10T10:45:37.000Z</time>
      </trkpt>
      <trkpt lat="43.6258" lon="6.02182">
        <ele>553</ele>
        <time>2026-02-10T10:45:38.000Z</time>
      </trkpt>
      <trkpt lat="43.6258" lon="6.02184">
        <ele>553</ele>
        <time>2026-02-10T10:45:40.000Z</time>
      </trkpt>
      <trkpt lat="43.6258" lon="6.02185">
        <ele>553</ele>
        <time>2026-02-10T10:45:41.000Z</time>
      </trkpt>
      <trkpt lat="43.62579" lon="6.02187">
        <ele>553</ele>
        <time>2026-02-10T10:45:43.000Z</time>
      </trkpt>
      <trkpt lat="43.62579" lon="6.02188">
        <ele>553</ele>
        <time>2026-02-10T10:45:44.000Z</time>
      </trkpt>
      <trkpt lat="43.62579" lon="6.0219">
        <ele>553</ele>
        <time>2026-02-10T10:45:46.000Z</time>
      </trkpt>
      <trkpt lat="43.62578" lon="6.02191">
        <ele>553</ele>
        <time>2026-02-10T10:45:47.000Z</time>
      </trkpt>
      <trkpt lat="43.62578" lon="6.02193">
        <ele>553</ele>
        <time>2026-02-10T10:45:49.000Z</time>
      </trkpt>
      <trkpt lat="43.62577" lon="6.02194">
        <ele>554</ele>
        <time>2026-02-10T10:46:01.000Z</time>
      </trkpt>
      <trkpt lat="43.62576" lon="6.02196">
        <ele>554</ele>
        <time>2026-02-10T10:46:03.000Z</time>
      </trkpt>
      <trkpt lat="43.62575" lon="6.02197">
        <ele>554</ele>
        <time>2026-02-10T10:46:04.000Z</time>
      </trkpt>
      <trkpt lat="43.62575" lon="6.02199">
        <ele>554</ele>
        <time>2026-02-10T10:46:06.000Z</time>
      </trkpt>
      <trkpt lat="43.62574" lon="6.022">
        <ele>554</ele>
        <time>2026-02-10T10:46:07.000Z</time>
      </trkpt>
      <trkpt lat="43.62574" lon="6.02202">
        <ele>554</ele>
        <time>2026-02-10T10:46:09.000Z</time>
      </trkpt>
      <trkpt lat="43.62573" lon="6.02203">
        <ele>554</ele>
        <time>2026-02-10T10:46:10.000Z</time>
      </trkpt>
      <trkpt lat="43.62572" lon="6.02204">
        <ele>554</ele>
        <time>2026-02-10T10:46:11.000Z</time>
      </trkpt>
      <trkpt lat="43.62572" lon="6.02206">
        <ele>554</ele>
        <time>2026-02-10T10:46:13.000Z</time>
      </trkpt>
      <trkpt lat="43.62571" lon="6.02207">
        <ele>554</ele>
        <time>2026-02-10T10:46:14.000Z</time>
      </trkpt>
      <trkpt lat="43.62571" lon="6.02209">
        <ele>554</ele>
        <time>2026-02-10T10:46:16.000Z</time>
      </trkpt>
      <trkpt lat="43.6257" lon="6.0221">
        <ele>555</ele>
        <time>2026-02-10T10:46:28.000Z</time>
      </trkpt>
      <trkpt lat="43.6257" lon="6.02212">
        <ele>555</ele>
        <time>2026-02-10T10:46:30.000Z</time>
      </trkpt>
      <trkpt lat="43.62569" lon="6.02213">
        <ele>555</ele>
        <time>2026-02-10T10:46:31.000Z</time>
      </trkpt>
      <trkpt lat="43.62568" lon="6.02214">
        <ele>555</ele>
        <time>2026-02-10T10:46:32.000Z</time>
      </trkpt>
      <trkpt lat="43.62568" lon="6.02216">
        <ele>555</ele>
        <time>2026-02-10T10:46:34.000Z</time>
      </trkpt>
      <trkpt lat="43.62567" lon="6.02217">
        <ele>555</ele>
        <time>2026-02-10T10:46:35.000Z</time>
      </trkpt>
      <trkpt lat="43.62567" lon="6.02219">
        <ele>555</ele>
        <time>2026-02-10T10:46:37.000Z</time>
      </trkpt>
      <trkpt lat="43.62567" lon="6.0222">
        <ele>555</ele>
        <time>2026-02-10T10:46:38.000Z</time>
      </trkpt>
      <trkpt lat="43.62566" lon="6.02222">
        <ele>555</ele>
        <time>2026-02-10T10:46:40.000Z</time>
      </trkpt>
      <trkpt lat="43.62566" lon="6.02223">
        <ele>555</ele>
        <time>2026-02-10T10:46:41.000Z</time>
      </trkpt>
      <trkpt lat="43.62566" lon="6.02224">
        <ele>555</ele>
        <time>2026-02-10T10:46:42.000Z</time>
      </trkpt>
      <trkpt lat="43.62565" lon="6.02226">
        <ele>555</ele>
        <time>2026-02-10T10:46:44.000Z</time>
      </trkpt>
      <trkpt lat="43.62565" lon="6.02227">
        <ele>555</ele>
        <time>2026-02-10T10:46:45.000Z</time>
      </trkpt>
      <trkpt lat="43.62564" lon="6.02229">
        <ele>555</ele>
        <time>2026-02-10T10:46:47.000Z</time>
      </trkpt>
      <trkpt lat="43.62563" lon="6.0223">
        <ele>555</ele>
        <time>2026-02-10T10:46:48.000Z</time>
      </trkpt>
      <trkpt lat="43.62563" lon="6.02232">
        <ele>555</ele>
        <time>2026-02-10T10:46:50.000Z</time>
      </trkpt>
      <trkpt lat="43.62562" lon="6.02233">
        <ele>556</ele>
        <time>2026-02-10T10:47:02.000Z</time>
      </trkpt>
      <trkpt lat="43.62562" lon="6.02235">
        <ele>556</ele>
        <time>2026-02-10T10:47:04.000Z</time>
      </trkpt>
      <trkpt lat="43.62561" lon="6.02236">
        <ele>556</ele>
        <time>2026-02-10T10:47:05.000Z</time>
      </trkpt>
      <trkpt lat="43.62561" lon="6.02238">
        <ele>556</ele>
        <time>2026-02-10T10:47:07.000Z</time>
      </trkpt>
      <trkpt lat="43.62561" lon="6.02239">
        <ele>556</ele>
        <time>2026-02-10T10:47:08.000Z</time>
      </trkpt>
      <trkpt lat="43.6256" lon="6.02241">
        <ele>556</ele>
        <time>2026-02-10T10:47:10.000Z</time>
      </trkpt>
      <trkpt lat="43.6256" lon="6.02243">
        <ele>556</ele>
        <time>2026-02-10T10:47:12.000Z</time>
      </trkpt>
      <trkpt lat="43.62559" lon="6.02244">
        <ele>556</ele>
        <time>2026-02-10T10:47:13.000Z</time>
      </trkpt>
      <trkpt lat="43.62559" lon="6.02246">
        <ele>556</ele>
        <time>2026-02-10T10:47:15.000Z</time>
      </trkpt>
      <trkpt lat="43.62558" lon="6.02247">
        <ele>556</ele>
        <time>2026-02-10T10:47:16.000Z</time>
      </trkpt>
      <trkpt lat="43.62558" lon="6.02249">
        <ele>556</ele>
        <time>2026-02-10T10:47:18.000Z</time>
      </trkpt>
      <trkpt lat="43.62557" lon="6.02251">
        <ele>556</ele>
        <time>2026-02-10T10:47:20.000Z</time>
      </trkpt>
      <trkpt lat="43.62557" lon="6.02252">
        <ele>556</ele>
        <time>2026-02-10T10:47:21.000Z</time>
      </trkpt>
      <trkpt lat="43.62556" lon="6.02253">
        <ele>556</ele>
        <time>2026-02-10T10:47:22.000Z</time>
      </trkpt>
      <trkpt lat="43.62556" lon="6.02255">
        <ele>556</ele>
        <time>2026-02-10T10:47:24.000Z</time>
      </trkpt>
      <trkpt lat="43.62556" lon="6.02257">
        <ele>556</ele>
        <time>2026-02-10T10:47:26.000Z</time>
      </trkpt>
      <trkpt lat="43.62555" lon="6.02258">
        <ele>556</ele>
        <time>2026-02-10T10:47:27.000Z</time>
      </trkpt>
      <trkpt lat="43.62555" lon="6.0226">
        <ele>556</ele>
        <time>2026-02-10T10:47:29.000Z</time>
      </trkpt>
      <trkpt lat="43.62554" lon="6.02261">
        <ele>556</ele>
        <time>2026-02-10T10:47:30.000Z</time>
      </trkpt>
      <trkpt lat="43.62554" lon="6.02262">
        <ele>556</ele>
        <time>2026-02-10T10:47:31.000Z</time>
      </trkpt>
      <trkpt lat="43.62553" lon="6.02263">
        <ele>556</ele>
        <time>2026-02-10T10:47:32.000Z</time>
      </trkpt>
      <trkpt lat="43.62553" lon="6.02265">
        <ele>556</ele>
        <time>2026-02-10T10:47:34.000Z</time>
      </trkpt>
      <trkpt lat="43.62553" lon="6.02265">
        <ele>556</ele>
        <time>2026-02-10T10:47:34.000Z</time>
      </trkpt>
      <trkpt lat="43.62553" lon="6.02267">
        <ele>556</ele>
        <time>2026-02-10T10:47:36.000Z</time>
      </trkpt>
      <trkpt lat="43.62552" lon="6.02268">
        <ele>556</ele>
        <time>2026-02-10T10:47:37.000Z</time>
      </trkpt>
      <trkpt lat="43.62552" lon="6.02269">
        <ele>556</ele>
        <time>2026-02-10T10:47:38.000Z</time>
      </trkpt>
      <trkpt lat="43.62551" lon="6.0227">
        <ele>557</ele>
        <time>2026-02-10T10:47:50.000Z</time>
      </trkpt>
      <trkpt lat="43.62551" lon="6.02272">
        <ele>557</ele>
        <time>2026-02-10T10:47:52.000Z</time>
      </trkpt>
      <trkpt lat="43.6255" lon="6.02273">
        <ele>557</ele>
        <time>2026-02-10T10:47:53.000Z</time>
      </trkpt>
      <trkpt lat="43.6255" lon="6.02275">
        <ele>557</ele>
        <time>2026-02-10T10:47:55.000Z</time>
      </trkpt>
      <trkpt lat="43.62549" lon="6.02275">
        <ele>557</ele>
        <time>2026-02-10T10:47:56.000Z</time>
      </trkpt>
      <trkpt lat="43.62548" lon="6.02277">
        <ele>557</ele>
        <time>2026-02-10T10:47:58.000Z</time>
      </trkpt>
      <trkpt lat="43.62548" lon="6.02278">
        <ele>557</ele>
        <time>2026-02-10T10:47:59.000Z</time>
      </trkpt>
      <trkpt lat="43.62547" lon="6.02279">
        <ele>557</ele>
        <time>2026-02-10T10:48:00.000Z</time>
      </trkpt>
      <trkpt lat="43.62546" lon="6.0228">
        <ele>557</ele>
        <time>2026-02-10T10:48:01.000Z</time>
      </trkpt>
      <trkpt lat="43.62545" lon="6.02281">
        <ele>557</ele>
        <time>2026-02-10T10:48:02.000Z</time>
      </trkpt>
      <trkpt lat="43.62545" lon="6.02283">
        <ele>557</ele>
        <time>2026-02-10T10:48:04.000Z</time>
      </trkpt>
      <trkpt lat="43.62544" lon="6.02284">
        <ele>557</ele>
        <time>2026-02-10T10:48:05.000Z</time>
      </trkpt>
      <trkpt lat="43.62543" lon="6.02285">
        <ele>557</ele>
        <time>2026-02-10T10:48:06.000Z</time>
      </trkpt>
      <trkpt lat="43.62542" lon="6.02286">
        <ele>557</ele>
        <time>2026-02-10T10:48:07.000Z</time>
      </trkpt>
      <trkpt lat="43.62542" lon="6.02287">
        <ele>557</ele>
        <time>2026-02-10T10:48:08.000Z</time>
      </trkpt>
      <trkpt lat="43.62541" lon="6.02289">
        <ele>558</ele>
        <time>2026-02-10T10:48:20.000Z</time>
      </trkpt>
      <trkpt lat="43.62541" lon="6.0229">
        <ele>558</ele>
        <time>2026-02-10T10:48:21.000Z</time>
      </trkpt>
      <trkpt lat="43.6254" lon="6.02291">
        <ele>558</ele>
        <time>2026-02-10T10:48:22.000Z</time>
      </trkpt>
      <trkpt lat="43.62539" lon="6.02293">
        <ele>558</ele>
        <time>2026-02-10T10:48:24.000Z</time>
      </trkpt>
      <trkpt lat="43.62538" lon="6.02294">
        <ele>558</ele>
        <time>2026-02-10T10:48:25.000Z</time>
      </trkpt>
      <trkpt lat="43.62538" lon="6.02295">
        <ele>558</ele>
        <time>2026-02-10T10:48:26.000Z</time>
      </trkpt>
      <trkpt lat="43.62537" lon="6.02296">
        <ele>558</ele>
        <time>2026-02-10T10:48:27.000Z</time>
      </trkpt>
      <trkpt lat="43.62536" lon="6.02297">
        <ele>558</ele>
        <time>2026-02-10T10:48:28.000Z</time>
      </trkpt>
      <trkpt lat="43.62535" lon="6.02299">
        <ele>558</ele>
        <time>2026-02-10T10:48:30.000Z</time>
      </trkpt>
      <trkpt lat="43.62534" lon="6.023">
        <ele>558</ele>
        <time>2026-02-10T10:48:31.000Z</time>
      </trkpt>
      <trkpt lat="43.62534" lon="6.02301">
        <ele>558</ele>
        <time>2026-02-10T10:48:32.000Z</time>
      </trkpt>
      <trkpt lat="43.62533" lon="6.02302">
        <ele>558</ele>
        <time>2026-02-10T10:48:33.000Z</time>
      </trkpt>
      <trkpt lat="43.62533" lon="6.02304">
        <ele>558</ele>
        <time>2026-02-10T10:48:35.000Z</time>
      </trkpt>
      <trkpt lat="43.62532" lon="6.02305">
        <ele>559</ele>
        <time>2026-02-10T10:48:47.000Z</time>
      </trkpt>
      <trkpt lat="43.62531" lon="6.02306">
        <ele>559</ele>
        <time>2026-02-10T10:48:48.000Z</time>
      </trkpt>
      <trkpt lat="43.6253" lon="6.02307">
        <ele>559</ele>
        <time>2026-02-10T10:48:49.000Z</time>
      </trkpt>
      <trkpt lat="43.62529" lon="6.02308">
        <ele>559</ele>
        <time>2026-02-10T10:48:50.000Z</time>
      </trkpt>
      <trkpt lat="43.62528" lon="6.0231">
        <ele>559</ele>
        <time>2026-02-10T10:48:52.000Z</time>
      </trkpt>
      <trkpt lat="43.62528" lon="6.02311">
        <ele>559</ele>
        <time>2026-02-10T10:48:53.000Z</time>
      </trkpt>
      <trkpt lat="43.62527" lon="6.02312">
        <ele>559</ele>
        <time>2026-02-10T10:48:54.000Z</time>
      </trkpt>
      <trkpt lat="43.62526" lon="6.02313">
        <ele>559</ele>
        <time>2026-02-10T10:48:55.000Z</time>
      </trkpt>
      <trkpt lat="43.62525" lon="6.02314">
        <ele>559</ele>
        <time>2026-02-10T10:48:56.000Z</time>
      </trkpt>
      <trkpt lat="43.62524" lon="6.02315">
        <ele>559</ele>
        <time>2026-02-10T10:48:57.000Z</time>
      </trkpt>
      <trkpt lat="43.62524" lon="6.02316">
        <ele>559</ele>
        <time>2026-02-10T10:48:58.000Z</time>
      </trkpt>
      <trkpt lat="43.62523" lon="6.02318">
        <ele>559</ele>
        <time>2026-02-10T10:49:00.000Z</time>
      </trkpt>
      <trkpt lat="43.62522" lon="6.02319">
        <ele>559</ele>
        <time>2026-02-10T10:49:01.000Z</time>
      </trkpt>
      <trkpt lat="43.62522" lon="6.0232">
        <ele>559</ele>
        <time>2026-02-10T10:49:02.000Z</time>
      </trkpt>
      <trkpt lat="43.62521" lon="6.02321">
        <ele>559</ele>
        <time>2026-02-10T10:49:03.000Z</time>
      </trkpt>
      <trkpt lat="43.6252" lon="6.02322">
        <ele>559</ele>
        <time>2026-02-10T10:49:04.000Z</time>
      </trkpt>
      <trkpt lat="43.6252" lon="6.02324">
        <ele>559</ele>
        <time>2026-02-10T10:49:06.000Z</time>
      </trkpt>
      <trkpt lat="43.62519" lon="6.02325">
        <ele>559</ele>
        <time>2026-02-10T10:49:07.000Z</time>
      </trkpt>
      <trkpt lat="43.62518" lon="6.02326">
        <ele>559</ele>
        <time>2026-02-10T10:49:08.000Z</time>
      </trkpt>
      <trkpt lat="43.62518" lon="6.02328">
        <ele>559</ele>
        <time>2026-02-10T10:49:10.000Z</time>
      </trkpt>
      <trkpt lat="43.62517" lon="6.02329">
        <ele>560</ele>
        <time>2026-02-10T10:49:22.000Z</time>
      </trkpt>
      <trkpt lat="43.62516" lon="6.0233">
        <ele>560</ele>
        <time>2026-02-10T10:49:23.000Z</time>
      </trkpt>
      <trkpt lat="43.62515" lon="6.02332">
        <ele>560</ele>
        <time>2026-02-10T10:49:25.000Z</time>
      </trkpt>
      <trkpt lat="43.62514" lon="6.02333">
        <ele>560</ele>
        <time>2026-02-10T10:49:26.000Z</time>
      </trkpt>
      <trkpt lat="43.62514" lon="6.02335">
        <ele>560</ele>
        <time>2026-02-10T10:49:28.000Z</time>
      </trkpt>
      <trkpt lat="43.62513" lon="6.02336">
        <ele>560</ele>
        <time>2026-02-10T10:49:29.000Z</time>
      </trkpt>
      <trkpt lat="43.62512" lon="6.02337">
        <ele>560</ele>
        <time>2026-02-10T10:49:30.000Z</time>
      </trkpt>
      <trkpt lat="43.62512" lon="6.02339">
        <ele>560</ele>
        <time>2026-02-10T10:49:32.000Z</time>
      </trkpt>
      <trkpt lat="43.62511" lon="6.0234">
        <ele>560</ele>
        <time>2026-02-10T10:49:33.000Z</time>
      </trkpt>
      <trkpt lat="43.62511" lon="6.02342">
        <ele>560</ele>
        <time>2026-02-10T10:49:35.000Z</time>
      </trkpt>
      <trkpt lat="43.6251" lon="6.02344">
        <ele>560</ele>
        <time>2026-02-10T10:49:37.000Z</time>
      </trkpt>
      <trkpt lat="43.6251" lon="6.02345">
        <ele>560</ele>
        <time>2026-02-10T10:49:38.000Z</time>
      </trkpt>
      <trkpt lat="43.62509" lon="6.02347">
        <ele>560</ele>
        <time>2026-02-10T10:49:40.000Z</time>
      </trkpt>
      <trkpt lat="43.62509" lon="6.02348">
        <ele>560</ele>
        <time>2026-02-10T10:49:41.000Z</time>
      </trkpt>
      <trkpt lat="43.62508" lon="6.0235">
        <ele>560</ele>
        <time>2026-02-10T10:49:43.000Z</time>
      </trkpt>
      <trkpt lat="43.62507" lon="6.02352">
        <ele>560</ele>
        <time>2026-02-10T10:49:45.000Z</time>
      </trkpt>
      <trkpt lat="43.62506" lon="6.02353">
        <ele>561</ele>
        <time>2026-02-10T10:49:57.000Z</time>
      </trkpt>
      <trkpt lat="43.62506" lon="6.02354">
        <ele>561</ele>
        <time>2026-02-10T10:49:58.000Z</time>
      </trkpt>
      <trkpt lat="43.62505" lon="6.02356">
        <ele>561</ele>
        <time>2026-02-10T10:50:00.000Z</time>
      </trkpt>
      <trkpt lat="43.62504" lon="6.02357">
        <ele>561</ele>
        <time>2026-02-10T10:50:01.000Z</time>
      </trkpt>
      <trkpt lat="43.62504" lon="6.02359">
        <ele>561</ele>
        <time>2026-02-10T10:50:03.000Z</time>
      </trkpt>
      <trkpt lat="43.62503" lon="6.02361">
        <ele>561</ele>
        <time>2026-02-10T10:50:05.000Z</time>
      </trkpt>
      <trkpt lat="43.62503" lon="6.02362">
        <ele>561</ele>
        <time>2026-02-10T10:50:06.000Z</time>
      </trkpt>
      <trkpt lat="43.62502" lon="6.02363">
        <ele>561</ele>
        <time>2026-02-10T10:50:07.000Z</time>
      </trkpt>
      <trkpt lat="43.62502" lon="6.02365">
        <ele>561</ele>
        <time>2026-02-10T10:50:09.000Z</time>
      </trkpt>
      <trkpt lat="43.62501" lon="6.02367">
        <ele>561</ele>
        <time>2026-02-10T10:50:11.000Z</time>
      </trkpt>
      <trkpt lat="43.62501" lon="6.02368">
        <ele>561</ele>
        <time>2026-02-10T10:50:12.000Z</time>
      </trkpt>
      <trkpt lat="43.625" lon="6.0237">
        <ele>561</ele>
        <time>2026-02-10T10:50:14.000Z</time>
      </trkpt>
      <trkpt lat="43.62499" lon="6.02372">
        <ele>561</ele>
        <time>2026-02-10T10:50:16.000Z</time>
      </trkpt>
      <trkpt lat="43.62499" lon="6.02373">
        <ele>561</ele>
        <time>2026-02-10T10:50:17.000Z</time>
      </trkpt>
      <trkpt lat="43.62498" lon="6.02374">
        <ele>561</ele>
        <time>2026-02-10T10:50:18.000Z</time>
      </trkpt>
      <trkpt lat="43.62497" lon="6.02376">
        <ele>561</ele>
        <time>2026-02-10T10:50:20.000Z</time>
      </trkpt>
      <trkpt lat="43.62497" lon="6.02377">
        <ele>561</ele>
        <time>2026-02-10T10:50:21.000Z</time>
      </trkpt>
      <trkpt lat="43.62496" lon="6.02379">
        <ele>561</ele>
        <time>2026-02-10T10:50:23.000Z</time>
      </trkpt>
      <trkpt lat="43.62495" lon="6.0238">
        <ele>561</ele>
        <time>2026-02-10T10:50:24.000Z</time>
      </trkpt>
      <trkpt lat="43.62495" lon="6.02382">
        <ele>561</ele>
        <time>2026-02-10T10:50:26.000Z</time>
      </trkpt>
      <trkpt lat="43.62495" lon="6.02384">
        <ele>561</ele>
        <time>2026-02-10T10:50:28.000Z</time>
      </trkpt>
      <trkpt lat="43.62495" lon="6.02384">
        <ele>561</ele>
        <time>2026-02-10T10:50:28.000Z</time>
      </trkpt>
      <trkpt lat="43.62494" lon="6.02385">
        <ele>561</ele>
        <time>2026-02-10T10:50:29.000Z</time>
      </trkpt>
      <trkpt lat="43.62493" lon="6.02387">
        <ele>561</ele>
        <time>2026-02-10T10:50:31.000Z</time>
      </trkpt>
      <trkpt lat="43.62493" lon="6.02389">
        <ele>561</ele>
        <time>2026-02-10T10:50:33.000Z</time>
      </trkpt>
      <trkpt lat="43.62492" lon="6.0239">
        <ele>561</ele>
        <time>2026-02-10T10:50:34.000Z</time>
      </trkpt>
      <trkpt lat="43.62491" lon="6.02392">
        <ele>561</ele>
        <time>2026-02-10T10:50:36.000Z</time>
      </trkpt>
      <trkpt lat="43.6249" lon="6.02394">
        <ele>561</ele>
        <time>2026-02-10T10:50:38.000Z</time>
      </trkpt>
      <trkpt lat="43.6249" lon="6.02396">
        <ele>561</ele>
        <time>2026-02-10T10:50:40.000Z</time>
      </trkpt>
      <trkpt lat="43.6249" lon="6.02397">
        <ele>561</ele>
        <time>2026-02-10T10:50:41.000Z</time>
      </trkpt>
      <trkpt lat="43.62489" lon="6.02398">
        <ele>561</ele>
        <time>2026-02-10T10:50:42.000Z</time>
      </trkpt>
      <trkpt lat="43.62489" lon="6.024">
        <ele>561</ele>
        <time>2026-02-10T10:50:44.000Z</time>
      </trkpt>
      <trkpt lat="43.62488" lon="6.02402">
        <ele>561</ele>
        <time>2026-02-10T10:50:46.000Z</time>
      </trkpt>
      <trkpt lat="43.62488" lon="6.02404">
        <ele>561</ele>
        <time>2026-02-10T10:50:48.000Z</time>
      </trkpt>
      <trkpt lat="43.62488" lon="6.02405">
        <ele>561</ele>
        <time>2026-02-10T10:50:49.000Z</time>
      </trkpt>
      <trkpt lat="43.62488" lon="6.02406">
        <ele>561</ele>
        <time>2026-02-10T10:50:50.000Z</time>
      </trkpt>
      <trkpt lat="43.62487" lon="6.02408">
        <ele>561</ele>
        <time>2026-02-10T10:50:52.000Z</time>
      </trkpt>
      <trkpt lat="43.62487" lon="6.0241">
        <ele>561</ele>
        <time>2026-02-10T10:50:54.000Z</time>
      </trkpt>
      <trkpt lat="43.62487" lon="6.02411">
        <ele>561</ele>
        <time>2026-02-10T10:50:55.000Z</time>
      </trkpt>
      <trkpt lat="43.62486" lon="6.02413">
        <ele>561</ele>
        <time>2026-02-10T10:50:57.000Z</time>
      </trkpt>
      <trkpt lat="43.62486" lon="6.02415">
        <ele>561</ele>
        <time>2026-02-10T10:50:59.000Z</time>
      </trkpt>
      <trkpt lat="43.62485" lon="6.02416">
        <ele>561</ele>
        <time>2026-02-10T10:51:00.000Z</time>
      </trkpt>
      <trkpt lat="43.62484" lon="6.02417">
        <ele>561</ele>
        <time>2026-02-10T10:51:01.000Z</time>
      </trkpt>
      <trkpt lat="43.62483" lon="6.02419">
        <ele>561</ele>
        <time>2026-02-10T10:51:03.000Z</time>
      </trkpt>
      <trkpt lat="43.62483" lon="6.0242">
        <ele>561</ele>
        <time>2026-02-10T10:51:04.000Z</time>
      </trkpt>
      <trkpt lat="43.62482" lon="6.02422">
        <ele>561</ele>
        <time>2026-02-10T10:51:06.000Z</time>
      </trkpt>
      <trkpt lat="43.62482" lon="6.02423">
        <ele>561</ele>
        <time>2026-02-10T10:51:07.000Z</time>
      </trkpt>
      <trkpt lat="43.62481" lon="6.02424">
        <ele>561</ele>
        <time>2026-02-10T10:51:08.000Z</time>
      </trkpt>
      <trkpt lat="43.62481" lon="6.02426">
        <ele>561</ele>
        <time>2026-02-10T10:51:10.000Z</time>
      </trkpt>
      <trkpt lat="43.6248" lon="6.02428">
        <ele>561</ele>
        <time>2026-02-10T10:51:12.000Z</time>
      </trkpt>
      <trkpt lat="43.6248" lon="6.02429">
        <ele>561</ele>
        <time>2026-02-10T10:51:13.000Z</time>
      </trkpt>
      <trkpt lat="43.6248" lon="6.02431">
        <ele>561</ele>
        <time>2026-02-10T10:51:15.000Z</time>
      </trkpt>
      <trkpt lat="43.62479" lon="6.02433">
        <ele>561</ele>
        <time>2026-02-10T10:51:17.000Z</time>
      </trkpt>
      <trkpt lat="43.62479" lon="6.02434">
        <ele>561</ele>
        <time>2026-02-10T10:51:18.000Z</time>
      </trkpt>
      <trkpt lat="43.62479" lon="6.02436">
        <ele>561</ele>
        <time>2026-02-10T10:51:20.000Z</time>
      </trkpt>
      <trkpt lat="43.62479" lon="6.02438">
        <ele>561</ele>
        <time>2026-02-10T10:51:22.000Z</time>
      </trkpt>
      <trkpt lat="43.62478" lon="6.02439">
        <ele>561</ele>
        <time>2026-02-10T10:51:23.000Z</time>
      </trkpt>
      <trkpt lat="43.62479" lon="6.02441">
        <ele>561</ele>
        <time>2026-02-10T10:51:25.000Z</time>
      </trkpt>
      <trkpt lat="43.62479" lon="6.02442">
        <ele>561</ele>
        <time>2026-02-10T10:51:26.000Z</time>
      </trkpt>
      <trkpt lat="43.62479" lon="6.02444">
        <ele>561</ele>
        <time>2026-02-10T10:51:28.000Z</time>
      </trkpt>
      <trkpt lat="43.62478" lon="6.02446">
        <ele>561</ele>
        <time>2026-02-10T10:51:30.000Z</time>
      </trkpt>
      <trkpt lat="43.62478" lon="6.02447">
        <ele>561</ele>
        <time>2026-02-10T10:51:31.000Z</time>
      </trkpt>
      <trkpt lat="43.62478" lon="6.02448">
        <ele>561</ele>
        <time>2026-02-10T10:51:32.000Z</time>
      </trkpt>
      <trkpt lat="43.62478" lon="6.0245">
        <ele>561</ele>
        <time>2026-02-10T10:51:34.000Z</time>
      </trkpt>
      <trkpt lat="43.62477" lon="6.02452">
        <ele>561</ele>
        <time>2026-02-10T10:51:36.000Z</time>
      </trkpt>
      <trkpt lat="43.62477" lon="6.02453">
        <ele>561</ele>
        <time>2026-02-10T10:51:37.000Z</time>
      </trkpt>
      <trkpt lat="43.62477" lon="6.02455">
        <ele>561</ele>
        <time>2026-02-10T10:51:39.000Z</time>
      </trkpt>
      <trkpt lat="43.62477" lon="6.02456">
        <ele>561</ele>
        <time>2026-02-10T10:51:40.000Z</time>
      </trkpt>
      <trkpt lat="43.62476" lon="6.02458">
        <ele>561</ele>
        <time>2026-02-10T10:51:42.000Z</time>
      </trkpt>
      <trkpt lat="43.62476" lon="6.0246">
        <ele>561</ele>
        <time>2026-02-10T10:51:44.000Z</time>
      </trkpt>
      <trkpt lat="43.62476" lon="6.02461">
        <ele>561</ele>
        <time>2026-02-10T10:51:45.000Z</time>
      </trkpt>
      <trkpt lat="43.62475" lon="6.02462">
        <ele>561</ele>
        <time>2026-02-10T10:51:46.000Z</time>
      </trkpt>
      <trkpt lat="43.62475" lon="6.02464">
        <ele>561</ele>
        <time>2026-02-10T10:51:48.000Z</time>
      </trkpt>
      <trkpt lat="43.62475" lon="6.02466">
        <ele>561</ele>
        <time>2026-02-10T10:51:50.000Z</time>
      </trkpt>
      <trkpt lat="43.62475" lon="6.02467">
        <ele>561</ele>
        <time>2026-02-10T10:51:51.000Z</time>
      </trkpt>
      <trkpt lat="43.62475" lon="6.02469">
        <ele>561</ele>
        <time>2026-02-10T10:51:53.000Z</time>
      </trkpt>
      <trkpt lat="43.62474" lon="6.02471">
        <ele>561</ele>
        <time>2026-02-10T10:51:55.000Z</time>
      </trkpt>
      <trkpt lat="43.62474" lon="6.02473">
        <ele>561</ele>
        <time>2026-02-10T10:51:57.000Z</time>
      </trkpt>
      <trkpt lat="43.62473" lon="6.02474">
        <ele>562</ele>
        <time>2026-02-10T10:52:09.000Z</time>
      </trkpt>
      <trkpt lat="43.62473" lon="6.02476">
        <ele>562</ele>
        <time>2026-02-10T10:52:11.000Z</time>
      </trkpt>
      <trkpt lat="43.62473" lon="6.02477">
        <ele>562</ele>
        <time>2026-02-10T10:52:12.000Z</time>
      </trkpt>
      <trkpt lat="43.62473" lon="6.02479">
        <ele>562</ele>
        <time>2026-02-10T10:52:14.000Z</time>
      </trkpt>
      <trkpt lat="43.62473" lon="6.0248">
        <ele>562</ele>
        <time>2026-02-10T10:52:15.000Z</time>
      </trkpt>
      <trkpt lat="43.62473" lon="6.02482">
        <ele>562</ele>
        <time>2026-02-10T10:52:17.000Z</time>
      </trkpt>
      <trkpt lat="43.62472" lon="6.02483">
        <ele>562</ele>
        <time>2026-02-10T10:52:18.000Z</time>
      </trkpt>
      <trkpt lat="43.62472" lon="6.02485">
        <ele>562</ele>
        <time>2026-02-10T10:52:20.000Z</time>
      </trkpt>
      <trkpt lat="43.62472" lon="6.02486">
        <ele>562</ele>
        <time>2026-02-10T10:52:21.000Z</time>
      </trkpt>
      <trkpt lat="43.62472" lon="6.02488">
        <ele>562</ele>
        <time>2026-02-10T10:52:23.000Z</time>
      </trkpt>
      <trkpt lat="43.62471" lon="6.0249">
        <ele>562</ele>
        <time>2026-02-10T10:52:25.000Z</time>
      </trkpt>
      <trkpt lat="43.62471" lon="6.02491">
        <ele>562</ele>
        <time>2026-02-10T10:52:26.000Z</time>
      </trkpt>
      <trkpt lat="43.62471" lon="6.02493">
        <ele>562</ele>
        <time>2026-02-10T10:52:28.000Z</time>
      </trkpt>
      <trkpt lat="43.62471" lon="6.02494">
        <ele>562</ele>
        <time>2026-02-10T10:52:29.000Z</time>
      </trkpt>
      <trkpt lat="43.6247" lon="6.02496">
        <ele>562</ele>
        <time>2026-02-10T10:52:31.000Z</time>
      </trkpt>
      <trkpt lat="43.6247" lon="6.02497">
        <ele>562</ele>
        <time>2026-02-10T10:52:32.000Z</time>
      </trkpt>
      <trkpt lat="43.62469" lon="6.02499">
        <ele>562</ele>
        <time>2026-02-10T10:52:34.000Z</time>
      </trkpt>
      <trkpt lat="43.62469" lon="6.025">
        <ele>562</ele>
        <time>2026-02-10T10:52:35.000Z</time>
      </trkpt>
      <trkpt lat="43.62469" lon="6.02502">
        <ele>562</ele>
        <time>2026-02-10T10:52:37.000Z</time>
      </trkpt>
      <trkpt lat="43.62469" lon="6.02504">
        <ele>562</ele>
        <time>2026-02-10T10:52:39.000Z</time>
      </trkpt>
      <trkpt lat="43.62469" lon="6.02505">
        <ele>562</ele>
        <time>2026-02-10T10:52:40.000Z</time>
      </trkpt>
      <trkpt lat="43.62469" lon="6.02507">
        <ele>562</ele>
        <time>2026-02-10T10:52:42.000Z</time>
      </trkpt>
      <trkpt lat="43.62468" lon="6.02508">
        <ele>562</ele>
        <time>2026-02-10T10:52:43.000Z</time>
      </trkpt>
      <trkpt lat="43.62468" lon="6.0251">
        <ele>562</ele>
        <time>2026-02-10T10:52:45.000Z</time>
      </trkpt>
      <trkpt lat="43.62468" lon="6.02512">
        <ele>562</ele>
        <time>2026-02-10T10:52:47.000Z</time>
      </trkpt>
      <trkpt lat="43.62468" lon="6.02514">
        <ele>562</ele>
        <time>2026-02-10T10:52:49.000Z</time>
      </trkpt>
      <trkpt lat="43.62467" lon="6.02515">
        <ele>562</ele>
        <time>2026-02-10T10:52:50.000Z</time>
      </trkpt>
      <trkpt lat="43.62467" lon="6.02517">
        <ele>562</ele>
        <time>2026-02-10T10:52:52.000Z</time>
      </trkpt>
      <trkpt lat="43.62467" lon="6.02518">
        <ele>562</ele>
        <time>2026-02-10T10:52:53.000Z</time>
      </trkpt>
      <trkpt lat="43.62467" lon="6.0252">
        <ele>562</ele>
        <time>2026-02-10T10:52:55.000Z</time>
      </trkpt>
      <trkpt lat="43.62466" lon="6.02522">
        <ele>562</ele>
        <time>2026-02-10T10:52:57.000Z</time>
      </trkpt>
      <trkpt lat="43.62466" lon="6.02524">
        <ele>563</ele>
        <time>2026-02-10T10:53:09.000Z</time>
      </trkpt>
      <trkpt lat="43.62465" lon="6.02525">
        <ele>563</ele>
        <time>2026-02-10T10:53:10.000Z</time>
      </trkpt>
      <trkpt lat="43.62465" lon="6.02527">
        <ele>563</ele>
        <time>2026-02-10T10:53:12.000Z</time>
      </trkpt>
      <trkpt lat="43.62465" lon="6.02528">
        <ele>563</ele>
        <time>2026-02-10T10:53:13.000Z</time>
      </trkpt>
      <trkpt lat="43.62465" lon="6.0253">
        <ele>563</ele>
        <time>2026-02-10T10:53:15.000Z</time>
      </trkpt>
      <trkpt lat="43.62465" lon="6.02531">
        <ele>563</ele>
        <time>2026-02-10T10:53:16.000Z</time>
      </trkpt>
      <trkpt lat="43.62465" lon="6.02532">
        <ele>563</ele>
        <time>2026-02-10T10:53:17.000Z</time>
      </trkpt>
      <trkpt lat="43.62465" lon="6.02534">
        <ele>563</ele>
        <time>2026-02-10T10:53:19.000Z</time>
      </trkpt>
      <trkpt lat="43.62465" lon="6.02535">
        <ele>563</ele>
        <time>2026-02-10T10:53:20.000Z</time>
      </trkpt>
      <trkpt lat="43.62465" lon="6.02537">
        <ele>563</ele>
        <time>2026-02-10T10:53:22.000Z</time>
      </trkpt>
      <trkpt lat="43.62465" lon="6.02539">
        <ele>563</ele>
        <time>2026-02-10T10:53:24.000Z</time>
      </trkpt>
      <trkpt lat="43.62465" lon="6.0254">
        <ele>563</ele>
        <time>2026-02-10T10:53:25.000Z</time>
      </trkpt>
      <trkpt lat="43.62465" lon="6.02541">
        <ele>563</ele>
        <time>2026-02-10T10:53:26.000Z</time>
      </trkpt>
      <trkpt lat="43.62465" lon="6.02542">
        <ele>563</ele>
        <time>2026-02-10T10:53:27.000Z</time>
      </trkpt>
      <trkpt lat="43.62465" lon="6.02544">
        <ele>563</ele>
        <time>2026-02-10T10:53:29.000Z</time>
      </trkpt>
      <trkpt lat="43.62464" lon="6.02546">
        <ele>563</ele>
        <time>2026-02-10T10:53:31.000Z</time>
      </trkpt>
      <trkpt lat="43.62464" lon="6.02547">
        <ele>563</ele>
        <time>2026-02-10T10:53:32.000Z</time>
      </trkpt>
      <trkpt lat="43.62463" lon="6.02549">
        <ele>564</ele>
        <time>2026-02-10T10:53:44.000Z</time>
      </trkpt>
      <trkpt lat="43.62463" lon="6.0255">
        <ele>564</ele>
        <time>2026-02-10T10:53:45.000Z</time>
      </trkpt>
      <trkpt lat="43.62463" lon="6.02551">
        <ele>564</ele>
        <time>2026-02-10T10:53:46.000Z</time>
      </trkpt>
      <trkpt lat="43.62463" lon="6.02552">
        <ele>564</ele>
        <time>2026-02-10T10:53:47.000Z</time>
      </trkpt>
      <trkpt lat="43.62462" lon="6.02554">
        <ele>564</ele>
        <time>2026-02-10T10:53:49.000Z</time>
      </trkpt>
      <trkpt lat="43.62462" lon="6.02556">
        <ele>564</ele>
        <time>2026-02-10T10:53:51.000Z</time>
      </trkpt>
      <trkpt lat="43.62462" lon="6.02557">
        <ele>564</ele>
        <time>2026-02-10T10:53:52.000Z</time>
      </trkpt>
      <trkpt lat="43.62461" lon="6.02559">
        <ele>564</ele>
        <time>2026-02-10T10:53:54.000Z</time>
      </trkpt>
      <trkpt lat="43.62461" lon="6.0256">
        <ele>564</ele>
        <time>2026-02-10T10:53:55.000Z</time>
      </trkpt>
      <trkpt lat="43.62461" lon="6.02561">
        <ele>564</ele>
        <time>2026-02-10T10:53:56.000Z</time>
      </trkpt>
      <trkpt lat="43.62461" lon="6.02563">
        <ele>564</ele>
        <time>2026-02-10T10:53:58.000Z</time>
      </trkpt>
      <trkpt lat="43.62461" lon="6.02565">
        <ele>564</ele>
        <time>2026-02-10T10:54:00.000Z</time>
      </trkpt>
      <trkpt lat="43.62461" lon="6.02566">
        <ele>564</ele>
        <time>2026-02-10T10:54:01.000Z</time>
      </trkpt>
      <trkpt lat="43.62461" lon="6.02568">
        <ele>565</ele>
        <time>2026-02-10T10:54:13.000Z</time>
      </trkpt>
      <trkpt lat="43.62462" lon="6.0257">
        <ele>565</ele>
        <time>2026-02-10T10:54:15.000Z</time>
      </trkpt>
      <trkpt lat="43.62461" lon="6.02571">
        <ele>565</ele>
        <time>2026-02-10T10:54:16.000Z</time>
      </trkpt>
      <trkpt lat="43.62461" lon="6.02573">
        <ele>565</ele>
        <time>2026-02-10T10:54:18.000Z</time>
      </trkpt>
      <trkpt lat="43.62461" lon="6.02574">
        <ele>565</ele>
        <time>2026-02-10T10:54:19.000Z</time>
      </trkpt>
      <trkpt lat="43.62462" lon="6.02576">
        <ele>565</ele>
        <time>2026-02-10T10:54:21.000Z</time>
      </trkpt>
      <trkpt lat="43.62461" lon="6.02578">
        <ele>565</ele>
        <time>2026-02-10T10:54:23.000Z</time>
      </trkpt>
      <trkpt lat="43.62462" lon="6.0258">
        <ele>565</ele>
        <time>2026-02-10T10:54:25.000Z</time>
      </trkpt>
      <trkpt lat="43.62462" lon="6.02581">
        <ele>565</ele>
        <time>2026-02-10T10:54:26.000Z</time>
      </trkpt>
      <trkpt lat="43.62462" lon="6.02583">
        <ele>565</ele>
        <time>2026-02-10T10:54:28.000Z</time>
      </trkpt>
      <trkpt lat="43.62463" lon="6.02584">
        <ele>565</ele>
        <time>2026-02-10T10:54:29.000Z</time>
      </trkpt>
      <trkpt lat="43.62463" lon="6.02586">
        <ele>565</ele>
        <time>2026-02-10T10:54:31.000Z</time>
      </trkpt>
      <trkpt lat="43.62463" lon="6.02587">
        <ele>565</ele>
        <time>2026-02-10T10:54:32.000Z</time>
      </trkpt>
      <trkpt lat="43.62463" lon="6.02588">
        <ele>566</ele>
        <time>2026-02-10T10:54:43.000Z</time>
      </trkpt>
      <trkpt lat="43.62463" lon="6.0259">
        <ele>566</ele>
        <time>2026-02-10T10:54:45.000Z</time>
      </trkpt>
      <trkpt lat="43.62463" lon="6.02592">
        <ele>566</ele>
        <time>2026-02-10T10:54:47.000Z</time>
      </trkpt>
      <trkpt lat="43.62463" lon="6.02593">
        <ele>566</ele>
        <time>2026-02-10T10:54:48.000Z</time>
      </trkpt>
      <trkpt lat="43.62463" lon="6.02595">
        <ele>566</ele>
        <time>2026-02-10T10:54:50.000Z</time>
      </trkpt>
      <trkpt lat="43.62464" lon="6.02597">
        <ele>566</ele>
        <time>2026-02-10T10:54:52.000Z</time>
      </trkpt>
      <trkpt lat="43.62464" lon="6.02598">
        <ele>566</ele>
        <time>2026-02-10T10:54:53.000Z</time>
      </trkpt>
      <trkpt lat="43.62464" lon="6.02599">
        <ele>566</ele>
        <time>2026-02-10T10:54:54.000Z</time>
      </trkpt>
      <trkpt lat="43.62465" lon="6.02601">
        <ele>566</ele>
        <time>2026-02-10T10:54:56.000Z</time>
      </trkpt>
      <trkpt lat="43.62465" lon="6.02602">
        <ele>566</ele>
        <time>2026-02-10T10:54:57.000Z</time>
      </trkpt>
      <trkpt lat="43.62465" lon="6.02604">
        <ele>566</ele>
        <time>2026-02-10T10:54:59.000Z</time>
      </trkpt>
      <trkpt lat="43.62465" lon="6.02605">
        <ele>566</ele>
        <time>2026-02-10T10:55:00.000Z</time>
      </trkpt>
      <trkpt lat="43.62465" lon="6.02607">
        <ele>566</ele>
        <time>2026-02-10T10:55:02.000Z</time>
      </trkpt>
      <trkpt lat="43.62466" lon="6.02609">
        <ele>566</ele>
        <time>2026-02-10T10:55:04.000Z</time>
      </trkpt>
      <trkpt lat="43.62466" lon="6.02611">
        <ele>566</ele>
        <time>2026-02-10T10:55:06.000Z</time>
      </trkpt>
      <trkpt lat="43.62466" lon="6.02612">
        <ele>566</ele>
        <time>2026-02-10T10:55:07.000Z</time>
      </trkpt>
      <trkpt lat="43.62466" lon="6.02614">
        <ele>566</ele>
        <time>2026-02-10T10:55:09.000Z</time>
      </trkpt>
      <trkpt lat="43.62467" lon="6.02615">
        <ele>566</ele>
        <time>2026-02-10T10:55:10.000Z</time>
      </trkpt>
      <trkpt lat="43.62467" lon="6.02616">
        <ele>566</ele>
        <time>2026-02-10T10:55:11.000Z</time>
      </trkpt>
      <trkpt lat="43.62467" lon="6.02618">
        <ele>567</ele>
        <time>2026-02-10T10:55:23.000Z</time>
      </trkpt>
      <trkpt lat="43.62467" lon="6.02619">
        <ele>567</ele>
        <time>2026-02-10T10:55:24.000Z</time>
      </trkpt>
      <trkpt lat="43.62467" lon="6.02621">
        <ele>567</ele>
        <time>2026-02-10T10:55:26.000Z</time>
      </trkpt>
      <trkpt lat="43.62467" lon="6.02623">
        <ele>567</ele>
        <time>2026-02-10T10:55:28.000Z</time>
      </trkpt>
      <trkpt lat="43.62467" lon="6.02624">
        <ele>567</ele>
        <time>2026-02-10T10:55:29.000Z</time>
      </trkpt>
      <trkpt lat="43.62468" lon="6.02626">
        <ele>567</ele>
        <time>2026-02-10T10:55:31.000Z</time>
      </trkpt>
      <trkpt lat="43.62468" lon="6.02627">
        <ele>567</ele>
        <time>2026-02-10T10:55:32.000Z</time>
      </trkpt>
      <trkpt lat="43.62468" lon="6.02628">
        <ele>567</ele>
        <time>2026-02-10T10:55:33.000Z</time>
      </trkpt>
      <trkpt lat="43.62468" lon="6.02629">
        <ele>567</ele>
        <time>2026-02-10T10:55:34.000Z</time>
      </trkpt>
      <trkpt lat="43.62468" lon="6.02631">
        <ele>567</ele>
        <time>2026-02-10T10:55:36.000Z</time>
      </trkpt>
      <trkpt lat="43.62469" lon="6.02633">
        <ele>568</ele>
        <time>2026-02-10T10:55:48.000Z</time>
      </trkpt>
      <trkpt lat="43.62469" lon="6.02634">
        <ele>568</ele>
        <time>2026-02-10T10:55:49.000Z</time>
      </trkpt>
      <trkpt lat="43.6247" lon="6.02636">
        <ele>568</ele>
        <time>2026-02-10T10:55:51.000Z</time>
      </trkpt>
      <trkpt lat="43.6247" lon="6.02637">
        <ele>568</ele>
        <time>2026-02-10T10:55:52.000Z</time>
      </trkpt>
      <trkpt lat="43.6247" lon="6.02639">
        <ele>568</ele>
        <time>2026-02-10T10:55:54.000Z</time>
      </trkpt>
      <trkpt lat="43.62471" lon="6.0264">
        <ele>568</ele>
        <time>2026-02-10T10:55:55.000Z</time>
      </trkpt>
      <trkpt lat="43.62471" lon="6.02641">
        <ele>568</ele>
        <time>2026-02-10T10:55:56.000Z</time>
      </trkpt>
      <trkpt lat="43.62471" lon="6.02642">
        <ele>568</ele>
        <time>2026-02-10T10:55:57.000Z</time>
      </trkpt>
      <trkpt lat="43.62471" lon="6.02644">
        <ele>568</ele>
        <time>2026-02-10T10:55:59.000Z</time>
      </trkpt>
      <trkpt lat="43.62472" lon="6.02645">
        <ele>568</ele>
        <time>2026-02-10T10:56:00.000Z</time>
      </trkpt>
      <trkpt lat="43.62471" lon="6.02647">
        <ele>568</ele>
        <time>2026-02-10T10:56:02.000Z</time>
      </trkpt>
      <trkpt lat="43.62472" lon="6.02648">
        <ele>568</ele>
        <time>2026-02-10T10:56:03.000Z</time>
      </trkpt>
      <trkpt lat="43.62472" lon="6.02649">
        <ele>568</ele>
        <time>2026-02-10T10:56:04.000Z</time>
      </trkpt>
      <trkpt lat="43.62472" lon="6.02651">
        <ele>568</ele>
        <time>2026-02-10T10:56:06.000Z</time>
      </trkpt>
      <trkpt lat="43.62472" lon="6.02652">
        <ele>568</ele>
        <time>2026-02-10T10:56:07.000Z</time>
      </trkpt>
      <trkpt lat="43.62473" lon="6.02653">
        <ele>568</ele>
        <time>2026-02-10T10:56:08.000Z</time>
      </trkpt>
      <trkpt lat="43.62473" lon="6.02655">
        <ele>568</ele>
        <time>2026-02-10T10:56:10.000Z</time>
      </trkpt>
      <trkpt lat="43.62473" lon="6.02656">
        <ele>568</ele>
        <time>2026-02-10T10:56:11.000Z</time>
      </trkpt>
      <trkpt lat="43.62474" lon="6.02658">
        <ele>569</ele>
        <time>2026-02-10T10:56:23.000Z</time>
      </trkpt>
      <trkpt lat="43.62474" lon="6.02659">
        <ele>569</ele>
        <time>2026-02-10T10:56:24.000Z</time>
      </trkpt>
      <trkpt lat="43.62474" lon="6.0266">
        <ele>569</ele>
        <time>2026-02-10T10:56:25.000Z</time>
      </trkpt>
      <trkpt lat="43.62475" lon="6.02662">
        <ele>569</ele>
        <time>2026-02-10T10:56:27.000Z</time>
      </trkpt>
      <trkpt lat="43.62475" lon="6.02664">
        <ele>569</ele>
        <time>2026-02-10T10:56:29.000Z</time>
      </trkpt>
      <trkpt lat="43.62476" lon="6.02665">
        <ele>569</ele>
        <time>2026-02-10T10:56:30.000Z</time>
      </trkpt>
      <trkpt lat="43.62476" lon="6.02667">
        <ele>569</ele>
        <time>2026-02-10T10:56:32.000Z</time>
      </trkpt>
      <trkpt lat="43.62476" lon="6.02669">
        <ele>569</ele>
        <time>2026-02-10T10:56:34.000Z</time>
      </trkpt>
      <trkpt lat="43.62476" lon="6.0267">
        <ele>569</ele>
        <time>2026-02-10T10:56:35.000Z</time>
      </trkpt>
      <trkpt lat="43.62477" lon="6.02672">
        <ele>569</ele>
        <time>2026-02-10T10:56:37.000Z</time>
      </trkpt>
      <trkpt lat="43.62477" lon="6.02673">
        <ele>570</ele>
        <time>2026-02-10T10:56:48.000Z</time>
      </trkpt>
      <trkpt lat="43.62477" lon="6.02675">
        <ele>570</ele>
        <time>2026-02-10T10:56:50.000Z</time>
      </trkpt>
      <trkpt lat="43.62477" lon="6.02676">
        <ele>570</ele>
        <time>2026-02-10T10:56:51.000Z</time>
      </trkpt>
      <trkpt lat="43.62477" lon="6.02678">
        <ele>570</ele>
        <time>2026-02-10T10:56:53.000Z</time>
      </trkpt>
      <trkpt lat="43.62477" lon="6.02679">
        <ele>570</ele>
        <time>2026-02-10T10:56:54.000Z</time>
      </trkpt>
      <trkpt lat="43.62477" lon="6.02681">
        <ele>570</ele>
        <time>2026-02-10T10:56:56.000Z</time>
      </trkpt>
      <trkpt lat="43.62477" lon="6.02682">
        <ele>570</ele>
        <time>2026-02-10T10:56:57.000Z</time>
      </trkpt>
      <trkpt lat="43.62477" lon="6.02684">
        <ele>570</ele>
        <time>2026-02-10T10:56:59.000Z</time>
      </trkpt>
      <trkpt lat="43.62478" lon="6.02685">
        <ele>570</ele>
        <time>2026-02-10T10:57:00.000Z</time>
      </trkpt>
      <trkpt lat="43.62478" lon="6.02686">
        <ele>570</ele>
        <time>2026-02-10T10:57:01.000Z</time>
      </trkpt>
      <trkpt lat="43.62478" lon="6.02688">
        <ele>570</ele>
        <time>2026-02-10T10:57:03.000Z</time>
      </trkpt>
      <trkpt lat="43.62478" lon="6.02689">
        <ele>570</ele>
        <time>2026-02-10T10:57:04.000Z</time>
      </trkpt>
      <trkpt lat="43.62478" lon="6.0269">
        <ele>570</ele>
        <time>2026-02-10T10:57:05.000Z</time>
      </trkpt>
      <trkpt lat="43.62478" lon="6.02692">
        <ele>570</ele>
        <time>2026-02-10T10:57:07.000Z</time>
      </trkpt>
      <trkpt lat="43.62478" lon="6.02693">
        <ele>570</ele>
        <time>2026-02-10T10:57:08.000Z</time>
      </trkpt>
      <trkpt lat="43.62478" lon="6.02695">
        <ele>570</ele>
        <time>2026-02-10T10:57:10.000Z</time>
      </trkpt>
      <trkpt lat="43.62478" lon="6.02696">
        <ele>570</ele>
        <time>2026-02-10T10:57:11.000Z</time>
      </trkpt>
      <trkpt lat="43.62479" lon="6.02697">
        <ele>570</ele>
        <time>2026-02-10T10:57:12.000Z</time>
      </trkpt>
      <trkpt lat="43.62479" lon="6.02699">
        <ele>571</ele>
        <time>2026-02-10T10:57:24.000Z</time>
      </trkpt>
      <trkpt lat="43.62479" lon="6.027">
        <ele>571</ele>
        <time>2026-02-10T10:57:25.000Z</time>
      </trkpt>
      <trkpt lat="43.62479" lon="6.02701">
        <ele>571</ele>
        <time>2026-02-10T10:57:26.000Z</time>
      </trkpt>
      <trkpt lat="43.62479" lon="6.02703">
        <ele>571</ele>
        <time>2026-02-10T10:57:28.000Z</time>
      </trkpt>
      <trkpt lat="43.62479" lon="6.02704">
        <ele>571</ele>
        <time>2026-02-10T10:57:29.000Z</time>
      </trkpt>
      <trkpt lat="43.62479" lon="6.02705">
        <ele>571</ele>
        <time>2026-02-10T10:57:30.000Z</time>
      </trkpt>
      <trkpt lat="43.6248" lon="6.02707">
        <ele>571</ele>
        <time>2026-02-10T10:57:32.000Z</time>
      </trkpt>
      <trkpt lat="43.62479" lon="6.02708">
        <ele>571</ele>
        <time>2026-02-10T10:57:33.000Z</time>
      </trkpt>
      <trkpt lat="43.62479" lon="6.0271">
        <ele>571</ele>
        <time>2026-02-10T10:57:35.000Z</time>
      </trkpt>
      <trkpt lat="43.62479" lon="6.02711">
        <ele>571</ele>
        <time>2026-02-10T10:57:36.000Z</time>
      </trkpt>
      <trkpt lat="43.62479" lon="6.02712">
        <ele>571</ele>
        <time>2026-02-10T10:57:37.000Z</time>
      </trkpt>
      <trkpt lat="43.62479" lon="6.02714">
        <ele>571</ele>
        <time>2026-02-10T10:57:39.000Z</time>
      </trkpt>
      <trkpt lat="43.62479" lon="6.02716">
        <ele>572</ele>
        <time>2026-02-10T10:57:51.000Z</time>
      </trkpt>
      <trkpt lat="43.62479" lon="6.02717">
        <ele>572</ele>
        <time>2026-02-10T10:57:52.000Z</time>
      </trkpt>
      <trkpt lat="43.62479" lon="6.02719">
        <ele>572</ele>
        <time>2026-02-10T10:57:54.000Z</time>
      </trkpt>
      <trkpt lat="43.6248" lon="6.0272">
        <ele>572</ele>
        <time>2026-02-10T10:57:55.000Z</time>
      </trkpt>
      <trkpt lat="43.6248" lon="6.02722">
        <ele>572</ele>
        <time>2026-02-10T10:57:57.000Z</time>
      </trkpt>
      <trkpt lat="43.6248" lon="6.02723">
        <ele>572</ele>
        <time>2026-02-10T10:57:58.000Z</time>
      </trkpt>
      <trkpt lat="43.6248" lon="6.02724">
        <ele>572</ele>
        <time>2026-02-10T10:57:59.000Z</time>
      </trkpt>
      <trkpt lat="43.6248" lon="6.02726">
        <ele>572</ele>
        <time>2026-02-10T10:58:01.000Z</time>
      </trkpt>
      <trkpt lat="43.6248" lon="6.02728">
        <ele>572</ele>
        <time>2026-02-10T10:58:03.000Z</time>
      </trkpt>
      <trkpt lat="43.6248" lon="6.02729">
        <ele>572</ele>
        <time>2026-02-10T10:58:04.000Z</time>
      </trkpt>
      <trkpt lat="43.6248" lon="6.02731">
        <ele>572</ele>
        <time>2026-02-10T10:58:06.000Z</time>
      </trkpt>
      <trkpt lat="43.6248" lon="6.02732">
        <ele>572</ele>
        <time>2026-02-10T10:58:07.000Z</time>
      </trkpt>
      <trkpt lat="43.6248" lon="6.02734">
        <ele>572</ele>
        <time>2026-02-10T10:58:09.000Z</time>
      </trkpt>
      <trkpt lat="43.6248" lon="6.02736">
        <ele>572</ele>
        <time>2026-02-10T10:58:11.000Z</time>
      </trkpt>
      <trkpt lat="43.6248" lon="6.02737">
        <ele>572</ele>
        <time>2026-02-10T10:58:12.000Z</time>
      </trkpt>
      <trkpt lat="43.62481" lon="6.02739">
        <ele>572</ele>
        <time>2026-02-10T10:58:14.000Z</time>
      </trkpt>
      <trkpt lat="43.6248" lon="6.02741">
        <ele>572</ele>
        <time>2026-02-10T10:58:16.000Z</time>
      </trkpt>
      <trkpt lat="43.6248" lon="6.02743">
        <ele>572</ele>
        <time>2026-02-10T10:58:18.000Z</time>
      </trkpt>
      <trkpt lat="43.6248" lon="6.02744">
        <ele>572</ele>
        <time>2026-02-10T10:58:19.000Z</time>
      </trkpt>
      <trkpt lat="43.6248" lon="6.02746">
        <ele>572</ele>
        <time>2026-02-10T10:58:21.000Z</time>
      </trkpt>
      <trkpt lat="43.6248" lon="6.02747">
        <ele>572</ele>
        <time>2026-02-10T10:58:22.000Z</time>
      </trkpt>
      <trkpt lat="43.6248" lon="6.02749">
        <ele>572</ele>
        <time>2026-02-10T10:58:24.000Z</time>
      </trkpt>
      <trkpt lat="43.62481" lon="6.0275">
        <ele>572</ele>
        <time>2026-02-10T10:58:25.000Z</time>
      </trkpt>
      <trkpt lat="43.62481" lon="6.02752">
        <ele>572</ele>
        <time>2026-02-10T10:58:27.000Z</time>
      </trkpt>
      <trkpt lat="43.62481" lon="6.02753">
        <ele>572</ele>
        <time>2026-02-10T10:58:28.000Z</time>
      </trkpt>
      <trkpt lat="43.62481" lon="6.02755">
        <ele>572</ele>
        <time>2026-02-10T10:58:30.000Z</time>
      </trkpt>
      <trkpt lat="43.62481" lon="6.02756">
        <ele>572</ele>
        <time>2026-02-10T10:58:31.000Z</time>
      </trkpt>
      <trkpt lat="43.62481" lon="6.02758">
        <ele>572</ele>
        <time>2026-02-10T10:58:33.000Z</time>
      </trkpt>
      <trkpt lat="43.6248" lon="6.0276">
        <ele>572</ele>
        <time>2026-02-10T10:58:35.000Z</time>
      </trkpt>
      <trkpt lat="43.6248" lon="6.02762">
        <ele>573</ele>
        <time>2026-02-10T10:58:47.000Z</time>
      </trkpt>
      <trkpt lat="43.6248" lon="6.02763">
        <ele>573</ele>
        <time>2026-02-10T10:58:48.000Z</time>
      </trkpt>
      <trkpt lat="43.6248" lon="6.02765">
        <ele>573</ele>
        <time>2026-02-10T10:58:50.000Z</time>
      </trkpt>
      <trkpt lat="43.62479" lon="6.02767">
        <ele>573</ele>
        <time>2026-02-10T10:58:52.000Z</time>
      </trkpt>
      <trkpt lat="43.62479" lon="6.02768">
        <ele>573</ele>
        <time>2026-02-10T10:58:53.000Z</time>
      </trkpt>
      <trkpt lat="43.62479" lon="6.0277">
        <ele>573</ele>
        <time>2026-02-10T10:58:55.000Z</time>
      </trkpt>
      <trkpt lat="43.62479" lon="6.02772">
        <ele>573</ele>
        <time>2026-02-10T10:58:57.000Z</time>
      </trkpt>
      <trkpt lat="43.62479" lon="6.02773">
        <ele>573</ele>
        <time>2026-02-10T10:58:58.000Z</time>
      </trkpt>
      <trkpt lat="43.62479" lon="6.02775">
        <ele>573</ele>
        <time>2026-02-10T10:59:00.000Z</time>
      </trkpt>
      <trkpt lat="43.62479" lon="6.02776">
        <ele>573</ele>
        <time>2026-02-10T10:59:01.000Z</time>
      </trkpt>
      <trkpt lat="43.62479" lon="6.02778">
        <ele>573</ele>
        <time>2026-02-10T10:59:03.000Z</time>
      </trkpt>
      <trkpt lat="43.62479" lon="6.02779">
        <ele>573</ele>
        <time>2026-02-10T10:59:04.000Z</time>
      </trkpt>
      <trkpt lat="43.62479" lon="6.02781">
        <ele>573</ele>
        <time>2026-02-10T10:59:06.000Z</time>
      </trkpt>
      <trkpt lat="43.62479" lon="6.02782">
        <ele>573</ele>
        <time>2026-02-10T10:59:07.000Z</time>
      </trkpt>
      <trkpt lat="43.62479" lon="6.02784">
        <ele>573</ele>
        <time>2026-02-10T10:59:09.000Z</time>
      </trkpt>
      <trkpt lat="43.62478" lon="6.02785">
        <ele>573</ele>
        <time>2026-02-10T10:59:10.000Z</time>
      </trkpt>
      <trkpt lat="43.62478" lon="6.02787">
        <ele>573</ele>
        <time>2026-02-10T10:59:12.000Z</time>
      </trkpt>
      <trkpt lat="43.62478" lon="6.02788">
        <ele>573</ele>
        <time>2026-02-10T10:59:13.000Z</time>
      </trkpt>
      <trkpt lat="43.62478" lon="6.0279">
        <ele>573</ele>
        <time>2026-02-10T10:59:15.000Z</time>
      </trkpt>
      <trkpt lat="43.62478" lon="6.02791">
        <ele>573</ele>
        <time>2026-02-10T10:59:16.000Z</time>
      </trkpt>
      <trkpt lat="43.62478" lon="6.02792">
        <ele>573</ele>
        <time>2026-02-10T10:59:17.000Z</time>
      </trkpt>
      <trkpt lat="43.62478" lon="6.02794">
        <ele>573</ele>
        <time>2026-02-10T10:59:19.000Z</time>
      </trkpt>
      <trkpt lat="43.62478" lon="6.02795">
        <ele>573</ele>
        <time>2026-02-10T10:59:20.000Z</time>
      </trkpt>
      <trkpt lat="43.62477" lon="6.02797">
        <ele>573</ele>
        <time>2026-02-10T10:59:22.000Z</time>
      </trkpt>
      <trkpt lat="43.62477" lon="6.02799">
        <ele>573</ele>
        <time>2026-02-10T10:59:24.000Z</time>
      </trkpt>
      <trkpt lat="43.62477" lon="6.028">
        <ele>573</ele>
        <time>2026-02-10T10:59:25.000Z</time>
      </trkpt>
      <trkpt lat="43.62477" lon="6.02802">
        <ele>573</ele>
        <time>2026-02-10T10:59:27.000Z</time>
      </trkpt>
      <trkpt lat="43.62477" lon="6.02804">
        <ele>573</ele>
        <time>2026-02-10T10:59:29.000Z</time>
      </trkpt>
      <trkpt lat="43.62477" lon="6.02805">
        <ele>573</ele>
        <time>2026-02-10T10:59:30.000Z</time>
      </trkpt>
      <trkpt lat="43.62477" lon="6.02806">
        <ele>573</ele>
        <time>2026-02-10T10:59:31.000Z</time>
      </trkpt>
      <trkpt lat="43.62476" lon="6.02808">
        <ele>573</ele>
        <time>2026-02-10T10:59:33.000Z</time>
      </trkpt>
      <trkpt lat="43.62476" lon="6.0281">
        <ele>573</ele>
        <time>2026-02-10T10:59:35.000Z</time>
      </trkpt>
      <trkpt lat="43.62476" lon="6.02812">
        <ele>573</ele>
        <time>2026-02-10T10:59:37.000Z</time>
      </trkpt>
      <trkpt lat="43.62476" lon="6.02813">
        <ele>573</ele>
        <time>2026-02-10T10:59:38.000Z</time>
      </trkpt>
      <trkpt lat="43.62476" lon="6.02815">
        <ele>573</ele>
        <time>2026-02-10T10:59:40.000Z</time>
      </trkpt>
      <trkpt lat="43.62476" lon="6.02816">
        <ele>573</ele>
        <time>2026-02-10T10:59:41.000Z</time>
      </trkpt>
      <trkpt lat="43.62476" lon="6.02818">
        <ele>573</ele>
        <time>2026-02-10T10:59:43.000Z</time>
      </trkpt>
      <trkpt lat="43.62476" lon="6.0282">
        <ele>573</ele>
        <time>2026-02-10T10:59:45.000Z</time>
      </trkpt>
      <trkpt lat="43.62475" lon="6.02821">
        <ele>573</ele>
        <time>2026-02-10T10:59:46.000Z</time>
      </trkpt>
      <trkpt lat="43.62475" lon="6.02823">
        <ele>573</ele>
        <time>2026-02-10T10:59:48.000Z</time>
      </trkpt>
      <trkpt lat="43.62475" lon="6.02824">
        <ele>573</ele>
        <time>2026-02-10T10:59:49.000Z</time>
      </trkpt>
      <trkpt lat="43.62474" lon="6.02826">
        <ele>573</ele>
        <time>2026-02-10T10:59:51.000Z</time>
      </trkpt>
      <trkpt lat="43.62474" lon="6.02828">
        <ele>573</ele>
        <time>2026-02-10T10:59:53.000Z</time>
      </trkpt>
      <trkpt lat="43.62474" lon="6.0283">
        <ele>573</ele>
        <time>2026-02-10T10:59:55.000Z</time>
      </trkpt>
      <trkpt lat="43.62473" lon="6.02831">
        <ele>574</ele>
        <time>2026-02-10T11:00:07.000Z</time>
      </trkpt>
      <trkpt lat="43.62473" lon="6.02833">
        <ele>573</ele>
        <time>2026-02-10T11:00:09.000Z</time>
      </trkpt>
      <trkpt lat="43.62473" lon="6.02835">
        <ele>573</ele>
        <time>2026-02-10T11:00:11.000Z</time>
      </trkpt>
      <trkpt lat="43.62473" lon="6.02836">
        <ele>573</ele>
        <time>2026-02-10T11:00:12.000Z</time>
      </trkpt>
      <trkpt lat="43.62472" lon="6.02838">
        <ele>573</ele>
        <time>2026-02-10T11:00:14.000Z</time>
      </trkpt>
      <trkpt lat="43.62472" lon="6.0284">
        <ele>573</ele>
        <time>2026-02-10T11:00:16.000Z</time>
      </trkpt>
      <trkpt lat="43.62472" lon="6.02841">
        <ele>573</ele>
        <time>2026-02-10T11:00:17.000Z</time>
      </trkpt>
      <trkpt lat="43.62472" lon="6.02843">
        <ele>573</ele>
        <time>2026-02-10T11:00:19.000Z</time>
      </trkpt>
      <trkpt lat="43.62472" lon="6.02845">
        <ele>573</ele>
        <time>2026-02-10T11:00:21.000Z</time>
      </trkpt>
      <trkpt lat="43.62471" lon="6.02846">
        <ele>573</ele>
        <time>2026-02-10T11:00:22.000Z</time>
      </trkpt>
      <trkpt lat="43.62471" lon="6.02848">
        <ele>573</ele>
        <time>2026-02-10T11:00:24.000Z</time>
      </trkpt>
      <trkpt lat="43.62471" lon="6.02849">
        <ele>573</ele>
        <time>2026-02-10T11:00:25.000Z</time>
      </trkpt>
      <trkpt lat="43.62471" lon="6.02851">
        <ele>573</ele>
        <time>2026-02-10T11:00:27.000Z</time>
      </trkpt>
      <trkpt lat="43.62471" lon="6.02852">
        <ele>573</ele>
        <time>2026-02-10T11:00:28.000Z</time>
      </trkpt>
      <trkpt lat="43.62471" lon="6.02854">
        <ele>573</ele>
        <time>2026-02-10T11:00:30.000Z</time>
      </trkpt>
      <trkpt lat="43.6247" lon="6.02855">
        <ele>573</ele>
        <time>2026-02-10T11:00:31.000Z</time>
      </trkpt>
      <trkpt lat="43.6247" lon="6.02857">
        <ele>573</ele>
        <time>2026-02-10T11:00:33.000Z</time>
      </trkpt>
      <trkpt lat="43.62469" lon="6.02859">
        <ele>573</ele>
        <time>2026-02-10T11:00:35.000Z</time>
      </trkpt>
      <trkpt lat="43.62469" lon="6.0286">
        <ele>573</ele>
        <time>2026-02-10T11:00:36.000Z</time>
      </trkpt>
      <trkpt lat="43.62469" lon="6.02862">
        <ele>573</ele>
        <time>2026-02-10T11:00:38.000Z</time>
      </trkpt>
      <trkpt lat="43.62468" lon="6.02864">
        <ele>573</ele>
        <time>2026-02-10T11:00:40.000Z</time>
      </trkpt>
      <trkpt lat="43.62468" lon="6.02866">
        <ele>573</ele>
        <time>2026-02-10T11:00:42.000Z</time>
      </trkpt>
      <trkpt lat="43.62468" lon="6.02867">
        <ele>573</ele>
        <time>2026-02-10T11:00:43.000Z</time>
      </trkpt>
      <trkpt lat="43.62467" lon="6.02869">
        <ele>573</ele>
        <time>2026-02-10T11:00:45.000Z</time>
      </trkpt>
      <trkpt lat="43.62467" lon="6.0287">
        <ele>573</ele>
        <time>2026-02-10T11:00:46.000Z</time>
      </trkpt>
      <trkpt lat="43.62467" lon="6.02872">
        <ele>573</ele>
        <time>2026-02-10T11:00:48.000Z</time>
      </trkpt>
      <trkpt lat="43.62467" lon="6.02874">
        <ele>573</ele>
        <time>2026-02-10T11:00:50.000Z</time>
      </trkpt>
      <trkpt lat="43.62466" lon="6.02875">
        <ele>573</ele>
        <time>2026-02-10T11:00:51.000Z</time>
      </trkpt>
      <trkpt lat="43.62466" lon="6.02876">
        <ele>573</ele>
        <time>2026-02-10T11:00:52.000Z</time>
      </trkpt>
      <trkpt lat="43.62466" lon="6.02878">
        <ele>573</ele>
        <time>2026-02-10T11:00:54.000Z</time>
      </trkpt>
      <trkpt lat="43.62465" lon="6.0288">
        <ele>573</ele>
        <time>2026-02-10T11:00:56.000Z</time>
      </trkpt>
      <trkpt lat="43.62465" lon="6.02881">
        <ele>573</ele>
        <time>2026-02-10T11:00:57.000Z</time>
      </trkpt>
      <trkpt lat="43.62465" lon="6.02883">
        <ele>573</ele>
        <time>2026-02-10T11:00:59.000Z</time>
      </trkpt>
      <trkpt lat="43.62464" lon="6.02884">
        <ele>573</ele>
        <time>2026-02-10T11:01:00.000Z</time>
      </trkpt>
      <trkpt lat="43.62464" lon="6.02886">
        <ele>573</ele>
        <time>2026-02-10T11:01:02.000Z</time>
      </trkpt>
      <trkpt lat="43.62464" lon="6.02888">
        <ele>573</ele>
        <time>2026-02-10T11:01:04.000Z</time>
      </trkpt>
      <trkpt lat="43.62464" lon="6.02889">
        <ele>573</ele>
        <time>2026-02-10T11:01:05.000Z</time>
      </trkpt>
      <trkpt lat="43.62464" lon="6.02891">
        <ele>573</ele>
        <time>2026-02-10T11:01:07.000Z</time>
      </trkpt>
      <trkpt lat="43.62463" lon="6.02892">
        <ele>573</ele>
        <time>2026-02-10T11:01:08.000Z</time>
      </trkpt>
      <trkpt lat="43.62463" lon="6.02894">
        <ele>573</ele>
        <time>2026-02-10T11:01:10.000Z</time>
      </trkpt>
      <trkpt lat="43.62462" lon="6.02896">
        <ele>573</ele>
        <time>2026-02-10T11:01:12.000Z</time>
      </trkpt>
      <trkpt lat="43.62462" lon="6.02898">
        <ele>573</ele>
        <time>2026-02-10T11:01:14.000Z</time>
      </trkpt>
      <trkpt lat="43.62462" lon="6.02899">
        <ele>573</ele>
        <time>2026-02-10T11:01:15.000Z</time>
      </trkpt>
      <trkpt lat="43.62461" lon="6.02901">
        <ele>573</ele>
        <time>2026-02-10T11:01:17.000Z</time>
      </trkpt>
      <trkpt lat="43.62461" lon="6.02902">
        <ele>573</ele>
        <time>2026-02-10T11:01:18.000Z</time>
      </trkpt>
      <trkpt lat="43.62461" lon="6.02904">
        <ele>573</ele>
        <time>2026-02-10T11:01:20.000Z</time>
      </trkpt>
      <trkpt lat="43.62461" lon="6.02905">
        <ele>573</ele>
        <time>2026-02-10T11:01:21.000Z</time>
      </trkpt>
      <trkpt lat="43.62461" lon="6.02907">
        <ele>573</ele>
        <time>2026-02-10T11:01:23.000Z</time>
      </trkpt>
      <trkpt lat="43.6246" lon="6.02908">
        <ele>573</ele>
        <time>2026-02-10T11:01:24.000Z</time>
      </trkpt>
      <trkpt lat="43.62459" lon="6.0291">
        <ele>573</ele>
        <time>2026-02-10T11:01:26.000Z</time>
      </trkpt>
      <trkpt lat="43.62459" lon="6.02912">
        <ele>573</ele>
        <time>2026-02-10T11:01:28.000Z</time>
      </trkpt>
      <trkpt lat="43.62459" lon="6.02914">
        <ele>573</ele>
        <time>2026-02-10T11:01:30.000Z</time>
      </trkpt>
      <trkpt lat="43.62458" lon="6.02915">
        <ele>573</ele>
        <time>2026-02-10T11:01:31.000Z</time>
      </trkpt>
      <trkpt lat="43.62458" lon="6.02917">
        <ele>573</ele>
        <time>2026-02-10T11:01:33.000Z</time>
      </trkpt>
      <trkpt lat="43.62458" lon="6.02918">
        <ele>573</ele>
        <time>2026-02-10T11:01:34.000Z</time>
      </trkpt>
      <trkpt lat="43.62458" lon="6.0292">
        <ele>573</ele>
        <time>2026-02-10T11:01:36.000Z</time>
      </trkpt>
      <trkpt lat="43.62458" lon="6.02921">
        <ele>573</ele>
        <time>2026-02-10T11:01:37.000Z</time>
      </trkpt>
      <trkpt lat="43.62458" lon="6.02923">
        <ele>573</ele>
        <time>2026-02-10T11:01:39.000Z</time>
      </trkpt>
      <trkpt lat="43.62457" lon="6.02925">
        <ele>573</ele>
        <time>2026-02-10T11:01:41.000Z</time>
      </trkpt>
      <trkpt lat="43.62457" lon="6.02926">
        <ele>573</ele>
        <time>2026-02-10T11:01:42.000Z</time>
      </trkpt>
      <trkpt lat="43.62457" lon="6.02928">
        <ele>573</ele>
        <time>2026-02-10T11:01:44.000Z</time>
      </trkpt>
      <trkpt lat="43.62457" lon="6.0293">
        <ele>573</ele>
        <time>2026-02-10T11:01:46.000Z</time>
      </trkpt>
      <trkpt lat="43.62457" lon="6.02931">
        <ele>573</ele>
        <time>2026-02-10T11:01:47.000Z</time>
      </trkpt>
      <trkpt lat="43.62457" lon="6.02933">
        <ele>573</ele>
        <time>2026-02-10T11:01:49.000Z</time>
      </trkpt>
      <trkpt lat="43.62457" lon="6.02935">
        <ele>573</ele>
        <time>2026-02-10T11:01:51.000Z</time>
      </trkpt>
      <trkpt lat="43.62457" lon="6.02936">
        <ele>573</ele>
        <time>2026-02-10T11:01:52.000Z</time>
      </trkpt>
      <trkpt lat="43.62457" lon="6.02938">
        <ele>573</ele>
        <time>2026-02-10T11:01:54.000Z</time>
      </trkpt>
      <trkpt lat="43.62456" lon="6.02939">
        <ele>573</ele>
        <time>2026-02-10T11:01:55.000Z</time>
      </trkpt>
      <trkpt lat="43.62456" lon="6.02941">
        <ele>573</ele>
        <time>2026-02-10T11:01:57.000Z</time>
      </trkpt>
      <trkpt lat="43.62456" lon="6.02943">
        <ele>573</ele>
        <time>2026-02-10T11:01:59.000Z</time>
      </trkpt>
      <trkpt lat="43.62456" lon="6.02944">
        <ele>573</ele>
        <time>2026-02-10T11:02:00.000Z</time>
      </trkpt>
      <trkpt lat="43.62456" lon="6.02946">
        <ele>573</ele>
        <time>2026-02-10T11:02:02.000Z</time>
      </trkpt>
      <trkpt lat="43.62455" lon="6.02948">
        <ele>573</ele>
        <time>2026-02-10T11:02:04.000Z</time>
      </trkpt>
      <trkpt lat="43.62455" lon="6.02949">
        <ele>573</ele>
        <time>2026-02-10T11:02:05.000Z</time>
      </trkpt>
      <trkpt lat="43.62455" lon="6.02951">
        <ele>573</ele>
        <time>2026-02-10T11:02:07.000Z</time>
      </trkpt>
      <trkpt lat="43.62455" lon="6.02953">
        <ele>572</ele>
        <time>2026-02-10T11:02:09.000Z</time>
      </trkpt>
      <trkpt lat="43.62455" lon="6.02954">
        <ele>572</ele>
        <time>2026-02-10T11:02:10.000Z</time>
      </trkpt>
      <trkpt lat="43.62455" lon="6.02956">
        <ele>572</ele>
        <time>2026-02-10T11:02:12.000Z</time>
      </trkpt>
      <trkpt lat="43.62455" lon="6.02957">
        <ele>572</ele>
        <time>2026-02-10T11:02:13.000Z</time>
      </trkpt>
      <trkpt lat="43.62454" lon="6.02959">
        <ele>572</ele>
        <time>2026-02-10T11:02:15.000Z</time>
      </trkpt>
      <trkpt lat="43.62454" lon="6.02961">
        <ele>572</ele>
        <time>2026-02-10T11:02:17.000Z</time>
      </trkpt>
      <trkpt lat="43.62453" lon="6.02962">
        <ele>572</ele>
        <time>2026-02-10T11:02:18.000Z</time>
      </trkpt>
      <trkpt lat="43.62453" lon="6.02964">
        <ele>572</ele>
        <time>2026-02-10T11:02:20.000Z</time>
      </trkpt>
      <trkpt lat="43.62453" lon="6.02966">
        <ele>572</ele>
        <time>2026-02-10T11:02:22.000Z</time>
      </trkpt>
      <trkpt lat="43.62453" lon="6.02967">
        <ele>572</ele>
        <time>2026-02-10T11:02:23.000Z</time>
      </trkpt>
      <trkpt lat="43.62453" lon="6.02969">
        <ele>572</ele>
        <time>2026-02-10T11:02:25.000Z</time>
      </trkpt>
      <trkpt lat="43.62452" lon="6.02971">
        <ele>572</ele>
        <time>2026-02-10T11:02:27.000Z</time>
      </trkpt>
      <trkpt lat="43.62452" lon="6.02972">
        <ele>572</ele>
        <time>2026-02-10T11:02:28.000Z</time>
      </trkpt>
      <trkpt lat="43.62452" lon="6.02974">
        <ele>572</ele>
        <time>2026-02-10T11:02:30.000Z</time>
      </trkpt>
      <trkpt lat="43.62452" lon="6.02975">
        <ele>572</ele>
        <time>2026-02-10T11:02:31.000Z</time>
      </trkpt>
      <trkpt lat="43.62452" lon="6.02977">
        <ele>572</ele>
        <time>2026-02-10T11:02:33.000Z</time>
      </trkpt>
      <trkpt lat="43.62451" lon="6.02979">
        <ele>572</ele>
        <time>2026-02-10T11:02:35.000Z</time>
      </trkpt>
      <trkpt lat="43.62451" lon="6.0298">
        <ele>572</ele>
        <time>2026-02-10T11:02:36.000Z</time>
      </trkpt>
      <trkpt lat="43.6245" lon="6.02982">
        <ele>572</ele>
        <time>2026-02-10T11:02:38.000Z</time>
      </trkpt>
      <trkpt lat="43.6245" lon="6.02984">
        <ele>572</ele>
        <time>2026-02-10T11:02:40.000Z</time>
      </trkpt>
      <trkpt lat="43.6245" lon="6.02986">
        <ele>572</ele>
        <time>2026-02-10T11:02:42.000Z</time>
      </trkpt>
      <trkpt lat="43.62449" lon="6.02988">
        <ele>572</ele>
        <time>2026-02-10T11:02:44.000Z</time>
      </trkpt>
      <trkpt lat="43.62449" lon="6.02989">
        <ele>572</ele>
        <time>2026-02-10T11:02:45.000Z</time>
      </trkpt>
      <trkpt lat="43.62449" lon="6.02991">
        <ele>571</ele>
        <time>2026-02-10T11:02:47.000Z</time>
      </trkpt>
      <trkpt lat="43.62449" lon="6.02993">
        <ele>571</ele>
        <time>2026-02-10T11:02:49.000Z</time>
      </trkpt>
      <trkpt lat="43.62448" lon="6.02994">
        <ele>571</ele>
        <time>2026-02-10T11:02:50.000Z</time>
      </trkpt>
      <trkpt lat="43.62448" lon="6.02995">
        <ele>571</ele>
        <time>2026-02-10T11:02:51.000Z</time>
      </trkpt>
      <trkpt lat="43.62447" lon="6.02997">
        <ele>571</ele>
        <time>2026-02-10T11:02:53.000Z</time>
      </trkpt>
      <trkpt lat="43.62447" lon="6.02998">
        <ele>571</ele>
        <time>2026-02-10T11:02:54.000Z</time>
      </trkpt>
      <trkpt lat="43.62447" lon="6.02999">
        <ele>571</ele>
        <time>2026-02-10T11:02:55.000Z</time>
      </trkpt>
      <trkpt lat="43.62446" lon="6.03">
        <ele>571</ele>
        <time>2026-02-10T11:02:56.000Z</time>
      </trkpt>
      <trkpt lat="43.62446" lon="6.03001">
        <ele>571</ele>
        <time>2026-02-10T11:02:57.000Z</time>
      </trkpt>
      <trkpt lat="43.62446" lon="6.03002">
        <ele>571</ele>
        <time>2026-02-10T11:02:58.000Z</time>
      </trkpt>
      <trkpt lat="43.62445" lon="6.03003">
        <ele>571</ele>
        <time>2026-02-10T11:02:59.000Z</time>
      </trkpt>
      <trkpt lat="43.62445" lon="6.03004">
        <ele>571</ele>
        <time>2026-02-10T11:03:00.000Z</time>
      </trkpt>
      <trkpt lat="43.62445" lon="6.03006">
        <ele>571</ele>
        <time>2026-02-10T11:03:02.000Z</time>
      </trkpt>
      <trkpt lat="43.62444" lon="6.03007">
        <ele>571</ele>
        <time>2026-02-10T11:03:03.000Z</time>
      </trkpt>
      <trkpt lat="43.62444" lon="6.03008">
        <ele>571</ele>
        <time>2026-02-10T11:03:04.000Z</time>
      </trkpt>
      <trkpt lat="43.62444" lon="6.0301">
        <ele>571</ele>
        <time>2026-02-10T11:03:06.000Z</time>
      </trkpt>
      <trkpt lat="43.62444" lon="6.03011">
        <ele>571</ele>
        <time>2026-02-10T11:03:07.000Z</time>
      </trkpt>
      <trkpt lat="43.62443" lon="6.03013">
        <ele>571</ele>
        <time>2026-02-10T11:03:09.000Z</time>
      </trkpt>
      <trkpt lat="43.62443" lon="6.03014">
        <ele>571</ele>
        <time>2026-02-10T11:03:10.000Z</time>
      </trkpt>
      <trkpt lat="43.62443" lon="6.03016">
        <ele>571</ele>
        <time>2026-02-10T11:03:12.000Z</time>
      </trkpt>
      <trkpt lat="43.62443" lon="6.03017">
        <ele>571</ele>
        <time>2026-02-10T11:03:13.000Z</time>
      </trkpt>
      <trkpt lat="43.62443" lon="6.03019">
        <ele>571</ele>
        <time>2026-02-10T11:03:15.000Z</time>
      </trkpt>
      <trkpt lat="43.62442" lon="6.0302">
        <ele>571</ele>
        <time>2026-02-10T11:03:16.000Z</time>
      </trkpt>
      <trkpt lat="43.62442" lon="6.03022">
        <ele>571</ele>
        <time>2026-02-10T11:03:18.000Z</time>
      </trkpt>
      <trkpt lat="43.62442" lon="6.03024">
        <ele>571</ele>
        <time>2026-02-10T11:03:20.000Z</time>
      </trkpt>
      <trkpt lat="43.62442" lon="6.03025">
        <ele>571</ele>
        <time>2026-02-10T11:03:21.000Z</time>
      </trkpt>
      <trkpt lat="43.62441" lon="6.03027">
        <ele>571</ele>
        <time>2026-02-10T11:03:23.000Z</time>
      </trkpt>
      <trkpt lat="43.62441" lon="6.03028">
        <ele>571</ele>
        <time>2026-02-10T11:03:24.000Z</time>
      </trkpt>
      <trkpt lat="43.62441" lon="6.0303">
        <ele>571</ele>
        <time>2026-02-10T11:03:26.000Z</time>
      </trkpt>
      <trkpt lat="43.62441" lon="6.03032">
        <ele>571</ele>
        <time>2026-02-10T11:03:28.000Z</time>
      </trkpt>
      <trkpt lat="43.62441" lon="6.03034">
        <ele>571</ele>
        <time>2026-02-10T11:03:30.000Z</time>
      </trkpt>
      <trkpt lat="43.62441" lon="6.03035">
        <ele>571</ele>
        <time>2026-02-10T11:03:31.000Z</time>
      </trkpt>
      <trkpt lat="43.62441" lon="6.03037">
        <ele>571</ele>
        <time>2026-02-10T11:03:33.000Z</time>
      </trkpt>
      <trkpt lat="43.6244" lon="6.03038">
        <ele>571</ele>
        <time>2026-02-10T11:03:34.000Z</time>
      </trkpt>
      <trkpt lat="43.62439" lon="6.0304">
        <ele>571</ele>
        <time>2026-02-10T11:03:36.000Z</time>
      </trkpt>
      <trkpt lat="43.62439" lon="6.03042">
        <ele>571</ele>
        <time>2026-02-10T11:03:38.000Z</time>
      </trkpt>
      <trkpt lat="43.62439" lon="6.03044">
        <ele>571</ele>
        <time>2026-02-10T11:03:40.000Z</time>
      </trkpt>
      <trkpt lat="43.62438" lon="6.03046">
        <ele>571</ele>
        <time>2026-02-10T11:03:42.000Z</time>
      </trkpt>
      <trkpt lat="43.62438" lon="6.03047">
        <ele>571</ele>
        <time>2026-02-10T11:03:43.000Z</time>
      </trkpt>
      <trkpt lat="43.62438" lon="6.03049">
        <ele>571</ele>
        <time>2026-02-10T11:03:45.000Z</time>
      </trkpt>
      <trkpt lat="43.62438" lon="6.03051">
        <ele>571</ele>
        <time>2026-02-10T11:03:47.000Z</time>
      </trkpt>
      <trkpt lat="43.62438" lon="6.03052">
        <ele>571</ele>
        <time>2026-02-10T11:03:48.000Z</time>
      </trkpt>
      <trkpt lat="43.62438" lon="6.03054">
        <ele>571</ele>
        <time>2026-02-10T11:03:50.000Z</time>
      </trkpt>
      <trkpt lat="43.62437" lon="6.03056">
        <ele>571</ele>
        <time>2026-02-10T11:03:52.000Z</time>
      </trkpt>
      <trkpt lat="43.62437" lon="6.03057">
        <ele>571</ele>
        <time>2026-02-10T11:03:53.000Z</time>
      </trkpt>
      <trkpt lat="43.62436" lon="6.03059">
        <ele>571</ele>
        <time>2026-02-10T11:03:55.000Z</time>
      </trkpt>
      <trkpt lat="43.62436" lon="6.0306">
        <ele>571</ele>
        <time>2026-02-10T11:03:56.000Z</time>
      </trkpt>
      <trkpt lat="43.62435" lon="6.03062">
        <ele>571</ele>
        <time>2026-02-10T11:03:58.000Z</time>
      </trkpt>
      <trkpt lat="43.62435" lon="6.03063">
        <ele>571</ele>
        <time>2026-02-10T11:03:59.000Z</time>
      </trkpt>
      <trkpt lat="43.62434" lon="6.03065">
        <ele>571</ele>
        <time>2026-02-10T11:04:01.000Z</time>
      </trkpt>
      <trkpt lat="43.62434" lon="6.03066">
        <ele>571</ele>
        <time>2026-02-10T11:04:02.000Z</time>
      </trkpt>
      <trkpt lat="43.62433" lon="6.03068">
        <ele>571</ele>
        <time>2026-02-10T11:04:04.000Z</time>
      </trkpt>
      <trkpt lat="43.62433" lon="6.03069">
        <ele>571</ele>
        <time>2026-02-10T11:04:05.000Z</time>
      </trkpt>
      <trkpt lat="43.62433" lon="6.03071">
        <ele>571</ele>
        <time>2026-02-10T11:04:07.000Z</time>
      </trkpt>
      <trkpt lat="43.62433" lon="6.03072">
        <ele>571</ele>
        <time>2026-02-10T11:04:08.000Z</time>
      </trkpt>
      <trkpt lat="43.62433" lon="6.03074">
        <ele>571</ele>
        <time>2026-02-10T11:04:10.000Z</time>
      </trkpt>
      <trkpt lat="43.62432" lon="6.03075">
        <ele>571</ele>
        <time>2026-02-10T11:04:11.000Z</time>
      </trkpt>
      <trkpt lat="43.62432" lon="6.03077">
        <ele>571</ele>
        <time>2026-02-10T11:04:13.000Z</time>
      </trkpt>
      <trkpt lat="43.62431" lon="6.03078">
        <ele>571</ele>
        <time>2026-02-10T11:04:14.000Z</time>
      </trkpt>
      <trkpt lat="43.62431" lon="6.0308">
        <ele>571</ele>
        <time>2026-02-10T11:04:16.000Z</time>
      </trkpt>
      <trkpt lat="43.62431" lon="6.03081">
        <ele>571</ele>
        <time>2026-02-10T11:04:17.000Z</time>
      </trkpt>
      <trkpt lat="43.62431" lon="6.03083">
        <ele>571</ele>
        <time>2026-02-10T11:04:19.000Z</time>
      </trkpt>
      <trkpt lat="43.62431" lon="6.03084">
        <ele>571</ele>
        <time>2026-02-10T11:04:20.000Z</time>
      </trkpt>
      <trkpt lat="43.62431" lon="6.03086">
        <ele>571</ele>
        <time>2026-02-10T11:04:22.000Z</time>
      </trkpt>
      <trkpt lat="43.6243" lon="6.03088">
        <ele>571</ele>
        <time>2026-02-10T11:04:24.000Z</time>
      </trkpt>
      <trkpt lat="43.62429" lon="6.0309">
        <ele>571</ele>
        <time>2026-02-10T11:04:26.000Z</time>
      </trkpt>
      <trkpt lat="43.62429" lon="6.03091">
        <ele>571</ele>
        <time>2026-02-10T11:04:27.000Z</time>
      </trkpt>
      <trkpt lat="43.62428" lon="6.03093">
        <ele>571</ele>
        <time>2026-02-10T11:04:29.000Z</time>
      </trkpt>
      <trkpt lat="43.62427" lon="6.03094">
        <ele>571</ele>
        <time>2026-02-10T11:04:30.000Z</time>
      </trkpt>
      <trkpt lat="43.62427" lon="6.03095">
        <ele>571</ele>
        <time>2026-02-10T11:04:31.000Z</time>
      </trkpt>
      <trkpt lat="43.62426" lon="6.03097">
        <ele>571</ele>
        <time>2026-02-10T11:04:33.000Z</time>
      </trkpt>
      <trkpt lat="43.62426" lon="6.03098">
        <ele>571</ele>
        <time>2026-02-10T11:04:34.000Z</time>
      </trkpt>
      <trkpt lat="43.62426" lon="6.031">
        <ele>571</ele>
        <time>2026-02-10T11:04:36.000Z</time>
      </trkpt>
      <trkpt lat="43.62426" lon="6.03101">
        <ele>571</ele>
        <time>2026-02-10T11:04:37.000Z</time>
      </trkpt>
      <trkpt lat="43.62425" lon="6.03103">
        <ele>571</ele>
        <time>2026-02-10T11:04:39.000Z</time>
      </trkpt>
      <trkpt lat="43.62424" lon="6.03104">
        <ele>571</ele>
        <time>2026-02-10T11:04:40.000Z</time>
      </trkpt>
      <trkpt lat="43.62424" lon="6.03106">
        <ele>571</ele>
        <time>2026-02-10T11:04:42.000Z</time>
      </trkpt>
      <trkpt lat="43.62424" lon="6.03108">
        <ele>571</ele>
        <time>2026-02-10T11:04:44.000Z</time>
      </trkpt>
      <trkpt lat="43.62424" lon="6.0311">
        <ele>571</ele>
        <time>2026-02-10T11:04:46.000Z</time>
      </trkpt>
      <trkpt lat="43.62424" lon="6.03112">
        <ele>571</ele>
        <time>2026-02-10T11:04:48.000Z</time>
      </trkpt>
      <trkpt lat="43.62423" lon="6.03113">
        <ele>571</ele>
        <time>2026-02-10T11:04:49.000Z</time>
      </trkpt>
      <trkpt lat="43.62423" lon="6.03115">
        <ele>571</ele>
        <time>2026-02-10T11:04:51.000Z</time>
      </trkpt>
      <trkpt lat="43.62423" lon="6.03116">
        <ele>571</ele>
        <time>2026-02-10T11:04:52.000Z</time>
      </trkpt>
      <trkpt lat="43.62423" lon="6.03117">
        <ele>571</ele>
        <time>2026-02-10T11:04:53.000Z</time>
      </trkpt>
      <trkpt lat="43.62422" lon="6.03119">
        <ele>571</ele>
        <time>2026-02-10T11:04:55.000Z</time>
      </trkpt>
      <trkpt lat="43.62422" lon="6.03121">
        <ele>571</ele>
        <time>2026-02-10T11:04:57.000Z</time>
      </trkpt>
      <trkpt lat="43.62421" lon="6.03122">
        <ele>571</ele>
        <time>2026-02-10T11:04:58.000Z</time>
      </trkpt>
      <trkpt lat="43.62421" lon="6.03124">
        <ele>571</ele>
        <time>2026-02-10T11:05:00.000Z</time>
      </trkpt>
      <trkpt lat="43.62421" lon="6.03126">
        <ele>571</ele>
        <time>2026-02-10T11:05:02.000Z</time>
      </trkpt>
      <trkpt lat="43.6242" lon="6.03127">
        <ele>571</ele>
        <time>2026-02-10T11:05:03.000Z</time>
      </trkpt>
      <trkpt lat="43.6242" lon="6.03129">
        <ele>571</ele>
        <time>2026-02-10T11:05:05.000Z</time>
      </trkpt>
      <trkpt lat="43.62419" lon="6.03131">
        <ele>571</ele>
        <time>2026-02-10T11:05:07.000Z</time>
      </trkpt>
      <trkpt lat="43.62419" lon="6.03132">
        <ele>571</ele>
        <time>2026-02-10T11:05:08.000Z</time>
      </trkpt>
      <trkpt lat="43.62419" lon="6.03134">
        <ele>571</ele>
        <time>2026-02-10T11:05:10.000Z</time>
      </trkpt>
      <trkpt lat="43.62418" lon="6.03135">
        <ele>571</ele>
        <time>2026-02-10T11:05:11.000Z</time>
      </trkpt>
      <trkpt lat="43.62418" lon="6.03137">
        <ele>571</ele>
        <time>2026-02-10T11:05:13.000Z</time>
      </trkpt>
      <trkpt lat="43.62418" lon="6.03139">
        <ele>571</ele>
        <time>2026-02-10T11:05:15.000Z</time>
      </trkpt>
      <trkpt lat="43.62417" lon="6.0314">
        <ele>571</ele>
        <time>2026-02-10T11:05:16.000Z</time>
      </trkpt>
      <trkpt lat="43.62417" lon="6.03142">
        <ele>571</ele>
        <time>2026-02-10T11:05:18.000Z</time>
      </trkpt>
      <trkpt lat="43.62416" lon="6.03143">
        <ele>571</ele>
        <time>2026-02-10T11:05:19.000Z</time>
      </trkpt>
      <trkpt lat="43.62416" lon="6.03145">
        <ele>571</ele>
        <time>2026-02-10T11:05:21.000Z</time>
      </trkpt>
      <trkpt lat="43.62416" lon="6.03146">
        <ele>571</ele>
        <time>2026-02-10T11:05:22.000Z</time>
      </trkpt>
      <trkpt lat="43.62416" lon="6.03148">
        <ele>571</ele>
        <time>2026-02-10T11:05:24.000Z</time>
      </trkpt>
      <trkpt lat="43.62415" lon="6.03149">
        <ele>571</ele>
        <time>2026-02-10T11:05:25.000Z</time>
      </trkpt>
      <trkpt lat="43.62415" lon="6.03151">
        <ele>571</ele>
        <time>2026-02-10T11:05:27.000Z</time>
      </trkpt>
      <trkpt lat="43.62415" lon="6.03152">
        <ele>571</ele>
        <time>2026-02-10T11:05:28.000Z</time>
      </trkpt>
      <trkpt lat="43.62414" lon="6.03154">
        <ele>571</ele>
        <time>2026-02-10T11:05:30.000Z</time>
      </trkpt>
      <trkpt lat="43.62413" lon="6.03156">
        <ele>571</ele>
        <time>2026-02-10T11:05:32.000Z</time>
      </trkpt>
      <trkpt lat="43.62413" lon="6.03158">
        <ele>571</ele>
        <time>2026-02-10T11:05:34.000Z</time>
      </trkpt>
      <trkpt lat="43.62413" lon="6.03159">
        <ele>571</ele>
        <time>2026-02-10T11:05:35.000Z</time>
      </trkpt>
      <trkpt lat="43.62413" lon="6.0316">
        <ele>571</ele>
        <time>2026-02-10T11:05:36.000Z</time>
      </trkpt>
      <trkpt lat="43.62413" lon="6.03162">
        <ele>571</ele>
        <time>2026-02-10T11:05:38.000Z</time>
      </trkpt>
      <trkpt lat="43.62413" lon="6.03163">
        <ele>571</ele>
        <time>2026-02-10T11:05:39.000Z</time>
      </trkpt>
      <trkpt lat="43.62412" lon="6.03165">
        <ele>571</ele>
        <time>2026-02-10T11:05:41.000Z</time>
      </trkpt>
      <trkpt lat="43.62412" lon="6.03167">
        <ele>571</ele>
        <time>2026-02-10T11:05:43.000Z</time>
      </trkpt>
      <trkpt lat="43.62411" lon="6.03168">
        <ele>571</ele>
        <time>2026-02-10T11:05:44.000Z</time>
      </trkpt>
      <trkpt lat="43.62411" lon="6.0317">
        <ele>571</ele>
        <time>2026-02-10T11:05:46.000Z</time>
      </trkpt>
      <trkpt lat="43.6241" lon="6.03172">
        <ele>571</ele>
        <time>2026-02-10T11:05:48.000Z</time>
      </trkpt>
      <trkpt lat="43.6241" lon="6.03174">
        <ele>571</ele>
        <time>2026-02-10T11:05:50.000Z</time>
      </trkpt>
      <trkpt lat="43.6241" lon="6.03175">
        <ele>571</ele>
        <time>2026-02-10T11:05:51.000Z</time>
      </trkpt>
      <trkpt lat="43.62409" lon="6.03177">
        <ele>571</ele>
        <time>2026-02-10T11:05:53.000Z</time>
      </trkpt>
      <trkpt lat="43.62409" lon="6.03179">
        <ele>571</ele>
        <time>2026-02-10T11:05:55.000Z</time>
      </trkpt>
      <trkpt lat="43.62409" lon="6.0318">
        <ele>571</ele>
        <time>2026-02-10T11:05:56.000Z</time>
      </trkpt>
      <trkpt lat="43.62409" lon="6.03182">
        <ele>571</ele>
        <time>2026-02-10T11:05:58.000Z</time>
      </trkpt>
      <trkpt lat="43.62408" lon="6.03184">
        <ele>571</ele>
        <time>2026-02-10T11:06:00.000Z</time>
      </trkpt>
      <trkpt lat="43.62408" lon="6.03185">
        <ele>571</ele>
        <time>2026-02-10T11:06:01.000Z</time>
      </trkpt>
      <trkpt lat="43.62407" lon="6.03187">
        <ele>571</ele>
        <time>2026-02-10T11:06:03.000Z</time>
      </trkpt>
      <trkpt lat="43.62407" lon="6.03189">
        <ele>571</ele>
        <time>2026-02-10T11:06:05.000Z</time>
      </trkpt>
      <trkpt lat="43.62407" lon="6.0319">
        <ele>571</ele>
        <time>2026-02-10T11:06:06.000Z</time>
      </trkpt>
      <trkpt lat="43.62406" lon="6.03192">
        <ele>571</ele>
        <time>2026-02-10T11:06:08.000Z</time>
      </trkpt>
      <trkpt lat="43.62406" lon="6.03194">
        <ele>571</ele>
        <time>2026-02-10T11:06:10.000Z</time>
      </trkpt>
      <trkpt lat="43.62406" lon="6.03195">
        <ele>571</ele>
        <time>2026-02-10T11:06:11.000Z</time>
      </trkpt>
      <trkpt lat="43.62405" lon="6.03197">
        <ele>571</ele>
        <time>2026-02-10T11:06:13.000Z</time>
      </trkpt>
      <trkpt lat="43.62405" lon="6.03198">
        <ele>571</ele>
        <time>2026-02-10T11:06:14.000Z</time>
      </trkpt>
      <trkpt lat="43.62404" lon="6.032">
        <ele>571</ele>
        <time>2026-02-10T11:06:16.000Z</time>
      </trkpt>
      <trkpt lat="43.62404" lon="6.03202">
        <ele>571</ele>
        <time>2026-02-10T11:06:18.000Z</time>
      </trkpt>
      <trkpt lat="43.62404" lon="6.03204">
        <ele>571</ele>
        <time>2026-02-10T11:06:20.000Z</time>
      </trkpt>
      <trkpt lat="43.62403" lon="6.03205">
        <ele>571</ele>
        <time>2026-02-10T11:06:21.000Z</time>
      </trkpt>
      <trkpt lat="43.62403" lon="6.03207">
        <ele>571</ele>
        <time>2026-02-10T11:06:23.000Z</time>
      </trkpt>
      <trkpt lat="43.62403" lon="6.03208">
        <ele>571</ele>
        <time>2026-02-10T11:06:24.000Z</time>
      </trkpt>
      <trkpt lat="43.62402" lon="6.0321">
        <ele>571</ele>
        <time>2026-02-10T11:06:26.000Z</time>
      </trkpt>
      <trkpt lat="43.62402" lon="6.03212">
        <ele>571</ele>
        <time>2026-02-10T11:06:28.000Z</time>
      </trkpt>
      <trkpt lat="43.62401" lon="6.03214">
        <ele>571</ele>
        <time>2026-02-10T11:06:30.000Z</time>
      </trkpt>
      <trkpt lat="43.62401" lon="6.03215">
        <ele>571</ele>
        <time>2026-02-10T11:06:31.000Z</time>
      </trkpt>
      <trkpt lat="43.62401" lon="6.03217">
        <ele>571</ele>
        <time>2026-02-10T11:06:33.000Z</time>
      </trkpt>
      <trkpt lat="43.624" lon="6.03218">
        <ele>571</ele>
        <time>2026-02-10T11:06:34.000Z</time>
      </trkpt>
      <trkpt lat="43.624" lon="6.0322">
        <ele>571</ele>
        <time>2026-02-10T11:06:36.000Z</time>
      </trkpt>
      <trkpt lat="43.624" lon="6.03222">
        <ele>571</ele>
        <time>2026-02-10T11:06:38.000Z</time>
      </trkpt>
      <trkpt lat="43.62399" lon="6.03223">
        <ele>571</ele>
        <time>2026-02-10T11:06:39.000Z</time>
      </trkpt>
      <trkpt lat="43.62399" lon="6.03225">
        <ele>571</ele>
        <time>2026-02-10T11:06:41.000Z</time>
      </trkpt>
      <trkpt lat="43.62398" lon="6.03226">
        <ele>571</ele>
        <time>2026-02-10T11:06:42.000Z</time>
      </trkpt>
      <trkpt lat="43.62398" lon="6.03227">
        <ele>571</ele>
        <time>2026-02-10T11:06:43.000Z</time>
      </trkpt>
      <trkpt lat="43.62398" lon="6.03229">
        <ele>571</ele>
        <time>2026-02-10T11:06:45.000Z</time>
      </trkpt>
      <trkpt lat="43.62397" lon="6.0323">
        <ele>571</ele>
        <time>2026-02-10T11:06:46.000Z</time>
      </trkpt>
      <trkpt lat="43.62397" lon="6.03232">
        <ele>571</ele>
        <time>2026-02-10T11:06:48.000Z</time>
      </trkpt>
      <trkpt lat="43.62396" lon="6.03233">
        <ele>571</ele>
        <time>2026-02-10T11:06:49.000Z</time>
      </trkpt>
      <trkpt lat="43.62396" lon="6.03235">
        <ele>571</ele>
        <time>2026-02-10T11:06:51.000Z</time>
      </trkpt>
      <trkpt lat="43.62396" lon="6.03237">
        <ele>571</ele>
        <time>2026-02-10T11:06:53.000Z</time>
      </trkpt>
      <trkpt lat="43.62395" lon="6.03239">
        <ele>570</ele>
        <time>2026-02-10T11:06:55.000Z</time>
      </trkpt>
      <trkpt lat="43.62395" lon="6.0324">
        <ele>570</ele>
        <time>2026-02-10T11:06:56.000Z</time>
      </trkpt>
      <trkpt lat="43.62394" lon="6.03242">
        <ele>570</ele>
        <time>2026-02-10T11:06:58.000Z</time>
      </trkpt>
      <trkpt lat="43.62394" lon="6.03243">
        <ele>569</ele>
        <time>2026-02-10T11:06:59.000Z</time>
      </trkpt>
      <trkpt lat="43.62394" lon="6.03245">
        <ele>570</ele>
        <time>2026-02-10T11:07:11.000Z</time>
      </trkpt>
      <trkpt lat="43.62393" lon="6.03246">
        <ele>570</ele>
        <time>2026-02-10T11:07:12.000Z</time>
      </trkpt>
      <trkpt lat="43.62393" lon="6.03247">
        <ele>570</ele>
        <time>2026-02-10T11:07:13.000Z</time>
      </trkpt>
      <trkpt lat="43.62392" lon="6.03249">
        <ele>571</ele>
        <time>2026-02-10T11:07:25.000Z</time>
      </trkpt>
      <trkpt lat="43.62391" lon="6.0325">
        <ele>571</ele>
        <time>2026-02-10T11:07:26.000Z</time>
      </trkpt>
      <trkpt lat="43.62391" lon="6.03251">
        <ele>571</ele>
        <time>2026-02-10T11:07:27.000Z</time>
      </trkpt>
      <trkpt lat="43.62391" lon="6.03253">
        <ele>571</ele>
        <time>2026-02-10T11:07:29.000Z</time>
      </trkpt>
      <trkpt lat="43.6239" lon="6.03254">
        <ele>571</ele>
        <time>2026-02-10T11:07:30.000Z</time>
      </trkpt>
      <trkpt lat="43.62389" lon="6.03255">
        <ele>571</ele>
        <time>2026-02-10T11:07:31.000Z</time>
      </trkpt>
      <trkpt lat="43.62389" lon="6.03257">
        <ele>570</ele>
        <time>2026-02-10T11:07:33.000Z</time>
      </trkpt>
      <trkpt lat="43.62388" lon="6.03258">
        <ele>570</ele>
        <time>2026-02-10T11:07:34.000Z</time>
      </trkpt>
      <trkpt lat="43.62388" lon="6.0326">
        <ele>570</ele>
        <time>2026-02-10T11:07:36.000Z</time>
      </trkpt>
      <trkpt lat="43.62388" lon="6.03262">
        <ele>570</ele>
        <time>2026-02-10T11:07:38.000Z</time>
      </trkpt>
      <trkpt lat="43.62388" lon="6.03264">
        <ele>570</ele>
        <time>2026-02-10T11:07:40.000Z</time>
      </trkpt>
      <trkpt lat="43.62388" lon="6.03265">
        <ele>570</ele>
        <time>2026-02-10T11:07:41.000Z</time>
      </trkpt>
      <trkpt lat="43.62388" lon="6.03267">
        <ele>570</ele>
        <time>2026-02-10T11:07:43.000Z</time>
      </trkpt>
      <trkpt lat="43.62388" lon="6.03268">
        <ele>570</ele>
        <time>2026-02-10T11:07:44.000Z</time>
      </trkpt>
      <trkpt lat="43.62387" lon="6.03269">
        <ele>570</ele>
        <time>2026-02-10T11:07:45.000Z</time>
      </trkpt>
      <trkpt lat="43.62387" lon="6.0327">
        <ele>570</ele>
        <time>2026-02-10T11:07:46.000Z</time>
      </trkpt>
      <trkpt lat="43.62386" lon="6.03271">
        <ele>570</ele>
        <time>2026-02-10T11:07:47.000Z</time>
      </trkpt>
      <trkpt lat="43.62386" lon="6.03273">
        <ele>570</ele>
        <time>2026-02-10T11:07:49.000Z</time>
      </trkpt>
      <trkpt lat="43.62385" lon="6.03274">
        <ele>570</ele>
        <time>2026-02-10T11:07:50.000Z</time>
      </trkpt>
      <trkpt lat="43.62384" lon="6.03275">
        <ele>570</ele>
        <time>2026-02-10T11:07:51.000Z</time>
      </trkpt>
      <trkpt lat="43.62384" lon="6.03277">
        <ele>570</ele>
        <time>2026-02-10T11:07:53.000Z</time>
      </trkpt>
      <trkpt lat="43.62383" lon="6.03278">
        <ele>571</ele>
        <time>2026-02-10T11:08:05.000Z</time>
      </trkpt>
      <trkpt lat="43.62383" lon="6.03279">
        <ele>571</ele>
        <time>2026-02-10T11:08:06.000Z</time>
      </trkpt>
      <trkpt lat="43.62382" lon="6.03281">
        <ele>571</ele>
        <time>2026-02-10T11:08:08.000Z</time>
      </trkpt>
      <trkpt lat="43.62382" lon="6.03282">
        <ele>571</ele>
        <time>2026-02-10T11:08:09.000Z</time>
      </trkpt>
      <trkpt lat="43.62381" lon="6.03284">
        <ele>571</ele>
        <time>2026-02-10T11:08:11.000Z</time>
      </trkpt>
      <trkpt lat="43.62381" lon="6.03286">
        <ele>571</ele>
        <time>2026-02-10T11:08:13.000Z</time>
      </trkpt>
      <trkpt lat="43.6238" lon="6.03287">
        <ele>571</ele>
        <time>2026-02-10T11:08:14.000Z</time>
      </trkpt>
      <trkpt lat="43.6238" lon="6.03289">
        <ele>571</ele>
        <time>2026-02-10T11:08:16.000Z</time>
      </trkpt>
      <trkpt lat="43.62379" lon="6.0329">
        <ele>571</ele>
        <time>2026-02-10T11:08:17.000Z</time>
      </trkpt>
      <trkpt lat="43.62379" lon="6.03292">
        <ele>571</ele>
        <time>2026-02-10T11:08:19.000Z</time>
      </trkpt>
      <trkpt lat="43.62378" lon="6.03293">
        <ele>571</ele>
        <time>2026-02-10T11:08:20.000Z</time>
      </trkpt>
      <trkpt lat="43.62378" lon="6.03295">
        <ele>571</ele>
        <time>2026-02-10T11:08:22.000Z</time>
      </trkpt>
      <trkpt lat="43.62378" lon="6.03296">
        <ele>571</ele>
        <time>2026-02-10T11:08:23.000Z</time>
      </trkpt>
      <trkpt lat="43.62378" lon="6.03298">
        <ele>571</ele>
        <time>2026-02-10T11:08:25.000Z</time>
      </trkpt>
      <trkpt lat="43.62377" lon="6.033">
        <ele>571</ele>
        <time>2026-02-10T11:08:27.000Z</time>
      </trkpt>
      <trkpt lat="43.62377" lon="6.03301">
        <ele>571</ele>
        <time>2026-02-10T11:08:28.000Z</time>
      </trkpt>
      <trkpt lat="43.62377" lon="6.03303">
        <ele>571</ele>
        <time>2026-02-10T11:08:30.000Z</time>
      </trkpt>
      <trkpt lat="43.62376" lon="6.03305">
        <ele>571</ele>
        <time>2026-02-10T11:08:32.000Z</time>
      </trkpt>
      <trkpt lat="43.62376" lon="6.03307">
        <ele>571</ele>
        <time>2026-02-10T11:08:34.000Z</time>
      </trkpt>
      <trkpt lat="43.62376" lon="6.03308">
        <ele>571</ele>
        <time>2026-02-10T11:08:35.000Z</time>
      </trkpt>
      <trkpt lat="43.62376" lon="6.03309">
        <ele>571</ele>
        <time>2026-02-10T11:08:36.000Z</time>
      </trkpt>
      <trkpt lat="43.62376" lon="6.03311">
        <ele>571</ele>
        <time>2026-02-10T11:08:38.000Z</time>
      </trkpt>
      <trkpt lat="43.62375" lon="6.03312">
        <ele>571</ele>
        <time>2026-02-10T11:08:39.000Z</time>
      </trkpt>
      <trkpt lat="43.62375" lon="6.03314">
        <ele>571</ele>
        <time>2026-02-10T11:08:41.000Z</time>
      </trkpt>
      <trkpt lat="43.62375" lon="6.03316">
        <ele>571</ele>
        <time>2026-02-10T11:08:43.000Z</time>
      </trkpt>
      <trkpt lat="43.62374" lon="6.03317">
        <ele>571</ele>
        <time>2026-02-10T11:08:44.000Z</time>
      </trkpt>
      <trkpt lat="43.62374" lon="6.03319">
        <ele>571</ele>
        <time>2026-02-10T11:08:46.000Z</time>
      </trkpt>
      <trkpt lat="43.62373" lon="6.0332">
        <ele>571</ele>
        <time>2026-02-10T11:08:47.000Z</time>
      </trkpt>
      <trkpt lat="43.62373" lon="6.03322">
        <ele>571</ele>
        <time>2026-02-10T11:08:49.000Z</time>
      </trkpt>
      <trkpt lat="43.62373" lon="6.03323">
        <ele>571</ele>
        <time>2026-02-10T11:08:50.000Z</time>
      </trkpt>
      <trkpt lat="43.62372" lon="6.03325">
        <ele>571</ele>
        <time>2026-02-10T11:08:52.000Z</time>
      </trkpt>
      <trkpt lat="43.62372" lon="6.03327">
        <ele>571</ele>
        <time>2026-02-10T11:08:54.000Z</time>
      </trkpt>
      <trkpt lat="43.62372" lon="6.03328">
        <ele>571</ele>
        <time>2026-02-10T11:08:55.000Z</time>
      </trkpt>
      <trkpt lat="43.62372" lon="6.0333">
        <ele>571</ele>
        <time>2026-02-10T11:08:57.000Z</time>
      </trkpt>
      <trkpt lat="43.62371" lon="6.03332">
        <ele>571</ele>
        <time>2026-02-10T11:08:59.000Z</time>
      </trkpt>
      <trkpt lat="43.62371" lon="6.03333">
        <ele>571</ele>
        <time>2026-02-10T11:09:00.000Z</time>
      </trkpt>
      <trkpt lat="43.62371" lon="6.03335">
        <ele>571</ele>
        <time>2026-02-10T11:09:02.000Z</time>
      </trkpt>
      <trkpt lat="43.6237" lon="6.03336">
        <ele>571</ele>
        <time>2026-02-10T11:09:03.000Z</time>
      </trkpt>
      <trkpt lat="43.6237" lon="6.03338">
        <ele>571</ele>
        <time>2026-02-10T11:09:05.000Z</time>
      </trkpt>
      <trkpt lat="43.6237" lon="6.03339">
        <ele>571</ele>
        <time>2026-02-10T11:09:06.000Z</time>
      </trkpt>
      <trkpt lat="43.62369" lon="6.03341">
        <ele>571</ele>
        <time>2026-02-10T11:09:08.000Z</time>
      </trkpt>
      <trkpt lat="43.62369" lon="6.03343">
        <ele>571</ele>
        <time>2026-02-10T11:09:10.000Z</time>
      </trkpt>
      <trkpt lat="43.62369" lon="6.03344">
        <ele>571</ele>
        <time>2026-02-10T11:09:11.000Z</time>
      </trkpt>
      <trkpt lat="43.62369" lon="6.03346">
        <ele>571</ele>
        <time>2026-02-10T11:09:13.000Z</time>
      </trkpt>
      <trkpt lat="43.62368" lon="6.03347">
        <ele>571</ele>
        <time>2026-02-10T11:09:14.000Z</time>
      </trkpt>
      <trkpt lat="43.62368" lon="6.03349">
        <ele>571</ele>
        <time>2026-02-10T11:09:16.000Z</time>
      </trkpt>
      <trkpt lat="43.62368" lon="6.03351">
        <ele>571</ele>
        <time>2026-02-10T11:09:18.000Z</time>
      </trkpt>
      <trkpt lat="43.62367" lon="6.03352">
        <ele>571</ele>
        <time>2026-02-10T11:09:19.000Z</time>
      </trkpt>
      <trkpt lat="43.62367" lon="6.03353">
        <ele>571</ele>
        <time>2026-02-10T11:09:20.000Z</time>
      </trkpt>
      <trkpt lat="43.62366" lon="6.03355">
        <ele>571</ele>
        <time>2026-02-10T11:09:22.000Z</time>
      </trkpt>
      <trkpt lat="43.62366" lon="6.03357">
        <ele>571</ele>
        <time>2026-02-10T11:09:24.000Z</time>
      </trkpt>
      <trkpt lat="43.62365" lon="6.03358">
        <ele>571</ele>
        <time>2026-02-10T11:09:25.000Z</time>
      </trkpt>
      <trkpt lat="43.62365" lon="6.0336">
        <ele>571</ele>
        <time>2026-02-10T11:09:27.000Z</time>
      </trkpt>
      <trkpt lat="43.62365" lon="6.03361">
        <ele>571</ele>
        <time>2026-02-10T11:09:28.000Z</time>
      </trkpt>
      <trkpt lat="43.62364" lon="6.03363">
        <ele>571</ele>
        <time>2026-02-10T11:09:30.000Z</time>
      </trkpt>
      <trkpt lat="43.62364" lon="6.03364">
        <ele>571</ele>
        <time>2026-02-10T11:09:31.000Z</time>
      </trkpt>
      <trkpt lat="43.62364" lon="6.03366">
        <ele>571</ele>
        <time>2026-02-10T11:09:33.000Z</time>
      </trkpt>
      <trkpt lat="43.62363" lon="6.03367">
        <ele>571</ele>
        <time>2026-02-10T11:09:34.000Z</time>
      </trkpt>
      <trkpt lat="43.62363" lon="6.03369">
        <ele>571</ele>
        <time>2026-02-10T11:09:36.000Z</time>
      </trkpt>
      <trkpt lat="43.62362" lon="6.03371">
        <ele>571</ele>
        <time>2026-02-10T11:09:38.000Z</time>
      </trkpt>
      <trkpt lat="43.62362" lon="6.03372">
        <ele>571</ele>
        <time>2026-02-10T11:09:39.000Z</time>
      </trkpt>
      <trkpt lat="43.62362" lon="6.03373">
        <ele>571</ele>
        <time>2026-02-10T11:09:40.000Z</time>
      </trkpt>
      <trkpt lat="43.62361" lon="6.03375">
        <ele>572</ele>
        <time>2026-02-10T11:09:52.000Z</time>
      </trkpt>
      <trkpt lat="43.62361" lon="6.03376">
        <ele>572</ele>
        <time>2026-02-10T11:09:53.000Z</time>
      </trkpt>
      <trkpt lat="43.62361" lon="6.03378">
        <ele>572</ele>
        <time>2026-02-10T11:09:55.000Z</time>
      </trkpt>
      <trkpt lat="43.62361" lon="6.03379">
        <ele>572</ele>
        <time>2026-02-10T11:09:56.000Z</time>
      </trkpt>
      <trkpt lat="43.6236" lon="6.03381">
        <ele>572</ele>
        <time>2026-02-10T11:09:58.000Z</time>
      </trkpt>
      <trkpt lat="43.6236" lon="6.03382">
        <ele>572</ele>
        <time>2026-02-10T11:09:59.000Z</time>
      </trkpt>
      <trkpt lat="43.62359" lon="6.03384">
        <ele>572</ele>
        <time>2026-02-10T11:10:01.000Z</time>
      </trkpt>
      <trkpt lat="43.62359" lon="6.03386">
        <ele>572</ele>
        <time>2026-02-10T11:10:03.000Z</time>
      </trkpt>
      <trkpt lat="43.62358" lon="6.03387">
        <ele>572</ele>
        <time>2026-02-10T11:10:04.000Z</time>
      </trkpt>
      <trkpt lat="43.62358" lon="6.03389">
        <ele>572</ele>
        <time>2026-02-10T11:10:06.000Z</time>
      </trkpt>
      <trkpt lat="43.62357" lon="6.0339">
        <ele>572</ele>
        <time>2026-02-10T11:10:07.000Z</time>
      </trkpt>
      <trkpt lat="43.62357" lon="6.03392">
        <ele>572</ele>
        <time>2026-02-10T11:10:09.000Z</time>
      </trkpt>
      <trkpt lat="43.62356" lon="6.03393">
        <ele>572</ele>
        <time>2026-02-10T11:10:10.000Z</time>
      </trkpt>
      <trkpt lat="43.62356" lon="6.03395">
        <ele>572</ele>
        <time>2026-02-10T11:10:12.000Z</time>
      </trkpt>
      <trkpt lat="43.62356" lon="6.03397">
        <ele>572</ele>
        <time>2026-02-10T11:10:14.000Z</time>
      </trkpt>
      <trkpt lat="43.62355" lon="6.03399">
        <ele>572</ele>
        <time>2026-02-10T11:10:16.000Z</time>
      </trkpt>
      <trkpt lat="43.62355" lon="6.034">
        <ele>572</ele>
        <time>2026-02-10T11:10:17.000Z</time>
      </trkpt>
      <trkpt lat="43.62354" lon="6.03402">
        <ele>572</ele>
        <time>2026-02-10T11:10:19.000Z</time>
      </trkpt>
      <trkpt lat="43.62354" lon="6.03403">
        <ele>572</ele>
        <time>2026-02-10T11:10:20.000Z</time>
      </trkpt>
      <trkpt lat="43.62353" lon="6.03405">
        <ele>572</ele>
        <time>2026-02-10T11:10:22.000Z</time>
      </trkpt>
      <trkpt lat="43.62353" lon="6.03406">
        <ele>572</ele>
        <time>2026-02-10T11:10:23.000Z</time>
      </trkpt>
      <trkpt lat="43.62353" lon="6.03408">
        <ele>572</ele>
        <time>2026-02-10T11:10:25.000Z</time>
      </trkpt>
      <trkpt lat="43.62352" lon="6.03409">
        <ele>572</ele>
        <time>2026-02-10T11:10:26.000Z</time>
      </trkpt>
      <trkpt lat="43.62352" lon="6.03411">
        <ele>572</ele>
        <time>2026-02-10T11:10:28.000Z</time>
      </trkpt>
      <trkpt lat="43.62351" lon="6.03412">
        <ele>572</ele>
        <time>2026-02-10T11:10:29.000Z</time>
      </trkpt>
      <trkpt lat="43.62351" lon="6.03414">
        <ele>572</ele>
        <time>2026-02-10T11:10:31.000Z</time>
      </trkpt>
      <trkpt lat="43.62351" lon="6.03416">
        <ele>572</ele>
        <time>2026-02-10T11:10:33.000Z</time>
      </trkpt>
      <trkpt lat="43.6235" lon="6.03418">
        <ele>573</ele>
        <time>2026-02-10T11:10:45.000Z</time>
      </trkpt>
      <trkpt lat="43.6235" lon="6.03419">
        <ele>573</ele>
        <time>2026-02-10T11:10:46.000Z</time>
      </trkpt>
      <trkpt lat="43.6235" lon="6.03421">
        <ele>573</ele>
        <time>2026-02-10T11:10:48.000Z</time>
      </trkpt>
      <trkpt lat="43.62349" lon="6.03422">
        <ele>573</ele>
        <time>2026-02-10T11:10:49.000Z</time>
      </trkpt>
      <trkpt lat="43.62349" lon="6.03424">
        <ele>573</ele>
        <time>2026-02-10T11:10:51.000Z</time>
      </trkpt>
      <trkpt lat="43.62349" lon="6.03425">
        <ele>573</ele>
        <time>2026-02-10T11:10:52.000Z</time>
      </trkpt>
      <trkpt lat="43.62348" lon="6.03427">
        <ele>573</ele>
        <time>2026-02-10T11:10:54.000Z</time>
      </trkpt>
      <trkpt lat="43.62348" lon="6.03429">
        <ele>573</ele>
        <time>2026-02-10T11:10:56.000Z</time>
      </trkpt>
      <trkpt lat="43.62348" lon="6.0343">
        <ele>573</ele>
        <time>2026-02-10T11:10:57.000Z</time>
      </trkpt>
      <trkpt lat="43.62347" lon="6.03432">
        <ele>573</ele>
        <time>2026-02-10T11:10:59.000Z</time>
      </trkpt>
      <trkpt lat="43.62347" lon="6.03433">
        <ele>573</ele>
        <time>2026-02-10T11:11:00.000Z</time>
      </trkpt>
      <trkpt lat="43.62347" lon="6.03435">
        <ele>573</ele>
        <time>2026-02-10T11:11:02.000Z</time>
      </trkpt>
      <trkpt lat="43.62347" lon="6.03437">
        <ele>573</ele>
        <time>2026-02-10T11:11:04.000Z</time>
      </trkpt>
      <trkpt lat="43.62346" lon="6.03438">
        <ele>573</ele>
        <time>2026-02-10T11:11:05.000Z</time>
      </trkpt>
      <trkpt lat="43.62346" lon="6.0344">
        <ele>573</ele>
        <time>2026-02-10T11:11:07.000Z</time>
      </trkpt>
      <trkpt lat="43.62346" lon="6.03441">
        <ele>573</ele>
        <time>2026-02-10T11:11:08.000Z</time>
      </trkpt>
      <trkpt lat="43.62345" lon="6.03443">
        <ele>573</ele>
        <time>2026-02-10T11:11:10.000Z</time>
      </trkpt>
      <trkpt lat="43.62345" lon="6.03445">
        <ele>573</ele>
        <time>2026-02-10T11:11:12.000Z</time>
      </trkpt>
      <trkpt lat="43.62345" lon="6.03447">
        <ele>573</ele>
        <time>2026-02-10T11:11:14.000Z</time>
      </trkpt>
      <trkpt lat="43.62344" lon="6.03448">
        <ele>573</ele>
        <time>2026-02-10T11:11:15.000Z</time>
      </trkpt>
      <trkpt lat="43.62344" lon="6.0345">
        <ele>574</ele>
        <time>2026-02-10T11:11:27.000Z</time>
      </trkpt>
      <trkpt lat="43.62344" lon="6.03451">
        <ele>574</ele>
        <time>2026-02-10T11:11:28.000Z</time>
      </trkpt>
      <trkpt lat="43.62343" lon="6.03453">
        <ele>574</ele>
        <time>2026-02-10T11:11:30.000Z</time>
      </trkpt>
      <trkpt lat="43.62343" lon="6.03454">
        <ele>574</ele>
        <time>2026-02-10T11:11:31.000Z</time>
      </trkpt>
      <trkpt lat="43.62342" lon="6.03456">
        <ele>574</ele>
        <time>2026-02-10T11:11:33.000Z</time>
      </trkpt>
      <trkpt lat="43.62342" lon="6.03458">
        <ele>574</ele>
        <time>2026-02-10T11:11:35.000Z</time>
      </trkpt>
      <trkpt lat="43.62342" lon="6.03459">
        <ele>574</ele>
        <time>2026-02-10T11:11:36.000Z</time>
      </trkpt>
      <trkpt lat="43.62341" lon="6.03461">
        <ele>574</ele>
        <time>2026-02-10T11:11:38.000Z</time>
      </trkpt>
      <trkpt lat="43.62341" lon="6.03462">
        <ele>574</ele>
        <time>2026-02-10T11:11:39.000Z</time>
      </trkpt>
      <trkpt lat="43.6234" lon="6.03464">
        <ele>574</ele>
        <time>2026-02-10T11:11:41.000Z</time>
      </trkpt>
      <trkpt lat="43.6234" lon="6.03465">
        <ele>574</ele>
        <time>2026-02-10T11:11:42.000Z</time>
      </trkpt>
      <trkpt lat="43.6234" lon="6.03467">
        <ele>574</ele>
        <time>2026-02-10T11:11:44.000Z</time>
      </trkpt>
      <trkpt lat="43.62339" lon="6.03468">
        <ele>574</ele>
        <time>2026-02-10T11:11:45.000Z</time>
      </trkpt>
      <trkpt lat="43.62339" lon="6.0347">
        <ele>574</ele>
        <time>2026-02-10T11:11:47.000Z</time>
      </trkpt>
      <trkpt lat="43.62338" lon="6.03471">
        <ele>574</ele>
        <time>2026-02-10T11:11:48.000Z</time>
      </trkpt>
      <trkpt lat="43.62338" lon="6.03473">
        <ele>574</ele>
        <time>2026-02-10T11:11:50.000Z</time>
      </trkpt>
      <trkpt lat="43.62337" lon="6.03475">
        <ele>574</ele>
        <time>2026-02-10T11:11:52.000Z</time>
      </trkpt>
      <trkpt lat="43.62337" lon="6.03476">
        <ele>574</ele>
        <time>2026-02-10T11:11:53.000Z</time>
      </trkpt>
      <trkpt lat="43.62337" lon="6.03478">
        <ele>574</ele>
        <time>2026-02-10T11:11:55.000Z</time>
      </trkpt>
      <trkpt lat="43.62336" lon="6.03479">
        <ele>574</ele>
        <time>2026-02-10T11:11:56.000Z</time>
      </trkpt>
      <trkpt lat="43.62336" lon="6.03481">
        <ele>574</ele>
        <time>2026-02-10T11:11:58.000Z</time>
      </trkpt>
      <trkpt lat="43.62336" lon="6.03482">
        <ele>574</ele>
        <time>2026-02-10T11:11:59.000Z</time>
      </trkpt>
      <trkpt lat="43.62336" lon="6.03484">
        <ele>574</ele>
        <time>2026-02-10T11:12:01.000Z</time>
      </trkpt>
      <trkpt lat="43.62335" lon="6.03485">
        <ele>574</ele>
        <time>2026-02-10T11:12:02.000Z</time>
      </trkpt>
      <trkpt lat="43.62335" lon="6.03487">
        <ele>574</ele>
        <time>2026-02-10T11:12:04.000Z</time>
      </trkpt>
      <trkpt lat="43.62334" lon="6.03489">
        <ele>575</ele>
        <time>2026-02-10T11:12:16.000Z</time>
      </trkpt>
      <trkpt lat="43.62334" lon="6.0349">
        <ele>575</ele>
        <time>2026-02-10T11:12:17.000Z</time>
      </trkpt>
      <trkpt lat="43.62334" lon="6.03492">
        <ele>575</ele>
        <time>2026-02-10T11:12:19.000Z</time>
      </trkpt>
      <trkpt lat="43.62334" lon="6.03493">
        <ele>575</ele>
        <time>2026-02-10T11:12:20.000Z</time>
      </trkpt>
      <trkpt lat="43.62333" lon="6.03495">
        <ele>575</ele>
        <time>2026-02-10T11:12:22.000Z</time>
      </trkpt>
      <trkpt lat="43.62333" lon="6.03496">
        <ele>575</ele>
        <time>2026-02-10T11:12:23.000Z</time>
      </trkpt>
      <trkpt lat="43.62332" lon="6.03498">
        <ele>575</ele>
        <time>2026-02-10T11:12:25.000Z</time>
      </trkpt>
      <trkpt lat="43.62332" lon="6.03499">
        <ele>575</ele>
        <time>2026-02-10T11:12:26.000Z</time>
      </trkpt>
      <trkpt lat="43.62332" lon="6.03501">
        <ele>575</ele>
        <time>2026-02-10T11:12:28.000Z</time>
      </trkpt>
      <trkpt lat="43.62331" lon="6.03503">
        <ele>575</ele>
        <time>2026-02-10T11:12:30.000Z</time>
      </trkpt>
      <trkpt lat="43.62331" lon="6.03505">
        <ele>575</ele>
        <time>2026-02-10T11:12:32.000Z</time>
      </trkpt>
      <trkpt lat="43.62331" lon="6.03506">
        <ele>575</ele>
        <time>2026-02-10T11:12:33.000Z</time>
      </trkpt>
      <trkpt lat="43.6233" lon="6.03508">
        <ele>575</ele>
        <time>2026-02-10T11:12:35.000Z</time>
      </trkpt>
      <trkpt lat="43.6233" lon="6.0351">
        <ele>575</ele>
        <time>2026-02-10T11:12:37.000Z</time>
      </trkpt>
      <trkpt lat="43.6233" lon="6.03511">
        <ele>575</ele>
        <time>2026-02-10T11:12:38.000Z</time>
      </trkpt>
      <trkpt lat="43.62329" lon="6.03512">
        <ele>575</ele>
        <time>2026-02-10T11:12:39.000Z</time>
      </trkpt>
      <trkpt lat="43.62329" lon="6.03514">
        <ele>575</ele>
        <time>2026-02-10T11:12:41.000Z</time>
      </trkpt>
      <trkpt lat="43.62329" lon="6.03516">
        <ele>575</ele>
        <time>2026-02-10T11:12:43.000Z</time>
      </trkpt>
      <trkpt lat="43.62328" lon="6.03518">
        <ele>575</ele>
        <time>2026-02-10T11:12:45.000Z</time>
      </trkpt>
      <trkpt lat="43.62328" lon="6.03519">
        <ele>575</ele>
        <time>2026-02-10T11:12:46.000Z</time>
      </trkpt>
      <trkpt lat="43.62328" lon="6.03521">
        <ele>575</ele>
        <time>2026-02-10T11:12:48.000Z</time>
      </trkpt>
      <trkpt lat="43.62327" lon="6.03522">
        <ele>576</ele>
        <time>2026-02-10T11:13:00.000Z</time>
      </trkpt>
      <trkpt lat="43.62327" lon="6.03524">
        <ele>576</ele>
        <time>2026-02-10T11:13:02.000Z</time>
      </trkpt>
      <trkpt lat="43.62327" lon="6.03526">
        <ele>575</ele>
        <time>2026-02-10T11:13:04.000Z</time>
      </trkpt>
      <trkpt lat="43.62326" lon="6.03527">
        <ele>575</ele>
        <time>2026-02-10T11:13:05.000Z</time>
      </trkpt>
      <trkpt lat="43.62326" lon="6.03528">
        <ele>575</ele>
        <time>2026-02-10T11:13:06.000Z</time>
      </trkpt>
      <trkpt lat="43.62326" lon="6.0353">
        <ele>575</ele>
        <time>2026-02-10T11:13:08.000Z</time>
      </trkpt>
      <trkpt lat="43.62325" lon="6.03531">
        <ele>575</ele>
        <time>2026-02-10T11:13:09.000Z</time>
      </trkpt>
      <trkpt lat="43.62325" lon="6.03533">
        <ele>575</ele>
        <time>2026-02-10T11:13:11.000Z</time>
      </trkpt>
      <trkpt lat="43.62325" lon="6.03534">
        <ele>575</ele>
        <time>2026-02-10T11:13:12.000Z</time>
      </trkpt>
      <trkpt lat="43.62324" lon="6.03536">
        <ele>576</ele>
        <time>2026-02-10T11:13:24.000Z</time>
      </trkpt>
      <trkpt lat="43.62324" lon="6.03537">
        <ele>576</ele>
        <time>2026-02-10T11:13:25.000Z</time>
      </trkpt>
      <trkpt lat="43.62324" lon="6.03538">
        <ele>576</ele>
        <time>2026-02-10T11:13:26.000Z</time>
      </trkpt>
      <trkpt lat="43.62323" lon="6.0354">
        <ele>576</ele>
        <time>2026-02-10T11:13:28.000Z</time>
      </trkpt>
      <trkpt lat="43.62323" lon="6.03542">
        <ele>576</ele>
        <time>2026-02-10T11:13:30.000Z</time>
      </trkpt>
      <trkpt lat="43.62322" lon="6.03543">
        <ele>576</ele>
        <time>2026-02-10T11:13:31.000Z</time>
      </trkpt>
      <trkpt lat="43.62322" lon="6.03545">
        <ele>576</ele>
        <time>2026-02-10T11:13:33.000Z</time>
      </trkpt>
      <trkpt lat="43.62322" lon="6.03547">
        <ele>576</ele>
        <time>2026-02-10T11:13:35.000Z</time>
      </trkpt>
      <trkpt lat="43.62322" lon="6.03548">
        <ele>576</ele>
        <time>2026-02-10T11:13:36.000Z</time>
      </trkpt>
      <trkpt lat="43.62321" lon="6.0355">
        <ele>576</ele>
        <time>2026-02-10T11:13:38.000Z</time>
      </trkpt>
      <trkpt lat="43.62321" lon="6.03551">
        <ele>576</ele>
        <time>2026-02-10T11:13:39.000Z</time>
      </trkpt>
      <trkpt lat="43.6232" lon="6.03553">
        <ele>576</ele>
        <time>2026-02-10T11:13:41.000Z</time>
      </trkpt>
      <trkpt lat="43.6232" lon="6.03554">
        <ele>576</ele>
        <time>2026-02-10T11:13:42.000Z</time>
      </trkpt>
      <trkpt lat="43.6232" lon="6.03556">
        <ele>576</ele>
        <time>2026-02-10T11:13:44.000Z</time>
      </trkpt>
      <trkpt lat="43.6232" lon="6.03558">
        <ele>576</ele>
        <time>2026-02-10T11:13:46.000Z</time>
      </trkpt>
      <trkpt lat="43.62319" lon="6.03559">
        <ele>576</ele>
        <time>2026-02-10T11:13:47.000Z</time>
      </trkpt>
      <trkpt lat="43.62319" lon="6.03561">
        <ele>576</ele>
        <time>2026-02-10T11:13:49.000Z</time>
      </trkpt>
      <trkpt lat="43.62319" lon="6.03562">
        <ele>576</ele>
        <time>2026-02-10T11:13:50.000Z</time>
      </trkpt>
      <trkpt lat="43.62318" lon="6.03564">
        <ele>576</ele>
        <time>2026-02-10T11:13:52.000Z</time>
      </trkpt>
      <trkpt lat="43.62318" lon="6.03565">
        <ele>576</ele>
        <time>2026-02-10T11:13:53.000Z</time>
      </trkpt>
      <trkpt lat="43.62318" lon="6.03567">
        <ele>576</ele>
        <time>2026-02-10T11:13:55.000Z</time>
      </trkpt>
      <trkpt lat="43.62317" lon="6.03568">
        <ele>576</ele>
        <time>2026-02-10T11:13:56.000Z</time>
      </trkpt>
      <trkpt lat="43.62317" lon="6.0357">
        <ele>576</ele>
        <time>2026-02-10T11:13:58.000Z</time>
      </trkpt>
      <trkpt lat="43.62317" lon="6.03571">
        <ele>576</ele>
        <time>2026-02-10T11:13:59.000Z</time>
      </trkpt>
      <trkpt lat="43.62316" lon="6.03573">
        <ele>576</ele>
        <time>2026-02-10T11:14:01.000Z</time>
      </trkpt>
      <trkpt lat="43.62316" lon="6.03574">
        <ele>576</ele>
        <time>2026-02-10T11:14:02.000Z</time>
      </trkpt>
      <trkpt lat="43.62315" lon="6.03576">
        <ele>576</ele>
        <time>2026-02-10T11:14:04.000Z</time>
      </trkpt>
      <trkpt lat="43.62315" lon="6.03578">
        <ele>577</ele>
        <time>2026-02-10T11:14:16.000Z</time>
      </trkpt>
      <trkpt lat="43.62314" lon="6.03579">
        <ele>577</ele>
        <time>2026-02-10T11:14:17.000Z</time>
      </trkpt>
      <trkpt lat="43.62314" lon="6.03581">
        <ele>577</ele>
        <time>2026-02-10T11:14:19.000Z</time>
      </trkpt>
      <trkpt lat="43.62314" lon="6.03582">
        <ele>576</ele>
        <time>2026-02-10T11:14:20.000Z</time>
      </trkpt>
      <trkpt lat="43.62313" lon="6.03584">
        <ele>576</ele>
        <time>2026-02-10T11:14:22.000Z</time>
      </trkpt>
      <trkpt lat="43.62313" lon="6.03586">
        <ele>576</ele>
        <time>2026-02-10T11:14:24.000Z</time>
      </trkpt>
      <trkpt lat="43.62313" lon="6.03587">
        <ele>576</ele>
        <time>2026-02-10T11:14:25.000Z</time>
      </trkpt>
      <trkpt lat="43.62312" lon="6.03588">
        <ele>576</ele>
        <time>2026-02-10T11:14:26.000Z</time>
      </trkpt>
      <trkpt lat="43.62312" lon="6.0359">
        <ele>576</ele>
        <time>2026-02-10T11:14:28.000Z</time>
      </trkpt>
      <trkpt lat="43.62311" lon="6.03592">
        <ele>577</ele>
        <time>2026-02-10T11:14:40.000Z</time>
      </trkpt>
      <trkpt lat="43.62311" lon="6.03594">
        <ele>577</ele>
        <time>2026-02-10T11:14:42.000Z</time>
      </trkpt>
      <trkpt lat="43.62311" lon="6.03595">
        <ele>577</ele>
        <time>2026-02-10T11:14:43.000Z</time>
      </trkpt>
      <trkpt lat="43.6231" lon="6.03597">
        <ele>577</ele>
        <time>2026-02-10T11:14:45.000Z</time>
      </trkpt>
      <trkpt lat="43.6231" lon="6.03598">
        <ele>577</ele>
        <time>2026-02-10T11:14:46.000Z</time>
      </trkpt>
      <trkpt lat="43.6231" lon="6.03599">
        <ele>577</ele>
        <time>2026-02-10T11:14:47.000Z</time>
      </trkpt>
      <trkpt lat="43.62309" lon="6.03601">
        <ele>577</ele>
        <time>2026-02-10T11:14:49.000Z</time>
      </trkpt>
      <trkpt lat="43.62309" lon="6.03602">
        <ele>577</ele>
        <time>2026-02-10T11:14:50.000Z</time>
      </trkpt>
      <trkpt lat="43.62308" lon="6.03604">
        <ele>577</ele>
        <time>2026-02-10T11:14:52.000Z</time>
      </trkpt>
      <trkpt lat="43.62308" lon="6.03605">
        <ele>577</ele>
        <time>2026-02-10T11:14:53.000Z</time>
      </trkpt>
      <trkpt lat="43.62308" lon="6.03607">
        <ele>577</ele>
        <time>2026-02-10T11:14:55.000Z</time>
      </trkpt>
      <trkpt lat="43.62307" lon="6.03608">
        <ele>577</ele>
        <time>2026-02-10T11:14:56.000Z</time>
      </trkpt>
      <trkpt lat="43.62307" lon="6.03609">
        <ele>577</ele>
        <time>2026-02-10T11:14:57.000Z</time>
      </trkpt>
      <trkpt lat="43.62307" lon="6.03611">
        <ele>577</ele>
        <time>2026-02-10T11:14:59.000Z</time>
      </trkpt>
      <trkpt lat="43.62306" lon="6.03612">
        <ele>577</ele>
        <time>2026-02-10T11:15:00.000Z</time>
      </trkpt>
      <trkpt lat="43.62306" lon="6.03614">
        <ele>577</ele>
        <time>2026-02-10T11:15:02.000Z</time>
      </trkpt>
      <trkpt lat="43.62305" lon="6.03616">
        <ele>577</ele>
        <time>2026-02-10T11:15:04.000Z</time>
      </trkpt>
      <trkpt lat="43.62305" lon="6.03617">
        <ele>577</ele>
        <time>2026-02-10T11:15:05.000Z</time>
      </trkpt>
      <trkpt lat="43.62305" lon="6.03619">
        <ele>577</ele>
        <time>2026-02-10T11:15:07.000Z</time>
      </trkpt>
      <trkpt lat="43.62304" lon="6.0362">
        <ele>577</ele>
        <time>2026-02-10T11:15:08.000Z</time>
      </trkpt>
      <trkpt lat="43.62304" lon="6.03622">
        <ele>577</ele>
        <time>2026-02-10T11:15:10.000Z</time>
      </trkpt>
      <trkpt lat="43.62304" lon="6.03623">
        <ele>577</ele>
        <time>2026-02-10T11:15:11.000Z</time>
      </trkpt>
      <trkpt lat="43.62303" lon="6.03625">
        <ele>577</ele>
        <time>2026-02-10T11:15:13.000Z</time>
      </trkpt>
      <trkpt lat="43.62303" lon="6.03626">
        <ele>577</ele>
        <time>2026-02-10T11:15:14.000Z</time>
      </trkpt>
      <trkpt lat="43.62302" lon="6.03628">
        <ele>577</ele>
        <time>2026-02-10T11:15:16.000Z</time>
      </trkpt>
      <trkpt lat="43.62302" lon="6.0363">
        <ele>577</ele>
        <time>2026-02-10T11:15:18.000Z</time>
      </trkpt>
      <trkpt lat="43.62302" lon="6.03631">
        <ele>577</ele>
        <time>2026-02-10T11:15:19.000Z</time>
      </trkpt>
      <trkpt lat="43.62302" lon="6.03633">
        <ele>577</ele>
        <time>2026-02-10T11:15:21.000Z</time>
      </trkpt>
      <trkpt lat="43.62301" lon="6.03634">
        <ele>577</ele>
        <time>2026-02-10T11:15:22.000Z</time>
      </trkpt>
      <trkpt lat="43.62301" lon="6.03636">
        <ele>577</ele>
        <time>2026-02-10T11:15:24.000Z</time>
      </trkpt>
      <trkpt lat="43.623" lon="6.03637">
        <ele>578</ele>
        <time>2026-02-10T11:15:36.000Z</time>
      </trkpt>
      <trkpt lat="43.623" lon="6.03639">
        <ele>578</ele>
        <time>2026-02-10T11:15:38.000Z</time>
      </trkpt>
      <trkpt lat="43.62299" lon="6.0364">
        <ele>578</ele>
        <time>2026-02-10T11:15:39.000Z</time>
      </trkpt>
      <trkpt lat="43.62299" lon="6.03642">
        <ele>578</ele>
        <time>2026-02-10T11:15:41.000Z</time>
      </trkpt>
      <trkpt lat="43.62298" lon="6.03643">
        <ele>578</ele>
        <time>2026-02-10T11:15:42.000Z</time>
      </trkpt>
      <trkpt lat="43.62298" lon="6.03644">
        <ele>578</ele>
        <time>2026-02-10T11:15:43.000Z</time>
      </trkpt>
      <trkpt lat="43.62298" lon="6.03646">
        <ele>578</ele>
        <time>2026-02-10T11:15:45.000Z</time>
      </trkpt>
      <trkpt lat="43.62297" lon="6.03647">
        <ele>578</ele>
        <time>2026-02-10T11:15:46.000Z</time>
      </trkpt>
      <trkpt lat="43.62297" lon="6.03648">
        <ele>578</ele>
        <time>2026-02-10T11:15:47.000Z</time>
      </trkpt>
      <trkpt lat="43.62296" lon="6.0365">
        <ele>578</ele>
        <time>2026-02-10T11:15:49.000Z</time>
      </trkpt>
      <trkpt lat="43.62295" lon="6.03651">
        <ele>578</ele>
        <time>2026-02-10T11:15:50.000Z</time>
      </trkpt>
      <trkpt lat="43.62295" lon="6.03652">
        <ele>578</ele>
        <time>2026-02-10T11:15:51.000Z</time>
      </trkpt>
      <trkpt lat="43.62294" lon="6.03652">
        <ele>578</ele>
        <time>2026-02-10T11:15:52.000Z</time>
      </trkpt>
      <trkpt lat="43.62294" lon="6.03653">
        <ele>578</ele>
        <time>2026-02-10T11:15:53.000Z</time>
      </trkpt>
      <trkpt lat="43.62294" lon="6.03653">
        <ele>578</ele>
        <time>2026-02-10T11:15:53.000Z</time>
      </trkpt>
      <trkpt lat="43.62294" lon="6.03653">
        <ele>578</ele>
        <time>2026-02-10T11:15:53.000Z</time>
      </trkpt>
      <trkpt lat="43.62293" lon="6.03654">
        <ele>578</ele>
        <time>2026-02-10T11:15:54.000Z</time>
      </trkpt>
      <trkpt lat="43.62293" lon="6.03655">
        <ele>578</ele>
        <time>2026-02-10T11:15:55.000Z</time>
      </trkpt>
      <trkpt lat="43.62293" lon="6.03655">
        <ele>578</ele>
        <time>2026-02-10T11:15:55.000Z</time>
      </trkpt>
      <trkpt lat="43.62292" lon="6.03655">
        <ele>578</ele>
        <time>2026-02-10T11:15:56.000Z</time>
      </trkpt>
      <trkpt lat="43.62292" lon="6.03656">
        <ele>578</ele>
        <time>2026-02-10T11:15:57.000Z</time>
      </trkpt>
      <trkpt lat="43.62292" lon="6.03656">
        <ele>578</ele>
        <time>2026-02-10T11:15:57.000Z</time>
      </trkpt>
      <trkpt lat="43.62292" lon="6.03656">
        <ele>578</ele>
        <time>2026-02-10T11:15:57.000Z</time>
      </trkpt>
      <trkpt lat="43.62292" lon="6.03656">
        <ele>578</ele>
        <time>2026-02-10T11:15:57.000Z</time>
      </trkpt>
      <trkpt lat="43.62292" lon="6.03657">
        <ele>578</ele>
        <time>2026-02-10T11:15:58.000Z</time>
      </trkpt>
      <trkpt lat="43.62292" lon="6.03657">
        <ele>578</ele>
        <time>2026-02-10T11:15:58.000Z</time>
      </trkpt>
      <trkpt lat="43.62291" lon="6.03657">
        <ele>578</ele>
        <time>2026-02-10T11:15:59.000Z</time>
      </trkpt>
      <trkpt lat="43.62291" lon="6.03657">
        <ele>578</ele>
        <time>2026-02-10T11:15:59.000Z</time>
      </trkpt>
      <trkpt lat="43.62291" lon="6.03657">
        <ele>578</ele>
        <time>2026-02-10T11:15:59.000Z</time>
      </trkpt>
      <trkpt lat="43.6229" lon="6.03658">
        <ele>578</ele>
        <time>2026-02-10T11:16:00.000Z</time>
      </trkpt>
      <trkpt lat="43.6229" lon="6.03658">
        <ele>578</ele>
        <time>2026-02-10T11:16:00.000Z</time>
      </trkpt>
      <trkpt lat="43.6229" lon="6.03659">
        <ele>578</ele>
        <time>2026-02-10T11:16:01.000Z</time>
      </trkpt>
      <trkpt lat="43.62289" lon="6.03659">
        <ele>578</ele>
        <time>2026-02-10T11:16:02.000Z</time>
      </trkpt>
      <trkpt lat="43.62289" lon="6.0366">
        <ele>578</ele>
        <time>2026-02-10T11:16:03.000Z</time>
      </trkpt>
      <trkpt lat="43.62288" lon="6.03661">
        <ele>578</ele>
        <time>2026-02-10T11:16:04.000Z</time>
      </trkpt>
      <trkpt lat="43.62288" lon="6.03662">
        <ele>578</ele>
        <time>2026-02-10T11:16:05.000Z</time>
      </trkpt>
      <trkpt lat="43.62287" lon="6.03663">
        <ele>578</ele>
        <time>2026-02-10T11:16:06.000Z</time>
      </trkpt>
      <trkpt lat="43.62287" lon="6.03664">
        <ele>578</ele>
        <time>2026-02-10T11:16:07.000Z</time>
      </trkpt>
      <trkpt lat="43.62286" lon="6.03665">
        <ele>578</ele>
        <time>2026-02-10T11:16:08.000Z</time>
      </trkpt>
      <trkpt lat="43.62286" lon="6.03666">
        <ele>578</ele>
        <time>2026-02-10T11:16:09.000Z</time>
      </trkpt>
      <trkpt lat="43.62285" lon="6.03667">
        <ele>578</ele>
        <time>2026-02-10T11:16:10.000Z</time>
      </trkpt>
      <trkpt lat="43.62285" lon="6.03668">
        <ele>578</ele>
        <time>2026-02-10T11:16:11.000Z</time>
      </trkpt>
      <trkpt lat="43.62284" lon="6.03669">
        <ele>578</ele>
        <time>2026-02-10T11:16:12.000Z</time>
      </trkpt>
      <trkpt lat="43.62283" lon="6.0367">
        <ele>579</ele>
        <time>2026-02-10T11:16:24.000Z</time>
      </trkpt>
      <trkpt lat="43.62283" lon="6.03671">
        <ele>579</ele>
        <time>2026-02-10T11:16:25.000Z</time>
      </trkpt>
      <trkpt lat="43.62282" lon="6.03672">
        <ele>579</ele>
        <time>2026-02-10T11:16:26.000Z</time>
      </trkpt>
      <trkpt lat="43.62282" lon="6.03674">
        <ele>579</ele>
        <time>2026-02-10T11:16:28.000Z</time>
      </trkpt>
      <trkpt lat="43.62281" lon="6.03675">
        <ele>579</ele>
        <time>2026-02-10T11:16:29.000Z</time>
      </trkpt>
      <trkpt lat="43.62281" lon="6.03676">
        <ele>579</ele>
        <time>2026-02-10T11:16:30.000Z</time>
      </trkpt>
      <trkpt lat="43.6228" lon="6.03678">
        <ele>579</ele>
        <time>2026-02-10T11:16:32.000Z</time>
      </trkpt>
      <trkpt lat="43.62279" lon="6.03679">
        <ele>579</ele>
        <time>2026-02-10T11:16:33.000Z</time>
      </trkpt>
      <trkpt lat="43.62279" lon="6.0368">
        <ele>579</ele>
        <time>2026-02-10T11:16:34.000Z</time>
      </trkpt>
      <trkpt lat="43.62279" lon="6.03682">
        <ele>579</ele>
        <time>2026-02-10T11:16:36.000Z</time>
      </trkpt>
      <trkpt lat="43.62278" lon="6.03683">
        <ele>579</ele>
        <time>2026-02-10T11:16:37.000Z</time>
      </trkpt>
      <trkpt lat="43.62278" lon="6.03685">
        <ele>579</ele>
        <time>2026-02-10T11:16:39.000Z</time>
      </trkpt>
      <trkpt lat="43.62277" lon="6.03686">
        <ele>579</ele>
        <time>2026-02-10T11:16:40.000Z</time>
      </trkpt>
      <trkpt lat="43.62277" lon="6.03687">
        <ele>579</ele>
        <time>2026-02-10T11:16:41.000Z</time>
      </trkpt>
      <trkpt lat="43.62276" lon="6.03689">
        <ele>579</ele>
        <time>2026-02-10T11:16:43.000Z</time>
      </trkpt>
      <trkpt lat="43.62276" lon="6.0369">
        <ele>579</ele>
        <time>2026-02-10T11:16:44.000Z</time>
      </trkpt>
      <trkpt lat="43.62275" lon="6.03692">
        <ele>579</ele>
        <time>2026-02-10T11:16:46.000Z</time>
      </trkpt>
      <trkpt lat="43.62275" lon="6.03693">
        <ele>579</ele>
        <time>2026-02-10T11:16:47.000Z</time>
      </trkpt>
      <trkpt lat="43.62274" lon="6.03694">
        <ele>579</ele>
        <time>2026-02-10T11:16:48.000Z</time>
      </trkpt>
      <trkpt lat="43.62274" lon="6.03696">
        <ele>579</ele>
        <time>2026-02-10T11:16:50.000Z</time>
      </trkpt>
      <trkpt lat="43.62273" lon="6.03697">
        <ele>579</ele>
        <time>2026-02-10T11:16:51.000Z</time>
      </trkpt>
      <trkpt lat="43.62273" lon="6.03699">
        <ele>579</ele>
        <time>2026-02-10T11:16:53.000Z</time>
      </trkpt>
      <trkpt lat="43.62272" lon="6.037">
        <ele>579</ele>
        <time>2026-02-10T11:16:54.000Z</time>
      </trkpt>
      <trkpt lat="43.62272" lon="6.03701">
        <ele>579</ele>
        <time>2026-02-10T11:16:55.000Z</time>
      </trkpt>
      <trkpt lat="43.62271" lon="6.03702">
        <ele>579</ele>
        <time>2026-02-10T11:16:56.000Z</time>
      </trkpt>
      <trkpt lat="43.62271" lon="6.03704">
        <ele>579</ele>
        <time>2026-02-10T11:16:58.000Z</time>
      </trkpt>
      <trkpt lat="43.62271" lon="6.03704">
        <ele>579</ele>
        <time>2026-02-10T11:16:58.000Z</time>
      </trkpt>
      <trkpt lat="43.62271" lon="6.03705">
        <ele>579</ele>
        <time>2026-02-10T11:16:59.000Z</time>
      </trkpt>
      <trkpt lat="43.62271" lon="6.03706">
        <ele>579</ele>
        <time>2026-02-10T11:17:00.000Z</time>
      </trkpt>
      <trkpt lat="43.6227" lon="6.03707">
        <ele>579</ele>
        <time>2026-02-10T11:17:01.000Z</time>
      </trkpt>
      <trkpt lat="43.6227" lon="6.03708">
        <ele>579</ele>
        <time>2026-02-10T11:17:02.000Z</time>
      </trkpt>
      <trkpt lat="43.6227" lon="6.03709">
        <ele>579</ele>
        <time>2026-02-10T11:17:03.000Z</time>
      </trkpt>
      <trkpt lat="43.62269" lon="6.0371">
        <ele>579</ele>
        <time>2026-02-10T11:17:04.000Z</time>
      </trkpt>
      <trkpt lat="43.62269" lon="6.03711">
        <ele>579</ele>
        <time>2026-02-10T11:17:05.000Z</time>
      </trkpt>
      <trkpt lat="43.62269" lon="6.03712">
        <ele>579</ele>
        <time>2026-02-10T11:17:06.000Z</time>
      </trkpt>
      <trkpt lat="43.62269" lon="6.03712">
        <ele>579</ele>
        <time>2026-02-10T11:17:06.000Z</time>
      </trkpt>
      <trkpt lat="43.62268" lon="6.03713">
        <ele>579</ele>
        <time>2026-02-10T11:17:07.000Z</time>
      </trkpt>
      <trkpt lat="43.62268" lon="6.03714">
        <ele>579</ele>
        <time>2026-02-10T11:17:08.000Z</time>
      </trkpt>
      <trkpt lat="43.62268" lon="6.03714">
        <ele>579</ele>
        <time>2026-02-10T11:17:08.000Z</time>
      </trkpt>
      <trkpt lat="43.62268" lon="6.03715">
        <ele>579</ele>
        <time>2026-02-10T11:17:09.000Z</time>
      </trkpt>
      <trkpt lat="43.62268" lon="6.03714">
        <ele>579</ele>
        <time>2026-02-10T11:17:10.000Z</time>
      </trkpt>
      <trkpt lat="43.62268" lon="6.03715">
        <ele>579</ele>
        <time>2026-02-10T11:17:11.000Z</time>
      </trkpt>
      <trkpt lat="43.62268" lon="6.03715">
        <ele>579</ele>
        <time>2026-02-10T11:17:11.000Z</time>
      </trkpt>
      <trkpt lat="43.62267" lon="6.03715">
        <ele>579</ele>
        <time>2026-02-10T11:17:12.000Z</time>
      </trkpt>
      <trkpt lat="43.62267" lon="6.03715">
        <ele>579</ele>
        <time>2026-02-10T11:17:12.000Z</time>
      </trkpt>
      <trkpt lat="43.62267" lon="6.03715">
        <ele>579</ele>
        <time>2026-02-10T11:17:12.000Z</time>
      </trkpt>
      <trkpt lat="43.62267" lon="6.03715">
        <ele>579</ele>
        <time>2026-02-10T11:17:12.000Z</time>
      </trkpt>
      <trkpt lat="43.62267" lon="6.03715">
        <ele>579</ele>
        <time>2026-02-10T11:17:12.000Z</time>
      </trkpt>
      <trkpt lat="43.62267" lon="6.03715">
        <ele>579</ele>
        <time>2026-02-10T11:17:12.000Z</time>
      </trkpt>
      <trkpt lat="43.62267" lon="6.03715">
        <ele>579</ele>
        <time>2026-02-10T11:17:12.000Z</time>
      </trkpt>
      <trkpt lat="43.62267" lon="6.03716">
        <ele>579</ele>
        <time>2026-02-10T11:17:13.000Z</time>
      </trkpt>
      <trkpt lat="43.62267" lon="6.03716">
        <ele>579</ele>
        <time>2026-02-10T11:17:13.000Z</time>
      </trkpt>
      <trkpt lat="43.62267" lon="6.03716">
        <ele>579</ele>
        <time>2026-02-10T11:17:13.000Z</time>
      </trkpt>
      <trkpt lat="43.62268" lon="6.03717">
        <ele>579</ele>
        <time>2026-02-10T11:17:14.000Z</time>
      </trkpt>
      <trkpt lat="43.62268" lon="6.03717">
        <ele>579</ele>
        <time>2026-02-10T11:17:14.000Z</time>
      </trkpt>
      <trkpt lat="43.62268" lon="6.03717">
        <ele>579</ele>
        <time>2026-02-10T11:17:14.000Z</time>
      </trkpt>
      <trkpt lat="43.62268" lon="6.03718">
        <ele>579</ele>
        <time>2026-02-10T11:17:15.000Z</time>
      </trkpt>
      <trkpt lat="43.62268" lon="6.03718">
        <ele>579</ele>
        <time>2026-02-10T11:17:15.000Z</time>
      </trkpt>
      <trkpt lat="43.62268" lon="6.03719">
        <ele>579</ele>
        <time>2026-02-10T11:17:16.000Z</time>
      </trkpt>
      <trkpt lat="43.62268" lon="6.03719">
        <ele>579</ele>
        <time>2026-02-10T11:17:16.000Z</time>
      </trkpt>
      <trkpt lat="43.62268" lon="6.03719">
        <ele>579</ele>
        <time>2026-02-10T11:17:16.000Z</time>
      </trkpt>
      <trkpt lat="43.62268" lon="6.0372">
        <ele>579</ele>
        <time>2026-02-10T11:17:17.000Z</time>
      </trkpt>
      <trkpt lat="43.62268" lon="6.0372">
        <ele>579</ele>
        <time>2026-02-10T11:17:17.000Z</time>
      </trkpt>
      <trkpt lat="43.62268" lon="6.0372">
        <ele>579</ele>
        <time>2026-02-10T11:17:17.000Z</time>
      </trkpt>
      <trkpt lat="43.62268" lon="6.03721">
        <ele>579</ele>
        <time>2026-02-10T11:17:18.000Z</time>
      </trkpt>
      <trkpt lat="43.62268" lon="6.03721">
        <ele>579</ele>
        <time>2026-02-10T11:17:18.000Z</time>
      </trkpt>
      <trkpt lat="43.62268" lon="6.03722">
        <ele>579</ele>
        <time>2026-02-10T11:17:19.000Z</time>
      </trkpt>
      <trkpt lat="43.62268" lon="6.03722">
        <ele>579</ele>
        <time>2026-02-10T11:17:19.000Z</time>
      </trkpt>
      <trkpt lat="43.62268" lon="6.03722">
        <ele>579</ele>
        <time>2026-02-10T11:17:19.000Z</time>
      </trkpt>
      <trkpt lat="43.62268" lon="6.03722">
        <ele>579</ele>
        <time>2026-02-10T11:17:19.000Z</time>
      </trkpt>
      <trkpt lat="43.62268" lon="6.03722">
        <ele>579</ele>
        <time>2026-02-10T11:17:19.000Z</time>
      </trkpt>
      <trkpt lat="43.62268" lon="6.03723">
        <ele>579</ele>
        <time>2026-02-10T11:17:20.000Z</time>
      </trkpt>
      <trkpt lat="43.62268" lon="6.03723">
        <ele>579</ele>
        <time>2026-02-10T11:17:20.000Z</time>
      </trkpt>
      <trkpt lat="43.62269" lon="6.03723">
        <ele>579</ele>
        <time>2026-02-10T11:17:21.000Z</time>
      </trkpt>
      <trkpt lat="43.62269" lon="6.03723">
        <ele>579</ele>
        <time>2026-02-10T11:17:21.000Z</time>
      </trkpt>
      <trkpt lat="43.62269" lon="6.03723">
        <ele>579</ele>
        <time>2026-02-10T11:17:21.000Z</time>
      </trkpt>
      <trkpt lat="43.62269" lon="6.03724">
        <ele>579</ele>
        <time>2026-02-10T11:17:22.000Z</time>
      </trkpt>
      <trkpt lat="43.62268" lon="6.03725">
        <ele>579</ele>
        <time>2026-02-10T11:17:23.000Z</time>
      </trkpt>
      <trkpt lat="43.62268" lon="6.03725">
        <ele>579</ele>
        <time>2026-02-10T11:17:23.000Z</time>
      </trkpt>
      <trkpt lat="43.62269" lon="6.03725">
        <ele>579</ele>
        <time>2026-02-10T11:17:24.000Z</time>
      </trkpt>
      <trkpt lat="43.62269" lon="6.03726">
        <ele>579</ele>
        <time>2026-02-10T11:17:25.000Z</time>
      </trkpt>
      <trkpt lat="43.62269" lon="6.03726">
        <ele>579</ele>
        <time>2026-02-10T11:17:25.000Z</time>
      </trkpt>
      <trkpt lat="43.62269" lon="6.03726">
        <ele>579</ele>
        <time>2026-02-10T11:17:25.000Z</time>
      </trkpt>
      <trkpt lat="43.62269" lon="6.03727">
        <ele>579</ele>
        <time>2026-02-10T11:17:26.000Z</time>
      </trkpt>
      <trkpt lat="43.62269" lon="6.03727">
        <ele>579</ele>
        <time>2026-02-10T11:17:26.000Z</time>
      </trkpt>
      <trkpt lat="43.62269" lon="6.03727">
        <ele>579</ele>
        <time>2026-02-10T11:17:26.000Z</time>
      </trkpt>
      <trkpt lat="43.62269" lon="6.03727">
        <ele>579</ele>
        <time>2026-02-10T11:17:26.000Z</time>
      </trkpt>
      <trkpt lat="43.62269" lon="6.03727">
        <ele>579</ele>
        <time>2026-02-10T11:17:26.000Z</time>
      </trkpt>
      <trkpt lat="43.62269" lon="6.03728">
        <ele>579</ele>
        <time>2026-02-10T11:17:27.000Z</time>
      </trkpt>
      <trkpt lat="43.62269" lon="6.03728">
        <ele>579</ele>
        <time>2026-02-10T11:17:27.000Z</time>
      </trkpt>
      <trkpt lat="43.62269" lon="6.03728">
        <ele>579</ele>
        <time>2026-02-10T11:17:27.000Z</time>
      </trkpt>
      <trkpt lat="43.62269" lon="6.03728">
        <ele>579</ele>
        <time>2026-02-10T11:17:27.000Z</time>
      </trkpt>
      <trkpt lat="43.62269" lon="6.03728">
        <ele>579</ele>
        <time>2026-02-10T11:17:27.000Z</time>
      </trkpt>
      <trkpt lat="43.62269" lon="6.03728">
        <ele>579</ele>
        <time>2026-02-10T11:17:27.000Z</time>
      </trkpt>
      <trkpt lat="43.62269" lon="6.03729">
        <ele>579</ele>
        <time>2026-02-10T11:17:28.000Z</time>
      </trkpt>
      <trkpt lat="43.6227" lon="6.03729">
        <ele>579</ele>
        <time>2026-02-10T11:17:29.000Z</time>
      </trkpt>
      <trkpt lat="43.6227" lon="6.03729">
        <ele>579</ele>
        <time>2026-02-10T11:17:29.000Z</time>
      </trkpt>
      <trkpt lat="43.6227" lon="6.03729">
        <ele>579</ele>
        <time>2026-02-10T11:17:29.000Z</time>
      </trkpt>
      <trkpt lat="43.6227" lon="6.03729">
        <ele>579</ele>
        <time>2026-02-10T11:17:29.000Z</time>
      </trkpt>
      <trkpt lat="43.6227" lon="6.03729">
        <ele>579</ele>
        <time>2026-02-10T11:17:29.000Z</time>
      </trkpt>
      <trkpt lat="43.6227" lon="6.03729">
        <ele>579</ele>
        <time>2026-02-10T11:17:29.000Z</time>
      </trkpt>
      <trkpt lat="43.6227" lon="6.0373">
        <ele>579</ele>
        <time>2026-02-10T11:17:30.000Z</time>
      </trkpt>
      <trkpt lat="43.6227" lon="6.0373">
        <ele>579</ele>
        <time>2026-02-10T11:17:30.000Z</time>
      </trkpt>
      <trkpt lat="43.6227" lon="6.0373">
        <ele>579</ele>
        <time>2026-02-10T11:17:30.000Z</time>
      </trkpt>
      <trkpt lat="43.6227" lon="6.0373">
        <ele>579</ele>
        <time>2026-02-10T11:17:30.000Z</time>
      </trkpt>
      <trkpt lat="43.6227" lon="6.0373">
        <ele>579</ele>
        <time>2026-02-10T11:17:30.000Z</time>
      </trkpt>
      <trkpt lat="43.6227" lon="6.0373">
        <ele>579</ele>
        <time>2026-02-10T11:17:30.000Z</time>
      </trkpt>
      <trkpt lat="43.6227" lon="6.0373">
        <ele>579</ele>
        <time>2026-02-10T11:17:30.000Z</time>
      </trkpt>
      <trkpt lat="43.6227" lon="6.03731">
        <ele>579</ele>
        <time>2026-02-10T11:17:31.000Z</time>
      </trkpt>
      <trkpt lat="43.6227" lon="6.03731">
        <ele>579</ele>
        <time>2026-02-10T11:17:31.000Z</time>
      </trkpt>
      <trkpt lat="43.6227" lon="6.03731">
        <ele>579</ele>
        <time>2026-02-10T11:17:31.000Z</time>
      </trkpt>
      <trkpt lat="43.6227" lon="6.03731">
        <ele>579</ele>
        <time>2026-02-10T11:17:31.000Z</time>
      </trkpt>
      <trkpt lat="43.6227" lon="6.03731">
        <ele>579</ele>
        <time>2026-02-10T11:17:31.000Z</time>
      </trkpt>
      <trkpt lat="43.62271" lon="6.03731">
        <ele>579</ele>
        <time>2026-02-10T11:17:32.000Z</time>
      </trkpt>
      <trkpt lat="43.62271" lon="6.03731">
        <ele>579</ele>
        <time>2026-02-10T11:17:32.000Z</time>
      </trkpt>
      <trkpt lat="43.62271" lon="6.03732">
        <ele>579</ele>
        <time>2026-02-10T11:17:33.000Z</time>
      </trkpt>
      <trkpt lat="43.62271" lon="6.03732">
        <ele>579</ele>
        <time>2026-02-10T11:17:33.000Z</time>
      </trkpt>
      <trkpt lat="43.62271" lon="6.03732">
        <ele>579</ele>
        <time>2026-02-10T11:17:33.000Z</time>
      </trkpt>
      <trkpt lat="43.62271" lon="6.03732">
        <ele>579</ele>
        <time>2026-02-10T11:17:33.000Z</time>
      </trkpt>
      <trkpt lat="43.62271" lon="6.03732">
        <ele>579</ele>
        <time>2026-02-10T11:17:33.000Z</time>
      </trkpt>
      <trkpt lat="43.62271" lon="6.03732">
        <ele>579</ele>
        <time>2026-02-10T11:17:33.000Z</time>
      </trkpt>
      <trkpt lat="43.62271" lon="6.03732">
        <ele>579</ele>
        <time>2026-02-10T11:17:33.000Z</time>
      </trkpt>
      <trkpt lat="43.62271" lon="6.03732">
        <ele>579</ele>
        <time>2026-02-10T11:17:33.000Z</time>
      </trkpt>
      <trkpt lat="43.62271" lon="6.03732">
        <ele>579</ele>
        <time>2026-02-10T11:17:33.000Z</time>
      </trkpt>
      <trkpt lat="43.62271" lon="6.03732">
        <ele>579</ele>
        <time>2026-02-10T11:17:33.000Z</time>
      </trkpt>
      <trkpt lat="43.62271" lon="6.03733">
        <ele>579</ele>
        <time>2026-02-10T11:17:34.000Z</time>
      </trkpt>
      <trkpt lat="43.62271" lon="6.03733">
        <ele>579</ele>
        <time>2026-02-10T11:17:34.000Z</time>
      </trkpt>
      <trkpt lat="43.62272" lon="6.03733">
        <ele>579</ele>
        <time>2026-02-10T11:17:35.000Z</time>
      </trkpt>
      <trkpt lat="43.62272" lon="6.03733">
        <ele>579</ele>
        <time>2026-02-10T11:17:35.000Z</time>
      </trkpt>
      <trkpt lat="43.62272" lon="6.03733">
        <ele>579</ele>
        <time>2026-02-10T11:17:35.000Z</time>
      </trkpt>
      <trkpt lat="43.62272" lon="6.03733">
        <ele>579</ele>
        <time>2026-02-10T11:17:35.000Z</time>
      </trkpt>
      <trkpt lat="43.62272" lon="6.03733">
        <ele>579</ele>
        <time>2026-02-10T11:17:35.000Z</time>
      </trkpt>
      <trkpt lat="43.62272" lon="6.03733">
        <ele>579</ele>
        <time>2026-02-10T11:17:35.000Z</time>
      </trkpt>
      <trkpt lat="43.62272" lon="6.03733">
        <ele>579</ele>
        <time>2026-02-10T11:17:35.000Z</time>
      </trkpt>
      <trkpt lat="43.62272" lon="6.03733">
        <ele>579</ele>
        <time>2026-02-10T11:17:35.000Z</time>
      </trkpt>
      <trkpt lat="43.62272" lon="6.03733">
        <ele>579</ele>
        <time>2026-02-10T11:17:35.000Z</time>
      </trkpt>
      <trkpt lat="43.62272" lon="6.03733">
        <ele>579</ele>
        <time>2026-02-10T11:17:35.000Z</time>
      </trkpt>
      <trkpt lat="43.62272" lon="6.03733">
        <ele>579</ele>
        <time>2026-02-10T11:17:35.000Z</time>
      </trkpt>
      <trkpt lat="43.62272" lon="6.03733">
        <ele>579</ele>
        <time>2026-02-10T11:17:35.000Z</time>
      </trkpt>
      <trkpt lat="43.62272" lon="6.03733">
        <ele>579</ele>
        <time>2026-02-10T11:17:35.000Z</time>
      </trkpt>
      <trkpt lat="43.62272" lon="6.03733">
        <ele>579</ele>
        <time>2026-02-10T11:17:35.000Z</time>
      </trkpt>
      <trkpt lat="43.62272" lon="6.03733">
        <ele>579</ele>
        <time>2026-02-10T11:17:35.000Z</time>
      </trkpt>
      <trkpt lat="43.62272" lon="6.03733">
        <ele>579</ele>
        <time>2026-02-10T11:17:35.000Z</time>
      </trkpt>
      <trkpt lat="43.62272" lon="6.03733">
        <ele>579</ele>
        <time>2026-02-10T11:17:35.000Z</time>
      </trkpt>
      <trkpt lat="43.62272" lon="6.03733">
        <ele>579</ele>
        <time>2026-02-10T11:17:35.000Z</time>
      </trkpt>
      <trkpt lat="43.62272" lon="6.03733">
        <ele>579</ele>
        <time>2026-02-10T11:17:35.000Z</time>
      </trkpt>
      <trkpt lat="43.62272" lon="6.03733">
        <ele>579</ele>
        <time>2026-02-10T11:17:35.000Z</time>
      </trkpt>
      <trkpt lat="43.62272" lon="6.03733">
        <ele>579</ele>
        <time>2026-02-10T11:17:35.000Z</time>
      </trkpt>
      <trkpt lat="43.62272" lon="6.03733">
        <ele>579</ele>
        <time>2026-02-10T11:17:35.000Z</time>
      </trkpt>
      <trkpt lat="43.62272" lon="6.03733">
        <ele>579</ele>
        <time>2026-02-10T11:17:35.000Z</time>
      </trkpt>
      <trkpt lat="43.62272" lon="6.03733">
        <ele>579</ele>
        <time>2026-02-10T11:17:35.000Z</time>
      </trkpt>
      <trkpt lat="43.62272" lon="6.03733">
        <ele>579</ele>
        <time>2026-02-10T11:17:35.000Z</time>
      </trkpt>
      <trkpt lat="43.62272" lon="6.03734">
        <ele>579</ele>
        <time>2026-02-10T11:17:36.000Z</time>
      </trkpt>
      <trkpt lat="43.62272" lon="6.03734">
        <ele>579</ele>
        <time>2026-02-10T11:17:36.000Z</time>
      </trkpt>
      <trkpt lat="43.62272" lon="6.03734">
        <ele>579</ele>
        <time>2026-02-10T11:17:36.000Z</time>
      </trkpt>
      <trkpt lat="43.62272" lon="6.03734">
        <ele>579</ele>
        <time>2026-02-10T11:17:36.000Z</time>
      </trkpt>
      <trkpt lat="43.62271" lon="6.03734">
        <ele>579</ele>
        <time>2026-02-10T11:17:37.000Z</time>
      </trkpt>
      <trkpt lat="43.62271" lon="6.03734">
        <ele>579</ele>
        <time>2026-02-10T11:17:37.000Z</time>
      </trkpt>
      <trkpt lat="43.62271" lon="6.03734">
        <ele>579</ele>
        <time>2026-02-10T11:17:37.000Z</time>
      </trkpt>
      <trkpt lat="43.62271" lon="6.03734">
        <ele>579</ele>
        <time>2026-02-10T11:17:37.000Z</time>
      </trkpt>
      <trkpt lat="43.62271" lon="6.03734">
        <ele>579</ele>
        <time>2026-02-10T11:17:37.000Z</time>
      </trkpt>
      <trkpt lat="43.62271" lon="6.03734">
        <ele>579</ele>
        <time>2026-02-10T11:17:37.000Z</time>
      </trkpt>
      <trkpt lat="43.62271" lon="6.03733">
        <ele>579</ele>
        <time>2026-02-10T11:17:38.000Z</time>
      </trkpt>
      <trkpt lat="43.62271" lon="6.03733">
        <ele>579</ele>
        <time>2026-02-10T11:17:38.000Z</time>
      </trkpt>
      <trkpt lat="43.62271" lon="6.03733">
        <ele>579</ele>
        <time>2026-02-10T11:17:38.000Z</time>
      </trkpt>
      <trkpt lat="43.62271" lon="6.03733">
        <ele>579</ele>
        <time>2026-02-10T11:17:38.000Z</time>
      </trkpt>
      <trkpt lat="43.62271" lon="6.03733">
        <ele>579</ele>
        <time>2026-02-10T11:17:38.000Z</time>
      </trkpt>
      <trkpt lat="43.62271" lon="6.03733">
        <ele>579</ele>
        <time>2026-02-10T11:17:38.000Z</time>
      </trkpt>
      <trkpt lat="43.62271" lon="6.03733">
        <ele>579</ele>
        <time>2026-02-10T11:17:38.000Z</time>
      </trkpt>
      <trkpt lat="43.62271" lon="6.03733">
        <ele>579</ele>
        <time>2026-02-10T11:17:38.000Z</time>
      </trkpt>
      <trkpt lat="43.62271" lon="6.03733">
        <ele>579</ele>
        <time>2026-02-10T11:17:38.000Z</time>
      </trkpt>
      <trkpt lat="43.62271" lon="6.03733">
        <ele>579</ele>
        <time>2026-02-10T11:17:38.000Z</time>
      </trkpt>
      <trkpt lat="43.62271" lon="6.03733">
        <ele>579</ele>
        <time>2026-02-10T11:17:38.000Z</time>
      </trkpt>
      <trkpt lat="43.62271" lon="6.03733">
        <ele>579</ele>
        <time>2026-02-10T11:17:38.000Z</time>
      </trkpt>
      <trkpt lat="43.62271" lon="6.03734">
        <ele>579</ele>
        <time>2026-02-10T11:17:39.000Z</time>
      </trkpt>
      <trkpt lat="43.62271" lon="6.03734">
        <ele>579</ele>
        <time>2026-02-10T11:17:39.000Z</time>
      </trkpt>
      <trkpt lat="43.62271" lon="6.03734">
        <ele>579</ele>
        <time>2026-02-10T11:17:39.000Z</time>
      </trkpt>
      <trkpt lat="43.62271" lon="6.03734">
        <ele>579</ele>
        <time>2026-02-10T11:17:39.000Z</time>
      </trkpt>
      <trkpt lat="43.62271" lon="6.03734">
        <ele>579</ele>
        <time>2026-02-10T11:17:39.000Z</time>
      </trkpt>
      <trkpt lat="43.62271" lon="6.03734">
        <ele>579</ele>
        <time>2026-02-10T11:17:39.000Z</time>
      </trkpt>
      <trkpt lat="43.62271" lon="6.03734">
        <ele>579</ele>
        <time>2026-02-10T11:17:39.000Z</time>
      </trkpt>
      <trkpt lat="43.62271" lon="6.03734">
        <ele>579</ele>
        <time>2026-02-10T11:17:39.000Z</time>
      </trkpt>
      <trkpt lat="43.62271" lon="6.03734">
        <ele>579</ele>
        <time>2026-02-10T11:17:39.000Z</time>
      </trkpt>
      <trkpt lat="43.62271" lon="6.03734">
        <ele>579</ele>
        <time>2026-02-10T11:17:39.000Z</time>
      </trkpt>
      <trkpt lat="43.62271" lon="6.03734">
        <ele>579</ele>
        <time>2026-02-10T11:17:39.000Z</time>
      </trkpt>
      <trkpt lat="43.62271" lon="6.03734">
        <ele>579</ele>
        <time>2026-02-10T11:17:39.000Z</time>
      </trkpt>
      <trkpt lat="43.62271" lon="6.03735">
        <ele>579</ele>
        <time>2026-02-10T11:17:40.000Z</time>
      </trkpt>
      <trkpt lat="43.62271" lon="6.03735">
        <ele>579</ele>
        <time>2026-02-10T11:17:40.000Z</time>
      </trkpt>
      <trkpt lat="43.62271" lon="6.03735">
        <ele>579</ele>
        <time>2026-02-10T11:17:40.000Z</time>
      </trkpt>
      <trkpt lat="43.62271" lon="6.03735">
        <ele>579</ele>
        <time>2026-02-10T11:17:40.000Z</time>
      </trkpt>
      <trkpt lat="43.62272" lon="6.03735">
        <ele>579</ele>
        <time>2026-02-10T11:17:41.000Z</time>
      </trkpt>
      <trkpt lat="43.62272" lon="6.03735">
        <ele>579</ele>
        <time>2026-02-10T11:17:41.000Z</time>
      </trkpt>
      <trkpt lat="43.62272" lon="6.03735">
        <ele>579</ele>
        <time>2026-02-10T11:17:41.000Z</time>
      </trkpt>
      <trkpt lat="43.62272" lon="6.03735">
        <ele>579</ele>
        <time>2026-02-10T11:17:41.000Z</time>
      </trkpt>
      <trkpt lat="43.62272" lon="6.03735">
        <ele>579</ele>
        <time>2026-02-10T11:17:41.000Z</time>
      </trkpt>
      <trkpt lat="43.62272" lon="6.03735">
        <ele>579</ele>
        <time>2026-02-10T11:17:41.000Z</time>
      </trkpt>
      <trkpt lat="43.62272" lon="6.03735">
        <ele>579</ele>
        <time>2026-02-10T11:17:41.000Z</time>
      </trkpt>
      <trkpt lat="43.62272" lon="6.03735">
        <ele>579</ele>
        <time>2026-02-10T11:17:41.000Z</time>
      </trkpt>
      <trkpt lat="43.62272" lon="6.03734">
        <ele>579</ele>
        <time>2026-02-10T11:17:42.000Z</time>
      </trkpt>
      <trkpt lat="43.62272" lon="6.03734">
        <ele>579</ele>
        <time>2026-02-10T11:17:42.000Z</time>
      </trkpt>
      <trkpt lat="43.62272" lon="6.03734">
        <ele>579</ele>
        <time>2026-02-10T11:17:42.000Z</time>
      </trkpt>
      <trkpt lat="43.62272" lon="6.03734">
        <ele>579</ele>
        <time>2026-02-10T11:17:42.000Z</time>
      </trkpt>
      <trkpt lat="43.62272" lon="6.03734">
        <ele>579</ele>
        <time>2026-02-10T11:17:42.000Z</time>
      </trkpt>
      <trkpt lat="43.62272" lon="6.03734">
        <ele>579</ele>
        <time>2026-02-10T11:17:42.000Z</time>
      </trkpt>
      <trkpt lat="43.62272" lon="6.03735">
        <ele>579</ele>
        <time>2026-02-10T11:17:43.000Z</time>
      </trkpt>
      <trkpt lat="43.62272" lon="6.03735">
        <ele>579</ele>
        <time>2026-02-10T11:17:43.000Z</time>
      </trkpt>
      <trkpt lat="43.62272" lon="6.03734">
        <ele>579</ele>
        <time>2026-02-10T11:17:44.000Z</time>
      </trkpt>
      <trkpt lat="43.62272" lon="6.03734">
        <ele>579</ele>
        <time>2026-02-10T11:17:44.000Z</time>
      </trkpt>
      <trkpt lat="43.62272" lon="6.03734">
        <ele>579</ele>
        <time>2026-02-10T11:17:44.000Z</time>
      </trkpt>
      <trkpt lat="43.62272" lon="6.03734">
        <ele>579</ele>
        <time>2026-02-10T11:17:44.000Z</time>
      </trkpt>
      <trkpt lat="43.62272" lon="6.03734">
        <ele>579</ele>
        <time>2026-02-10T11:17:44.000Z</time>
      </trkpt>
      <trkpt lat="43.62272" lon="6.03734">
        <ele>579</ele>
        <time>2026-02-10T11:17:44.000Z</time>
      </trkpt>
      <trkpt lat="43.62272" lon="6.03734">
        <ele>579</ele>
        <time>2026-02-10T11:17:44.000Z</time>
      </trkpt>
      <trkpt lat="43.62272" lon="6.03734">
        <ele>579</ele>
        <time>2026-02-10T11:17:44.000Z</time>
      </trkpt>
      <trkpt lat="43.62272" lon="6.03734">
        <ele>579</ele>
        <time>2026-02-10T11:17:44.000Z</time>
      </trkpt>
      <trkpt lat="43.62272" lon="6.03734">
        <ele>579</ele>
        <time>2026-02-10T11:17:44.000Z</time>
      </trkpt>
      <trkpt lat="43.62272" lon="6.03734">
        <ele>579</ele>
        <time>2026-02-10T11:17:44.000Z</time>
      </trkpt>
      <trkpt lat="43.62272" lon="6.03734">
        <ele>579</ele>
        <time>2026-02-10T11:17:44.000Z</time>
      </trkpt>
      <trkpt lat="43.62272" lon="6.03734">
        <ele>579</ele>
        <time>2026-02-10T11:17:44.000Z</time>
      </trkpt>
      <trkpt lat="43.62272" lon="6.03735">
        <ele>579</ele>
        <time>2026-02-10T11:17:45.000Z</time>
      </trkpt>
      <trkpt lat="43.62272" lon="6.03735">
        <ele>579</ele>
        <time>2026-02-10T11:17:45.000Z</time>
      </trkpt>
      <trkpt lat="43.62272" lon="6.03735">
        <ele>579</ele>
        <time>2026-02-10T11:17:45.000Z</time>
      </trkpt>
      <trkpt lat="43.62272" lon="6.03734">
        <ele>579</ele>
        <time>2026-02-10T11:17:46.000Z</time>
      </trkpt>
      <trkpt lat="43.62272" lon="6.03734">
        <ele>579</ele>
        <time>2026-02-10T11:17:46.000Z</time>
      </trkpt>
      <trkpt lat="43.62272" lon="6.03734">
        <ele>579</ele>
        <time>2026-02-10T11:17:46.000Z</time>
      </trkpt>
      <trkpt lat="43.62272" lon="6.03734">
        <ele>579</ele>
        <time>2026-02-10T11:17:46.000Z</time>
      </trkpt>
      <trkpt lat="43.62272" lon="6.03734">
        <ele>579</ele>
        <time>2026-02-10T11:17:46.000Z</time>
      </trkpt>
      <trkpt lat="43.62272" lon="6.03734">
        <ele>579</ele>
        <time>2026-02-10T11:17:46.000Z</time>
      </trkpt>
      <trkpt lat="43.62272" lon="6.03734">
        <ele>579</ele>
        <time>2026-02-10T11:17:46.000Z</time>
      </trkpt>
      <trkpt lat="43.62272" lon="6.03735">
        <ele>579</ele>
        <time>2026-02-10T11:17:47.000Z</time>
      </trkpt>
      <trkpt lat="43.62272" lon="6.03735">
        <ele>579</ele>
        <time>2026-02-10T11:17:47.000Z</time>
      </trkpt>
      <trkpt lat="43.62272" lon="6.03735">
        <ele>579</ele>
        <time>2026-02-10T11:17:47.000Z</time>
      </trkpt>
      <trkpt lat="43.62272" lon="6.03735">
        <ele>579</ele>
        <time>2026-02-10T11:17:47.000Z</time>
      </trkpt>
      <trkpt lat="43.62272" lon="6.03735">
        <ele>579</ele>
        <time>2026-02-10T11:17:47.000Z</time>
      </trkpt>
      <trkpt lat="43.62272" lon="6.03735">
        <ele>579</ele>
        <time>2026-02-10T11:17:47.000Z</time>
      </trkpt>
      <trkpt lat="43.62272" lon="6.03735">
        <ele>579</ele>
        <time>2026-02-10T11:17:47.000Z</time>
      </trkpt>
      <trkpt lat="43.62272" lon="6.03735">
        <ele>579</ele>
        <time>2026-02-10T11:17:47.000Z</time>
      </trkpt>
      <trkpt lat="43.62272" lon="6.03735">
        <ele>579</ele>
        <time>2026-02-10T11:17:47.000Z</time>
      </trkpt>
      <trkpt lat="43.62272" lon="6.03735">
        <ele>579</ele>
        <time>2026-02-10T11:17:47.000Z</time>
      </trkpt>
      <trkpt lat="43.62272" lon="6.03735">
        <ele>579</ele>
        <time>2026-02-10T11:17:47.000Z</time>
      </trkpt>
      <trkpt lat="43.62272" lon="6.03735">
        <ele>579</ele>
        <time>2026-02-10T11:17:47.000Z</time>
      </trkpt>
      <trkpt lat="43.62272" lon="6.03735">
        <ele>579</ele>
        <time>2026-02-10T11:17:47.000Z</time>
      </trkpt>
      <trkpt lat="43.62272" lon="6.03735">
        <ele>579</ele>
        <time>2026-02-10T11:17:47.000Z</time>
      </trkpt>
      <trkpt lat="43.62272" lon="6.03735">
        <ele>579</ele>
        <time>2026-02-10T11:17:47.000Z</time>
      </trkpt>
      <trkpt lat="43.62272" lon="6.03735">
        <ele>579</ele>
        <time>2026-02-10T11:17:47.000Z</time>
      </trkpt>
      <trkpt lat="43.62272" lon="6.03735">
        <ele>579</ele>
        <time>2026-02-10T11:17:47.000Z</time>
      </trkpt>
      <trkpt lat="43.62272" lon="6.03735">
        <ele>579</ele>
        <time>2026-02-10T11:17:47.000Z</time>
      </trkpt>
      <trkpt lat="43.62272" lon="6.03734">
        <ele>579</ele>
        <time>2026-02-10T11:17:48.000Z</time>
      </trkpt>
      <trkpt lat="43.62272" lon="6.03734">
        <ele>579</ele>
        <time>2026-02-10T11:17:48.000Z</time>
      </trkpt>
      <trkpt lat="43.62272" lon="6.03734">
        <ele>579</ele>
        <time>2026-02-10T11:17:48.000Z</time>
      </trkpt>
      <trkpt lat="43.62272" lon="6.03734">
        <ele>579</ele>
        <time>2026-02-10T11:17:48.000Z</time>
      </trkpt>
      <trkpt lat="43.62272" lon="6.03734">
        <ele>579</ele>
        <time>2026-02-10T11:17:48.000Z</time>
      </trkpt>
      <trkpt lat="43.62271" lon="6.03734">
        <ele>579</ele>
        <time>2026-02-10T11:17:49.000Z</time>
      </trkpt>
      <trkpt lat="43.62271" lon="6.03733">
        <ele>579</ele>
        <time>2026-02-10T11:17:50.000Z</time>
      </trkpt>
      <trkpt lat="43.62271" lon="6.03733">
        <ele>579</ele>
        <time>2026-02-10T11:17:50.000Z</time>
      </trkpt>
      <trkpt lat="43.62271" lon="6.03733">
        <ele>579</ele>
        <time>2026-02-10T11:17:50.000Z</time>
      </trkpt>
      <trkpt lat="43.62271" lon="6.03733">
        <ele>579</ele>
        <time>2026-02-10T11:17:50.000Z</time>
      </trkpt>
      <trkpt lat="43.62271" lon="6.03733">
        <ele>579</ele>
        <time>2026-02-10T11:17:50.000Z</time>
      </trkpt>
      <trkpt lat="43.62271" lon="6.03733">
        <ele>579</ele>
        <time>2026-02-10T11:17:50.000Z</time>
      </trkpt>
      <trkpt lat="43.62271" lon="6.03733">
        <ele>579</ele>
        <time>2026-02-10T11:17:50.000Z</time>
      </trkpt>
      <trkpt lat="43.62271" lon="6.03734">
        <ele>579</ele>
        <time>2026-02-10T11:17:51.000Z</time>
      </trkpt>
      <trkpt lat="43.62271" lon="6.03734">
        <ele>579</ele>
        <time>2026-02-10T11:17:51.000Z</time>
      </trkpt>
      <trkpt lat="43.62271" lon="6.03734">
        <ele>579</ele>
        <time>2026-02-10T11:17:51.000Z</time>
      </trkpt>
      <trkpt lat="43.6227" lon="6.03734">
        <ele>579</ele>
        <time>2026-02-10T11:17:52.000Z</time>
      </trkpt>
      <trkpt lat="43.6227" lon="6.03734">
        <ele>579</ele>
        <time>2026-02-10T11:17:52.000Z</time>
      </trkpt>
      <trkpt lat="43.6227" lon="6.03734">
        <ele>579</ele>
        <time>2026-02-10T11:17:52.000Z</time>
      </trkpt>
      <trkpt lat="43.6227" lon="6.03734">
        <ele>579</ele>
        <time>2026-02-10T11:17:52.000Z</time>
      </trkpt>
      <trkpt lat="43.6227" lon="6.03734">
        <ele>579</ele>
        <time>2026-02-10T11:17:52.000Z</time>
      </trkpt>
      <trkpt lat="43.6227" lon="6.03734">
        <ele>579</ele>
        <time>2026-02-10T11:17:52.000Z</time>
      </trkpt>
      <trkpt lat="43.6227" lon="6.03734">
        <ele>579</ele>
        <time>2026-02-10T11:17:52.000Z</time>
      </trkpt>
      <trkpt lat="43.62269" lon="6.03734">
        <ele>579</ele>
        <time>2026-02-10T11:17:53.000Z</time>
      </trkpt>
      <trkpt lat="43.62269" lon="6.03734">
        <ele>579</ele>
        <time>2026-02-10T11:17:53.000Z</time>
      </trkpt>
      <trkpt lat="43.62269" lon="6.03734">
        <ele>579</ele>
        <time>2026-02-10T11:17:53.000Z</time>
      </trkpt>
      <trkpt lat="43.62269" lon="6.03735">
        <ele>579</ele>
        <time>2026-02-10T11:17:54.000Z</time>
      </trkpt>
      <trkpt lat="43.62269" lon="6.03735">
        <ele>579</ele>
        <time>2026-02-10T11:17:54.000Z</time>
      </trkpt>
      <trkpt lat="43.62269" lon="6.03735">
        <ele>579</ele>
        <time>2026-02-10T11:17:54.000Z</time>
      </trkpt>
      <trkpt lat="43.62269" lon="6.03735">
        <ele>579</ele>
        <time>2026-02-10T11:17:54.000Z</time>
      </trkpt>
      <trkpt lat="43.62269" lon="6.03735">
        <ele>579</ele>
        <time>2026-02-10T11:17:54.000Z</time>
      </trkpt>
      <trkpt lat="43.62269" lon="6.03735">
        <ele>579</ele>
        <time>2026-02-10T11:17:54.000Z</time>
      </trkpt>
      <trkpt lat="43.62268" lon="6.03735">
        <ele>579</ele>
        <time>2026-02-10T11:17:55.000Z</time>
      </trkpt>
      <trkpt lat="43.62268" lon="6.03735">
        <ele>579</ele>
        <time>2026-02-10T11:17:55.000Z</time>
      </trkpt>
      <trkpt lat="43.62268" lon="6.03735">
        <ele>579</ele>
        <time>2026-02-10T11:17:55.000Z</time>
      </trkpt>
      <trkpt lat="43.62268" lon="6.03735">
        <ele>579</ele>
        <time>2026-02-10T11:17:55.000Z</time>
      </trkpt>
      <trkpt lat="43.62268" lon="6.03735">
        <ele>579</ele>
        <time>2026-02-10T11:17:55.000Z</time>
      </trkpt>
      <trkpt lat="43.62268" lon="6.03735">
        <ele>579</ele>
        <time>2026-02-10T11:17:55.000Z</time>
      </trkpt>
      <trkpt lat="43.62268" lon="6.03735">
        <ele>579</ele>
        <time>2026-02-10T11:17:55.000Z</time>
      </trkpt>
      <trkpt lat="43.62268" lon="6.03735">
        <ele>579</ele>
        <time>2026-02-10T11:17:55.000Z</time>
      </trkpt>
      <trkpt lat="43.62268" lon="6.03735">
        <ele>579</ele>
        <time>2026-02-10T11:17:55.000Z</time>
      </trkpt>
      <trkpt lat="43.62268" lon="6.03735">
        <ele>579</ele>
        <time>2026-02-10T11:17:55.000Z</time>
      </trkpt>
      <trkpt lat="43.62268" lon="6.03735">
        <ele>579</ele>
        <time>2026-02-10T11:17:55.000Z</time>
      </trkpt>
      <trkpt lat="43.62268" lon="6.03735">
        <ele>579</ele>
        <time>2026-02-10T11:17:55.000Z</time>
      </trkpt>
      <trkpt lat="43.62268" lon="6.03735">
        <ele>579</ele>
        <time>2026-02-10T11:17:55.000Z</time>
      </trkpt>
      <trkpt lat="43.62268" lon="6.03735">
        <ele>579</ele>
        <time>2026-02-10T11:17:55.000Z</time>
      </trkpt>
      <trkpt lat="43.62268" lon="6.03735">
        <ele>579</ele>
        <time>2026-02-10T11:17:55.000Z</time>
      </trkpt>
      <trkpt lat="43.62268" lon="6.03735">
        <ele>579</ele>
        <time>2026-02-10T11:17:55.000Z</time>
      </trkpt>
      <trkpt lat="43.62268" lon="6.03735">
        <ele>579</ele>
        <time>2026-02-10T11:17:55.000Z</time>
      </trkpt>
      <trkpt lat="43.62268" lon="6.03735">
        <ele>579</ele>
        <time>2026-02-10T11:17:55.000Z</time>
      </trkpt>
      <trkpt lat="43.62268" lon="6.03735">
        <ele>579</ele>
        <time>2026-02-10T11:17:55.000Z</time>
      </trkpt>
      <trkpt lat="43.62268" lon="6.03735">
        <ele>579</ele>
        <time>2026-02-10T11:17:55.000Z</time>
      </trkpt>
      <trkpt lat="43.62268" lon="6.03735">
        <ele>579</ele>
        <time>2026-02-10T11:17:55.000Z</time>
      </trkpt>
      <trkpt lat="43.62268" lon="6.03735">
        <ele>579</ele>
        <time>2026-02-10T11:17:55.000Z</time>
      </trkpt>
      <trkpt lat="43.62268" lon="6.03735">
        <ele>579</ele>
        <time>2026-02-10T11:17:55.000Z</time>
      </trkpt>
      <trkpt lat="43.62268" lon="6.03735">
        <ele>579</ele>
        <time>2026-02-10T11:17:55.000Z</time>
      </trkpt>
      <trkpt lat="43.62268" lon="6.03735">
        <ele>579</ele>
        <time>2026-02-10T11:17:55.000Z</time>
      </trkpt>
      <trkpt lat="43.62268" lon="6.03735">
        <ele>579</ele>
        <time>2026-02-10T11:17:55.000Z</time>
      </trkpt>
      <trkpt lat="43.62268" lon="6.03735">
        <ele>579</ele>
        <time>2026-02-10T11:17:55.000Z</time>
      </trkpt>
      <trkpt lat="43.62268" lon="6.03735">
        <ele>579</ele>
        <time>2026-02-10T11:17:55.000Z</time>
      </trkpt>
      <trkpt lat="43.62268" lon="6.03735">
        <ele>579</ele>
        <time>2026-02-10T11:17:55.000Z</time>
      </trkpt>
      <trkpt lat="43.62268" lon="6.03734">
        <ele>579</ele>
        <time>2026-02-10T11:17:56.000Z</time>
      </trkpt>
      <trkpt lat="43.62268" lon="6.03734">
        <ele>579</ele>
        <time>2026-02-10T11:17:56.000Z</time>
      </trkpt>
      <trkpt lat="43.62268" lon="6.03734">
        <ele>579</ele>
        <time>2026-02-10T11:17:56.000Z</time>
      </trkpt>
      <trkpt lat="43.62268" lon="6.03734">
        <ele>579</ele>
        <time>2026-02-10T11:17:56.000Z</time>
      </trkpt>
      <trkpt lat="43.62268" lon="6.03734">
        <ele>579</ele>
        <time>2026-02-10T11:17:56.000Z</time>
      </trkpt>
      <trkpt lat="43.62268" lon="6.03734">
        <ele>579</ele>
        <time>2026-02-10T11:17:56.000Z</time>
      </trkpt>
      <trkpt lat="43.62268" lon="6.03734">
        <ele>579</ele>
        <time>2026-02-10T11:17:56.000Z</time>
      </trkpt>
      <trkpt lat="43.62268" lon="6.03734">
        <ele>579</ele>
        <time>2026-02-10T11:17:56.000Z</time>
      </trkpt>
      <trkpt lat="43.62268" lon="6.03734">
        <ele>579</ele>
        <time>2026-02-10T11:17:56.000Z</time>
      </trkpt>
      <trkpt lat="43.62268" lon="6.03733">
        <ele>579</ele>
        <time>2026-02-10T11:17:57.000Z</time>
      </trkpt>
      <trkpt lat="43.62268" lon="6.03733">
        <ele>579</ele>
        <time>2026-02-10T11:17:57.000Z</time>
      </trkpt>
      <trkpt lat="43.62268" lon="6.03733">
        <ele>579</ele>
        <time>2026-02-10T11:17:57.000Z</time>
      </trkpt>
      <trkpt lat="43.62268" lon="6.03733">
        <ele>579</ele>
        <time>2026-02-10T11:17:57.000Z</time>
      </trkpt>
      <trkpt lat="43.62268" lon="6.03733">
        <ele>579</ele>
        <time>2026-02-10T11:17:57.000Z</time>
      </trkpt>
      <trkpt lat="43.62268" lon="6.03733">
        <ele>579</ele>
        <time>2026-02-10T11:17:57.000Z</time>
      </trkpt>
      <trkpt lat="43.62268" lon="6.03733">
        <ele>579</ele>
        <time>2026-02-10T11:17:57.000Z</time>
      </trkpt>
      <trkpt lat="43.62268" lon="6.03733">
        <ele>579</ele>
        <time>2026-02-10T11:17:57.000Z</time>
      </trkpt>
      <trkpt lat="43.62268" lon="6.03733">
        <ele>579</ele>
        <time>2026-02-10T11:17:57.000Z</time>
      </trkpt>
      <trkpt lat="43.62267" lon="6.03734">
        <ele>579</ele>
        <time>2026-02-10T11:17:58.000Z</time>
      </trkpt>
      <trkpt lat="43.62267" lon="6.03734">
        <ele>579</ele>
        <time>2026-02-10T11:17:58.000Z</time>
      </trkpt>
      <trkpt lat="43.62267" lon="6.03734">
        <ele>579</ele>
        <time>2026-02-10T11:17:58.000Z</time>
      </trkpt>
      <trkpt lat="43.62267" lon="6.03734">
        <ele>579</ele>
        <time>2026-02-10T11:17:58.000Z</time>
      </trkpt>
      <trkpt lat="43.62267" lon="6.03734">
        <ele>579</ele>
        <time>2026-02-10T11:17:58.000Z</time>
      </trkpt>
      <trkpt lat="43.62267" lon="6.03734">
        <ele>579</ele>
        <time>2026-02-10T11:17:58.000Z</time>
      </trkpt>
      <trkpt lat="43.62267" lon="6.03734">
        <ele>579</ele>
        <time>2026-02-10T11:17:58.000Z</time>
      </trkpt>
      <trkpt lat="43.62267" lon="6.03733">
        <ele>579</ele>
        <time>2026-02-10T11:17:59.000Z</time>
      </trkpt>
      <trkpt lat="43.62267" lon="6.03734">
        <ele>579</ele>
        <time>2026-02-10T11:18:00.000Z</time>
      </trkpt>
      <trkpt lat="43.62267" lon="6.03734">
        <ele>579</ele>
        <time>2026-02-10T11:18:00.000Z</time>
      </trkpt>
      <trkpt lat="43.62267" lon="6.03733">
        <ele>579</ele>
        <time>2026-02-10T11:18:01.000Z</time>
      </trkpt>
      <trkpt lat="43.62267" lon="6.03733">
        <ele>579</ele>
        <time>2026-02-10T11:18:01.000Z</time>
      </trkpt>
      <trkpt lat="43.62267" lon="6.03733">
        <ele>579</ele>
        <time>2026-02-10T11:18:01.000Z</time>
      </trkpt>
      <trkpt lat="43.62267" lon="6.03733">
        <ele>579</ele>
        <time>2026-02-10T11:18:01.000Z</time>
      </trkpt>
      <trkpt lat="43.62267" lon="6.03733">
        <ele>579</ele>
        <time>2026-02-10T11:18:01.000Z</time>
      </trkpt>
      <trkpt lat="43.62267" lon="6.03733">
        <ele>579</ele>
        <time>2026-02-10T11:18:01.000Z</time>
      </trkpt>
      <trkpt lat="43.62267" lon="6.03733">
        <ele>579</ele>
        <time>2026-02-10T11:18:01.000Z</time>
      </trkpt>
      <trkpt lat="43.62267" lon="6.03733">
        <ele>579</ele>
        <time>2026-02-10T11:18:01.000Z</time>
      </trkpt>
      <trkpt lat="43.62267" lon="6.03732">
        <ele>579</ele>
        <time>2026-02-10T11:18:02.000Z</time>
      </trkpt>
      <trkpt lat="43.62268" lon="6.03732">
        <ele>579</ele>
        <time>2026-02-10T11:18:03.000Z</time>
      </trkpt>
      <trkpt lat="43.62268" lon="6.03732">
        <ele>579</ele>
        <time>2026-02-10T11:18:03.000Z</time>
      </trkpt>
      <trkpt lat="43.62267" lon="6.03732">
        <ele>579</ele>
        <time>2026-02-10T11:18:04.000Z</time>
      </trkpt>
      <trkpt lat="43.62267" lon="6.03732">
        <ele>579</ele>
        <time>2026-02-10T11:18:04.000Z</time>
      </trkpt>
      <trkpt lat="43.62267" lon="6.03732">
        <ele>579</ele>
        <time>2026-02-10T11:18:04.000Z</time>
      </trkpt>
      <trkpt lat="43.62267" lon="6.03732">
        <ele>579</ele>
        <time>2026-02-10T11:18:04.000Z</time>
      </trkpt>
      <trkpt lat="43.62267" lon="6.03732">
        <ele>579</ele>
        <time>2026-02-10T11:18:04.000Z</time>
      </trkpt>
      <trkpt lat="43.62267" lon="6.03732">
        <ele>579</ele>
        <time>2026-02-10T11:18:04.000Z</time>
      </trkpt>
      <trkpt lat="43.62267" lon="6.03733">
        <ele>579</ele>
        <time>2026-02-10T11:18:05.000Z</time>
      </trkpt>
      <trkpt lat="43.62267" lon="6.03732">
        <ele>579</ele>
        <time>2026-02-10T11:18:06.000Z</time>
      </trkpt>
      <trkpt lat="43.62267" lon="6.03732">
        <ele>579</ele>
        <time>2026-02-10T11:18:06.000Z</time>
      </trkpt>
      <trkpt lat="43.62267" lon="6.03733">
        <ele>579</ele>
        <time>2026-02-10T11:18:07.000Z</time>
      </trkpt>
      <trkpt lat="43.62267" lon="6.03733">
        <ele>579</ele>
        <time>2026-02-10T11:18:07.000Z</time>
      </trkpt>
      <trkpt lat="43.62267" lon="6.03733">
        <ele>579</ele>
        <time>2026-02-10T11:18:07.000Z</time>
      </trkpt>
      <trkpt lat="43.62267" lon="6.03733">
        <ele>579</ele>
        <time>2026-02-10T11:18:07.000Z</time>
      </trkpt>
      <trkpt lat="43.62267" lon="6.03733">
        <ele>579</ele>
        <time>2026-02-10T11:18:07.000Z</time>
      </trkpt>
      <trkpt lat="43.62267" lon="6.03733">
        <ele>579</ele>
        <time>2026-02-10T11:18:07.000Z</time>
      </trkpt>
      <trkpt lat="43.62267" lon="6.03733">
        <ele>579</ele>
        <time>2026-02-10T11:18:07.000Z</time>
      </trkpt>
      <trkpt lat="43.62268" lon="6.03733">
        <ele>579</ele>
        <time>2026-02-10T11:18:08.000Z</time>
      </trkpt>
      <trkpt lat="43.62267" lon="6.03733">
        <ele>579</ele>
        <time>2026-02-10T11:18:09.000Z</time>
      </trkpt>
      <trkpt lat="43.62267" lon="6.03733">
        <ele>579</ele>
        <time>2026-02-10T11:18:09.000Z</time>
      </trkpt>
      <trkpt lat="43.62267" lon="6.03733">
        <ele>579</ele>
        <time>2026-02-10T11:18:09.000Z</time>
      </trkpt>
      <trkpt lat="43.62267" lon="6.03734">
        <ele>579</ele>
        <time>2026-02-10T11:18:10.000Z</time>
      </trkpt>
      <trkpt lat="43.62267" lon="6.03734">
        <ele>579</ele>
        <time>2026-02-10T11:18:10.000Z</time>
      </trkpt>
      <trkpt lat="43.62267" lon="6.03734">
        <ele>579</ele>
        <time>2026-02-10T11:18:10.000Z</time>
      </trkpt>
      <trkpt lat="43.62266" lon="6.03734">
        <ele>579</ele>
        <time>2026-02-10T11:18:11.000Z</time>
      </trkpt>
      <trkpt lat="43.62266" lon="6.03734">
        <ele>579</ele>
        <time>2026-02-10T11:18:11.000Z</time>
      </trkpt>
      <trkpt lat="43.62266" lon="6.03734">
        <ele>579</ele>
        <time>2026-02-10T11:18:11.000Z</time>
      </trkpt>
      <trkpt lat="43.62266" lon="6.03734">
        <ele>579</ele>
        <time>2026-02-10T11:18:11.000Z</time>
      </trkpt>
      <trkpt lat="43.62266" lon="6.03735">
        <ele>579</ele>
        <time>2026-02-10T11:18:12.000Z</time>
      </trkpt>
      <trkpt lat="43.62266" lon="6.03735">
        <ele>579</ele>
        <time>2026-02-10T11:18:12.000Z</time>
      </trkpt>
      <trkpt lat="43.62266" lon="6.03735">
        <ele>579</ele>
        <time>2026-02-10T11:18:12.000Z</time>
      </trkpt>
      <trkpt lat="43.62266" lon="6.03735">
        <ele>579</ele>
        <time>2026-02-10T11:18:12.000Z</time>
      </trkpt>
      <trkpt lat="43.62266" lon="6.03735">
        <ele>579</ele>
        <time>2026-02-10T11:18:12.000Z</time>
      </trkpt>
      <trkpt lat="43.62266" lon="6.03736">
        <ele>579</ele>
        <time>2026-02-10T11:18:13.000Z</time>
      </trkpt>
      <trkpt lat="43.62266" lon="6.03736">
        <ele>579</ele>
        <time>2026-02-10T11:18:13.000Z</time>
      </trkpt>
      <trkpt lat="43.62266" lon="6.03736">
        <ele>579</ele>
        <time>2026-02-10T11:18:13.000Z</time>
      </trkpt>
      <trkpt lat="43.62266" lon="6.03736">
        <ele>579</ele>
        <time>2026-02-10T11:18:13.000Z</time>
      </trkpt>
      <trkpt lat="43.62266" lon="6.03736">
        <ele>579</ele>
        <time>2026-02-10T11:18:13.000Z</time>
      </trkpt>
      <trkpt lat="43.62266" lon="6.03736">
        <ele>579</ele>
        <time>2026-02-10T11:18:13.000Z</time>
      </trkpt>
      <trkpt lat="43.62266" lon="6.03736">
        <ele>579</ele>
        <time>2026-02-10T11:18:13.000Z</time>
      </trkpt>
      <trkpt lat="43.62267" lon="6.03736">
        <ele>579</ele>
        <time>2026-02-10T11:18:14.000Z</time>
      </trkpt>
      <trkpt lat="43.62267" lon="6.03736">
        <ele>579</ele>
        <time>2026-02-10T11:18:14.000Z</time>
      </trkpt>
      <trkpt lat="43.62267" lon="6.03736">
        <ele>579</ele>
        <time>2026-02-10T11:18:14.000Z</time>
      </trkpt>
      <trkpt lat="43.62267" lon="6.03736">
        <ele>579</ele>
        <time>2026-02-10T11:18:14.000Z</time>
      </trkpt>
      <trkpt lat="43.62267" lon="6.03736">
        <ele>579</ele>
        <time>2026-02-10T11:18:14.000Z</time>
      </trkpt>
      <trkpt lat="43.62267" lon="6.03736">
        <ele>579</ele>
        <time>2026-02-10T11:18:14.000Z</time>
      </trkpt>
      <trkpt lat="43.62267" lon="6.03736">
        <ele>579</ele>
        <time>2026-02-10T11:18:14.000Z</time>
      </trkpt>
      <trkpt lat="43.62267" lon="6.03736">
        <ele>579</ele>
        <time>2026-02-10T11:18:14.000Z</time>
      </trkpt>
      <trkpt lat="43.62267" lon="6.03736">
        <ele>579</ele>
        <time>2026-02-10T11:18:14.000Z</time>
      </trkpt>
      <trkpt lat="43.62267" lon="6.03736">
        <ele>579</ele>
        <time>2026-02-10T11:18:14.000Z</time>
      </trkpt>
      <trkpt lat="43.62267" lon="6.03736">
        <ele>579</ele>
        <time>2026-02-10T11:18:14.000Z</time>
      </trkpt>
      <trkpt lat="43.62267" lon="6.03736">
        <ele>579</ele>
        <time>2026-02-10T11:18:14.000Z</time>
      </trkpt>
      <trkpt lat="43.62267" lon="6.03736">
        <ele>579</ele>
        <time>2026-02-10T11:18:14.000Z</time>
      </trkpt>
      <trkpt lat="43.62267" lon="6.03736">
        <ele>579</ele>
        <time>2026-02-10T11:18:14.000Z</time>
      </trkpt>
      <trkpt lat="43.62266" lon="6.03737">
        <ele>579</ele>
        <time>2026-02-10T11:18:15.000Z</time>
      </trkpt>
      <trkpt lat="43.62266" lon="6.03737">
        <ele>579</ele>
        <time>2026-02-10T11:18:15.000Z</time>
      </trkpt>
      <trkpt lat="43.62266" lon="6.03737">
        <ele>579</ele>
        <time>2026-02-10T11:18:15.000Z</time>
      </trkpt>
      <trkpt lat="43.62266" lon="6.03736">
        <ele>579</ele>
        <time>2026-02-10T11:18:16.000Z</time>
      </trkpt>
      <trkpt lat="43.62266" lon="6.03737">
        <ele>579</ele>
        <time>2026-02-10T11:18:17.000Z</time>
      </trkpt>
      <trkpt lat="43.62266" lon="6.03736">
        <ele>579</ele>
        <time>2026-02-10T11:18:18.000Z</time>
      </trkpt>
      <trkpt lat="43.62266" lon="6.03736">
        <ele>579</ele>
        <time>2026-02-10T11:18:18.000Z</time>
      </trkpt>
      <trkpt lat="43.62266" lon="6.03736">
        <ele>579</ele>
        <time>2026-02-10T11:18:18.000Z</time>
      </trkpt>
      <trkpt lat="43.62266" lon="6.03736">
        <ele>579</ele>
        <time>2026-02-10T11:18:18.000Z</time>
      </trkpt>
      <trkpt lat="43.62267" lon="6.03736">
        <ele>579</ele>
        <time>2026-02-10T11:18:19.000Z</time>
      </trkpt>
      <trkpt lat="43.62267" lon="6.03736">
        <ele>579</ele>
        <time>2026-02-10T11:18:19.000Z</time>
      </trkpt>
      <trkpt lat="43.62267" lon="6.03736">
        <ele>579</ele>
        <time>2026-02-10T11:18:19.000Z</time>
      </trkpt>
      <trkpt lat="43.62267" lon="6.03736">
        <ele>579</ele>
        <time>2026-02-10T11:18:19.000Z</time>
      </trkpt>
      <trkpt lat="43.62266" lon="6.03736">
        <ele>579</ele>
        <time>2026-02-10T11:18:20.000Z</time>
      </trkpt>
      <trkpt lat="43.62267" lon="6.03737">
        <ele>579</ele>
        <time>2026-02-10T11:18:21.000Z</time>
      </trkpt>
      <trkpt lat="43.62267" lon="6.03737">
        <ele>579</ele>
        <time>2026-02-10T11:18:21.000Z</time>
      </trkpt>
      <trkpt lat="43.62267" lon="6.03737">
        <ele>579</ele>
        <time>2026-02-10T11:18:21.000Z</time>
      </trkpt>
      <trkpt lat="43.62267" lon="6.03737">
        <ele>579</ele>
        <time>2026-02-10T11:18:21.000Z</time>
      </trkpt>
      <trkpt lat="43.62266" lon="6.03737">
        <ele>579</ele>
        <time>2026-02-10T11:18:22.000Z</time>
      </trkpt>
      <trkpt lat="43.62266" lon="6.03737">
        <ele>579</ele>
        <time>2026-02-10T11:18:22.000Z</time>
      </trkpt>
      <trkpt lat="43.62266" lon="6.03737">
        <ele>579</ele>
        <time>2026-02-10T11:18:22.000Z</time>
      </trkpt>
      <trkpt lat="43.62266" lon="6.03737">
        <ele>579</ele>
        <time>2026-02-10T11:18:22.000Z</time>
      </trkpt>
      <trkpt lat="43.62266" lon="6.03737">
        <ele>579</ele>
        <time>2026-02-10T11:18:22.000Z</time>
      </trkpt>
      <trkpt lat="43.62266" lon="6.03737">
        <ele>579</ele>
        <time>2026-02-10T11:18:22.000Z</time>
      </trkpt>
      <trkpt lat="43.62267" lon="6.03737">
        <ele>579</ele>
        <time>2026-02-10T11:18:23.000Z</time>
      </trkpt>
      <trkpt lat="43.62267" lon="6.03737">
        <ele>579</ele>
        <time>2026-02-10T11:18:23.000Z</time>
      </trkpt>
      <trkpt lat="43.62267" lon="6.03737">
        <ele>579</ele>
        <time>2026-02-10T11:18:23.000Z</time>
      </trkpt>
      <trkpt lat="43.62267" lon="6.03737">
        <ele>579</ele>
        <time>2026-02-10T11:18:23.000Z</time>
      </trkpt>
      <trkpt lat="43.62267" lon="6.03737">
        <ele>579</ele>
        <time>2026-02-10T11:18:23.000Z</time>
      </trkpt>
      <trkpt lat="43.62267" lon="6.03737">
        <ele>579</ele>
        <time>2026-02-10T11:18:23.000Z</time>
      </trkpt>
      <trkpt lat="43.62267" lon="6.03737">
        <ele>579</ele>
        <time>2026-02-10T11:18:23.000Z</time>
      </trkpt>
      <trkpt lat="43.62267" lon="6.03737">
        <ele>579</ele>
        <time>2026-02-10T11:18:23.000Z</time>
      </trkpt>
      <trkpt lat="43.62267" lon="6.03737">
        <ele>579</ele>
        <time>2026-02-10T11:18:23.000Z</time>
      </trkpt>
      <trkpt lat="43.62267" lon="6.03737">
        <ele>579</ele>
        <time>2026-02-10T11:18:23.000Z</time>
      </trkpt>
      <trkpt lat="43.62267" lon="6.03737">
        <ele>579</ele>
        <time>2026-02-10T11:18:23.000Z</time>
      </trkpt>
      <trkpt lat="43.62267" lon="6.03737">
        <ele>579</ele>
        <time>2026-02-10T11:18:23.000Z</time>
      </trkpt>
      <trkpt lat="43.62267" lon="6.03737">
        <ele>579</ele>
        <time>2026-02-10T11:18:23.000Z</time>
      </trkpt>
      <trkpt lat="43.62267" lon="6.03737">
        <ele>579</ele>
        <time>2026-02-10T11:18:23.000Z</time>
      </trkpt>
      <trkpt lat="43.62266" lon="6.03737">
        <ele>579</ele>
        <time>2026-02-10T11:18:24.000Z</time>
      </trkpt>
      <trkpt lat="43.62266" lon="6.03737">
        <ele>579</ele>
        <time>2026-02-10T11:18:24.000Z</time>
      </trkpt>
      <trkpt lat="43.62266" lon="6.03737">
        <ele>579</ele>
        <time>2026-02-10T11:18:24.000Z</time>
      </trkpt>
      <trkpt lat="43.62266" lon="6.03737">
        <ele>579</ele>
        <time>2026-02-10T11:18:24.000Z</time>
      </trkpt>
      <trkpt lat="43.62266" lon="6.03737">
        <ele>579</ele>
        <time>2026-02-10T11:18:24.000Z</time>
      </trkpt>
      <trkpt lat="43.62266" lon="6.03737">
        <ele>579</ele>
        <time>2026-02-10T11:18:24.000Z</time>
      </trkpt>
      <trkpt lat="43.62267" lon="6.03737">
        <ele>579</ele>
        <time>2026-02-10T11:18:25.000Z</time>
      </trkpt>
      <trkpt lat="43.62267" lon="6.03737">
        <ele>579</ele>
        <time>2026-02-10T11:18:25.000Z</time>
      </trkpt>
      <trkpt lat="43.62266" lon="6.03737">
        <ele>579</ele>
        <time>2026-02-10T11:18:26.000Z</time>
      </trkpt>
      <trkpt lat="43.62266" lon="6.03737">
        <ele>579</ele>
        <time>2026-02-10T11:18:26.000Z</time>
      </trkpt>
      <trkpt lat="43.62266" lon="6.03738">
        <ele>579</ele>
        <time>2026-02-10T11:18:27.000Z</time>
      </trkpt>
      <trkpt lat="43.62266" lon="6.03738">
        <ele>579</ele>
        <time>2026-02-10T11:18:27.000Z</time>
      </trkpt>
      <trkpt lat="43.62265" lon="6.03738">
        <ele>579</ele>
        <time>2026-02-10T11:18:28.000Z</time>
      </trkpt>
      <trkpt lat="43.62265" lon="6.03739">
        <ele>579</ele>
        <time>2026-02-10T11:18:29.000Z</time>
      </trkpt>
      <trkpt lat="43.62265" lon="6.03739">
        <ele>579</ele>
        <time>2026-02-10T11:18:29.000Z</time>
      </trkpt>
      <trkpt lat="43.62264" lon="6.03739">
        <ele>579</ele>
        <time>2026-02-10T11:18:30.000Z</time>
      </trkpt>
      <trkpt lat="43.62264" lon="6.0374">
        <ele>579</ele>
        <time>2026-02-10T11:18:31.000Z</time>
      </trkpt>
      <trkpt lat="43.62263" lon="6.03741">
        <ele>579</ele>
        <time>2026-02-10T11:18:32.000Z</time>
      </trkpt>
      <trkpt lat="43.62263" lon="6.03742">
        <ele>579</ele>
        <time>2026-02-10T11:18:33.000Z</time>
      </trkpt>
      <trkpt lat="43.62262" lon="6.03743">
        <ele>579</ele>
        <time>2026-02-10T11:18:34.000Z</time>
      </trkpt>
      <trkpt lat="43.62262" lon="6.03744">
        <ele>579</ele>
        <time>2026-02-10T11:18:35.000Z</time>
      </trkpt>
      <trkpt lat="43.62262" lon="6.03745">
        <ele>579</ele>
        <time>2026-02-10T11:18:36.000Z</time>
      </trkpt>
      <trkpt lat="43.62261" lon="6.03745">
        <ele>580</ele>
        <time>2026-02-10T11:18:47.000Z</time>
      </trkpt>
      <trkpt lat="43.62261" lon="6.03746">
        <ele>580</ele>
        <time>2026-02-10T11:18:48.000Z</time>
      </trkpt>
      <trkpt lat="43.6226" lon="6.03747">
        <ele>580</ele>
        <time>2026-02-10T11:18:49.000Z</time>
      </trkpt>
      <trkpt lat="43.6226" lon="6.03748">
        <ele>580</ele>
        <time>2026-02-10T11:18:50.000Z</time>
      </trkpt>
      <trkpt lat="43.62259" lon="6.03749">
        <ele>580</ele>
        <time>2026-02-10T11:18:51.000Z</time>
      </trkpt>
      <trkpt lat="43.62259" lon="6.0375">
        <ele>580</ele>
        <time>2026-02-10T11:18:52.000Z</time>
      </trkpt>
      <trkpt lat="43.62258" lon="6.03751">
        <ele>580</ele>
        <time>2026-02-10T11:18:53.000Z</time>
      </trkpt>
      <trkpt lat="43.62258" lon="6.03752">
        <ele>580</ele>
        <time>2026-02-10T11:18:54.000Z</time>
      </trkpt>
      <trkpt lat="43.62257" lon="6.03753">
        <ele>580</ele>
        <time>2026-02-10T11:18:55.000Z</time>
      </trkpt>
      <trkpt lat="43.62257" lon="6.03754">
        <ele>580</ele>
        <time>2026-02-10T11:18:56.000Z</time>
      </trkpt>
      <trkpt lat="43.62256" lon="6.03755">
        <ele>580</ele>
        <time>2026-02-10T11:18:57.000Z</time>
      </trkpt>
      <trkpt lat="43.62256" lon="6.03756">
        <ele>580</ele>
        <time>2026-02-10T11:18:58.000Z</time>
      </trkpt>
      <trkpt lat="43.62255" lon="6.03757">
        <ele>580</ele>
        <time>2026-02-10T11:18:59.000Z</time>
      </trkpt>
      <trkpt lat="43.62255" lon="6.03758">
        <ele>580</ele>
        <time>2026-02-10T11:19:00.000Z</time>
      </trkpt>
      <trkpt lat="43.62254" lon="6.03759">
        <ele>580</ele>
        <time>2026-02-10T11:19:01.000Z</time>
      </trkpt>
      <trkpt lat="43.62253" lon="6.0376">
        <ele>580</ele>
        <time>2026-02-10T11:19:02.000Z</time>
      </trkpt>
      <trkpt lat="43.62253" lon="6.03761">
        <ele>580</ele>
        <time>2026-02-10T11:19:03.000Z</time>
      </trkpt>
      <trkpt lat="43.62252" lon="6.03762">
        <ele>580</ele>
        <time>2026-02-10T11:19:04.000Z</time>
      </trkpt>
      <trkpt lat="43.62252" lon="6.03764">
        <ele>580</ele>
        <time>2026-02-10T11:19:06.000Z</time>
      </trkpt>
      <trkpt lat="43.62251" lon="6.03765">
        <ele>580</ele>
        <time>2026-02-10T11:19:07.000Z</time>
      </trkpt>
      <trkpt lat="43.62251" lon="6.03766">
        <ele>580</ele>
        <time>2026-02-10T11:19:08.000Z</time>
      </trkpt>
      <trkpt lat="43.6225" lon="6.03767">
        <ele>580</ele>
        <time>2026-02-10T11:19:09.000Z</time>
      </trkpt>
      <trkpt lat="43.62249" lon="6.03768">
        <ele>580</ele>
        <time>2026-02-10T11:19:10.000Z</time>
      </trkpt>
      <trkpt lat="43.62249" lon="6.03769">
        <ele>580</ele>
        <time>2026-02-10T11:19:11.000Z</time>
      </trkpt>
      <trkpt lat="43.62248" lon="6.0377">
        <ele>580</ele>
        <time>2026-02-10T11:19:12.000Z</time>
      </trkpt>
      <trkpt lat="43.62247" lon="6.03771">
        <ele>580</ele>
        <time>2026-02-10T11:19:13.000Z</time>
      </trkpt>
      <trkpt lat="43.62247" lon="6.03772">
        <ele>580</ele>
        <time>2026-02-10T11:19:14.000Z</time>
      </trkpt>
      <trkpt lat="43.62246" lon="6.03773">
        <ele>580</ele>
        <time>2026-02-10T11:19:15.000Z</time>
      </trkpt>
      <trkpt lat="43.62245" lon="6.03774">
        <ele>581</ele>
        <time>2026-02-10T11:19:27.000Z</time>
      </trkpt>
      <trkpt lat="43.62244" lon="6.03775">
        <ele>581</ele>
        <time>2026-02-10T11:19:28.000Z</time>
      </trkpt>
      <trkpt lat="43.62244" lon="6.03776">
        <ele>581</ele>
        <time>2026-02-10T11:19:29.000Z</time>
      </trkpt>
      <trkpt lat="43.62243" lon="6.03777">
        <ele>581</ele>
        <time>2026-02-10T11:19:30.000Z</time>
      </trkpt>
      <trkpt lat="43.62243" lon="6.03778">
        <ele>581</ele>
        <time>2026-02-10T11:19:31.000Z</time>
      </trkpt>
      <trkpt lat="43.62242" lon="6.03779">
        <ele>581</ele>
        <time>2026-02-10T11:19:32.000Z</time>
      </trkpt>
      <trkpt lat="43.62241" lon="6.0378">
        <ele>581</ele>
        <time>2026-02-10T11:19:33.000Z</time>
      </trkpt>
      <trkpt lat="43.62241" lon="6.03781">
        <ele>581</ele>
        <time>2026-02-10T11:19:34.000Z</time>
      </trkpt>
      <trkpt lat="43.6224" lon="6.03782">
        <ele>581</ele>
        <time>2026-02-10T11:19:35.000Z</time>
      </trkpt>
      <trkpt lat="43.62239" lon="6.03783">
        <ele>581</ele>
        <time>2026-02-10T11:19:36.000Z</time>
      </trkpt>
      <trkpt lat="43.62239" lon="6.03784">
        <ele>581</ele>
        <time>2026-02-10T11:19:37.000Z</time>
      </trkpt>
      <trkpt lat="43.62238" lon="6.03786">
        <ele>581</ele>
        <time>2026-02-10T11:19:39.000Z</time>
      </trkpt>
      <trkpt lat="43.62237" lon="6.03787">
        <ele>581</ele>
        <time>2026-02-10T11:19:40.000Z</time>
      </trkpt>
      <trkpt lat="43.62236" lon="6.03788">
        <ele>581</ele>
        <time>2026-02-10T11:19:41.000Z</time>
      </trkpt>
      <trkpt lat="43.62235" lon="6.03789">
        <ele>581</ele>
        <time>2026-02-10T11:19:42.000Z</time>
      </trkpt>
      <trkpt lat="43.62235" lon="6.0379">
        <ele>581</ele>
        <time>2026-02-10T11:19:43.000Z</time>
      </trkpt>
      <trkpt lat="43.62234" lon="6.03791">
        <ele>581</ele>
        <time>2026-02-10T11:19:44.000Z</time>
      </trkpt>
      <trkpt lat="43.62233" lon="6.03792">
        <ele>582</ele>
        <time>2026-02-10T11:19:56.000Z</time>
      </trkpt>
      <trkpt lat="43.62232" lon="6.03793">
        <ele>582</ele>
        <time>2026-02-10T11:19:57.000Z</time>
      </trkpt>
      <trkpt lat="43.62232" lon="6.03793">
        <ele>582</ele>
        <time>2026-02-10T11:19:57.000Z</time>
      </trkpt>
      <trkpt lat="43.62231" lon="6.03795">
        <ele>582</ele>
        <time>2026-02-10T11:19:59.000Z</time>
      </trkpt>
      <trkpt lat="43.6223" lon="6.03796">
        <ele>582</ele>
        <time>2026-02-10T11:20:00.000Z</time>
      </trkpt>
      <trkpt lat="43.62229" lon="6.03797">
        <ele>582</ele>
        <time>2026-02-10T11:20:01.000Z</time>
      </trkpt>
      <trkpt lat="43.62229" lon="6.03798">
        <ele>582</ele>
        <time>2026-02-10T11:20:02.000Z</time>
      </trkpt>
      <trkpt lat="43.62228" lon="6.03799">
        <ele>582</ele>
        <time>2026-02-10T11:20:03.000Z</time>
      </trkpt>
      <trkpt lat="43.62227" lon="6.038">
        <ele>582</ele>
        <time>2026-02-10T11:20:04.000Z</time>
      </trkpt>
      <trkpt lat="43.62227" lon="6.03801">
        <ele>582</ele>
        <time>2026-02-10T11:20:05.000Z</time>
      </trkpt>
      <trkpt lat="43.62226" lon="6.03802">
        <ele>582</ele>
        <time>2026-02-10T11:20:06.000Z</time>
      </trkpt>
      <trkpt lat="43.62225" lon="6.03803">
        <ele>582</ele>
        <time>2026-02-10T11:20:07.000Z</time>
      </trkpt>
      <trkpt lat="43.62224" lon="6.03804">
        <ele>582</ele>
        <time>2026-02-10T11:20:08.000Z</time>
      </trkpt>
      <trkpt lat="43.62224" lon="6.03805">
        <ele>582</ele>
        <time>2026-02-10T11:20:09.000Z</time>
      </trkpt>
      <trkpt lat="43.62223" lon="6.03805">
        <ele>582</ele>
        <time>2026-02-10T11:20:10.000Z</time>
      </trkpt>
      <trkpt lat="43.62222" lon="6.03806">
        <ele>583</ele>
        <time>2026-02-10T11:20:22.000Z</time>
      </trkpt>
      <trkpt lat="43.62221" lon="6.03807">
        <ele>583</ele>
        <time>2026-02-10T11:20:23.000Z</time>
      </trkpt>
      <trkpt lat="43.6222" lon="6.03808">
        <ele>583</ele>
        <time>2026-02-10T11:20:24.000Z</time>
      </trkpt>
      <trkpt lat="43.6222" lon="6.03809">
        <ele>583</ele>
        <time>2026-02-10T11:20:25.000Z</time>
      </trkpt>
      <trkpt lat="43.62219" lon="6.0381">
        <ele>583</ele>
        <time>2026-02-10T11:20:26.000Z</time>
      </trkpt>
      <trkpt lat="43.62218" lon="6.03811">
        <ele>583</ele>
        <time>2026-02-10T11:20:27.000Z</time>
      </trkpt>
      <trkpt lat="43.62217" lon="6.03812">
        <ele>583</ele>
        <time>2026-02-10T11:20:28.000Z</time>
      </trkpt>
      <trkpt lat="43.62216" lon="6.03813">
        <ele>583</ele>
        <time>2026-02-10T11:20:29.000Z</time>
      </trkpt>
      <trkpt lat="43.62215" lon="6.03814">
        <ele>583</ele>
        <time>2026-02-10T11:20:30.000Z</time>
      </trkpt>
      <trkpt lat="43.62215" lon="6.03815">
        <ele>583</ele>
        <time>2026-02-10T11:20:31.000Z</time>
      </trkpt>
      <trkpt lat="43.62214" lon="6.03816">
        <ele>583</ele>
        <time>2026-02-10T11:20:32.000Z</time>
      </trkpt>
      <trkpt lat="43.62213" lon="6.03817">
        <ele>583</ele>
        <time>2026-02-10T11:20:33.000Z</time>
      </trkpt>
      <trkpt lat="43.62212" lon="6.03818">
        <ele>583</ele>
        <time>2026-02-10T11:20:34.000Z</time>
      </trkpt>
      <trkpt lat="43.62212" lon="6.03819">
        <ele>583</ele>
        <time>2026-02-10T11:20:35.000Z</time>
      </trkpt>
      <trkpt lat="43.62211" lon="6.0382">
        <ele>584</ele>
        <time>2026-02-10T11:20:47.000Z</time>
      </trkpt>
      <trkpt lat="43.6221" lon="6.03821">
        <ele>584</ele>
        <time>2026-02-10T11:20:48.000Z</time>
      </trkpt>
      <trkpt lat="43.62209" lon="6.03822">
        <ele>584</ele>
        <time>2026-02-10T11:20:49.000Z</time>
      </trkpt>
      <trkpt lat="43.62209" lon="6.03823">
        <ele>584</ele>
        <time>2026-02-10T11:20:50.000Z</time>
      </trkpt>
      <trkpt lat="43.62208" lon="6.03824">
        <ele>584</ele>
        <time>2026-02-10T11:20:51.000Z</time>
      </trkpt>
      <trkpt lat="43.62207" lon="6.03825">
        <ele>584</ele>
        <time>2026-02-10T11:20:52.000Z</time>
      </trkpt>
      <trkpt lat="43.62206" lon="6.03826">
        <ele>584</ele>
        <time>2026-02-10T11:20:53.000Z</time>
      </trkpt>
      <trkpt lat="43.62206" lon="6.03827">
        <ele>584</ele>
        <time>2026-02-10T11:20:54.000Z</time>
      </trkpt>
      <trkpt lat="43.62205" lon="6.03828">
        <ele>584</ele>
        <time>2026-02-10T11:20:55.000Z</time>
      </trkpt>
      <trkpt lat="43.62204" lon="6.03829">
        <ele>584</ele>
        <time>2026-02-10T11:20:56.000Z</time>
      </trkpt>
      <trkpt lat="43.62203" lon="6.0383">
        <ele>584</ele>
        <time>2026-02-10T11:20:57.000Z</time>
      </trkpt>
      <trkpt lat="43.62203" lon="6.03831">
        <ele>584</ele>
        <time>2026-02-10T11:20:58.000Z</time>
      </trkpt>
      <trkpt lat="43.62202" lon="6.03833">
        <ele>584</ele>
        <time>2026-02-10T11:21:00.000Z</time>
      </trkpt>
      <trkpt lat="43.62201" lon="6.03834">
        <ele>584</ele>
        <time>2026-02-10T11:21:01.000Z</time>
      </trkpt>
      <trkpt lat="43.622" lon="6.03835">
        <ele>585</ele>
        <time>2026-02-10T11:21:13.000Z</time>
      </trkpt>
      <trkpt lat="43.62199" lon="6.03836">
        <ele>585</ele>
        <time>2026-02-10T11:21:14.000Z</time>
      </trkpt>
      <trkpt lat="43.62199" lon="6.03837">
        <ele>585</ele>
        <time>2026-02-10T11:21:15.000Z</time>
      </trkpt>
      <trkpt lat="43.62198" lon="6.03838">
        <ele>585</ele>
        <time>2026-02-10T11:21:16.000Z</time>
      </trkpt>
      <trkpt lat="43.62197" lon="6.03839">
        <ele>585</ele>
        <time>2026-02-10T11:21:17.000Z</time>
      </trkpt>
      <trkpt lat="43.62196" lon="6.03841">
        <ele>585</ele>
        <time>2026-02-10T11:21:19.000Z</time>
      </trkpt>
      <trkpt lat="43.62195" lon="6.03842">
        <ele>585</ele>
        <time>2026-02-10T11:21:20.000Z</time>
      </trkpt>
      <trkpt lat="43.62195" lon="6.03843">
        <ele>585</ele>
        <time>2026-02-10T11:21:21.000Z</time>
      </trkpt>
      <trkpt lat="43.62194" lon="6.03844">
        <ele>585</ele>
        <time>2026-02-10T11:21:22.000Z</time>
      </trkpt>
      <trkpt lat="43.62193" lon="6.03845">
        <ele>585</ele>
        <time>2026-02-10T11:21:23.000Z</time>
      </trkpt>
      <trkpt lat="43.62193" lon="6.03846">
        <ele>585</ele>
        <time>2026-02-10T11:21:24.000Z</time>
      </trkpt>
      <trkpt lat="43.62192" lon="6.03847">
        <ele>585</ele>
        <time>2026-02-10T11:21:25.000Z</time>
      </trkpt>
      <trkpt lat="43.62191" lon="6.03848">
        <ele>585</ele>
        <time>2026-02-10T11:21:26.000Z</time>
      </trkpt>
      <trkpt lat="43.6219" lon="6.0385">
        <ele>585</ele>
        <time>2026-02-10T11:21:28.000Z</time>
      </trkpt>
      <trkpt lat="43.62189" lon="6.03851">
        <ele>585</ele>
        <time>2026-02-10T11:21:29.000Z</time>
      </trkpt>
      <trkpt lat="43.62188" lon="6.03852">
        <ele>585</ele>
        <time>2026-02-10T11:21:30.000Z</time>
      </trkpt>
      <trkpt lat="43.62187" lon="6.03853">
        <ele>585</ele>
        <time>2026-02-10T11:21:31.000Z</time>
      </trkpt>
      <trkpt lat="43.62187" lon="6.03854">
        <ele>585</ele>
        <time>2026-02-10T11:21:32.000Z</time>
      </trkpt>
      <trkpt lat="43.62186" lon="6.03855">
        <ele>585</ele>
        <time>2026-02-10T11:21:33.000Z</time>
      </trkpt>
      <trkpt lat="43.62185" lon="6.03857">
        <ele>585</ele>
        <time>2026-02-10T11:21:35.000Z</time>
      </trkpt>
      <trkpt lat="43.62184" lon="6.03858">
        <ele>585</ele>
        <time>2026-02-10T11:21:36.000Z</time>
      </trkpt>
      <trkpt lat="43.62184" lon="6.03859">
        <ele>585</ele>
        <time>2026-02-10T11:21:37.000Z</time>
      </trkpt>
      <trkpt lat="43.62183" lon="6.0386">
        <ele>586</ele>
        <time>2026-02-10T11:21:49.000Z</time>
      </trkpt>
      <trkpt lat="43.62182" lon="6.03861">
        <ele>586</ele>
        <time>2026-02-10T11:21:50.000Z</time>
      </trkpt>
      <trkpt lat="43.62182" lon="6.03862">
        <ele>586</ele>
        <time>2026-02-10T11:21:51.000Z</time>
      </trkpt>
      <trkpt lat="43.62181" lon="6.03863">
        <ele>586</ele>
        <time>2026-02-10T11:21:52.000Z</time>
      </trkpt>
      <trkpt lat="43.6218" lon="6.03865">
        <ele>586</ele>
        <time>2026-02-10T11:21:54.000Z</time>
      </trkpt>
      <trkpt lat="43.6218" lon="6.03866">
        <ele>586</ele>
        <time>2026-02-10T11:21:55.000Z</time>
      </trkpt>
      <trkpt lat="43.62179" lon="6.03867">
        <ele>586</ele>
        <time>2026-02-10T11:21:56.000Z</time>
      </trkpt>
      <trkpt lat="43.62178" lon="6.03867">
        <ele>586</ele>
        <time>2026-02-10T11:21:57.000Z</time>
      </trkpt>
      <trkpt lat="43.62177" lon="6.03868">
        <ele>586</ele>
        <time>2026-02-10T11:21:58.000Z</time>
      </trkpt>
      <trkpt lat="43.62176" lon="6.03869">
        <ele>586</ele>
        <time>2026-02-10T11:21:59.000Z</time>
      </trkpt>
      <trkpt lat="43.62176" lon="6.0387">
        <ele>586</ele>
        <time>2026-02-10T11:22:00.000Z</time>
      </trkpt>
      <trkpt lat="43.62175" lon="6.03871">
        <ele>586</ele>
        <time>2026-02-10T11:22:01.000Z</time>
      </trkpt>
      <trkpt lat="43.62174" lon="6.03872">
        <ele>586</ele>
        <time>2026-02-10T11:22:02.000Z</time>
      </trkpt>
      <trkpt lat="43.62174" lon="6.03872">
        <ele>586</ele>
        <time>2026-02-10T11:22:02.000Z</time>
      </trkpt>
      <trkpt lat="43.62173" lon="6.03873">
        <ele>586</ele>
        <time>2026-02-10T11:22:03.000Z</time>
      </trkpt>
      <trkpt lat="43.62173" lon="6.03873">
        <ele>586</ele>
        <time>2026-02-10T11:22:03.000Z</time>
      </trkpt>
      <trkpt lat="43.62173" lon="6.03873">
        <ele>586</ele>
        <time>2026-02-10T11:22:03.000Z</time>
      </trkpt>
      <trkpt lat="43.62173" lon="6.03874">
        <ele>586</ele>
        <time>2026-02-10T11:22:04.000Z</time>
      </trkpt>
      <trkpt lat="43.62173" lon="6.03874">
        <ele>586</ele>
        <time>2026-02-10T11:22:04.000Z</time>
      </trkpt>
      <trkpt lat="43.62173" lon="6.03874">
        <ele>586</ele>
        <time>2026-02-10T11:22:04.000Z</time>
      </trkpt>
      <trkpt lat="43.62173" lon="6.03874">
        <ele>586</ele>
        <time>2026-02-10T11:22:04.000Z</time>
      </trkpt>
      <trkpt lat="43.62172" lon="6.03875">
        <ele>587</ele>
        <time>2026-02-10T11:22:16.000Z</time>
      </trkpt>
      <trkpt lat="43.62172" lon="6.03876">
        <ele>587</ele>
        <time>2026-02-10T11:22:17.000Z</time>
      </trkpt>
      <trkpt lat="43.62171" lon="6.03876">
        <ele>587</ele>
        <time>2026-02-10T11:22:18.000Z</time>
      </trkpt>
      <trkpt lat="43.6217" lon="6.03877">
        <ele>587</ele>
        <time>2026-02-10T11:22:19.000Z</time>
      </trkpt>
      <trkpt lat="43.62169" lon="6.03877">
        <ele>587</ele>
        <time>2026-02-10T11:22:20.000Z</time>
      </trkpt>
      <trkpt lat="43.62168" lon="6.03878">
        <ele>587</ele>
        <time>2026-02-10T11:22:21.000Z</time>
      </trkpt>
      <trkpt lat="43.62167" lon="6.03879">
        <ele>587</ele>
        <time>2026-02-10T11:22:22.000Z</time>
      </trkpt>
      <trkpt lat="43.62167" lon="6.03879">
        <ele>587</ele>
        <time>2026-02-10T11:22:22.000Z</time>
      </trkpt>
      <trkpt lat="43.62166" lon="6.0388">
        <ele>588</ele>
        <time>2026-02-10T11:22:34.000Z</time>
      </trkpt>
      <trkpt lat="43.62166" lon="6.03881">
        <ele>588</ele>
        <time>2026-02-10T11:22:35.000Z</time>
      </trkpt>
      <trkpt lat="43.62165" lon="6.03882">
        <ele>588</ele>
        <time>2026-02-10T11:22:36.000Z</time>
      </trkpt>
      <trkpt lat="43.62164" lon="6.03882">
        <ele>588</ele>
        <time>2026-02-10T11:22:37.000Z</time>
      </trkpt>
      <trkpt lat="43.62163" lon="6.03883">
        <ele>588</ele>
        <time>2026-02-10T11:22:38.000Z</time>
      </trkpt>
      <trkpt lat="43.62162" lon="6.03884">
        <ele>588</ele>
        <time>2026-02-10T11:22:39.000Z</time>
      </trkpt>
      <trkpt lat="43.62161" lon="6.03885">
        <ele>588</ele>
        <time>2026-02-10T11:22:40.000Z</time>
      </trkpt>
      <trkpt lat="43.62161" lon="6.03886">
        <ele>588</ele>
        <time>2026-02-10T11:22:41.000Z</time>
      </trkpt>
      <trkpt lat="43.6216" lon="6.03887">
        <ele>588</ele>
        <time>2026-02-10T11:22:42.000Z</time>
      </trkpt>
      <trkpt lat="43.62159" lon="6.03888">
        <ele>588</ele>
        <time>2026-02-10T11:22:43.000Z</time>
      </trkpt>
      <trkpt lat="43.62158" lon="6.03889">
        <ele>589</ele>
        <time>2026-02-10T11:22:55.000Z</time>
      </trkpt>
      <trkpt lat="43.62157" lon="6.0389">
        <ele>589</ele>
        <time>2026-02-10T11:22:56.000Z</time>
      </trkpt>
      <trkpt lat="43.62157" lon="6.03891">
        <ele>589</ele>
        <time>2026-02-10T11:22:57.000Z</time>
      </trkpt>
      <trkpt lat="43.62157" lon="6.03892">
        <ele>589</ele>
        <time>2026-02-10T11:22:58.000Z</time>
      </trkpt>
      <trkpt lat="43.62157" lon="6.03894">
        <ele>589</ele>
        <time>2026-02-10T11:23:00.000Z</time>
      </trkpt>
      <trkpt lat="43.62157" lon="6.03894">
        <ele>589</ele>
        <time>2026-02-10T11:23:00.000Z</time>
      </trkpt>
      <trkpt lat="43.62156" lon="6.03894">
        <ele>589</ele>
        <time>2026-02-10T11:23:01.000Z</time>
      </trkpt>
      <trkpt lat="43.62156" lon="6.03895">
        <ele>589</ele>
        <time>2026-02-10T11:23:02.000Z</time>
      </trkpt>
      <trkpt lat="43.62155" lon="6.03896">
        <ele>589</ele>
        <time>2026-02-10T11:23:03.000Z</time>
      </trkpt>
      <trkpt lat="43.62155" lon="6.03897">
        <ele>589</ele>
        <time>2026-02-10T11:23:04.000Z</time>
      </trkpt>
      <trkpt lat="43.62154" lon="6.03898">
        <ele>589</ele>
        <time>2026-02-10T11:23:05.000Z</time>
      </trkpt>
      <trkpt lat="43.62153" lon="6.039">
        <ele>589</ele>
        <time>2026-02-10T11:23:07.000Z</time>
      </trkpt>
      <trkpt lat="43.62152" lon="6.03901">
        <ele>589</ele>
        <time>2026-02-10T11:23:08.000Z</time>
      </trkpt>
      <trkpt lat="43.62151" lon="6.03902">
        <ele>589</ele>
        <time>2026-02-10T11:23:09.000Z</time>
      </trkpt>
      <trkpt lat="43.62151" lon="6.03903">
        <ele>589</ele>
        <time>2026-02-10T11:23:10.000Z</time>
      </trkpt>
      <trkpt lat="43.6215" lon="6.03905">
        <ele>590</ele>
        <time>2026-02-10T11:23:22.000Z</time>
      </trkpt>
      <trkpt lat="43.62149" lon="6.03906">
        <ele>590</ele>
        <time>2026-02-10T11:23:23.000Z</time>
      </trkpt>
      <trkpt lat="43.62148" lon="6.03907">
        <ele>590</ele>
        <time>2026-02-10T11:23:24.000Z</time>
      </trkpt>
      <trkpt lat="43.62148" lon="6.03908">
        <ele>590</ele>
        <time>2026-02-10T11:23:25.000Z</time>
      </trkpt>
      <trkpt lat="43.62147" lon="6.03909">
        <ele>590</ele>
        <time>2026-02-10T11:23:26.000Z</time>
      </trkpt>
      <trkpt lat="43.62146" lon="6.0391">
        <ele>590</ele>
        <time>2026-02-10T11:23:27.000Z</time>
      </trkpt>
      <trkpt lat="43.62145" lon="6.03911">
        <ele>590</ele>
        <time>2026-02-10T11:23:28.000Z</time>
      </trkpt>
      <trkpt lat="43.62145" lon="6.03912">
        <ele>590</ele>
        <time>2026-02-10T11:23:29.000Z</time>
      </trkpt>
      <trkpt lat="43.62144" lon="6.03913">
        <ele>590</ele>
        <time>2026-02-10T11:23:30.000Z</time>
      </trkpt>
      <trkpt lat="43.62144" lon="6.03915">
        <ele>590</ele>
        <time>2026-02-10T11:23:32.000Z</time>
      </trkpt>
      <trkpt lat="43.62143" lon="6.03916">
        <ele>590</ele>
        <time>2026-02-10T11:23:33.000Z</time>
      </trkpt>
      <trkpt lat="43.62143" lon="6.03917">
        <ele>590</ele>
        <time>2026-02-10T11:23:34.000Z</time>
      </trkpt>
      <trkpt lat="43.62142" lon="6.03918">
        <ele>590</ele>
        <time>2026-02-10T11:23:35.000Z</time>
      </trkpt>
      <trkpt lat="43.62141" lon="6.0392">
        <ele>590</ele>
        <time>2026-02-10T11:23:37.000Z</time>
      </trkpt>
      <trkpt lat="43.6214" lon="6.03921">
        <ele>591</ele>
        <time>2026-02-10T11:23:49.000Z</time>
      </trkpt>
      <trkpt lat="43.6214" lon="6.03922">
        <ele>591</ele>
        <time>2026-02-10T11:23:50.000Z</time>
      </trkpt>
      <trkpt lat="43.62139" lon="6.03924">
        <ele>591</ele>
        <time>2026-02-10T11:23:52.000Z</time>
      </trkpt>
      <trkpt lat="43.62139" lon="6.03925">
        <ele>591</ele>
        <time>2026-02-10T11:23:53.000Z</time>
      </trkpt>
      <trkpt lat="43.62138" lon="6.03927">
        <ele>591</ele>
        <time>2026-02-10T11:23:55.000Z</time>
      </trkpt>
      <trkpt lat="43.62137" lon="6.03928">
        <ele>591</ele>
        <time>2026-02-10T11:23:56.000Z</time>
      </trkpt>
      <trkpt lat="43.62137" lon="6.03929">
        <ele>591</ele>
        <time>2026-02-10T11:23:57.000Z</time>
      </trkpt>
      <trkpt lat="43.62136" lon="6.0393">
        <ele>591</ele>
        <time>2026-02-10T11:23:58.000Z</time>
      </trkpt>
      <trkpt lat="43.62135" lon="6.03931">
        <ele>591</ele>
        <time>2026-02-10T11:23:59.000Z</time>
      </trkpt>
      <trkpt lat="43.62134" lon="6.03932">
        <ele>591</ele>
        <time>2026-02-10T11:24:00.000Z</time>
      </trkpt>
      <trkpt lat="43.62133" lon="6.03934">
        <ele>592</ele>
        <time>2026-02-10T11:24:12.000Z</time>
      </trkpt>
      <trkpt lat="43.62133" lon="6.03936">
        <ele>592</ele>
        <time>2026-02-10T11:24:14.000Z</time>
      </trkpt>
      <trkpt lat="43.62133" lon="6.03937">
        <ele>592</ele>
        <time>2026-02-10T11:24:15.000Z</time>
      </trkpt>
      <trkpt lat="43.62132" lon="6.03938">
        <ele>592</ele>
        <time>2026-02-10T11:24:16.000Z</time>
      </trkpt>
      <trkpt lat="43.62131" lon="6.0394">
        <ele>592</ele>
        <time>2026-02-10T11:24:18.000Z</time>
      </trkpt>
      <trkpt lat="43.62131" lon="6.03941">
        <ele>592</ele>
        <time>2026-02-10T11:24:19.000Z</time>
      </trkpt>
      <trkpt lat="43.6213" lon="6.03942">
        <ele>592</ele>
        <time>2026-02-10T11:24:20.000Z</time>
      </trkpt>
      <trkpt lat="43.6213" lon="6.03944">
        <ele>592</ele>
        <time>2026-02-10T11:24:22.000Z</time>
      </trkpt>
      <trkpt lat="43.62129" lon="6.03945">
        <ele>592</ele>
        <time>2026-02-10T11:24:23.000Z</time>
      </trkpt>
      <trkpt lat="43.62129" lon="6.03946">
        <ele>592</ele>
        <time>2026-02-10T11:24:24.000Z</time>
      </trkpt>
      <trkpt lat="43.62128" lon="6.03948">
        <ele>592</ele>
        <time>2026-02-10T11:24:26.000Z</time>
      </trkpt>
      <trkpt lat="43.62127" lon="6.03949">
        <ele>592</ele>
        <time>2026-02-10T11:24:27.000Z</time>
      </trkpt>
      <trkpt lat="43.62127" lon="6.03951">
        <ele>592</ele>
        <time>2026-02-10T11:24:29.000Z</time>
      </trkpt>
      <trkpt lat="43.62126" lon="6.03952">
        <ele>592</ele>
        <time>2026-02-10T11:24:30.000Z</time>
      </trkpt>
      <trkpt lat="43.62126" lon="6.03954">
        <ele>592</ele>
        <time>2026-02-10T11:24:32.000Z</time>
      </trkpt>
      <trkpt lat="43.62125" lon="6.03955">
        <ele>592</ele>
        <time>2026-02-10T11:24:33.000Z</time>
      </trkpt>
      <trkpt lat="43.62124" lon="6.03956">
        <ele>592</ele>
        <time>2026-02-10T11:24:34.000Z</time>
      </trkpt>
      <trkpt lat="43.62124" lon="6.03958">
        <ele>592</ele>
        <time>2026-02-10T11:24:36.000Z</time>
      </trkpt>
      <trkpt lat="43.62123" lon="6.03959">
        <ele>592</ele>
        <time>2026-02-10T11:24:37.000Z</time>
      </trkpt>
      <trkpt lat="43.62122" lon="6.03961">
        <ele>593</ele>
        <time>2026-02-10T11:24:49.000Z</time>
      </trkpt>
      <trkpt lat="43.62121" lon="6.03962">
        <ele>593</ele>
        <time>2026-02-10T11:24:50.000Z</time>
      </trkpt>
      <trkpt lat="43.62121" lon="6.03963">
        <ele>593</ele>
        <time>2026-02-10T11:24:51.000Z</time>
      </trkpt>
      <trkpt lat="43.6212" lon="6.03964">
        <ele>593</ele>
        <time>2026-02-10T11:24:52.000Z</time>
      </trkpt>
      <trkpt lat="43.6212" lon="6.03966">
        <ele>592</ele>
        <time>2026-02-10T11:24:54.000Z</time>
      </trkpt>
      <trkpt lat="43.62119" lon="6.03967">
        <ele>592</ele>
        <time>2026-02-10T11:24:55.000Z</time>
      </trkpt>
      <trkpt lat="43.62119" lon="6.03968">
        <ele>592</ele>
        <time>2026-02-10T11:24:56.000Z</time>
      </trkpt>
      <trkpt lat="43.62118" lon="6.0397">
        <ele>593</ele>
        <time>2026-02-10T11:25:08.000Z</time>
      </trkpt>
      <trkpt lat="43.62118" lon="6.03971">
        <ele>593</ele>
        <time>2026-02-10T11:25:09.000Z</time>
      </trkpt>
      <trkpt lat="43.62117" lon="6.03972">
        <ele>593</ele>
        <time>2026-02-10T11:25:10.000Z</time>
      </trkpt>
      <trkpt lat="43.62116" lon="6.03974">
        <ele>593</ele>
        <time>2026-02-10T11:25:12.000Z</time>
      </trkpt>
      <trkpt lat="43.62116" lon="6.03975">
        <ele>593</ele>
        <time>2026-02-10T11:25:13.000Z</time>
      </trkpt>
      <trkpt lat="43.62115" lon="6.03976">
        <ele>593</ele>
        <time>2026-02-10T11:25:14.000Z</time>
      </trkpt>
      <trkpt lat="43.62114" lon="6.03978">
        <ele>593</ele>
        <time>2026-02-10T11:25:16.000Z</time>
      </trkpt>
      <trkpt lat="43.62114" lon="6.03979">
        <ele>593</ele>
        <time>2026-02-10T11:25:17.000Z</time>
      </trkpt>
      <trkpt lat="43.62113" lon="6.0398">
        <ele>593</ele>
        <time>2026-02-10T11:25:18.000Z</time>
      </trkpt>
      <trkpt lat="43.62113" lon="6.03982">
        <ele>593</ele>
        <time>2026-02-10T11:25:20.000Z</time>
      </trkpt>
      <trkpt lat="43.62112" lon="6.03983">
        <ele>593</ele>
        <time>2026-02-10T11:25:21.000Z</time>
      </trkpt>
      <trkpt lat="43.62111" lon="6.03985">
        <ele>594</ele>
        <time>2026-02-10T11:25:33.000Z</time>
      </trkpt>
      <trkpt lat="43.62111" lon="6.03987">
        <ele>593</ele>
        <time>2026-02-10T11:25:35.000Z</time>
      </trkpt>
      <trkpt lat="43.62111" lon="6.03989">
        <ele>593</ele>
        <time>2026-02-10T11:25:37.000Z</time>
      </trkpt>
      <trkpt lat="43.6211" lon="6.0399">
        <ele>593</ele>
        <time>2026-02-10T11:25:38.000Z</time>
      </trkpt>
      <trkpt lat="43.62109" lon="6.03992">
        <ele>593</ele>
        <time>2026-02-10T11:25:40.000Z</time>
      </trkpt>
      <trkpt lat="43.62109" lon="6.03994">
        <ele>593</ele>
        <time>2026-02-10T11:25:42.000Z</time>
      </trkpt>
      <trkpt lat="43.62108" lon="6.03995">
        <ele>593</ele>
        <time>2026-02-10T11:25:43.000Z</time>
      </trkpt>
      <trkpt lat="43.62108" lon="6.03997">
        <ele>593</ele>
        <time>2026-02-10T11:25:45.000Z</time>
      </trkpt>
      <trkpt lat="43.62107" lon="6.03998">
        <ele>593</ele>
        <time>2026-02-10T11:25:46.000Z</time>
      </trkpt>
      <trkpt lat="43.62107" lon="6.03999">
        <ele>593</ele>
        <time>2026-02-10T11:25:47.000Z</time>
      </trkpt>
      <trkpt lat="43.62106" lon="6.04001">
        <ele>593</ele>
        <time>2026-02-10T11:25:49.000Z</time>
      </trkpt>
      <trkpt lat="43.62105" lon="6.04002">
        <ele>593</ele>
        <time>2026-02-10T11:25:50.000Z</time>
      </trkpt>
      <trkpt lat="43.62105" lon="6.04004">
        <ele>593</ele>
        <time>2026-02-10T11:25:52.000Z</time>
      </trkpt>
      <trkpt lat="43.62104" lon="6.04006">
        <ele>593</ele>
        <time>2026-02-10T11:25:54.000Z</time>
      </trkpt>
      <trkpt lat="43.62104" lon="6.04007">
        <ele>593</ele>
        <time>2026-02-10T11:25:55.000Z</time>
      </trkpt>
      <trkpt lat="43.62104" lon="6.04008">
        <ele>593</ele>
        <time>2026-02-10T11:25:56.000Z</time>
      </trkpt>
      <trkpt lat="43.62103" lon="6.0401">
        <ele>593</ele>
        <time>2026-02-10T11:25:58.000Z</time>
      </trkpt>
      <trkpt lat="43.62102" lon="6.04011">
        <ele>593</ele>
        <time>2026-02-10T11:25:59.000Z</time>
      </trkpt>
      <trkpt lat="43.62102" lon="6.04012">
        <ele>593</ele>
        <time>2026-02-10T11:26:00.000Z</time>
      </trkpt>
      <trkpt lat="43.62101" lon="6.04014">
        <ele>593</ele>
        <time>2026-02-10T11:26:02.000Z</time>
      </trkpt>
      <trkpt lat="43.62101" lon="6.04015">
        <ele>593</ele>
        <time>2026-02-10T11:26:03.000Z</time>
      </trkpt>
      <trkpt lat="43.621" lon="6.04017">
        <ele>593</ele>
        <time>2026-02-10T11:26:05.000Z</time>
      </trkpt>
      <trkpt lat="43.621" lon="6.04018">
        <ele>593</ele>
        <time>2026-02-10T11:26:06.000Z</time>
      </trkpt>
      <trkpt lat="43.62099" lon="6.04019">
        <ele>594</ele>
        <time>2026-02-10T11:26:18.000Z</time>
      </trkpt>
      <trkpt lat="43.62098" lon="6.04021">
        <ele>594</ele>
        <time>2026-02-10T11:26:20.000Z</time>
      </trkpt>
      <trkpt lat="43.62098" lon="6.04022">
        <ele>593</ele>
        <time>2026-02-10T11:26:21.000Z</time>
      </trkpt>
      <trkpt lat="43.62097" lon="6.04023">
        <ele>593</ele>
        <time>2026-02-10T11:26:22.000Z</time>
      </trkpt>
      <trkpt lat="43.62096" lon="6.04024">
        <ele>593</ele>
        <time>2026-02-10T11:26:23.000Z</time>
      </trkpt>
      <trkpt lat="43.62095" lon="6.04025">
        <ele>593</ele>
        <time>2026-02-10T11:26:24.000Z</time>
      </trkpt>
      <trkpt lat="43.62095" lon="6.04027">
        <ele>594</ele>
        <time>2026-02-10T11:26:36.000Z</time>
      </trkpt>
      <trkpt lat="43.62094" lon="6.04028">
        <ele>594</ele>
        <time>2026-02-10T11:26:37.000Z</time>
      </trkpt>
      <trkpt lat="43.62093" lon="6.0403">
        <ele>594</ele>
        <time>2026-02-10T11:26:39.000Z</time>
      </trkpt>
      <trkpt lat="43.62093" lon="6.04032">
        <ele>594</ele>
        <time>2026-02-10T11:26:41.000Z</time>
      </trkpt>
      <trkpt lat="43.62092" lon="6.04033">
        <ele>594</ele>
        <time>2026-02-10T11:26:42.000Z</time>
      </trkpt>
      <trkpt lat="43.62091" lon="6.04034">
        <ele>594</ele>
        <time>2026-02-10T11:26:43.000Z</time>
      </trkpt>
      <trkpt lat="43.62091" lon="6.04036">
        <ele>594</ele>
        <time>2026-02-10T11:26:45.000Z</time>
      </trkpt>
      <trkpt lat="43.6209" lon="6.04037">
        <ele>594</ele>
        <time>2026-02-10T11:26:46.000Z</time>
      </trkpt>
      <trkpt lat="43.6209" lon="6.04039">
        <ele>594</ele>
        <time>2026-02-10T11:26:48.000Z</time>
      </trkpt>
      <trkpt lat="43.62089" lon="6.0404">
        <ele>594</ele>
        <time>2026-02-10T11:26:49.000Z</time>
      </trkpt>
      <trkpt lat="43.62088" lon="6.04041">
        <ele>594</ele>
        <time>2026-02-10T11:26:50.000Z</time>
      </trkpt>
      <trkpt lat="43.62087" lon="6.04043">
        <ele>594</ele>
        <time>2026-02-10T11:26:52.000Z</time>
      </trkpt>
      <trkpt lat="43.62087" lon="6.04044">
        <ele>594</ele>
        <time>2026-02-10T11:26:53.000Z</time>
      </trkpt>
      <trkpt lat="43.62086" lon="6.04046">
        <ele>594</ele>
        <time>2026-02-10T11:26:55.000Z</time>
      </trkpt>
      <trkpt lat="43.62086" lon="6.04047">
        <ele>594</ele>
        <time>2026-02-10T11:26:56.000Z</time>
      </trkpt>
      <trkpt lat="43.62085" lon="6.04049">
        <ele>594</ele>
        <time>2026-02-10T11:26:58.000Z</time>
      </trkpt>
      <trkpt lat="43.62085" lon="6.0405">
        <ele>594</ele>
        <time>2026-02-10T11:26:59.000Z</time>
      </trkpt>
      <trkpt lat="43.62084" lon="6.04051">
        <ele>594</ele>
        <time>2026-02-10T11:27:00.000Z</time>
      </trkpt>
      <trkpt lat="43.62084" lon="6.04052">
        <ele>594</ele>
        <time>2026-02-10T11:27:01.000Z</time>
      </trkpt>
      <trkpt lat="43.62083" lon="6.04054">
        <ele>595</ele>
        <time>2026-02-10T11:27:13.000Z</time>
      </trkpt>
      <trkpt lat="43.62082" lon="6.04055">
        <ele>595</ele>
        <time>2026-02-10T11:27:14.000Z</time>
      </trkpt>
      <trkpt lat="43.62082" lon="6.04056">
        <ele>595</ele>
        <time>2026-02-10T11:27:15.000Z</time>
      </trkpt>
      <trkpt lat="43.62082" lon="6.04057">
        <ele>595</ele>
        <time>2026-02-10T11:27:16.000Z</time>
      </trkpt>
      <trkpt lat="43.62082" lon="6.04059">
        <ele>595</ele>
        <time>2026-02-10T11:27:18.000Z</time>
      </trkpt>
      <trkpt lat="43.62081" lon="6.0406">
        <ele>595</ele>
        <time>2026-02-10T11:27:19.000Z</time>
      </trkpt>
      <trkpt lat="43.6208" lon="6.04061">
        <ele>595</ele>
        <time>2026-02-10T11:27:20.000Z</time>
      </trkpt>
      <trkpt lat="43.6208" lon="6.04062">
        <ele>595</ele>
        <time>2026-02-10T11:27:21.000Z</time>
      </trkpt>
      <trkpt lat="43.62079" lon="6.04064">
        <ele>595</ele>
        <time>2026-02-10T11:27:23.000Z</time>
      </trkpt>
      <trkpt lat="43.62078" lon="6.04065">
        <ele>595</ele>
        <time>2026-02-10T11:27:24.000Z</time>
      </trkpt>
      <trkpt lat="43.62077" lon="6.04066">
        <ele>595</ele>
        <time>2026-02-10T11:27:25.000Z</time>
      </trkpt>
      <trkpt lat="43.62077" lon="6.04068">
        <ele>595</ele>
        <time>2026-02-10T11:27:27.000Z</time>
      </trkpt>
      <trkpt lat="43.62076" lon="6.04069">
        <ele>596</ele>
        <time>2026-02-10T11:27:39.000Z</time>
      </trkpt>
      <trkpt lat="43.62075" lon="6.04071">
        <ele>596</ele>
        <time>2026-02-10T11:27:41.000Z</time>
      </trkpt>
      <trkpt lat="43.62075" lon="6.04073">
        <ele>595</ele>
        <time>2026-02-10T11:27:43.000Z</time>
      </trkpt>
      <trkpt lat="43.62074" lon="6.04075">
        <ele>595</ele>
        <time>2026-02-10T11:27:45.000Z</time>
      </trkpt>
      <trkpt lat="43.62074" lon="6.04077">
        <ele>595</ele>
        <time>2026-02-10T11:27:47.000Z</time>
      </trkpt>
      <trkpt lat="43.62073" lon="6.04078">
        <ele>595</ele>
        <time>2026-02-10T11:27:48.000Z</time>
      </trkpt>
      <trkpt lat="43.62073" lon="6.04079">
        <ele>595</ele>
        <time>2026-02-10T11:27:49.000Z</time>
      </trkpt>
      <trkpt lat="43.62072" lon="6.04081">
        <ele>595</ele>
        <time>2026-02-10T11:27:51.000Z</time>
      </trkpt>
      <trkpt lat="43.62071" lon="6.04082">
        <ele>595</ele>
        <time>2026-02-10T11:27:52.000Z</time>
      </trkpt>
      <trkpt lat="43.62071" lon="6.04084">
        <ele>595</ele>
        <time>2026-02-10T11:27:54.000Z</time>
      </trkpt>
      <trkpt lat="43.6207" lon="6.04086">
        <ele>595</ele>
        <time>2026-02-10T11:27:56.000Z</time>
      </trkpt>
      <trkpt lat="43.6207" lon="6.04088">
        <ele>595</ele>
        <time>2026-02-10T11:27:58.000Z</time>
      </trkpt>
      <trkpt lat="43.62069" lon="6.04089">
        <ele>595</ele>
        <time>2026-02-10T11:27:59.000Z</time>
      </trkpt>
      <trkpt lat="43.62069" lon="6.04091">
        <ele>595</ele>
        <time>2026-02-10T11:28:01.000Z</time>
      </trkpt>
      <trkpt lat="43.62068" lon="6.04093">
        <ele>595</ele>
        <time>2026-02-10T11:28:03.000Z</time>
      </trkpt>
      <trkpt lat="43.62068" lon="6.04095">
        <ele>595</ele>
        <time>2026-02-10T11:28:05.000Z</time>
      </trkpt>
      <trkpt lat="43.62067" lon="6.04096">
        <ele>595</ele>
        <time>2026-02-10T11:28:06.000Z</time>
      </trkpt>
      <trkpt lat="43.62067" lon="6.04098">
        <ele>595</ele>
        <time>2026-02-10T11:28:08.000Z</time>
      </trkpt>
      <trkpt lat="43.62066" lon="6.041">
        <ele>596</ele>
        <time>2026-02-10T11:28:20.000Z</time>
      </trkpt>
      <trkpt lat="43.62066" lon="6.04101">
        <ele>596</ele>
        <time>2026-02-10T11:28:21.000Z</time>
      </trkpt>
      <trkpt lat="43.62065" lon="6.04103">
        <ele>596</ele>
        <time>2026-02-10T11:28:23.000Z</time>
      </trkpt>
      <trkpt lat="43.62064" lon="6.04104">
        <ele>596</ele>
        <time>2026-02-10T11:28:24.000Z</time>
      </trkpt>
      <trkpt lat="43.62063" lon="6.04106">
        <ele>596</ele>
        <time>2026-02-10T11:28:26.000Z</time>
      </trkpt>
      <trkpt lat="43.62063" lon="6.04108">
        <ele>596</ele>
        <time>2026-02-10T11:28:28.000Z</time>
      </trkpt>
      <trkpt lat="43.62062" lon="6.0411">
        <ele>596</ele>
        <time>2026-02-10T11:28:30.000Z</time>
      </trkpt>
      <trkpt lat="43.62062" lon="6.04112">
        <ele>596</ele>
        <time>2026-02-10T11:28:32.000Z</time>
      </trkpt>
      <trkpt lat="43.62061" lon="6.04113">
        <ele>596</ele>
        <time>2026-02-10T11:28:33.000Z</time>
      </trkpt>
      <trkpt lat="43.62061" lon="6.04115">
        <ele>595</ele>
        <time>2026-02-10T11:28:35.000Z</time>
      </trkpt>
      <trkpt lat="43.62061" lon="6.04117">
        <ele>595</ele>
        <time>2026-02-10T11:28:37.000Z</time>
      </trkpt>
      <trkpt lat="43.6206" lon="6.04118">
        <ele>596</ele>
        <time>2026-02-10T11:28:49.000Z</time>
      </trkpt>
      <trkpt lat="43.6206" lon="6.0412">
        <ele>596</ele>
        <time>2026-02-10T11:28:51.000Z</time>
      </trkpt>
      <trkpt lat="43.6206" lon="6.04122">
        <ele>596</ele>
        <time>2026-02-10T11:28:53.000Z</time>
      </trkpt>
      <trkpt lat="43.62059" lon="6.04124">
        <ele>596</ele>
        <time>2026-02-10T11:28:55.000Z</time>
      </trkpt>
      <trkpt lat="43.62059" lon="6.04126">
        <ele>596</ele>
        <time>2026-02-10T11:28:57.000Z</time>
      </trkpt>
      <trkpt lat="43.62059" lon="6.04128">
        <ele>596</ele>
        <time>2026-02-10T11:28:59.000Z</time>
      </trkpt>
      <trkpt lat="43.62059" lon="6.04129">
        <ele>596</ele>
        <time>2026-02-10T11:29:00.000Z</time>
      </trkpt>
      <trkpt lat="43.62059" lon="6.04131">
        <ele>596</ele>
        <time>2026-02-10T11:29:02.000Z</time>
      </trkpt>
      <trkpt lat="43.62059" lon="6.04133">
        <ele>596</ele>
        <time>2026-02-10T11:29:04.000Z</time>
      </trkpt>
      <trkpt lat="43.62058" lon="6.04135">
        <ele>596</ele>
        <time>2026-02-10T11:29:06.000Z</time>
      </trkpt>
      <trkpt lat="43.62058" lon="6.04136">
        <ele>596</ele>
        <time>2026-02-10T11:29:07.000Z</time>
      </trkpt>
      <trkpt lat="43.62058" lon="6.04137">
        <ele>596</ele>
        <time>2026-02-10T11:29:08.000Z</time>
      </trkpt>
      <trkpt lat="43.62058" lon="6.04139">
        <ele>596</ele>
        <time>2026-02-10T11:29:10.000Z</time>
      </trkpt>
      <trkpt lat="43.62058" lon="6.0414">
        <ele>596</ele>
        <time>2026-02-10T11:29:11.000Z</time>
      </trkpt>
      <trkpt lat="43.62058" lon="6.04141">
        <ele>596</ele>
        <time>2026-02-10T11:29:12.000Z</time>
      </trkpt>
      <trkpt lat="43.62058" lon="6.04141">
        <ele>596</ele>
        <time>2026-02-10T11:29:12.000Z</time>
      </trkpt>
      <trkpt lat="43.62058" lon="6.04141">
        <ele>596</ele>
        <time>2026-02-10T11:29:12.000Z</time>
      </trkpt>
      <trkpt lat="43.62058" lon="6.04141">
        <ele>596</ele>
        <time>2026-02-10T11:29:12.000Z</time>
      </trkpt>
      <trkpt lat="43.62059" lon="6.04141">
        <ele>596</ele>
        <time>2026-02-10T11:29:13.000Z</time>
      </trkpt>
      <trkpt lat="43.62059" lon="6.04142">
        <ele>596</ele>
        <time>2026-02-10T11:29:14.000Z</time>
      </trkpt>
      <trkpt lat="43.62059" lon="6.04142">
        <ele>596</ele>
        <time>2026-02-10T11:29:14.000Z</time>
      </trkpt>
      <trkpt lat="43.62059" lon="6.04142">
        <ele>596</ele>
        <time>2026-02-10T11:29:14.000Z</time>
      </trkpt>
      <trkpt lat="43.62059" lon="6.04142">
        <ele>596</ele>
        <time>2026-02-10T11:29:14.000Z</time>
      </trkpt>
      <trkpt lat="43.6206" lon="6.04142">
        <ele>596</ele>
        <time>2026-02-10T11:29:15.000Z</time>
      </trkpt>
      <trkpt lat="43.6206" lon="6.04142">
        <ele>596</ele>
        <time>2026-02-10T11:29:15.000Z</time>
      </trkpt>
      <trkpt lat="43.6206" lon="6.04142">
        <ele>596</ele>
        <time>2026-02-10T11:29:15.000Z</time>
      </trkpt>
      <trkpt lat="43.62059" lon="6.04143">
        <ele>596</ele>
        <time>2026-02-10T11:29:16.000Z</time>
      </trkpt>
      <trkpt lat="43.62059" lon="6.04144">
        <ele>596</ele>
        <time>2026-02-10T11:29:17.000Z</time>
      </trkpt>
      <trkpt lat="43.62059" lon="6.04145">
        <ele>597</ele>
        <time>2026-02-10T11:29:28.000Z</time>
      </trkpt>
      <trkpt lat="43.62059" lon="6.04147">
        <ele>597</ele>
        <time>2026-02-10T11:29:30.000Z</time>
      </trkpt>
      <trkpt lat="43.62059" lon="6.04148">
        <ele>597</ele>
        <time>2026-02-10T11:29:31.000Z</time>
      </trkpt>
      <trkpt lat="43.62059" lon="6.04149">
        <ele>597</ele>
        <time>2026-02-10T11:29:32.000Z</time>
      </trkpt>
      <trkpt lat="43.62059" lon="6.0415">
        <ele>597</ele>
        <time>2026-02-10T11:29:33.000Z</time>
      </trkpt>
      <trkpt lat="43.62059" lon="6.04151">
        <ele>597</ele>
        <time>2026-02-10T11:29:34.000Z</time>
      </trkpt>
      <trkpt lat="43.62059" lon="6.04151">
        <ele>597</ele>
        <time>2026-02-10T11:29:34.000Z</time>
      </trkpt>
      <trkpt lat="43.62058" lon="6.04151">
        <ele>597</ele>
        <time>2026-02-10T11:29:35.000Z</time>
      </trkpt>
      <trkpt lat="43.62058" lon="6.04151">
        <ele>597</ele>
        <time>2026-02-10T11:29:35.000Z</time>
      </trkpt>
      <trkpt lat="43.62058" lon="6.04151">
        <ele>597</ele>
        <time>2026-02-10T11:29:35.000Z</time>
      </trkpt>
      <trkpt lat="43.62058" lon="6.04151">
        <ele>597</ele>
        <time>2026-02-10T11:29:35.000Z</time>
      </trkpt>
      <trkpt lat="43.62058" lon="6.04151">
        <ele>597</ele>
        <time>2026-02-10T11:29:35.000Z</time>
      </trkpt>
      <trkpt lat="43.62058" lon="6.04151">
        <ele>597</ele>
        <time>2026-02-10T11:29:35.000Z</time>
      </trkpt>
      <trkpt lat="43.62058" lon="6.04151">
        <ele>597</ele>
        <time>2026-02-10T11:29:35.000Z</time>
      </trkpt>
      <trkpt lat="43.62058" lon="6.04151">
        <ele>597</ele>
        <time>2026-02-10T11:29:35.000Z</time>
      </trkpt>
      <trkpt lat="43.62058" lon="6.04152">
        <ele>597</ele>
        <time>2026-02-10T11:29:36.000Z</time>
      </trkpt>
      <trkpt lat="43.62058" lon="6.04152">
        <ele>597</ele>
        <time>2026-02-10T11:29:36.000Z</time>
      </trkpt>
      <trkpt lat="43.62058" lon="6.04152">
        <ele>597</ele>
        <time>2026-02-10T11:29:36.000Z</time>
      </trkpt>
      <trkpt lat="43.62058" lon="6.04152">
        <ele>597</ele>
        <time>2026-02-10T11:29:36.000Z</time>
      </trkpt>
      <trkpt lat="43.62058" lon="6.04152">
        <ele>597</ele>
        <time>2026-02-10T11:29:36.000Z</time>
      </trkpt>
      <trkpt lat="43.62057" lon="6.04152">
        <ele>597</ele>
        <time>2026-02-10T11:29:37.000Z</time>
      </trkpt>
      <trkpt lat="43.62057" lon="6.04153">
        <ele>597</ele>
        <time>2026-02-10T11:29:38.000Z</time>
      </trkpt>
      <trkpt lat="43.62057" lon="6.04153">
        <ele>597</ele>
        <time>2026-02-10T11:29:38.000Z</time>
      </trkpt>
      <trkpt lat="43.62057" lon="6.04153">
        <ele>597</ele>
        <time>2026-02-10T11:29:38.000Z</time>
      </trkpt>
      <trkpt lat="43.62057" lon="6.04153">
        <ele>597</ele>
        <time>2026-02-10T11:29:38.000Z</time>
      </trkpt>
      <trkpt lat="43.62057" lon="6.04154">
        <ele>597</ele>
        <time>2026-02-10T11:29:39.000Z</time>
      </trkpt>
      <trkpt lat="43.62057" lon="6.04154">
        <ele>597</ele>
        <time>2026-02-10T11:29:39.000Z</time>
      </trkpt>
      <trkpt lat="43.62057" lon="6.04154">
        <ele>597</ele>
        <time>2026-02-10T11:29:39.000Z</time>
      </trkpt>
      <trkpt lat="43.62057" lon="6.04155">
        <ele>597</ele>
        <time>2026-02-10T11:29:40.000Z</time>
      </trkpt>
      <trkpt lat="43.62057" lon="6.04155">
        <ele>597</ele>
        <time>2026-02-10T11:29:40.000Z</time>
      </trkpt>
      <trkpt lat="43.62057" lon="6.04156">
        <ele>597</ele>
        <time>2026-02-10T11:29:41.000Z</time>
      </trkpt>
      <trkpt lat="43.62057" lon="6.04156">
        <ele>597</ele>
        <time>2026-02-10T11:29:41.000Z</time>
      </trkpt>
      <trkpt lat="43.62057" lon="6.04156">
        <ele>597</ele>
        <time>2026-02-10T11:29:41.000Z</time>
      </trkpt>
      <trkpt lat="43.62056" lon="6.04156">
        <ele>597</ele>
        <time>2026-02-10T11:29:42.000Z</time>
      </trkpt>
      <trkpt lat="43.62056" lon="6.04156">
        <ele>597</ele>
        <time>2026-02-10T11:29:42.000Z</time>
      </trkpt>
      <trkpt lat="43.62056" lon="6.04156">
        <ele>597</ele>
        <time>2026-02-10T11:29:42.000Z</time>
      </trkpt>
      <trkpt lat="43.62056" lon="6.04156">
        <ele>597</ele>
        <time>2026-02-10T11:29:42.000Z</time>
      </trkpt>
      <trkpt lat="43.62056" lon="6.04157">
        <ele>597</ele>
        <time>2026-02-10T11:29:43.000Z</time>
      </trkpt>
      <trkpt lat="43.62056" lon="6.04157">
        <ele>597</ele>
        <time>2026-02-10T11:29:43.000Z</time>
      </trkpt>
      <trkpt lat="43.62056" lon="6.04157">
        <ele>597</ele>
        <time>2026-02-10T11:29:43.000Z</time>
      </trkpt>
      <trkpt lat="43.62056" lon="6.04157">
        <ele>597</ele>
        <time>2026-02-10T11:29:43.000Z</time>
      </trkpt>
      <trkpt lat="43.62056" lon="6.04157">
        <ele>597</ele>
        <time>2026-02-10T11:29:43.000Z</time>
      </trkpt>
      <trkpt lat="43.62055" lon="6.04157">
        <ele>597</ele>
        <time>2026-02-10T11:29:44.000Z</time>
      </trkpt>
      <trkpt lat="43.62055" lon="6.04157">
        <ele>597</ele>
        <time>2026-02-10T11:29:44.000Z</time>
      </trkpt>
      <trkpt lat="43.62055" lon="6.04157">
        <ele>597</ele>
        <time>2026-02-10T11:29:44.000Z</time>
      </trkpt>
      <trkpt lat="43.62055" lon="6.04157">
        <ele>597</ele>
        <time>2026-02-10T11:29:44.000Z</time>
      </trkpt>
      <trkpt lat="43.62055" lon="6.04157">
        <ele>597</ele>
        <time>2026-02-10T11:29:44.000Z</time>
      </trkpt>
      <trkpt lat="43.62055" lon="6.04157">
        <ele>597</ele>
        <time>2026-02-10T11:29:44.000Z</time>
      </trkpt>
      <trkpt lat="43.62055" lon="6.04157">
        <ele>597</ele>
        <time>2026-02-10T11:29:44.000Z</time>
      </trkpt>
      <trkpt lat="43.62055" lon="6.04157">
        <ele>597</ele>
        <time>2026-02-10T11:29:44.000Z</time>
      </trkpt>
      <trkpt lat="43.62054" lon="6.04157">
        <ele>598</ele>
        <time>2026-02-10T11:29:55.000Z</time>
      </trkpt>
      <trkpt lat="43.62054" lon="6.04157">
        <ele>598</ele>
        <time>2026-02-10T11:29:55.000Z</time>
      </trkpt>
      <trkpt lat="43.62054" lon="6.04157">
        <ele>598</ele>
        <time>2026-02-10T11:29:55.000Z</time>
      </trkpt>
      <trkpt lat="43.62054" lon="6.04157">
        <ele>598</ele>
        <time>2026-02-10T11:29:55.000Z</time>
      </trkpt>
      <trkpt lat="43.62054" lon="6.04157">
        <ele>598</ele>
        <time>2026-02-10T11:29:55.000Z</time>
      </trkpt>
      <trkpt lat="43.62053" lon="6.04158">
        <ele>598</ele>
        <time>2026-02-10T11:29:56.000Z</time>
      </trkpt>
      <trkpt lat="43.62053" lon="6.04158">
        <ele>598</ele>
        <time>2026-02-10T11:29:56.000Z</time>
      </trkpt>
      <trkpt lat="43.62053" lon="6.04158">
        <ele>598</ele>
        <time>2026-02-10T11:29:56.000Z</time>
      </trkpt>
      <trkpt lat="43.62053" lon="6.04158">
        <ele>598</ele>
        <time>2026-02-10T11:29:56.000Z</time>
      </trkpt>
      <trkpt lat="43.62053" lon="6.04158">
        <ele>598</ele>
        <time>2026-02-10T11:29:56.000Z</time>
      </trkpt>
      <trkpt lat="43.62053" lon="6.04158">
        <ele>598</ele>
        <time>2026-02-10T11:29:56.000Z</time>
      </trkpt>
      <trkpt lat="43.62053" lon="6.04158">
        <ele>598</ele>
        <time>2026-02-10T11:29:56.000Z</time>
      </trkpt>
      <trkpt lat="43.62053" lon="6.04158">
        <ele>598</ele>
        <time>2026-02-10T11:29:56.000Z</time>
      </trkpt>
      <trkpt lat="43.62053" lon="6.04158">
        <ele>598</ele>
        <time>2026-02-10T11:29:56.000Z</time>
      </trkpt>
      <trkpt lat="43.62053" lon="6.04158">
        <ele>598</ele>
        <time>2026-02-10T11:29:56.000Z</time>
      </trkpt>
      <trkpt lat="43.62053" lon="6.04158">
        <ele>598</ele>
        <time>2026-02-10T11:29:56.000Z</time>
      </trkpt>
      <trkpt lat="43.62053" lon="6.04158">
        <ele>598</ele>
        <time>2026-02-10T11:29:56.000Z</time>
      </trkpt>
      <trkpt lat="43.62053" lon="6.04158">
        <ele>598</ele>
        <time>2026-02-10T11:29:56.000Z</time>
      </trkpt>
      <trkpt lat="43.62053" lon="6.04158">
        <ele>598</ele>
        <time>2026-02-10T11:29:56.000Z</time>
      </trkpt>
      <trkpt lat="43.62053" lon="6.04158">
        <ele>598</ele>
        <time>2026-02-10T11:29:56.000Z</time>
      </trkpt>
      <trkpt lat="43.62053" lon="6.04158">
        <ele>598</ele>
        <time>2026-02-10T11:29:56.000Z</time>
      </trkpt>
      <trkpt lat="43.62053" lon="6.04158">
        <ele>598</ele>
        <time>2026-02-10T11:29:56.000Z</time>
      </trkpt>
      <trkpt lat="43.62053" lon="6.04159">
        <ele>598</ele>
        <time>2026-02-10T11:29:57.000Z</time>
      </trkpt>
      <trkpt lat="43.62053" lon="6.04159">
        <ele>598</ele>
        <time>2026-02-10T11:29:57.000Z</time>
      </trkpt>
      <trkpt lat="43.62053" lon="6.04159">
        <ele>598</ele>
        <time>2026-02-10T11:29:57.000Z</time>
      </trkpt>
      <trkpt lat="43.62054" lon="6.04159">
        <ele>598</ele>
        <time>2026-02-10T11:29:58.000Z</time>
      </trkpt>
      <trkpt lat="43.62054" lon="6.04159">
        <ele>598</ele>
        <time>2026-02-10T11:29:58.000Z</time>
      </trkpt>
      <trkpt lat="43.62054" lon="6.04159">
        <ele>598</ele>
        <time>2026-02-10T11:29:58.000Z</time>
      </trkpt>
      <trkpt lat="43.62054" lon="6.04159">
        <ele>598</ele>
        <time>2026-02-10T11:29:58.000Z</time>
      </trkpt>
      <trkpt lat="43.62054" lon="6.04159">
        <ele>598</ele>
        <time>2026-02-10T11:29:58.000Z</time>
      </trkpt>
      <trkpt lat="43.62054" lon="6.04159">
        <ele>598</ele>
        <time>2026-02-10T11:29:58.000Z</time>
      </trkpt>
      <trkpt lat="43.62053" lon="6.0416">
        <ele>598</ele>
        <time>2026-02-10T11:29:59.000Z</time>
      </trkpt>
      <trkpt lat="43.62053" lon="6.0416">
        <ele>598</ele>
        <time>2026-02-10T11:29:59.000Z</time>
      </trkpt>
      <trkpt lat="43.62053" lon="6.04159">
        <ele>598</ele>
        <time>2026-02-10T11:30:00.000Z</time>
      </trkpt>
      <trkpt lat="43.62053" lon="6.04159">
        <ele>598</ele>
        <time>2026-02-10T11:30:00.000Z</time>
      </trkpt>
      <trkpt lat="43.62053" lon="6.04159">
        <ele>598</ele>
        <time>2026-02-10T11:30:00.000Z</time>
      </trkpt>
      <trkpt lat="43.62053" lon="6.04159">
        <ele>598</ele>
        <time>2026-02-10T11:30:00.000Z</time>
      </trkpt>
      <trkpt lat="43.62053" lon="6.04159">
        <ele>598</ele>
        <time>2026-02-10T11:30:00.000Z</time>
      </trkpt>
      <trkpt lat="43.62053" lon="6.0416">
        <ele>598</ele>
        <time>2026-02-10T11:30:01.000Z</time>
      </trkpt>
      <trkpt lat="43.62053" lon="6.0416">
        <ele>598</ele>
        <time>2026-02-10T11:30:01.000Z</time>
      </trkpt>
      <trkpt lat="43.62053" lon="6.0416">
        <ele>598</ele>
        <time>2026-02-10T11:30:01.000Z</time>
      </trkpt>
      <trkpt lat="43.62053" lon="6.0416">
        <ele>598</ele>
        <time>2026-02-10T11:30:01.000Z</time>
      </trkpt>
      <trkpt lat="43.62053" lon="6.0416">
        <ele>598</ele>
        <time>2026-02-10T11:30:01.000Z</time>
      </trkpt>
      <trkpt lat="43.62053" lon="6.0416">
        <ele>598</ele>
        <time>2026-02-10T11:30:01.000Z</time>
      </trkpt>
      <trkpt lat="43.62053" lon="6.0416">
        <ele>598</ele>
        <time>2026-02-10T11:30:01.000Z</time>
      </trkpt>
      <trkpt lat="43.62053" lon="6.04161">
        <ele>598</ele>
        <time>2026-02-10T11:30:02.000Z</time>
      </trkpt>
      <trkpt lat="43.62053" lon="6.04161">
        <ele>598</ele>
        <time>2026-02-10T11:30:02.000Z</time>
      </trkpt>
      <trkpt lat="43.62053" lon="6.04161">
        <ele>598</ele>
        <time>2026-02-10T11:30:02.000Z</time>
      </trkpt>
      <trkpt lat="43.62053" lon="6.04161">
        <ele>598</ele>
        <time>2026-02-10T11:30:02.000Z</time>
      </trkpt>
      <trkpt lat="43.62053" lon="6.04161">
        <ele>598</ele>
        <time>2026-02-10T11:30:02.000Z</time>
      </trkpt>
      <trkpt lat="43.62053" lon="6.04161">
        <ele>598</ele>
        <time>2026-02-10T11:30:02.000Z</time>
      </trkpt>
      <trkpt lat="43.62053" lon="6.04161">
        <ele>598</ele>
        <time>2026-02-10T11:30:02.000Z</time>
      </trkpt>
      <trkpt lat="43.62054" lon="6.04161">
        <ele>598</ele>
        <time>2026-02-10T11:30:03.000Z</time>
      </trkpt>
      <trkpt lat="43.62054" lon="6.04162">
        <ele>598</ele>
        <time>2026-02-10T11:30:04.000Z</time>
      </trkpt>
      <trkpt lat="43.62054" lon="6.04162">
        <ele>598</ele>
        <time>2026-02-10T11:30:04.000Z</time>
      </trkpt>
      <trkpt lat="43.62054" lon="6.04162">
        <ele>598</ele>
        <time>2026-02-10T11:30:04.000Z</time>
      </trkpt>
      <trkpt lat="43.62054" lon="6.04162">
        <ele>598</ele>
        <time>2026-02-10T11:30:04.000Z</time>
      </trkpt>
      <trkpt lat="43.62054" lon="6.04162">
        <ele>598</ele>
        <time>2026-02-10T11:30:04.000Z</time>
      </trkpt>
      <trkpt lat="43.62054" lon="6.04163">
        <ele>598</ele>
        <time>2026-02-10T11:30:05.000Z</time>
      </trkpt>
      <trkpt lat="43.62054" lon="6.04163">
        <ele>598</ele>
        <time>2026-02-10T11:30:05.000Z</time>
      </trkpt>
      <trkpt lat="43.62054" lon="6.04163">
        <ele>598</ele>
        <time>2026-02-10T11:30:05.000Z</time>
      </trkpt>
      <trkpt lat="43.62054" lon="6.04163">
        <ele>598</ele>
        <time>2026-02-10T11:30:05.000Z</time>
      </trkpt>
      <trkpt lat="43.62054" lon="6.04163">
        <ele>598</ele>
        <time>2026-02-10T11:30:05.000Z</time>
      </trkpt>
      <trkpt lat="43.62054" lon="6.04164">
        <ele>598</ele>
        <time>2026-02-10T11:30:06.000Z</time>
      </trkpt>
      <trkpt lat="43.62054" lon="6.04164">
        <ele>598</ele>
        <time>2026-02-10T11:30:06.000Z</time>
      </trkpt>
      <trkpt lat="43.62054" lon="6.04164">
        <ele>598</ele>
        <time>2026-02-10T11:30:06.000Z</time>
      </trkpt>
      <trkpt lat="43.62054" lon="6.04165">
        <ele>598</ele>
        <time>2026-02-10T11:30:07.000Z</time>
      </trkpt>
      <trkpt lat="43.62054" lon="6.04165">
        <ele>598</ele>
        <time>2026-02-10T11:30:07.000Z</time>
      </trkpt>
      <trkpt lat="43.62054" lon="6.04165">
        <ele>598</ele>
        <time>2026-02-10T11:30:07.000Z</time>
      </trkpt>
      <trkpt lat="43.62054" lon="6.04165">
        <ele>598</ele>
        <time>2026-02-10T11:30:07.000Z</time>
      </trkpt>
      <trkpt lat="43.62054" lon="6.04165">
        <ele>598</ele>
        <time>2026-02-10T11:30:07.000Z</time>
      </trkpt>
      <trkpt lat="43.62054" lon="6.04166">
        <ele>598</ele>
        <time>2026-02-10T11:30:08.000Z</time>
      </trkpt>
      <trkpt lat="43.62054" lon="6.04166">
        <ele>598</ele>
        <time>2026-02-10T11:30:08.000Z</time>
      </trkpt>
      <trkpt lat="43.62054" lon="6.04166">
        <ele>598</ele>
        <time>2026-02-10T11:30:08.000Z</time>
      </trkpt>
      <trkpt lat="43.62054" lon="6.04166">
        <ele>598</ele>
        <time>2026-02-10T11:30:08.000Z</time>
      </trkpt>
      <trkpt lat="43.62054" lon="6.04166">
        <ele>598</ele>
        <time>2026-02-10T11:30:08.000Z</time>
      </trkpt>
      <trkpt lat="43.62054" lon="6.04166">
        <ele>598</ele>
        <time>2026-02-10T11:30:08.000Z</time>
      </trkpt>
      <trkpt lat="43.62054" lon="6.04167">
        <ele>598</ele>
        <time>2026-02-10T11:30:09.000Z</time>
      </trkpt>
      <trkpt lat="43.62054" lon="6.04166">
        <ele>598</ele>
        <time>2026-02-10T11:30:10.000Z</time>
      </trkpt>
      <trkpt lat="43.62054" lon="6.04166">
        <ele>598</ele>
        <time>2026-02-10T11:30:10.000Z</time>
      </trkpt>
      <trkpt lat="43.62054" lon="6.04166">
        <ele>598</ele>
        <time>2026-02-10T11:30:10.000Z</time>
      </trkpt>
      <trkpt lat="43.62054" lon="6.04166">
        <ele>598</ele>
        <time>2026-02-10T11:30:10.000Z</time>
      </trkpt>
      <trkpt lat="43.62054" lon="6.04166">
        <ele>598</ele>
        <time>2026-02-10T11:30:10.000Z</time>
      </trkpt>
      <trkpt lat="43.62054" lon="6.04166">
        <ele>598</ele>
        <time>2026-02-10T11:30:10.000Z</time>
      </trkpt>
      <trkpt lat="43.62054" lon="6.04166">
        <ele>598</ele>
        <time>2026-02-10T11:30:10.000Z</time>
      </trkpt>
      <trkpt lat="43.62054" lon="6.04166">
        <ele>598</ele>
        <time>2026-02-10T11:30:10.000Z</time>
      </trkpt>
      <trkpt lat="43.62054" lon="6.04166">
        <ele>598</ele>
        <time>2026-02-10T11:30:10.000Z</time>
      </trkpt>
      <trkpt lat="43.62053" lon="6.04166">
        <ele>598</ele>
        <time>2026-02-10T11:30:11.000Z</time>
      </trkpt>
      <trkpt lat="43.62053" lon="6.04166">
        <ele>598</ele>
        <time>2026-02-10T11:30:11.000Z</time>
      </trkpt>
      <trkpt lat="43.62053" lon="6.04166">
        <ele>598</ele>
        <time>2026-02-10T11:30:11.000Z</time>
      </trkpt>
      <trkpt lat="43.62053" lon="6.04166">
        <ele>598</ele>
        <time>2026-02-10T11:30:11.000Z</time>
      </trkpt>
      <trkpt lat="43.62053" lon="6.04165">
        <ele>598</ele>
        <time>2026-02-10T11:30:12.000Z</time>
      </trkpt>
      <trkpt lat="43.62053" lon="6.04165">
        <ele>598</ele>
        <time>2026-02-10T11:30:12.000Z</time>
      </trkpt>
      <trkpt lat="43.62053" lon="6.04166">
        <ele>598</ele>
        <time>2026-02-10T11:30:13.000Z</time>
      </trkpt>
      <trkpt lat="43.62053" lon="6.04166">
        <ele>598</ele>
        <time>2026-02-10T11:30:13.000Z</time>
      </trkpt>
      <trkpt lat="43.62053" lon="6.04165">
        <ele>598</ele>
        <time>2026-02-10T11:30:14.000Z</time>
      </trkpt>
      <trkpt lat="43.62053" lon="6.04166">
        <ele>598</ele>
        <time>2026-02-10T11:30:15.000Z</time>
      </trkpt>
      <trkpt lat="43.62052" lon="6.04165">
        <ele>598</ele>
        <time>2026-02-10T11:30:16.000Z</time>
      </trkpt>
      <trkpt lat="43.62052" lon="6.04165">
        <ele>598</ele>
        <time>2026-02-10T11:30:16.000Z</time>
      </trkpt>
      <trkpt lat="43.62052" lon="6.04165">
        <ele>598</ele>
        <time>2026-02-10T11:30:16.000Z</time>
      </trkpt>
      <trkpt lat="43.62052" lon="6.04165">
        <ele>598</ele>
        <time>2026-02-10T11:30:16.000Z</time>
      </trkpt>
      <trkpt lat="43.62052" lon="6.04165">
        <ele>598</ele>
        <time>2026-02-10T11:30:16.000Z</time>
      </trkpt>
      <trkpt lat="43.62052" lon="6.04166">
        <ele>598</ele>
        <time>2026-02-10T11:30:17.000Z</time>
      </trkpt>
      <trkpt lat="43.62052" lon="6.04165">
        <ele>598</ele>
        <time>2026-02-10T11:30:18.000Z</time>
      </trkpt>
      <trkpt lat="43.62052" lon="6.04165">
        <ele>598</ele>
        <time>2026-02-10T11:30:18.000Z</time>
      </trkpt>
      <trkpt lat="43.62052" lon="6.04165">
        <ele>598</ele>
        <time>2026-02-10T11:30:18.000Z</time>
      </trkpt>
      <trkpt lat="43.62053" lon="6.04165">
        <ele>598</ele>
        <time>2026-02-10T11:30:19.000Z</time>
      </trkpt>
      <trkpt lat="43.62053" lon="6.04165">
        <ele>598</ele>
        <time>2026-02-10T11:30:19.000Z</time>
      </trkpt>
      <trkpt lat="43.62053" lon="6.04165">
        <ele>598</ele>
        <time>2026-02-10T11:30:19.000Z</time>
      </trkpt>
      <trkpt lat="43.62053" lon="6.04165">
        <ele>598</ele>
        <time>2026-02-10T11:30:19.000Z</time>
      </trkpt>
      <trkpt lat="43.62053" lon="6.04166">
        <ele>598</ele>
        <time>2026-02-10T11:30:20.000Z</time>
      </trkpt>
      <trkpt lat="43.62053" lon="6.04166">
        <ele>598</ele>
        <time>2026-02-10T11:30:20.000Z</time>
      </trkpt>
      <trkpt lat="43.62053" lon="6.04168">
        <ele>598</ele>
        <time>2026-02-10T11:30:22.000Z</time>
      </trkpt>
      <trkpt lat="43.62054" lon="6.04168">
        <ele>598</ele>
        <time>2026-02-10T11:30:23.000Z</time>
      </trkpt>
      <trkpt lat="43.62054" lon="6.04168">
        <ele>598</ele>
        <time>2026-02-10T11:30:23.000Z</time>
      </trkpt>
      <trkpt lat="43.62054" lon="6.04169">
        <ele>598</ele>
        <time>2026-02-10T11:30:24.000Z</time>
      </trkpt>
      <trkpt lat="43.62054" lon="6.04169">
        <ele>598</ele>
        <time>2026-02-10T11:30:24.000Z</time>
      </trkpt>
      <trkpt lat="43.62055" lon="6.0417">
        <ele>598</ele>
        <time>2026-02-10T11:30:25.000Z</time>
      </trkpt>
      <trkpt lat="43.62055" lon="6.04172">
        <ele>598</ele>
        <time>2026-02-10T11:30:27.000Z</time>
      </trkpt>
      <trkpt lat="43.62056" lon="6.04172">
        <ele>598</ele>
        <time>2026-02-10T11:30:28.000Z</time>
      </trkpt>
      <trkpt lat="43.62056" lon="6.04173">
        <ele>598</ele>
        <time>2026-02-10T11:30:29.000Z</time>
      </trkpt>
      <trkpt lat="43.62056" lon="6.04173">
        <ele>598</ele>
        <time>2026-02-10T11:30:29.000Z</time>
      </trkpt>
      <trkpt lat="43.62056" lon="6.04173">
        <ele>598</ele>
        <time>2026-02-10T11:30:29.000Z</time>
      </trkpt>
      <trkpt lat="43.62056" lon="6.04174">
        <ele>598</ele>
        <time>2026-02-10T11:30:30.000Z</time>
      </trkpt>
      <trkpt lat="43.62055" lon="6.04174">
        <ele>598</ele>
        <time>2026-02-10T11:30:31.000Z</time>
      </trkpt>
      <trkpt lat="43.62055" lon="6.04175">
        <ele>599</ele>
        <time>2026-02-10T11:30:42.000Z</time>
      </trkpt>
      <trkpt lat="43.62055" lon="6.04175">
        <ele>599</ele>
        <time>2026-02-10T11:30:42.000Z</time>
      </trkpt>
      <trkpt lat="43.62055" lon="6.04176">
        <ele>599</ele>
        <time>2026-02-10T11:30:43.000Z</time>
      </trkpt>
      <trkpt lat="43.62056" lon="6.04177">
        <ele>599</ele>
        <time>2026-02-10T11:30:44.000Z</time>
      </trkpt>
      <trkpt lat="43.62056" lon="6.04178">
        <ele>599</ele>
        <time>2026-02-10T11:30:45.000Z</time>
      </trkpt>
      <trkpt lat="43.62056" lon="6.04179">
        <ele>599</ele>
        <time>2026-02-10T11:30:46.000Z</time>
      </trkpt>
      <trkpt lat="43.62055" lon="6.0418">
        <ele>599</ele>
        <time>2026-02-10T11:30:47.000Z</time>
      </trkpt>
      <trkpt lat="43.62055" lon="6.04181">
        <ele>599</ele>
        <time>2026-02-10T11:30:48.000Z</time>
      </trkpt>
      <trkpt lat="43.62056" lon="6.04182">
        <ele>599</ele>
        <time>2026-02-10T11:30:49.000Z</time>
      </trkpt>
      <trkpt lat="43.62055" lon="6.04183">
        <ele>599</ele>
        <time>2026-02-10T11:30:50.000Z</time>
      </trkpt>
      <trkpt lat="43.62056" lon="6.04184">
        <ele>599</ele>
        <time>2026-02-10T11:30:51.000Z</time>
      </trkpt>
      <trkpt lat="43.62056" lon="6.04185">
        <ele>599</ele>
        <time>2026-02-10T11:30:52.000Z</time>
      </trkpt>
      <trkpt lat="43.62056" lon="6.04187">
        <ele>599</ele>
        <time>2026-02-10T11:30:54.000Z</time>
      </trkpt>
      <trkpt lat="43.62056" lon="6.04188">
        <ele>599</ele>
        <time>2026-02-10T11:30:55.000Z</time>
      </trkpt>
      <trkpt lat="43.62055" lon="6.04189">
        <ele>600</ele>
        <time>2026-02-10T11:31:07.000Z</time>
      </trkpt>
      <trkpt lat="43.62056" lon="6.0419">
        <ele>599</ele>
        <time>2026-02-10T11:31:08.000Z</time>
      </trkpt>
      <trkpt lat="43.62056" lon="6.04191">
        <ele>599</ele>
        <time>2026-02-10T11:31:09.000Z</time>
      </trkpt>
      <trkpt lat="43.62055" lon="6.04193">
        <ele>600</ele>
        <time>2026-02-10T11:31:21.000Z</time>
      </trkpt>
      <trkpt lat="43.62056" lon="6.04194">
        <ele>599</ele>
        <time>2026-02-10T11:31:22.000Z</time>
      </trkpt>
      <trkpt lat="43.62056" lon="6.04195">
        <ele>599</ele>
        <time>2026-02-10T11:31:23.000Z</time>
      </trkpt>
      <trkpt lat="43.62056" lon="6.04196">
        <ele>599</ele>
        <time>2026-02-10T11:31:24.000Z</time>
      </trkpt>
      <trkpt lat="43.62056" lon="6.04198">
        <ele>599</ele>
        <time>2026-02-10T11:31:26.000Z</time>
      </trkpt>
      <trkpt lat="43.62057" lon="6.04199">
        <ele>599</ele>
        <time>2026-02-10T11:31:27.000Z</time>
      </trkpt>
      <trkpt lat="43.62057" lon="6.04201">
        <ele>600</ele>
        <time>2026-02-10T11:31:39.000Z</time>
      </trkpt>
      <trkpt lat="43.62057" lon="6.04202">
        <ele>600</ele>
        <time>2026-02-10T11:31:40.000Z</time>
      </trkpt>
      <trkpt lat="43.62057" lon="6.04203">
        <ele>600</ele>
        <time>2026-02-10T11:31:41.000Z</time>
      </trkpt>
      <trkpt lat="43.62057" lon="6.04204">
        <ele>600</ele>
        <time>2026-02-10T11:31:42.000Z</time>
      </trkpt>
      <trkpt lat="43.62057" lon="6.04205">
        <ele>600</ele>
        <time>2026-02-10T11:31:43.000Z</time>
      </trkpt>
      <trkpt lat="43.62058" lon="6.04206">
        <ele>600</ele>
        <time>2026-02-10T11:31:44.000Z</time>
      </trkpt>
      <trkpt lat="43.62058" lon="6.04207">
        <ele>600</ele>
        <time>2026-02-10T11:31:45.000Z</time>
      </trkpt>
      <trkpt lat="43.62058" lon="6.04209">
        <ele>600</ele>
        <time>2026-02-10T11:31:47.000Z</time>
      </trkpt>
      <trkpt lat="43.62058" lon="6.0421">
        <ele>600</ele>
        <time>2026-02-10T11:31:48.000Z</time>
      </trkpt>
      <trkpt lat="43.62058" lon="6.04211">
        <ele>600</ele>
        <time>2026-02-10T11:31:49.000Z</time>
      </trkpt>
      <trkpt lat="43.62058" lon="6.04212">
        <ele>600</ele>
        <time>2026-02-10T11:31:50.000Z</time>
      </trkpt>
      <trkpt lat="43.62059" lon="6.04214">
        <ele>600</ele>
        <time>2026-02-10T11:31:52.000Z</time>
      </trkpt>
      <trkpt lat="43.62059" lon="6.04215">
        <ele>600</ele>
        <time>2026-02-10T11:31:53.000Z</time>
      </trkpt>
      <trkpt lat="43.62059" lon="6.04216">
        <ele>600</ele>
        <time>2026-02-10T11:31:54.000Z</time>
      </trkpt>
      <trkpt lat="43.62059" lon="6.04218">
        <ele>601</ele>
        <time>2026-02-10T11:32:06.000Z</time>
      </trkpt>
      <trkpt lat="43.62059" lon="6.04219">
        <ele>601</ele>
        <time>2026-02-10T11:32:07.000Z</time>
      </trkpt>
      <trkpt lat="43.6206" lon="6.0422">
        <ele>601</ele>
        <time>2026-02-10T11:32:08.000Z</time>
      </trkpt>
      <trkpt lat="43.6206" lon="6.04222">
        <ele>601</ele>
        <time>2026-02-10T11:32:10.000Z</time>
      </trkpt>
      <trkpt lat="43.6206" lon="6.04224">
        <ele>601</ele>
        <time>2026-02-10T11:32:12.000Z</time>
      </trkpt>
      <trkpt lat="43.6206" lon="6.04225">
        <ele>601</ele>
        <time>2026-02-10T11:32:13.000Z</time>
      </trkpt>
      <trkpt lat="43.6206" lon="6.04227">
        <ele>601</ele>
        <time>2026-02-10T11:32:15.000Z</time>
      </trkpt>
      <trkpt lat="43.6206" lon="6.04228">
        <ele>601</ele>
        <time>2026-02-10T11:32:16.000Z</time>
      </trkpt>
      <trkpt lat="43.6206" lon="6.04229">
        <ele>601</ele>
        <time>2026-02-10T11:32:17.000Z</time>
      </trkpt>
      <trkpt lat="43.6206" lon="6.04231">
        <ele>601</ele>
        <time>2026-02-10T11:32:19.000Z</time>
      </trkpt>
      <trkpt lat="43.6206" lon="6.04232">
        <ele>601</ele>
        <time>2026-02-10T11:32:20.000Z</time>
      </trkpt>
      <trkpt lat="43.6206" lon="6.04233">
        <ele>601</ele>
        <time>2026-02-10T11:32:21.000Z</time>
      </trkpt>
      <trkpt lat="43.6206" lon="6.04235">
        <ele>601</ele>
        <time>2026-02-10T11:32:23.000Z</time>
      </trkpt>
      <trkpt lat="43.6206" lon="6.04236">
        <ele>601</ele>
        <time>2026-02-10T11:32:24.000Z</time>
      </trkpt>
      <trkpt lat="43.6206" lon="6.04238">
        <ele>601</ele>
        <time>2026-02-10T11:32:26.000Z</time>
      </trkpt>
      <trkpt lat="43.6206" lon="6.04239">
        <ele>601</ele>
        <time>2026-02-10T11:32:27.000Z</time>
      </trkpt>
      <trkpt lat="43.6206" lon="6.0424">
        <ele>601</ele>
        <time>2026-02-10T11:32:28.000Z</time>
      </trkpt>
      <trkpt lat="43.6206" lon="6.04241">
        <ele>601</ele>
        <time>2026-02-10T11:32:29.000Z</time>
      </trkpt>
      <trkpt lat="43.62059" lon="6.04242">
        <ele>601</ele>
        <time>2026-02-10T11:32:30.000Z</time>
      </trkpt>
      <trkpt lat="43.62059" lon="6.04244">
        <ele>601</ele>
        <time>2026-02-10T11:32:32.000Z</time>
      </trkpt>
      <trkpt lat="43.62058" lon="6.04245">
        <ele>601</ele>
        <time>2026-02-10T11:32:33.000Z</time>
      </trkpt>
      <trkpt lat="43.62057" lon="6.04247">
        <ele>601</ele>
        <time>2026-02-10T11:32:35.000Z</time>
      </trkpt>
      <trkpt lat="43.62057" lon="6.04248">
        <ele>601</ele>
        <time>2026-02-10T11:32:36.000Z</time>
      </trkpt>
      <trkpt lat="43.62056" lon="6.04248">
        <ele>602</ele>
        <time>2026-02-10T11:32:47.000Z</time>
      </trkpt>
      <trkpt lat="43.62056" lon="6.0425">
        <ele>602</ele>
        <time>2026-02-10T11:32:49.000Z</time>
      </trkpt>
      <trkpt lat="43.62056" lon="6.04251">
        <ele>602</ele>
        <time>2026-02-10T11:32:50.000Z</time>
      </trkpt>
      <trkpt lat="43.62056" lon="6.04252">
        <ele>602</ele>
        <time>2026-02-10T11:32:51.000Z</time>
      </trkpt>
      <trkpt lat="43.62055" lon="6.04253">
        <ele>602</ele>
        <time>2026-02-10T11:32:52.000Z</time>
      </trkpt>
      <trkpt lat="43.62055" lon="6.04254">
        <ele>602</ele>
        <time>2026-02-10T11:32:53.000Z</time>
      </trkpt>
      <trkpt lat="43.62054" lon="6.04255">
        <ele>602</ele>
        <time>2026-02-10T11:32:54.000Z</time>
      </trkpt>
      <trkpt lat="43.62054" lon="6.04256">
        <ele>602</ele>
        <time>2026-02-10T11:32:55.000Z</time>
      </trkpt>
      <trkpt lat="43.62053" lon="6.04257">
        <ele>602</ele>
        <time>2026-02-10T11:32:56.000Z</time>
      </trkpt>
      <trkpt lat="43.62053" lon="6.04258">
        <ele>602</ele>
        <time>2026-02-10T11:32:57.000Z</time>
      </trkpt>
      <trkpt lat="43.62052" lon="6.04259">
        <ele>602</ele>
        <time>2026-02-10T11:32:58.000Z</time>
      </trkpt>
      <trkpt lat="43.62052" lon="6.0426">
        <ele>602</ele>
        <time>2026-02-10T11:32:59.000Z</time>
      </trkpt>
      <trkpt lat="43.62051" lon="6.04261">
        <ele>602</ele>
        <time>2026-02-10T11:33:00.000Z</time>
      </trkpt>
      <trkpt lat="43.6205" lon="6.04262">
        <ele>602</ele>
        <time>2026-02-10T11:33:01.000Z</time>
      </trkpt>
      <trkpt lat="43.6205" lon="6.04262">
        <ele>602</ele>
        <time>2026-02-10T11:33:01.000Z</time>
      </trkpt>
      <trkpt lat="43.62049" lon="6.04263">
        <ele>603</ele>
        <time>2026-02-10T11:33:13.000Z</time>
      </trkpt>
      <trkpt lat="43.62049" lon="6.04265">
        <ele>603</ele>
        <time>2026-02-10T11:33:15.000Z</time>
      </trkpt>
      <trkpt lat="43.62049" lon="6.04265">
        <ele>603</ele>
        <time>2026-02-10T11:33:15.000Z</time>
      </trkpt>
      <trkpt lat="43.62048" lon="6.04265">
        <ele>603</ele>
        <time>2026-02-10T11:33:16.000Z</time>
      </trkpt>
      <trkpt lat="43.62047" lon="6.04266">
        <ele>603</ele>
        <time>2026-02-10T11:33:17.000Z</time>
      </trkpt>
      <trkpt lat="43.62047" lon="6.04266">
        <ele>603</ele>
        <time>2026-02-10T11:33:17.000Z</time>
      </trkpt>
      <trkpt lat="43.62046" lon="6.04267">
        <ele>604</ele>
        <time>2026-02-10T11:33:29.000Z</time>
      </trkpt>
      <trkpt lat="43.62046" lon="6.04268">
        <ele>604</ele>
        <time>2026-02-10T11:33:30.000Z</time>
      </trkpt>
      <trkpt lat="43.62045" lon="6.04269">
        <ele>604</ele>
        <time>2026-02-10T11:33:31.000Z</time>
      </trkpt>
      <trkpt lat="43.62045" lon="6.0427">
        <ele>604</ele>
        <time>2026-02-10T11:33:32.000Z</time>
      </trkpt>
      <trkpt lat="43.62045" lon="6.04271">
        <ele>604</ele>
        <time>2026-02-10T11:33:33.000Z</time>
      </trkpt>
      <trkpt lat="43.62044" lon="6.04272">
        <ele>604</ele>
        <time>2026-02-10T11:33:34.000Z</time>
      </trkpt>
      <trkpt lat="43.62044" lon="6.04273">
        <ele>604</ele>
        <time>2026-02-10T11:33:35.000Z</time>
      </trkpt>
      <trkpt lat="43.62043" lon="6.04274">
        <ele>604</ele>
        <time>2026-02-10T11:33:36.000Z</time>
      </trkpt>
      <trkpt lat="43.62043" lon="6.04275">
        <ele>604</ele>
        <time>2026-02-10T11:33:37.000Z</time>
      </trkpt>
      <trkpt lat="43.62042" lon="6.04276">
        <ele>604</ele>
        <time>2026-02-10T11:33:38.000Z</time>
      </trkpt>
      <trkpt lat="43.62042" lon="6.04278">
        <ele>604</ele>
        <time>2026-02-10T11:33:40.000Z</time>
      </trkpt>
      <trkpt lat="43.62042" lon="6.04279">
        <ele>604</ele>
        <time>2026-02-10T11:33:41.000Z</time>
      </trkpt>
      <trkpt lat="43.62042" lon="6.0428">
        <ele>604</ele>
        <time>2026-02-10T11:33:42.000Z</time>
      </trkpt>
      <trkpt lat="43.62041" lon="6.0428">
        <ele>604</ele>
        <time>2026-02-10T11:33:43.000Z</time>
      </trkpt>
      <trkpt lat="43.6204" lon="6.04281">
        <ele>604</ele>
        <time>2026-02-10T11:33:44.000Z</time>
      </trkpt>
      <trkpt lat="43.6204" lon="6.04282">
        <ele>604</ele>
        <time>2026-02-10T11:33:45.000Z</time>
      </trkpt>
      <trkpt lat="43.62039" lon="6.04283">
        <ele>604</ele>
        <time>2026-02-10T11:33:46.000Z</time>
      </trkpt>
      <trkpt lat="43.62038" lon="6.04284">
        <ele>605</ele>
        <time>2026-02-10T11:33:58.000Z</time>
      </trkpt>
      <trkpt lat="43.62038" lon="6.04284">
        <ele>605</ele>
        <time>2026-02-10T11:33:58.000Z</time>
      </trkpt>
      <trkpt lat="43.62037" lon="6.04285">
        <ele>605</ele>
        <time>2026-02-10T11:33:59.000Z</time>
      </trkpt>
      <trkpt lat="43.62036" lon="6.04286">
        <ele>605</ele>
        <time>2026-02-10T11:34:00.000Z</time>
      </trkpt>
      <trkpt lat="43.62036" lon="6.04287">
        <ele>605</ele>
        <time>2026-02-10T11:34:01.000Z</time>
      </trkpt>
      <trkpt lat="43.62035" lon="6.04288">
        <ele>605</ele>
        <time>2026-02-10T11:34:02.000Z</time>
      </trkpt>
      <trkpt lat="43.62035" lon="6.04289">
        <ele>605</ele>
        <time>2026-02-10T11:34:03.000Z</time>
      </trkpt>
      <trkpt lat="43.62034" lon="6.0429">
        <ele>605</ele>
        <time>2026-02-10T11:34:04.000Z</time>
      </trkpt>
      <trkpt lat="43.62033" lon="6.04291">
        <ele>605</ele>
        <time>2026-02-10T11:34:05.000Z</time>
      </trkpt>
      <trkpt lat="43.62033" lon="6.04292">
        <ele>605</ele>
        <time>2026-02-10T11:34:06.000Z</time>
      </trkpt>
      <trkpt lat="43.62032" lon="6.04293">
        <ele>605</ele>
        <time>2026-02-10T11:34:07.000Z</time>
      </trkpt>
      <trkpt lat="43.62032" lon="6.04294">
        <ele>605</ele>
        <time>2026-02-10T11:34:08.000Z</time>
      </trkpt>
      <trkpt lat="43.62031" lon="6.04296">
        <ele>606</ele>
        <time>2026-02-10T11:34:20.000Z</time>
      </trkpt>
      <trkpt lat="43.62031" lon="6.04296">
        <ele>606</ele>
        <time>2026-02-10T11:34:20.000Z</time>
      </trkpt>
      <trkpt lat="43.6203" lon="6.04298">
        <ele>606</ele>
        <time>2026-02-10T11:34:22.000Z</time>
      </trkpt>
      <trkpt lat="43.6203" lon="6.04299">
        <ele>606</ele>
        <time>2026-02-10T11:34:23.000Z</time>
      </trkpt>
      <trkpt lat="43.62029" lon="6.043">
        <ele>606</ele>
        <time>2026-02-10T11:34:24.000Z</time>
      </trkpt>
      <trkpt lat="43.62029" lon="6.04301">
        <ele>606</ele>
        <time>2026-02-10T11:34:25.000Z</time>
      </trkpt>
      <trkpt lat="43.62028" lon="6.04302">
        <ele>606</ele>
        <time>2026-02-10T11:34:26.000Z</time>
      </trkpt>
      <trkpt lat="43.62028" lon="6.04303">
        <ele>606</ele>
        <time>2026-02-10T11:34:27.000Z</time>
      </trkpt>
      <trkpt lat="43.62027" lon="6.04304">
        <ele>606</ele>
        <time>2026-02-10T11:34:28.000Z</time>
      </trkpt>
      <trkpt lat="43.62027" lon="6.04306">
        <ele>607</ele>
        <time>2026-02-10T11:34:40.000Z</time>
      </trkpt>
      <trkpt lat="43.62026" lon="6.04307">
        <ele>607</ele>
        <time>2026-02-10T11:34:41.000Z</time>
      </trkpt>
      <trkpt lat="43.62026" lon="6.04308">
        <ele>607</ele>
        <time>2026-02-10T11:34:42.000Z</time>
      </trkpt>
      <trkpt lat="43.62025" lon="6.04309">
        <ele>607</ele>
        <time>2026-02-10T11:34:43.000Z</time>
      </trkpt>
      <trkpt lat="43.62025" lon="6.0431">
        <ele>607</ele>
        <time>2026-02-10T11:34:44.000Z</time>
      </trkpt>
      <trkpt lat="43.62024" lon="6.04312">
        <ele>607</ele>
        <time>2026-02-10T11:34:46.000Z</time>
      </trkpt>
      <trkpt lat="43.62024" lon="6.04313">
        <ele>607</ele>
        <time>2026-02-10T11:34:47.000Z</time>
      </trkpt>
      <trkpt lat="43.62023" lon="6.04314">
        <ele>607</ele>
        <time>2026-02-10T11:34:48.000Z</time>
      </trkpt>
      <trkpt lat="43.62023" lon="6.04315">
        <ele>607</ele>
        <time>2026-02-10T11:34:49.000Z</time>
      </trkpt>
      <trkpt lat="43.62022" lon="6.04317">
        <ele>607</ele>
        <time>2026-02-10T11:34:51.000Z</time>
      </trkpt>
      <trkpt lat="43.62021" lon="6.04318">
        <ele>608</ele>
        <time>2026-02-10T11:35:03.000Z</time>
      </trkpt>
      <trkpt lat="43.62021" lon="6.04319">
        <ele>608</ele>
        <time>2026-02-10T11:35:04.000Z</time>
      </trkpt>
      <trkpt lat="43.6202" lon="6.0432">
        <ele>608</ele>
        <time>2026-02-10T11:35:05.000Z</time>
      </trkpt>
      <trkpt lat="43.6202" lon="6.04321">
        <ele>608</ele>
        <time>2026-02-10T11:35:06.000Z</time>
      </trkpt>
      <trkpt lat="43.62019" lon="6.04322">
        <ele>608</ele>
        <time>2026-02-10T11:35:07.000Z</time>
      </trkpt>
      <trkpt lat="43.62019" lon="6.04323">
        <ele>608</ele>
        <time>2026-02-10T11:35:08.000Z</time>
      </trkpt>
      <trkpt lat="43.62019" lon="6.04324">
        <ele>608</ele>
        <time>2026-02-10T11:35:09.000Z</time>
      </trkpt>
      <trkpt lat="43.62018" lon="6.04325">
        <ele>608</ele>
        <time>2026-02-10T11:35:10.000Z</time>
      </trkpt>
      <trkpt lat="43.62018" lon="6.04326">
        <ele>608</ele>
        <time>2026-02-10T11:35:11.000Z</time>
      </trkpt>
      <trkpt lat="43.62017" lon="6.04327">
        <ele>608</ele>
        <time>2026-02-10T11:35:12.000Z</time>
      </trkpt>
      <trkpt lat="43.62016" lon="6.04327">
        <ele>608</ele>
        <time>2026-02-10T11:35:13.000Z</time>
      </trkpt>
      <trkpt lat="43.62016" lon="6.04328">
        <ele>608</ele>
        <time>2026-02-10T11:35:14.000Z</time>
      </trkpt>
      <trkpt lat="43.62015" lon="6.04329">
        <ele>608</ele>
        <time>2026-02-10T11:35:15.000Z</time>
      </trkpt>
      <trkpt lat="43.62015" lon="6.04331">
        <ele>609</ele>
        <time>2026-02-10T11:35:27.000Z</time>
      </trkpt>
      <trkpt lat="43.62015" lon="6.04332">
        <ele>609</ele>
        <time>2026-02-10T11:35:28.000Z</time>
      </trkpt>
      <trkpt lat="43.62015" lon="6.04333">
        <ele>609</ele>
        <time>2026-02-10T11:35:29.000Z</time>
      </trkpt>
      <trkpt lat="43.62014" lon="6.04335">
        <ele>609</ele>
        <time>2026-02-10T11:35:31.000Z</time>
      </trkpt>
      <trkpt lat="43.62013" lon="6.04336">
        <ele>609</ele>
        <time>2026-02-10T11:35:32.000Z</time>
      </trkpt>
      <trkpt lat="43.62013" lon="6.04337">
        <ele>609</ele>
        <time>2026-02-10T11:35:33.000Z</time>
      </trkpt>
      <trkpt lat="43.62012" lon="6.04338">
        <ele>609</ele>
        <time>2026-02-10T11:35:34.000Z</time>
      </trkpt>
      <trkpt lat="43.62012" lon="6.0434">
        <ele>609</ele>
        <time>2026-02-10T11:35:36.000Z</time>
      </trkpt>
      <trkpt lat="43.62012" lon="6.04341">
        <ele>609</ele>
        <time>2026-02-10T11:35:37.000Z</time>
      </trkpt>
      <trkpt lat="43.62011" lon="6.04342">
        <ele>610</ele>
        <time>2026-02-10T11:35:49.000Z</time>
      </trkpt>
      <trkpt lat="43.62011" lon="6.04343">
        <ele>610</ele>
        <time>2026-02-10T11:35:50.000Z</time>
      </trkpt>
      <trkpt lat="43.6201" lon="6.04344">
        <ele>610</ele>
        <time>2026-02-10T11:35:51.000Z</time>
      </trkpt>
      <trkpt lat="43.6201" lon="6.04346">
        <ele>610</ele>
        <time>2026-02-10T11:35:53.000Z</time>
      </trkpt>
      <trkpt lat="43.62009" lon="6.04347">
        <ele>610</ele>
        <time>2026-02-10T11:35:54.000Z</time>
      </trkpt>
      <trkpt lat="43.62009" lon="6.04348">
        <ele>610</ele>
        <time>2026-02-10T11:35:55.000Z</time>
      </trkpt>
      <trkpt lat="43.62008" lon="6.04349">
        <ele>610</ele>
        <time>2026-02-10T11:35:56.000Z</time>
      </trkpt>
      <trkpt lat="43.62007" lon="6.04351">
        <ele>610</ele>
        <time>2026-02-10T11:35:58.000Z</time>
      </trkpt>
      <trkpt lat="43.62007" lon="6.04351">
        <ele>610</ele>
        <time>2026-02-10T11:35:58.000Z</time>
      </trkpt>
      <trkpt lat="43.62006" lon="6.04352">
        <ele>610</ele>
        <time>2026-02-10T11:35:59.000Z</time>
      </trkpt>
      <trkpt lat="43.62006" lon="6.04353">
        <ele>610</ele>
        <time>2026-02-10T11:36:00.000Z</time>
      </trkpt>
      <trkpt lat="43.62005" lon="6.04354">
        <ele>611</ele>
        <time>2026-02-10T11:36:12.000Z</time>
      </trkpt>
      <trkpt lat="43.62005" lon="6.04355">
        <ele>611</ele>
        <time>2026-02-10T11:36:13.000Z</time>
      </trkpt>
      <trkpt lat="43.62005" lon="6.04357">
        <ele>611</ele>
        <time>2026-02-10T11:36:15.000Z</time>
      </trkpt>
      <trkpt lat="43.62005" lon="6.04358">
        <ele>611</ele>
        <time>2026-02-10T11:36:16.000Z</time>
      </trkpt>
      <trkpt lat="43.62004" lon="6.04359">
        <ele>611</ele>
        <time>2026-02-10T11:36:17.000Z</time>
      </trkpt>
      <trkpt lat="43.62004" lon="6.0436">
        <ele>611</ele>
        <time>2026-02-10T11:36:18.000Z</time>
      </trkpt>
      <trkpt lat="43.62003" lon="6.04361">
        <ele>611</ele>
        <time>2026-02-10T11:36:19.000Z</time>
      </trkpt>
      <trkpt lat="43.62003" lon="6.04362">
        <ele>611</ele>
        <time>2026-02-10T11:36:20.000Z</time>
      </trkpt>
      <trkpt lat="43.62002" lon="6.04363">
        <ele>611</ele>
        <time>2026-02-10T11:36:21.000Z</time>
      </trkpt>
      <trkpt lat="43.62001" lon="6.04364">
        <ele>611</ele>
        <time>2026-02-10T11:36:22.000Z</time>
      </trkpt>
      <trkpt lat="43.62001" lon="6.04366">
        <ele>611</ele>
        <time>2026-02-10T11:36:24.000Z</time>
      </trkpt>
      <trkpt lat="43.62" lon="6.04366">
        <ele>611</ele>
        <time>2026-02-10T11:36:25.000Z</time>
      </trkpt>
      <trkpt lat="43.62" lon="6.04368">
        <ele>611</ele>
        <time>2026-02-10T11:36:27.000Z</time>
      </trkpt>
      <trkpt lat="43.61999" lon="6.04369">
        <ele>612</ele>
        <time>2026-02-10T11:36:39.000Z</time>
      </trkpt>
      <trkpt lat="43.61999" lon="6.0437">
        <ele>612</ele>
        <time>2026-02-10T11:36:40.000Z</time>
      </trkpt>
      <trkpt lat="43.61998" lon="6.04371">
        <ele>612</ele>
        <time>2026-02-10T11:36:41.000Z</time>
      </trkpt>
      <trkpt lat="43.61998" lon="6.04372">
        <ele>612</ele>
        <time>2026-02-10T11:36:42.000Z</time>
      </trkpt>
      <trkpt lat="43.61997" lon="6.04374">
        <ele>612</ele>
        <time>2026-02-10T11:36:44.000Z</time>
      </trkpt>
      <trkpt lat="43.61997" lon="6.04375">
        <ele>612</ele>
        <time>2026-02-10T11:36:45.000Z</time>
      </trkpt>
      <trkpt lat="43.61997" lon="6.04376">
        <ele>612</ele>
        <time>2026-02-10T11:36:46.000Z</time>
      </trkpt>
      <trkpt lat="43.61996" lon="6.04377">
        <ele>612</ele>
        <time>2026-02-10T11:36:47.000Z</time>
      </trkpt>
      <trkpt lat="43.61996" lon="6.04378">
        <ele>612</ele>
        <time>2026-02-10T11:36:48.000Z</time>
      </trkpt>
      <trkpt lat="43.61995" lon="6.04379">
        <ele>612</ele>
        <time>2026-02-10T11:36:49.000Z</time>
      </trkpt>
      <trkpt lat="43.61995" lon="6.04381">
        <ele>612</ele>
        <time>2026-02-10T11:36:51.000Z</time>
      </trkpt>
      <trkpt lat="43.61995" lon="6.04382">
        <ele>612</ele>
        <time>2026-02-10T11:36:52.000Z</time>
      </trkpt>
      <trkpt lat="43.61994" lon="6.04383">
        <ele>612</ele>
        <time>2026-02-10T11:36:53.000Z</time>
      </trkpt>
      <trkpt lat="43.61994" lon="6.04384">
        <ele>612</ele>
        <time>2026-02-10T11:36:54.000Z</time>
      </trkpt>
      <trkpt lat="43.61994" lon="6.04386">
        <ele>612</ele>
        <time>2026-02-10T11:36:56.000Z</time>
      </trkpt>
      <trkpt lat="43.61993" lon="6.04387">
        <ele>613</ele>
        <time>2026-02-10T11:37:08.000Z</time>
      </trkpt>
      <trkpt lat="43.61993" lon="6.04388">
        <ele>613</ele>
        <time>2026-02-10T11:37:09.000Z</time>
      </trkpt>
      <trkpt lat="43.61992" lon="6.04389">
        <ele>613</ele>
        <time>2026-02-10T11:37:10.000Z</time>
      </trkpt>
      <trkpt lat="43.61992" lon="6.0439">
        <ele>613</ele>
        <time>2026-02-10T11:37:11.000Z</time>
      </trkpt>
      <trkpt lat="43.61991" lon="6.04392">
        <ele>613</ele>
        <time>2026-02-10T11:37:13.000Z</time>
      </trkpt>
      <trkpt lat="43.61991" lon="6.04393">
        <ele>613</ele>
        <time>2026-02-10T11:37:14.000Z</time>
      </trkpt>
      <trkpt lat="43.6199" lon="6.04394">
        <ele>613</ele>
        <time>2026-02-10T11:37:15.000Z</time>
      </trkpt>
      <trkpt lat="43.6199" lon="6.04396">
        <ele>613</ele>
        <time>2026-02-10T11:37:17.000Z</time>
      </trkpt>
      <trkpt lat="43.6199" lon="6.04397">
        <ele>613</ele>
        <time>2026-02-10T11:37:18.000Z</time>
      </trkpt>
      <trkpt lat="43.6199" lon="6.04398">
        <ele>613</ele>
        <time>2026-02-10T11:37:19.000Z</time>
      </trkpt>
      <trkpt lat="43.61989" lon="6.04399">
        <ele>614</ele>
        <time>2026-02-10T11:37:31.000Z</time>
      </trkpt>
      <trkpt lat="43.61988" lon="6.044">
        <ele>614</ele>
        <time>2026-02-10T11:37:32.000Z</time>
      </trkpt>
      <trkpt lat="43.61988" lon="6.04401">
        <ele>614</ele>
        <time>2026-02-10T11:37:33.000Z</time>
      </trkpt>
      <trkpt lat="43.61988" lon="6.04403">
        <ele>614</ele>
        <time>2026-02-10T11:37:35.000Z</time>
      </trkpt>
      <trkpt lat="43.61988" lon="6.04404">
        <ele>614</ele>
        <time>2026-02-10T11:37:36.000Z</time>
      </trkpt>
      <trkpt lat="43.61987" lon="6.04406">
        <ele>614</ele>
        <time>2026-02-10T11:37:38.000Z</time>
      </trkpt>
      <trkpt lat="43.61987" lon="6.04407">
        <ele>615</ele>
        <time>2026-02-10T11:37:49.000Z</time>
      </trkpt>
      <trkpt lat="43.61987" lon="6.04408">
        <ele>615</ele>
        <time>2026-02-10T11:37:50.000Z</time>
      </trkpt>
      <trkpt lat="43.61986" lon="6.04409">
        <ele>615</ele>
        <time>2026-02-10T11:37:51.000Z</time>
      </trkpt>
      <trkpt lat="43.61985" lon="6.0441">
        <ele>615</ele>
        <time>2026-02-10T11:37:52.000Z</time>
      </trkpt>
      <trkpt lat="43.61985" lon="6.04411">
        <ele>615</ele>
        <time>2026-02-10T11:37:53.000Z</time>
      </trkpt>
      <trkpt lat="43.61984" lon="6.04413">
        <ele>615</ele>
        <time>2026-02-10T11:37:55.000Z</time>
      </trkpt>
      <trkpt lat="43.61984" lon="6.04414">
        <ele>615</ele>
        <time>2026-02-10T11:37:56.000Z</time>
      </trkpt>
      <trkpt lat="43.61983" lon="6.04415">
        <ele>616</ele>
        <time>2026-02-10T11:38:08.000Z</time>
      </trkpt>
      <trkpt lat="43.61983" lon="6.04416">
        <ele>616</ele>
        <time>2026-02-10T11:38:09.000Z</time>
      </trkpt>
      <trkpt lat="43.61983" lon="6.04418">
        <ele>616</ele>
        <time>2026-02-10T11:38:11.000Z</time>
      </trkpt>
      <trkpt lat="43.61982" lon="6.04419">
        <ele>616</ele>
        <time>2026-02-10T11:38:12.000Z</time>
      </trkpt>
      <trkpt lat="43.61982" lon="6.0442">
        <ele>616</ele>
        <time>2026-02-10T11:38:13.000Z</time>
      </trkpt>
      <trkpt lat="43.61981" lon="6.04421">
        <ele>616</ele>
        <time>2026-02-10T11:38:14.000Z</time>
      </trkpt>
      <trkpt lat="43.61981" lon="6.04423">
        <ele>616</ele>
        <time>2026-02-10T11:38:16.000Z</time>
      </trkpt>
      <trkpt lat="43.6198" lon="6.04425">
        <ele>616</ele>
        <time>2026-02-10T11:38:18.000Z</time>
      </trkpt>
      <trkpt lat="43.61979" lon="6.04426">
        <ele>616</ele>
        <time>2026-02-10T11:38:19.000Z</time>
      </trkpt>
      <trkpt lat="43.61979" lon="6.04427">
        <ele>616</ele>
        <time>2026-02-10T11:38:20.000Z</time>
      </trkpt>
      <trkpt lat="43.61978" lon="6.04429">
        <ele>616</ele>
        <time>2026-02-10T11:38:22.000Z</time>
      </trkpt>
      <trkpt lat="43.61978" lon="6.0443">
        <ele>616</ele>
        <time>2026-02-10T11:38:23.000Z</time>
      </trkpt>
      <trkpt lat="43.61978" lon="6.04431">
        <ele>616</ele>
        <time>2026-02-10T11:38:24.000Z</time>
      </trkpt>
      <trkpt lat="43.61977" lon="6.04433">
        <ele>617</ele>
        <time>2026-02-10T11:38:36.000Z</time>
      </trkpt>
      <trkpt lat="43.61977" lon="6.04434">
        <ele>617</ele>
        <time>2026-02-10T11:38:37.000Z</time>
      </trkpt>
      <trkpt lat="43.61976" lon="6.04435">
        <ele>617</ele>
        <time>2026-02-10T11:38:38.000Z</time>
      </trkpt>
      <trkpt lat="43.61976" lon="6.04437">
        <ele>617</ele>
        <time>2026-02-10T11:38:40.000Z</time>
      </trkpt>
      <trkpt lat="43.61975" lon="6.04438">
        <ele>617</ele>
        <time>2026-02-10T11:38:41.000Z</time>
      </trkpt>
      <trkpt lat="43.61975" lon="6.04439">
        <ele>617</ele>
        <time>2026-02-10T11:38:42.000Z</time>
      </trkpt>
      <trkpt lat="43.61974" lon="6.04441">
        <ele>617</ele>
        <time>2026-02-10T11:38:44.000Z</time>
      </trkpt>
      <trkpt lat="43.61974" lon="6.04443">
        <ele>617</ele>
        <time>2026-02-10T11:38:46.000Z</time>
      </trkpt>
      <trkpt lat="43.61974" lon="6.04445">
        <ele>617</ele>
        <time>2026-02-10T11:38:48.000Z</time>
      </trkpt>
      <trkpt lat="43.61973" lon="6.04446">
        <ele>618</ele>
        <time>2026-02-10T11:39:00.000Z</time>
      </trkpt>
      <trkpt lat="43.61973" lon="6.04447">
        <ele>618</ele>
        <time>2026-02-10T11:39:01.000Z</time>
      </trkpt>
      <trkpt lat="43.61973" lon="6.04449">
        <ele>618</ele>
        <time>2026-02-10T11:39:03.000Z</time>
      </trkpt>
      <trkpt lat="43.61972" lon="6.0445">
        <ele>619</ele>
        <time>2026-02-10T11:39:15.000Z</time>
      </trkpt>
      <trkpt lat="43.61972" lon="6.04452">
        <ele>619</ele>
        <time>2026-02-10T11:39:17.000Z</time>
      </trkpt>
      <trkpt lat="43.61971" lon="6.04453">
        <ele>619</ele>
        <time>2026-02-10T11:39:18.000Z</time>
      </trkpt>
      <trkpt lat="43.61971" lon="6.04454">
        <ele>619</ele>
        <time>2026-02-10T11:39:19.000Z</time>
      </trkpt>
      <trkpt lat="43.6197" lon="6.04455">
        <ele>619</ele>
        <time>2026-02-10T11:39:20.000Z</time>
      </trkpt>
      <trkpt lat="43.6197" lon="6.04457">
        <ele>619</ele>
        <time>2026-02-10T11:39:22.000Z</time>
      </trkpt>
      <trkpt lat="43.61969" lon="6.04458">
        <ele>619</ele>
        <time>2026-02-10T11:39:23.000Z</time>
      </trkpt>
      <trkpt lat="43.61969" lon="6.0446">
        <ele>619</ele>
        <time>2026-02-10T11:39:25.000Z</time>
      </trkpt>
      <trkpt lat="43.61969" lon="6.04461">
        <ele>619</ele>
        <time>2026-02-10T11:39:26.000Z</time>
      </trkpt>
      <trkpt lat="43.61968" lon="6.04463">
        <ele>619</ele>
        <time>2026-02-10T11:39:28.000Z</time>
      </trkpt>
      <trkpt lat="43.61968" lon="6.04464">
        <ele>619</ele>
        <time>2026-02-10T11:39:29.000Z</time>
      </trkpt>
      <trkpt lat="43.61967" lon="6.04465">
        <ele>620</ele>
        <time>2026-02-10T11:39:41.000Z</time>
      </trkpt>
      <trkpt lat="43.61967" lon="6.04466">
        <ele>620</ele>
        <time>2026-02-10T11:39:42.000Z</time>
      </trkpt>
      <trkpt lat="43.61966" lon="6.04468">
        <ele>620</ele>
        <time>2026-02-10T11:39:44.000Z</time>
      </trkpt>
      <trkpt lat="43.61966" lon="6.0447">
        <ele>621</ele>
        <time>2026-02-10T11:39:56.000Z</time>
      </trkpt>
      <trkpt lat="43.61966" lon="6.04471">
        <ele>621</ele>
        <time>2026-02-10T11:39:57.000Z</time>
      </trkpt>
      <trkpt lat="43.61966" lon="6.04473">
        <ele>621</ele>
        <time>2026-02-10T11:39:59.000Z</time>
      </trkpt>
      <trkpt lat="43.61965" lon="6.04474">
        <ele>621</ele>
        <time>2026-02-10T11:40:00.000Z</time>
      </trkpt>
      <trkpt lat="43.61965" lon="6.04475">
        <ele>621</ele>
        <time>2026-02-10T11:40:01.000Z</time>
      </trkpt>
      <trkpt lat="43.61964" lon="6.04477">
        <ele>622</ele>
        <time>2026-02-10T11:40:13.000Z</time>
      </trkpt>
      <trkpt lat="43.61964" lon="6.04478">
        <ele>622</ele>
        <time>2026-02-10T11:40:14.000Z</time>
      </trkpt>
      <trkpt lat="43.61963" lon="6.04479">
        <ele>622</ele>
        <time>2026-02-10T11:40:15.000Z</time>
      </trkpt>
      <trkpt lat="43.61963" lon="6.04481">
        <ele>622</ele>
        <time>2026-02-10T11:40:17.000Z</time>
      </trkpt>
      <trkpt lat="43.61963" lon="6.04482">
        <ele>622</ele>
        <time>2026-02-10T11:40:18.000Z</time>
      </trkpt>
      <trkpt lat="43.61962" lon="6.04483">
        <ele>622</ele>
        <time>2026-02-10T11:40:19.000Z</time>
      </trkpt>
      <trkpt lat="43.61962" lon="6.04485">
        <ele>622</ele>
        <time>2026-02-10T11:40:21.000Z</time>
      </trkpt>
      <trkpt lat="43.61961" lon="6.04486">
        <ele>622</ele>
        <time>2026-02-10T11:40:22.000Z</time>
      </trkpt>
      <trkpt lat="43.61961" lon="6.04487">
        <ele>622</ele>
        <time>2026-02-10T11:40:23.000Z</time>
      </trkpt>
      <trkpt lat="43.61961" lon="6.04489">
        <ele>622</ele>
        <time>2026-02-10T11:40:25.000Z</time>
      </trkpt>
      <trkpt lat="43.6196" lon="6.04491">
        <ele>622</ele>
        <time>2026-02-10T11:40:27.000Z</time>
      </trkpt>
      <trkpt lat="43.6196" lon="6.04492">
        <ele>622</ele>
        <time>2026-02-10T11:40:28.000Z</time>
      </trkpt>
      <trkpt lat="43.61959" lon="6.04493">
        <ele>623</ele>
        <time>2026-02-10T11:40:40.000Z</time>
      </trkpt>
      <trkpt lat="43.61959" lon="6.04494">
        <ele>623</ele>
        <time>2026-02-10T11:40:41.000Z</time>
      </trkpt>
      <trkpt lat="43.61958" lon="6.04495">
        <ele>623</ele>
        <time>2026-02-10T11:40:42.000Z</time>
      </trkpt>
      <trkpt lat="43.61958" lon="6.04497">
        <ele>623</ele>
        <time>2026-02-10T11:40:44.000Z</time>
      </trkpt>
      <trkpt lat="43.61957" lon="6.04498">
        <ele>623</ele>
        <time>2026-02-10T11:40:45.000Z</time>
      </trkpt>
      <trkpt lat="43.61957" lon="6.045">
        <ele>623</ele>
        <time>2026-02-10T11:40:47.000Z</time>
      </trkpt>
      <trkpt lat="43.61957" lon="6.04501">
        <ele>623</ele>
        <time>2026-02-10T11:40:48.000Z</time>
      </trkpt>
      <trkpt lat="43.61956" lon="6.04502">
        <ele>623</ele>
        <time>2026-02-10T11:40:49.000Z</time>
      </trkpt>
      <trkpt lat="43.61956" lon="6.04504">
        <ele>623</ele>
        <time>2026-02-10T11:40:51.000Z</time>
      </trkpt>
      <trkpt lat="43.61955" lon="6.04505">
        <ele>624</ele>
        <time>2026-02-10T11:41:03.000Z</time>
      </trkpt>
      <trkpt lat="43.61955" lon="6.04507">
        <ele>624</ele>
        <time>2026-02-10T11:41:05.000Z</time>
      </trkpt>
      <trkpt lat="43.61954" lon="6.04508">
        <ele>624</ele>
        <time>2026-02-10T11:41:06.000Z</time>
      </trkpt>
      <trkpt lat="43.61953" lon="6.04509">
        <ele>625</ele>
        <time>2026-02-10T11:41:18.000Z</time>
      </trkpt>
      <trkpt lat="43.61953" lon="6.0451">
        <ele>625</ele>
        <time>2026-02-10T11:41:19.000Z</time>
      </trkpt>
      <trkpt lat="43.61952" lon="6.04511">
        <ele>625</ele>
        <time>2026-02-10T11:41:20.000Z</time>
      </trkpt>
      <trkpt lat="43.61952" lon="6.04513">
        <ele>625</ele>
        <time>2026-02-10T11:41:22.000Z</time>
      </trkpt>
      <trkpt lat="43.61951" lon="6.04514">
        <ele>625</ele>
        <time>2026-02-10T11:41:23.000Z</time>
      </trkpt>
      <trkpt lat="43.61951" lon="6.04516">
        <ele>625</ele>
        <time>2026-02-10T11:41:25.000Z</time>
      </trkpt>
      <trkpt lat="43.6195" lon="6.04517">
        <ele>625</ele>
        <time>2026-02-10T11:41:26.000Z</time>
      </trkpt>
      <trkpt lat="43.6195" lon="6.04519">
        <ele>625</ele>
        <time>2026-02-10T11:41:28.000Z</time>
      </trkpt>
      <trkpt lat="43.6195" lon="6.0452">
        <ele>625</ele>
        <time>2026-02-10T11:41:29.000Z</time>
      </trkpt>
      <trkpt lat="43.61949" lon="6.04521">
        <ele>626</ele>
        <time>2026-02-10T11:41:41.000Z</time>
      </trkpt>
      <trkpt lat="43.61949" lon="6.04522">
        <ele>625</ele>
        <time>2026-02-10T11:41:42.000Z</time>
      </trkpt>
      <trkpt lat="43.61948" lon="6.04524">
        <ele>626</ele>
        <time>2026-02-10T11:41:54.000Z</time>
      </trkpt>
      <trkpt lat="43.61948" lon="6.04525">
        <ele>626</ele>
        <time>2026-02-10T11:41:55.000Z</time>
      </trkpt>
      <trkpt lat="43.61947" lon="6.04526">
        <ele>626</ele>
        <time>2026-02-10T11:41:56.000Z</time>
      </trkpt>
      <trkpt lat="43.61947" lon="6.04527">
        <ele>626</ele>
        <time>2026-02-10T11:41:57.000Z</time>
      </trkpt>
      <trkpt lat="43.61947" lon="6.04528">
        <ele>626</ele>
        <time>2026-02-10T11:41:58.000Z</time>
      </trkpt>
      <trkpt lat="43.61946" lon="6.0453">
        <ele>626</ele>
        <time>2026-02-10T11:42:00.000Z</time>
      </trkpt>
      <trkpt lat="43.61945" lon="6.04531">
        <ele>626</ele>
        <time>2026-02-10T11:42:01.000Z</time>
      </trkpt>
      <trkpt lat="43.61945" lon="6.04532">
        <ele>626</ele>
        <time>2026-02-10T11:42:02.000Z</time>
      </trkpt>
      <trkpt lat="43.61944" lon="6.04533">
        <ele>626</ele>
        <time>2026-02-10T11:42:03.000Z</time>
      </trkpt>
      <trkpt lat="43.61944" lon="6.04534">
        <ele>626</ele>
        <time>2026-02-10T11:42:04.000Z</time>
      </trkpt>
      <trkpt lat="43.61943" lon="6.04535">
        <ele>627</ele>
        <time>2026-02-10T11:42:16.000Z</time>
      </trkpt>
      <trkpt lat="43.61943" lon="6.04537">
        <ele>627</ele>
        <time>2026-02-10T11:42:18.000Z</time>
      </trkpt>
      <trkpt lat="43.61943" lon="6.04538">
        <ele>627</ele>
        <time>2026-02-10T11:42:19.000Z</time>
      </trkpt>
      <trkpt lat="43.61942" lon="6.0454">
        <ele>627</ele>
        <time>2026-02-10T11:42:21.000Z</time>
      </trkpt>
      <trkpt lat="43.61942" lon="6.04541">
        <ele>627</ele>
        <time>2026-02-10T11:42:22.000Z</time>
      </trkpt>
      <trkpt lat="43.61941" lon="6.04542">
        <ele>627</ele>
        <time>2026-02-10T11:42:23.000Z</time>
      </trkpt>
      <trkpt lat="43.61941" lon="6.04543">
        <ele>627</ele>
        <time>2026-02-10T11:42:24.000Z</time>
      </trkpt>
      <trkpt lat="43.6194" lon="6.04545">
        <ele>627</ele>
        <time>2026-02-10T11:42:26.000Z</time>
      </trkpt>
      <trkpt lat="43.6194" lon="6.04546">
        <ele>627</ele>
        <time>2026-02-10T11:42:27.000Z</time>
      </trkpt>
      <trkpt lat="43.61939" lon="6.04547">
        <ele>627</ele>
        <time>2026-02-10T11:42:28.000Z</time>
      </trkpt>
      <trkpt lat="43.61939" lon="6.04549">
        <ele>627</ele>
        <time>2026-02-10T11:42:30.000Z</time>
      </trkpt>
      <trkpt lat="43.61938" lon="6.0455">
        <ele>627</ele>
        <time>2026-02-10T11:42:31.000Z</time>
      </trkpt>
      <trkpt lat="43.61938" lon="6.04551">
        <ele>627</ele>
        <time>2026-02-10T11:42:32.000Z</time>
      </trkpt>
      <trkpt lat="43.61937" lon="6.04552">
        <ele>628</ele>
        <time>2026-02-10T11:42:44.000Z</time>
      </trkpt>
      <trkpt lat="43.61936" lon="6.04554">
        <ele>628</ele>
        <time>2026-02-10T11:42:46.000Z</time>
      </trkpt>
      <trkpt lat="43.61936" lon="6.04555">
        <ele>628</ele>
        <time>2026-02-10T11:42:47.000Z</time>
      </trkpt>
      <trkpt lat="43.61935" lon="6.04557">
        <ele>628</ele>
        <time>2026-02-10T11:42:49.000Z</time>
      </trkpt>
      <trkpt lat="43.61934" lon="6.04558">
        <ele>628</ele>
        <time>2026-02-10T11:42:50.000Z</time>
      </trkpt>
      <trkpt lat="43.61934" lon="6.0456">
        <ele>628</ele>
        <time>2026-02-10T11:42:52.000Z</time>
      </trkpt>
      <trkpt lat="43.61933" lon="6.04561">
        <ele>628</ele>
        <time>2026-02-10T11:42:53.000Z</time>
      </trkpt>
      <trkpt lat="43.61933" lon="6.04562">
        <ele>628</ele>
        <time>2026-02-10T11:42:54.000Z</time>
      </trkpt>
      <trkpt lat="43.61932" lon="6.04563">
        <ele>628</ele>
        <time>2026-02-10T11:42:55.000Z</time>
      </trkpt>
      <trkpt lat="43.61932" lon="6.04565">
        <ele>628</ele>
        <time>2026-02-10T11:42:57.000Z</time>
      </trkpt>
      <trkpt lat="43.61931" lon="6.04566">
        <ele>628</ele>
        <time>2026-02-10T11:42:58.000Z</time>
      </trkpt>
      <trkpt lat="43.6193" lon="6.04567">
        <ele>628</ele>
        <time>2026-02-10T11:42:59.000Z</time>
      </trkpt>
      <trkpt lat="43.6193" lon="6.04568">
        <ele>628</ele>
        <time>2026-02-10T11:43:00.000Z</time>
      </trkpt>
      <trkpt lat="43.61929" lon="6.0457">
        <ele>628</ele>
        <time>2026-02-10T11:43:02.000Z</time>
      </trkpt>
      <trkpt lat="43.61929" lon="6.04571">
        <ele>628</ele>
        <time>2026-02-10T11:43:03.000Z</time>
      </trkpt>
      <trkpt lat="43.61928" lon="6.04572">
        <ele>628</ele>
        <time>2026-02-10T11:43:04.000Z</time>
      </trkpt>
      <trkpt lat="43.61928" lon="6.04574">
        <ele>628</ele>
        <time>2026-02-10T11:43:06.000Z</time>
      </trkpt>
      <trkpt lat="43.61927" lon="6.04575">
        <ele>629</ele>
        <time>2026-02-10T11:43:18.000Z</time>
      </trkpt>
      <trkpt lat="43.61926" lon="6.04576">
        <ele>629</ele>
        <time>2026-02-10T11:43:19.000Z</time>
      </trkpt>
      <trkpt lat="43.61926" lon="6.04577">
        <ele>629</ele>
        <time>2026-02-10T11:43:20.000Z</time>
      </trkpt>
      <trkpt lat="43.61925" lon="6.04578">
        <ele>629</ele>
        <time>2026-02-10T11:43:21.000Z</time>
      </trkpt>
      <trkpt lat="43.61924" lon="6.04579">
        <ele>629</ele>
        <time>2026-02-10T11:43:22.000Z</time>
      </trkpt>
      <trkpt lat="43.61923" lon="6.0458">
        <ele>629</ele>
        <time>2026-02-10T11:43:23.000Z</time>
      </trkpt>
      <trkpt lat="43.61923" lon="6.04582">
        <ele>629</ele>
        <time>2026-02-10T11:43:25.000Z</time>
      </trkpt>
      <trkpt lat="43.61923" lon="6.04583">
        <ele>629</ele>
        <time>2026-02-10T11:43:26.000Z</time>
      </trkpt>
      <trkpt lat="43.61922" lon="6.04584">
        <ele>630</ele>
        <time>2026-02-10T11:43:38.000Z</time>
      </trkpt>
      <trkpt lat="43.61921" lon="6.04586">
        <ele>630</ele>
        <time>2026-02-10T11:43:40.000Z</time>
      </trkpt>
      <trkpt lat="43.61921" lon="6.04587">
        <ele>630</ele>
        <time>2026-02-10T11:43:41.000Z</time>
      </trkpt>
      <trkpt lat="43.6192" lon="6.04588">
        <ele>630</ele>
        <time>2026-02-10T11:43:42.000Z</time>
      </trkpt>
      <trkpt lat="43.6192" lon="6.0459">
        <ele>630</ele>
        <time>2026-02-10T11:43:44.000Z</time>
      </trkpt>
      <trkpt lat="43.61919" lon="6.04591">
        <ele>630</ele>
        <time>2026-02-10T11:43:45.000Z</time>
      </trkpt>
      <trkpt lat="43.61919" lon="6.04592">
        <ele>629</ele>
        <time>2026-02-10T11:43:46.000Z</time>
      </trkpt>
      <trkpt lat="43.61918" lon="6.04593">
        <ele>629</ele>
        <time>2026-02-10T11:43:47.000Z</time>
      </trkpt>
      <trkpt lat="43.61917" lon="6.04594">
        <ele>630</ele>
        <time>2026-02-10T11:43:59.000Z</time>
      </trkpt>
      <trkpt lat="43.61916" lon="6.04596">
        <ele>630</ele>
        <time>2026-02-10T11:44:01.000Z</time>
      </trkpt>
      <trkpt lat="43.61916" lon="6.04597">
        <ele>630</ele>
        <time>2026-02-10T11:44:02.000Z</time>
      </trkpt>
      <trkpt lat="43.61915" lon="6.04599">
        <ele>631</ele>
        <time>2026-02-10T11:44:14.000Z</time>
      </trkpt>
      <trkpt lat="43.61914" lon="6.046">
        <ele>631</ele>
        <time>2026-02-10T11:44:15.000Z</time>
      </trkpt>
      <trkpt lat="43.61914" lon="6.04601">
        <ele>631</ele>
        <time>2026-02-10T11:44:16.000Z</time>
      </trkpt>
      <trkpt lat="43.61913" lon="6.04602">
        <ele>631</ele>
        <time>2026-02-10T11:44:17.000Z</time>
      </trkpt>
      <trkpt lat="43.61912" lon="6.04603">
        <ele>631</ele>
        <time>2026-02-10T11:44:18.000Z</time>
      </trkpt>
      <trkpt lat="43.61911" lon="6.04604">
        <ele>631</ele>
        <time>2026-02-10T11:44:19.000Z</time>
      </trkpt>
      <trkpt lat="43.6191" lon="6.04606">
        <ele>632</ele>
        <time>2026-02-10T11:44:31.000Z</time>
      </trkpt>
      <trkpt lat="43.61909" lon="6.04607">
        <ele>632</ele>
        <time>2026-02-10T11:44:32.000Z</time>
      </trkpt>
      <trkpt lat="43.61909" lon="6.04608">
        <ele>632</ele>
        <time>2026-02-10T11:44:33.000Z</time>
      </trkpt>
      <trkpt lat="43.61908" lon="6.0461">
        <ele>632</ele>
        <time>2026-02-10T11:44:35.000Z</time>
      </trkpt>
      <trkpt lat="43.61908" lon="6.04611">
        <ele>632</ele>
        <time>2026-02-10T11:44:36.000Z</time>
      </trkpt>
      <trkpt lat="43.61907" lon="6.04612">
        <ele>632</ele>
        <time>2026-02-10T11:44:37.000Z</time>
      </trkpt>
      <trkpt lat="43.61906" lon="6.04613">
        <ele>632</ele>
        <time>2026-02-10T11:44:38.000Z</time>
      </trkpt>
      <trkpt lat="43.61905" lon="6.04614">
        <ele>633</ele>
        <time>2026-02-10T11:44:50.000Z</time>
      </trkpt>
      <trkpt lat="43.61904" lon="6.04615">
        <ele>633</ele>
        <time>2026-02-10T11:44:51.000Z</time>
      </trkpt>
      <trkpt lat="43.61904" lon="6.04617">
        <ele>632</ele>
        <time>2026-02-10T11:44:53.000Z</time>
      </trkpt>
      <trkpt lat="43.61903" lon="6.04618">
        <ele>632</ele>
        <time>2026-02-10T11:44:54.000Z</time>
      </trkpt>
      <trkpt lat="43.61902" lon="6.04619">
        <ele>632</ele>
        <time>2026-02-10T11:44:55.000Z</time>
      </trkpt>
      <trkpt lat="43.61901" lon="6.0462">
        <ele>632</ele>
        <time>2026-02-10T11:44:56.000Z</time>
      </trkpt>
      <trkpt lat="43.61901" lon="6.04622">
        <ele>632</ele>
        <time>2026-02-10T11:44:58.000Z</time>
      </trkpt>
      <trkpt lat="43.619" lon="6.04623">
        <ele>633</ele>
        <time>2026-02-10T11:45:10.000Z</time>
      </trkpt>
      <trkpt lat="43.61899" lon="6.04624">
        <ele>633</ele>
        <time>2026-02-10T11:45:11.000Z</time>
      </trkpt>
      <trkpt lat="43.61898" lon="6.04625">
        <ele>633</ele>
        <time>2026-02-10T11:45:12.000Z</time>
      </trkpt>
      <trkpt lat="43.61898" lon="6.04626">
        <ele>633</ele>
        <time>2026-02-10T11:45:13.000Z</time>
      </trkpt>
      <trkpt lat="43.61897" lon="6.04628">
        <ele>633</ele>
        <time>2026-02-10T11:45:15.000Z</time>
      </trkpt>
      <trkpt lat="43.61896" lon="6.04629">
        <ele>633</ele>
        <time>2026-02-10T11:45:16.000Z</time>
      </trkpt>
      <trkpt lat="43.61896" lon="6.0463">
        <ele>633</ele>
        <time>2026-02-10T11:45:17.000Z</time>
      </trkpt>
      <trkpt lat="43.61895" lon="6.04631">
        <ele>633</ele>
        <time>2026-02-10T11:45:18.000Z</time>
      </trkpt>
      <trkpt lat="43.61894" lon="6.04632">
        <ele>633</ele>
        <time>2026-02-10T11:45:19.000Z</time>
      </trkpt>
      <trkpt lat="43.61894" lon="6.04633">
        <ele>633</ele>
        <time>2026-02-10T11:45:20.000Z</time>
      </trkpt>
      <trkpt lat="43.61893" lon="6.04634">
        <ele>634</ele>
        <time>2026-02-10T11:45:32.000Z</time>
      </trkpt>
      <trkpt lat="43.61892" lon="6.04635">
        <ele>634</ele>
        <time>2026-02-10T11:45:33.000Z</time>
      </trkpt>
      <trkpt lat="43.61891" lon="6.04637">
        <ele>634</ele>
        <time>2026-02-10T11:45:35.000Z</time>
      </trkpt>
      <trkpt lat="43.61891" lon="6.04638">
        <ele>634</ele>
        <time>2026-02-10T11:45:36.000Z</time>
      </trkpt>
      <trkpt lat="43.6189" lon="6.04638">
        <ele>634</ele>
        <time>2026-02-10T11:45:37.000Z</time>
      </trkpt>
      <trkpt lat="43.61889" lon="6.0464">
        <ele>634</ele>
        <time>2026-02-10T11:45:39.000Z</time>
      </trkpt>
      <trkpt lat="43.61889" lon="6.04641">
        <ele>634</ele>
        <time>2026-02-10T11:45:40.000Z</time>
      </trkpt>
      <trkpt lat="43.61888" lon="6.04642">
        <ele>635</ele>
        <time>2026-02-10T11:45:52.000Z</time>
      </trkpt>
      <trkpt lat="43.61887" lon="6.04643">
        <ele>635</ele>
        <time>2026-02-10T11:45:53.000Z</time>
      </trkpt>
      <trkpt lat="43.61887" lon="6.04644">
        <ele>635</ele>
        <time>2026-02-10T11:45:54.000Z</time>
      </trkpt>
      <trkpt lat="43.61886" lon="6.04645">
        <ele>635</ele>
        <time>2026-02-10T11:45:55.000Z</time>
      </trkpt>
      <trkpt lat="43.61885" lon="6.04646">
        <ele>635</ele>
        <time>2026-02-10T11:45:56.000Z</time>
      </trkpt>
      <trkpt lat="43.61885" lon="6.04647">
        <ele>635</ele>
        <time>2026-02-10T11:45:57.000Z</time>
      </trkpt>
      <trkpt lat="43.61884" lon="6.04648">
        <ele>635</ele>
        <time>2026-02-10T11:45:58.000Z</time>
      </trkpt>
      <trkpt lat="43.61883" lon="6.0465">
        <ele>636</ele>
        <time>2026-02-10T11:46:10.000Z</time>
      </trkpt>
      <trkpt lat="43.61883" lon="6.04651">
        <ele>636</ele>
        <time>2026-02-10T11:46:11.000Z</time>
      </trkpt>
      <trkpt lat="43.61882" lon="6.04652">
        <ele>636</ele>
        <time>2026-02-10T11:46:12.000Z</time>
      </trkpt>
      <trkpt lat="43.61881" lon="6.04653">
        <ele>636</ele>
        <time>2026-02-10T11:46:13.000Z</time>
      </trkpt>
      <trkpt lat="43.6188" lon="6.04654">
        <ele>636</ele>
        <time>2026-02-10T11:46:14.000Z</time>
      </trkpt>
      <trkpt lat="43.61879" lon="6.04655">
        <ele>636</ele>
        <time>2026-02-10T11:46:15.000Z</time>
      </trkpt>
      <trkpt lat="43.61879" lon="6.04656">
        <ele>636</ele>
        <time>2026-02-10T11:46:16.000Z</time>
      </trkpt>
      <trkpt lat="43.61878" lon="6.04657">
        <ele>637</ele>
        <time>2026-02-10T11:46:28.000Z</time>
      </trkpt>
      <trkpt lat="43.61877" lon="6.04658">
        <ele>637</ele>
        <time>2026-02-10T11:46:29.000Z</time>
      </trkpt>
      <trkpt lat="43.61877" lon="6.04659">
        <ele>637</ele>
        <time>2026-02-10T11:46:30.000Z</time>
      </trkpt>
      <trkpt lat="43.61876" lon="6.04661">
        <ele>637</ele>
        <time>2026-02-10T11:46:32.000Z</time>
      </trkpt>
      <trkpt lat="43.61875" lon="6.04662">
        <ele>637</ele>
        <time>2026-02-10T11:46:33.000Z</time>
      </trkpt>
      <trkpt lat="43.61874" lon="6.04663">
        <ele>637</ele>
        <time>2026-02-10T11:46:34.000Z</time>
      </trkpt>
      <trkpt lat="43.61873" lon="6.04663">
        <ele>638</ele>
        <time>2026-02-10T11:46:45.000Z</time>
      </trkpt>
      <trkpt lat="43.61873" lon="6.04664">
        <ele>637</ele>
        <time>2026-02-10T11:46:46.000Z</time>
      </trkpt>
      <trkpt lat="43.61872" lon="6.04665">
        <ele>637</ele>
        <time>2026-02-10T11:46:47.000Z</time>
      </trkpt>
      <trkpt lat="43.61871" lon="6.04666">
        <ele>638</ele>
        <time>2026-02-10T11:46:59.000Z</time>
      </trkpt>
      <trkpt lat="43.6187" lon="6.04668">
        <ele>638</ele>
        <time>2026-02-10T11:47:01.000Z</time>
      </trkpt>
      <trkpt lat="43.61869" lon="6.04669">
        <ele>638</ele>
        <time>2026-02-10T11:47:02.000Z</time>
      </trkpt>
      <trkpt lat="43.61868" lon="6.0467">
        <ele>638</ele>
        <time>2026-02-10T11:47:03.000Z</time>
      </trkpt>
      <trkpt lat="43.61868" lon="6.04671">
        <ele>638</ele>
        <time>2026-02-10T11:47:04.000Z</time>
      </trkpt>
      <trkpt lat="43.61867" lon="6.04672">
        <ele>639</ele>
        <time>2026-02-10T11:47:16.000Z</time>
      </trkpt>
      <trkpt lat="43.61867" lon="6.04673">
        <ele>638</ele>
        <time>2026-02-10T11:47:17.000Z</time>
      </trkpt>
      <trkpt lat="43.61866" lon="6.04675">
        <ele>639</ele>
        <time>2026-02-10T11:47:29.000Z</time>
      </trkpt>
      <trkpt lat="43.61865" lon="6.04676">
        <ele>639</ele>
        <time>2026-02-10T11:47:30.000Z</time>
      </trkpt>
      <trkpt lat="43.61864" lon="6.04677">
        <ele>639</ele>
        <time>2026-02-10T11:47:31.000Z</time>
      </trkpt>
      <trkpt lat="43.61863" lon="6.04678">
        <ele>639</ele>
        <time>2026-02-10T11:47:32.000Z</time>
      </trkpt>
      <trkpt lat="43.61862" lon="6.04679">
        <ele>639</ele>
        <time>2026-02-10T11:47:33.000Z</time>
      </trkpt>
      <trkpt lat="43.61862" lon="6.0468">
        <ele>639</ele>
        <time>2026-02-10T11:47:34.000Z</time>
      </trkpt>
      <trkpt lat="43.61861" lon="6.04682">
        <ele>639</ele>
        <time>2026-02-10T11:47:36.000Z</time>
      </trkpt>
      <trkpt lat="43.6186" lon="6.04683">
        <ele>639</ele>
        <time>2026-02-10T11:47:37.000Z</time>
      </trkpt>
      <trkpt lat="43.61859" lon="6.04684">
        <ele>639</ele>
        <time>2026-02-10T11:47:38.000Z</time>
      </trkpt>
      <trkpt lat="43.61858" lon="6.04685">
        <ele>639</ele>
        <time>2026-02-10T11:47:39.000Z</time>
      </trkpt>
      <trkpt lat="43.61858" lon="6.04686">
        <ele>639</ele>
        <time>2026-02-10T11:47:40.000Z</time>
      </trkpt>
      <trkpt lat="43.61857" lon="6.04688">
        <ele>639</ele>
        <time>2026-02-10T11:47:42.000Z</time>
      </trkpt>
      <trkpt lat="43.61856" lon="6.04689">
        <ele>639</ele>
        <time>2026-02-10T11:47:43.000Z</time>
      </trkpt>
      <trkpt lat="43.61855" lon="6.04691">
        <ele>639</ele>
        <time>2026-02-10T11:47:45.000Z</time>
      </trkpt>
      <trkpt lat="43.61855" lon="6.04692">
        <ele>639</ele>
        <time>2026-02-10T11:47:46.000Z</time>
      </trkpt>
      <trkpt lat="43.61854" lon="6.04693">
        <ele>640</ele>
        <time>2026-02-10T11:47:58.000Z</time>
      </trkpt>
      <trkpt lat="43.61853" lon="6.04694">
        <ele>640</ele>
        <time>2026-02-10T11:47:59.000Z</time>
      </trkpt>
      <trkpt lat="43.61852" lon="6.04696">
        <ele>640</ele>
        <time>2026-02-10T11:48:01.000Z</time>
      </trkpt>
      <trkpt lat="43.61852" lon="6.04697">
        <ele>640</ele>
        <time>2026-02-10T11:48:02.000Z</time>
      </trkpt>
      <trkpt lat="43.61851" lon="6.04698">
        <ele>640</ele>
        <time>2026-02-10T11:48:03.000Z</time>
      </trkpt>
      <trkpt lat="43.61851" lon="6.047">
        <ele>640</ele>
        <time>2026-02-10T11:48:05.000Z</time>
      </trkpt>
      <trkpt lat="43.6185" lon="6.04701">
        <ele>640</ele>
        <time>2026-02-10T11:48:06.000Z</time>
      </trkpt>
      <trkpt lat="43.6185" lon="6.04703">
        <ele>640</ele>
        <time>2026-02-10T11:48:08.000Z</time>
      </trkpt>
      <trkpt lat="43.61849" lon="6.04704">
        <ele>640</ele>
        <time>2026-02-10T11:48:09.000Z</time>
      </trkpt>
      <trkpt lat="43.61849" lon="6.04706">
        <ele>640</ele>
        <time>2026-02-10T11:48:11.000Z</time>
      </trkpt>
      <trkpt lat="43.61848" lon="6.04707">
        <ele>640</ele>
        <time>2026-02-10T11:48:12.000Z</time>
      </trkpt>
      <trkpt lat="43.61848" lon="6.04709">
        <ele>640</ele>
        <time>2026-02-10T11:48:14.000Z</time>
      </trkpt>
      <trkpt lat="43.61847" lon="6.0471">
        <ele>640</ele>
        <time>2026-02-10T11:48:15.000Z</time>
      </trkpt>
      <trkpt lat="43.61847" lon="6.04712">
        <ele>640</ele>
        <time>2026-02-10T11:48:17.000Z</time>
      </trkpt>
      <trkpt lat="43.61846" lon="6.04713">
        <ele>641</ele>
        <time>2026-02-10T11:48:29.000Z</time>
      </trkpt>
      <trkpt lat="43.61846" lon="6.04715">
        <ele>641</ele>
        <time>2026-02-10T11:48:31.000Z</time>
      </trkpt>
      <trkpt lat="43.61846" lon="6.04716">
        <ele>641</ele>
        <time>2026-02-10T11:48:32.000Z</time>
      </trkpt>
      <trkpt lat="43.61845" lon="6.04718">
        <ele>642</ele>
        <time>2026-02-10T11:48:44.000Z</time>
      </trkpt>
      <trkpt lat="43.61845" lon="6.04719">
        <ele>642</ele>
        <time>2026-02-10T11:48:45.000Z</time>
      </trkpt>
      <trkpt lat="43.61845" lon="6.04721">
        <ele>642</ele>
        <time>2026-02-10T11:48:47.000Z</time>
      </trkpt>
      <trkpt lat="43.61844" lon="6.04722">
        <ele>642</ele>
        <time>2026-02-10T11:48:48.000Z</time>
      </trkpt>
      <trkpt lat="43.61844" lon="6.04723">
        <ele>642</ele>
        <time>2026-02-10T11:48:49.000Z</time>
      </trkpt>
      <trkpt lat="43.61843" lon="6.04724">
        <ele>642</ele>
        <time>2026-02-10T11:48:50.000Z</time>
      </trkpt>
      <trkpt lat="43.61843" lon="6.04726">
        <ele>642</ele>
        <time>2026-02-10T11:48:52.000Z</time>
      </trkpt>
      <trkpt lat="43.61843" lon="6.04727">
        <ele>642</ele>
        <time>2026-02-10T11:48:53.000Z</time>
      </trkpt>
      <trkpt lat="43.61842" lon="6.04728">
        <ele>642</ele>
        <time>2026-02-10T11:48:54.000Z</time>
      </trkpt>
      <trkpt lat="43.61842" lon="6.0473">
        <ele>642</ele>
        <time>2026-02-10T11:48:56.000Z</time>
      </trkpt>
      <trkpt lat="43.61842" lon="6.04731">
        <ele>642</ele>
        <time>2026-02-10T11:48:57.000Z</time>
      </trkpt>
      <trkpt lat="43.61841" lon="6.04732">
        <ele>642</ele>
        <time>2026-02-10T11:48:58.000Z</time>
      </trkpt>
      <trkpt lat="43.6184" lon="6.04733">
        <ele>643</ele>
        <time>2026-02-10T11:49:10.000Z</time>
      </trkpt>
      <trkpt lat="43.6184" lon="6.04735">
        <ele>643</ele>
        <time>2026-02-10T11:49:12.000Z</time>
      </trkpt>
      <trkpt lat="43.6184" lon="6.04736">
        <ele>644</ele>
        <time>2026-02-10T11:49:23.000Z</time>
      </trkpt>
      <trkpt lat="43.6184" lon="6.04738">
        <ele>644</ele>
        <time>2026-02-10T11:49:25.000Z</time>
      </trkpt>
      <trkpt lat="43.6184" lon="6.04739">
        <ele>644</ele>
        <time>2026-02-10T11:49:26.000Z</time>
      </trkpt>
      <trkpt lat="43.6184" lon="6.04741">
        <ele>644</ele>
        <time>2026-02-10T11:49:28.000Z</time>
      </trkpt>
      <trkpt lat="43.61839" lon="6.04743">
        <ele>645</ele>
        <time>2026-02-10T11:49:40.000Z</time>
      </trkpt>
      <trkpt lat="43.61839" lon="6.04744">
        <ele>645</ele>
        <time>2026-02-10T11:49:41.000Z</time>
      </trkpt>
      <trkpt lat="43.61838" lon="6.04745">
        <ele>645</ele>
        <time>2026-02-10T11:49:42.000Z</time>
      </trkpt>
      <trkpt lat="43.61838" lon="6.04747">
        <ele>645</ele>
        <time>2026-02-10T11:49:44.000Z</time>
      </trkpt>
      <trkpt lat="43.61838" lon="6.04748">
        <ele>645</ele>
        <time>2026-02-10T11:49:45.000Z</time>
      </trkpt>
      <trkpt lat="43.61837" lon="6.0475">
        <ele>646</ele>
        <time>2026-02-10T11:49:57.000Z</time>
      </trkpt>
      <trkpt lat="43.61837" lon="6.04751">
        <ele>646</ele>
        <time>2026-02-10T11:49:58.000Z</time>
      </trkpt>
      <trkpt lat="43.61837" lon="6.04753">
        <ele>645</ele>
        <time>2026-02-10T11:50:00.000Z</time>
      </trkpt>
      <trkpt lat="43.61836" lon="6.04754">
        <ele>645</ele>
        <time>2026-02-10T11:50:01.000Z</time>
      </trkpt>
      <trkpt lat="43.61836" lon="6.04755">
        <ele>645</ele>
        <time>2026-02-10T11:50:02.000Z</time>
      </trkpt>
      <trkpt lat="43.61836" lon="6.04757">
        <ele>645</ele>
        <time>2026-02-10T11:50:04.000Z</time>
      </trkpt>
      <trkpt lat="43.61836" lon="6.04759">
        <ele>646</ele>
        <time>2026-02-10T11:50:16.000Z</time>
      </trkpt>
      <trkpt lat="43.61835" lon="6.0476">
        <ele>646</ele>
        <time>2026-02-10T11:50:17.000Z</time>
      </trkpt>
      <trkpt lat="43.61835" lon="6.04761">
        <ele>646</ele>
        <time>2026-02-10T11:50:18.000Z</time>
      </trkpt>
      <trkpt lat="43.61835" lon="6.04763">
        <ele>646</ele>
        <time>2026-02-10T11:50:20.000Z</time>
      </trkpt>
      <trkpt lat="43.61834" lon="6.04764">
        <ele>646</ele>
        <time>2026-02-10T11:50:21.000Z</time>
      </trkpt>
      <trkpt lat="43.61834" lon="6.04766">
        <ele>646</ele>
        <time>2026-02-10T11:50:23.000Z</time>
      </trkpt>
      <trkpt lat="43.61834" lon="6.04768">
        <ele>646</ele>
        <time>2026-02-10T11:50:25.000Z</time>
      </trkpt>
      <trkpt lat="43.61833" lon="6.04769">
        <ele>647</ele>
        <time>2026-02-10T11:50:37.000Z</time>
      </trkpt>
      <trkpt lat="43.61833" lon="6.0477">
        <ele>647</ele>
        <time>2026-02-10T11:50:38.000Z</time>
      </trkpt>
      <trkpt lat="43.61832" lon="6.04771">
        <ele>647</ele>
        <time>2026-02-10T11:50:39.000Z</time>
      </trkpt>
      <trkpt lat="43.61831" lon="6.04772">
        <ele>647</ele>
        <time>2026-02-10T11:50:40.000Z</time>
      </trkpt>
      <trkpt lat="43.61831" lon="6.04773">
        <ele>647</ele>
        <time>2026-02-10T11:50:41.000Z</time>
      </trkpt>
      <trkpt lat="43.6183" lon="6.04774">
        <ele>648</ele>
        <time>2026-02-10T11:50:53.000Z</time>
      </trkpt>
      <trkpt lat="43.6183" lon="6.04775">
        <ele>648</ele>
        <time>2026-02-10T11:50:54.000Z</time>
      </trkpt>
      <trkpt lat="43.61829" lon="6.04776">
        <ele>648</ele>
        <time>2026-02-10T11:50:55.000Z</time>
      </trkpt>
      <trkpt lat="43.61829" lon="6.04777">
        <ele>648</ele>
        <time>2026-02-10T11:50:56.000Z</time>
      </trkpt>
      <trkpt lat="43.61828" lon="6.04778">
        <ele>648</ele>
        <time>2026-02-10T11:50:57.000Z</time>
      </trkpt>
      <trkpt lat="43.61828" lon="6.04779">
        <ele>648</ele>
        <time>2026-02-10T11:50:58.000Z</time>
      </trkpt>
      <trkpt lat="43.61828" lon="6.04781">
        <ele>648</ele>
        <time>2026-02-10T11:51:00.000Z</time>
      </trkpt>
      <trkpt lat="43.61828" lon="6.04782">
        <ele>648</ele>
        <time>2026-02-10T11:51:01.000Z</time>
      </trkpt>
      <trkpt lat="43.61828" lon="6.04784">
        <ele>648</ele>
        <time>2026-02-10T11:51:03.000Z</time>
      </trkpt>
      <trkpt lat="43.61827" lon="6.04785">
        <ele>648</ele>
        <time>2026-02-10T11:51:04.000Z</time>
      </trkpt>
      <trkpt lat="43.61827" lon="6.04786">
        <ele>648</ele>
        <time>2026-02-10T11:51:05.000Z</time>
      </trkpt>
      <trkpt lat="43.61827" lon="6.04787">
        <ele>648</ele>
        <time>2026-02-10T11:51:06.000Z</time>
      </trkpt>
      <trkpt lat="43.61826" lon="6.04788">
        <ele>648</ele>
        <time>2026-02-10T11:51:07.000Z</time>
      </trkpt>
      <trkpt lat="43.61826" lon="6.0479">
        <ele>648</ele>
        <time>2026-02-10T11:51:09.000Z</time>
      </trkpt>
      <trkpt lat="43.61826" lon="6.04791">
        <ele>648</ele>
        <time>2026-02-10T11:51:10.000Z</time>
      </trkpt>
      <trkpt lat="43.61825" lon="6.04792">
        <ele>649</ele>
        <time>2026-02-10T11:51:22.000Z</time>
      </trkpt>
      <trkpt lat="43.61825" lon="6.04793">
        <ele>649</ele>
        <time>2026-02-10T11:51:23.000Z</time>
      </trkpt>
      <trkpt lat="43.61824" lon="6.04794">
        <ele>649</ele>
        <time>2026-02-10T11:51:24.000Z</time>
      </trkpt>
      <trkpt lat="43.61824" lon="6.04796">
        <ele>649</ele>
        <time>2026-02-10T11:51:26.000Z</time>
      </trkpt>
      <trkpt lat="43.61824" lon="6.04797">
        <ele>649</ele>
        <time>2026-02-10T11:51:27.000Z</time>
      </trkpt>
      <trkpt lat="43.61823" lon="6.04798">
        <ele>649</ele>
        <time>2026-02-10T11:51:28.000Z</time>
      </trkpt>
      <trkpt lat="43.61823" lon="6.048">
        <ele>649</ele>
        <time>2026-02-10T11:51:30.000Z</time>
      </trkpt>
      <trkpt lat="43.61823" lon="6.04801">
        <ele>649</ele>
        <time>2026-02-10T11:51:31.000Z</time>
      </trkpt>
      <trkpt lat="43.61822" lon="6.04802">
        <ele>649</ele>
        <time>2026-02-10T11:51:32.000Z</time>
      </trkpt>
      <trkpt lat="43.61822" lon="6.04803">
        <ele>649</ele>
        <time>2026-02-10T11:51:33.000Z</time>
      </trkpt>
      <trkpt lat="43.61822" lon="6.04804">
        <ele>649</ele>
        <time>2026-02-10T11:51:34.000Z</time>
      </trkpt>
      <trkpt lat="43.61823" lon="6.04805">
        <ele>649</ele>
        <time>2026-02-10T11:51:35.000Z</time>
      </trkpt>
      <trkpt lat="43.61823" lon="6.04805">
        <ele>649</ele>
        <time>2026-02-10T11:51:35.000Z</time>
      </trkpt>
      <trkpt lat="43.61823" lon="6.04806">
        <ele>649</ele>
        <time>2026-02-10T11:51:36.000Z</time>
      </trkpt>
      <trkpt lat="43.61823" lon="6.04806">
        <ele>649</ele>
        <time>2026-02-10T11:51:36.000Z</time>
      </trkpt>
      <trkpt lat="43.61823" lon="6.04807">
        <ele>649</ele>
        <time>2026-02-10T11:51:37.000Z</time>
      </trkpt>
      <trkpt lat="43.61823" lon="6.04807">
        <ele>649</ele>
        <time>2026-02-10T11:51:37.000Z</time>
      </trkpt>
      <trkpt lat="43.61824" lon="6.04808">
        <ele>649</ele>
        <time>2026-02-10T11:51:38.000Z</time>
      </trkpt>
      <trkpt lat="43.61824" lon="6.04809">
        <ele>649</ele>
        <time>2026-02-10T11:51:39.000Z</time>
      </trkpt>
      <trkpt lat="43.61824" lon="6.04809">
        <ele>649</ele>
        <time>2026-02-10T11:51:39.000Z</time>
      </trkpt>
      <trkpt lat="43.61823" lon="6.04809">
        <ele>649</ele>
        <time>2026-02-10T11:51:40.000Z</time>
      </trkpt>
      <trkpt lat="43.61823" lon="6.04809">
        <ele>649</ele>
        <time>2026-02-10T11:51:40.000Z</time>
      </trkpt>
      <trkpt lat="43.61823" lon="6.04809">
        <ele>649</ele>
        <time>2026-02-10T11:51:40.000Z</time>
      </trkpt>
      <trkpt lat="43.61823" lon="6.04809">
        <ele>649</ele>
        <time>2026-02-10T11:51:40.000Z</time>
      </trkpt>
      <trkpt lat="43.61823" lon="6.04809">
        <ele>649</ele>
        <time>2026-02-10T11:51:40.000Z</time>
      </trkpt>
      <trkpt lat="43.61823" lon="6.04809">
        <ele>649</ele>
        <time>2026-02-10T11:51:40.000Z</time>
      </trkpt>
      <trkpt lat="43.61823" lon="6.04809">
        <ele>649</ele>
        <time>2026-02-10T11:51:40.000Z</time>
      </trkpt>
      <trkpt lat="43.61823" lon="6.04809">
        <ele>649</ele>
        <time>2026-02-10T11:51:40.000Z</time>
      </trkpt>
      <trkpt lat="43.61822" lon="6.04809">
        <ele>649</ele>
        <time>2026-02-10T11:51:41.000Z</time>
      </trkpt>
      <trkpt lat="43.61822" lon="6.04809">
        <ele>649</ele>
        <time>2026-02-10T11:51:41.000Z</time>
      </trkpt>
      <trkpt lat="43.61822" lon="6.04809">
        <ele>649</ele>
        <time>2026-02-10T11:51:41.000Z</time>
      </trkpt>
      <trkpt lat="43.61822" lon="6.0481">
        <ele>649</ele>
        <time>2026-02-10T11:51:42.000Z</time>
      </trkpt>
      <trkpt lat="43.61822" lon="6.0481">
        <ele>649</ele>
        <time>2026-02-10T11:51:42.000Z</time>
      </trkpt>
      <trkpt lat="43.61821" lon="6.0481">
        <ele>650</ele>
        <time>2026-02-10T11:51:53.000Z</time>
      </trkpt>
      <trkpt lat="43.61821" lon="6.04809">
        <ele>650</ele>
        <time>2026-02-10T11:51:54.000Z</time>
      </trkpt>
      <trkpt lat="43.61821" lon="6.0481">
        <ele>650</ele>
        <time>2026-02-10T11:51:55.000Z</time>
      </trkpt>
      <trkpt lat="43.61821" lon="6.0481">
        <ele>650</ele>
        <time>2026-02-10T11:51:55.000Z</time>
      </trkpt>
      <trkpt lat="43.61821" lon="6.0481">
        <ele>650</ele>
        <time>2026-02-10T11:51:55.000Z</time>
      </trkpt>
      <trkpt lat="43.61821" lon="6.0481">
        <ele>650</ele>
        <time>2026-02-10T11:51:55.000Z</time>
      </trkpt>
      <trkpt lat="43.6182" lon="6.0481">
        <ele>650</ele>
        <time>2026-02-10T11:51:56.000Z</time>
      </trkpt>
      <trkpt lat="43.6182" lon="6.0481">
        <ele>650</ele>
        <time>2026-02-10T11:51:56.000Z</time>
      </trkpt>
      <trkpt lat="43.6182" lon="6.04811">
        <ele>650</ele>
        <time>2026-02-10T11:51:57.000Z</time>
      </trkpt>
      <trkpt lat="43.6182" lon="6.04812">
        <ele>650</ele>
        <time>2026-02-10T11:51:58.000Z</time>
      </trkpt>
      <trkpt lat="43.61819" lon="6.04813">
        <ele>650</ele>
        <time>2026-02-10T11:51:59.000Z</time>
      </trkpt>
      <trkpt lat="43.61819" lon="6.04814">
        <ele>650</ele>
        <time>2026-02-10T11:52:00.000Z</time>
      </trkpt>
      <trkpt lat="43.61819" lon="6.04815">
        <ele>650</ele>
        <time>2026-02-10T11:52:01.000Z</time>
      </trkpt>
      <trkpt lat="43.61819" lon="6.04816">
        <ele>650</ele>
        <time>2026-02-10T11:52:02.000Z</time>
      </trkpt>
      <trkpt lat="43.61819" lon="6.04817">
        <ele>650</ele>
        <time>2026-02-10T11:52:03.000Z</time>
      </trkpt>
      <trkpt lat="43.61818" lon="6.04818">
        <ele>650</ele>
        <time>2026-02-10T11:52:04.000Z</time>
      </trkpt>
      <trkpt lat="43.61818" lon="6.04819">
        <ele>650</ele>
        <time>2026-02-10T11:52:05.000Z</time>
      </trkpt>
      <trkpt lat="43.61817" lon="6.04821">
        <ele>650</ele>
        <time>2026-02-10T11:52:07.000Z</time>
      </trkpt>
      <trkpt lat="43.61817" lon="6.04822">
        <ele>650</ele>
        <time>2026-02-10T11:52:08.000Z</time>
      </trkpt>
      <trkpt lat="43.61817" lon="6.04823">
        <ele>650</ele>
        <time>2026-02-10T11:52:09.000Z</time>
      </trkpt>
      <trkpt lat="43.61817" lon="6.04824">
        <ele>650</ele>
        <time>2026-02-10T11:52:10.000Z</time>
      </trkpt>
      <trkpt lat="43.61817" lon="6.04825">
        <ele>650</ele>
        <time>2026-02-10T11:52:11.000Z</time>
      </trkpt>
      <trkpt lat="43.61817" lon="6.04826">
        <ele>650</ele>
        <time>2026-02-10T11:52:12.000Z</time>
      </trkpt>
      <trkpt lat="43.61817" lon="6.04827">
        <ele>650</ele>
        <time>2026-02-10T11:52:13.000Z</time>
      </trkpt>
      <trkpt lat="43.61817" lon="6.04828">
        <ele>650</ele>
        <time>2026-02-10T11:52:14.000Z</time>
      </trkpt>
      <trkpt lat="43.61817" lon="6.04829">
        <ele>650</ele>
        <time>2026-02-10T11:52:15.000Z</time>
      </trkpt>
      <trkpt lat="43.61817" lon="6.04829">
        <ele>650</ele>
        <time>2026-02-10T11:52:15.000Z</time>
      </trkpt>
      <trkpt lat="43.61816" lon="6.0483">
        <ele>650</ele>
        <time>2026-02-10T11:52:16.000Z</time>
      </trkpt>
      <trkpt lat="43.61816" lon="6.04831">
        <ele>650</ele>
        <time>2026-02-10T11:52:17.000Z</time>
      </trkpt>
      <trkpt lat="43.61816" lon="6.04832">
        <ele>650</ele>
        <time>2026-02-10T11:52:18.000Z</time>
      </trkpt>
      <trkpt lat="43.61815" lon="6.04832">
        <ele>650</ele>
        <time>2026-02-10T11:52:19.000Z</time>
      </trkpt>
      <trkpt lat="43.61815" lon="6.04833">
        <ele>650</ele>
        <time>2026-02-10T11:52:20.000Z</time>
      </trkpt>
      <trkpt lat="43.61815" lon="6.04834">
        <ele>650</ele>
        <time>2026-02-10T11:52:21.000Z</time>
      </trkpt>
      <trkpt lat="43.61815" lon="6.04834">
        <ele>650</ele>
        <time>2026-02-10T11:52:21.000Z</time>
      </trkpt>
      <trkpt lat="43.61814" lon="6.04835">
        <ele>650</ele>
        <time>2026-02-10T11:52:22.000Z</time>
      </trkpt>
      <trkpt lat="43.61814" lon="6.04836">
        <ele>650</ele>
        <time>2026-02-10T11:52:23.000Z</time>
      </trkpt>
      <trkpt lat="43.61814" lon="6.04837">
        <ele>650</ele>
        <time>2026-02-10T11:52:24.000Z</time>
      </trkpt>
      <trkpt lat="43.61814" lon="6.04838">
        <ele>650</ele>
        <time>2026-02-10T11:52:25.000Z</time>
      </trkpt>
      <trkpt lat="43.61814" lon="6.0484">
        <ele>650</ele>
        <time>2026-02-10T11:52:27.000Z</time>
      </trkpt>
      <trkpt lat="43.61813" lon="6.0484">
        <ele>650</ele>
        <time>2026-02-10T11:52:28.000Z</time>
      </trkpt>
      <trkpt lat="43.61813" lon="6.04841">
        <ele>650</ele>
        <time>2026-02-10T11:52:29.000Z</time>
      </trkpt>
      <trkpt lat="43.61813" lon="6.04842">
        <ele>650</ele>
        <time>2026-02-10T11:52:30.000Z</time>
      </trkpt>
      <trkpt lat="43.61812" lon="6.04844">
        <ele>650</ele>
        <time>2026-02-10T11:52:32.000Z</time>
      </trkpt>
      <trkpt lat="43.61812" lon="6.04845">
        <ele>650</ele>
        <time>2026-02-10T11:52:33.000Z</time>
      </trkpt>
      <trkpt lat="43.61812" lon="6.04846">
        <ele>650</ele>
        <time>2026-02-10T11:52:34.000Z</time>
      </trkpt>
      <trkpt lat="43.61811" lon="6.04847">
        <ele>650</ele>
        <time>2026-02-10T11:52:35.000Z</time>
      </trkpt>
      <trkpt lat="43.61811" lon="6.04848">
        <ele>650</ele>
        <time>2026-02-10T11:52:36.000Z</time>
      </trkpt>
      <trkpt lat="43.61811" lon="6.0485">
        <ele>650</ele>
        <time>2026-02-10T11:52:38.000Z</time>
      </trkpt>
      <trkpt lat="43.61811" lon="6.04851">
        <ele>650</ele>
        <time>2026-02-10T11:52:39.000Z</time>
      </trkpt>
      <trkpt lat="43.6181" lon="6.04853">
        <ele>651</ele>
        <time>2026-02-10T11:52:51.000Z</time>
      </trkpt>
      <trkpt lat="43.6181" lon="6.04853">
        <ele>651</ele>
        <time>2026-02-10T11:52:51.000Z</time>
      </trkpt>
      <trkpt lat="43.6181" lon="6.04855">
        <ele>651</ele>
        <time>2026-02-10T11:52:53.000Z</time>
      </trkpt>
      <trkpt lat="43.6181" lon="6.04856">
        <ele>651</ele>
        <time>2026-02-10T11:52:54.000Z</time>
      </trkpt>
      <trkpt lat="43.61809" lon="6.04857">
        <ele>651</ele>
        <time>2026-02-10T11:52:55.000Z</time>
      </trkpt>
      <trkpt lat="43.61809" lon="6.04859">
        <ele>651</ele>
        <time>2026-02-10T11:52:57.000Z</time>
      </trkpt>
      <trkpt lat="43.61808" lon="6.0486">
        <ele>651</ele>
        <time>2026-02-10T11:52:58.000Z</time>
      </trkpt>
      <trkpt lat="43.61808" lon="6.04862">
        <ele>651</ele>
        <time>2026-02-10T11:53:00.000Z</time>
      </trkpt>
      <trkpt lat="43.61808" lon="6.04863">
        <ele>650</ele>
        <time>2026-02-10T11:53:01.000Z</time>
      </trkpt>
      <trkpt lat="43.61808" lon="6.04864">
        <ele>650</ele>
        <time>2026-02-10T11:53:02.000Z</time>
      </trkpt>
      <trkpt lat="43.61808" lon="6.04866">
        <ele>650</ele>
        <time>2026-02-10T11:53:04.000Z</time>
      </trkpt>
      <trkpt lat="43.61807" lon="6.04867">
        <ele>650</ele>
        <time>2026-02-10T11:53:05.000Z</time>
      </trkpt>
      <trkpt lat="43.61807" lon="6.04869">
        <ele>651</ele>
        <time>2026-02-10T11:53:17.000Z</time>
      </trkpt>
      <trkpt lat="43.61807" lon="6.04871">
        <ele>651</ele>
        <time>2026-02-10T11:53:19.000Z</time>
      </trkpt>
      <trkpt lat="43.61807" lon="6.04872">
        <ele>651</ele>
        <time>2026-02-10T11:53:20.000Z</time>
      </trkpt>
      <trkpt lat="43.61806" lon="6.04873">
        <ele>651</ele>
        <time>2026-02-10T11:53:21.000Z</time>
      </trkpt>
      <trkpt lat="43.61806" lon="6.04874">
        <ele>651</ele>
        <time>2026-02-10T11:53:22.000Z</time>
      </trkpt>
      <trkpt lat="43.61806" lon="6.04876">
        <ele>651</ele>
        <time>2026-02-10T11:53:24.000Z</time>
      </trkpt>
      <trkpt lat="43.61805" lon="6.04877">
        <ele>651</ele>
        <time>2026-02-10T11:53:25.000Z</time>
      </trkpt>
      <trkpt lat="43.61805" lon="6.04879">
        <ele>651</ele>
        <time>2026-02-10T11:53:27.000Z</time>
      </trkpt>
      <trkpt lat="43.61805" lon="6.0488">
        <ele>651</ele>
        <time>2026-02-10T11:53:28.000Z</time>
      </trkpt>
      <trkpt lat="43.61805" lon="6.04881">
        <ele>651</ele>
        <time>2026-02-10T11:53:29.000Z</time>
      </trkpt>
      <trkpt lat="43.61804" lon="6.04883">
        <ele>651</ele>
        <time>2026-02-10T11:53:31.000Z</time>
      </trkpt>
      <trkpt lat="43.61804" lon="6.04884">
        <ele>651</ele>
        <time>2026-02-10T11:53:32.000Z</time>
      </trkpt>
      <trkpt lat="43.61804" lon="6.04885">
        <ele>651</ele>
        <time>2026-02-10T11:53:33.000Z</time>
      </trkpt>
      <trkpt lat="43.61803" lon="6.04886">
        <ele>651</ele>
        <time>2026-02-10T11:53:34.000Z</time>
      </trkpt>
      <trkpt lat="43.61803" lon="6.04888">
        <ele>651</ele>
        <time>2026-02-10T11:53:36.000Z</time>
      </trkpt>
      <trkpt lat="43.61803" lon="6.04889">
        <ele>651</ele>
        <time>2026-02-10T11:53:37.000Z</time>
      </trkpt>
      <trkpt lat="43.61802" lon="6.04891">
        <ele>651</ele>
        <time>2026-02-10T11:53:39.000Z</time>
      </trkpt>
      <trkpt lat="43.61802" lon="6.04892">
        <ele>650</ele>
        <time>2026-02-10T11:53:40.000Z</time>
      </trkpt>
      <trkpt lat="43.61801" lon="6.04894">
        <ele>650</ele>
        <time>2026-02-10T11:53:42.000Z</time>
      </trkpt>
      <trkpt lat="43.61801" lon="6.04895">
        <ele>650</ele>
        <time>2026-02-10T11:53:43.000Z</time>
      </trkpt>
      <trkpt lat="43.61801" lon="6.04897">
        <ele>650</ele>
        <time>2026-02-10T11:53:45.000Z</time>
      </trkpt>
      <trkpt lat="43.618" lon="6.04898">
        <ele>650</ele>
        <time>2026-02-10T11:53:46.000Z</time>
      </trkpt>
      <trkpt lat="43.618" lon="6.049">
        <ele>650</ele>
        <time>2026-02-10T11:53:48.000Z</time>
      </trkpt>
      <trkpt lat="43.61799" lon="6.04902">
        <ele>650</ele>
        <time>2026-02-10T11:53:50.000Z</time>
      </trkpt>
      <trkpt lat="43.61799" lon="6.04903">
        <ele>650</ele>
        <time>2026-02-10T11:53:51.000Z</time>
      </trkpt>
      <trkpt lat="43.61798" lon="6.04905">
        <ele>651</ele>
        <time>2026-02-10T11:54:03.000Z</time>
      </trkpt>
      <trkpt lat="43.61798" lon="6.04907">
        <ele>651</ele>
        <time>2026-02-10T11:54:05.000Z</time>
      </trkpt>
      <trkpt lat="43.61798" lon="6.04908">
        <ele>651</ele>
        <time>2026-02-10T11:54:06.000Z</time>
      </trkpt>
      <trkpt lat="43.61798" lon="6.0491">
        <ele>651</ele>
        <time>2026-02-10T11:54:08.000Z</time>
      </trkpt>
      <trkpt lat="43.61797" lon="6.04911">
        <ele>651</ele>
        <time>2026-02-10T11:54:09.000Z</time>
      </trkpt>
      <trkpt lat="43.61797" lon="6.04912">
        <ele>651</ele>
        <time>2026-02-10T11:54:10.000Z</time>
      </trkpt>
      <trkpt lat="43.61796" lon="6.04914">
        <ele>651</ele>
        <time>2026-02-10T11:54:12.000Z</time>
      </trkpt>
      <trkpt lat="43.61796" lon="6.04916">
        <ele>651</ele>
        <time>2026-02-10T11:54:14.000Z</time>
      </trkpt>
      <trkpt lat="43.61796" lon="6.04917">
        <ele>651</ele>
        <time>2026-02-10T11:54:15.000Z</time>
      </trkpt>
      <trkpt lat="43.61795" lon="6.04918">
        <ele>651</ele>
        <time>2026-02-10T11:54:16.000Z</time>
      </trkpt>
      <trkpt lat="43.61795" lon="6.0492">
        <ele>651</ele>
        <time>2026-02-10T11:54:18.000Z</time>
      </trkpt>
      <trkpt lat="43.61794" lon="6.04921">
        <ele>651</ele>
        <time>2026-02-10T11:54:19.000Z</time>
      </trkpt>
      <trkpt lat="43.61794" lon="6.04922">
        <ele>651</ele>
        <time>2026-02-10T11:54:20.000Z</time>
      </trkpt>
      <trkpt lat="43.61793" lon="6.04923">
        <ele>651</ele>
        <time>2026-02-10T11:54:21.000Z</time>
      </trkpt>
      <trkpt lat="43.61792" lon="6.04925">
        <ele>651</ele>
        <time>2026-02-10T11:54:23.000Z</time>
      </trkpt>
      <trkpt lat="43.61792" lon="6.04926">
        <ele>651</ele>
        <time>2026-02-10T11:54:24.000Z</time>
      </trkpt>
      <trkpt lat="43.61792" lon="6.04928">
        <ele>651</ele>
        <time>2026-02-10T11:54:26.000Z</time>
      </trkpt>
      <trkpt lat="43.61791" lon="6.04929">
        <ele>651</ele>
        <time>2026-02-10T11:54:27.000Z</time>
      </trkpt>
      <trkpt lat="43.61791" lon="6.0493">
        <ele>651</ele>
        <time>2026-02-10T11:54:28.000Z</time>
      </trkpt>
      <trkpt lat="43.6179" lon="6.04931">
        <ele>651</ele>
        <time>2026-02-10T11:54:29.000Z</time>
      </trkpt>
      <trkpt lat="43.6179" lon="6.04933">
        <ele>651</ele>
        <time>2026-02-10T11:54:31.000Z</time>
      </trkpt>
      <trkpt lat="43.6179" lon="6.04934">
        <ele>651</ele>
        <time>2026-02-10T11:54:32.000Z</time>
      </trkpt>
      <trkpt lat="43.61789" lon="6.04936">
        <ele>652</ele>
        <time>2026-02-10T11:54:44.000Z</time>
      </trkpt>
      <trkpt lat="43.61789" lon="6.04937">
        <ele>652</ele>
        <time>2026-02-10T11:54:45.000Z</time>
      </trkpt>
      <trkpt lat="43.61788" lon="6.04939">
        <ele>652</ele>
        <time>2026-02-10T11:54:47.000Z</time>
      </trkpt>
      <trkpt lat="43.61788" lon="6.0494">
        <ele>652</ele>
        <time>2026-02-10T11:54:48.000Z</time>
      </trkpt>
      <trkpt lat="43.61787" lon="6.04941">
        <ele>652</ele>
        <time>2026-02-10T11:54:49.000Z</time>
      </trkpt>
      <trkpt lat="43.61787" lon="6.04943">
        <ele>652</ele>
        <time>2026-02-10T11:54:51.000Z</time>
      </trkpt>
      <trkpt lat="43.61786" lon="6.04944">
        <ele>652</ele>
        <time>2026-02-10T11:54:52.000Z</time>
      </trkpt>
      <trkpt lat="43.61786" lon="6.04945">
        <ele>652</ele>
        <time>2026-02-10T11:54:53.000Z</time>
      </trkpt>
      <trkpt lat="43.61786" lon="6.04946">
        <ele>652</ele>
        <time>2026-02-10T11:54:54.000Z</time>
      </trkpt>
      <trkpt lat="43.61785" lon="6.04947">
        <ele>652</ele>
        <time>2026-02-10T11:54:55.000Z</time>
      </trkpt>
      <trkpt lat="43.61785" lon="6.04948">
        <ele>652</ele>
        <time>2026-02-10T11:54:56.000Z</time>
      </trkpt>
      <trkpt lat="43.61784" lon="6.04949">
        <ele>652</ele>
        <time>2026-02-10T11:54:57.000Z</time>
      </trkpt>
      <trkpt lat="43.61784" lon="6.0495">
        <ele>652</ele>
        <time>2026-02-10T11:54:58.000Z</time>
      </trkpt>
      <trkpt lat="43.61783" lon="6.04951">
        <ele>653</ele>
        <time>2026-02-10T11:55:10.000Z</time>
      </trkpt>
      <trkpt lat="43.61783" lon="6.04952">
        <ele>653</ele>
        <time>2026-02-10T11:55:11.000Z</time>
      </trkpt>
      <trkpt lat="43.61782" lon="6.04954">
        <ele>653</ele>
        <time>2026-02-10T11:55:13.000Z</time>
      </trkpt>
      <trkpt lat="43.61782" lon="6.04955">
        <ele>653</ele>
        <time>2026-02-10T11:55:14.000Z</time>
      </trkpt>
      <trkpt lat="43.61781" lon="6.04956">
        <ele>653</ele>
        <time>2026-02-10T11:55:15.000Z</time>
      </trkpt>
      <trkpt lat="43.61781" lon="6.04958">
        <ele>653</ele>
        <time>2026-02-10T11:55:17.000Z</time>
      </trkpt>
      <trkpt lat="43.6178" lon="6.04959">
        <ele>654</ele>
        <time>2026-02-10T11:55:29.000Z</time>
      </trkpt>
      <trkpt lat="43.61779" lon="6.0496">
        <ele>654</ele>
        <time>2026-02-10T11:55:30.000Z</time>
      </trkpt>
      <trkpt lat="43.61779" lon="6.04961">
        <ele>654</ele>
        <time>2026-02-10T11:55:31.000Z</time>
      </trkpt>
      <trkpt lat="43.61779" lon="6.04963">
        <ele>654</ele>
        <time>2026-02-10T11:55:33.000Z</time>
      </trkpt>
      <trkpt lat="43.61778" lon="6.04964">
        <ele>654</ele>
        <time>2026-02-10T11:55:34.000Z</time>
      </trkpt>
      <trkpt lat="43.61778" lon="6.04966">
        <ele>654</ele>
        <time>2026-02-10T11:55:36.000Z</time>
      </trkpt>
      <trkpt lat="43.61778" lon="6.04967">
        <ele>654</ele>
        <time>2026-02-10T11:55:37.000Z</time>
      </trkpt>
      <trkpt lat="43.61777" lon="6.04969">
        <ele>654</ele>
        <time>2026-02-10T11:55:39.000Z</time>
      </trkpt>
      <trkpt lat="43.61777" lon="6.0497">
        <ele>654</ele>
        <time>2026-02-10T11:55:40.000Z</time>
      </trkpt>
      <trkpt lat="43.61777" lon="6.04971">
        <ele>654</ele>
        <time>2026-02-10T11:55:41.000Z</time>
      </trkpt>
      <trkpt lat="43.61777" lon="6.04973">
        <ele>655</ele>
        <time>2026-02-10T11:55:53.000Z</time>
      </trkpt>
      <trkpt lat="43.61777" lon="6.04975">
        <ele>655</ele>
        <time>2026-02-10T11:55:55.000Z</time>
      </trkpt>
      <trkpt lat="43.61776" lon="6.04976">
        <ele>655</ele>
        <time>2026-02-10T11:55:56.000Z</time>
      </trkpt>
      <trkpt lat="43.61776" lon="6.04978">
        <ele>655</ele>
        <time>2026-02-10T11:55:58.000Z</time>
      </trkpt>
      <trkpt lat="43.61775" lon="6.04979">
        <ele>655</ele>
        <time>2026-02-10T11:55:59.000Z</time>
      </trkpt>
      <trkpt lat="43.61775" lon="6.0498">
        <ele>655</ele>
        <time>2026-02-10T11:56:00.000Z</time>
      </trkpt>
      <trkpt lat="43.61775" lon="6.04981">
        <ele>655</ele>
        <time>2026-02-10T11:56:01.000Z</time>
      </trkpt>
      <trkpt lat="43.61775" lon="6.04982">
        <ele>655</ele>
        <time>2026-02-10T11:56:02.000Z</time>
      </trkpt>
      <trkpt lat="43.61775" lon="6.04984">
        <ele>655</ele>
        <time>2026-02-10T11:56:04.000Z</time>
      </trkpt>
      <trkpt lat="43.61776" lon="6.04986">
        <ele>655</ele>
        <time>2026-02-10T11:56:06.000Z</time>
      </trkpt>
      <trkpt lat="43.61776" lon="6.04988">
        <ele>655</ele>
        <time>2026-02-10T11:56:08.000Z</time>
      </trkpt>
      <trkpt lat="43.61776" lon="6.04989">
        <ele>655</ele>
        <time>2026-02-10T11:56:09.000Z</time>
      </trkpt>
      <trkpt lat="43.61776" lon="6.0499">
        <ele>656</ele>
        <time>2026-02-10T11:56:20.000Z</time>
      </trkpt>
      <trkpt lat="43.61776" lon="6.04992">
        <ele>656</ele>
        <time>2026-02-10T11:56:22.000Z</time>
      </trkpt>
      <trkpt lat="43.61776" lon="6.04993">
        <ele>656</ele>
        <time>2026-02-10T11:56:23.000Z</time>
      </trkpt>
      <trkpt lat="43.61776" lon="6.04994">
        <ele>656</ele>
        <time>2026-02-10T11:56:24.000Z</time>
      </trkpt>
      <trkpt lat="43.61776" lon="6.04996">
        <ele>656</ele>
        <time>2026-02-10T11:56:26.000Z</time>
      </trkpt>
      <trkpt lat="43.61775" lon="6.04997">
        <ele>656</ele>
        <time>2026-02-10T11:56:27.000Z</time>
      </trkpt>
      <trkpt lat="43.61775" lon="6.04998">
        <ele>657</ele>
        <time>2026-02-10T11:56:38.000Z</time>
      </trkpt>
      <trkpt lat="43.61776" lon="6.05">
        <ele>657</ele>
        <time>2026-02-10T11:56:40.000Z</time>
      </trkpt>
      <trkpt lat="43.61775" lon="6.05001">
        <ele>657</ele>
        <time>2026-02-10T11:56:41.000Z</time>
      </trkpt>
      <trkpt lat="43.61775" lon="6.05003">
        <ele>657</ele>
        <time>2026-02-10T11:56:43.000Z</time>
      </trkpt>
      <trkpt lat="43.61775" lon="6.05004">
        <ele>657</ele>
        <time>2026-02-10T11:56:44.000Z</time>
      </trkpt>
      <trkpt lat="43.61775" lon="6.05005">
        <ele>657</ele>
        <time>2026-02-10T11:56:45.000Z</time>
      </trkpt>
      <trkpt lat="43.61775" lon="6.05007">
        <ele>657</ele>
        <time>2026-02-10T11:56:47.000Z</time>
      </trkpt>
      <trkpt lat="43.61776" lon="6.05008">
        <ele>657</ele>
        <time>2026-02-10T11:56:48.000Z</time>
      </trkpt>
      <trkpt lat="43.61776" lon="6.05009">
        <ele>657</ele>
        <time>2026-02-10T11:56:49.000Z</time>
      </trkpt>
      <trkpt lat="43.61776" lon="6.05011">
        <ele>658</ele>
        <time>2026-02-10T11:57:01.000Z</time>
      </trkpt>
      <trkpt lat="43.61776" lon="6.05012">
        <ele>658</ele>
        <time>2026-02-10T11:57:02.000Z</time>
      </trkpt>
      <trkpt lat="43.61776" lon="6.05014">
        <ele>658</ele>
        <time>2026-02-10T11:57:04.000Z</time>
      </trkpt>
      <trkpt lat="43.61776" lon="6.05015">
        <ele>658</ele>
        <time>2026-02-10T11:57:05.000Z</time>
      </trkpt>
      <trkpt lat="43.61776" lon="6.05017">
        <ele>658</ele>
        <time>2026-02-10T11:57:07.000Z</time>
      </trkpt>
      <trkpt lat="43.61776" lon="6.05019">
        <ele>658</ele>
        <time>2026-02-10T11:57:09.000Z</time>
      </trkpt>
      <trkpt lat="43.61776" lon="6.0502">
        <ele>658</ele>
        <time>2026-02-10T11:57:10.000Z</time>
      </trkpt>
      <trkpt lat="43.61776" lon="6.05021">
        <ele>658</ele>
        <time>2026-02-10T11:57:11.000Z</time>
      </trkpt>
      <trkpt lat="43.61776" lon="6.05023">
        <ele>658</ele>
        <time>2026-02-10T11:57:13.000Z</time>
      </trkpt>
      <trkpt lat="43.61777" lon="6.05024">
        <ele>658</ele>
        <time>2026-02-10T11:57:14.000Z</time>
      </trkpt>
      <trkpt lat="43.61777" lon="6.05026">
        <ele>658</ele>
        <time>2026-02-10T11:57:16.000Z</time>
      </trkpt>
      <trkpt lat="43.61777" lon="6.05027">
        <ele>658</ele>
        <time>2026-02-10T11:57:17.000Z</time>
      </trkpt>
      <trkpt lat="43.61777" lon="6.05028">
        <ele>658</ele>
        <time>2026-02-10T11:57:18.000Z</time>
      </trkpt>
      <trkpt lat="43.61777" lon="6.0503">
        <ele>658</ele>
        <time>2026-02-10T11:57:20.000Z</time>
      </trkpt>
      <trkpt lat="43.61777" lon="6.05031">
        <ele>659</ele>
        <time>2026-02-10T11:57:31.000Z</time>
      </trkpt>
      <trkpt lat="43.61777" lon="6.05032">
        <ele>659</ele>
        <time>2026-02-10T11:57:32.000Z</time>
      </trkpt>
      <trkpt lat="43.61777" lon="6.05034">
        <ele>659</ele>
        <time>2026-02-10T11:57:34.000Z</time>
      </trkpt>
      <trkpt lat="43.61777" lon="6.05035">
        <ele>659</ele>
        <time>2026-02-10T11:57:35.000Z</time>
      </trkpt>
      <trkpt lat="43.61777" lon="6.05036">
        <ele>659</ele>
        <time>2026-02-10T11:57:36.000Z</time>
      </trkpt>
      <trkpt lat="43.61777" lon="6.05037">
        <ele>659</ele>
        <time>2026-02-10T11:57:37.000Z</time>
      </trkpt>
      <trkpt lat="43.61777" lon="6.05038">
        <ele>659</ele>
        <time>2026-02-10T11:57:38.000Z</time>
      </trkpt>
      <trkpt lat="43.61777" lon="6.0504">
        <ele>659</ele>
        <time>2026-02-10T11:57:40.000Z</time>
      </trkpt>
      <trkpt lat="43.61777" lon="6.0504">
        <ele>659</ele>
        <time>2026-02-10T11:57:40.000Z</time>
      </trkpt>
      <trkpt lat="43.61777" lon="6.05041">
        <ele>659</ele>
        <time>2026-02-10T11:57:41.000Z</time>
      </trkpt>
      <trkpt lat="43.61777" lon="6.05042">
        <ele>659</ele>
        <time>2026-02-10T11:57:42.000Z</time>
      </trkpt>
      <trkpt lat="43.61777" lon="6.05042">
        <ele>659</ele>
        <time>2026-02-10T11:57:42.000Z</time>
      </trkpt>
      <trkpt lat="43.61777" lon="6.05042">
        <ele>659</ele>
        <time>2026-02-10T11:57:42.000Z</time>
      </trkpt>
      <trkpt lat="43.61777" lon="6.05043">
        <ele>659</ele>
        <time>2026-02-10T11:57:43.000Z</time>
      </trkpt>
      <trkpt lat="43.61776" lon="6.05043">
        <ele>659</ele>
        <time>2026-02-10T11:57:44.000Z</time>
      </trkpt>
      <trkpt lat="43.61776" lon="6.05043">
        <ele>659</ele>
        <time>2026-02-10T11:57:44.000Z</time>
      </trkpt>
      <trkpt lat="43.61776" lon="6.05043">
        <ele>659</ele>
        <time>2026-02-10T11:57:44.000Z</time>
      </trkpt>
      <trkpt lat="43.61776" lon="6.05043">
        <ele>659</ele>
        <time>2026-02-10T11:57:44.000Z</time>
      </trkpt>
      <trkpt lat="43.61776" lon="6.05043">
        <ele>659</ele>
        <time>2026-02-10T11:57:44.000Z</time>
      </trkpt>
      <trkpt lat="43.61776" lon="6.05044">
        <ele>659</ele>
        <time>2026-02-10T11:57:45.000Z</time>
      </trkpt>
      <trkpt lat="43.61776" lon="6.05044">
        <ele>659</ele>
        <time>2026-02-10T11:57:45.000Z</time>
      </trkpt>
      <trkpt lat="43.61776" lon="6.05045">
        <ele>659</ele>
        <time>2026-02-10T11:57:46.000Z</time>
      </trkpt>
      <trkpt lat="43.61776" lon="6.05045">
        <ele>659</ele>
        <time>2026-02-10T11:57:46.000Z</time>
      </trkpt>
      <trkpt lat="43.61775" lon="6.05045">
        <ele>659</ele>
        <time>2026-02-10T11:57:47.000Z</time>
      </trkpt>
      <trkpt lat="43.61775" lon="6.05045">
        <ele>659</ele>
        <time>2026-02-10T11:57:47.000Z</time>
      </trkpt>
      <trkpt lat="43.61775" lon="6.05045">
        <ele>659</ele>
        <time>2026-02-10T11:57:47.000Z</time>
      </trkpt>
      <trkpt lat="43.61776" lon="6.05045">
        <ele>659</ele>
        <time>2026-02-10T11:57:48.000Z</time>
      </trkpt>
      <trkpt lat="43.61776" lon="6.05046">
        <ele>659</ele>
        <time>2026-02-10T11:57:49.000Z</time>
      </trkpt>
      <trkpt lat="43.61776" lon="6.05046">
        <ele>659</ele>
        <time>2026-02-10T11:57:49.000Z</time>
      </trkpt>
      <trkpt lat="43.61776" lon="6.05046">
        <ele>659</ele>
        <time>2026-02-10T11:57:49.000Z</time>
      </trkpt>
      <trkpt lat="43.61776" lon="6.05046">
        <ele>659</ele>
        <time>2026-02-10T11:57:49.000Z</time>
      </trkpt>
      <trkpt lat="43.61776" lon="6.05046">
        <ele>659</ele>
        <time>2026-02-10T11:57:49.000Z</time>
      </trkpt>
      <trkpt lat="43.61776" lon="6.05046">
        <ele>659</ele>
        <time>2026-02-10T11:57:49.000Z</time>
      </trkpt>
      <trkpt lat="43.61776" lon="6.05046">
        <ele>659</ele>
        <time>2026-02-10T11:57:49.000Z</time>
      </trkpt>
      <trkpt lat="43.61776" lon="6.05046">
        <ele>659</ele>
        <time>2026-02-10T11:57:49.000Z</time>
      </trkpt>
      <trkpt lat="43.61776" lon="6.05046">
        <ele>659</ele>
        <time>2026-02-10T11:57:49.000Z</time>
      </trkpt>
      <trkpt lat="43.61775" lon="6.05046">
        <ele>659</ele>
        <time>2026-02-10T11:57:50.000Z</time>
      </trkpt>
      <trkpt lat="43.61775" lon="6.05046">
        <ele>659</ele>
        <time>2026-02-10T11:57:50.000Z</time>
      </trkpt>
      <trkpt lat="43.61776" lon="6.05046">
        <ele>659</ele>
        <time>2026-02-10T11:57:51.000Z</time>
      </trkpt>
      <trkpt lat="43.61776" lon="6.05046">
        <ele>659</ele>
        <time>2026-02-10T11:57:51.000Z</time>
      </trkpt>
      <trkpt lat="43.61776" lon="6.05046">
        <ele>659</ele>
        <time>2026-02-10T11:57:51.000Z</time>
      </trkpt>
      <trkpt lat="43.61776" lon="6.05046">
        <ele>659</ele>
        <time>2026-02-10T11:57:51.000Z</time>
      </trkpt>
      <trkpt lat="43.61776" lon="6.05046">
        <ele>659</ele>
        <time>2026-02-10T11:57:51.000Z</time>
      </trkpt>
      <trkpt lat="43.61776" lon="6.05046">
        <ele>659</ele>
        <time>2026-02-10T11:57:51.000Z</time>
      </trkpt>
      <trkpt lat="43.61776" lon="6.05046">
        <ele>659</ele>
        <time>2026-02-10T11:57:51.000Z</time>
      </trkpt>
      <trkpt lat="43.61776" lon="6.05047">
        <ele>659</ele>
        <time>2026-02-10T11:57:52.000Z</time>
      </trkpt>
      <trkpt lat="43.61776" lon="6.05047">
        <ele>659</ele>
        <time>2026-02-10T11:57:52.000Z</time>
      </trkpt>
      <trkpt lat="43.61776" lon="6.05047">
        <ele>659</ele>
        <time>2026-02-10T11:57:52.000Z</time>
      </trkpt>
      <trkpt lat="43.61776" lon="6.05047">
        <ele>659</ele>
        <time>2026-02-10T11:57:52.000Z</time>
      </trkpt>
      <trkpt lat="43.61776" lon="6.05047">
        <ele>659</ele>
        <time>2026-02-10T11:57:52.000Z</time>
      </trkpt>
      <trkpt lat="43.61776" lon="6.05048">
        <ele>659</ele>
        <time>2026-02-10T11:57:53.000Z</time>
      </trkpt>
      <trkpt lat="43.61776" lon="6.05048">
        <ele>659</ele>
        <time>2026-02-10T11:57:53.000Z</time>
      </trkpt>
      <trkpt lat="43.61776" lon="6.05048">
        <ele>659</ele>
        <time>2026-02-10T11:57:53.000Z</time>
      </trkpt>
      <trkpt lat="43.61777" lon="6.05048">
        <ele>659</ele>
        <time>2026-02-10T11:57:54.000Z</time>
      </trkpt>
      <trkpt lat="43.61776" lon="6.05048">
        <ele>659</ele>
        <time>2026-02-10T11:57:55.000Z</time>
      </trkpt>
      <trkpt lat="43.61776" lon="6.05048">
        <ele>659</ele>
        <time>2026-02-10T11:57:55.000Z</time>
      </trkpt>
      <trkpt lat="43.61777" lon="6.05048">
        <ele>659</ele>
        <time>2026-02-10T11:57:56.000Z</time>
      </trkpt>
      <trkpt lat="43.61777" lon="6.05048">
        <ele>659</ele>
        <time>2026-02-10T11:57:56.000Z</time>
      </trkpt>
      <trkpt lat="43.61776" lon="6.05048">
        <ele>659</ele>
        <time>2026-02-10T11:57:57.000Z</time>
      </trkpt>
      <trkpt lat="43.61776" lon="6.05048">
        <ele>659</ele>
        <time>2026-02-10T11:57:57.000Z</time>
      </trkpt>
      <trkpt lat="43.61776" lon="6.05048">
        <ele>659</ele>
        <time>2026-02-10T11:57:57.000Z</time>
      </trkpt>
      <trkpt lat="43.61777" lon="6.05048">
        <ele>659</ele>
        <time>2026-02-10T11:57:58.000Z</time>
      </trkpt>
      <trkpt lat="43.61777" lon="6.05048">
        <ele>659</ele>
        <time>2026-02-10T11:57:58.000Z</time>
      </trkpt>
      <trkpt lat="43.61777" lon="6.05048">
        <ele>659</ele>
        <time>2026-02-10T11:57:58.000Z</time>
      </trkpt>
      <trkpt lat="43.61777" lon="6.05048">
        <ele>659</ele>
        <time>2026-02-10T11:57:58.000Z</time>
      </trkpt>
      <trkpt lat="43.61777" lon="6.05048">
        <ele>659</ele>
        <time>2026-02-10T11:57:58.000Z</time>
      </trkpt>
      <trkpt lat="43.61777" lon="6.05048">
        <ele>659</ele>
        <time>2026-02-10T11:57:58.000Z</time>
      </trkpt>
      <trkpt lat="43.61777" lon="6.05047">
        <ele>659</ele>
        <time>2026-02-10T11:57:59.000Z</time>
      </trkpt>
      <trkpt lat="43.61777" lon="6.05047">
        <ele>659</ele>
        <time>2026-02-10T11:57:59.000Z</time>
      </trkpt>
      <trkpt lat="43.61777" lon="6.05047">
        <ele>659</ele>
        <time>2026-02-10T11:57:59.000Z</time>
      </trkpt>
      <trkpt lat="43.61777" lon="6.05047">
        <ele>659</ele>
        <time>2026-02-10T11:57:59.000Z</time>
      </trkpt>
      <trkpt lat="43.61777" lon="6.05047">
        <ele>659</ele>
        <time>2026-02-10T11:57:59.000Z</time>
      </trkpt>
      <trkpt lat="43.61777" lon="6.05047">
        <ele>659</ele>
        <time>2026-02-10T11:57:59.000Z</time>
      </trkpt>
      <trkpt lat="43.61776" lon="6.05048">
        <ele>659</ele>
        <time>2026-02-10T11:58:00.000Z</time>
      </trkpt>
      <trkpt lat="43.61777" lon="6.05048">
        <ele>659</ele>
        <time>2026-02-10T11:58:01.000Z</time>
      </trkpt>
      <trkpt lat="43.61777" lon="6.05048">
        <ele>659</ele>
        <time>2026-02-10T11:58:01.000Z</time>
      </trkpt>
      <trkpt lat="43.61777" lon="6.05049">
        <ele>659</ele>
        <time>2026-02-10T11:58:02.000Z</time>
      </trkpt>
      <trkpt lat="43.61777" lon="6.05049">
        <ele>659</ele>
        <time>2026-02-10T11:58:02.000Z</time>
      </trkpt>
      <trkpt lat="43.61777" lon="6.0505">
        <ele>659</ele>
        <time>2026-02-10T11:58:03.000Z</time>
      </trkpt>
      <trkpt lat="43.61777" lon="6.0505">
        <ele>659</ele>
        <time>2026-02-10T11:58:03.000Z</time>
      </trkpt>
      <trkpt lat="43.61777" lon="6.0505">
        <ele>659</ele>
        <time>2026-02-10T11:58:03.000Z</time>
      </trkpt>
      <trkpt lat="43.61776" lon="6.0505">
        <ele>659</ele>
        <time>2026-02-10T11:58:04.000Z</time>
      </trkpt>
      <trkpt lat="43.61776" lon="6.05051">
        <ele>659</ele>
        <time>2026-02-10T11:58:05.000Z</time>
      </trkpt>
      <trkpt lat="43.61776" lon="6.05051">
        <ele>659</ele>
        <time>2026-02-10T11:58:05.000Z</time>
      </trkpt>
      <trkpt lat="43.61776" lon="6.05051">
        <ele>659</ele>
        <time>2026-02-10T11:58:05.000Z</time>
      </trkpt>
      <trkpt lat="43.61776" lon="6.05051">
        <ele>659</ele>
        <time>2026-02-10T11:58:05.000Z</time>
      </trkpt>
      <trkpt lat="43.61776" lon="6.05051">
        <ele>659</ele>
        <time>2026-02-10T11:58:05.000Z</time>
      </trkpt>
      <trkpt lat="43.61776" lon="6.05051">
        <ele>659</ele>
        <time>2026-02-10T11:58:05.000Z</time>
      </trkpt>
      <trkpt lat="43.61776" lon="6.05051">
        <ele>659</ele>
        <time>2026-02-10T11:58:05.000Z</time>
      </trkpt>
      <trkpt lat="43.61776" lon="6.05051">
        <ele>659</ele>
        <time>2026-02-10T11:58:05.000Z</time>
      </trkpt>
      <trkpt lat="43.61776" lon="6.05051">
        <ele>659</ele>
        <time>2026-02-10T11:58:05.000Z</time>
      </trkpt>
      <trkpt lat="43.61776" lon="6.05052">
        <ele>659</ele>
        <time>2026-02-10T11:58:06.000Z</time>
      </trkpt>
      <trkpt lat="43.61776" lon="6.05052">
        <ele>659</ele>
        <time>2026-02-10T11:58:06.000Z</time>
      </trkpt>
      <trkpt lat="43.61776" lon="6.05052">
        <ele>659</ele>
        <time>2026-02-10T11:58:06.000Z</time>
      </trkpt>
      <trkpt lat="43.61776" lon="6.05052">
        <ele>659</ele>
        <time>2026-02-10T11:58:06.000Z</time>
      </trkpt>
      <trkpt lat="43.61776" lon="6.05052">
        <ele>659</ele>
        <time>2026-02-10T11:58:06.000Z</time>
      </trkpt>
      <trkpt lat="43.61776" lon="6.05052">
        <ele>659</ele>
        <time>2026-02-10T11:58:06.000Z</time>
      </trkpt>
      <trkpt lat="43.61776" lon="6.05052">
        <ele>659</ele>
        <time>2026-02-10T11:58:06.000Z</time>
      </trkpt>
      <trkpt lat="43.61776" lon="6.05052">
        <ele>659</ele>
        <time>2026-02-10T11:58:06.000Z</time>
      </trkpt>
      <trkpt lat="43.61776" lon="6.05052">
        <ele>659</ele>
        <time>2026-02-10T11:58:06.000Z</time>
      </trkpt>
      <trkpt lat="43.61776" lon="6.05053">
        <ele>659</ele>
        <time>2026-02-10T11:58:07.000Z</time>
      </trkpt>
      <trkpt lat="43.61776" lon="6.05053">
        <ele>659</ele>
        <time>2026-02-10T11:58:07.000Z</time>
      </trkpt>
      <trkpt lat="43.61776" lon="6.05053">
        <ele>659</ele>
        <time>2026-02-10T11:58:07.000Z</time>
      </trkpt>
      <trkpt lat="43.61776" lon="6.05053">
        <ele>659</ele>
        <time>2026-02-10T11:58:07.000Z</time>
      </trkpt>
      <trkpt lat="43.61776" lon="6.05053">
        <ele>659</ele>
        <time>2026-02-10T11:58:07.000Z</time>
      </trkpt>
      <trkpt lat="43.61776" lon="6.05054">
        <ele>659</ele>
        <time>2026-02-10T11:58:08.000Z</time>
      </trkpt>
      <trkpt lat="43.61776" lon="6.05054">
        <ele>659</ele>
        <time>2026-02-10T11:58:08.000Z</time>
      </trkpt>
      <trkpt lat="43.61776" lon="6.05054">
        <ele>659</ele>
        <time>2026-02-10T11:58:08.000Z</time>
      </trkpt>
      <trkpt lat="43.61776" lon="6.05054">
        <ele>659</ele>
        <time>2026-02-10T11:58:08.000Z</time>
      </trkpt>
      <trkpt lat="43.61776" lon="6.05054">
        <ele>659</ele>
        <time>2026-02-10T11:58:08.000Z</time>
      </trkpt>
      <trkpt lat="43.61776" lon="6.05054">
        <ele>659</ele>
        <time>2026-02-10T11:58:08.000Z</time>
      </trkpt>
      <trkpt lat="43.61776" lon="6.05055">
        <ele>659</ele>
        <time>2026-02-10T11:58:09.000Z</time>
      </trkpt>
      <trkpt lat="43.61776" lon="6.05056">
        <ele>659</ele>
        <time>2026-02-10T11:58:10.000Z</time>
      </trkpt>
      <trkpt lat="43.61776" lon="6.05056">
        <ele>659</ele>
        <time>2026-02-10T11:58:10.000Z</time>
      </trkpt>
      <trkpt lat="43.61776" lon="6.05056">
        <ele>659</ele>
        <time>2026-02-10T11:58:10.000Z</time>
      </trkpt>
      <trkpt lat="43.61776" lon="6.05057">
        <ele>659</ele>
        <time>2026-02-10T11:58:11.000Z</time>
      </trkpt>
      <trkpt lat="43.61776" lon="6.05057">
        <ele>659</ele>
        <time>2026-02-10T11:58:11.000Z</time>
      </trkpt>
      <trkpt lat="43.61777" lon="6.05057">
        <ele>659</ele>
        <time>2026-02-10T11:58:12.000Z</time>
      </trkpt>
      <trkpt lat="43.61777" lon="6.05057">
        <ele>659</ele>
        <time>2026-02-10T11:58:12.000Z</time>
      </trkpt>
      <trkpt lat="43.61777" lon="6.05057">
        <ele>659</ele>
        <time>2026-02-10T11:58:12.000Z</time>
      </trkpt>
      <trkpt lat="43.61777" lon="6.05058">
        <ele>659</ele>
        <time>2026-02-10T11:58:13.000Z</time>
      </trkpt>
      <trkpt lat="43.61777" lon="6.05058">
        <ele>659</ele>
        <time>2026-02-10T11:58:13.000Z</time>
      </trkpt>
      <trkpt lat="43.61777" lon="6.05058">
        <ele>659</ele>
        <time>2026-02-10T11:58:13.000Z</time>
      </trkpt>
      <trkpt lat="43.61777" lon="6.05058">
        <ele>659</ele>
        <time>2026-02-10T11:58:13.000Z</time>
      </trkpt>
      <trkpt lat="43.61777" lon="6.05058">
        <ele>659</ele>
        <time>2026-02-10T11:58:13.000Z</time>
      </trkpt>
      <trkpt lat="43.61777" lon="6.05058">
        <ele>659</ele>
        <time>2026-02-10T11:58:13.000Z</time>
      </trkpt>
      <trkpt lat="43.61777" lon="6.05058">
        <ele>659</ele>
        <time>2026-02-10T11:58:13.000Z</time>
      </trkpt>
      <trkpt lat="43.61776" lon="6.05058">
        <ele>659</ele>
        <time>2026-02-10T11:58:14.000Z</time>
      </trkpt>
      <trkpt lat="43.61776" lon="6.05058">
        <ele>659</ele>
        <time>2026-02-10T11:58:14.000Z</time>
      </trkpt>
      <trkpt lat="43.61776" lon="6.05058">
        <ele>659</ele>
        <time>2026-02-10T11:58:14.000Z</time>
      </trkpt>
      <trkpt lat="43.61776" lon="6.05059">
        <ele>659</ele>
        <time>2026-02-10T11:58:15.000Z</time>
      </trkpt>
      <trkpt lat="43.61776" lon="6.05059">
        <ele>659</ele>
        <time>2026-02-10T11:58:15.000Z</time>
      </trkpt>
      <trkpt lat="43.61776" lon="6.05059">
        <ele>659</ele>
        <time>2026-02-10T11:58:15.000Z</time>
      </trkpt>
      <trkpt lat="43.61776" lon="6.05059">
        <ele>659</ele>
        <time>2026-02-10T11:58:15.000Z</time>
      </trkpt>
      <trkpt lat="43.61776" lon="6.05059">
        <ele>659</ele>
        <time>2026-02-10T11:58:15.000Z</time>
      </trkpt>
      <trkpt lat="43.61776" lon="6.05059">
        <ele>659</ele>
        <time>2026-02-10T11:58:15.000Z</time>
      </trkpt>
      <trkpt lat="43.61776" lon="6.05059">
        <ele>659</ele>
        <time>2026-02-10T11:58:15.000Z</time>
      </trkpt>
      <trkpt lat="43.61776" lon="6.05059">
        <ele>659</ele>
        <time>2026-02-10T11:58:15.000Z</time>
      </trkpt>
      <trkpt lat="43.61776" lon="6.05059">
        <ele>659</ele>
        <time>2026-02-10T11:58:15.000Z</time>
      </trkpt>
      <trkpt lat="43.61776" lon="6.05059">
        <ele>659</ele>
        <time>2026-02-10T11:58:15.000Z</time>
      </trkpt>
      <trkpt lat="43.61776" lon="6.05059">
        <ele>659</ele>
        <time>2026-02-10T11:58:15.000Z</time>
      </trkpt>
      <trkpt lat="43.61776" lon="6.05059">
        <ele>659</ele>
        <time>2026-02-10T11:58:15.000Z</time>
      </trkpt>
      <trkpt lat="43.61776" lon="6.05059">
        <ele>659</ele>
        <time>2026-02-10T11:58:15.000Z</time>
      </trkpt>
      <trkpt lat="43.61776" lon="6.05059">
        <ele>659</ele>
        <time>2026-02-10T11:58:15.000Z</time>
      </trkpt>
      <trkpt lat="43.61776" lon="6.05059">
        <ele>659</ele>
        <time>2026-02-10T11:58:15.000Z</time>
      </trkpt>
      <trkpt lat="43.61776" lon="6.05059">
        <ele>659</ele>
        <time>2026-02-10T11:58:15.000Z</time>
      </trkpt>
      <trkpt lat="43.61776" lon="6.05059">
        <ele>659</ele>
        <time>2026-02-10T11:58:15.000Z</time>
      </trkpt>
      <trkpt lat="43.61776" lon="6.05059">
        <ele>659</ele>
        <time>2026-02-10T11:58:15.000Z</time>
      </trkpt>
      <trkpt lat="43.61775" lon="6.05059">
        <ele>659</ele>
        <time>2026-02-10T11:58:16.000Z</time>
      </trkpt>
      <trkpt lat="43.61775" lon="6.05059">
        <ele>659</ele>
        <time>2026-02-10T11:58:16.000Z</time>
      </trkpt>
      <trkpt lat="43.61775" lon="6.05058">
        <ele>659</ele>
        <time>2026-02-10T11:58:17.000Z</time>
      </trkpt>
      <trkpt lat="43.61775" lon="6.05058">
        <ele>659</ele>
        <time>2026-02-10T11:58:17.000Z</time>
      </trkpt>
      <trkpt lat="43.61775" lon="6.05058">
        <ele>659</ele>
        <time>2026-02-10T11:58:17.000Z</time>
      </trkpt>
      <trkpt lat="43.61776" lon="6.05058">
        <ele>659</ele>
        <time>2026-02-10T11:58:18.000Z</time>
      </trkpt>
      <trkpt lat="43.61776" lon="6.05058">
        <ele>659</ele>
        <time>2026-02-10T11:58:18.000Z</time>
      </trkpt>
      <trkpt lat="43.61775" lon="6.05058">
        <ele>659</ele>
        <time>2026-02-10T11:58:19.000Z</time>
      </trkpt>
      <trkpt lat="43.61775" lon="6.05058">
        <ele>659</ele>
        <time>2026-02-10T11:58:19.000Z</time>
      </trkpt>
      <trkpt lat="43.61775" lon="6.05058">
        <ele>659</ele>
        <time>2026-02-10T11:58:19.000Z</time>
      </trkpt>
      <trkpt lat="43.61775" lon="6.05057">
        <ele>659</ele>
        <time>2026-02-10T11:58:20.000Z</time>
      </trkpt>
      <trkpt lat="43.61775" lon="6.05057">
        <ele>659</ele>
        <time>2026-02-10T11:58:20.000Z</time>
      </trkpt>
      <trkpt lat="43.61775" lon="6.05057">
        <ele>659</ele>
        <time>2026-02-10T11:58:20.000Z</time>
      </trkpt>
      <trkpt lat="43.61775" lon="6.05057">
        <ele>659</ele>
        <time>2026-02-10T11:58:20.000Z</time>
      </trkpt>
      <trkpt lat="43.61775" lon="6.05057">
        <ele>659</ele>
        <time>2026-02-10T11:58:20.000Z</time>
      </trkpt>
      <trkpt lat="43.61775" lon="6.05057">
        <ele>659</ele>
        <time>2026-02-10T11:58:20.000Z</time>
      </trkpt>
      <trkpt lat="43.61775" lon="6.05057">
        <ele>659</ele>
        <time>2026-02-10T11:58:20.000Z</time>
      </trkpt>
      <trkpt lat="43.61776" lon="6.05057">
        <ele>659</ele>
        <time>2026-02-10T11:58:21.000Z</time>
      </trkpt>
      <trkpt lat="43.61776" lon="6.05057">
        <ele>659</ele>
        <time>2026-02-10T11:58:21.000Z</time>
      </trkpt>
      <trkpt lat="43.61776" lon="6.05057">
        <ele>659</ele>
        <time>2026-02-10T11:58:21.000Z</time>
      </trkpt>
      <trkpt lat="43.61776" lon="6.05058">
        <ele>659</ele>
        <time>2026-02-10T11:58:22.000Z</time>
      </trkpt>
      <trkpt lat="43.61776" lon="6.05058">
        <ele>659</ele>
        <time>2026-02-10T11:58:22.000Z</time>
      </trkpt>
      <trkpt lat="43.61776" lon="6.05058">
        <ele>659</ele>
        <time>2026-02-10T11:58:22.000Z</time>
      </trkpt>
      <trkpt lat="43.61776" lon="6.05058">
        <ele>659</ele>
        <time>2026-02-10T11:58:22.000Z</time>
      </trkpt>
      <trkpt lat="43.61776" lon="6.05058">
        <ele>659</ele>
        <time>2026-02-10T11:58:22.000Z</time>
      </trkpt>
      <trkpt lat="43.61776" lon="6.05058">
        <ele>659</ele>
        <time>2026-02-10T11:58:22.000Z</time>
      </trkpt>
      <trkpt lat="43.61776" lon="6.05058">
        <ele>659</ele>
        <time>2026-02-10T11:58:22.000Z</time>
      </trkpt>
      <trkpt lat="43.61776" lon="6.05058">
        <ele>659</ele>
        <time>2026-02-10T11:58:22.000Z</time>
      </trkpt>
      <trkpt lat="43.61776" lon="6.05058">
        <ele>659</ele>
        <time>2026-02-10T11:58:22.000Z</time>
      </trkpt>
      <trkpt lat="43.61776" lon="6.05058">
        <ele>659</ele>
        <time>2026-02-10T11:58:22.000Z</time>
      </trkpt>
      <trkpt lat="43.61777" lon="6.05058">
        <ele>659</ele>
        <time>2026-02-10T11:58:23.000Z</time>
      </trkpt>
      <trkpt lat="43.61777" lon="6.05058">
        <ele>659</ele>
        <time>2026-02-10T11:58:23.000Z</time>
      </trkpt>
      <trkpt lat="43.61777" lon="6.05059">
        <ele>659</ele>
        <time>2026-02-10T11:58:24.000Z</time>
      </trkpt>
      <trkpt lat="43.61777" lon="6.05059">
        <ele>659</ele>
        <time>2026-02-10T11:58:24.000Z</time>
      </trkpt>
      <trkpt lat="43.61777" lon="6.05059">
        <ele>659</ele>
        <time>2026-02-10T11:58:24.000Z</time>
      </trkpt>
      <trkpt lat="43.61777" lon="6.05059">
        <ele>659</ele>
        <time>2026-02-10T11:58:24.000Z</time>
      </trkpt>
      <trkpt lat="43.61777" lon="6.05059">
        <ele>659</ele>
        <time>2026-02-10T11:58:24.000Z</time>
      </trkpt>
      <trkpt lat="43.61777" lon="6.05059">
        <ele>659</ele>
        <time>2026-02-10T11:58:24.000Z</time>
      </trkpt>
      <trkpt lat="43.61777" lon="6.05059">
        <ele>659</ele>
        <time>2026-02-10T11:58:24.000Z</time>
      </trkpt>
      <trkpt lat="43.61777" lon="6.05059">
        <ele>659</ele>
        <time>2026-02-10T11:58:24.000Z</time>
      </trkpt>
      <trkpt lat="43.61777" lon="6.05059">
        <ele>659</ele>
        <time>2026-02-10T11:58:24.000Z</time>
      </trkpt>
      <trkpt lat="43.61777" lon="6.05059">
        <ele>659</ele>
        <time>2026-02-10T11:58:24.000Z</time>
      </trkpt>
      <trkpt lat="43.61778" lon="6.05059">
        <ele>659</ele>
        <time>2026-02-10T11:58:25.000Z</time>
      </trkpt>
      <trkpt lat="43.61778" lon="6.0506">
        <ele>659</ele>
        <time>2026-02-10T11:58:26.000Z</time>
      </trkpt>
      <trkpt lat="43.61778" lon="6.0506">
        <ele>659</ele>
        <time>2026-02-10T11:58:26.000Z</time>
      </trkpt>
      <trkpt lat="43.61778" lon="6.0506">
        <ele>659</ele>
        <time>2026-02-10T11:58:26.000Z</time>
      </trkpt>
      <trkpt lat="43.61778" lon="6.0506">
        <ele>659</ele>
        <time>2026-02-10T11:58:26.000Z</time>
      </trkpt>
      <trkpt lat="43.61778" lon="6.0506">
        <ele>659</ele>
        <time>2026-02-10T11:58:26.000Z</time>
      </trkpt>
      <trkpt lat="43.61777" lon="6.0506">
        <ele>659</ele>
        <time>2026-02-10T11:58:27.000Z</time>
      </trkpt>
      <trkpt lat="43.61777" lon="6.0506">
        <ele>659</ele>
        <time>2026-02-10T11:58:27.000Z</time>
      </trkpt>
      <trkpt lat="43.61777" lon="6.0506">
        <ele>659</ele>
        <time>2026-02-10T11:58:27.000Z</time>
      </trkpt>
      <trkpt lat="43.61777" lon="6.05061">
        <ele>659</ele>
        <time>2026-02-10T11:58:28.000Z</time>
      </trkpt>
      <trkpt lat="43.61777" lon="6.05062">
        <ele>659</ele>
        <time>2026-02-10T11:58:29.000Z</time>
      </trkpt>
      <trkpt lat="43.61777" lon="6.05063">
        <ele>659</ele>
        <time>2026-02-10T11:58:30.000Z</time>
      </trkpt>
      <trkpt lat="43.61778" lon="6.05064">
        <ele>659</ele>
        <time>2026-02-10T11:58:31.000Z</time>
      </trkpt>
      <trkpt lat="43.61778" lon="6.05065">
        <ele>660</ele>
        <time>2026-02-10T11:58:42.000Z</time>
      </trkpt>
      <trkpt lat="43.61778" lon="6.05066">
        <ele>660</ele>
        <time>2026-02-10T11:58:43.000Z</time>
      </trkpt>
      <trkpt lat="43.61778" lon="6.05067">
        <ele>660</ele>
        <time>2026-02-10T11:58:44.000Z</time>
      </trkpt>
      <trkpt lat="43.61779" lon="6.05068">
        <ele>660</ele>
        <time>2026-02-10T11:58:45.000Z</time>
      </trkpt>
      <trkpt lat="43.61779" lon="6.05069">
        <ele>660</ele>
        <time>2026-02-10T11:58:46.000Z</time>
      </trkpt>
      <trkpt lat="43.61779" lon="6.0507">
        <ele>660</ele>
        <time>2026-02-10T11:58:47.000Z</time>
      </trkpt>
      <trkpt lat="43.61779" lon="6.05071">
        <ele>660</ele>
        <time>2026-02-10T11:58:48.000Z</time>
      </trkpt>
      <trkpt lat="43.61779" lon="6.05072">
        <ele>660</ele>
        <time>2026-02-10T11:58:49.000Z</time>
      </trkpt>
      <trkpt lat="43.61779" lon="6.05073">
        <ele>660</ele>
        <time>2026-02-10T11:58:50.000Z</time>
      </trkpt>
      <trkpt lat="43.61779" lon="6.05074">
        <ele>660</ele>
        <time>2026-02-10T11:58:51.000Z</time>
      </trkpt>
      <trkpt lat="43.6178" lon="6.05074">
        <ele>660</ele>
        <time>2026-02-10T11:58:52.000Z</time>
      </trkpt>
      <trkpt lat="43.6178" lon="6.05075">
        <ele>660</ele>
        <time>2026-02-10T11:58:53.000Z</time>
      </trkpt>
      <trkpt lat="43.6178" lon="6.05076">
        <ele>660</ele>
        <time>2026-02-10T11:58:54.000Z</time>
      </trkpt>
      <trkpt lat="43.6178" lon="6.05078">
        <ele>660</ele>
        <time>2026-02-10T11:58:56.000Z</time>
      </trkpt>
      <trkpt lat="43.6178" lon="6.05078">
        <ele>660</ele>
        <time>2026-02-10T11:58:56.000Z</time>
      </trkpt>
      <trkpt lat="43.61781" lon="6.0508">
        <ele>660</ele>
        <time>2026-02-10T11:58:58.000Z</time>
      </trkpt>
      <trkpt lat="43.61781" lon="6.05081">
        <ele>660</ele>
        <time>2026-02-10T11:58:59.000Z</time>
      </trkpt>
      <trkpt lat="43.61781" lon="6.05082">
        <ele>660</ele>
        <time>2026-02-10T11:59:00.000Z</time>
      </trkpt>
      <trkpt lat="43.61781" lon="6.05083">
        <ele>660</ele>
        <time>2026-02-10T11:59:01.000Z</time>
      </trkpt>
      <trkpt lat="43.61782" lon="6.05084">
        <ele>660</ele>
        <time>2026-02-10T11:59:02.000Z</time>
      </trkpt>
      <trkpt lat="43.61782" lon="6.05085">
        <ele>660</ele>
        <time>2026-02-10T11:59:03.000Z</time>
      </trkpt>
      <trkpt lat="43.61782" lon="6.05086">
        <ele>660</ele>
        <time>2026-02-10T11:59:04.000Z</time>
      </trkpt>
      <trkpt lat="43.61782" lon="6.05088">
        <ele>660</ele>
        <time>2026-02-10T11:59:06.000Z</time>
      </trkpt>
      <trkpt lat="43.61782" lon="6.05089">
        <ele>660</ele>
        <time>2026-02-10T11:59:07.000Z</time>
      </trkpt>
      <trkpt lat="43.61783" lon="6.0509">
        <ele>660</ele>
        <time>2026-02-10T11:59:08.000Z</time>
      </trkpt>
      <trkpt lat="43.61783" lon="6.05091">
        <ele>660</ele>
        <time>2026-02-10T11:59:09.000Z</time>
      </trkpt>
      <trkpt lat="43.61783" lon="6.05093">
        <ele>660</ele>
        <time>2026-02-10T11:59:11.000Z</time>
      </trkpt>
      <trkpt lat="43.61783" lon="6.05094">
        <ele>660</ele>
        <time>2026-02-10T11:59:12.000Z</time>
      </trkpt>
      <trkpt lat="43.61783" lon="6.05096">
        <ele>660</ele>
        <time>2026-02-10T11:59:14.000Z</time>
      </trkpt>
      <trkpt lat="43.61784" lon="6.05097">
        <ele>660</ele>
        <time>2026-02-10T11:59:15.000Z</time>
      </trkpt>
      <trkpt lat="43.61784" lon="6.05099">
        <ele>660</ele>
        <time>2026-02-10T11:59:17.000Z</time>
      </trkpt>
      <trkpt lat="43.61784" lon="6.051">
        <ele>660</ele>
        <time>2026-02-10T11:59:18.000Z</time>
      </trkpt>
      <trkpt lat="43.61784" lon="6.05101">
        <ele>660</ele>
        <time>2026-02-10T11:59:19.000Z</time>
      </trkpt>
      <trkpt lat="43.61784" lon="6.05103">
        <ele>660</ele>
        <time>2026-02-10T11:59:21.000Z</time>
      </trkpt>
      <trkpt lat="43.61784" lon="6.05104">
        <ele>660</ele>
        <time>2026-02-10T11:59:22.000Z</time>
      </trkpt>
      <trkpt lat="43.61783" lon="6.05104">
        <ele>660</ele>
        <time>2026-02-10T11:59:23.000Z</time>
      </trkpt>
      <trkpt lat="43.61783" lon="6.05104">
        <ele>660</ele>
        <time>2026-02-10T11:59:23.000Z</time>
      </trkpt>
      <trkpt lat="43.61783" lon="6.05104">
        <ele>660</ele>
        <time>2026-02-10T11:59:23.000Z</time>
      </trkpt>
      <trkpt lat="43.61783" lon="6.05104">
        <ele>660</ele>
        <time>2026-02-10T11:59:23.000Z</time>
      </trkpt>
      <trkpt lat="43.61783" lon="6.05104">
        <ele>660</ele>
        <time>2026-02-10T11:59:23.000Z</time>
      </trkpt>
      <trkpt lat="43.61783" lon="6.05105">
        <ele>660</ele>
        <time>2026-02-10T11:59:24.000Z</time>
      </trkpt>
      <trkpt lat="43.61783" lon="6.05106">
        <ele>660</ele>
        <time>2026-02-10T11:59:25.000Z</time>
      </trkpt>
      <trkpt lat="43.61783" lon="6.05107">
        <ele>660</ele>
        <time>2026-02-10T11:59:26.000Z</time>
      </trkpt>
      <trkpt lat="43.61783" lon="6.05107">
        <ele>660</ele>
        <time>2026-02-10T11:59:26.000Z</time>
      </trkpt>
      <trkpt lat="43.61783" lon="6.05107">
        <ele>660</ele>
        <time>2026-02-10T11:59:26.000Z</time>
      </trkpt>
      <trkpt lat="43.61783" lon="6.05108">
        <ele>660</ele>
        <time>2026-02-10T11:59:27.000Z</time>
      </trkpt>
      <trkpt lat="43.61783" lon="6.05108">
        <ele>660</ele>
        <time>2026-02-10T11:59:27.000Z</time>
      </trkpt>
      <trkpt lat="43.61782" lon="6.05108">
        <ele>660</ele>
        <time>2026-02-10T11:59:28.000Z</time>
      </trkpt>
      <trkpt lat="43.61783" lon="6.05108">
        <ele>660</ele>
        <time>2026-02-10T11:59:29.000Z</time>
      </trkpt>
      <trkpt lat="43.61783" lon="6.05109">
        <ele>660</ele>
        <time>2026-02-10T11:59:30.000Z</time>
      </trkpt>
      <trkpt lat="43.61783" lon="6.05108">
        <ele>660</ele>
        <time>2026-02-10T11:59:31.000Z</time>
      </trkpt>
      <trkpt lat="43.61783" lon="6.05108">
        <ele>660</ele>
        <time>2026-02-10T11:59:31.000Z</time>
      </trkpt>
      <trkpt lat="43.61784" lon="6.05107">
        <ele>660</ele>
        <time>2026-02-10T11:59:32.000Z</time>
      </trkpt>
      <trkpt lat="43.61784" lon="6.05107">
        <ele>660</ele>
        <time>2026-02-10T11:59:32.000Z</time>
      </trkpt>
      <trkpt lat="43.61785" lon="6.05107">
        <ele>660</ele>
        <time>2026-02-10T11:59:33.000Z</time>
      </trkpt>
      <trkpt lat="43.61786" lon="6.05106">
        <ele>660</ele>
        <time>2026-02-10T11:59:34.000Z</time>
      </trkpt>
      <trkpt lat="43.61786" lon="6.05106">
        <ele>660</ele>
        <time>2026-02-10T11:59:34.000Z</time>
      </trkpt>
      <trkpt lat="43.61786" lon="6.05106">
        <ele>660</ele>
        <time>2026-02-10T11:59:34.000Z</time>
      </trkpt>
      <trkpt lat="43.61786" lon="6.05105">
        <ele>660</ele>
        <time>2026-02-10T11:59:35.000Z</time>
      </trkpt>
      <trkpt lat="43.61786" lon="6.05105">
        <ele>660</ele>
        <time>2026-02-10T11:59:35.000Z</time>
      </trkpt>
      <trkpt lat="43.61787" lon="6.05105">
        <ele>660</ele>
        <time>2026-02-10T11:59:36.000Z</time>
      </trkpt>
      <trkpt lat="43.61787" lon="6.05104">
        <ele>660</ele>
        <time>2026-02-10T11:59:37.000Z</time>
      </trkpt>
      <trkpt lat="43.61787" lon="6.05104">
        <ele>660</ele>
        <time>2026-02-10T11:59:37.000Z</time>
      </trkpt>
      <trkpt lat="43.61787" lon="6.05104">
        <ele>660</ele>
        <time>2026-02-10T11:59:37.000Z</time>
      </trkpt>
      <trkpt lat="43.61787" lon="6.05103">
        <ele>660</ele>
        <time>2026-02-10T11:59:38.000Z</time>
      </trkpt>
      <trkpt lat="43.61787" lon="6.05104">
        <ele>660</ele>
        <time>2026-02-10T11:59:39.000Z</time>
      </trkpt>
      <trkpt lat="43.61787" lon="6.05105">
        <ele>660</ele>
        <time>2026-02-10T11:59:40.000Z</time>
      </trkpt>
      <trkpt lat="43.61788" lon="6.05105">
        <ele>660</ele>
        <time>2026-02-10T11:59:41.000Z</time>
      </trkpt>
      <trkpt lat="43.61788" lon="6.05104">
        <ele>660</ele>
        <time>2026-02-10T11:59:42.000Z</time>
      </trkpt>
      <trkpt lat="43.61788" lon="6.05105">
        <ele>660</ele>
        <time>2026-02-10T11:59:43.000Z</time>
      </trkpt>
      <trkpt lat="43.61789" lon="6.05105">
        <ele>660</ele>
        <time>2026-02-10T11:59:44.000Z</time>
      </trkpt>
      <trkpt lat="43.61788" lon="6.05104">
        <ele>660</ele>
        <time>2026-02-10T11:59:45.000Z</time>
      </trkpt>
      <trkpt lat="43.61788" lon="6.05103">
        <ele>660</ele>
        <time>2026-02-10T11:59:46.000Z</time>
      </trkpt>
      <trkpt lat="43.61788" lon="6.05102">
        <ele>660</ele>
        <time>2026-02-10T11:59:47.000Z</time>
      </trkpt>
      <trkpt lat="43.61788" lon="6.05102">
        <ele>660</ele>
        <time>2026-02-10T11:59:47.000Z</time>
      </trkpt>
      <trkpt lat="43.61787" lon="6.05101">
        <ele>660</ele>
        <time>2026-02-10T11:59:48.000Z</time>
      </trkpt>
      <trkpt lat="43.61787" lon="6.05101">
        <ele>660</ele>
        <time>2026-02-10T11:59:48.000Z</time>
      </trkpt>
      <trkpt lat="43.61787" lon="6.05101">
        <ele>660</ele>
        <time>2026-02-10T11:59:48.000Z</time>
      </trkpt>
      <trkpt lat="43.61788" lon="6.05102">
        <ele>660</ele>
        <time>2026-02-10T11:59:49.000Z</time>
      </trkpt>
      <trkpt lat="43.61789" lon="6.05102">
        <ele>660</ele>
        <time>2026-02-10T11:59:50.000Z</time>
      </trkpt>
      <trkpt lat="43.61789" lon="6.05101">
        <ele>660</ele>
        <time>2026-02-10T11:59:51.000Z</time>
      </trkpt>
      <trkpt lat="43.61789" lon="6.05101">
        <ele>660</ele>
        <time>2026-02-10T11:59:51.000Z</time>
      </trkpt>
      <trkpt lat="43.61789" lon="6.05101">
        <ele>660</ele>
        <time>2026-02-10T11:59:51.000Z</time>
      </trkpt>
      <trkpt lat="43.61789" lon="6.051">
        <ele>660</ele>
        <time>2026-02-10T11:59:52.000Z</time>
      </trkpt>
      <trkpt lat="43.61789" lon="6.05101">
        <ele>660</ele>
        <time>2026-02-10T11:59:53.000Z</time>
      </trkpt>
      <trkpt lat="43.61789" lon="6.05101">
        <ele>660</ele>
        <time>2026-02-10T11:59:53.000Z</time>
      </trkpt>
      <trkpt lat="43.61789" lon="6.05101">
        <ele>660</ele>
        <time>2026-02-10T11:59:53.000Z</time>
      </trkpt>
      <trkpt lat="43.61789" lon="6.05101">
        <ele>660</ele>
        <time>2026-02-10T11:59:53.000Z</time>
      </trkpt>
      <trkpt lat="43.61789" lon="6.05101">
        <ele>660</ele>
        <time>2026-02-10T11:59:53.000Z</time>
      </trkpt>
      <trkpt lat="43.61789" lon="6.05101">
        <ele>660</ele>
        <time>2026-02-10T11:59:53.000Z</time>
      </trkpt>
      <trkpt lat="43.61788" lon="6.05102">
        <ele>660</ele>
        <time>2026-02-10T11:59:54.000Z</time>
      </trkpt>
      <trkpt lat="43.61788" lon="6.05103">
        <ele>660</ele>
        <time>2026-02-10T11:59:55.000Z</time>
      </trkpt>
      <trkpt lat="43.61788" lon="6.05104">
        <ele>660</ele>
        <time>2026-02-10T11:59:56.000Z</time>
      </trkpt>
      <trkpt lat="43.61788" lon="6.05105">
        <ele>660</ele>
        <time>2026-02-10T11:59:57.000Z</time>
      </trkpt>
      <trkpt lat="43.61787" lon="6.05106">
        <ele>660</ele>
        <time>2026-02-10T11:59:58.000Z</time>
      </trkpt>
      <trkpt lat="43.61786" lon="6.05108">
        <ele>660</ele>
        <time>2026-02-10T12:00:00.000Z</time>
      </trkpt>
      <trkpt lat="43.61786" lon="6.05109">
        <ele>660</ele>
        <time>2026-02-10T12:00:01.000Z</time>
      </trkpt>
      <trkpt lat="43.61785" lon="6.0511">
        <ele>660</ele>
        <time>2026-02-10T12:00:02.000Z</time>
      </trkpt>
      <trkpt lat="43.61785" lon="6.05112">
        <ele>660</ele>
        <time>2026-02-10T12:00:04.000Z</time>
      </trkpt>
      <trkpt lat="43.61785" lon="6.05114">
        <ele>660</ele>
        <time>2026-02-10T12:00:06.000Z</time>
      </trkpt>
      <trkpt lat="43.61786" lon="6.05115">
        <ele>660</ele>
        <time>2026-02-10T12:00:07.000Z</time>
      </trkpt>
      <trkpt lat="43.61785" lon="6.05117">
        <ele>660</ele>
        <time>2026-02-10T12:00:09.000Z</time>
      </trkpt>
      <trkpt lat="43.61785" lon="6.05118">
        <ele>660</ele>
        <time>2026-02-10T12:00:10.000Z</time>
      </trkpt>
      <trkpt lat="43.61785" lon="6.0512">
        <ele>660</ele>
        <time>2026-02-10T12:00:12.000Z</time>
      </trkpt>
      <trkpt lat="43.61785" lon="6.05122">
        <ele>660</ele>
        <time>2026-02-10T12:00:14.000Z</time>
      </trkpt>
      <trkpt lat="43.61785" lon="6.05124">
        <ele>660</ele>
        <time>2026-02-10T12:00:16.000Z</time>
      </trkpt>
      <trkpt lat="43.61785" lon="6.05126">
        <ele>660</ele>
        <time>2026-02-10T12:00:18.000Z</time>
      </trkpt>
      <trkpt lat="43.61785" lon="6.05128">
        <ele>660</ele>
        <time>2026-02-10T12:00:20.000Z</time>
      </trkpt>
      <trkpt lat="43.61785" lon="6.05129">
        <ele>660</ele>
        <time>2026-02-10T12:00:21.000Z</time>
      </trkpt>
      <trkpt lat="43.61785" lon="6.05131">
        <ele>660</ele>
        <time>2026-02-10T12:00:23.000Z</time>
      </trkpt>
      <trkpt lat="43.61785" lon="6.05133">
        <ele>660</ele>
        <time>2026-02-10T12:00:25.000Z</time>
      </trkpt>
      <trkpt lat="43.61786" lon="6.05135">
        <ele>660</ele>
        <time>2026-02-10T12:00:27.000Z</time>
      </trkpt>
      <trkpt lat="43.61786" lon="6.05136">
        <ele>660</ele>
        <time>2026-02-10T12:00:28.000Z</time>
      </trkpt>
      <trkpt lat="43.61786" lon="6.05138">
        <ele>660</ele>
        <time>2026-02-10T12:00:30.000Z</time>
      </trkpt>
      <trkpt lat="43.61786" lon="6.05139">
        <ele>660</ele>
        <time>2026-02-10T12:00:31.000Z</time>
      </trkpt>
      <trkpt lat="43.61786" lon="6.05141">
        <ele>660</ele>
        <time>2026-02-10T12:00:33.000Z</time>
      </trkpt>
      <trkpt lat="43.61786" lon="6.05143">
        <ele>660</ele>
        <time>2026-02-10T12:00:35.000Z</time>
      </trkpt>
      <trkpt lat="43.61786" lon="6.05145">
        <ele>660</ele>
        <time>2026-02-10T12:00:37.000Z</time>
      </trkpt>
      <trkpt lat="43.61787" lon="6.05146">
        <ele>660</ele>
        <time>2026-02-10T12:00:38.000Z</time>
      </trkpt>
      <trkpt lat="43.61787" lon="6.05148">
        <ele>660</ele>
        <time>2026-02-10T12:00:40.000Z</time>
      </trkpt>
      <trkpt lat="43.61787" lon="6.0515">
        <ele>660</ele>
        <time>2026-02-10T12:00:42.000Z</time>
      </trkpt>
      <trkpt lat="43.61787" lon="6.05152">
        <ele>660</ele>
        <time>2026-02-10T12:00:44.000Z</time>
      </trkpt>
      <trkpt lat="43.61787" lon="6.05153">
        <ele>660</ele>
        <time>2026-02-10T12:00:45.000Z</time>
      </trkpt>
      <trkpt lat="43.61787" lon="6.05155">
        <ele>660</ele>
        <time>2026-02-10T12:00:47.000Z</time>
      </trkpt>
      <trkpt lat="43.61787" lon="6.05157">
        <ele>660</ele>
        <time>2026-02-10T12:00:49.000Z</time>
      </trkpt>
      <trkpt lat="43.61787" lon="6.05158">
        <ele>660</ele>
        <time>2026-02-10T12:00:50.000Z</time>
      </trkpt>
      <trkpt lat="43.61788" lon="6.0516">
        <ele>659</ele>
        <time>2026-02-10T12:00:52.000Z</time>
      </trkpt>
      <trkpt lat="43.61787" lon="6.05162">
        <ele>660</ele>
        <time>2026-02-10T12:01:04.000Z</time>
      </trkpt>
      <trkpt lat="43.61787" lon="6.05163">
        <ele>660</ele>
        <time>2026-02-10T12:01:05.000Z</time>
      </trkpt>
      <trkpt lat="43.61787" lon="6.05165">
        <ele>660</ele>
        <time>2026-02-10T12:01:07.000Z</time>
      </trkpt>
      <trkpt lat="43.61787" lon="6.05166">
        <ele>660</ele>
        <time>2026-02-10T12:01:08.000Z</time>
      </trkpt>
      <trkpt lat="43.61787" lon="6.05168">
        <ele>660</ele>
        <time>2026-02-10T12:01:10.000Z</time>
      </trkpt>
      <trkpt lat="43.61787" lon="6.05169">
        <ele>660</ele>
        <time>2026-02-10T12:01:11.000Z</time>
      </trkpt>
      <trkpt lat="43.61787" lon="6.05171">
        <ele>660</ele>
        <time>2026-02-10T12:01:13.000Z</time>
      </trkpt>
      <trkpt lat="43.61787" lon="6.05173">
        <ele>660</ele>
        <time>2026-02-10T12:01:15.000Z</time>
      </trkpt>
      <trkpt lat="43.61787" lon="6.05175">
        <ele>660</ele>
        <time>2026-02-10T12:01:17.000Z</time>
      </trkpt>
      <trkpt lat="43.61787" lon="6.05176">
        <ele>660</ele>
        <time>2026-02-10T12:01:18.000Z</time>
      </trkpt>
      <trkpt lat="43.61787" lon="6.05178">
        <ele>660</ele>
        <time>2026-02-10T12:01:20.000Z</time>
      </trkpt>
      <trkpt lat="43.61787" lon="6.0518">
        <ele>660</ele>
        <time>2026-02-10T12:01:22.000Z</time>
      </trkpt>
      <trkpt lat="43.61787" lon="6.05181">
        <ele>660</ele>
        <time>2026-02-10T12:01:23.000Z</time>
      </trkpt>
      <trkpt lat="43.61787" lon="6.05183">
        <ele>660</ele>
        <time>2026-02-10T12:01:25.000Z</time>
      </trkpt>
      <trkpt lat="43.61787" lon="6.05185">
        <ele>660</ele>
        <time>2026-02-10T12:01:27.000Z</time>
      </trkpt>
      <trkpt lat="43.61787" lon="6.05187">
        <ele>660</ele>
        <time>2026-02-10T12:01:29.000Z</time>
      </trkpt>
      <trkpt lat="43.61787" lon="6.05188">
        <ele>660</ele>
        <time>2026-02-10T12:01:30.000Z</time>
      </trkpt>
      <trkpt lat="43.61787" lon="6.0519">
        <ele>660</ele>
        <time>2026-02-10T12:01:32.000Z</time>
      </trkpt>
      <trkpt lat="43.61787" lon="6.05191">
        <ele>660</ele>
        <time>2026-02-10T12:01:33.000Z</time>
      </trkpt>
      <trkpt lat="43.61787" lon="6.05193">
        <ele>660</ele>
        <time>2026-02-10T12:01:35.000Z</time>
      </trkpt>
      <trkpt lat="43.61787" lon="6.05194">
        <ele>660</ele>
        <time>2026-02-10T12:01:36.000Z</time>
      </trkpt>
      <trkpt lat="43.61787" lon="6.05196">
        <ele>661</ele>
        <time>2026-02-10T12:01:48.000Z</time>
      </trkpt>
      <trkpt lat="43.61787" lon="6.05198">
        <ele>661</ele>
        <time>2026-02-10T12:01:50.000Z</time>
      </trkpt>
      <trkpt lat="43.61787" lon="6.05199">
        <ele>661</ele>
        <time>2026-02-10T12:01:51.000Z</time>
      </trkpt>
      <trkpt lat="43.61787" lon="6.052">
        <ele>661</ele>
        <time>2026-02-10T12:01:52.000Z</time>
      </trkpt>
      <trkpt lat="43.61787" lon="6.05202">
        <ele>661</ele>
        <time>2026-02-10T12:01:54.000Z</time>
      </trkpt>
      <trkpt lat="43.61787" lon="6.05203">
        <ele>661</ele>
        <time>2026-02-10T12:01:55.000Z</time>
      </trkpt>
      <trkpt lat="43.61787" lon="6.05205">
        <ele>661</ele>
        <time>2026-02-10T12:01:57.000Z</time>
      </trkpt>
      <trkpt lat="43.61787" lon="6.05207">
        <ele>661</ele>
        <time>2026-02-10T12:01:59.000Z</time>
      </trkpt>
      <trkpt lat="43.61787" lon="6.05209">
        <ele>661</ele>
        <time>2026-02-10T12:02:01.000Z</time>
      </trkpt>
      <trkpt lat="43.61787" lon="6.05211">
        <ele>661</ele>
        <time>2026-02-10T12:02:03.000Z</time>
      </trkpt>
      <trkpt lat="43.61786" lon="6.05212">
        <ele>661</ele>
        <time>2026-02-10T12:02:04.000Z</time>
      </trkpt>
      <trkpt lat="43.61786" lon="6.05214">
        <ele>661</ele>
        <time>2026-02-10T12:02:06.000Z</time>
      </trkpt>
      <trkpt lat="43.61786" lon="6.05216">
        <ele>661</ele>
        <time>2026-02-10T12:02:08.000Z</time>
      </trkpt>
      <trkpt lat="43.61787" lon="6.05217">
        <ele>661</ele>
        <time>2026-02-10T12:02:09.000Z</time>
      </trkpt>
      <trkpt lat="43.61786" lon="6.05219">
        <ele>661</ele>
        <time>2026-02-10T12:02:11.000Z</time>
      </trkpt>
      <trkpt lat="43.61786" lon="6.0522">
        <ele>661</ele>
        <time>2026-02-10T12:02:12.000Z</time>
      </trkpt>
      <trkpt lat="43.61786" lon="6.05222">
        <ele>661</ele>
        <time>2026-02-10T12:02:14.000Z</time>
      </trkpt>
      <trkpt lat="43.61786" lon="6.05224">
        <ele>661</ele>
        <time>2026-02-10T12:02:16.000Z</time>
      </trkpt>
      <trkpt lat="43.61786" lon="6.05226">
        <ele>661</ele>
        <time>2026-02-10T12:02:18.000Z</time>
      </trkpt>
      <trkpt lat="43.61786" lon="6.05228">
        <ele>661</ele>
        <time>2026-02-10T12:02:20.000Z</time>
      </trkpt>
      <trkpt lat="43.61786" lon="6.0523">
        <ele>661</ele>
        <time>2026-02-10T12:02:22.000Z</time>
      </trkpt>
      <trkpt lat="43.61786" lon="6.05232">
        <ele>662</ele>
        <time>2026-02-10T12:02:34.000Z</time>
      </trkpt>
      <trkpt lat="43.61786" lon="6.05233">
        <ele>662</ele>
        <time>2026-02-10T12:02:35.000Z</time>
      </trkpt>
      <trkpt lat="43.61785" lon="6.05235">
        <ele>662</ele>
        <time>2026-02-10T12:02:37.000Z</time>
      </trkpt>
      <trkpt lat="43.61785" lon="6.05236">
        <ele>662</ele>
        <time>2026-02-10T12:02:38.000Z</time>
      </trkpt>
      <trkpt lat="43.61786" lon="6.05238">
        <ele>662</ele>
        <time>2026-02-10T12:02:40.000Z</time>
      </trkpt>
      <trkpt lat="43.61785" lon="6.05239">
        <ele>662</ele>
        <time>2026-02-10T12:02:41.000Z</time>
      </trkpt>
      <trkpt lat="43.61785" lon="6.05241">
        <ele>662</ele>
        <time>2026-02-10T12:02:43.000Z</time>
      </trkpt>
      <trkpt lat="43.61785" lon="6.05242">
        <ele>662</ele>
        <time>2026-02-10T12:02:44.000Z</time>
      </trkpt>
      <trkpt lat="43.61784" lon="6.05244">
        <ele>662</ele>
        <time>2026-02-10T12:02:46.000Z</time>
      </trkpt>
      <trkpt lat="43.61785" lon="6.05246">
        <ele>662</ele>
        <time>2026-02-10T12:02:48.000Z</time>
      </trkpt>
      <trkpt lat="43.61785" lon="6.05248">
        <ele>663</ele>
        <time>2026-02-10T12:03:00.000Z</time>
      </trkpt>
      <trkpt lat="43.61784" lon="6.05251">
        <ele>663</ele>
        <time>2026-02-10T12:03:03.000Z</time>
      </trkpt>
      <trkpt lat="43.61784" lon="6.05252">
        <ele>663</ele>
        <time>2026-02-10T12:03:04.000Z</time>
      </trkpt>
      <trkpt lat="43.61784" lon="6.05253">
        <ele>663</ele>
        <time>2026-02-10T12:03:05.000Z</time>
      </trkpt>
      <trkpt lat="43.61784" lon="6.05255">
        <ele>663</ele>
        <time>2026-02-10T12:03:07.000Z</time>
      </trkpt>
      <trkpt lat="43.61783" lon="6.05256">
        <ele>663</ele>
        <time>2026-02-10T12:03:08.000Z</time>
      </trkpt>
      <trkpt lat="43.61783" lon="6.05257">
        <ele>663</ele>
        <time>2026-02-10T12:03:09.000Z</time>
      </trkpt>
      <trkpt lat="43.61783" lon="6.05259">
        <ele>664</ele>
        <time>2026-02-10T12:03:21.000Z</time>
      </trkpt>
      <trkpt lat="43.61783" lon="6.0526">
        <ele>664</ele>
        <time>2026-02-10T12:03:22.000Z</time>
      </trkpt>
      <trkpt lat="43.61783" lon="6.05262">
        <ele>664</ele>
        <time>2026-02-10T12:03:24.000Z</time>
      </trkpt>
      <trkpt lat="43.61782" lon="6.05264">
        <ele>665</ele>
        <time>2026-02-10T12:03:36.000Z</time>
      </trkpt>
      <trkpt lat="43.61782" lon="6.05265">
        <ele>665</ele>
        <time>2026-02-10T12:03:37.000Z</time>
      </trkpt>
      <trkpt lat="43.61782" lon="6.05266">
        <ele>665</ele>
        <time>2026-02-10T12:03:38.000Z</time>
      </trkpt>
      <trkpt lat="43.61782" lon="6.05267">
        <ele>665</ele>
        <time>2026-02-10T12:03:39.000Z</time>
      </trkpt>
      <trkpt lat="43.61782" lon="6.05269">
        <ele>665</ele>
        <time>2026-02-10T12:03:41.000Z</time>
      </trkpt>
      <trkpt lat="43.61782" lon="6.0527">
        <ele>665</ele>
        <time>2026-02-10T12:03:42.000Z</time>
      </trkpt>
      <trkpt lat="43.61782" lon="6.05271">
        <ele>665</ele>
        <time>2026-02-10T12:03:43.000Z</time>
      </trkpt>
      <trkpt lat="43.61782" lon="6.05272">
        <ele>665</ele>
        <time>2026-02-10T12:03:44.000Z</time>
      </trkpt>
      <trkpt lat="43.61782" lon="6.05273">
        <ele>665</ele>
        <time>2026-02-10T12:03:45.000Z</time>
      </trkpt>
      <trkpt lat="43.61782" lon="6.05275">
        <ele>665</ele>
        <time>2026-02-10T12:03:47.000Z</time>
      </trkpt>
      <trkpt lat="43.61782" lon="6.05276">
        <ele>665</ele>
        <time>2026-02-10T12:03:48.000Z</time>
      </trkpt>
      <trkpt lat="43.61782" lon="6.05278">
        <ele>665</ele>
        <time>2026-02-10T12:03:50.000Z</time>
      </trkpt>
      <trkpt lat="43.61782" lon="6.0528">
        <ele>666</ele>
        <time>2026-02-10T12:04:02.000Z</time>
      </trkpt>
      <trkpt lat="43.61782" lon="6.05281">
        <ele>666</ele>
        <time>2026-02-10T12:04:03.000Z</time>
      </trkpt>
      <trkpt lat="43.61782" lon="6.05282">
        <ele>666</ele>
        <time>2026-02-10T12:04:04.000Z</time>
      </trkpt>
      <trkpt lat="43.61782" lon="6.05284">
        <ele>667</ele>
        <time>2026-02-10T12:04:16.000Z</time>
      </trkpt>
      <trkpt lat="43.61782" lon="6.05285">
        <ele>667</ele>
        <time>2026-02-10T12:04:17.000Z</time>
      </trkpt>
      <trkpt lat="43.61783" lon="6.05287">
        <ele>667</ele>
        <time>2026-02-10T12:04:19.000Z</time>
      </trkpt>
      <trkpt lat="43.61783" lon="6.05288">
        <ele>667</ele>
        <time>2026-02-10T12:04:20.000Z</time>
      </trkpt>
      <trkpt lat="43.61783" lon="6.05289">
        <ele>667</ele>
        <time>2026-02-10T12:04:21.000Z</time>
      </trkpt>
      <trkpt lat="43.61783" lon="6.0529">
        <ele>667</ele>
        <time>2026-02-10T12:04:22.000Z</time>
      </trkpt>
      <trkpt lat="43.61783" lon="6.05292">
        <ele>667</ele>
        <time>2026-02-10T12:04:24.000Z</time>
      </trkpt>
      <trkpt lat="43.61783" lon="6.05293">
        <ele>667</ele>
        <time>2026-02-10T12:04:25.000Z</time>
      </trkpt>
      <trkpt lat="43.61783" lon="6.05294">
        <ele>667</ele>
        <time>2026-02-10T12:04:26.000Z</time>
      </trkpt>
      <trkpt lat="43.61783" lon="6.05295">
        <ele>667</ele>
        <time>2026-02-10T12:04:27.000Z</time>
      </trkpt>
      <trkpt lat="43.61783" lon="6.05297">
        <ele>668</ele>
        <time>2026-02-10T12:04:39.000Z</time>
      </trkpt>
      <trkpt lat="43.61784" lon="6.05298">
        <ele>668</ele>
        <time>2026-02-10T12:04:40.000Z</time>
      </trkpt>
      <trkpt lat="43.61784" lon="6.053">
        <ele>668</ele>
        <time>2026-02-10T12:04:42.000Z</time>
      </trkpt>
      <trkpt lat="43.61784" lon="6.05301">
        <ele>668</ele>
        <time>2026-02-10T12:04:43.000Z</time>
      </trkpt>
      <trkpt lat="43.61784" lon="6.05302">
        <ele>668</ele>
        <time>2026-02-10T12:04:44.000Z</time>
      </trkpt>
      <trkpt lat="43.61784" lon="6.05303">
        <ele>669</ele>
        <time>2026-02-10T12:04:55.000Z</time>
      </trkpt>
      <trkpt lat="43.61784" lon="6.05305">
        <ele>669</ele>
        <time>2026-02-10T12:04:57.000Z</time>
      </trkpt>
      <trkpt lat="43.61784" lon="6.05306">
        <ele>669</ele>
        <time>2026-02-10T12:04:58.000Z</time>
      </trkpt>
      <trkpt lat="43.61784" lon="6.05307">
        <ele>669</ele>
        <time>2026-02-10T12:04:59.000Z</time>
      </trkpt>
      <trkpt lat="43.61784" lon="6.05308">
        <ele>669</ele>
        <time>2026-02-10T12:05:00.000Z</time>
      </trkpt>
      <trkpt lat="43.61784" lon="6.05309">
        <ele>670</ele>
        <time>2026-02-10T12:05:11.000Z</time>
      </trkpt>
      <trkpt lat="43.61784" lon="6.0531">
        <ele>670</ele>
        <time>2026-02-10T12:05:12.000Z</time>
      </trkpt>
      <trkpt lat="43.61784" lon="6.05311">
        <ele>670</ele>
        <time>2026-02-10T12:05:13.000Z</time>
      </trkpt>
      <trkpt lat="43.61784" lon="6.05312">
        <ele>670</ele>
        <time>2026-02-10T12:05:14.000Z</time>
      </trkpt>
      <trkpt lat="43.61784" lon="6.05313">
        <ele>670</ele>
        <time>2026-02-10T12:05:15.000Z</time>
      </trkpt>
      <trkpt lat="43.61784" lon="6.05315">
        <ele>670</ele>
        <time>2026-02-10T12:05:17.000Z</time>
      </trkpt>
      <trkpt lat="43.61784" lon="6.05316">
        <ele>670</ele>
        <time>2026-02-10T12:05:18.000Z</time>
      </trkpt>
      <trkpt lat="43.61784" lon="6.05318">
        <ele>670</ele>
        <time>2026-02-10T12:05:20.000Z</time>
      </trkpt>
      <trkpt lat="43.61784" lon="6.05319">
        <ele>671</ele>
        <time>2026-02-10T12:05:31.000Z</time>
      </trkpt>
      <trkpt lat="43.61784" lon="6.0532">
        <ele>671</ele>
        <time>2026-02-10T12:05:32.000Z</time>
      </trkpt>
      <trkpt lat="43.61784" lon="6.05322">
        <ele>672</ele>
        <time>2026-02-10T12:05:44.000Z</time>
      </trkpt>
      <trkpt lat="43.61784" lon="6.05323">
        <ele>672</ele>
        <time>2026-02-10T12:05:45.000Z</time>
      </trkpt>
      <trkpt lat="43.61784" lon="6.05324">
        <ele>672</ele>
        <time>2026-02-10T12:05:46.000Z</time>
      </trkpt>
      <trkpt lat="43.61784" lon="6.05325">
        <ele>672</ele>
        <time>2026-02-10T12:05:47.000Z</time>
      </trkpt>
      <trkpt lat="43.61784" lon="6.05327">
        <ele>672</ele>
        <time>2026-02-10T12:05:49.000Z</time>
      </trkpt>
      <trkpt lat="43.61784" lon="6.05328">
        <ele>672</ele>
        <time>2026-02-10T12:05:50.000Z</time>
      </trkpt>
      <trkpt lat="43.61784" lon="6.05329">
        <ele>672</ele>
        <time>2026-02-10T12:05:51.000Z</time>
      </trkpt>
      <trkpt lat="43.61784" lon="6.0533">
        <ele>672</ele>
        <time>2026-02-10T12:05:52.000Z</time>
      </trkpt>
      <trkpt lat="43.61784" lon="6.05331">
        <ele>673</ele>
        <time>2026-02-10T12:06:03.000Z</time>
      </trkpt>
      <trkpt lat="43.61784" lon="6.05333">
        <ele>673</ele>
        <time>2026-02-10T12:06:05.000Z</time>
      </trkpt>
      <trkpt lat="43.61784" lon="6.05334">
        <ele>673</ele>
        <time>2026-02-10T12:06:06.000Z</time>
      </trkpt>
      <trkpt lat="43.61784" lon="6.05335">
        <ele>673</ele>
        <time>2026-02-10T12:06:07.000Z</time>
      </trkpt>
      <trkpt lat="43.61784" lon="6.05337">
        <ele>673</ele>
        <time>2026-02-10T12:06:09.000Z</time>
      </trkpt>
      <trkpt lat="43.61784" lon="6.05338">
        <ele>674</ele>
        <time>2026-02-10T12:06:20.000Z</time>
      </trkpt>
      <trkpt lat="43.61784" lon="6.0534">
        <ele>674</ele>
        <time>2026-02-10T12:06:22.000Z</time>
      </trkpt>
      <trkpt lat="43.61784" lon="6.05341">
        <ele>674</ele>
        <time>2026-02-10T12:06:23.000Z</time>
      </trkpt>
      <trkpt lat="43.61784" lon="6.05343">
        <ele>675</ele>
        <time>2026-02-10T12:06:35.000Z</time>
      </trkpt>
      <trkpt lat="43.61783" lon="6.05344">
        <ele>675</ele>
        <time>2026-02-10T12:06:36.000Z</time>
      </trkpt>
      <trkpt lat="43.61783" lon="6.05345">
        <ele>675</ele>
        <time>2026-02-10T12:06:37.000Z</time>
      </trkpt>
      <trkpt lat="43.61783" lon="6.05347">
        <ele>675</ele>
        <time>2026-02-10T12:06:39.000Z</time>
      </trkpt>
      <trkpt lat="43.61783" lon="6.05348">
        <ele>675</ele>
        <time>2026-02-10T12:06:40.000Z</time>
      </trkpt>
      <trkpt lat="43.61782" lon="6.05349">
        <ele>675</ele>
        <time>2026-02-10T12:06:41.000Z</time>
      </trkpt>
      <trkpt lat="43.61782" lon="6.05351">
        <ele>675</ele>
        <time>2026-02-10T12:06:43.000Z</time>
      </trkpt>
      <trkpt lat="43.61782" lon="6.05352">
        <ele>675</ele>
        <time>2026-02-10T12:06:44.000Z</time>
      </trkpt>
      <trkpt lat="43.61782" lon="6.05353">
        <ele>675</ele>
        <time>2026-02-10T12:06:45.000Z</time>
      </trkpt>
      <trkpt lat="43.61783" lon="6.05354">
        <ele>675</ele>
        <time>2026-02-10T12:06:46.000Z</time>
      </trkpt>
      <trkpt lat="43.61783" lon="6.05356">
        <ele>675</ele>
        <time>2026-02-10T12:06:48.000Z</time>
      </trkpt>
      <trkpt lat="43.61783" lon="6.05357">
        <ele>675</ele>
        <time>2026-02-10T12:06:49.000Z</time>
      </trkpt>
      <trkpt lat="43.61783" lon="6.05359">
        <ele>675</ele>
        <time>2026-02-10T12:06:51.000Z</time>
      </trkpt>
      <trkpt lat="43.61783" lon="6.05361">
        <ele>676</ele>
        <time>2026-02-10T12:07:03.000Z</time>
      </trkpt>
      <trkpt lat="43.61783" lon="6.05362">
        <ele>676</ele>
        <time>2026-02-10T12:07:04.000Z</time>
      </trkpt>
      <trkpt lat="43.61783" lon="6.05363">
        <ele>676</ele>
        <time>2026-02-10T12:07:05.000Z</time>
      </trkpt>
      <trkpt lat="43.61783" lon="6.05365">
        <ele>677</ele>
        <time>2026-02-10T12:07:17.000Z</time>
      </trkpt>
      <trkpt lat="43.61783" lon="6.05367">
        <ele>677</ele>
        <time>2026-02-10T12:07:19.000Z</time>
      </trkpt>
      <trkpt lat="43.61783" lon="6.05368">
        <ele>677</ele>
        <time>2026-02-10T12:07:20.000Z</time>
      </trkpt>
      <trkpt lat="43.61783" lon="6.0537">
        <ele>677</ele>
        <time>2026-02-10T12:07:22.000Z</time>
      </trkpt>
      <trkpt lat="43.61783" lon="6.05371">
        <ele>677</ele>
        <time>2026-02-10T12:07:23.000Z</time>
      </trkpt>
      <trkpt lat="43.61783" lon="6.05373">
        <ele>677</ele>
        <time>2026-02-10T12:07:25.000Z</time>
      </trkpt>
      <trkpt lat="43.61784" lon="6.05374">
        <ele>677</ele>
        <time>2026-02-10T12:07:26.000Z</time>
      </trkpt>
      <trkpt lat="43.61784" lon="6.05375">
        <ele>677</ele>
        <time>2026-02-10T12:07:27.000Z</time>
      </trkpt>
      <trkpt lat="43.61784" lon="6.05377">
        <ele>678</ele>
        <time>2026-02-10T12:07:39.000Z</time>
      </trkpt>
      <trkpt lat="43.61783" lon="6.05378">
        <ele>678</ele>
        <time>2026-02-10T12:07:40.000Z</time>
      </trkpt>
      <trkpt lat="43.61783" lon="6.0538">
        <ele>678</ele>
        <time>2026-02-10T12:07:42.000Z</time>
      </trkpt>
      <trkpt lat="43.61783" lon="6.05381">
        <ele>678</ele>
        <time>2026-02-10T12:07:43.000Z</time>
      </trkpt>
      <trkpt lat="43.61783" lon="6.05383">
        <ele>679</ele>
        <time>2026-02-10T12:07:55.000Z</time>
      </trkpt>
      <trkpt lat="43.61783" lon="6.05384">
        <ele>679</ele>
        <time>2026-02-10T12:07:56.000Z</time>
      </trkpt>
      <trkpt lat="43.61783" lon="6.05386">
        <ele>679</ele>
        <time>2026-02-10T12:07:58.000Z</time>
      </trkpt>
      <trkpt lat="43.61783" lon="6.05387">
        <ele>679</ele>
        <time>2026-02-10T12:07:59.000Z</time>
      </trkpt>
      <trkpt lat="43.61783" lon="6.05388">
        <ele>679</ele>
        <time>2026-02-10T12:08:00.000Z</time>
      </trkpt>
      <trkpt lat="43.61783" lon="6.0539">
        <ele>679</ele>
        <time>2026-02-10T12:08:02.000Z</time>
      </trkpt>
      <trkpt lat="43.61783" lon="6.05391">
        <ele>679</ele>
        <time>2026-02-10T12:08:03.000Z</time>
      </trkpt>
      <trkpt lat="43.61783" lon="6.05392">
        <ele>679</ele>
        <time>2026-02-10T12:08:04.000Z</time>
      </trkpt>
      <trkpt lat="43.61783" lon="6.05393">
        <ele>679</ele>
        <time>2026-02-10T12:08:05.000Z</time>
      </trkpt>
      <trkpt lat="43.61783" lon="6.05394">
        <ele>679</ele>
        <time>2026-02-10T12:08:06.000Z</time>
      </trkpt>
      <trkpt lat="43.61783" lon="6.05395">
        <ele>679</ele>
        <time>2026-02-10T12:08:07.000Z</time>
      </trkpt>
      <trkpt lat="43.61783" lon="6.05397">
        <ele>679</ele>
        <time>2026-02-10T12:08:09.000Z</time>
      </trkpt>
      <trkpt lat="43.61783" lon="6.05398">
        <ele>679</ele>
        <time>2026-02-10T12:08:10.000Z</time>
      </trkpt>
      <trkpt lat="43.61783" lon="6.05399">
        <ele>679</ele>
        <time>2026-02-10T12:08:11.000Z</time>
      </trkpt>
      <trkpt lat="43.61783" lon="6.054">
        <ele>679</ele>
        <time>2026-02-10T12:08:12.000Z</time>
      </trkpt>
      <trkpt lat="43.61783" lon="6.05401">
        <ele>679</ele>
        <time>2026-02-10T12:08:13.000Z</time>
      </trkpt>
      <trkpt lat="43.61783" lon="6.05403">
        <ele>680</ele>
        <time>2026-02-10T12:08:25.000Z</time>
      </trkpt>
      <trkpt lat="43.61783" lon="6.05404">
        <ele>680</ele>
        <time>2026-02-10T12:08:26.000Z</time>
      </trkpt>
      <trkpt lat="43.61783" lon="6.05405">
        <ele>680</ele>
        <time>2026-02-10T12:08:27.000Z</time>
      </trkpt>
      <trkpt lat="43.61783" lon="6.05407">
        <ele>680</ele>
        <time>2026-02-10T12:08:29.000Z</time>
      </trkpt>
      <trkpt lat="43.61783" lon="6.05408">
        <ele>680</ele>
        <time>2026-02-10T12:08:30.000Z</time>
      </trkpt>
      <trkpt lat="43.61783" lon="6.05409">
        <ele>680</ele>
        <time>2026-02-10T12:08:31.000Z</time>
      </trkpt>
      <trkpt lat="43.61783" lon="6.05411">
        <ele>681</ele>
        <time>2026-02-10T12:08:43.000Z</time>
      </trkpt>
      <trkpt lat="43.61783" lon="6.05413">
        <ele>681</ele>
        <time>2026-02-10T12:08:45.000Z</time>
      </trkpt>
      <trkpt lat="43.61783" lon="6.05414">
        <ele>681</ele>
        <time>2026-02-10T12:08:46.000Z</time>
      </trkpt>
      <trkpt lat="43.61783" lon="6.05415">
        <ele>681</ele>
        <time>2026-02-10T12:08:47.000Z</time>
      </trkpt>
      <trkpt lat="43.61783" lon="6.05417">
        <ele>681</ele>
        <time>2026-02-10T12:08:49.000Z</time>
      </trkpt>
      <trkpt lat="43.61783" lon="6.05418">
        <ele>681</ele>
        <time>2026-02-10T12:08:50.000Z</time>
      </trkpt>
      <trkpt lat="43.61783" lon="6.05419">
        <ele>681</ele>
        <time>2026-02-10T12:08:51.000Z</time>
      </trkpt>
      <trkpt lat="43.61782" lon="6.05421">
        <ele>682</ele>
        <time>2026-02-10T12:09:03.000Z</time>
      </trkpt>
      <trkpt lat="43.61783" lon="6.05422">
        <ele>682</ele>
        <time>2026-02-10T12:09:04.000Z</time>
      </trkpt>
      <trkpt lat="43.61783" lon="6.05424">
        <ele>682</ele>
        <time>2026-02-10T12:09:06.000Z</time>
      </trkpt>
      <trkpt lat="43.61783" lon="6.05425">
        <ele>682</ele>
        <time>2026-02-10T12:09:07.000Z</time>
      </trkpt>
      <trkpt lat="43.61782" lon="6.05427">
        <ele>682</ele>
        <time>2026-02-10T12:09:09.000Z</time>
      </trkpt>
      <trkpt lat="43.61782" lon="6.05428">
        <ele>682</ele>
        <time>2026-02-10T12:09:10.000Z</time>
      </trkpt>
      <trkpt lat="43.61782" lon="6.05429">
        <ele>682</ele>
        <time>2026-02-10T12:09:11.000Z</time>
      </trkpt>
      <trkpt lat="43.61781" lon="6.05431">
        <ele>682</ele>
        <time>2026-02-10T12:09:13.000Z</time>
      </trkpt>
      <trkpt lat="43.61782" lon="6.05432">
        <ele>683</ele>
        <time>2026-02-10T12:09:25.000Z</time>
      </trkpt>
      <trkpt lat="43.61782" lon="6.05434">
        <ele>683</ele>
        <time>2026-02-10T12:09:27.000Z</time>
      </trkpt>
      <trkpt lat="43.61782" lon="6.05435">
        <ele>683</ele>
        <time>2026-02-10T12:09:28.000Z</time>
      </trkpt>
      <trkpt lat="43.61781" lon="6.05437">
        <ele>683</ele>
        <time>2026-02-10T12:09:30.000Z</time>
      </trkpt>
      <trkpt lat="43.61781" lon="6.05439">
        <ele>683</ele>
        <time>2026-02-10T12:09:32.000Z</time>
      </trkpt>
      <trkpt lat="43.61782" lon="6.0544">
        <ele>683</ele>
        <time>2026-02-10T12:09:33.000Z</time>
      </trkpt>
      <trkpt lat="43.61782" lon="6.05442">
        <ele>683</ele>
        <time>2026-02-10T12:09:35.000Z</time>
      </trkpt>
      <trkpt lat="43.61782" lon="6.05443">
        <ele>683</ele>
        <time>2026-02-10T12:09:36.000Z</time>
      </trkpt>
      <trkpt lat="43.61782" lon="6.05445">
        <ele>683</ele>
        <time>2026-02-10T12:09:38.000Z</time>
      </trkpt>
      <trkpt lat="43.61782" lon="6.05446">
        <ele>683</ele>
        <time>2026-02-10T12:09:39.000Z</time>
      </trkpt>
      <trkpt lat="43.61782" lon="6.05447">
        <ele>683</ele>
        <time>2026-02-10T12:09:40.000Z</time>
      </trkpt>
      <trkpt lat="43.61781" lon="6.05449">
        <ele>683</ele>
        <time>2026-02-10T12:09:42.000Z</time>
      </trkpt>
      <trkpt lat="43.61781" lon="6.0545">
        <ele>684</ele>
        <time>2026-02-10T12:09:53.000Z</time>
      </trkpt>
      <trkpt lat="43.61781" lon="6.05452">
        <ele>684</ele>
        <time>2026-02-10T12:09:55.000Z</time>
      </trkpt>
      <trkpt lat="43.61781" lon="6.05453">
        <ele>684</ele>
        <time>2026-02-10T12:09:56.000Z</time>
      </trkpt>
      <trkpt lat="43.61781" lon="6.05455">
        <ele>684</ele>
        <time>2026-02-10T12:09:58.000Z</time>
      </trkpt>
      <trkpt lat="43.61782" lon="6.05456">
        <ele>684</ele>
        <time>2026-02-10T12:09:59.000Z</time>
      </trkpt>
      <trkpt lat="43.61782" lon="6.05458">
        <ele>684</ele>
        <time>2026-02-10T12:10:01.000Z</time>
      </trkpt>
      <trkpt lat="43.61782" lon="6.0546">
        <ele>684</ele>
        <time>2026-02-10T12:10:03.000Z</time>
      </trkpt>
      <trkpt lat="43.61782" lon="6.05461">
        <ele>684</ele>
        <time>2026-02-10T12:10:04.000Z</time>
      </trkpt>
      <trkpt lat="43.61781" lon="6.05462">
        <ele>684</ele>
        <time>2026-02-10T12:10:05.000Z</time>
      </trkpt>
      <trkpt lat="43.61781" lon="6.05463">
        <ele>684</ele>
        <time>2026-02-10T12:10:06.000Z</time>
      </trkpt>
      <trkpt lat="43.61781" lon="6.05464">
        <ele>684</ele>
        <time>2026-02-10T12:10:07.000Z</time>
      </trkpt>
      <trkpt lat="43.61781" lon="6.05465">
        <ele>684</ele>
        <time>2026-02-10T12:10:08.000Z</time>
      </trkpt>
      <trkpt lat="43.61781" lon="6.05466">
        <ele>684</ele>
        <time>2026-02-10T12:10:09.000Z</time>
      </trkpt>
      <trkpt lat="43.61781" lon="6.05467">
        <ele>685</ele>
        <time>2026-02-10T12:10:20.000Z</time>
      </trkpt>
      <trkpt lat="43.61781" lon="6.05468">
        <ele>685</ele>
        <time>2026-02-10T12:10:21.000Z</time>
      </trkpt>
      <trkpt lat="43.61781" lon="6.0547">
        <ele>685</ele>
        <time>2026-02-10T12:10:23.000Z</time>
      </trkpt>
      <trkpt lat="43.61781" lon="6.05471">
        <ele>685</ele>
        <time>2026-02-10T12:10:24.000Z</time>
      </trkpt>
      <trkpt lat="43.61781" lon="6.05473">
        <ele>685</ele>
        <time>2026-02-10T12:10:26.000Z</time>
      </trkpt>
      <trkpt lat="43.61781" lon="6.05474">
        <ele>685</ele>
        <time>2026-02-10T12:10:27.000Z</time>
      </trkpt>
      <trkpt lat="43.61781" lon="6.05475">
        <ele>685</ele>
        <time>2026-02-10T12:10:28.000Z</time>
      </trkpt>
      <trkpt lat="43.61781" lon="6.05477">
        <ele>685</ele>
        <time>2026-02-10T12:10:30.000Z</time>
      </trkpt>
      <trkpt lat="43.61781" lon="6.05478">
        <ele>686</ele>
        <time>2026-02-10T12:10:41.000Z</time>
      </trkpt>
      <trkpt lat="43.61781" lon="6.0548">
        <ele>686</ele>
        <time>2026-02-10T12:10:43.000Z</time>
      </trkpt>
      <trkpt lat="43.61781" lon="6.05481">
        <ele>686</ele>
        <time>2026-02-10T12:10:44.000Z</time>
      </trkpt>
      <trkpt lat="43.61781" lon="6.05482">
        <ele>686</ele>
        <time>2026-02-10T12:10:45.000Z</time>
      </trkpt>
      <trkpt lat="43.61781" lon="6.05484">
        <ele>686</ele>
        <time>2026-02-10T12:10:47.000Z</time>
      </trkpt>
      <trkpt lat="43.61781" lon="6.05485">
        <ele>686</ele>
        <time>2026-02-10T12:10:48.000Z</time>
      </trkpt>
      <trkpt lat="43.6178" lon="6.05486">
        <ele>686</ele>
        <time>2026-02-10T12:10:49.000Z</time>
      </trkpt>
      <trkpt lat="43.6178" lon="6.05487">
        <ele>686</ele>
        <time>2026-02-10T12:10:50.000Z</time>
      </trkpt>
      <trkpt lat="43.6178" lon="6.05488">
        <ele>686</ele>
        <time>2026-02-10T12:10:51.000Z</time>
      </trkpt>
      <trkpt lat="43.6178" lon="6.05489">
        <ele>686</ele>
        <time>2026-02-10T12:10:52.000Z</time>
      </trkpt>
      <trkpt lat="43.61779" lon="6.05491">
        <ele>686</ele>
        <time>2026-02-10T12:10:54.000Z</time>
      </trkpt>
      <trkpt lat="43.6178" lon="6.05493">
        <ele>686</ele>
        <time>2026-02-10T12:10:56.000Z</time>
      </trkpt>
      <trkpt lat="43.61779" lon="6.05494">
        <ele>686</ele>
        <time>2026-02-10T12:10:57.000Z</time>
      </trkpt>
      <trkpt lat="43.61779" lon="6.05496">
        <ele>686</ele>
        <time>2026-02-10T12:10:59.000Z</time>
      </trkpt>
      <trkpt lat="43.61779" lon="6.05498">
        <ele>686</ele>
        <time>2026-02-10T12:11:01.000Z</time>
      </trkpt>
      <trkpt lat="43.61779" lon="6.05499">
        <ele>687</ele>
        <time>2026-02-10T12:11:12.000Z</time>
      </trkpt>
      <trkpt lat="43.61779" lon="6.055">
        <ele>687</ele>
        <time>2026-02-10T12:11:13.000Z</time>
      </trkpt>
      <trkpt lat="43.61779" lon="6.05502">
        <ele>687</ele>
        <time>2026-02-10T12:11:15.000Z</time>
      </trkpt>
      <trkpt lat="43.61779" lon="6.05503">
        <ele>687</ele>
        <time>2026-02-10T12:11:16.000Z</time>
      </trkpt>
      <trkpt lat="43.61778" lon="6.05504">
        <ele>687</ele>
        <time>2026-02-10T12:11:17.000Z</time>
      </trkpt>
      <trkpt lat="43.61778" lon="6.05505">
        <ele>687</ele>
        <time>2026-02-10T12:11:18.000Z</time>
      </trkpt>
      <trkpt lat="43.61778" lon="6.05506">
        <ele>687</ele>
        <time>2026-02-10T12:11:19.000Z</time>
      </trkpt>
      <trkpt lat="43.61778" lon="6.05507">
        <ele>687</ele>
        <time>2026-02-10T12:11:20.000Z</time>
      </trkpt>
      <trkpt lat="43.61778" lon="6.05509">
        <ele>687</ele>
        <time>2026-02-10T12:11:22.000Z</time>
      </trkpt>
      <trkpt lat="43.61778" lon="6.0551">
        <ele>687</ele>
        <time>2026-02-10T12:11:23.000Z</time>
      </trkpt>
      <trkpt lat="43.61777" lon="6.05512">
        <ele>687</ele>
        <time>2026-02-10T12:11:25.000Z</time>
      </trkpt>
      <trkpt lat="43.61777" lon="6.05513">
        <ele>687</ele>
        <time>2026-02-10T12:11:26.000Z</time>
      </trkpt>
      <trkpt lat="43.61777" lon="6.05515">
        <ele>687</ele>
        <time>2026-02-10T12:11:28.000Z</time>
      </trkpt>
      <trkpt lat="43.61777" lon="6.05516">
        <ele>687</ele>
        <time>2026-02-10T12:11:29.000Z</time>
      </trkpt>
      <trkpt lat="43.61777" lon="6.05518">
        <ele>687</ele>
        <time>2026-02-10T12:11:31.000Z</time>
      </trkpt>
      <trkpt lat="43.61777" lon="6.0552">
        <ele>687</ele>
        <time>2026-02-10T12:11:33.000Z</time>
      </trkpt>
      <trkpt lat="43.61776" lon="6.05521">
        <ele>688</ele>
        <time>2026-02-10T12:11:45.000Z</time>
      </trkpt>
      <trkpt lat="43.61776" lon="6.05522">
        <ele>688</ele>
        <time>2026-02-10T12:11:46.000Z</time>
      </trkpt>
      <trkpt lat="43.61776" lon="6.05523">
        <ele>688</ele>
        <time>2026-02-10T12:11:47.000Z</time>
      </trkpt>
      <trkpt lat="43.61776" lon="6.05524">
        <ele>688</ele>
        <time>2026-02-10T12:11:48.000Z</time>
      </trkpt>
      <trkpt lat="43.61775" lon="6.05526">
        <ele>688</ele>
        <time>2026-02-10T12:11:50.000Z</time>
      </trkpt>
      <trkpt lat="43.61775" lon="6.05527">
        <ele>688</ele>
        <time>2026-02-10T12:11:51.000Z</time>
      </trkpt>
      <trkpt lat="43.61775" lon="6.05528">
        <ele>688</ele>
        <time>2026-02-10T12:11:52.000Z</time>
      </trkpt>
      <trkpt lat="43.61775" lon="6.05529">
        <ele>688</ele>
        <time>2026-02-10T12:11:53.000Z</time>
      </trkpt>
      <trkpt lat="43.61775" lon="6.0553">
        <ele>688</ele>
        <time>2026-02-10T12:11:54.000Z</time>
      </trkpt>
      <trkpt lat="43.61775" lon="6.05531">
        <ele>688</ele>
        <time>2026-02-10T12:11:55.000Z</time>
      </trkpt>
      <trkpt lat="43.61775" lon="6.05531">
        <ele>688</ele>
        <time>2026-02-10T12:11:55.000Z</time>
      </trkpt>
      <trkpt lat="43.61775" lon="6.05531">
        <ele>688</ele>
        <time>2026-02-10T12:11:55.000Z</time>
      </trkpt>
      <trkpt lat="43.61775" lon="6.05531">
        <ele>688</ele>
        <time>2026-02-10T12:11:55.000Z</time>
      </trkpt>
      <trkpt lat="43.61775" lon="6.05532">
        <ele>688</ele>
        <time>2026-02-10T12:11:56.000Z</time>
      </trkpt>
      <trkpt lat="43.61775" lon="6.05532">
        <ele>688</ele>
        <time>2026-02-10T12:11:56.000Z</time>
      </trkpt>
      <trkpt lat="43.61775" lon="6.05533">
        <ele>688</ele>
        <time>2026-02-10T12:11:57.000Z</time>
      </trkpt>
      <trkpt lat="43.61775" lon="6.05533">
        <ele>688</ele>
        <time>2026-02-10T12:11:57.000Z</time>
      </trkpt>
      <trkpt lat="43.61775" lon="6.05534">
        <ele>688</ele>
        <time>2026-02-10T12:11:58.000Z</time>
      </trkpt>
      <trkpt lat="43.61775" lon="6.05535">
        <ele>688</ele>
        <time>2026-02-10T12:11:59.000Z</time>
      </trkpt>
      <trkpt lat="43.61775" lon="6.05536">
        <ele>688</ele>
        <time>2026-02-10T12:12:00.000Z</time>
      </trkpt>
      <trkpt lat="43.61774" lon="6.05537">
        <ele>688</ele>
        <time>2026-02-10T12:12:01.000Z</time>
      </trkpt>
      <trkpt lat="43.61774" lon="6.05539">
        <ele>688</ele>
        <time>2026-02-10T12:12:03.000Z</time>
      </trkpt>
      <trkpt lat="43.61774" lon="6.0554">
        <ele>688</ele>
        <time>2026-02-10T12:12:04.000Z</time>
      </trkpt>
      <trkpt lat="43.61774" lon="6.05541">
        <ele>688</ele>
        <time>2026-02-10T12:12:05.000Z</time>
      </trkpt>
      <trkpt lat="43.61774" lon="6.05543">
        <ele>688</ele>
        <time>2026-02-10T12:12:07.000Z</time>
      </trkpt>
      <trkpt lat="43.61773" lon="6.05544">
        <ele>689</ele>
        <time>2026-02-10T12:12:19.000Z</time>
      </trkpt>
      <trkpt lat="43.61772" lon="6.05546">
        <ele>689</ele>
        <time>2026-02-10T12:12:21.000Z</time>
      </trkpt>
      <trkpt lat="43.61772" lon="6.05547">
        <ele>689</ele>
        <time>2026-02-10T12:12:22.000Z</time>
      </trkpt>
      <trkpt lat="43.61772" lon="6.05549">
        <ele>689</ele>
        <time>2026-02-10T12:12:24.000Z</time>
      </trkpt>
      <trkpt lat="43.61772" lon="6.0555">
        <ele>689</ele>
        <time>2026-02-10T12:12:25.000Z</time>
      </trkpt>
      <trkpt lat="43.61771" lon="6.05551">
        <ele>689</ele>
        <time>2026-02-10T12:12:26.000Z</time>
      </trkpt>
      <trkpt lat="43.61771" lon="6.05553">
        <ele>689</ele>
        <time>2026-02-10T12:12:28.000Z</time>
      </trkpt>
      <trkpt lat="43.61771" lon="6.05554">
        <ele>689</ele>
        <time>2026-02-10T12:12:29.000Z</time>
      </trkpt>
      <trkpt lat="43.6177" lon="6.05555">
        <ele>689</ele>
        <time>2026-02-10T12:12:30.000Z</time>
      </trkpt>
      <trkpt lat="43.6177" lon="6.05556">
        <ele>689</ele>
        <time>2026-02-10T12:12:31.000Z</time>
      </trkpt>
      <trkpt lat="43.6177" lon="6.05557">
        <ele>689</ele>
        <time>2026-02-10T12:12:32.000Z</time>
      </trkpt>
      <trkpt lat="43.61769" lon="6.05559">
        <ele>689</ele>
        <time>2026-02-10T12:12:34.000Z</time>
      </trkpt>
      <trkpt lat="43.61769" lon="6.05561">
        <ele>689</ele>
        <time>2026-02-10T12:12:36.000Z</time>
      </trkpt>
      <trkpt lat="43.61769" lon="6.05562">
        <ele>689</ele>
        <time>2026-02-10T12:12:37.000Z</time>
      </trkpt>
      <trkpt lat="43.61769" lon="6.05564">
        <ele>689</ele>
        <time>2026-02-10T12:12:39.000Z</time>
      </trkpt>
      <trkpt lat="43.61768" lon="6.05565">
        <ele>689</ele>
        <time>2026-02-10T12:12:40.000Z</time>
      </trkpt>
      <trkpt lat="43.61768" lon="6.05567">
        <ele>689</ele>
        <time>2026-02-10T12:12:42.000Z</time>
      </trkpt>
      <trkpt lat="43.61768" lon="6.05569">
        <ele>689</ele>
        <time>2026-02-10T12:12:44.000Z</time>
      </trkpt>
      <trkpt lat="43.61767" lon="6.0557">
        <ele>689</ele>
        <time>2026-02-10T12:12:45.000Z</time>
      </trkpt>
      <trkpt lat="43.61767" lon="6.05572">
        <ele>689</ele>
        <time>2026-02-10T12:12:47.000Z</time>
      </trkpt>
      <trkpt lat="43.61766" lon="6.05573">
        <ele>689</ele>
        <time>2026-02-10T12:12:48.000Z</time>
      </trkpt>
      <trkpt lat="43.61766" lon="6.05575">
        <ele>689</ele>
        <time>2026-02-10T12:12:50.000Z</time>
      </trkpt>
      <trkpt lat="43.61766" lon="6.05576">
        <ele>689</ele>
        <time>2026-02-10T12:12:51.000Z</time>
      </trkpt>
      <trkpt lat="43.61766" lon="6.05577">
        <ele>689</ele>
        <time>2026-02-10T12:12:52.000Z</time>
      </trkpt>
      <trkpt lat="43.61765" lon="6.05579">
        <ele>689</ele>
        <time>2026-02-10T12:12:54.000Z</time>
      </trkpt>
      <trkpt lat="43.61765" lon="6.0558">
        <ele>689</ele>
        <time>2026-02-10T12:12:55.000Z</time>
      </trkpt>
      <trkpt lat="43.61765" lon="6.05582">
        <ele>689</ele>
        <time>2026-02-10T12:12:57.000Z</time>
      </trkpt>
      <trkpt lat="43.61764" lon="6.05583">
        <ele>689</ele>
        <time>2026-02-10T12:12:58.000Z</time>
      </trkpt>
      <trkpt lat="43.61764" lon="6.05585">
        <ele>689</ele>
        <time>2026-02-10T12:13:00.000Z</time>
      </trkpt>
      <trkpt lat="43.61763" lon="6.05586">
        <ele>689</ele>
        <time>2026-02-10T12:13:01.000Z</time>
      </trkpt>
      <trkpt lat="43.61763" lon="6.05587">
        <ele>689</ele>
        <time>2026-02-10T12:13:02.000Z</time>
      </trkpt>
      <trkpt lat="43.61763" lon="6.05589">
        <ele>689</ele>
        <time>2026-02-10T12:13:04.000Z</time>
      </trkpt>
      <trkpt lat="43.61763" lon="6.0559">
        <ele>689</ele>
        <time>2026-02-10T12:13:05.000Z</time>
      </trkpt>
      <trkpt lat="43.61762" lon="6.05591">
        <ele>689</ele>
        <time>2026-02-10T12:13:06.000Z</time>
      </trkpt>
      <trkpt lat="43.61762" lon="6.05593">
        <ele>689</ele>
        <time>2026-02-10T12:13:08.000Z</time>
      </trkpt>
      <trkpt lat="43.61761" lon="6.05594">
        <ele>689</ele>
        <time>2026-02-10T12:13:09.000Z</time>
      </trkpt>
      <trkpt lat="43.61761" lon="6.05596">
        <ele>689</ele>
        <time>2026-02-10T12:13:11.000Z</time>
      </trkpt>
      <trkpt lat="43.61761" lon="6.05597">
        <ele>689</ele>
        <time>2026-02-10T12:13:12.000Z</time>
      </trkpt>
      <trkpt lat="43.6176" lon="6.05599">
        <ele>689</ele>
        <time>2026-02-10T12:13:14.000Z</time>
      </trkpt>
      <trkpt lat="43.6176" lon="6.05601">
        <ele>689</ele>
        <time>2026-02-10T12:13:16.000Z</time>
      </trkpt>
      <trkpt lat="43.6176" lon="6.05602">
        <ele>689</ele>
        <time>2026-02-10T12:13:17.000Z</time>
      </trkpt>
      <trkpt lat="43.6176" lon="6.05604">
        <ele>689</ele>
        <time>2026-02-10T12:13:19.000Z</time>
      </trkpt>
      <trkpt lat="43.61759" lon="6.05605">
        <ele>690</ele>
        <time>2026-02-10T12:13:31.000Z</time>
      </trkpt>
      <trkpt lat="43.61759" lon="6.05606">
        <ele>690</ele>
        <time>2026-02-10T12:13:32.000Z</time>
      </trkpt>
      <trkpt lat="43.61758" lon="6.05608">
        <ele>690</ele>
        <time>2026-02-10T12:13:34.000Z</time>
      </trkpt>
      <trkpt lat="43.61758" lon="6.05609">
        <ele>690</ele>
        <time>2026-02-10T12:13:35.000Z</time>
      </trkpt>
      <trkpt lat="43.61758" lon="6.0561">
        <ele>689</ele>
        <time>2026-02-10T12:13:36.000Z</time>
      </trkpt>
      <trkpt lat="43.61758" lon="6.05612">
        <ele>689</ele>
        <time>2026-02-10T12:13:38.000Z</time>
      </trkpt>
      <trkpt lat="43.61757" lon="6.05613">
        <ele>689</ele>
        <time>2026-02-10T12:13:39.000Z</time>
      </trkpt>
      <trkpt lat="43.61757" lon="6.05615">
        <ele>689</ele>
        <time>2026-02-10T12:13:41.000Z</time>
      </trkpt>
      <trkpt lat="43.61757" lon="6.05616">
        <ele>689</ele>
        <time>2026-02-10T12:13:42.000Z</time>
      </trkpt>
      <trkpt lat="43.61756" lon="6.05617">
        <ele>689</ele>
        <time>2026-02-10T12:13:43.000Z</time>
      </trkpt>
      <trkpt lat="43.61756" lon="6.05618">
        <ele>689</ele>
        <time>2026-02-10T12:13:44.000Z</time>
      </trkpt>
      <trkpt lat="43.61756" lon="6.05619">
        <ele>689</ele>
        <time>2026-02-10T12:13:45.000Z</time>
      </trkpt>
      <trkpt lat="43.61755" lon="6.05619">
        <ele>689</ele>
        <time>2026-02-10T12:13:46.000Z</time>
      </trkpt>
      <trkpt lat="43.61755" lon="6.05619">
        <ele>689</ele>
        <time>2026-02-10T12:13:46.000Z</time>
      </trkpt>
      <trkpt lat="43.61755" lon="6.0562">
        <ele>689</ele>
        <time>2026-02-10T12:13:47.000Z</time>
      </trkpt>
      <trkpt lat="43.61755" lon="6.05621">
        <ele>689</ele>
        <time>2026-02-10T12:13:48.000Z</time>
      </trkpt>
      <trkpt lat="43.61754" lon="6.05623">
        <ele>690</ele>
        <time>2026-02-10T12:14:00.000Z</time>
      </trkpt>
      <trkpt lat="43.61753" lon="6.05624">
        <ele>690</ele>
        <time>2026-02-10T12:14:01.000Z</time>
      </trkpt>
      <trkpt lat="43.61752" lon="6.05626">
        <ele>690</ele>
        <time>2026-02-10T12:14:03.000Z</time>
      </trkpt>
      <trkpt lat="43.61752" lon="6.05628">
        <ele>690</ele>
        <time>2026-02-10T12:14:05.000Z</time>
      </trkpt>
      <trkpt lat="43.61752" lon="6.05629">
        <ele>690</ele>
        <time>2026-02-10T12:14:06.000Z</time>
      </trkpt>
      <trkpt lat="43.61751" lon="6.05631">
        <ele>690</ele>
        <time>2026-02-10T12:14:08.000Z</time>
      </trkpt>
      <trkpt lat="43.61751" lon="6.05632">
        <ele>690</ele>
        <time>2026-02-10T12:14:09.000Z</time>
      </trkpt>
      <trkpt lat="43.61751" lon="6.05633">
        <ele>690</ele>
        <time>2026-02-10T12:14:10.000Z</time>
      </trkpt>
      <trkpt lat="43.6175" lon="6.05634">
        <ele>690</ele>
        <time>2026-02-10T12:14:11.000Z</time>
      </trkpt>
      <trkpt lat="43.6175" lon="6.05635">
        <ele>690</ele>
        <time>2026-02-10T12:14:12.000Z</time>
      </trkpt>
      <trkpt lat="43.6175" lon="6.05636">
        <ele>690</ele>
        <time>2026-02-10T12:14:13.000Z</time>
      </trkpt>
      <trkpt lat="43.6175" lon="6.05638">
        <ele>690</ele>
        <time>2026-02-10T12:14:15.000Z</time>
      </trkpt>
      <trkpt lat="43.61749" lon="6.05639">
        <ele>690</ele>
        <time>2026-02-10T12:14:16.000Z</time>
      </trkpt>
      <trkpt lat="43.61749" lon="6.0564">
        <ele>690</ele>
        <time>2026-02-10T12:14:17.000Z</time>
      </trkpt>
      <trkpt lat="43.61748" lon="6.05641">
        <ele>690</ele>
        <time>2026-02-10T12:14:18.000Z</time>
      </trkpt>
      <trkpt lat="43.61747" lon="6.05642">
        <ele>690</ele>
        <time>2026-02-10T12:14:19.000Z</time>
      </trkpt>
      <trkpt lat="43.61747" lon="6.05643">
        <ele>690</ele>
        <time>2026-02-10T12:14:20.000Z</time>
      </trkpt>
      <trkpt lat="43.61746" lon="6.05645">
        <ele>690</ele>
        <time>2026-02-10T12:14:22.000Z</time>
      </trkpt>
      <trkpt lat="43.61746" lon="6.05646">
        <ele>690</ele>
        <time>2026-02-10T12:14:23.000Z</time>
      </trkpt>
      <trkpt lat="43.61745" lon="6.05647">
        <ele>690</ele>
        <time>2026-02-10T12:14:24.000Z</time>
      </trkpt>
      <trkpt lat="43.61745" lon="6.05648">
        <ele>690</ele>
        <time>2026-02-10T12:14:25.000Z</time>
      </trkpt>
      <trkpt lat="43.61745" lon="6.05649">
        <ele>690</ele>
        <time>2026-02-10T12:14:26.000Z</time>
      </trkpt>
      <trkpt lat="43.61744" lon="6.0565">
        <ele>690</ele>
        <time>2026-02-10T12:14:27.000Z</time>
      </trkpt>
      <trkpt lat="43.61744" lon="6.05651">
        <ele>690</ele>
        <time>2026-02-10T12:14:28.000Z</time>
      </trkpt>
      <trkpt lat="43.61744" lon="6.05652">
        <ele>690</ele>
        <time>2026-02-10T12:14:29.000Z</time>
      </trkpt>
      <trkpt lat="43.61743" lon="6.05653">
        <ele>690</ele>
        <time>2026-02-10T12:14:30.000Z</time>
      </trkpt>
      <trkpt lat="43.61742" lon="6.05654">
        <ele>690</ele>
        <time>2026-02-10T12:14:31.000Z</time>
      </trkpt>
      <trkpt lat="43.61742" lon="6.05655">
        <ele>690</ele>
        <time>2026-02-10T12:14:32.000Z</time>
      </trkpt>
      <trkpt lat="43.61742" lon="6.05657">
        <ele>690</ele>
        <time>2026-02-10T12:14:34.000Z</time>
      </trkpt>
      <trkpt lat="43.61741" lon="6.05658">
        <ele>690</ele>
        <time>2026-02-10T12:14:35.000Z</time>
      </trkpt>
      <trkpt lat="43.6174" lon="6.05659">
        <ele>690</ele>
        <time>2026-02-10T12:14:36.000Z</time>
      </trkpt>
      <trkpt lat="43.61739" lon="6.0566">
        <ele>690</ele>
        <time>2026-02-10T12:14:37.000Z</time>
      </trkpt>
      <trkpt lat="43.61739" lon="6.05661">
        <ele>690</ele>
        <time>2026-02-10T12:14:38.000Z</time>
      </trkpt>
      <trkpt lat="43.61738" lon="6.05662">
        <ele>690</ele>
        <time>2026-02-10T12:14:39.000Z</time>
      </trkpt>
      <trkpt lat="43.61738" lon="6.05663">
        <ele>690</ele>
        <time>2026-02-10T12:14:40.000Z</time>
      </trkpt>
      <trkpt lat="43.61737" lon="6.05664">
        <ele>691</ele>
        <time>2026-02-10T12:14:52.000Z</time>
      </trkpt>
      <trkpt lat="43.61737" lon="6.05665">
        <ele>691</ele>
        <time>2026-02-10T12:14:53.000Z</time>
      </trkpt>
      <trkpt lat="43.61736" lon="6.05666">
        <ele>691</ele>
        <time>2026-02-10T12:14:54.000Z</time>
      </trkpt>
      <trkpt lat="43.61735" lon="6.05667">
        <ele>691</ele>
        <time>2026-02-10T12:14:55.000Z</time>
      </trkpt>
      <trkpt lat="43.61735" lon="6.05668">
        <ele>691</ele>
        <time>2026-02-10T12:14:56.000Z</time>
      </trkpt>
      <trkpt lat="43.61735" lon="6.05669">
        <ele>691</ele>
        <time>2026-02-10T12:14:57.000Z</time>
      </trkpt>
      <trkpt lat="43.61734" lon="6.05671">
        <ele>691</ele>
        <time>2026-02-10T12:14:59.000Z</time>
      </trkpt>
      <trkpt lat="43.61733" lon="6.05671">
        <ele>691</ele>
        <time>2026-02-10T12:15:00.000Z</time>
      </trkpt>
      <trkpt lat="43.61732" lon="6.05672">
        <ele>691</ele>
        <time>2026-02-10T12:15:01.000Z</time>
      </trkpt>
      <trkpt lat="43.61732" lon="6.05674">
        <ele>691</ele>
        <time>2026-02-10T12:15:03.000Z</time>
      </trkpt>
      <trkpt lat="43.61731" lon="6.05675">
        <ele>691</ele>
        <time>2026-02-10T12:15:04.000Z</time>
      </trkpt>
      <trkpt lat="43.6173" lon="6.05676">
        <ele>691</ele>
        <time>2026-02-10T12:15:05.000Z</time>
      </trkpt>
      <trkpt lat="43.6173" lon="6.05677">
        <ele>691</ele>
        <time>2026-02-10T12:15:06.000Z</time>
      </trkpt>
      <trkpt lat="43.61729" lon="6.05678">
        <ele>691</ele>
        <time>2026-02-10T12:15:07.000Z</time>
      </trkpt>
      <trkpt lat="43.61729" lon="6.05679">
        <ele>691</ele>
        <time>2026-02-10T12:15:08.000Z</time>
      </trkpt>
      <trkpt lat="43.61729" lon="6.05679">
        <ele>691</ele>
        <time>2026-02-10T12:15:08.000Z</time>
      </trkpt>
      <trkpt lat="43.61728" lon="6.05679">
        <ele>691</ele>
        <time>2026-02-10T12:15:09.000Z</time>
      </trkpt>
      <trkpt lat="43.61727" lon="6.0568">
        <ele>691</ele>
        <time>2026-02-10T12:15:10.000Z</time>
      </trkpt>
      <trkpt lat="43.61727" lon="6.05681">
        <ele>691</ele>
        <time>2026-02-10T12:15:11.000Z</time>
      </trkpt>
      <trkpt lat="43.61726" lon="6.05681">
        <ele>691</ele>
        <time>2026-02-10T12:15:12.000Z</time>
      </trkpt>
      <trkpt lat="43.61725" lon="6.05682">
        <ele>691</ele>
        <time>2026-02-10T12:15:13.000Z</time>
      </trkpt>
      <trkpt lat="43.61725" lon="6.05683">
        <ele>691</ele>
        <time>2026-02-10T12:15:14.000Z</time>
      </trkpt>
      <trkpt lat="43.61724" lon="6.05684">
        <ele>691</ele>
        <time>2026-02-10T12:15:15.000Z</time>
      </trkpt>
      <trkpt lat="43.61723" lon="6.05685">
        <ele>691</ele>
        <time>2026-02-10T12:15:16.000Z</time>
      </trkpt>
      <trkpt lat="43.61723" lon="6.05687">
        <ele>691</ele>
        <time>2026-02-10T12:15:18.000Z</time>
      </trkpt>
      <trkpt lat="43.61723" lon="6.05688">
        <ele>691</ele>
        <time>2026-02-10T12:15:19.000Z</time>
      </trkpt>
      <trkpt lat="43.61722" lon="6.05689">
        <ele>691</ele>
        <time>2026-02-10T12:15:20.000Z</time>
      </trkpt>
      <trkpt lat="43.61722" lon="6.0569">
        <ele>691</ele>
        <time>2026-02-10T12:15:21.000Z</time>
      </trkpt>
      <trkpt lat="43.61722" lon="6.05692">
        <ele>691</ele>
        <time>2026-02-10T12:15:23.000Z</time>
      </trkpt>
      <trkpt lat="43.61722" lon="6.05693">
        <ele>690</ele>
        <time>2026-02-10T12:15:24.000Z</time>
      </trkpt>
      <trkpt lat="43.61723" lon="6.05694">
        <ele>690</ele>
        <time>2026-02-10T12:15:25.000Z</time>
      </trkpt>
      <trkpt lat="43.61723" lon="6.05695">
        <ele>690</ele>
        <time>2026-02-10T12:15:26.000Z</time>
      </trkpt>
      <trkpt lat="43.61723" lon="6.05696">
        <ele>690</ele>
        <time>2026-02-10T12:15:27.000Z</time>
      </trkpt>
      <trkpt lat="43.61724" lon="6.05697">
        <ele>690</ele>
        <time>2026-02-10T12:15:28.000Z</time>
      </trkpt>
      <trkpt lat="43.61724" lon="6.05697">
        <ele>690</ele>
        <time>2026-02-10T12:15:28.000Z</time>
      </trkpt>
      <trkpt lat="43.61724" lon="6.05698">
        <ele>690</ele>
        <time>2026-02-10T12:15:29.000Z</time>
      </trkpt>
      <trkpt lat="43.61724" lon="6.05698">
        <ele>690</ele>
        <time>2026-02-10T12:15:29.000Z</time>
      </trkpt>
      <trkpt lat="43.61725" lon="6.05699">
        <ele>690</ele>
        <time>2026-02-10T12:15:30.000Z</time>
      </trkpt>
      <trkpt lat="43.61725" lon="6.057">
        <ele>690</ele>
        <time>2026-02-10T12:15:31.000Z</time>
      </trkpt>
      <trkpt lat="43.61726" lon="6.057">
        <ele>690</ele>
        <time>2026-02-10T12:15:32.000Z</time>
      </trkpt>
      <trkpt lat="43.61726" lon="6.05701">
        <ele>690</ele>
        <time>2026-02-10T12:15:33.000Z</time>
      </trkpt>
      <trkpt lat="43.61726" lon="6.057">
        <ele>690</ele>
        <time>2026-02-10T12:15:34.000Z</time>
      </trkpt>
      <trkpt lat="43.61726" lon="6.057">
        <ele>690</ele>
        <time>2026-02-10T12:15:34.000Z</time>
      </trkpt>
      <trkpt lat="43.61726" lon="6.057">
        <ele>690</ele>
        <time>2026-02-10T12:15:34.000Z</time>
      </trkpt>
      <trkpt lat="43.61726" lon="6.057">
        <ele>690</ele>
        <time>2026-02-10T12:15:34.000Z</time>
      </trkpt>
      <trkpt lat="43.61726" lon="6.057">
        <ele>690</ele>
        <time>2026-02-10T12:15:34.000Z</time>
      </trkpt>
      <trkpt lat="43.61726" lon="6.057">
        <ele>690</ele>
        <time>2026-02-10T12:15:34.000Z</time>
      </trkpt>
      <trkpt lat="43.61726" lon="6.057">
        <ele>690</ele>
        <time>2026-02-10T12:15:34.000Z</time>
      </trkpt>
      <trkpt lat="43.61726" lon="6.057">
        <ele>690</ele>
        <time>2026-02-10T12:15:34.000Z</time>
      </trkpt>
      <trkpt lat="43.61726" lon="6.057">
        <ele>690</ele>
        <time>2026-02-10T12:15:34.000Z</time>
      </trkpt>
      <trkpt lat="43.61726" lon="6.05701">
        <ele>690</ele>
        <time>2026-02-10T12:15:35.000Z</time>
      </trkpt>
      <trkpt lat="43.61726" lon="6.05701">
        <ele>690</ele>
        <time>2026-02-10T12:15:35.000Z</time>
      </trkpt>
      <trkpt lat="43.61726" lon="6.05701">
        <ele>690</ele>
        <time>2026-02-10T12:15:35.000Z</time>
      </trkpt>
      <trkpt lat="43.61726" lon="6.05701">
        <ele>690</ele>
        <time>2026-02-10T12:15:35.000Z</time>
      </trkpt>
      <trkpt lat="43.61726" lon="6.05701">
        <ele>690</ele>
        <time>2026-02-10T12:15:35.000Z</time>
      </trkpt>
      <trkpt lat="43.61725" lon="6.05702">
        <ele>690</ele>
        <time>2026-02-10T12:15:36.000Z</time>
      </trkpt>
      <trkpt lat="43.61725" lon="6.05702">
        <ele>690</ele>
        <time>2026-02-10T12:15:36.000Z</time>
      </trkpt>
      <trkpt lat="43.61725" lon="6.05702">
        <ele>690</ele>
        <time>2026-02-10T12:15:36.000Z</time>
      </trkpt>
      <trkpt lat="43.61726" lon="6.05703">
        <ele>690</ele>
        <time>2026-02-10T12:15:37.000Z</time>
      </trkpt>
      <trkpt lat="43.61726" lon="6.05703">
        <ele>690</ele>
        <time>2026-02-10T12:15:37.000Z</time>
      </trkpt>
      <trkpt lat="43.61727" lon="6.05704">
        <ele>690</ele>
        <time>2026-02-10T12:15:38.000Z</time>
      </trkpt>
      <trkpt lat="43.61727" lon="6.05704">
        <ele>690</ele>
        <time>2026-02-10T12:15:38.000Z</time>
      </trkpt>
      <trkpt lat="43.61728" lon="6.05705">
        <ele>690</ele>
        <time>2026-02-10T12:15:39.000Z</time>
      </trkpt>
      <trkpt lat="43.61728" lon="6.05705">
        <ele>690</ele>
        <time>2026-02-10T12:15:39.000Z</time>
      </trkpt>
      <trkpt lat="43.61728" lon="6.05705">
        <ele>690</ele>
        <time>2026-02-10T12:15:39.000Z</time>
      </trkpt>
      <trkpt lat="43.61728" lon="6.05704">
        <ele>690</ele>
        <time>2026-02-10T12:15:40.000Z</time>
      </trkpt>
      <trkpt lat="43.61727" lon="6.05704">
        <ele>690</ele>
        <time>2026-02-10T12:15:41.000Z</time>
      </trkpt>
      <trkpt lat="43.61727" lon="6.05703">
        <ele>690</ele>
        <time>2026-02-10T12:15:42.000Z</time>
      </trkpt>
      <trkpt lat="43.61726" lon="6.05703">
        <ele>690</ele>
        <time>2026-02-10T12:15:43.000Z</time>
      </trkpt>
      <trkpt lat="43.61725" lon="6.05703">
        <ele>690</ele>
        <time>2026-02-10T12:15:44.000Z</time>
      </trkpt>
      <trkpt lat="43.61725" lon="6.05703">
        <ele>690</ele>
        <time>2026-02-10T12:15:44.000Z</time>
      </trkpt>
      <trkpt lat="43.61725" lon="6.05703">
        <ele>690</ele>
        <time>2026-02-10T12:15:44.000Z</time>
      </trkpt>
      <trkpt lat="43.61725" lon="6.05703">
        <ele>690</ele>
        <time>2026-02-10T12:15:44.000Z</time>
      </trkpt>
      <trkpt lat="43.61725" lon="6.05703">
        <ele>690</ele>
        <time>2026-02-10T12:15:44.000Z</time>
      </trkpt>
      <trkpt lat="43.61725" lon="6.05703">
        <ele>690</ele>
        <time>2026-02-10T12:15:44.000Z</time>
      </trkpt>
      <trkpt lat="43.61725" lon="6.05703">
        <ele>690</ele>
        <time>2026-02-10T12:15:44.000Z</time>
      </trkpt>
      <trkpt lat="43.61725" lon="6.05703">
        <ele>690</ele>
        <time>2026-02-10T12:15:44.000Z</time>
      </trkpt>
      <trkpt lat="43.61725" lon="6.05703">
        <ele>690</ele>
        <time>2026-02-10T12:15:44.000Z</time>
      </trkpt>
      <trkpt lat="43.61725" lon="6.05703">
        <ele>690</ele>
        <time>2026-02-10T12:15:44.000Z</time>
      </trkpt>
      <trkpt lat="43.61725" lon="6.05703">
        <ele>690</ele>
        <time>2026-02-10T12:15:44.000Z</time>
      </trkpt>
      <trkpt lat="43.61725" lon="6.05704">
        <ele>690</ele>
        <time>2026-02-10T12:15:45.000Z</time>
      </trkpt>
      <trkpt lat="43.61725" lon="6.05704">
        <ele>690</ele>
        <time>2026-02-10T12:15:45.000Z</time>
      </trkpt>
      <trkpt lat="43.61726" lon="6.05704">
        <ele>690</ele>
        <time>2026-02-10T12:15:46.000Z</time>
      </trkpt>
      <trkpt lat="43.61726" lon="6.05703">
        <ele>690</ele>
        <time>2026-02-10T12:15:47.000Z</time>
      </trkpt>
      <trkpt lat="43.61726" lon="6.05703">
        <ele>690</ele>
        <time>2026-02-10T12:15:47.000Z</time>
      </trkpt>
      <trkpt lat="43.61726" lon="6.05703">
        <ele>690</ele>
        <time>2026-02-10T12:15:47.000Z</time>
      </trkpt>
      <trkpt lat="43.61726" lon="6.05702">
        <ele>690</ele>
        <time>2026-02-10T12:15:48.000Z</time>
      </trkpt>
      <trkpt lat="43.61726" lon="6.05702">
        <ele>690</ele>
        <time>2026-02-10T12:15:48.000Z</time>
      </trkpt>
      <trkpt lat="43.61726" lon="6.05702">
        <ele>690</ele>
        <time>2026-02-10T12:15:48.000Z</time>
      </trkpt>
      <trkpt lat="43.61726" lon="6.05702">
        <ele>690</ele>
        <time>2026-02-10T12:15:48.000Z</time>
      </trkpt>
      <trkpt lat="43.61726" lon="6.05703">
        <ele>690</ele>
        <time>2026-02-10T12:15:49.000Z</time>
      </trkpt>
      <trkpt lat="43.61726" lon="6.05703">
        <ele>690</ele>
        <time>2026-02-10T12:15:49.000Z</time>
      </trkpt>
      <trkpt lat="43.61726" lon="6.05703">
        <ele>690</ele>
        <time>2026-02-10T12:15:49.000Z</time>
      </trkpt>
      <trkpt lat="43.61726" lon="6.05703">
        <ele>690</ele>
        <time>2026-02-10T12:15:49.000Z</time>
      </trkpt>
      <trkpt lat="43.61726" lon="6.05703">
        <ele>690</ele>
        <time>2026-02-10T12:15:49.000Z</time>
      </trkpt>
      <trkpt lat="43.61726" lon="6.05703">
        <ele>690</ele>
        <time>2026-02-10T12:15:49.000Z</time>
      </trkpt>
      <trkpt lat="43.61726" lon="6.05703">
        <ele>690</ele>
        <time>2026-02-10T12:15:49.000Z</time>
      </trkpt>
      <trkpt lat="43.61726" lon="6.05703">
        <ele>690</ele>
        <time>2026-02-10T12:15:49.000Z</time>
      </trkpt>
      <trkpt lat="43.61726" lon="6.05703">
        <ele>690</ele>
        <time>2026-02-10T12:15:49.000Z</time>
      </trkpt>
      <trkpt lat="43.61726" lon="6.05703">
        <ele>690</ele>
        <time>2026-02-10T12:15:49.000Z</time>
      </trkpt>
      <trkpt lat="43.61726" lon="6.05703">
        <ele>690</ele>
        <time>2026-02-10T12:15:49.000Z</time>
      </trkpt>
      <trkpt lat="43.61726" lon="6.05703">
        <ele>690</ele>
        <time>2026-02-10T12:15:49.000Z</time>
      </trkpt>
      <trkpt lat="43.61726" lon="6.05703">
        <ele>690</ele>
        <time>2026-02-10T12:15:49.000Z</time>
      </trkpt>
      <trkpt lat="43.61726" lon="6.05703">
        <ele>690</ele>
        <time>2026-02-10T12:15:49.000Z</time>
      </trkpt>
      <trkpt lat="43.61726" lon="6.05704">
        <ele>690</ele>
        <time>2026-02-10T12:15:50.000Z</time>
      </trkpt>
      <trkpt lat="43.61726" lon="6.05704">
        <ele>690</ele>
        <time>2026-02-10T12:15:50.000Z</time>
      </trkpt>
      <trkpt lat="43.61725" lon="6.05704">
        <ele>690</ele>
        <time>2026-02-10T12:15:51.000Z</time>
      </trkpt>
      <trkpt lat="43.61726" lon="6.05704">
        <ele>690</ele>
        <time>2026-02-10T12:15:52.000Z</time>
      </trkpt>
      <trkpt lat="43.61726" lon="6.05704">
        <ele>690</ele>
        <time>2026-02-10T12:15:52.000Z</time>
      </trkpt>
      <trkpt lat="43.61726" lon="6.05705">
        <ele>690</ele>
        <time>2026-02-10T12:15:53.000Z</time>
      </trkpt>
      <trkpt lat="43.61726" lon="6.05705">
        <ele>690</ele>
        <time>2026-02-10T12:15:53.000Z</time>
      </trkpt>
      <trkpt lat="43.61726" lon="6.05705">
        <ele>690</ele>
        <time>2026-02-10T12:15:53.000Z</time>
      </trkpt>
      <trkpt lat="43.61726" lon="6.05706">
        <ele>690</ele>
        <time>2026-02-10T12:15:54.000Z</time>
      </trkpt>
      <trkpt lat="43.61725" lon="6.05706">
        <ele>690</ele>
        <time>2026-02-10T12:15:55.000Z</time>
      </trkpt>
      <trkpt lat="43.61725" lon="6.05706">
        <ele>690</ele>
        <time>2026-02-10T12:15:55.000Z</time>
      </trkpt>
      <trkpt lat="43.61725" lon="6.05706">
        <ele>690</ele>
        <time>2026-02-10T12:15:55.000Z</time>
      </trkpt>
      <trkpt lat="43.61725" lon="6.05706">
        <ele>690</ele>
        <time>2026-02-10T12:15:55.000Z</time>
      </trkpt>
      <trkpt lat="43.61725" lon="6.05706">
        <ele>690</ele>
        <time>2026-02-10T12:15:55.000Z</time>
      </trkpt>
      <trkpt lat="43.61725" lon="6.05706">
        <ele>690</ele>
        <time>2026-02-10T12:15:55.000Z</time>
      </trkpt>
      <trkpt lat="43.61726" lon="6.05705">
        <ele>690</ele>
        <time>2026-02-10T12:15:56.000Z</time>
      </trkpt>
      <trkpt lat="43.61726" lon="6.05705">
        <ele>690</ele>
        <time>2026-02-10T12:15:56.000Z</time>
      </trkpt>
      <trkpt lat="43.61726" lon="6.05704">
        <ele>690</ele>
        <time>2026-02-10T12:15:57.000Z</time>
      </trkpt>
      <trkpt lat="43.61727" lon="6.05704">
        <ele>690</ele>
        <time>2026-02-10T12:15:58.000Z</time>
      </trkpt>
      <trkpt lat="43.61728" lon="6.05703">
        <ele>690</ele>
        <time>2026-02-10T12:15:59.000Z</time>
      </trkpt>
      <trkpt lat="43.61728" lon="6.05703">
        <ele>690</ele>
        <time>2026-02-10T12:15:59.000Z</time>
      </trkpt>
      <trkpt lat="43.61729" lon="6.05703">
        <ele>690</ele>
        <time>2026-02-10T12:16:00.000Z</time>
      </trkpt>
      <trkpt lat="43.6173" lon="6.05702">
        <ele>690</ele>
        <time>2026-02-10T12:16:01.000Z</time>
      </trkpt>
      <trkpt lat="43.6173" lon="6.05701">
        <ele>690</ele>
        <time>2026-02-10T12:16:02.000Z</time>
      </trkpt>
      <trkpt lat="43.61731" lon="6.05701">
        <ele>690</ele>
        <time>2026-02-10T12:16:03.000Z</time>
      </trkpt>
      <trkpt lat="43.61731" lon="6.05701">
        <ele>690</ele>
        <time>2026-02-10T12:16:03.000Z</time>
      </trkpt>
      <trkpt lat="43.61731" lon="6.057">
        <ele>690</ele>
        <time>2026-02-10T12:16:04.000Z</time>
      </trkpt>
      <trkpt lat="43.61731" lon="6.05701">
        <ele>690</ele>
        <time>2026-02-10T12:16:05.000Z</time>
      </trkpt>
      <trkpt lat="43.6173" lon="6.057">
        <ele>690</ele>
        <time>2026-02-10T12:16:06.000Z</time>
      </trkpt>
      <trkpt lat="43.6173" lon="6.057">
        <ele>690</ele>
        <time>2026-02-10T12:16:06.000Z</time>
      </trkpt>
      <trkpt lat="43.6173" lon="6.057">
        <ele>690</ele>
        <time>2026-02-10T12:16:06.000Z</time>
      </trkpt>
      <trkpt lat="43.6173" lon="6.057">
        <ele>690</ele>
        <time>2026-02-10T12:16:06.000Z</time>
      </trkpt>
      <trkpt lat="43.6173" lon="6.057">
        <ele>690</ele>
        <time>2026-02-10T12:16:06.000Z</time>
      </trkpt>
      <trkpt lat="43.6173" lon="6.057">
        <ele>690</ele>
        <time>2026-02-10T12:16:06.000Z</time>
      </trkpt>
      <trkpt lat="43.6173" lon="6.057">
        <ele>690</ele>
        <time>2026-02-10T12:16:06.000Z</time>
      </trkpt>
      <trkpt lat="43.6173" lon="6.057">
        <ele>690</ele>
        <time>2026-02-10T12:16:06.000Z</time>
      </trkpt>
      <trkpt lat="43.6173" lon="6.057">
        <ele>690</ele>
        <time>2026-02-10T12:16:06.000Z</time>
      </trkpt>
      <trkpt lat="43.6173" lon="6.057">
        <ele>690</ele>
        <time>2026-02-10T12:16:06.000Z</time>
      </trkpt>
      <trkpt lat="43.6173" lon="6.057">
        <ele>690</ele>
        <time>2026-02-10T12:16:06.000Z</time>
      </trkpt>
      <trkpt lat="43.6173" lon="6.057">
        <ele>690</ele>
        <time>2026-02-10T12:16:06.000Z</time>
      </trkpt>
      <trkpt lat="43.6173" lon="6.057">
        <ele>690</ele>
        <time>2026-02-10T12:16:06.000Z</time>
      </trkpt>
      <trkpt lat="43.61729" lon="6.057">
        <ele>690</ele>
        <time>2026-02-10T12:16:07.000Z</time>
      </trkpt>
      <trkpt lat="43.61729" lon="6.057">
        <ele>690</ele>
        <time>2026-02-10T12:16:07.000Z</time>
      </trkpt>
      <trkpt lat="43.61729" lon="6.057">
        <ele>690</ele>
        <time>2026-02-10T12:16:07.000Z</time>
      </trkpt>
      <trkpt lat="43.61729" lon="6.057">
        <ele>690</ele>
        <time>2026-02-10T12:16:07.000Z</time>
      </trkpt>
      <trkpt lat="43.61729" lon="6.057">
        <ele>690</ele>
        <time>2026-02-10T12:16:07.000Z</time>
      </trkpt>
      <trkpt lat="43.61729" lon="6.05699">
        <ele>690</ele>
        <time>2026-02-10T12:16:08.000Z</time>
      </trkpt>
      <trkpt lat="43.61729" lon="6.05699">
        <ele>690</ele>
        <time>2026-02-10T12:16:08.000Z</time>
      </trkpt>
      <trkpt lat="43.61729" lon="6.05699">
        <ele>690</ele>
        <time>2026-02-10T12:16:08.000Z</time>
      </trkpt>
      <trkpt lat="43.61729" lon="6.057">
        <ele>690</ele>
        <time>2026-02-10T12:16:09.000Z</time>
      </trkpt>
      <trkpt lat="43.61728" lon="6.057">
        <ele>690</ele>
        <time>2026-02-10T12:16:10.000Z</time>
      </trkpt>
      <trkpt lat="43.61728" lon="6.057">
        <ele>690</ele>
        <time>2026-02-10T12:16:10.000Z</time>
      </trkpt>
      <trkpt lat="43.61728" lon="6.057">
        <ele>690</ele>
        <time>2026-02-10T12:16:10.000Z</time>
      </trkpt>
      <trkpt lat="43.61728" lon="6.05699">
        <ele>690</ele>
        <time>2026-02-10T12:16:11.000Z</time>
      </trkpt>
      <trkpt lat="43.61729" lon="6.05699">
        <ele>690</ele>
        <time>2026-02-10T12:16:12.000Z</time>
      </trkpt>
      <trkpt lat="43.61729" lon="6.05699">
        <ele>690</ele>
        <time>2026-02-10T12:16:12.000Z</time>
      </trkpt>
      <trkpt lat="43.61729" lon="6.05699">
        <ele>690</ele>
        <time>2026-02-10T12:16:12.000Z</time>
      </trkpt>
      <trkpt lat="43.61729" lon="6.05699">
        <ele>690</ele>
        <time>2026-02-10T12:16:12.000Z</time>
      </trkpt>
      <trkpt lat="43.61729" lon="6.05699">
        <ele>690</ele>
        <time>2026-02-10T12:16:12.000Z</time>
      </trkpt>
      <trkpt lat="43.61729" lon="6.05699">
        <ele>690</ele>
        <time>2026-02-10T12:16:12.000Z</time>
      </trkpt>
      <trkpt lat="43.61729" lon="6.05699">
        <ele>690</ele>
        <time>2026-02-10T12:16:12.000Z</time>
      </trkpt>
      <trkpt lat="43.61729" lon="6.05699">
        <ele>690</ele>
        <time>2026-02-10T12:16:12.000Z</time>
      </trkpt>
      <trkpt lat="43.61729" lon="6.05699">
        <ele>690</ele>
        <time>2026-02-10T12:16:12.000Z</time>
      </trkpt>
      <trkpt lat="43.61729" lon="6.05698">
        <ele>690</ele>
        <time>2026-02-10T12:16:13.000Z</time>
      </trkpt>
      <trkpt lat="43.61728" lon="6.05698">
        <ele>690</ele>
        <time>2026-02-10T12:16:14.000Z</time>
      </trkpt>
      <trkpt lat="43.61728" lon="6.05698">
        <ele>690</ele>
        <time>2026-02-10T12:16:14.000Z</time>
      </trkpt>
      <trkpt lat="43.61728" lon="6.05698">
        <ele>690</ele>
        <time>2026-02-10T12:16:14.000Z</time>
      </trkpt>
      <trkpt lat="43.61728" lon="6.05698">
        <ele>690</ele>
        <time>2026-02-10T12:16:14.000Z</time>
      </trkpt>
      <trkpt lat="43.61728" lon="6.05698">
        <ele>690</ele>
        <time>2026-02-10T12:16:14.000Z</time>
      </trkpt>
      <trkpt lat="43.61728" lon="6.05698">
        <ele>690</ele>
        <time>2026-02-10T12:16:14.000Z</time>
      </trkpt>
      <trkpt lat="43.61728" lon="6.05698">
        <ele>690</ele>
        <time>2026-02-10T12:16:14.000Z</time>
      </trkpt>
      <trkpt lat="43.61728" lon="6.05698">
        <ele>690</ele>
        <time>2026-02-10T12:16:14.000Z</time>
      </trkpt>
      <trkpt lat="43.61728" lon="6.05698">
        <ele>690</ele>
        <time>2026-02-10T12:16:14.000Z</time>
      </trkpt>
      <trkpt lat="43.61728" lon="6.05697">
        <ele>690</ele>
        <time>2026-02-10T12:16:15.000Z</time>
      </trkpt>
      <trkpt lat="43.61728" lon="6.05697">
        <ele>690</ele>
        <time>2026-02-10T12:16:15.000Z</time>
      </trkpt>
      <trkpt lat="43.61728" lon="6.05697">
        <ele>690</ele>
        <time>2026-02-10T12:16:15.000Z</time>
      </trkpt>
      <trkpt lat="43.61728" lon="6.05697">
        <ele>690</ele>
        <time>2026-02-10T12:16:15.000Z</time>
      </trkpt>
      <trkpt lat="43.61728" lon="6.05696">
        <ele>690</ele>
        <time>2026-02-10T12:16:16.000Z</time>
      </trkpt>
      <trkpt lat="43.61728" lon="6.05696">
        <ele>690</ele>
        <time>2026-02-10T12:16:16.000Z</time>
      </trkpt>
      <trkpt lat="43.61729" lon="6.05697">
        <ele>690</ele>
        <time>2026-02-10T12:16:17.000Z</time>
      </trkpt>
      <trkpt lat="43.61729" lon="6.05697">
        <ele>690</ele>
        <time>2026-02-10T12:16:17.000Z</time>
      </trkpt>
      <trkpt lat="43.61729" lon="6.05697">
        <ele>690</ele>
        <time>2026-02-10T12:16:17.000Z</time>
      </trkpt>
      <trkpt lat="43.61729" lon="6.05697">
        <ele>690</ele>
        <time>2026-02-10T12:16:17.000Z</time>
      </trkpt>
      <trkpt lat="43.61729" lon="6.05697">
        <ele>690</ele>
        <time>2026-02-10T12:16:17.000Z</time>
      </trkpt>
      <trkpt lat="43.61728" lon="6.05697">
        <ele>690</ele>
        <time>2026-02-10T12:16:18.000Z</time>
      </trkpt>
      <trkpt lat="43.61728" lon="6.05697">
        <ele>690</ele>
        <time>2026-02-10T12:16:18.000Z</time>
      </trkpt>
      <trkpt lat="43.61728" lon="6.05697">
        <ele>690</ele>
        <time>2026-02-10T12:16:18.000Z</time>
      </trkpt>
      <trkpt lat="43.61728" lon="6.05697">
        <ele>690</ele>
        <time>2026-02-10T12:16:18.000Z</time>
      </trkpt>
      <trkpt lat="43.61728" lon="6.05697">
        <ele>690</ele>
        <time>2026-02-10T12:16:18.000Z</time>
      </trkpt>
      <trkpt lat="43.61728" lon="6.05697">
        <ele>690</ele>
        <time>2026-02-10T12:16:18.000Z</time>
      </trkpt>
      <trkpt lat="43.61728" lon="6.05697">
        <ele>690</ele>
        <time>2026-02-10T12:16:18.000Z</time>
      </trkpt>
      <trkpt lat="43.61728" lon="6.05697">
        <ele>690</ele>
        <time>2026-02-10T12:16:18.000Z</time>
      </trkpt>
      <trkpt lat="43.61728" lon="6.05697">
        <ele>690</ele>
        <time>2026-02-10T12:16:18.000Z</time>
      </trkpt>
      <trkpt lat="43.61728" lon="6.05697">
        <ele>690</ele>
        <time>2026-02-10T12:16:18.000Z</time>
      </trkpt>
      <trkpt lat="43.61728" lon="6.05697">
        <ele>690</ele>
        <time>2026-02-10T12:16:18.000Z</time>
      </trkpt>
      <trkpt lat="43.61728" lon="6.05697">
        <ele>690</ele>
        <time>2026-02-10T12:16:18.000Z</time>
      </trkpt>
      <trkpt lat="43.61728" lon="6.05697">
        <ele>690</ele>
        <time>2026-02-10T12:16:18.000Z</time>
      </trkpt>
      <trkpt lat="43.61728" lon="6.05697">
        <ele>690</ele>
        <time>2026-02-10T12:16:18.000Z</time>
      </trkpt>
      <trkpt lat="43.61728" lon="6.05697">
        <ele>690</ele>
        <time>2026-02-10T12:16:18.000Z</time>
      </trkpt>
      <trkpt lat="43.61728" lon="6.05697">
        <ele>690</ele>
        <time>2026-02-10T12:16:18.000Z</time>
      </trkpt>
      <trkpt lat="43.61728" lon="6.05697">
        <ele>690</ele>
        <time>2026-02-10T12:16:18.000Z</time>
      </trkpt>
      <trkpt lat="43.61728" lon="6.05697">
        <ele>690</ele>
        <time>2026-02-10T12:16:18.000Z</time>
      </trkpt>
      <trkpt lat="43.61728" lon="6.05698">
        <ele>690</ele>
        <time>2026-02-10T12:16:19.000Z</time>
      </trkpt>
      <trkpt lat="43.61728" lon="6.05698">
        <ele>690</ele>
        <time>2026-02-10T12:16:19.000Z</time>
      </trkpt>
      <trkpt lat="43.61728" lon="6.05698">
        <ele>690</ele>
        <time>2026-02-10T12:16:19.000Z</time>
      </trkpt>
      <trkpt lat="43.61729" lon="6.05697">
        <ele>690</ele>
        <time>2026-02-10T12:16:20.000Z</time>
      </trkpt>
      <trkpt lat="43.61728" lon="6.05697">
        <ele>690</ele>
        <time>2026-02-10T12:16:21.000Z</time>
      </trkpt>
      <trkpt lat="43.61727" lon="6.05696">
        <ele>690</ele>
        <time>2026-02-10T12:16:22.000Z</time>
      </trkpt>
      <trkpt lat="43.61727" lon="6.05696">
        <ele>690</ele>
        <time>2026-02-10T12:16:22.000Z</time>
      </trkpt>
      <trkpt lat="43.61727" lon="6.05696">
        <ele>690</ele>
        <time>2026-02-10T12:16:22.000Z</time>
      </trkpt>
      <trkpt lat="43.61727" lon="6.05695">
        <ele>690</ele>
        <time>2026-02-10T12:16:23.000Z</time>
      </trkpt>
      <trkpt lat="43.61727" lon="6.05695">
        <ele>690</ele>
        <time>2026-02-10T12:16:23.000Z</time>
      </trkpt>
      <trkpt lat="43.61727" lon="6.05695">
        <ele>690</ele>
        <time>2026-02-10T12:16:23.000Z</time>
      </trkpt>
      <trkpt lat="43.61727" lon="6.05695">
        <ele>690</ele>
        <time>2026-02-10T12:16:23.000Z</time>
      </trkpt>
      <trkpt lat="43.61727" lon="6.05695">
        <ele>690</ele>
        <time>2026-02-10T12:16:23.000Z</time>
      </trkpt>
      <trkpt lat="43.61728" lon="6.05695">
        <ele>690</ele>
        <time>2026-02-10T12:16:24.000Z</time>
      </trkpt>
      <trkpt lat="43.61728" lon="6.05696">
        <ele>690</ele>
        <time>2026-02-10T12:16:25.000Z</time>
      </trkpt>
      <trkpt lat="43.61728" lon="6.05696">
        <ele>690</ele>
        <time>2026-02-10T12:16:25.000Z</time>
      </trkpt>
      <trkpt lat="43.61728" lon="6.05696">
        <ele>690</ele>
        <time>2026-02-10T12:16:25.000Z</time>
      </trkpt>
      <trkpt lat="43.61728" lon="6.05696">
        <ele>690</ele>
        <time>2026-02-10T12:16:25.000Z</time>
      </trkpt>
      <trkpt lat="43.61728" lon="6.05696">
        <ele>690</ele>
        <time>2026-02-10T12:16:25.000Z</time>
      </trkpt>
      <trkpt lat="43.61728" lon="6.05696">
        <ele>690</ele>
        <time>2026-02-10T12:16:25.000Z</time>
      </trkpt>
      <trkpt lat="43.61728" lon="6.05696">
        <ele>690</ele>
        <time>2026-02-10T12:16:25.000Z</time>
      </trkpt>
      <trkpt lat="43.61728" lon="6.05696">
        <ele>690</ele>
        <time>2026-02-10T12:16:25.000Z</time>
      </trkpt>
      <trkpt lat="43.61728" lon="6.05696">
        <ele>690</ele>
        <time>2026-02-10T12:16:25.000Z</time>
      </trkpt>
      <trkpt lat="43.61728" lon="6.05696">
        <ele>690</ele>
        <time>2026-02-10T12:16:25.000Z</time>
      </trkpt>
      <trkpt lat="43.61728" lon="6.05696">
        <ele>690</ele>
        <time>2026-02-10T12:16:25.000Z</time>
      </trkpt>
      <trkpt lat="43.61728" lon="6.05697">
        <ele>690</ele>
        <time>2026-02-10T12:16:26.000Z</time>
      </trkpt>
      <trkpt lat="43.61729" lon="6.05697">
        <ele>690</ele>
        <time>2026-02-10T12:16:27.000Z</time>
      </trkpt>
      <trkpt lat="43.61729" lon="6.05697">
        <ele>690</ele>
        <time>2026-02-10T12:16:27.000Z</time>
      </trkpt>
      <trkpt lat="43.61729" lon="6.05697">
        <ele>690</ele>
        <time>2026-02-10T12:16:27.000Z</time>
      </trkpt>
      <trkpt lat="43.61729" lon="6.05697">
        <ele>690</ele>
        <time>2026-02-10T12:16:27.000Z</time>
      </trkpt>
      <trkpt lat="43.6173" lon="6.05698">
        <ele>690</ele>
        <time>2026-02-10T12:16:28.000Z</time>
      </trkpt>
      <trkpt lat="43.6173" lon="6.05698">
        <ele>690</ele>
        <time>2026-02-10T12:16:28.000Z</time>
      </trkpt>
      <trkpt lat="43.6173" lon="6.05698">
        <ele>690</ele>
        <time>2026-02-10T12:16:28.000Z</time>
      </trkpt>
      <trkpt lat="43.6173" lon="6.05698">
        <ele>690</ele>
        <time>2026-02-10T12:16:28.000Z</time>
      </trkpt>
      <trkpt lat="43.6173" lon="6.05698">
        <ele>690</ele>
        <time>2026-02-10T12:16:28.000Z</time>
      </trkpt>
      <trkpt lat="43.61729" lon="6.05698">
        <ele>690</ele>
        <time>2026-02-10T12:16:29.000Z</time>
      </trkpt>
      <trkpt lat="43.6173" lon="6.05698">
        <ele>690</ele>
        <time>2026-02-10T12:16:30.000Z</time>
      </trkpt>
      <trkpt lat="43.61729" lon="6.05698">
        <ele>690</ele>
        <time>2026-02-10T12:16:31.000Z</time>
      </trkpt>
      <trkpt lat="43.61729" lon="6.05698">
        <ele>690</ele>
        <time>2026-02-10T12:16:31.000Z</time>
      </trkpt>
      <trkpt lat="43.61729" lon="6.05698">
        <ele>690</ele>
        <time>2026-02-10T12:16:31.000Z</time>
      </trkpt>
      <trkpt lat="43.61728" lon="6.05698">
        <ele>690</ele>
        <time>2026-02-10T12:16:32.000Z</time>
      </trkpt>
      <trkpt lat="43.61728" lon="6.05698">
        <ele>690</ele>
        <time>2026-02-10T12:16:32.000Z</time>
      </trkpt>
      <trkpt lat="43.61728" lon="6.05698">
        <ele>690</ele>
        <time>2026-02-10T12:16:32.000Z</time>
      </trkpt>
      <trkpt lat="43.61728" lon="6.05698">
        <ele>690</ele>
        <time>2026-02-10T12:16:32.000Z</time>
      </trkpt>
      <trkpt lat="43.61728" lon="6.05698">
        <ele>690</ele>
        <time>2026-02-10T12:16:32.000Z</time>
      </trkpt>
      <trkpt lat="43.61727" lon="6.05698">
        <ele>690</ele>
        <time>2026-02-10T12:16:33.000Z</time>
      </trkpt>
      <trkpt lat="43.61727" lon="6.05698">
        <ele>690</ele>
        <time>2026-02-10T12:16:33.000Z</time>
      </trkpt>
      <trkpt lat="43.61727" lon="6.05698">
        <ele>690</ele>
        <time>2026-02-10T12:16:33.000Z</time>
      </trkpt>
      <trkpt lat="43.61727" lon="6.05698">
        <ele>690</ele>
        <time>2026-02-10T12:16:33.000Z</time>
      </trkpt>
      <trkpt lat="43.61727" lon="6.05697">
        <ele>690</ele>
        <time>2026-02-10T12:16:34.000Z</time>
      </trkpt>
      <trkpt lat="43.61727" lon="6.05697">
        <ele>690</ele>
        <time>2026-02-10T12:16:34.000Z</time>
      </trkpt>
      <trkpt lat="43.61727" lon="6.05697">
        <ele>690</ele>
        <time>2026-02-10T12:16:34.000Z</time>
      </trkpt>
      <trkpt lat="43.61727" lon="6.05697">
        <ele>690</ele>
        <time>2026-02-10T12:16:34.000Z</time>
      </trkpt>
      <trkpt lat="43.61727" lon="6.05698">
        <ele>690</ele>
        <time>2026-02-10T12:16:35.000Z</time>
      </trkpt>
      <trkpt lat="43.61727" lon="6.05698">
        <ele>690</ele>
        <time>2026-02-10T12:16:35.000Z</time>
      </trkpt>
      <trkpt lat="43.61727" lon="6.05698">
        <ele>690</ele>
        <time>2026-02-10T12:16:35.000Z</time>
      </trkpt>
      <trkpt lat="43.61727" lon="6.05698">
        <ele>690</ele>
        <time>2026-02-10T12:16:35.000Z</time>
      </trkpt>
      <trkpt lat="43.61727" lon="6.05698">
        <ele>690</ele>
        <time>2026-02-10T12:16:35.000Z</time>
      </trkpt>
      <trkpt lat="43.61727" lon="6.05698">
        <ele>690</ele>
        <time>2026-02-10T12:16:35.000Z</time>
      </trkpt>
      <trkpt lat="43.61728" lon="6.05698">
        <ele>690</ele>
        <time>2026-02-10T12:16:36.000Z</time>
      </trkpt>
      <trkpt lat="43.61728" lon="6.05698">
        <ele>690</ele>
        <time>2026-02-10T12:16:36.000Z</time>
      </trkpt>
      <trkpt lat="43.61728" lon="6.05698">
        <ele>690</ele>
        <time>2026-02-10T12:16:36.000Z</time>
      </trkpt>
      <trkpt lat="43.61728" lon="6.05698">
        <ele>690</ele>
        <time>2026-02-10T12:16:36.000Z</time>
      </trkpt>
      <trkpt lat="43.61728" lon="6.05698">
        <ele>690</ele>
        <time>2026-02-10T12:16:36.000Z</time>
      </trkpt>
      <trkpt lat="43.61728" lon="6.05698">
        <ele>690</ele>
        <time>2026-02-10T12:16:36.000Z</time>
      </trkpt>
      <trkpt lat="43.61728" lon="6.05698">
        <ele>690</ele>
        <time>2026-02-10T12:16:36.000Z</time>
      </trkpt>
      <trkpt lat="43.61728" lon="6.05698">
        <ele>690</ele>
        <time>2026-02-10T12:16:36.000Z</time>
      </trkpt>
      <trkpt lat="43.61728" lon="6.05698">
        <ele>690</ele>
        <time>2026-02-10T12:16:36.000Z</time>
      </trkpt>
      <trkpt lat="43.61728" lon="6.05698">
        <ele>690</ele>
        <time>2026-02-10T12:16:36.000Z</time>
      </trkpt>
      <trkpt lat="43.61728" lon="6.05698">
        <ele>690</ele>
        <time>2026-02-10T12:16:36.000Z</time>
      </trkpt>
      <trkpt lat="43.61728" lon="6.05698">
        <ele>690</ele>
        <time>2026-02-10T12:16:36.000Z</time>
      </trkpt>
      <trkpt lat="43.61728" lon="6.05698">
        <ele>690</ele>
        <time>2026-02-10T12:16:36.000Z</time>
      </trkpt>
      <trkpt lat="43.61728" lon="6.05698">
        <ele>690</ele>
        <time>2026-02-10T12:16:36.000Z</time>
      </trkpt>
      <trkpt lat="43.61728" lon="6.05698">
        <ele>690</ele>
        <time>2026-02-10T12:16:36.000Z</time>
      </trkpt>
      <trkpt lat="43.61728" lon="6.05699">
        <ele>690</ele>
        <time>2026-02-10T12:16:37.000Z</time>
      </trkpt>
      <trkpt lat="43.61728" lon="6.05699">
        <ele>690</ele>
        <time>2026-02-10T12:16:37.000Z</time>
      </trkpt>
      <trkpt lat="43.61729" lon="6.05699">
        <ele>690</ele>
        <time>2026-02-10T12:16:38.000Z</time>
      </trkpt>
      <trkpt lat="43.61729" lon="6.05699">
        <ele>690</ele>
        <time>2026-02-10T12:16:38.000Z</time>
      </trkpt>
      <trkpt lat="43.61729" lon="6.05699">
        <ele>690</ele>
        <time>2026-02-10T12:16:38.000Z</time>
      </trkpt>
      <trkpt lat="43.61729" lon="6.05699">
        <ele>690</ele>
        <time>2026-02-10T12:16:38.000Z</time>
      </trkpt>
      <trkpt lat="43.61729" lon="6.05699">
        <ele>690</ele>
        <time>2026-02-10T12:16:38.000Z</time>
      </trkpt>
      <trkpt lat="43.61729" lon="6.05699">
        <ele>690</ele>
        <time>2026-02-10T12:16:38.000Z</time>
      </trkpt>
      <trkpt lat="43.61729" lon="6.05699">
        <ele>690</ele>
        <time>2026-02-10T12:16:38.000Z</time>
      </trkpt>
      <trkpt lat="43.61729" lon="6.05699">
        <ele>690</ele>
        <time>2026-02-10T12:16:38.000Z</time>
      </trkpt>
      <trkpt lat="43.61729" lon="6.05699">
        <ele>690</ele>
        <time>2026-02-10T12:16:38.000Z</time>
      </trkpt>
      <trkpt lat="43.61729" lon="6.05699">
        <ele>690</ele>
        <time>2026-02-10T12:16:38.000Z</time>
      </trkpt>
      <trkpt lat="43.61729" lon="6.05699">
        <ele>690</ele>
        <time>2026-02-10T12:16:38.000Z</time>
      </trkpt>
      <trkpt lat="43.61729" lon="6.05699">
        <ele>690</ele>
        <time>2026-02-10T12:16:38.000Z</time>
      </trkpt>
      <trkpt lat="43.61729" lon="6.05699">
        <ele>690</ele>
        <time>2026-02-10T12:16:38.000Z</time>
      </trkpt>
      <trkpt lat="43.61729" lon="6.05699">
        <ele>690</ele>
        <time>2026-02-10T12:16:38.000Z</time>
      </trkpt>
      <trkpt lat="43.61729" lon="6.05699">
        <ele>690</ele>
        <time>2026-02-10T12:16:38.000Z</time>
      </trkpt>
      <trkpt lat="43.61729" lon="6.05699">
        <ele>690</ele>
        <time>2026-02-10T12:16:38.000Z</time>
      </trkpt>
      <trkpt lat="43.61729" lon="6.05699">
        <ele>690</ele>
        <time>2026-02-10T12:16:38.000Z</time>
      </trkpt>
      <trkpt lat="43.61729" lon="6.05699">
        <ele>690</ele>
        <time>2026-02-10T12:16:38.000Z</time>
      </trkpt>
      <trkpt lat="43.6173" lon="6.05699">
        <ele>690</ele>
        <time>2026-02-10T12:16:39.000Z</time>
      </trkpt>
      <trkpt lat="43.6173" lon="6.05699">
        <ele>690</ele>
        <time>2026-02-10T12:16:39.000Z</time>
      </trkpt>
      <trkpt lat="43.6173" lon="6.05699">
        <ele>690</ele>
        <time>2026-02-10T12:16:39.000Z</time>
      </trkpt>
      <trkpt lat="43.6173" lon="6.057">
        <ele>690</ele>
        <time>2026-02-10T12:16:40.000Z</time>
      </trkpt>
      <trkpt lat="43.6173" lon="6.057">
        <ele>690</ele>
        <time>2026-02-10T12:16:40.000Z</time>
      </trkpt>
      <trkpt lat="43.6173" lon="6.057">
        <ele>690</ele>
        <time>2026-02-10T12:16:40.000Z</time>
      </trkpt>
      <trkpt lat="43.6173" lon="6.057">
        <ele>690</ele>
        <time>2026-02-10T12:16:40.000Z</time>
      </trkpt>
      <trkpt lat="43.61731" lon="6.05699">
        <ele>690</ele>
        <time>2026-02-10T12:16:41.000Z</time>
      </trkpt>
      <trkpt lat="43.61731" lon="6.05699">
        <ele>690</ele>
        <time>2026-02-10T12:16:41.000Z</time>
      </trkpt>
      <trkpt lat="43.61731" lon="6.05699">
        <ele>690</ele>
        <time>2026-02-10T12:16:41.000Z</time>
      </trkpt>
      <trkpt lat="43.61731" lon="6.05699">
        <ele>690</ele>
        <time>2026-02-10T12:16:41.000Z</time>
      </trkpt>
      <trkpt lat="43.61731" lon="6.05699">
        <ele>690</ele>
        <time>2026-02-10T12:16:41.000Z</time>
      </trkpt>
      <trkpt lat="43.61731" lon="6.05699">
        <ele>690</ele>
        <time>2026-02-10T12:16:41.000Z</time>
      </trkpt>
      <trkpt lat="43.61731" lon="6.05699">
        <ele>690</ele>
        <time>2026-02-10T12:16:41.000Z</time>
      </trkpt>
      <trkpt lat="43.61731" lon="6.05699">
        <ele>690</ele>
        <time>2026-02-10T12:16:41.000Z</time>
      </trkpt>
      <trkpt lat="43.61731" lon="6.05699">
        <ele>690</ele>
        <time>2026-02-10T12:16:41.000Z</time>
      </trkpt>
      <trkpt lat="43.61731" lon="6.05699">
        <ele>690</ele>
        <time>2026-02-10T12:16:41.000Z</time>
      </trkpt>
      <trkpt lat="43.61731" lon="6.05699">
        <ele>690</ele>
        <time>2026-02-10T12:16:41.000Z</time>
      </trkpt>
      <trkpt lat="43.61731" lon="6.057">
        <ele>690</ele>
        <time>2026-02-10T12:16:42.000Z</time>
      </trkpt>
      <trkpt lat="43.61731" lon="6.057">
        <ele>690</ele>
        <time>2026-02-10T12:16:42.000Z</time>
      </trkpt>
      <trkpt lat="43.61731" lon="6.057">
        <ele>690</ele>
        <time>2026-02-10T12:16:42.000Z</time>
      </trkpt>
      <trkpt lat="43.61731" lon="6.057">
        <ele>690</ele>
        <time>2026-02-10T12:16:42.000Z</time>
      </trkpt>
      <trkpt lat="43.61731" lon="6.057">
        <ele>690</ele>
        <time>2026-02-10T12:16:42.000Z</time>
      </trkpt>
      <trkpt lat="43.61731" lon="6.057">
        <ele>690</ele>
        <time>2026-02-10T12:16:42.000Z</time>
      </trkpt>
      <trkpt lat="43.61732" lon="6.057">
        <ele>690</ele>
        <time>2026-02-10T12:16:43.000Z</time>
      </trkpt>
      <trkpt lat="43.61732" lon="6.057">
        <ele>690</ele>
        <time>2026-02-10T12:16:43.000Z</time>
      </trkpt>
      <trkpt lat="43.61731" lon="6.057">
        <ele>690</ele>
        <time>2026-02-10T12:16:44.000Z</time>
      </trkpt>
      <trkpt lat="43.61731" lon="6.057">
        <ele>690</ele>
        <time>2026-02-10T12:16:44.000Z</time>
      </trkpt>
      <trkpt lat="43.61731" lon="6.057">
        <ele>690</ele>
        <time>2026-02-10T12:16:44.000Z</time>
      </trkpt>
      <trkpt lat="43.61731" lon="6.057">
        <ele>690</ele>
        <time>2026-02-10T12:16:44.000Z</time>
      </trkpt>
      <trkpt lat="43.61731" lon="6.057">
        <ele>690</ele>
        <time>2026-02-10T12:16:44.000Z</time>
      </trkpt>
      <trkpt lat="43.61731" lon="6.057">
        <ele>690</ele>
        <time>2026-02-10T12:16:44.000Z</time>
      </trkpt>
      <trkpt lat="43.6173" lon="6.057">
        <ele>690</ele>
        <time>2026-02-10T12:16:45.000Z</time>
      </trkpt>
      <trkpt lat="43.6173" lon="6.057">
        <ele>690</ele>
        <time>2026-02-10T12:16:45.000Z</time>
      </trkpt>
      <trkpt lat="43.6173" lon="6.057">
        <ele>690</ele>
        <time>2026-02-10T12:16:45.000Z</time>
      </trkpt>
      <trkpt lat="43.6173" lon="6.057">
        <ele>690</ele>
        <time>2026-02-10T12:16:45.000Z</time>
      </trkpt>
      <trkpt lat="43.6173" lon="6.057">
        <ele>690</ele>
        <time>2026-02-10T12:16:45.000Z</time>
      </trkpt>
      <trkpt lat="43.61729" lon="6.057">
        <ele>690</ele>
        <time>2026-02-10T12:16:46.000Z</time>
      </trkpt>
      <trkpt lat="43.61729" lon="6.057">
        <ele>690</ele>
        <time>2026-02-10T12:16:46.000Z</time>
      </trkpt>
      <trkpt lat="43.61729" lon="6.057">
        <ele>690</ele>
        <time>2026-02-10T12:16:46.000Z</time>
      </trkpt>
      <trkpt lat="43.61729" lon="6.057">
        <ele>690</ele>
        <time>2026-02-10T12:16:46.000Z</time>
      </trkpt>
      <trkpt lat="43.61729" lon="6.057">
        <ele>690</ele>
        <time>2026-02-10T12:16:46.000Z</time>
      </trkpt>
      <trkpt lat="43.61729" lon="6.057">
        <ele>690</ele>
        <time>2026-02-10T12:16:46.000Z</time>
      </trkpt>
      <trkpt lat="43.61729" lon="6.05701">
        <ele>690</ele>
        <time>2026-02-10T12:16:47.000Z</time>
      </trkpt>
      <trkpt lat="43.6173" lon="6.057">
        <ele>690</ele>
        <time>2026-02-10T12:16:48.000Z</time>
      </trkpt>
      <trkpt lat="43.6173" lon="6.057">
        <ele>690</ele>
        <time>2026-02-10T12:16:48.000Z</time>
      </trkpt>
      <trkpt lat="43.61729" lon="6.057">
        <ele>690</ele>
        <time>2026-02-10T12:16:49.000Z</time>
      </trkpt>
      <trkpt lat="43.61729" lon="6.057">
        <ele>690</ele>
        <time>2026-02-10T12:16:49.000Z</time>
      </trkpt>
      <trkpt lat="43.61729" lon="6.057">
        <ele>690</ele>
        <time>2026-02-10T12:16:49.000Z</time>
      </trkpt>
      <trkpt lat="43.61729" lon="6.057">
        <ele>690</ele>
        <time>2026-02-10T12:16:49.000Z</time>
      </trkpt>
      <trkpt lat="43.61729" lon="6.05699">
        <ele>690</ele>
        <time>2026-02-10T12:16:50.000Z</time>
      </trkpt>
      <trkpt lat="43.61729" lon="6.05699">
        <ele>690</ele>
        <time>2026-02-10T12:16:50.000Z</time>
      </trkpt>
      <trkpt lat="43.61729" lon="6.05699">
        <ele>690</ele>
        <time>2026-02-10T12:16:50.000Z</time>
      </trkpt>
      <trkpt lat="43.61728" lon="6.05699">
        <ele>690</ele>
        <time>2026-02-10T12:16:51.000Z</time>
      </trkpt>
      <trkpt lat="43.61728" lon="6.05699">
        <ele>690</ele>
        <time>2026-02-10T12:16:51.000Z</time>
      </trkpt>
      <trkpt lat="43.61728" lon="6.05699">
        <ele>690</ele>
        <time>2026-02-10T12:16:51.000Z</time>
      </trkpt>
      <trkpt lat="43.61728" lon="6.05698">
        <ele>690</ele>
        <time>2026-02-10T12:16:52.000Z</time>
      </trkpt>
      <trkpt lat="43.61728" lon="6.05698">
        <ele>690</ele>
        <time>2026-02-10T12:16:52.000Z</time>
      </trkpt>
      <trkpt lat="43.61728" lon="6.05698">
        <ele>690</ele>
        <time>2026-02-10T12:16:52.000Z</time>
      </trkpt>
      <trkpt lat="43.61727" lon="6.05698">
        <ele>690</ele>
        <time>2026-02-10T12:16:53.000Z</time>
      </trkpt>
      <trkpt lat="43.61727" lon="6.05698">
        <ele>690</ele>
        <time>2026-02-10T12:16:53.000Z</time>
      </trkpt>
      <trkpt lat="43.61727" lon="6.05698">
        <ele>690</ele>
        <time>2026-02-10T12:16:53.000Z</time>
      </trkpt>
      <trkpt lat="43.61727" lon="6.05698">
        <ele>690</ele>
        <time>2026-02-10T12:16:53.000Z</time>
      </trkpt>
      <trkpt lat="43.61727" lon="6.05698">
        <ele>690</ele>
        <time>2026-02-10T12:16:53.000Z</time>
      </trkpt>
      <trkpt lat="43.61727" lon="6.05697">
        <ele>690</ele>
        <time>2026-02-10T12:16:54.000Z</time>
      </trkpt>
      <trkpt lat="43.61727" lon="6.05697">
        <ele>690</ele>
        <time>2026-02-10T12:16:54.000Z</time>
      </trkpt>
      <trkpt lat="43.61727" lon="6.05698">
        <ele>690</ele>
        <time>2026-02-10T12:16:55.000Z</time>
      </trkpt>
      <trkpt lat="43.61726" lon="6.05698">
        <ele>690</ele>
        <time>2026-02-10T12:16:56.000Z</time>
      </trkpt>
      <trkpt lat="43.61727" lon="6.05698">
        <ele>690</ele>
        <time>2026-02-10T12:16:57.000Z</time>
      </trkpt>
      <trkpt lat="43.61726" lon="6.05698">
        <ele>690</ele>
        <time>2026-02-10T12:16:58.000Z</time>
      </trkpt>
      <trkpt lat="43.61726" lon="6.05698">
        <ele>690</ele>
        <time>2026-02-10T12:16:58.000Z</time>
      </trkpt>
      <trkpt lat="43.61726" lon="6.05698">
        <ele>690</ele>
        <time>2026-02-10T12:16:58.000Z</time>
      </trkpt>
      <trkpt lat="43.61725" lon="6.05699">
        <ele>690</ele>
        <time>2026-02-10T12:16:59.000Z</time>
      </trkpt>
      <trkpt lat="43.61725" lon="6.05699">
        <ele>690</ele>
        <time>2026-02-10T12:16:59.000Z</time>
      </trkpt>
      <trkpt lat="43.61725" lon="6.05699">
        <ele>690</ele>
        <time>2026-02-10T12:16:59.000Z</time>
      </trkpt>
      <trkpt lat="43.61725" lon="6.05699">
        <ele>690</ele>
        <time>2026-02-10T12:16:59.000Z</time>
      </trkpt>
      <trkpt lat="43.61725" lon="6.05699">
        <ele>690</ele>
        <time>2026-02-10T12:16:59.000Z</time>
      </trkpt>
      <trkpt lat="43.61725" lon="6.05699">
        <ele>690</ele>
        <time>2026-02-10T12:16:59.000Z</time>
      </trkpt>
      <trkpt lat="43.61725" lon="6.05699">
        <ele>690</ele>
        <time>2026-02-10T12:16:59.000Z</time>
      </trkpt>
      <trkpt lat="43.61725" lon="6.05699">
        <ele>690</ele>
        <time>2026-02-10T12:16:59.000Z</time>
      </trkpt>
      <trkpt lat="43.61725" lon="6.057">
        <ele>690</ele>
        <time>2026-02-10T12:17:00.000Z</time>
      </trkpt>
      <trkpt lat="43.61725" lon="6.057">
        <ele>690</ele>
        <time>2026-02-10T12:17:00.000Z</time>
      </trkpt>
      <trkpt lat="43.61725" lon="6.057">
        <ele>690</ele>
        <time>2026-02-10T12:17:00.000Z</time>
      </trkpt>
      <trkpt lat="43.61725" lon="6.057">
        <ele>690</ele>
        <time>2026-02-10T12:17:00.000Z</time>
      </trkpt>
      <trkpt lat="43.61725" lon="6.057">
        <ele>690</ele>
        <time>2026-02-10T12:17:00.000Z</time>
      </trkpt>
      <trkpt lat="43.61725" lon="6.057">
        <ele>690</ele>
        <time>2026-02-10T12:17:00.000Z</time>
      </trkpt>
      <trkpt lat="43.61725" lon="6.057">
        <ele>690</ele>
        <time>2026-02-10T12:17:00.000Z</time>
      </trkpt>
      <trkpt lat="43.61724" lon="6.057">
        <ele>690</ele>
        <time>2026-02-10T12:17:01.000Z</time>
      </trkpt>
      <trkpt lat="43.61724" lon="6.057">
        <ele>690</ele>
        <time>2026-02-10T12:17:01.000Z</time>
      </trkpt>
      <trkpt lat="43.61724" lon="6.057">
        <ele>690</ele>
        <time>2026-02-10T12:17:01.000Z</time>
      </trkpt>
      <trkpt lat="43.61724" lon="6.057">
        <ele>690</ele>
        <time>2026-02-10T12:17:01.000Z</time>
      </trkpt>
      <trkpt lat="43.61724" lon="6.057">
        <ele>690</ele>
        <time>2026-02-10T12:17:01.000Z</time>
      </trkpt>
      <trkpt lat="43.61724" lon="6.057">
        <ele>690</ele>
        <time>2026-02-10T12:17:01.000Z</time>
      </trkpt>
      <trkpt lat="43.61724" lon="6.057">
        <ele>690</ele>
        <time>2026-02-10T12:17:01.000Z</time>
      </trkpt>
      <trkpt lat="43.61724" lon="6.057">
        <ele>690</ele>
        <time>2026-02-10T12:17:01.000Z</time>
      </trkpt>
      <trkpt lat="43.61724" lon="6.057">
        <ele>690</ele>
        <time>2026-02-10T12:17:01.000Z</time>
      </trkpt>
      <trkpt lat="43.61724" lon="6.057">
        <ele>690</ele>
        <time>2026-02-10T12:17:01.000Z</time>
      </trkpt>
      <trkpt lat="43.61724" lon="6.057">
        <ele>690</ele>
        <time>2026-02-10T12:17:01.000Z</time>
      </trkpt>
      <trkpt lat="43.61723" lon="6.057">
        <ele>690</ele>
        <time>2026-02-10T12:17:02.000Z</time>
      </trkpt>
      <trkpt lat="43.61723" lon="6.057">
        <ele>690</ele>
        <time>2026-02-10T12:17:02.000Z</time>
      </trkpt>
      <trkpt lat="43.61723" lon="6.057">
        <ele>690</ele>
        <time>2026-02-10T12:17:02.000Z</time>
      </trkpt>
      <trkpt lat="43.61723" lon="6.057">
        <ele>690</ele>
        <time>2026-02-10T12:17:02.000Z</time>
      </trkpt>
      <trkpt lat="43.61723" lon="6.057">
        <ele>690</ele>
        <time>2026-02-10T12:17:02.000Z</time>
      </trkpt>
      <trkpt lat="43.61723" lon="6.057">
        <ele>690</ele>
        <time>2026-02-10T12:17:02.000Z</time>
      </trkpt>
      <trkpt lat="43.61723" lon="6.057">
        <ele>690</ele>
        <time>2026-02-10T12:17:02.000Z</time>
      </trkpt>
      <trkpt lat="43.61723" lon="6.05699">
        <ele>690</ele>
        <time>2026-02-10T12:17:03.000Z</time>
      </trkpt>
      <trkpt lat="43.61723" lon="6.05699">
        <ele>690</ele>
        <time>2026-02-10T12:17:03.000Z</time>
      </trkpt>
      <trkpt lat="43.61723" lon="6.05699">
        <ele>690</ele>
        <time>2026-02-10T12:17:03.000Z</time>
      </trkpt>
      <trkpt lat="43.61723" lon="6.05699">
        <ele>690</ele>
        <time>2026-02-10T12:17:03.000Z</time>
      </trkpt>
      <trkpt lat="43.61723" lon="6.05699">
        <ele>690</ele>
        <time>2026-02-10T12:17:03.000Z</time>
      </trkpt>
      <trkpt lat="43.61723" lon="6.05699">
        <ele>690</ele>
        <time>2026-02-10T12:17:03.000Z</time>
      </trkpt>
      <trkpt lat="43.61723" lon="6.05699">
        <ele>690</ele>
        <time>2026-02-10T12:17:03.000Z</time>
      </trkpt>
      <trkpt lat="43.61722" lon="6.05699">
        <ele>690</ele>
        <time>2026-02-10T12:17:04.000Z</time>
      </trkpt>
      <trkpt lat="43.61722" lon="6.05699">
        <ele>690</ele>
        <time>2026-02-10T12:17:04.000Z</time>
      </trkpt>
      <trkpt lat="43.61722" lon="6.05699">
        <ele>690</ele>
        <time>2026-02-10T12:17:04.000Z</time>
      </trkpt>
      <trkpt lat="43.61722" lon="6.05699">
        <ele>690</ele>
        <time>2026-02-10T12:17:04.000Z</time>
      </trkpt>
      <trkpt lat="43.61722" lon="6.05698">
        <ele>690</ele>
        <time>2026-02-10T12:17:05.000Z</time>
      </trkpt>
      <trkpt lat="43.61722" lon="6.05698">
        <ele>690</ele>
        <time>2026-02-10T12:17:05.000Z</time>
      </trkpt>
      <trkpt lat="43.61722" lon="6.05698">
        <ele>690</ele>
        <time>2026-02-10T12:17:05.000Z</time>
      </trkpt>
      <trkpt lat="43.61722" lon="6.05698">
        <ele>690</ele>
        <time>2026-02-10T12:17:05.000Z</time>
      </trkpt>
      <trkpt lat="43.61722" lon="6.05698">
        <ele>690</ele>
        <time>2026-02-10T12:17:05.000Z</time>
      </trkpt>
      <trkpt lat="43.61722" lon="6.05698">
        <ele>690</ele>
        <time>2026-02-10T12:17:05.000Z</time>
      </trkpt>
      <trkpt lat="43.61723" lon="6.05698">
        <ele>690</ele>
        <time>2026-02-10T12:17:06.000Z</time>
      </trkpt>
      <trkpt lat="43.61723" lon="6.05698">
        <ele>690</ele>
        <time>2026-02-10T12:17:06.000Z</time>
      </trkpt>
      <trkpt lat="43.61723" lon="6.05698">
        <ele>690</ele>
        <time>2026-02-10T12:17:06.000Z</time>
      </trkpt>
      <trkpt lat="43.61723" lon="6.05698">
        <ele>690</ele>
        <time>2026-02-10T12:17:06.000Z</time>
      </trkpt>
      <trkpt lat="43.61723" lon="6.05698">
        <ele>690</ele>
        <time>2026-02-10T12:17:06.000Z</time>
      </trkpt>
      <trkpt lat="43.61723" lon="6.05698">
        <ele>690</ele>
        <time>2026-02-10T12:17:06.000Z</time>
      </trkpt>
      <trkpt lat="43.61723" lon="6.05699">
        <ele>690</ele>
        <time>2026-02-10T12:17:07.000Z</time>
      </trkpt>
      <trkpt lat="43.61723" lon="6.05699">
        <ele>690</ele>
        <time>2026-02-10T12:17:07.000Z</time>
      </trkpt>
      <trkpt lat="43.61723" lon="6.05699">
        <ele>690</ele>
        <time>2026-02-10T12:17:07.000Z</time>
      </trkpt>
      <trkpt lat="43.61724" lon="6.05699">
        <ele>690</ele>
        <time>2026-02-10T12:17:08.000Z</time>
      </trkpt>
      <trkpt lat="43.61724" lon="6.05699">
        <ele>690</ele>
        <time>2026-02-10T12:17:08.000Z</time>
      </trkpt>
      <trkpt lat="43.61725" lon="6.05699">
        <ele>690</ele>
        <time>2026-02-10T12:17:09.000Z</time>
      </trkpt>
      <trkpt lat="43.61725" lon="6.057">
        <ele>690</ele>
        <time>2026-02-10T12:17:10.000Z</time>
      </trkpt>
      <trkpt lat="43.61726" lon="6.057">
        <ele>690</ele>
        <time>2026-02-10T12:17:11.000Z</time>
      </trkpt>
      <trkpt lat="43.61726" lon="6.057">
        <ele>690</ele>
        <time>2026-02-10T12:17:11.000Z</time>
      </trkpt>
      <trkpt lat="43.61726" lon="6.057">
        <ele>690</ele>
        <time>2026-02-10T12:17:11.000Z</time>
      </trkpt>
      <trkpt lat="43.61726" lon="6.057">
        <ele>690</ele>
        <time>2026-02-10T12:17:11.000Z</time>
      </trkpt>
      <trkpt lat="43.61726" lon="6.057">
        <ele>690</ele>
        <time>2026-02-10T12:17:11.000Z</time>
      </trkpt>
      <trkpt lat="43.61726" lon="6.057">
        <ele>690</ele>
        <time>2026-02-10T12:17:11.000Z</time>
      </trkpt>
      <trkpt lat="43.61726" lon="6.05699">
        <ele>690</ele>
        <time>2026-02-10T12:17:12.000Z</time>
      </trkpt>
      <trkpt lat="43.61726" lon="6.05699">
        <ele>690</ele>
        <time>2026-02-10T12:17:12.000Z</time>
      </trkpt>
      <trkpt lat="43.61726" lon="6.05698">
        <ele>690</ele>
        <time>2026-02-10T12:17:13.000Z</time>
      </trkpt>
      <trkpt lat="43.61726" lon="6.05699">
        <ele>690</ele>
        <time>2026-02-10T12:17:14.000Z</time>
      </trkpt>
      <trkpt lat="43.61725" lon="6.05699">
        <ele>690</ele>
        <time>2026-02-10T12:17:15.000Z</time>
      </trkpt>
      <trkpt lat="43.61725" lon="6.05699">
        <ele>690</ele>
        <time>2026-02-10T12:17:15.000Z</time>
      </trkpt>
      <trkpt lat="43.61725" lon="6.05699">
        <ele>690</ele>
        <time>2026-02-10T12:17:15.000Z</time>
      </trkpt>
      <trkpt lat="43.61725" lon="6.05699">
        <ele>690</ele>
        <time>2026-02-10T12:17:15.000Z</time>
      </trkpt>
      <trkpt lat="43.61725" lon="6.057">
        <ele>690</ele>
        <time>2026-02-10T12:17:16.000Z</time>
      </trkpt>
      <trkpt lat="43.61725" lon="6.05699">
        <ele>690</ele>
        <time>2026-02-10T12:17:17.000Z</time>
      </trkpt>
      <trkpt lat="43.61725" lon="6.057">
        <ele>690</ele>
        <time>2026-02-10T12:17:18.000Z</time>
      </trkpt>
      <trkpt lat="43.61725" lon="6.057">
        <ele>690</ele>
        <time>2026-02-10T12:17:18.000Z</time>
      </trkpt>
      <trkpt lat="43.61725" lon="6.05699">
        <ele>690</ele>
        <time>2026-02-10T12:17:19.000Z</time>
      </trkpt>
      <trkpt lat="43.61725" lon="6.05699">
        <ele>690</ele>
        <time>2026-02-10T12:17:19.000Z</time>
      </trkpt>
      <trkpt lat="43.61725" lon="6.05699">
        <ele>690</ele>
        <time>2026-02-10T12:17:19.000Z</time>
      </trkpt>
      <trkpt lat="43.61725" lon="6.05699">
        <ele>690</ele>
        <time>2026-02-10T12:17:19.000Z</time>
      </trkpt>
      <trkpt lat="43.61725" lon="6.05699">
        <ele>690</ele>
        <time>2026-02-10T12:17:19.000Z</time>
      </trkpt>
      <trkpt lat="43.61725" lon="6.05699">
        <ele>690</ele>
        <time>2026-02-10T12:17:19.000Z</time>
      </trkpt>
      <trkpt lat="43.61725" lon="6.05699">
        <ele>690</ele>
        <time>2026-02-10T12:17:19.000Z</time>
      </trkpt>
      <trkpt lat="43.61725" lon="6.05699">
        <ele>690</ele>
        <time>2026-02-10T12:17:19.000Z</time>
      </trkpt>
      <trkpt lat="43.61725" lon="6.05699">
        <ele>690</ele>
        <time>2026-02-10T12:17:19.000Z</time>
      </trkpt>
      <trkpt lat="43.61725" lon="6.05699">
        <ele>690</ele>
        <time>2026-02-10T12:17:19.000Z</time>
      </trkpt>
      <trkpt lat="43.61725" lon="6.057">
        <ele>690</ele>
        <time>2026-02-10T12:17:20.000Z</time>
      </trkpt>
      <trkpt lat="43.61725" lon="6.057">
        <ele>690</ele>
        <time>2026-02-10T12:17:20.000Z</time>
      </trkpt>
      <trkpt lat="43.61725" lon="6.057">
        <ele>690</ele>
        <time>2026-02-10T12:17:20.000Z</time>
      </trkpt>
      <trkpt lat="43.61725" lon="6.057">
        <ele>690</ele>
        <time>2026-02-10T12:17:20.000Z</time>
      </trkpt>
      <trkpt lat="43.61725" lon="6.057">
        <ele>690</ele>
        <time>2026-02-10T12:17:20.000Z</time>
      </trkpt>
      <trkpt lat="43.61726" lon="6.05699">
        <ele>690</ele>
        <time>2026-02-10T12:17:21.000Z</time>
      </trkpt>
      <trkpt lat="43.61725" lon="6.05699">
        <ele>690</ele>
        <time>2026-02-10T12:17:22.000Z</time>
      </trkpt>
      <trkpt lat="43.61725" lon="6.05698">
        <ele>690</ele>
        <time>2026-02-10T12:17:23.000Z</time>
      </trkpt>
      <trkpt lat="43.61725" lon="6.05697">
        <ele>690</ele>
        <time>2026-02-10T12:17:24.000Z</time>
      </trkpt>
      <trkpt lat="43.61726" lon="6.05697">
        <ele>690</ele>
        <time>2026-02-10T12:17:25.000Z</time>
      </trkpt>
      <trkpt lat="43.61726" lon="6.05697">
        <ele>690</ele>
        <time>2026-02-10T12:17:25.000Z</time>
      </trkpt>
      <trkpt lat="43.61726" lon="6.05697">
        <ele>690</ele>
        <time>2026-02-10T12:17:25.000Z</time>
      </trkpt>
      <trkpt lat="43.61726" lon="6.05698">
        <ele>690</ele>
        <time>2026-02-10T12:17:26.000Z</time>
      </trkpt>
      <trkpt lat="43.61726" lon="6.05698">
        <ele>690</ele>
        <time>2026-02-10T12:17:26.000Z</time>
      </trkpt>
      <trkpt lat="43.61725" lon="6.05698">
        <ele>690</ele>
        <time>2026-02-10T12:17:27.000Z</time>
      </trkpt>
      <trkpt lat="43.61725" lon="6.05698">
        <ele>690</ele>
        <time>2026-02-10T12:17:27.000Z</time>
      </trkpt>
      <trkpt lat="43.61725" lon="6.05698">
        <ele>690</ele>
        <time>2026-02-10T12:17:27.000Z</time>
      </trkpt>
      <trkpt lat="43.61725" lon="6.05698">
        <ele>690</ele>
        <time>2026-02-10T12:17:27.000Z</time>
      </trkpt>
      <trkpt lat="43.61725" lon="6.05698">
        <ele>690</ele>
        <time>2026-02-10T12:17:27.000Z</time>
      </trkpt>
      <trkpt lat="43.61725" lon="6.05698">
        <ele>690</ele>
        <time>2026-02-10T12:17:27.000Z</time>
      </trkpt>
      <trkpt lat="43.61725" lon="6.05698">
        <ele>690</ele>
        <time>2026-02-10T12:17:27.000Z</time>
      </trkpt>
      <trkpt lat="43.61726" lon="6.05698">
        <ele>690</ele>
        <time>2026-02-10T12:17:28.000Z</time>
      </trkpt>
      <trkpt lat="43.61726" lon="6.05699">
        <ele>690</ele>
        <time>2026-02-10T12:17:29.000Z</time>
      </trkpt>
      <trkpt lat="43.61726" lon="6.05699">
        <ele>690</ele>
        <time>2026-02-10T12:17:29.000Z</time>
      </trkpt>
      <trkpt lat="43.61727" lon="6.05699">
        <ele>690</ele>
        <time>2026-02-10T12:17:30.000Z</time>
      </trkpt>
      <trkpt lat="43.61727" lon="6.05699">
        <ele>690</ele>
        <time>2026-02-10T12:17:30.000Z</time>
      </trkpt>
      <trkpt lat="43.61727" lon="6.05699">
        <ele>690</ele>
        <time>2026-02-10T12:17:30.000Z</time>
      </trkpt>
      <trkpt lat="43.61728" lon="6.05699">
        <ele>690</ele>
        <time>2026-02-10T12:17:31.000Z</time>
      </trkpt>
      <trkpt lat="43.61729" lon="6.057">
        <ele>690</ele>
        <time>2026-02-10T12:17:32.000Z</time>
      </trkpt>
      <trkpt lat="43.61729" lon="6.057">
        <ele>690</ele>
        <time>2026-02-10T12:17:32.000Z</time>
      </trkpt>
      <trkpt lat="43.61731" lon="6.057">
        <ele>690</ele>
        <time>2026-02-10T12:17:34.000Z</time>
      </trkpt>
      <trkpt lat="43.61731" lon="6.057">
        <ele>690</ele>
        <time>2026-02-10T12:17:34.000Z</time>
      </trkpt>
      <trkpt lat="43.61731" lon="6.057">
        <ele>690</ele>
        <time>2026-02-10T12:17:34.000Z</time>
      </trkpt>
      <trkpt lat="43.61731" lon="6.057">
        <ele>690</ele>
        <time>2026-02-10T12:17:34.000Z</time>
      </trkpt>
      <trkpt lat="43.61731" lon="6.057">
        <ele>690</ele>
        <time>2026-02-10T12:17:34.000Z</time>
      </trkpt>
      <trkpt lat="43.61731" lon="6.05701">
        <ele>690</ele>
        <time>2026-02-10T12:17:35.000Z</time>
      </trkpt>
      <trkpt lat="43.61731" lon="6.057">
        <ele>690</ele>
        <time>2026-02-10T12:17:36.000Z</time>
      </trkpt>
      <trkpt lat="43.61731" lon="6.057">
        <ele>690</ele>
        <time>2026-02-10T12:17:36.000Z</time>
      </trkpt>
      <trkpt lat="43.6173" lon="6.057">
        <ele>690</ele>
        <time>2026-02-10T12:17:37.000Z</time>
      </trkpt>
      <trkpt lat="43.6173" lon="6.057">
        <ele>690</ele>
        <time>2026-02-10T12:17:37.000Z</time>
      </trkpt>
      <trkpt lat="43.6173" lon="6.057">
        <ele>690</ele>
        <time>2026-02-10T12:17:37.000Z</time>
      </trkpt>
      <trkpt lat="43.6173" lon="6.057">
        <ele>690</ele>
        <time>2026-02-10T12:17:37.000Z</time>
      </trkpt>
      <trkpt lat="43.6173" lon="6.057">
        <ele>690</ele>
        <time>2026-02-10T12:17:37.000Z</time>
      </trkpt>
      <trkpt lat="43.6173" lon="6.057">
        <ele>690</ele>
        <time>2026-02-10T12:17:37.000Z</time>
      </trkpt>
      <trkpt lat="43.6173" lon="6.057">
        <ele>690</ele>
        <time>2026-02-10T12:17:37.000Z</time>
      </trkpt>
      <trkpt lat="43.6173" lon="6.057">
        <ele>690</ele>
        <time>2026-02-10T12:17:37.000Z</time>
      </trkpt>
      <trkpt lat="43.6173" lon="6.05701">
        <ele>690</ele>
        <time>2026-02-10T12:17:38.000Z</time>
      </trkpt>
      <trkpt lat="43.6173" lon="6.05701">
        <ele>690</ele>
        <time>2026-02-10T12:17:38.000Z</time>
      </trkpt>
      <trkpt lat="43.6173" lon="6.05701">
        <ele>690</ele>
        <time>2026-02-10T12:17:38.000Z</time>
      </trkpt>
      <trkpt lat="43.6173" lon="6.05701">
        <ele>690</ele>
        <time>2026-02-10T12:17:38.000Z</time>
      </trkpt>
      <trkpt lat="43.6173" lon="6.05702">
        <ele>690</ele>
        <time>2026-02-10T12:17:39.000Z</time>
      </trkpt>
      <trkpt lat="43.6173" lon="6.05702">
        <ele>690</ele>
        <time>2026-02-10T12:17:39.000Z</time>
      </trkpt>
      <trkpt lat="43.6173" lon="6.05702">
        <ele>690</ele>
        <time>2026-02-10T12:17:39.000Z</time>
      </trkpt>
      <trkpt lat="43.6173" lon="6.05702">
        <ele>690</ele>
        <time>2026-02-10T12:17:39.000Z</time>
      </trkpt>
      <trkpt lat="43.6173" lon="6.05702">
        <ele>690</ele>
        <time>2026-02-10T12:17:39.000Z</time>
      </trkpt>
      <trkpt lat="43.6173" lon="6.05702">
        <ele>690</ele>
        <time>2026-02-10T12:17:39.000Z</time>
      </trkpt>
      <trkpt lat="43.6173" lon="6.05702">
        <ele>690</ele>
        <time>2026-02-10T12:17:39.000Z</time>
      </trkpt>
      <trkpt lat="43.6173" lon="6.05702">
        <ele>690</ele>
        <time>2026-02-10T12:17:39.000Z</time>
      </trkpt>
      <trkpt lat="43.6173" lon="6.05702">
        <ele>690</ele>
        <time>2026-02-10T12:17:39.000Z</time>
      </trkpt>
      <trkpt lat="43.61731" lon="6.05702">
        <ele>690</ele>
        <time>2026-02-10T12:17:40.000Z</time>
      </trkpt>
      <trkpt lat="43.61731" lon="6.05702">
        <ele>690</ele>
        <time>2026-02-10T12:17:40.000Z</time>
      </trkpt>
      <trkpt lat="43.61731" lon="6.05702">
        <ele>690</ele>
        <time>2026-02-10T12:17:40.000Z</time>
      </trkpt>
      <trkpt lat="43.61731" lon="6.05702">
        <ele>690</ele>
        <time>2026-02-10T12:17:40.000Z</time>
      </trkpt>
      <trkpt lat="43.61732" lon="6.05702">
        <ele>690</ele>
        <time>2026-02-10T12:17:41.000Z</time>
      </trkpt>
      <trkpt lat="43.61732" lon="6.05702">
        <ele>690</ele>
        <time>2026-02-10T12:17:41.000Z</time>
      </trkpt>
      <trkpt lat="43.61732" lon="6.05702">
        <ele>690</ele>
        <time>2026-02-10T12:17:41.000Z</time>
      </trkpt>
      <trkpt lat="43.61732" lon="6.05702">
        <ele>690</ele>
        <time>2026-02-10T12:17:41.000Z</time>
      </trkpt>
      <trkpt lat="43.61732" lon="6.05702">
        <ele>690</ele>
        <time>2026-02-10T12:17:41.000Z</time>
      </trkpt>
      <trkpt lat="43.61731" lon="6.05702">
        <ele>690</ele>
        <time>2026-02-10T12:17:42.000Z</time>
      </trkpt>
      <trkpt lat="43.61732" lon="6.05702">
        <ele>690</ele>
        <time>2026-02-10T12:17:43.000Z</time>
      </trkpt>
      <trkpt lat="43.61732" lon="6.05702">
        <ele>690</ele>
        <time>2026-02-10T12:17:43.000Z</time>
      </trkpt>
      <trkpt lat="43.61731" lon="6.05702">
        <ele>690</ele>
        <time>2026-02-10T12:17:44.000Z</time>
      </trkpt>
      <trkpt lat="43.61731" lon="6.05702">
        <ele>690</ele>
        <time>2026-02-10T12:17:44.000Z</time>
      </trkpt>
      <trkpt lat="43.6173" lon="6.05702">
        <ele>690</ele>
        <time>2026-02-10T12:17:45.000Z</time>
      </trkpt>
      <trkpt lat="43.6173" lon="6.05702">
        <ele>690</ele>
        <time>2026-02-10T12:17:45.000Z</time>
      </trkpt>
      <trkpt lat="43.6173" lon="6.05702">
        <ele>690</ele>
        <time>2026-02-10T12:17:45.000Z</time>
      </trkpt>
      <trkpt lat="43.6173" lon="6.05702">
        <ele>690</ele>
        <time>2026-02-10T12:17:45.000Z</time>
      </trkpt>
      <trkpt lat="43.61729" lon="6.05702">
        <ele>690</ele>
        <time>2026-02-10T12:17:46.000Z</time>
      </trkpt>
      <trkpt lat="43.61729" lon="6.05702">
        <ele>690</ele>
        <time>2026-02-10T12:17:46.000Z</time>
      </trkpt>
      <trkpt lat="43.61729" lon="6.05703">
        <ele>690</ele>
        <time>2026-02-10T12:17:47.000Z</time>
      </trkpt>
      <trkpt lat="43.61728" lon="6.05703">
        <ele>690</ele>
        <time>2026-02-10T12:17:48.000Z</time>
      </trkpt>
      <trkpt lat="43.61728" lon="6.05702">
        <ele>690</ele>
        <time>2026-02-10T12:17:49.000Z</time>
      </trkpt>
      <trkpt lat="43.61728" lon="6.05702">
        <ele>690</ele>
        <time>2026-02-10T12:17:49.000Z</time>
      </trkpt>
      <trkpt lat="43.61728" lon="6.05702">
        <ele>690</ele>
        <time>2026-02-10T12:17:49.000Z</time>
      </trkpt>
      <trkpt lat="43.61728" lon="6.05702">
        <ele>690</ele>
        <time>2026-02-10T12:17:49.000Z</time>
      </trkpt>
      <trkpt lat="43.61728" lon="6.05702">
        <ele>690</ele>
        <time>2026-02-10T12:17:49.000Z</time>
      </trkpt>
      <trkpt lat="43.61728" lon="6.05702">
        <ele>690</ele>
        <time>2026-02-10T12:17:49.000Z</time>
      </trkpt>
      <trkpt lat="43.61727" lon="6.05703">
        <ele>690</ele>
        <time>2026-02-10T12:17:50.000Z</time>
      </trkpt>
      <trkpt lat="43.61727" lon="6.05704">
        <ele>690</ele>
        <time>2026-02-10T12:17:51.000Z</time>
      </trkpt>
      <trkpt lat="43.61727" lon="6.05703">
        <ele>690</ele>
        <time>2026-02-10T12:17:52.000Z</time>
      </trkpt>
      <trkpt lat="43.61727" lon="6.05703">
        <ele>690</ele>
        <time>2026-02-10T12:17:52.000Z</time>
      </trkpt>
      <trkpt lat="43.61727" lon="6.05703">
        <ele>690</ele>
        <time>2026-02-10T12:17:52.000Z</time>
      </trkpt>
      <trkpt lat="43.61727" lon="6.05703">
        <ele>690</ele>
        <time>2026-02-10T12:17:52.000Z</time>
      </trkpt>
      <trkpt lat="43.61727" lon="6.05703">
        <ele>690</ele>
        <time>2026-02-10T12:17:52.000Z</time>
      </trkpt>
      <trkpt lat="43.61727" lon="6.05703">
        <ele>690</ele>
        <time>2026-02-10T12:17:52.000Z</time>
      </trkpt>
      <trkpt lat="43.61727" lon="6.05703">
        <ele>690</ele>
        <time>2026-02-10T12:17:52.000Z</time>
      </trkpt>
      <trkpt lat="43.61727" lon="6.05702">
        <ele>690</ele>
        <time>2026-02-10T12:17:53.000Z</time>
      </trkpt>
      <trkpt lat="43.61727" lon="6.05702">
        <ele>690</ele>
        <time>2026-02-10T12:17:53.000Z</time>
      </trkpt>
      <trkpt lat="43.61726" lon="6.05702">
        <ele>690</ele>
        <time>2026-02-10T12:17:54.000Z</time>
      </trkpt>
      <trkpt lat="43.61726" lon="6.05702">
        <ele>690</ele>
        <time>2026-02-10T12:17:54.000Z</time>
      </trkpt>
      <trkpt lat="43.61726" lon="6.05702">
        <ele>690</ele>
        <time>2026-02-10T12:17:54.000Z</time>
      </trkpt>
      <trkpt lat="43.61726" lon="6.05702">
        <ele>690</ele>
        <time>2026-02-10T12:17:54.000Z</time>
      </trkpt>
      <trkpt lat="43.61726" lon="6.05702">
        <ele>690</ele>
        <time>2026-02-10T12:17:54.000Z</time>
      </trkpt>
      <trkpt lat="43.61726" lon="6.05702">
        <ele>690</ele>
        <time>2026-02-10T12:17:54.000Z</time>
      </trkpt>
      <trkpt lat="43.61726" lon="6.05702">
        <ele>690</ele>
        <time>2026-02-10T12:17:54.000Z</time>
      </trkpt>
      <trkpt lat="43.61726" lon="6.05702">
        <ele>690</ele>
        <time>2026-02-10T12:17:54.000Z</time>
      </trkpt>
      <trkpt lat="43.61726" lon="6.05702">
        <ele>690</ele>
        <time>2026-02-10T12:17:54.000Z</time>
      </trkpt>
      <trkpt lat="43.61726" lon="6.05702">
        <ele>690</ele>
        <time>2026-02-10T12:17:54.000Z</time>
      </trkpt>
      <trkpt lat="43.61726" lon="6.05702">
        <ele>690</ele>
        <time>2026-02-10T12:17:54.000Z</time>
      </trkpt>
      <trkpt lat="43.61726" lon="6.05702">
        <ele>690</ele>
        <time>2026-02-10T12:17:54.000Z</time>
      </trkpt>
      <trkpt lat="43.61726" lon="6.05702">
        <ele>690</ele>
        <time>2026-02-10T12:17:54.000Z</time>
      </trkpt>
      <trkpt lat="43.61726" lon="6.05702">
        <ele>690</ele>
        <time>2026-02-10T12:17:54.000Z</time>
      </trkpt>
      <trkpt lat="43.61726" lon="6.05702">
        <ele>690</ele>
        <time>2026-02-10T12:17:54.000Z</time>
      </trkpt>
      <trkpt lat="43.61726" lon="6.05702">
        <ele>690</ele>
        <time>2026-02-10T12:17:54.000Z</time>
      </trkpt>
      <trkpt lat="43.61726" lon="6.05702">
        <ele>690</ele>
        <time>2026-02-10T12:17:54.000Z</time>
      </trkpt>
      <trkpt lat="43.61726" lon="6.05702">
        <ele>690</ele>
        <time>2026-02-10T12:17:54.000Z</time>
      </trkpt>
      <trkpt lat="43.61726" lon="6.05702">
        <ele>690</ele>
        <time>2026-02-10T12:17:54.000Z</time>
      </trkpt>
      <trkpt lat="43.61726" lon="6.05702">
        <ele>690</ele>
        <time>2026-02-10T12:17:54.000Z</time>
      </trkpt>
      <trkpt lat="43.61726" lon="6.05702">
        <ele>690</ele>
        <time>2026-02-10T12:17:54.000Z</time>
      </trkpt>
      <trkpt lat="43.61726" lon="6.05702">
        <ele>690</ele>
        <time>2026-02-10T12:17:54.000Z</time>
      </trkpt>
      <trkpt lat="43.61726" lon="6.05702">
        <ele>690</ele>
        <time>2026-02-10T12:17:54.000Z</time>
      </trkpt>
      <trkpt lat="43.61726" lon="6.05702">
        <ele>690</ele>
        <time>2026-02-10T12:17:54.000Z</time>
      </trkpt>
      <trkpt lat="43.61726" lon="6.05702">
        <ele>690</ele>
        <time>2026-02-10T12:17:54.000Z</time>
      </trkpt>
      <trkpt lat="43.61727" lon="6.05701">
        <ele>690</ele>
        <time>2026-02-10T12:17:55.000Z</time>
      </trkpt>
      <trkpt lat="43.61726" lon="6.05701">
        <ele>690</ele>
        <time>2026-02-10T12:17:56.000Z</time>
      </trkpt>
      <trkpt lat="43.61726" lon="6.05701">
        <ele>690</ele>
        <time>2026-02-10T12:17:56.000Z</time>
      </trkpt>
      <trkpt lat="43.61726" lon="6.05701">
        <ele>690</ele>
        <time>2026-02-10T12:17:56.000Z</time>
      </trkpt>
      <trkpt lat="43.61725" lon="6.05701">
        <ele>690</ele>
        <time>2026-02-10T12:17:57.000Z</time>
      </trkpt>
      <trkpt lat="43.61725" lon="6.05702">
        <ele>690</ele>
        <time>2026-02-10T12:17:58.000Z</time>
      </trkpt>
      <trkpt lat="43.61725" lon="6.05702">
        <ele>690</ele>
        <time>2026-02-10T12:17:58.000Z</time>
      </trkpt>
      <trkpt lat="43.61725" lon="6.05702">
        <ele>690</ele>
        <time>2026-02-10T12:17:58.000Z</time>
      </trkpt>
      <trkpt lat="43.61725" lon="6.05702">
        <ele>690</ele>
        <time>2026-02-10T12:17:58.000Z</time>
      </trkpt>
      <trkpt lat="43.61725" lon="6.05702">
        <ele>690</ele>
        <time>2026-02-10T12:17:58.000Z</time>
      </trkpt>
      <trkpt lat="43.61724" lon="6.05701">
        <ele>690</ele>
        <time>2026-02-10T12:17:59.000Z</time>
      </trkpt>
      <trkpt lat="43.61724" lon="6.05702">
        <ele>690</ele>
        <time>2026-02-10T12:18:00.000Z</time>
      </trkpt>
      <trkpt lat="43.61723" lon="6.05701">
        <ele>690</ele>
        <time>2026-02-10T12:18:01.000Z</time>
      </trkpt>
      <trkpt lat="43.61722" lon="6.05701">
        <ele>690</ele>
        <time>2026-02-10T12:18:02.000Z</time>
      </trkpt>
      <trkpt lat="43.61722" lon="6.057">
        <ele>690</ele>
        <time>2026-02-10T12:18:03.000Z</time>
      </trkpt>
      <trkpt lat="43.61722" lon="6.05699">
        <ele>690</ele>
        <time>2026-02-10T12:18:04.000Z</time>
      </trkpt>
      <trkpt lat="43.61723" lon="6.05697">
        <ele>690</ele>
        <time>2026-02-10T12:18:06.000Z</time>
      </trkpt>
      <trkpt lat="43.61723" lon="6.05696">
        <ele>690</ele>
        <time>2026-02-10T12:18:07.000Z</time>
      </trkpt>
      <trkpt lat="43.61723" lon="6.05695">
        <ele>690</ele>
        <time>2026-02-10T12:18:08.000Z</time>
      </trkpt>
      <trkpt lat="43.61724" lon="6.05694">
        <ele>690</ele>
        <time>2026-02-10T12:18:09.000Z</time>
      </trkpt>
      <trkpt lat="43.61724" lon="6.05693">
        <ele>691</ele>
        <time>2026-02-10T12:18:20.000Z</time>
      </trkpt>
      <trkpt lat="43.61724" lon="6.05692">
        <ele>691</ele>
        <time>2026-02-10T12:18:21.000Z</time>
      </trkpt>
      <trkpt lat="43.61724" lon="6.05691">
        <ele>691</ele>
        <time>2026-02-10T12:18:22.000Z</time>
      </trkpt>
      <trkpt lat="43.61725" lon="6.0569">
        <ele>691</ele>
        <time>2026-02-10T12:18:23.000Z</time>
      </trkpt>
      <trkpt lat="43.61725" lon="6.05689">
        <ele>691</ele>
        <time>2026-02-10T12:18:24.000Z</time>
      </trkpt>
      <trkpt lat="43.61726" lon="6.05688">
        <ele>691</ele>
        <time>2026-02-10T12:18:25.000Z</time>
      </trkpt>
      <trkpt lat="43.61727" lon="6.05687">
        <ele>691</ele>
        <time>2026-02-10T12:18:26.000Z</time>
      </trkpt>
      <trkpt lat="43.61727" lon="6.05687">
        <ele>691</ele>
        <time>2026-02-10T12:18:26.000Z</time>
      </trkpt>
      <trkpt lat="43.61727" lon="6.05687">
        <ele>691</ele>
        <time>2026-02-10T12:18:26.000Z</time>
      </trkpt>
      <trkpt lat="43.61728" lon="6.05686">
        <ele>691</ele>
        <time>2026-02-10T12:18:27.000Z</time>
      </trkpt>
      <trkpt lat="43.61729" lon="6.05686">
        <ele>691</ele>
        <time>2026-02-10T12:18:28.000Z</time>
      </trkpt>
      <trkpt lat="43.6173" lon="6.05685">
        <ele>691</ele>
        <time>2026-02-10T12:18:29.000Z</time>
      </trkpt>
      <trkpt lat="43.6173" lon="6.05684">
        <ele>691</ele>
        <time>2026-02-10T12:18:30.000Z</time>
      </trkpt>
      <trkpt lat="43.61731" lon="6.05683">
        <ele>691</ele>
        <time>2026-02-10T12:18:31.000Z</time>
      </trkpt>
      <trkpt lat="43.61731" lon="6.05682">
        <ele>691</ele>
        <time>2026-02-10T12:18:32.000Z</time>
      </trkpt>
      <trkpt lat="43.61732" lon="6.05681">
        <ele>691</ele>
        <time>2026-02-10T12:18:33.000Z</time>
      </trkpt>
      <trkpt lat="43.61732" lon="6.0568">
        <ele>691</ele>
        <time>2026-02-10T12:18:34.000Z</time>
      </trkpt>
      <trkpt lat="43.61733" lon="6.0568">
        <ele>691</ele>
        <time>2026-02-10T12:18:35.000Z</time>
      </trkpt>
      <trkpt lat="43.61733" lon="6.05679">
        <ele>691</ele>
        <time>2026-02-10T12:18:36.000Z</time>
      </trkpt>
      <trkpt lat="43.61732" lon="6.05678">
        <ele>691</ele>
        <time>2026-02-10T12:18:37.000Z</time>
      </trkpt>
      <trkpt lat="43.61733" lon="6.05678">
        <ele>691</ele>
        <time>2026-02-10T12:18:38.000Z</time>
      </trkpt>
      <trkpt lat="43.61733" lon="6.05678">
        <ele>691</ele>
        <time>2026-02-10T12:18:38.000Z</time>
      </trkpt>
      <trkpt lat="43.61733" lon="6.05678">
        <ele>691</ele>
        <time>2026-02-10T12:18:38.000Z</time>
      </trkpt>
      <trkpt lat="43.61733" lon="6.05678">
        <ele>691</ele>
        <time>2026-02-10T12:18:38.000Z</time>
      </trkpt>
      <trkpt lat="43.61733" lon="6.05678">
        <ele>691</ele>
        <time>2026-02-10T12:18:38.000Z</time>
      </trkpt>
      <trkpt lat="43.61733" lon="6.05678">
        <ele>691</ele>
        <time>2026-02-10T12:18:38.000Z</time>
      </trkpt>
      <trkpt lat="43.61733" lon="6.05678">
        <ele>691</ele>
        <time>2026-02-10T12:18:38.000Z</time>
      </trkpt>
      <trkpt lat="43.61734" lon="6.05677">
        <ele>691</ele>
        <time>2026-02-10T12:18:39.000Z</time>
      </trkpt>
      <trkpt lat="43.61734" lon="6.05676">
        <ele>691</ele>
        <time>2026-02-10T12:18:40.000Z</time>
      </trkpt>
      <trkpt lat="43.61734" lon="6.05676">
        <ele>691</ele>
        <time>2026-02-10T12:18:40.000Z</time>
      </trkpt>
      <trkpt lat="43.61735" lon="6.05675">
        <ele>691</ele>
        <time>2026-02-10T12:18:41.000Z</time>
      </trkpt>
      <trkpt lat="43.61735" lon="6.05674">
        <ele>691</ele>
        <time>2026-02-10T12:18:42.000Z</time>
      </trkpt>
      <trkpt lat="43.61736" lon="6.05673">
        <ele>691</ele>
        <time>2026-02-10T12:18:43.000Z</time>
      </trkpt>
      <trkpt lat="43.61737" lon="6.05672">
        <ele>691</ele>
        <time>2026-02-10T12:18:44.000Z</time>
      </trkpt>
      <trkpt lat="43.61737" lon="6.05671">
        <ele>691</ele>
        <time>2026-02-10T12:18:45.000Z</time>
      </trkpt>
      <trkpt lat="43.61738" lon="6.0567">
        <ele>690</ele>
        <time>2026-02-10T12:18:46.000Z</time>
      </trkpt>
      <trkpt lat="43.61738" lon="6.05669">
        <ele>690</ele>
        <time>2026-02-10T12:18:47.000Z</time>
      </trkpt>
      <trkpt lat="43.61738" lon="6.05668">
        <ele>690</ele>
        <time>2026-02-10T12:18:48.000Z</time>
      </trkpt>
      <trkpt lat="43.61739" lon="6.05668">
        <ele>690</ele>
        <time>2026-02-10T12:18:49.000Z</time>
      </trkpt>
      <trkpt lat="43.6174" lon="6.05667">
        <ele>690</ele>
        <time>2026-02-10T12:18:50.000Z</time>
      </trkpt>
      <trkpt lat="43.6174" lon="6.05666">
        <ele>690</ele>
        <time>2026-02-10T12:18:51.000Z</time>
      </trkpt>
      <trkpt lat="43.61741" lon="6.05665">
        <ele>690</ele>
        <time>2026-02-10T12:18:52.000Z</time>
      </trkpt>
      <trkpt lat="43.61741" lon="6.05664">
        <ele>690</ele>
        <time>2026-02-10T12:18:53.000Z</time>
      </trkpt>
      <trkpt lat="43.61742" lon="6.05663">
        <ele>690</ele>
        <time>2026-02-10T12:18:54.000Z</time>
      </trkpt>
      <trkpt lat="43.61743" lon="6.05662">
        <ele>690</ele>
        <time>2026-02-10T12:18:55.000Z</time>
      </trkpt>
      <trkpt lat="43.61743" lon="6.05661">
        <ele>690</ele>
        <time>2026-02-10T12:18:56.000Z</time>
      </trkpt>
      <trkpt lat="43.61744" lon="6.0566">
        <ele>690</ele>
        <time>2026-02-10T12:18:57.000Z</time>
      </trkpt>
      <trkpt lat="43.61745" lon="6.05658">
        <ele>690</ele>
        <time>2026-02-10T12:18:59.000Z</time>
      </trkpt>
      <trkpt lat="43.61745" lon="6.05657">
        <ele>690</ele>
        <time>2026-02-10T12:19:00.000Z</time>
      </trkpt>
      <trkpt lat="43.61746" lon="6.05655">
        <ele>690</ele>
        <time>2026-02-10T12:19:02.000Z</time>
      </trkpt>
      <trkpt lat="43.61746" lon="6.05654">
        <ele>690</ele>
        <time>2026-02-10T12:19:03.000Z</time>
      </trkpt>
      <trkpt lat="43.61747" lon="6.05653">
        <ele>690</ele>
        <time>2026-02-10T12:19:04.000Z</time>
      </trkpt>
      <trkpt lat="43.61747" lon="6.05651">
        <ele>690</ele>
        <time>2026-02-10T12:19:06.000Z</time>
      </trkpt>
      <trkpt lat="43.61748" lon="6.0565">
        <ele>690</ele>
        <time>2026-02-10T12:19:07.000Z</time>
      </trkpt>
      <trkpt lat="43.61749" lon="6.05649">
        <ele>689</ele>
        <time>2026-02-10T12:19:08.000Z</time>
      </trkpt>
      <trkpt lat="43.61749" lon="6.05647">
        <ele>689</ele>
        <time>2026-02-10T12:19:10.000Z</time>
      </trkpt>
      <trkpt lat="43.6175" lon="6.05646">
        <ele>689</ele>
        <time>2026-02-10T12:19:11.000Z</time>
      </trkpt>
      <trkpt lat="43.61751" lon="6.05644">
        <ele>689</ele>
        <time>2026-02-10T12:19:13.000Z</time>
      </trkpt>
      <trkpt lat="43.61751" lon="6.05643">
        <ele>690</ele>
        <time>2026-02-10T12:19:24.000Z</time>
      </trkpt>
      <trkpt lat="43.61752" lon="6.05641">
        <ele>690</ele>
        <time>2026-02-10T12:19:26.000Z</time>
      </trkpt>
      <trkpt lat="43.61752" lon="6.0564">
        <ele>690</ele>
        <time>2026-02-10T12:19:27.000Z</time>
      </trkpt>
      <trkpt lat="43.61753" lon="6.05638">
        <ele>690</ele>
        <time>2026-02-10T12:19:29.000Z</time>
      </trkpt>
      <trkpt lat="43.61753" lon="6.05636">
        <ele>690</ele>
        <time>2026-02-10T12:19:31.000Z</time>
      </trkpt>
      <trkpt lat="43.61754" lon="6.05635">
        <ele>690</ele>
        <time>2026-02-10T12:19:32.000Z</time>
      </trkpt>
      <trkpt lat="43.61754" lon="6.05634">
        <ele>690</ele>
        <time>2026-02-10T12:19:33.000Z</time>
      </trkpt>
      <trkpt lat="43.61754" lon="6.05632">
        <ele>690</ele>
        <time>2026-02-10T12:19:35.000Z</time>
      </trkpt>
      <trkpt lat="43.61755" lon="6.05631">
        <ele>689</ele>
        <time>2026-02-10T12:19:36.000Z</time>
      </trkpt>
      <trkpt lat="43.61756" lon="6.0563">
        <ele>689</ele>
        <time>2026-02-10T12:19:37.000Z</time>
      </trkpt>
      <trkpt lat="43.61756" lon="6.05628">
        <ele>689</ele>
        <time>2026-02-10T12:19:39.000Z</time>
      </trkpt>
      <trkpt lat="43.61757" lon="6.05626">
        <ele>689</ele>
        <time>2026-02-10T12:19:41.000Z</time>
      </trkpt>
      <trkpt lat="43.61757" lon="6.05624">
        <ele>689</ele>
        <time>2026-02-10T12:19:43.000Z</time>
      </trkpt>
      <trkpt lat="43.61758" lon="6.05623">
        <ele>689</ele>
        <time>2026-02-10T12:19:44.000Z</time>
      </trkpt>
      <trkpt lat="43.61758" lon="6.05621">
        <ele>689</ele>
        <time>2026-02-10T12:19:46.000Z</time>
      </trkpt>
      <trkpt lat="43.61759" lon="6.0562">
        <ele>689</ele>
        <time>2026-02-10T12:19:47.000Z</time>
      </trkpt>
      <trkpt lat="43.61759" lon="6.05618">
        <ele>689</ele>
        <time>2026-02-10T12:19:49.000Z</time>
      </trkpt>
      <trkpt lat="43.6176" lon="6.05617">
        <ele>689</ele>
        <time>2026-02-10T12:19:50.000Z</time>
      </trkpt>
      <trkpt lat="43.6176" lon="6.05615">
        <ele>689</ele>
        <time>2026-02-10T12:19:52.000Z</time>
      </trkpt>
      <trkpt lat="43.61761" lon="6.05613">
        <ele>689</ele>
        <time>2026-02-10T12:19:54.000Z</time>
      </trkpt>
      <trkpt lat="43.61761" lon="6.05612">
        <ele>689</ele>
        <time>2026-02-10T12:19:55.000Z</time>
      </trkpt>
      <trkpt lat="43.61762" lon="6.0561">
        <ele>689</ele>
        <time>2026-02-10T12:19:57.000Z</time>
      </trkpt>
      <trkpt lat="43.61762" lon="6.05608">
        <ele>689</ele>
        <time>2026-02-10T12:19:59.000Z</time>
      </trkpt>
      <trkpt lat="43.61762" lon="6.05607">
        <ele>689</ele>
        <time>2026-02-10T12:20:00.000Z</time>
      </trkpt>
      <trkpt lat="43.61763" lon="6.05605">
        <ele>689</ele>
        <time>2026-02-10T12:20:02.000Z</time>
      </trkpt>
      <trkpt lat="43.61763" lon="6.05603">
        <ele>689</ele>
        <time>2026-02-10T12:20:04.000Z</time>
      </trkpt>
      <trkpt lat="43.61764" lon="6.05602">
        <ele>689</ele>
        <time>2026-02-10T12:20:05.000Z</time>
      </trkpt>
      <trkpt lat="43.61763" lon="6.056">
        <ele>689</ele>
        <time>2026-02-10T12:20:07.000Z</time>
      </trkpt>
      <trkpt lat="43.61763" lon="6.05598">
        <ele>689</ele>
        <time>2026-02-10T12:20:09.000Z</time>
      </trkpt>
      <trkpt lat="43.61764" lon="6.05597">
        <ele>689</ele>
        <time>2026-02-10T12:20:10.000Z</time>
      </trkpt>
      <trkpt lat="43.61764" lon="6.05595">
        <ele>689</ele>
        <time>2026-02-10T12:20:12.000Z</time>
      </trkpt>
      <trkpt lat="43.61764" lon="6.05594">
        <ele>689</ele>
        <time>2026-02-10T12:20:13.000Z</time>
      </trkpt>
      <trkpt lat="43.61765" lon="6.05592">
        <ele>689</ele>
        <time>2026-02-10T12:20:15.000Z</time>
      </trkpt>
      <trkpt lat="43.61766" lon="6.05591">
        <ele>689</ele>
        <time>2026-02-10T12:20:16.000Z</time>
      </trkpt>
      <trkpt lat="43.61766" lon="6.05589">
        <ele>689</ele>
        <time>2026-02-10T12:20:18.000Z</time>
      </trkpt>
      <trkpt lat="43.61767" lon="6.05587">
        <ele>689</ele>
        <time>2026-02-10T12:20:20.000Z</time>
      </trkpt>
      <trkpt lat="43.61767" lon="6.05585">
        <ele>689</ele>
        <time>2026-02-10T12:20:22.000Z</time>
      </trkpt>
      <trkpt lat="43.61768" lon="6.05584">
        <ele>689</ele>
        <time>2026-02-10T12:20:23.000Z</time>
      </trkpt>
      <trkpt lat="43.61768" lon="6.05583">
        <ele>689</ele>
        <time>2026-02-10T12:20:24.000Z</time>
      </trkpt>
      <trkpt lat="43.61768" lon="6.05581">
        <ele>689</ele>
        <time>2026-02-10T12:20:26.000Z</time>
      </trkpt>
      <trkpt lat="43.61768" lon="6.0558">
        <ele>689</ele>
        <time>2026-02-10T12:20:27.000Z</time>
      </trkpt>
      <trkpt lat="43.61768" lon="6.05578">
        <ele>689</ele>
        <time>2026-02-10T12:20:29.000Z</time>
      </trkpt>
      <trkpt lat="43.61769" lon="6.05577">
        <ele>689</ele>
        <time>2026-02-10T12:20:30.000Z</time>
      </trkpt>
      <trkpt lat="43.61769" lon="6.05575">
        <ele>689</ele>
        <time>2026-02-10T12:20:32.000Z</time>
      </trkpt>
      <trkpt lat="43.6177" lon="6.05574">
        <ele>689</ele>
        <time>2026-02-10T12:20:33.000Z</time>
      </trkpt>
      <trkpt lat="43.6177" lon="6.05572">
        <ele>689</ele>
        <time>2026-02-10T12:20:35.000Z</time>
      </trkpt>
      <trkpt lat="43.6177" lon="6.0557">
        <ele>689</ele>
        <time>2026-02-10T12:20:37.000Z</time>
      </trkpt>
      <trkpt lat="43.61771" lon="6.05569">
        <ele>689</ele>
        <time>2026-02-10T12:20:38.000Z</time>
      </trkpt>
      <trkpt lat="43.61771" lon="6.05567">
        <ele>689</ele>
        <time>2026-02-10T12:20:40.000Z</time>
      </trkpt>
      <trkpt lat="43.61771" lon="6.05566">
        <ele>689</ele>
        <time>2026-02-10T12:20:41.000Z</time>
      </trkpt>
      <trkpt lat="43.61772" lon="6.05564">
        <ele>689</ele>
        <time>2026-02-10T12:20:43.000Z</time>
      </trkpt>
      <trkpt lat="43.61772" lon="6.05562">
        <ele>689</ele>
        <time>2026-02-10T12:20:45.000Z</time>
      </trkpt>
      <trkpt lat="43.61773" lon="6.05561">
        <ele>689</ele>
        <time>2026-02-10T12:20:46.000Z</time>
      </trkpt>
      <trkpt lat="43.61773" lon="6.05559">
        <ele>688</ele>
        <time>2026-02-10T12:20:48.000Z</time>
      </trkpt>
      <trkpt lat="43.61774" lon="6.05558">
        <ele>688</ele>
        <time>2026-02-10T12:20:49.000Z</time>
      </trkpt>
      <trkpt lat="43.61775" lon="6.05556">
        <ele>688</ele>
        <time>2026-02-10T12:20:51.000Z</time>
      </trkpt>
      <trkpt lat="43.61775" lon="6.05555">
        <ele>688</ele>
        <time>2026-02-10T12:20:52.000Z</time>
      </trkpt>
      <trkpt lat="43.61776" lon="6.05553">
        <ele>688</ele>
        <time>2026-02-10T12:20:54.000Z</time>
      </trkpt>
      <trkpt lat="43.61776" lon="6.05551">
        <ele>688</ele>
        <time>2026-02-10T12:20:56.000Z</time>
      </trkpt>
      <trkpt lat="43.61776" lon="6.05549">
        <ele>688</ele>
        <time>2026-02-10T12:20:58.000Z</time>
      </trkpt>
      <trkpt lat="43.61776" lon="6.05547">
        <ele>689</ele>
        <time>2026-02-10T12:21:10.000Z</time>
      </trkpt>
      <trkpt lat="43.61777" lon="6.05546">
        <ele>688</ele>
        <time>2026-02-10T12:21:11.000Z</time>
      </trkpt>
      <trkpt lat="43.61777" lon="6.05544">
        <ele>688</ele>
        <time>2026-02-10T12:21:13.000Z</time>
      </trkpt>
      <trkpt lat="43.61777" lon="6.05543">
        <ele>688</ele>
        <time>2026-02-10T12:21:14.000Z</time>
      </trkpt>
      <trkpt lat="43.61777" lon="6.05541">
        <ele>688</ele>
        <time>2026-02-10T12:21:16.000Z</time>
      </trkpt>
      <trkpt lat="43.61777" lon="6.0554">
        <ele>688</ele>
        <time>2026-02-10T12:21:17.000Z</time>
      </trkpt>
      <trkpt lat="43.61778" lon="6.05538">
        <ele>688</ele>
        <time>2026-02-10T12:21:19.000Z</time>
      </trkpt>
      <trkpt lat="43.61778" lon="6.05536">
        <ele>688</ele>
        <time>2026-02-10T12:21:21.000Z</time>
      </trkpt>
      <trkpt lat="43.61778" lon="6.05535">
        <ele>688</ele>
        <time>2026-02-10T12:21:22.000Z</time>
      </trkpt>
      <trkpt lat="43.61779" lon="6.05533">
        <ele>688</ele>
        <time>2026-02-10T12:21:24.000Z</time>
      </trkpt>
      <trkpt lat="43.61779" lon="6.05531">
        <ele>688</ele>
        <time>2026-02-10T12:21:26.000Z</time>
      </trkpt>
      <trkpt lat="43.6178" lon="6.05529">
        <ele>688</ele>
        <time>2026-02-10T12:21:28.000Z</time>
      </trkpt>
      <trkpt lat="43.6178" lon="6.05528">
        <ele>688</ele>
        <time>2026-02-10T12:21:29.000Z</time>
      </trkpt>
      <trkpt lat="43.6178" lon="6.05526">
        <ele>687</ele>
        <time>2026-02-10T12:21:31.000Z</time>
      </trkpt>
      <trkpt lat="43.61781" lon="6.05524">
        <ele>687</ele>
        <time>2026-02-10T12:21:33.000Z</time>
      </trkpt>
      <trkpt lat="43.61781" lon="6.05523">
        <ele>687</ele>
        <time>2026-02-10T12:21:34.000Z</time>
      </trkpt>
      <trkpt lat="43.6178" lon="6.05521">
        <ele>687</ele>
        <time>2026-02-10T12:21:36.000Z</time>
      </trkpt>
      <trkpt lat="43.6178" lon="6.05519">
        <ele>687</ele>
        <time>2026-02-10T12:21:38.000Z</time>
      </trkpt>
      <trkpt lat="43.61781" lon="6.05517">
        <ele>687</ele>
        <time>2026-02-10T12:21:40.000Z</time>
      </trkpt>
      <trkpt lat="43.61781" lon="6.05514">
        <ele>687</ele>
        <time>2026-02-10T12:21:42.000Z</time>
      </trkpt>
      <trkpt lat="43.6178" lon="6.05513">
        <ele>687</ele>
        <time>2026-02-10T12:21:43.000Z</time>
      </trkpt>
      <trkpt lat="43.6178" lon="6.05511">
        <ele>687</ele>
        <time>2026-02-10T12:21:45.000Z</time>
      </trkpt>
      <trkpt lat="43.6178" lon="6.0551">
        <ele>687</ele>
        <time>2026-02-10T12:21:46.000Z</time>
      </trkpt>
      <trkpt lat="43.61781" lon="6.05508">
        <ele>687</ele>
        <time>2026-02-10T12:21:48.000Z</time>
      </trkpt>
      <trkpt lat="43.61781" lon="6.05507">
        <ele>687</ele>
        <time>2026-02-10T12:21:49.000Z</time>
      </trkpt>
      <trkpt lat="43.61782" lon="6.05505">
        <ele>687</ele>
        <time>2026-02-10T12:21:51.000Z</time>
      </trkpt>
      <trkpt lat="43.61783" lon="6.05503">
        <ele>687</ele>
        <time>2026-02-10T12:21:53.000Z</time>
      </trkpt>
      <trkpt lat="43.61783" lon="6.05502">
        <ele>686</ele>
        <time>2026-02-10T12:21:54.000Z</time>
      </trkpt>
      <trkpt lat="43.61783" lon="6.055">
        <ele>686</ele>
        <time>2026-02-10T12:21:56.000Z</time>
      </trkpt>
      <trkpt lat="43.61782" lon="6.05498">
        <ele>686</ele>
        <time>2026-02-10T12:21:58.000Z</time>
      </trkpt>
      <trkpt lat="43.61782" lon="6.05496">
        <ele>686</ele>
        <time>2026-02-10T12:22:00.000Z</time>
      </trkpt>
      <trkpt lat="43.61782" lon="6.05494">
        <ele>686</ele>
        <time>2026-02-10T12:22:02.000Z</time>
      </trkpt>
      <trkpt lat="43.61782" lon="6.05492">
        <ele>686</ele>
        <time>2026-02-10T12:22:04.000Z</time>
      </trkpt>
      <trkpt lat="43.61783" lon="6.0549">
        <ele>686</ele>
        <time>2026-02-10T12:22:06.000Z</time>
      </trkpt>
      <trkpt lat="43.61783" lon="6.05489">
        <ele>686</ele>
        <time>2026-02-10T12:22:07.000Z</time>
      </trkpt>
      <trkpt lat="43.61783" lon="6.05487">
        <ele>686</ele>
        <time>2026-02-10T12:22:09.000Z</time>
      </trkpt>
      <trkpt lat="43.61783" lon="6.05486">
        <ele>685</ele>
        <time>2026-02-10T12:22:10.000Z</time>
      </trkpt>
      <trkpt lat="43.61783" lon="6.05484">
        <ele>685</ele>
        <time>2026-02-10T12:22:12.000Z</time>
      </trkpt>
      <trkpt lat="43.61783" lon="6.05482">
        <ele>685</ele>
        <time>2026-02-10T12:22:14.000Z</time>
      </trkpt>
      <trkpt lat="43.61784" lon="6.0548">
        <ele>685</ele>
        <time>2026-02-10T12:22:16.000Z</time>
      </trkpt>
      <trkpt lat="43.61784" lon="6.05479">
        <ele>685</ele>
        <time>2026-02-10T12:22:17.000Z</time>
      </trkpt>
      <trkpt lat="43.61784" lon="6.05476">
        <ele>685</ele>
        <time>2026-02-10T12:22:19.000Z</time>
      </trkpt>
      <trkpt lat="43.61784" lon="6.05474">
        <ele>685</ele>
        <time>2026-02-10T12:22:21.000Z</time>
      </trkpt>
      <trkpt lat="43.61785" lon="6.05472">
        <ele>685</ele>
        <time>2026-02-10T12:22:23.000Z</time>
      </trkpt>
      <trkpt lat="43.61785" lon="6.0547">
        <ele>684</ele>
        <time>2026-02-10T12:22:25.000Z</time>
      </trkpt>
      <trkpt lat="43.61785" lon="6.05468">
        <ele>684</ele>
        <time>2026-02-10T12:22:27.000Z</time>
      </trkpt>
      <trkpt lat="43.61785" lon="6.05466">
        <ele>684</ele>
        <time>2026-02-10T12:22:29.000Z</time>
      </trkpt>
      <trkpt lat="43.61785" lon="6.05465">
        <ele>684</ele>
        <time>2026-02-10T12:22:30.000Z</time>
      </trkpt>
      <trkpt lat="43.61785" lon="6.05463">
        <ele>684</ele>
        <time>2026-02-10T12:22:32.000Z</time>
      </trkpt>
      <trkpt lat="43.61785" lon="6.05462">
        <ele>684</ele>
        <time>2026-02-10T12:22:33.000Z</time>
      </trkpt>
      <trkpt lat="43.61784" lon="6.0546">
        <ele>684</ele>
        <time>2026-02-10T12:22:35.000Z</time>
      </trkpt>
      <trkpt lat="43.61784" lon="6.05458">
        <ele>684</ele>
        <time>2026-02-10T12:22:37.000Z</time>
      </trkpt>
      <trkpt lat="43.61784" lon="6.05456">
        <ele>684</ele>
        <time>2026-02-10T12:22:39.000Z</time>
      </trkpt>
      <trkpt lat="43.61784" lon="6.05455">
        <ele>684</ele>
        <time>2026-02-10T12:22:40.000Z</time>
      </trkpt>
      <trkpt lat="43.61784" lon="6.05453">
        <ele>683</ele>
        <time>2026-02-10T12:22:42.000Z</time>
      </trkpt>
      <trkpt lat="43.61784" lon="6.05451">
        <ele>683</ele>
        <time>2026-02-10T12:22:44.000Z</time>
      </trkpt>
      <trkpt lat="43.61784" lon="6.05449">
        <ele>683</ele>
        <time>2026-02-10T12:22:46.000Z</time>
      </trkpt>
      <trkpt lat="43.61785" lon="6.05448">
        <ele>683</ele>
        <time>2026-02-10T12:22:47.000Z</time>
      </trkpt>
      <trkpt lat="43.61784" lon="6.05446">
        <ele>683</ele>
        <time>2026-02-10T12:22:49.000Z</time>
      </trkpt>
      <trkpt lat="43.61784" lon="6.05444">
        <ele>683</ele>
        <time>2026-02-10T12:22:51.000Z</time>
      </trkpt>
      <trkpt lat="43.61784" lon="6.05442">
        <ele>683</ele>
        <time>2026-02-10T12:22:53.000Z</time>
      </trkpt>
      <trkpt lat="43.61784" lon="6.0544">
        <ele>683</ele>
        <time>2026-02-10T12:22:55.000Z</time>
      </trkpt>
      <trkpt lat="43.61784" lon="6.05439">
        <ele>683</ele>
        <time>2026-02-10T12:22:56.000Z</time>
      </trkpt>
      <trkpt lat="43.61784" lon="6.05437">
        <ele>683</ele>
        <time>2026-02-10T12:22:58.000Z</time>
      </trkpt>
      <trkpt lat="43.61784" lon="6.05436">
        <ele>683</ele>
        <time>2026-02-10T12:22:59.000Z</time>
      </trkpt>
      <trkpt lat="43.61785" lon="6.05434">
        <ele>683</ele>
        <time>2026-02-10T12:23:01.000Z</time>
      </trkpt>
      <trkpt lat="43.61785" lon="6.05432">
        <ele>683</ele>
        <time>2026-02-10T12:23:03.000Z</time>
      </trkpt>
      <trkpt lat="43.61785" lon="6.05431">
        <ele>682</ele>
        <time>2026-02-10T12:23:04.000Z</time>
      </trkpt>
      <trkpt lat="43.61785" lon="6.05429">
        <ele>682</ele>
        <time>2026-02-10T12:23:06.000Z</time>
      </trkpt>
      <trkpt lat="43.61786" lon="6.05428">
        <ele>682</ele>
        <time>2026-02-10T12:23:07.000Z</time>
      </trkpt>
      <trkpt lat="43.61786" lon="6.05426">
        <ele>682</ele>
        <time>2026-02-10T12:23:09.000Z</time>
      </trkpt>
      <trkpt lat="43.61787" lon="6.05424">
        <ele>682</ele>
        <time>2026-02-10T12:23:11.000Z</time>
      </trkpt>
      <trkpt lat="43.61787" lon="6.05423">
        <ele>682</ele>
        <time>2026-02-10T12:23:12.000Z</time>
      </trkpt>
      <trkpt lat="43.61787" lon="6.05421">
        <ele>682</ele>
        <time>2026-02-10T12:23:14.000Z</time>
      </trkpt>
      <trkpt lat="43.61787" lon="6.05419">
        <ele>681</ele>
        <time>2026-02-10T12:23:16.000Z</time>
      </trkpt>
      <trkpt lat="43.61787" lon="6.05418">
        <ele>681</ele>
        <time>2026-02-10T12:23:17.000Z</time>
      </trkpt>
      <trkpt lat="43.61787" lon="6.05416">
        <ele>681</ele>
        <time>2026-02-10T12:23:19.000Z</time>
      </trkpt>
      <trkpt lat="43.61787" lon="6.05415">
        <ele>681</ele>
        <time>2026-02-10T12:23:20.000Z</time>
      </trkpt>
      <trkpt lat="43.61787" lon="6.05413">
        <ele>681</ele>
        <time>2026-02-10T12:23:22.000Z</time>
      </trkpt>
      <trkpt lat="43.61787" lon="6.05412">
        <ele>681</ele>
        <time>2026-02-10T12:23:23.000Z</time>
      </trkpt>
      <trkpt lat="43.61786" lon="6.0541">
        <ele>681</ele>
        <time>2026-02-10T12:23:25.000Z</time>
      </trkpt>
      <trkpt lat="43.61786" lon="6.05408">
        <ele>680</ele>
        <time>2026-02-10T12:23:27.000Z</time>
      </trkpt>
      <trkpt lat="43.61786" lon="6.05407">
        <ele>680</ele>
        <time>2026-02-10T12:23:28.000Z</time>
      </trkpt>
      <trkpt lat="43.61785" lon="6.05405">
        <ele>680</ele>
        <time>2026-02-10T12:23:30.000Z</time>
      </trkpt>
      <trkpt lat="43.61786" lon="6.05404">
        <ele>680</ele>
        <time>2026-02-10T12:23:31.000Z</time>
      </trkpt>
      <trkpt lat="43.61786" lon="6.05402">
        <ele>679</ele>
        <time>2026-02-10T12:23:33.000Z</time>
      </trkpt>
      <trkpt lat="43.61786" lon="6.05401">
        <ele>679</ele>
        <time>2026-02-10T12:23:34.000Z</time>
      </trkpt>
      <trkpt lat="43.61786" lon="6.05399">
        <ele>679</ele>
        <time>2026-02-10T12:23:36.000Z</time>
      </trkpt>
      <trkpt lat="43.61786" lon="6.05397">
        <ele>679</ele>
        <time>2026-02-10T12:23:38.000Z</time>
      </trkpt>
      <trkpt lat="43.61786" lon="6.05396">
        <ele>679</ele>
        <time>2026-02-10T12:23:39.000Z</time>
      </trkpt>
      <trkpt lat="43.61786" lon="6.05394">
        <ele>679</ele>
        <time>2026-02-10T12:23:41.000Z</time>
      </trkpt>
      <trkpt lat="43.61786" lon="6.05392">
        <ele>679</ele>
        <time>2026-02-10T12:23:43.000Z</time>
      </trkpt>
      <trkpt lat="43.61786" lon="6.05391">
        <ele>679</ele>
        <time>2026-02-10T12:23:44.000Z</time>
      </trkpt>
      <trkpt lat="43.61786" lon="6.05389">
        <ele>679</ele>
        <time>2026-02-10T12:23:46.000Z</time>
      </trkpt>
      <trkpt lat="43.61786" lon="6.05388">
        <ele>679</ele>
        <time>2026-02-10T12:23:47.000Z</time>
      </trkpt>
      <trkpt lat="43.61786" lon="6.05386">
        <ele>679</ele>
        <time>2026-02-10T12:23:49.000Z</time>
      </trkpt>
      <trkpt lat="43.61786" lon="6.05384">
        <ele>679</ele>
        <time>2026-02-10T12:23:51.000Z</time>
      </trkpt>
      <trkpt lat="43.61786" lon="6.05382">
        <ele>678</ele>
        <time>2026-02-10T12:23:53.000Z</time>
      </trkpt>
      <trkpt lat="43.61786" lon="6.05381">
        <ele>678</ele>
        <time>2026-02-10T12:23:54.000Z</time>
      </trkpt>
      <trkpt lat="43.61786" lon="6.05379">
        <ele>678</ele>
        <time>2026-02-10T12:23:56.000Z</time>
      </trkpt>
      <trkpt lat="43.61786" lon="6.05378">
        <ele>678</ele>
        <time>2026-02-10T12:23:57.000Z</time>
      </trkpt>
      <trkpt lat="43.61787" lon="6.05376">
        <ele>677</ele>
        <time>2026-02-10T12:23:59.000Z</time>
      </trkpt>
      <trkpt lat="43.61787" lon="6.05375">
        <ele>677</ele>
        <time>2026-02-10T12:24:00.000Z</time>
      </trkpt>
      <trkpt lat="43.61787" lon="6.05374">
        <ele>677</ele>
        <time>2026-02-10T12:24:01.000Z</time>
      </trkpt>
      <trkpt lat="43.61787" lon="6.05372">
        <ele>677</ele>
        <time>2026-02-10T12:24:03.000Z</time>
      </trkpt>
      <trkpt lat="43.61787" lon="6.05371">
        <ele>677</ele>
        <time>2026-02-10T12:24:04.000Z</time>
      </trkpt>
      <trkpt lat="43.61787" lon="6.0537">
        <ele>677</ele>
        <time>2026-02-10T12:24:05.000Z</time>
      </trkpt>
      <trkpt lat="43.61787" lon="6.05368">
        <ele>677</ele>
        <time>2026-02-10T12:24:07.000Z</time>
      </trkpt>
      <trkpt lat="43.61787" lon="6.05366">
        <ele>676</ele>
        <time>2026-02-10T12:24:09.000Z</time>
      </trkpt>
      <trkpt lat="43.61786" lon="6.05365">
        <ele>676</ele>
        <time>2026-02-10T12:24:10.000Z</time>
      </trkpt>
      <trkpt lat="43.61786" lon="6.05363">
        <ele>676</ele>
        <time>2026-02-10T12:24:12.000Z</time>
      </trkpt>
      <trkpt lat="43.61786" lon="6.05362">
        <ele>676</ele>
        <time>2026-02-10T12:24:13.000Z</time>
      </trkpt>
      <trkpt lat="43.61786" lon="6.05361">
        <ele>676</ele>
        <time>2026-02-10T12:24:14.000Z</time>
      </trkpt>
      <trkpt lat="43.61786" lon="6.05359">
        <ele>675</ele>
        <time>2026-02-10T12:24:16.000Z</time>
      </trkpt>
      <trkpt lat="43.61786" lon="6.05358">
        <ele>675</ele>
        <time>2026-02-10T12:24:17.000Z</time>
      </trkpt>
      <trkpt lat="43.61786" lon="6.05357">
        <ele>675</ele>
        <time>2026-02-10T12:24:18.000Z</time>
      </trkpt>
      <trkpt lat="43.61786" lon="6.05355">
        <ele>675</ele>
        <time>2026-02-10T12:24:20.000Z</time>
      </trkpt>
      <trkpt lat="43.61786" lon="6.05354">
        <ele>675</ele>
        <time>2026-02-10T12:24:21.000Z</time>
      </trkpt>
      <trkpt lat="43.61786" lon="6.05353">
        <ele>675</ele>
        <time>2026-02-10T12:24:22.000Z</time>
      </trkpt>
      <trkpt lat="43.61786" lon="6.05351">
        <ele>675</ele>
        <time>2026-02-10T12:24:24.000Z</time>
      </trkpt>
      <trkpt lat="43.61786" lon="6.05349">
        <ele>675</ele>
        <time>2026-02-10T12:24:26.000Z</time>
      </trkpt>
      <trkpt lat="43.61786" lon="6.05348">
        <ele>675</ele>
        <time>2026-02-10T12:24:27.000Z</time>
      </trkpt>
      <trkpt lat="43.61786" lon="6.05346">
        <ele>675</ele>
        <time>2026-02-10T12:24:29.000Z</time>
      </trkpt>
      <trkpt lat="43.61786" lon="6.05345">
        <ele>675</ele>
        <time>2026-02-10T12:24:30.000Z</time>
      </trkpt>
      <trkpt lat="43.61785" lon="6.05343">
        <ele>675</ele>
        <time>2026-02-10T12:24:32.000Z</time>
      </trkpt>
      <trkpt lat="43.61785" lon="6.05342">
        <ele>674</ele>
        <time>2026-02-10T12:24:33.000Z</time>
      </trkpt>
      <trkpt lat="43.61785" lon="6.0534">
        <ele>674</ele>
        <time>2026-02-10T12:24:35.000Z</time>
      </trkpt>
      <trkpt lat="43.61785" lon="6.05339">
        <ele>674</ele>
        <time>2026-02-10T12:24:36.000Z</time>
      </trkpt>
      <trkpt lat="43.61785" lon="6.05337">
        <ele>673</ele>
        <time>2026-02-10T12:24:38.000Z</time>
      </trkpt>
      <trkpt lat="43.61785" lon="6.05335">
        <ele>673</ele>
        <time>2026-02-10T12:24:40.000Z</time>
      </trkpt>
      <trkpt lat="43.61786" lon="6.05334">
        <ele>673</ele>
        <time>2026-02-10T12:24:41.000Z</time>
      </trkpt>
      <trkpt lat="43.61786" lon="6.05332">
        <ele>672</ele>
        <time>2026-02-10T12:24:43.000Z</time>
      </trkpt>
      <trkpt lat="43.61786" lon="6.05331">
        <ele>672</ele>
        <time>2026-02-10T12:24:44.000Z</time>
      </trkpt>
      <trkpt lat="43.61786" lon="6.05329">
        <ele>672</ele>
        <time>2026-02-10T12:24:46.000Z</time>
      </trkpt>
      <trkpt lat="43.61787" lon="6.05327">
        <ele>672</ele>
        <time>2026-02-10T12:24:48.000Z</time>
      </trkpt>
      <trkpt lat="43.61786" lon="6.05326">
        <ele>672</ele>
        <time>2026-02-10T12:24:49.000Z</time>
      </trkpt>
      <trkpt lat="43.61787" lon="6.05325">
        <ele>672</ele>
        <time>2026-02-10T12:24:50.000Z</time>
      </trkpt>
      <trkpt lat="43.61786" lon="6.05323">
        <ele>672</ele>
        <time>2026-02-10T12:24:52.000Z</time>
      </trkpt>
      <trkpt lat="43.61786" lon="6.05322">
        <ele>671</ele>
        <time>2026-02-10T12:24:53.000Z</time>
      </trkpt>
      <trkpt lat="43.61786" lon="6.05321">
        <ele>671</ele>
        <time>2026-02-10T12:24:54.000Z</time>
      </trkpt>
      <trkpt lat="43.61786" lon="6.05319">
        <ele>670</ele>
        <time>2026-02-10T12:24:56.000Z</time>
      </trkpt>
      <trkpt lat="43.61787" lon="6.05318">
        <ele>670</ele>
        <time>2026-02-10T12:24:57.000Z</time>
      </trkpt>
      <trkpt lat="43.61787" lon="6.05316">
        <ele>670</ele>
        <time>2026-02-10T12:24:59.000Z</time>
      </trkpt>
      <trkpt lat="43.61787" lon="6.05315">
        <ele>670</ele>
        <time>2026-02-10T12:25:00.000Z</time>
      </trkpt>
      <trkpt lat="43.61787" lon="6.05313">
        <ele>670</ele>
        <time>2026-02-10T12:25:02.000Z</time>
      </trkpt>
      <trkpt lat="43.61787" lon="6.05311">
        <ele>670</ele>
        <time>2026-02-10T12:25:04.000Z</time>
      </trkpt>
      <trkpt lat="43.61788" lon="6.0531">
        <ele>669</ele>
        <time>2026-02-10T12:25:05.000Z</time>
      </trkpt>
      <trkpt lat="43.61788" lon="6.05309">
        <ele>669</ele>
        <time>2026-02-10T12:25:06.000Z</time>
      </trkpt>
      <trkpt lat="43.61788" lon="6.05307">
        <ele>669</ele>
        <time>2026-02-10T12:25:08.000Z</time>
      </trkpt>
      <trkpt lat="43.61788" lon="6.05306">
        <ele>669</ele>
        <time>2026-02-10T12:25:09.000Z</time>
      </trkpt>
      <trkpt lat="43.61788" lon="6.05305">
        <ele>669</ele>
        <time>2026-02-10T12:25:10.000Z</time>
      </trkpt>
      <trkpt lat="43.61787" lon="6.05304">
        <ele>669</ele>
        <time>2026-02-10T12:25:11.000Z</time>
      </trkpt>
      <trkpt lat="43.61787" lon="6.05302">
        <ele>668</ele>
        <time>2026-02-10T12:25:13.000Z</time>
      </trkpt>
      <trkpt lat="43.61787" lon="6.05301">
        <ele>668</ele>
        <time>2026-02-10T12:25:14.000Z</time>
      </trkpt>
      <trkpt lat="43.61786" lon="6.05299">
        <ele>668</ele>
        <time>2026-02-10T12:25:16.000Z</time>
      </trkpt>
      <trkpt lat="43.61786" lon="6.05298">
        <ele>667</ele>
        <time>2026-02-10T12:25:17.000Z</time>
      </trkpt>
      <trkpt lat="43.61786" lon="6.05296">
        <ele>667</ele>
        <time>2026-02-10T12:25:19.000Z</time>
      </trkpt>
      <trkpt lat="43.61786" lon="6.05295">
        <ele>667</ele>
        <time>2026-02-10T12:25:20.000Z</time>
      </trkpt>
      <trkpt lat="43.61786" lon="6.05293">
        <ele>667</ele>
        <time>2026-02-10T12:25:22.000Z</time>
      </trkpt>
      <trkpt lat="43.61786" lon="6.05292">
        <ele>667</ele>
        <time>2026-02-10T12:25:23.000Z</time>
      </trkpt>
      <trkpt lat="43.61786" lon="6.0529">
        <ele>667</ele>
        <time>2026-02-10T12:25:25.000Z</time>
      </trkpt>
      <trkpt lat="43.61786" lon="6.05288">
        <ele>667</ele>
        <time>2026-02-10T12:25:27.000Z</time>
      </trkpt>
      <trkpt lat="43.61786" lon="6.05287">
        <ele>666</ele>
        <time>2026-02-10T12:25:28.000Z</time>
      </trkpt>
      <trkpt lat="43.61786" lon="6.05285">
        <ele>666</ele>
        <time>2026-02-10T12:25:30.000Z</time>
      </trkpt>
      <trkpt lat="43.61786" lon="6.05283">
        <ele>666</ele>
        <time>2026-02-10T12:25:32.000Z</time>
      </trkpt>
      <trkpt lat="43.61786" lon="6.05282">
        <ele>666</ele>
        <time>2026-02-10T12:25:33.000Z</time>
      </trkpt>
      <trkpt lat="43.61786" lon="6.0528">
        <ele>665</ele>
        <time>2026-02-10T12:25:35.000Z</time>
      </trkpt>
      <trkpt lat="43.61786" lon="6.05278">
        <ele>665</ele>
        <time>2026-02-10T12:25:37.000Z</time>
      </trkpt>
      <trkpt lat="43.61786" lon="6.05277">
        <ele>665</ele>
        <time>2026-02-10T12:25:38.000Z</time>
      </trkpt>
      <trkpt lat="43.61786" lon="6.05275">
        <ele>664</ele>
        <time>2026-02-10T12:25:40.000Z</time>
      </trkpt>
      <trkpt lat="43.61786" lon="6.05274">
        <ele>664</ele>
        <time>2026-02-10T12:25:41.000Z</time>
      </trkpt>
      <trkpt lat="43.61786" lon="6.05272">
        <ele>664</ele>
        <time>2026-02-10T12:25:43.000Z</time>
      </trkpt>
      <trkpt lat="43.61786" lon="6.05271">
        <ele>664</ele>
        <time>2026-02-10T12:25:44.000Z</time>
      </trkpt>
      <trkpt lat="43.61786" lon="6.05269">
        <ele>664</ele>
        <time>2026-02-10T12:25:46.000Z</time>
      </trkpt>
      <trkpt lat="43.61786" lon="6.05267">
        <ele>664</ele>
        <time>2026-02-10T12:25:48.000Z</time>
      </trkpt>
      <trkpt lat="43.61786" lon="6.05265">
        <ele>664</ele>
        <time>2026-02-10T12:25:50.000Z</time>
      </trkpt>
      <trkpt lat="43.61786" lon="6.05264">
        <ele>664</ele>
        <time>2026-02-10T12:25:51.000Z</time>
      </trkpt>
      <trkpt lat="43.61786" lon="6.05262">
        <ele>664</ele>
        <time>2026-02-10T12:25:53.000Z</time>
      </trkpt>
      <trkpt lat="43.61786" lon="6.05261">
        <ele>664</ele>
        <time>2026-02-10T12:25:54.000Z</time>
      </trkpt>
      <trkpt lat="43.61786" lon="6.05259">
        <ele>663</ele>
        <time>2026-02-10T12:25:56.000Z</time>
      </trkpt>
      <trkpt lat="43.61786" lon="6.05257">
        <ele>663</ele>
        <time>2026-02-10T12:25:58.000Z</time>
      </trkpt>
      <trkpt lat="43.61787" lon="6.05255">
        <ele>663</ele>
        <time>2026-02-10T12:26:00.000Z</time>
      </trkpt>
      <trkpt lat="43.61787" lon="6.05254">
        <ele>663</ele>
        <time>2026-02-10T12:26:01.000Z</time>
      </trkpt>
      <trkpt lat="43.61787" lon="6.05252">
        <ele>663</ele>
        <time>2026-02-10T12:26:03.000Z</time>
      </trkpt>
      <trkpt lat="43.61787" lon="6.05251">
        <ele>663</ele>
        <time>2026-02-10T12:26:04.000Z</time>
      </trkpt>
      <trkpt lat="43.61787" lon="6.05249">
        <ele>662</ele>
        <time>2026-02-10T12:26:06.000Z</time>
      </trkpt>
      <trkpt lat="43.61787" lon="6.05247">
        <ele>662</ele>
        <time>2026-02-10T12:26:08.000Z</time>
      </trkpt>
      <trkpt lat="43.61787" lon="6.05246">
        <ele>662</ele>
        <time>2026-02-10T12:26:09.000Z</time>
      </trkpt>
      <trkpt lat="43.61787" lon="6.05244">
        <ele>662</ele>
        <time>2026-02-10T12:26:11.000Z</time>
      </trkpt>
      <trkpt lat="43.61787" lon="6.05243">
        <ele>662</ele>
        <time>2026-02-10T12:26:12.000Z</time>
      </trkpt>
      <trkpt lat="43.61787" lon="6.05241">
        <ele>662</ele>
        <time>2026-02-10T12:26:14.000Z</time>
      </trkpt>
      <trkpt lat="43.61787" lon="6.05239">
        <ele>662</ele>
        <time>2026-02-10T12:26:16.000Z</time>
      </trkpt>
      <trkpt lat="43.61787" lon="6.05237">
        <ele>662</ele>
        <time>2026-02-10T12:26:18.000Z</time>
      </trkpt>
      <trkpt lat="43.61787" lon="6.05235">
        <ele>662</ele>
        <time>2026-02-10T12:26:20.000Z</time>
      </trkpt>
      <trkpt lat="43.61788" lon="6.05233">
        <ele>661</ele>
        <time>2026-02-10T12:26:22.000Z</time>
      </trkpt>
      <trkpt lat="43.61788" lon="6.05232">
        <ele>661</ele>
        <time>2026-02-10T12:26:23.000Z</time>
      </trkpt>
      <trkpt lat="43.61788" lon="6.0523">
        <ele>661</ele>
        <time>2026-02-10T12:26:25.000Z</time>
      </trkpt>
      <trkpt lat="43.61788" lon="6.05229">
        <ele>661</ele>
        <time>2026-02-10T12:26:26.000Z</time>
      </trkpt>
      <trkpt lat="43.61788" lon="6.05227">
        <ele>661</ele>
        <time>2026-02-10T12:26:28.000Z</time>
      </trkpt>
      <trkpt lat="43.61788" lon="6.05226">
        <ele>661</ele>
        <time>2026-02-10T12:26:29.000Z</time>
      </trkpt>
      <trkpt lat="43.61789" lon="6.05224">
        <ele>660</ele>
        <time>2026-02-10T12:26:31.000Z</time>
      </trkpt>
      <trkpt lat="43.61789" lon="6.05222">
        <ele>660</ele>
        <time>2026-02-10T12:26:33.000Z</time>
      </trkpt>
      <trkpt lat="43.61789" lon="6.05221">
        <ele>660</ele>
        <time>2026-02-10T12:26:34.000Z</time>
      </trkpt>
      <trkpt lat="43.61789" lon="6.05219">
        <ele>660</ele>
        <time>2026-02-10T12:26:36.000Z</time>
      </trkpt>
      <trkpt lat="43.6179" lon="6.05217">
        <ele>660</ele>
        <time>2026-02-10T12:26:38.000Z</time>
      </trkpt>
      <trkpt lat="43.6179" lon="6.05215">
        <ele>660</ele>
        <time>2026-02-10T12:26:40.000Z</time>
      </trkpt>
      <trkpt lat="43.6179" lon="6.05214">
        <ele>660</ele>
        <time>2026-02-10T12:26:41.000Z</time>
      </trkpt>
      <trkpt lat="43.6179" lon="6.05212">
        <ele>660</ele>
        <time>2026-02-10T12:26:43.000Z</time>
      </trkpt>
      <trkpt lat="43.6179" lon="6.0521">
        <ele>660</ele>
        <time>2026-02-10T12:26:45.000Z</time>
      </trkpt>
      <trkpt lat="43.6179" lon="6.05209">
        <ele>660</ele>
        <time>2026-02-10T12:26:46.000Z</time>
      </trkpt>
      <trkpt lat="43.6179" lon="6.05207">
        <ele>660</ele>
        <time>2026-02-10T12:26:48.000Z</time>
      </trkpt>
      <trkpt lat="43.6179" lon="6.05205">
        <ele>660</ele>
        <time>2026-02-10T12:26:50.000Z</time>
      </trkpt>
      <trkpt lat="43.6179" lon="6.05204">
        <ele>660</ele>
        <time>2026-02-10T12:26:51.000Z</time>
      </trkpt>
      <trkpt lat="43.6179" lon="6.05202">
        <ele>660</ele>
        <time>2026-02-10T12:26:53.000Z</time>
      </trkpt>
      <trkpt lat="43.6179" lon="6.052">
        <ele>660</ele>
        <time>2026-02-10T12:26:55.000Z</time>
      </trkpt>
      <trkpt lat="43.6179" lon="6.05199">
        <ele>660</ele>
        <time>2026-02-10T12:26:56.000Z</time>
      </trkpt>
      <trkpt lat="43.6179" lon="6.05197">
        <ele>660</ele>
        <time>2026-02-10T12:26:58.000Z</time>
      </trkpt>
      <trkpt lat="43.6179" lon="6.05196">
        <ele>660</ele>
        <time>2026-02-10T12:26:59.000Z</time>
      </trkpt>
      <trkpt lat="43.61789" lon="6.05194">
        <ele>660</ele>
        <time>2026-02-10T12:27:01.000Z</time>
      </trkpt>
      <trkpt lat="43.61789" lon="6.05193">
        <ele>660</ele>
        <time>2026-02-10T12:27:02.000Z</time>
      </trkpt>
      <trkpt lat="43.61789" lon="6.05191">
        <ele>660</ele>
        <time>2026-02-10T12:27:04.000Z</time>
      </trkpt>
      <trkpt lat="43.61789" lon="6.05189">
        <ele>659</ele>
        <time>2026-02-10T12:27:06.000Z</time>
      </trkpt>
      <trkpt lat="43.6179" lon="6.05187">
        <ele>659</ele>
        <time>2026-02-10T12:27:08.000Z</time>
      </trkpt>
      <trkpt lat="43.61789" lon="6.05185">
        <ele>659</ele>
        <time>2026-02-10T12:27:10.000Z</time>
      </trkpt>
      <trkpt lat="43.61789" lon="6.05184">
        <ele>659</ele>
        <time>2026-02-10T12:27:11.000Z</time>
      </trkpt>
      <trkpt lat="43.61789" lon="6.05182">
        <ele>659</ele>
        <time>2026-02-10T12:27:13.000Z</time>
      </trkpt>
      <trkpt lat="43.61789" lon="6.05181">
        <ele>659</ele>
        <time>2026-02-10T12:27:14.000Z</time>
      </trkpt>
      <trkpt lat="43.61789" lon="6.05179">
        <ele>659</ele>
        <time>2026-02-10T12:27:16.000Z</time>
      </trkpt>
      <trkpt lat="43.61789" lon="6.05177">
        <ele>659</ele>
        <time>2026-02-10T12:27:18.000Z</time>
      </trkpt>
      <trkpt lat="43.61789" lon="6.05176">
        <ele>659</ele>
        <time>2026-02-10T12:27:19.000Z</time>
      </trkpt>
      <trkpt lat="43.61789" lon="6.05175">
        <ele>659</ele>
        <time>2026-02-10T12:27:20.000Z</time>
      </trkpt>
      <trkpt lat="43.6179" lon="6.05173">
        <ele>659</ele>
        <time>2026-02-10T12:27:22.000Z</time>
      </trkpt>
      <trkpt lat="43.6179" lon="6.05171">
        <ele>659</ele>
        <time>2026-02-10T12:27:24.000Z</time>
      </trkpt>
      <trkpt lat="43.6179" lon="6.0517">
        <ele>659</ele>
        <time>2026-02-10T12:27:25.000Z</time>
      </trkpt>
      <trkpt lat="43.6179" lon="6.05168">
        <ele>659</ele>
        <time>2026-02-10T12:27:27.000Z</time>
      </trkpt>
      <trkpt lat="43.6179" lon="6.05166">
        <ele>659</ele>
        <time>2026-02-10T12:27:29.000Z</time>
      </trkpt>
      <trkpt lat="43.6179" lon="6.05165">
        <ele>659</ele>
        <time>2026-02-10T12:27:30.000Z</time>
      </trkpt>
      <trkpt lat="43.6179" lon="6.05163">
        <ele>659</ele>
        <time>2026-02-10T12:27:32.000Z</time>
      </trkpt>
      <trkpt lat="43.6179" lon="6.05161">
        <ele>659</ele>
        <time>2026-02-10T12:27:34.000Z</time>
      </trkpt>
      <trkpt lat="43.61789" lon="6.05159">
        <ele>659</ele>
        <time>2026-02-10T12:27:36.000Z</time>
      </trkpt>
      <trkpt lat="43.61789" lon="6.05157">
        <ele>659</ele>
        <time>2026-02-10T12:27:38.000Z</time>
      </trkpt>
      <trkpt lat="43.61789" lon="6.05156">
        <ele>659</ele>
        <time>2026-02-10T12:27:39.000Z</time>
      </trkpt>
      <trkpt lat="43.61789" lon="6.05154">
        <ele>659</ele>
        <time>2026-02-10T12:27:41.000Z</time>
      </trkpt>
      <trkpt lat="43.61789" lon="6.05152">
        <ele>659</ele>
        <time>2026-02-10T12:27:43.000Z</time>
      </trkpt>
      <trkpt lat="43.61788" lon="6.05151">
        <ele>659</ele>
        <time>2026-02-10T12:27:44.000Z</time>
      </trkpt>
      <trkpt lat="43.61788" lon="6.05149">
        <ele>659</ele>
        <time>2026-02-10T12:27:46.000Z</time>
      </trkpt>
      <trkpt lat="43.61788" lon="6.05147">
        <ele>659</ele>
        <time>2026-02-10T12:27:48.000Z</time>
      </trkpt>
      <trkpt lat="43.61788" lon="6.05145">
        <ele>659</ele>
        <time>2026-02-10T12:27:50.000Z</time>
      </trkpt>
      <trkpt lat="43.61789" lon="6.05144">
        <ele>659</ele>
        <time>2026-02-10T12:27:51.000Z</time>
      </trkpt>
      <trkpt lat="43.61788" lon="6.05142">
        <ele>660</ele>
        <time>2026-02-10T12:28:03.000Z</time>
      </trkpt>
      <trkpt lat="43.61789" lon="6.05141">
        <ele>660</ele>
        <time>2026-02-10T12:28:04.000Z</time>
      </trkpt>
      <trkpt lat="43.61789" lon="6.05139">
        <ele>660</ele>
        <time>2026-02-10T12:28:06.000Z</time>
      </trkpt>
      <trkpt lat="43.61789" lon="6.05137">
        <ele>660</ele>
        <time>2026-02-10T12:28:08.000Z</time>
      </trkpt>
      <trkpt lat="43.61789" lon="6.05135">
        <ele>660</ele>
        <time>2026-02-10T12:28:10.000Z</time>
      </trkpt>
      <trkpt lat="43.61789" lon="6.05134">
        <ele>660</ele>
        <time>2026-02-10T12:28:11.000Z</time>
      </trkpt>
      <trkpt lat="43.61789" lon="6.05132">
        <ele>660</ele>
        <time>2026-02-10T12:28:13.000Z</time>
      </trkpt>
      <trkpt lat="43.61789" lon="6.05131">
        <ele>660</ele>
        <time>2026-02-10T12:28:14.000Z</time>
      </trkpt>
      <trkpt lat="43.61788" lon="6.05129">
        <ele>660</ele>
        <time>2026-02-10T12:28:16.000Z</time>
      </trkpt>
      <trkpt lat="43.61788" lon="6.05128">
        <ele>660</ele>
        <time>2026-02-10T12:28:17.000Z</time>
      </trkpt>
      <trkpt lat="43.61789" lon="6.05126">
        <ele>660</ele>
        <time>2026-02-10T12:28:19.000Z</time>
      </trkpt>
      <trkpt lat="43.61789" lon="6.05125">
        <ele>660</ele>
        <time>2026-02-10T12:28:20.000Z</time>
      </trkpt>
      <trkpt lat="43.61789" lon="6.05123">
        <ele>660</ele>
        <time>2026-02-10T12:28:22.000Z</time>
      </trkpt>
      <trkpt lat="43.61788" lon="6.05121">
        <ele>660</ele>
        <time>2026-02-10T12:28:24.000Z</time>
      </trkpt>
      <trkpt lat="43.61788" lon="6.0512">
        <ele>660</ele>
        <time>2026-02-10T12:28:25.000Z</time>
      </trkpt>
      <trkpt lat="43.61788" lon="6.05118">
        <ele>660</ele>
        <time>2026-02-10T12:28:27.000Z</time>
      </trkpt>
      <trkpt lat="43.61789" lon="6.05117">
        <ele>660</ele>
        <time>2026-02-10T12:28:28.000Z</time>
      </trkpt>
      <trkpt lat="43.61789" lon="6.05115">
        <ele>660</ele>
        <time>2026-02-10T12:28:30.000Z</time>
      </trkpt>
      <trkpt lat="43.61789" lon="6.05114">
        <ele>660</ele>
        <time>2026-02-10T12:28:31.000Z</time>
      </trkpt>
      <trkpt lat="43.61789" lon="6.05112">
        <ele>660</ele>
        <time>2026-02-10T12:28:33.000Z</time>
      </trkpt>
      <trkpt lat="43.61789" lon="6.0511">
        <ele>660</ele>
        <time>2026-02-10T12:28:35.000Z</time>
      </trkpt>
      <trkpt lat="43.61789" lon="6.05109">
        <ele>660</ele>
        <time>2026-02-10T12:28:36.000Z</time>
      </trkpt>
      <trkpt lat="43.61789" lon="6.05107">
        <ele>660</ele>
        <time>2026-02-10T12:28:38.000Z</time>
      </trkpt>
      <trkpt lat="43.6179" lon="6.05105">
        <ele>660</ele>
        <time>2026-02-10T12:28:40.000Z</time>
      </trkpt>
      <trkpt lat="43.61789" lon="6.05103">
        <ele>660</ele>
        <time>2026-02-10T12:28:42.000Z</time>
      </trkpt>
      <trkpt lat="43.61789" lon="6.05102">
        <ele>660</ele>
        <time>2026-02-10T12:28:43.000Z</time>
      </trkpt>
      <trkpt lat="43.61788" lon="6.051">
        <ele>660</ele>
        <time>2026-02-10T12:28:45.000Z</time>
      </trkpt>
      <trkpt lat="43.61788" lon="6.05099">
        <ele>660</ele>
        <time>2026-02-10T12:28:46.000Z</time>
      </trkpt>
      <trkpt lat="43.61788" lon="6.05097">
        <ele>660</ele>
        <time>2026-02-10T12:28:48.000Z</time>
      </trkpt>
      <trkpt lat="43.61787" lon="6.05095">
        <ele>660</ele>
        <time>2026-02-10T12:28:50.000Z</time>
      </trkpt>
      <trkpt lat="43.61787" lon="6.05093">
        <ele>660</ele>
        <time>2026-02-10T12:28:52.000Z</time>
      </trkpt>
      <trkpt lat="43.61786" lon="6.05092">
        <ele>660</ele>
        <time>2026-02-10T12:28:53.000Z</time>
      </trkpt>
      <trkpt lat="43.61786" lon="6.0509">
        <ele>660</ele>
        <time>2026-02-10T12:28:55.000Z</time>
      </trkpt>
      <trkpt lat="43.61786" lon="6.05089">
        <ele>660</ele>
        <time>2026-02-10T12:28:56.000Z</time>
      </trkpt>
      <trkpt lat="43.61786" lon="6.05087">
        <ele>660</ele>
        <time>2026-02-10T12:28:58.000Z</time>
      </trkpt>
      <trkpt lat="43.61786" lon="6.05085">
        <ele>660</ele>
        <time>2026-02-10T12:29:00.000Z</time>
      </trkpt>
      <trkpt lat="43.61786" lon="6.05084">
        <ele>660</ele>
        <time>2026-02-10T12:29:01.000Z</time>
      </trkpt>
      <trkpt lat="43.61786" lon="6.05082">
        <ele>660</ele>
        <time>2026-02-10T12:29:03.000Z</time>
      </trkpt>
      <trkpt lat="43.61786" lon="6.0508">
        <ele>660</ele>
        <time>2026-02-10T12:29:05.000Z</time>
      </trkpt>
      <trkpt lat="43.61785" lon="6.05079">
        <ele>660</ele>
        <time>2026-02-10T12:29:06.000Z</time>
      </trkpt>
      <trkpt lat="43.61785" lon="6.05077">
        <ele>660</ele>
        <time>2026-02-10T12:29:08.000Z</time>
      </trkpt>
      <trkpt lat="43.61785" lon="6.05075">
        <ele>660</ele>
        <time>2026-02-10T12:29:10.000Z</time>
      </trkpt>
      <trkpt lat="43.61785" lon="6.05074">
        <ele>660</ele>
        <time>2026-02-10T12:29:11.000Z</time>
      </trkpt>
      <trkpt lat="43.61785" lon="6.05072">
        <ele>660</ele>
        <time>2026-02-10T12:29:13.000Z</time>
      </trkpt>
      <trkpt lat="43.61784" lon="6.05071">
        <ele>660</ele>
        <time>2026-02-10T12:29:14.000Z</time>
      </trkpt>
      <trkpt lat="43.61784" lon="6.05069">
        <ele>660</ele>
        <time>2026-02-10T12:29:16.000Z</time>
      </trkpt>
      <trkpt lat="43.61784" lon="6.05067">
        <ele>659</ele>
        <time>2026-02-10T12:29:18.000Z</time>
      </trkpt>
      <trkpt lat="43.61784" lon="6.05066">
        <ele>659</ele>
        <time>2026-02-10T12:29:19.000Z</time>
      </trkpt>
      <trkpt lat="43.61783" lon="6.05064">
        <ele>659</ele>
        <time>2026-02-10T12:29:21.000Z</time>
      </trkpt>
      <trkpt lat="43.61783" lon="6.05062">
        <ele>659</ele>
        <time>2026-02-10T12:29:23.000Z</time>
      </trkpt>
      <trkpt lat="43.61783" lon="6.05061">
        <ele>659</ele>
        <time>2026-02-10T12:29:24.000Z</time>
      </trkpt>
      <trkpt lat="43.61783" lon="6.0506">
        <ele>659</ele>
        <time>2026-02-10T12:29:25.000Z</time>
      </trkpt>
      <trkpt lat="43.61782" lon="6.05058">
        <ele>659</ele>
        <time>2026-02-10T12:29:27.000Z</time>
      </trkpt>
      <trkpt lat="43.61782" lon="6.05056">
        <ele>659</ele>
        <time>2026-02-10T12:29:29.000Z</time>
      </trkpt>
      <trkpt lat="43.61782" lon="6.05055">
        <ele>659</ele>
        <time>2026-02-10T12:29:30.000Z</time>
      </trkpt>
      <trkpt lat="43.61782" lon="6.05053">
        <ele>659</ele>
        <time>2026-02-10T12:29:32.000Z</time>
      </trkpt>
      <trkpt lat="43.61782" lon="6.05051">
        <ele>659</ele>
        <time>2026-02-10T12:29:34.000Z</time>
      </trkpt>
      <trkpt lat="43.61782" lon="6.05049">
        <ele>659</ele>
        <time>2026-02-10T12:29:36.000Z</time>
      </trkpt>
      <trkpt lat="43.61782" lon="6.05047">
        <ele>659</ele>
        <time>2026-02-10T12:29:38.000Z</time>
      </trkpt>
      <trkpt lat="43.61782" lon="6.05045">
        <ele>659</ele>
        <time>2026-02-10T12:29:40.000Z</time>
      </trkpt>
      <trkpt lat="43.61782" lon="6.05044">
        <ele>659</ele>
        <time>2026-02-10T12:29:41.000Z</time>
      </trkpt>
      <trkpt lat="43.61781" lon="6.05043">
        <ele>659</ele>
        <time>2026-02-10T12:29:42.000Z</time>
      </trkpt>
      <trkpt lat="43.61781" lon="6.05041">
        <ele>659</ele>
        <time>2026-02-10T12:29:44.000Z</time>
      </trkpt>
      <trkpt lat="43.61781" lon="6.0504">
        <ele>659</ele>
        <time>2026-02-10T12:29:45.000Z</time>
      </trkpt>
      <trkpt lat="43.61781" lon="6.05038">
        <ele>659</ele>
        <time>2026-02-10T12:29:47.000Z</time>
      </trkpt>
      <trkpt lat="43.61781" lon="6.05037">
        <ele>659</ele>
        <time>2026-02-10T12:29:48.000Z</time>
      </trkpt>
      <trkpt lat="43.61781" lon="6.05035">
        <ele>659</ele>
        <time>2026-02-10T12:29:50.000Z</time>
      </trkpt>
      <trkpt lat="43.61781" lon="6.05033">
        <ele>659</ele>
        <time>2026-02-10T12:29:52.000Z</time>
      </trkpt>
      <trkpt lat="43.61781" lon="6.05031">
        <ele>658</ele>
        <time>2026-02-10T12:29:54.000Z</time>
      </trkpt>
      <trkpt lat="43.61781" lon="6.0503">
        <ele>658</ele>
        <time>2026-02-10T12:29:55.000Z</time>
      </trkpt>
      <trkpt lat="43.61781" lon="6.05029">
        <ele>658</ele>
        <time>2026-02-10T12:29:56.000Z</time>
      </trkpt>
      <trkpt lat="43.61781" lon="6.05028">
        <ele>658</ele>
        <time>2026-02-10T12:29:57.000Z</time>
      </trkpt>
      <trkpt lat="43.61781" lon="6.05026">
        <ele>657</ele>
        <time>2026-02-10T12:29:59.000Z</time>
      </trkpt>
      <trkpt lat="43.61781" lon="6.05025">
        <ele>657</ele>
        <time>2026-02-10T12:30:00.000Z</time>
      </trkpt>
      <trkpt lat="43.61781" lon="6.05024">
        <ele>657</ele>
        <time>2026-02-10T12:30:01.000Z</time>
      </trkpt>
      <trkpt lat="43.61781" lon="6.05023">
        <ele>657</ele>
        <time>2026-02-10T12:30:02.000Z</time>
      </trkpt>
      <trkpt lat="43.61781" lon="6.05021">
        <ele>657</ele>
        <time>2026-02-10T12:30:04.000Z</time>
      </trkpt>
      <trkpt lat="43.61781" lon="6.0502">
        <ele>657</ele>
        <time>2026-02-10T12:30:05.000Z</time>
      </trkpt>
      <trkpt lat="43.61781" lon="6.05018">
        <ele>657</ele>
        <time>2026-02-10T12:30:07.000Z</time>
      </trkpt>
      <trkpt lat="43.61781" lon="6.05016">
        <ele>657</ele>
        <time>2026-02-10T12:30:09.000Z</time>
      </trkpt>
      <trkpt lat="43.61781" lon="6.05015">
        <ele>657</ele>
        <time>2026-02-10T12:30:10.000Z</time>
      </trkpt>
      <trkpt lat="43.61781" lon="6.05013">
        <ele>657</ele>
        <time>2026-02-10T12:30:12.000Z</time>
      </trkpt>
      <trkpt lat="43.61781" lon="6.05012">
        <ele>657</ele>
        <time>2026-02-10T12:30:13.000Z</time>
      </trkpt>
      <trkpt lat="43.6178" lon="6.05011">
        <ele>657</ele>
        <time>2026-02-10T12:30:14.000Z</time>
      </trkpt>
      <trkpt lat="43.61781" lon="6.05009">
        <ele>657</ele>
        <time>2026-02-10T12:30:16.000Z</time>
      </trkpt>
      <trkpt lat="43.61781" lon="6.05008">
        <ele>657</ele>
        <time>2026-02-10T12:30:17.000Z</time>
      </trkpt>
      <trkpt lat="43.61781" lon="6.05005">
        <ele>657</ele>
        <time>2026-02-10T12:30:19.000Z</time>
      </trkpt>
      <trkpt lat="43.61781" lon="6.05004">
        <ele>657</ele>
        <time>2026-02-10T12:30:20.000Z</time>
      </trkpt>
      <trkpt lat="43.61781" lon="6.05002">
        <ele>657</ele>
        <time>2026-02-10T12:30:22.000Z</time>
      </trkpt>
      <trkpt lat="43.61781" lon="6.05">
        <ele>657</ele>
        <time>2026-02-10T12:30:24.000Z</time>
      </trkpt>
      <trkpt lat="43.61781" lon="6.04999">
        <ele>657</ele>
        <time>2026-02-10T12:30:25.000Z</time>
      </trkpt>
      <trkpt lat="43.61781" lon="6.04997">
        <ele>656</ele>
        <time>2026-02-10T12:30:27.000Z</time>
      </trkpt>
      <trkpt lat="43.61781" lon="6.04996">
        <ele>656</ele>
        <time>2026-02-10T12:30:28.000Z</time>
      </trkpt>
      <trkpt lat="43.61781" lon="6.04994">
        <ele>656</ele>
        <time>2026-02-10T12:30:30.000Z</time>
      </trkpt>
      <trkpt lat="43.61781" lon="6.04993">
        <ele>656</ele>
        <time>2026-02-10T12:30:31.000Z</time>
      </trkpt>
      <trkpt lat="43.61781" lon="6.04992">
        <ele>656</ele>
        <time>2026-02-10T12:30:32.000Z</time>
      </trkpt>
      <trkpt lat="43.61781" lon="6.0499">
        <ele>656</ele>
        <time>2026-02-10T12:30:34.000Z</time>
      </trkpt>
      <trkpt lat="43.6178" lon="6.04988">
        <ele>656</ele>
        <time>2026-02-10T12:30:36.000Z</time>
      </trkpt>
      <trkpt lat="43.6178" lon="6.04987">
        <ele>656</ele>
        <time>2026-02-10T12:30:37.000Z</time>
      </trkpt>
      <trkpt lat="43.61779" lon="6.04986">
        <ele>655</ele>
        <time>2026-02-10T12:30:38.000Z</time>
      </trkpt>
      <trkpt lat="43.61779" lon="6.04985">
        <ele>655</ele>
        <time>2026-02-10T12:30:39.000Z</time>
      </trkpt>
      <trkpt lat="43.61778" lon="6.04983">
        <ele>655</ele>
        <time>2026-02-10T12:30:41.000Z</time>
      </trkpt>
      <trkpt lat="43.61777" lon="6.04982">
        <ele>655</ele>
        <time>2026-02-10T12:30:42.000Z</time>
      </trkpt>
      <trkpt lat="43.61777" lon="6.04981">
        <ele>655</ele>
        <time>2026-02-10T12:30:43.000Z</time>
      </trkpt>
      <trkpt lat="43.61776" lon="6.04979">
        <ele>655</ele>
        <time>2026-02-10T12:30:45.000Z</time>
      </trkpt>
      <trkpt lat="43.61776" lon="6.04978">
        <ele>655</ele>
        <time>2026-02-10T12:30:46.000Z</time>
      </trkpt>
      <trkpt lat="43.61776" lon="6.04977">
        <ele>655</ele>
        <time>2026-02-10T12:30:47.000Z</time>
      </trkpt>
      <trkpt lat="43.61776" lon="6.04975">
        <ele>655</ele>
        <time>2026-02-10T12:30:49.000Z</time>
      </trkpt>
      <trkpt lat="43.61775" lon="6.04974">
        <ele>655</ele>
        <time>2026-02-10T12:30:50.000Z</time>
      </trkpt>
      <trkpt lat="43.61775" lon="6.04972">
        <ele>655</ele>
        <time>2026-02-10T12:30:52.000Z</time>
      </trkpt>
      <trkpt lat="43.61774" lon="6.04971">
        <ele>655</ele>
        <time>2026-02-10T12:30:53.000Z</time>
      </trkpt>
      <trkpt lat="43.61773" lon="6.0497">
        <ele>655</ele>
        <time>2026-02-10T12:30:54.000Z</time>
      </trkpt>
      <trkpt lat="43.61773" lon="6.04968">
        <ele>655</ele>
        <time>2026-02-10T12:30:56.000Z</time>
      </trkpt>
      <trkpt lat="43.61772" lon="6.04967">
        <ele>655</ele>
        <time>2026-02-10T12:30:57.000Z</time>
      </trkpt>
      <trkpt lat="43.61772" lon="6.04965">
        <ele>655</ele>
        <time>2026-02-10T12:30:59.000Z</time>
      </trkpt>
      <trkpt lat="43.61771" lon="6.04963">
        <ele>655</ele>
        <time>2026-02-10T12:31:01.000Z</time>
      </trkpt>
      <trkpt lat="43.61771" lon="6.04962">
        <ele>655</ele>
        <time>2026-02-10T12:31:02.000Z</time>
      </trkpt>
      <trkpt lat="43.6177" lon="6.0496">
        <ele>655</ele>
        <time>2026-02-10T12:31:04.000Z</time>
      </trkpt>
      <trkpt lat="43.6177" lon="6.04959">
        <ele>655</ele>
        <time>2026-02-10T12:31:05.000Z</time>
      </trkpt>
      <trkpt lat="43.6177" lon="6.04957">
        <ele>655</ele>
        <time>2026-02-10T12:31:07.000Z</time>
      </trkpt>
      <trkpt lat="43.61769" lon="6.04956">
        <ele>655</ele>
        <time>2026-02-10T12:31:08.000Z</time>
      </trkpt>
      <trkpt lat="43.61769" lon="6.04955">
        <ele>655</ele>
        <time>2026-02-10T12:31:09.000Z</time>
      </trkpt>
      <trkpt lat="43.61769" lon="6.04954">
        <ele>655</ele>
        <time>2026-02-10T12:31:10.000Z</time>
      </trkpt>
      <trkpt lat="43.61769" lon="6.04953">
        <ele>655</ele>
        <time>2026-02-10T12:31:11.000Z</time>
      </trkpt>
      <trkpt lat="43.61768" lon="6.04952">
        <ele>655</ele>
        <time>2026-02-10T12:31:12.000Z</time>
      </trkpt>
      <trkpt lat="43.61768" lon="6.0495">
        <ele>655</ele>
        <time>2026-02-10T12:31:14.000Z</time>
      </trkpt>
      <trkpt lat="43.61768" lon="6.04949">
        <ele>655</ele>
        <time>2026-02-10T12:31:15.000Z</time>
      </trkpt>
      <trkpt lat="43.61768" lon="6.04948">
        <ele>655</ele>
        <time>2026-02-10T12:31:16.000Z</time>
      </trkpt>
      <trkpt lat="43.61768" lon="6.04947">
        <ele>655</ele>
        <time>2026-02-10T12:31:17.000Z</time>
      </trkpt>
      <trkpt lat="43.61768" lon="6.04946">
        <ele>655</ele>
        <time>2026-02-10T12:31:18.000Z</time>
      </trkpt>
      <trkpt lat="43.61769" lon="6.04944">
        <ele>655</ele>
        <time>2026-02-10T12:31:20.000Z</time>
      </trkpt>
      <trkpt lat="43.61769" lon="6.04943">
        <ele>655</ele>
        <time>2026-02-10T12:31:21.000Z</time>
      </trkpt>
      <trkpt lat="43.61769" lon="6.04942">
        <ele>655</ele>
        <time>2026-02-10T12:31:22.000Z</time>
      </trkpt>
      <trkpt lat="43.61769" lon="6.04942">
        <ele>655</ele>
        <time>2026-02-10T12:31:22.000Z</time>
      </trkpt>
      <trkpt lat="43.61768" lon="6.0494">
        <ele>655</ele>
        <time>2026-02-10T12:31:24.000Z</time>
      </trkpt>
      <trkpt lat="43.61768" lon="6.04939">
        <ele>655</ele>
        <time>2026-02-10T12:31:25.000Z</time>
      </trkpt>
      <trkpt lat="43.61768" lon="6.04938">
        <ele>655</ele>
        <time>2026-02-10T12:31:26.000Z</time>
      </trkpt>
      <trkpt lat="43.61768" lon="6.04937">
        <ele>655</ele>
        <time>2026-02-10T12:31:27.000Z</time>
      </trkpt>
      <trkpt lat="43.61768" lon="6.04935">
        <ele>655</ele>
        <time>2026-02-10T12:31:29.000Z</time>
      </trkpt>
      <trkpt lat="43.61767" lon="6.04934">
        <ele>655</ele>
        <time>2026-02-10T12:31:30.000Z</time>
      </trkpt>
      <trkpt lat="43.61767" lon="6.04933">
        <ele>655</ele>
        <time>2026-02-10T12:31:31.000Z</time>
      </trkpt>
      <trkpt lat="43.61767" lon="6.04932">
        <ele>655</ele>
        <time>2026-02-10T12:31:32.000Z</time>
      </trkpt>
      <trkpt lat="43.61767" lon="6.0493">
        <ele>656</ele>
        <time>2026-02-10T12:31:44.000Z</time>
      </trkpt>
      <trkpt lat="43.61766" lon="6.04929">
        <ele>656</ele>
        <time>2026-02-10T12:31:45.000Z</time>
      </trkpt>
      <trkpt lat="43.61766" lon="6.04927">
        <ele>656</ele>
        <time>2026-02-10T12:31:47.000Z</time>
      </trkpt>
      <trkpt lat="43.61766" lon="6.04926">
        <ele>656</ele>
        <time>2026-02-10T12:31:48.000Z</time>
      </trkpt>
      <trkpt lat="43.61765" lon="6.04924">
        <ele>656</ele>
        <time>2026-02-10T12:31:50.000Z</time>
      </trkpt>
      <trkpt lat="43.61767" lon="6.04923">
        <ele>656</ele>
        <time>2026-02-10T12:31:52.000Z</time>
      </trkpt>
      <trkpt lat="43.61766" lon="6.04922">
        <ele>656</ele>
        <time>2026-02-10T12:31:53.000Z</time>
      </trkpt>
      <trkpt lat="43.61766" lon="6.04921">
        <ele>656</ele>
        <time>2026-02-10T12:31:54.000Z</time>
      </trkpt>
      <trkpt lat="43.61765" lon="6.04919">
        <ele>657</ele>
        <time>2026-02-10T12:32:06.000Z</time>
      </trkpt>
      <trkpt lat="43.61765" lon="6.04918">
        <ele>657</ele>
        <time>2026-02-10T12:32:07.000Z</time>
      </trkpt>
      <trkpt lat="43.61765" lon="6.04917">
        <ele>657</ele>
        <time>2026-02-10T12:32:08.000Z</time>
      </trkpt>
      <trkpt lat="43.61764" lon="6.04916">
        <ele>657</ele>
        <time>2026-02-10T12:32:09.000Z</time>
      </trkpt>
      <trkpt lat="43.61764" lon="6.04916">
        <ele>657</ele>
        <time>2026-02-10T12:32:09.000Z</time>
      </trkpt>
      <trkpt lat="43.61764" lon="6.04915">
        <ele>657</ele>
        <time>2026-02-10T12:32:10.000Z</time>
      </trkpt>
      <trkpt lat="43.61764" lon="6.04914">
        <ele>657</ele>
        <time>2026-02-10T12:32:11.000Z</time>
      </trkpt>
      <trkpt lat="43.61764" lon="6.04913">
        <ele>658</ele>
        <time>2026-02-10T12:32:22.000Z</time>
      </trkpt>
      <trkpt lat="43.61763" lon="6.04912">
        <ele>658</ele>
        <time>2026-02-10T12:32:23.000Z</time>
      </trkpt>
      <trkpt lat="43.61763" lon="6.04911">
        <ele>658</ele>
        <time>2026-02-10T12:32:24.000Z</time>
      </trkpt>
      <trkpt lat="43.61762" lon="6.0491">
        <ele>658</ele>
        <time>2026-02-10T12:32:25.000Z</time>
      </trkpt>
      <trkpt lat="43.61762" lon="6.04909">
        <ele>658</ele>
        <time>2026-02-10T12:32:26.000Z</time>
      </trkpt>
      <trkpt lat="43.61762" lon="6.04907">
        <ele>658</ele>
        <time>2026-02-10T12:32:28.000Z</time>
      </trkpt>
      <trkpt lat="43.61762" lon="6.04906">
        <ele>658</ele>
        <time>2026-02-10T12:32:29.000Z</time>
      </trkpt>
      <trkpt lat="43.61762" lon="6.04905">
        <ele>658</ele>
        <time>2026-02-10T12:32:30.000Z</time>
      </trkpt>
      <trkpt lat="43.61762" lon="6.04904">
        <ele>658</ele>
        <time>2026-02-10T12:32:31.000Z</time>
      </trkpt>
      <trkpt lat="43.61762" lon="6.04903">
        <ele>659</ele>
        <time>2026-02-10T12:32:42.000Z</time>
      </trkpt>
      <trkpt lat="43.61761" lon="6.04902">
        <ele>659</ele>
        <time>2026-02-10T12:32:43.000Z</time>
      </trkpt>
      <trkpt lat="43.61761" lon="6.049">
        <ele>659</ele>
        <time>2026-02-10T12:32:45.000Z</time>
      </trkpt>
      <trkpt lat="43.61761" lon="6.04899">
        <ele>659</ele>
        <time>2026-02-10T12:32:46.000Z</time>
      </trkpt>
      <trkpt lat="43.61761" lon="6.04898">
        <ele>659</ele>
        <time>2026-02-10T12:32:47.000Z</time>
      </trkpt>
      <trkpt lat="43.61761" lon="6.04897">
        <ele>659</ele>
        <time>2026-02-10T12:32:48.000Z</time>
      </trkpt>
      <trkpt lat="43.61762" lon="6.04895">
        <ele>659</ele>
        <time>2026-02-10T12:32:50.000Z</time>
      </trkpt>
      <trkpt lat="43.61761" lon="6.04894">
        <ele>659</ele>
        <time>2026-02-10T12:32:51.000Z</time>
      </trkpt>
      <trkpt lat="43.61762" lon="6.04893">
        <ele>659</ele>
        <time>2026-02-10T12:32:52.000Z</time>
      </trkpt>
      <trkpt lat="43.61761" lon="6.04892">
        <ele>659</ele>
        <time>2026-02-10T12:32:53.000Z</time>
      </trkpt>
      <trkpt lat="43.6176" lon="6.0489">
        <ele>659</ele>
        <time>2026-02-10T12:32:55.000Z</time>
      </trkpt>
      <trkpt lat="43.6176" lon="6.04889">
        <ele>659</ele>
        <time>2026-02-10T12:32:56.000Z</time>
      </trkpt>
      <trkpt lat="43.6176" lon="6.04888">
        <ele>660</ele>
        <time>2026-02-10T12:33:07.000Z</time>
      </trkpt>
      <trkpt lat="43.61759" lon="6.04887">
        <ele>660</ele>
        <time>2026-02-10T12:33:08.000Z</time>
      </trkpt>
      <trkpt lat="43.61759" lon="6.04885">
        <ele>660</ele>
        <time>2026-02-10T12:33:10.000Z</time>
      </trkpt>
      <trkpt lat="43.61759" lon="6.04884">
        <ele>660</ele>
        <time>2026-02-10T12:33:11.000Z</time>
      </trkpt>
      <trkpt lat="43.61759" lon="6.04883">
        <ele>661</ele>
        <time>2026-02-10T12:33:22.000Z</time>
      </trkpt>
      <trkpt lat="43.61759" lon="6.04882">
        <ele>661</ele>
        <time>2026-02-10T12:33:23.000Z</time>
      </trkpt>
      <trkpt lat="43.61758" lon="6.04881">
        <ele>661</ele>
        <time>2026-02-10T12:33:24.000Z</time>
      </trkpt>
      <trkpt lat="43.61758" lon="6.04879">
        <ele>662</ele>
        <time>2026-02-10T12:33:36.000Z</time>
      </trkpt>
      <trkpt lat="43.61758" lon="6.04878">
        <ele>662</ele>
        <time>2026-02-10T12:33:37.000Z</time>
      </trkpt>
      <trkpt lat="43.61757" lon="6.04877">
        <ele>662</ele>
        <time>2026-02-10T12:33:38.000Z</time>
      </trkpt>
      <trkpt lat="43.61757" lon="6.04876">
        <ele>662</ele>
        <time>2026-02-10T12:33:39.000Z</time>
      </trkpt>
      <trkpt lat="43.61757" lon="6.04874">
        <ele>662</ele>
        <time>2026-02-10T12:33:41.000Z</time>
      </trkpt>
      <trkpt lat="43.61756" lon="6.04873">
        <ele>662</ele>
        <time>2026-02-10T12:33:42.000Z</time>
      </trkpt>
      <trkpt lat="43.61756" lon="6.04872">
        <ele>662</ele>
        <time>2026-02-10T12:33:43.000Z</time>
      </trkpt>
      <trkpt lat="43.61756" lon="6.04871">
        <ele>662</ele>
        <time>2026-02-10T12:33:44.000Z</time>
      </trkpt>
      <trkpt lat="43.61755" lon="6.04869">
        <ele>662</ele>
        <time>2026-02-10T12:33:46.000Z</time>
      </trkpt>
      <trkpt lat="43.61755" lon="6.04868">
        <ele>663</ele>
        <time>2026-02-10T12:33:57.000Z</time>
      </trkpt>
      <trkpt lat="43.61755" lon="6.04867">
        <ele>663</ele>
        <time>2026-02-10T12:33:58.000Z</time>
      </trkpt>
      <trkpt lat="43.61754" lon="6.04865">
        <ele>663</ele>
        <time>2026-02-10T12:34:00.000Z</time>
      </trkpt>
      <trkpt lat="43.61754" lon="6.04864">
        <ele>663</ele>
        <time>2026-02-10T12:34:01.000Z</time>
      </trkpt>
      <trkpt lat="43.61754" lon="6.04863">
        <ele>663</ele>
        <time>2026-02-10T12:34:02.000Z</time>
      </trkpt>
      <trkpt lat="43.61753" lon="6.04862">
        <ele>663</ele>
        <time>2026-02-10T12:34:03.000Z</time>
      </trkpt>
      <trkpt lat="43.61753" lon="6.04861">
        <ele>663</ele>
        <time>2026-02-10T12:34:04.000Z</time>
      </trkpt>
      <trkpt lat="43.61753" lon="6.04859">
        <ele>663</ele>
        <time>2026-02-10T12:34:06.000Z</time>
      </trkpt>
      <trkpt lat="43.61753" lon="6.04858">
        <ele>663</ele>
        <time>2026-02-10T12:34:07.000Z</time>
      </trkpt>
      <trkpt lat="43.61753" lon="6.04857">
        <ele>663</ele>
        <time>2026-02-10T12:34:08.000Z</time>
      </trkpt>
      <trkpt lat="43.61753" lon="6.04856">
        <ele>663</ele>
        <time>2026-02-10T12:34:09.000Z</time>
      </trkpt>
      <trkpt lat="43.61753" lon="6.04854">
        <ele>663</ele>
        <time>2026-02-10T12:34:11.000Z</time>
      </trkpt>
      <trkpt lat="43.61753" lon="6.04853">
        <ele>663</ele>
        <time>2026-02-10T12:34:12.000Z</time>
      </trkpt>
      <trkpt lat="43.61753" lon="6.04852">
        <ele>663</ele>
        <time>2026-02-10T12:34:13.000Z</time>
      </trkpt>
      <trkpt lat="43.61752" lon="6.04851">
        <ele>664</ele>
        <time>2026-02-10T12:34:25.000Z</time>
      </trkpt>
      <trkpt lat="43.61752" lon="6.0485">
        <ele>664</ele>
        <time>2026-02-10T12:34:26.000Z</time>
      </trkpt>
      <trkpt lat="43.61752" lon="6.04849">
        <ele>664</ele>
        <time>2026-02-10T12:34:27.000Z</time>
      </trkpt>
      <trkpt lat="43.61752" lon="6.04847">
        <ele>664</ele>
        <time>2026-02-10T12:34:29.000Z</time>
      </trkpt>
      <trkpt lat="43.61752" lon="6.04846">
        <ele>664</ele>
        <time>2026-02-10T12:34:30.000Z</time>
      </trkpt>
      <trkpt lat="43.61751" lon="6.04844">
        <ele>664</ele>
        <time>2026-02-10T12:34:32.000Z</time>
      </trkpt>
      <trkpt lat="43.61751" lon="6.04843">
        <ele>664</ele>
        <time>2026-02-10T12:34:33.000Z</time>
      </trkpt>
      <trkpt lat="43.61751" lon="6.04842">
        <ele>664</ele>
        <time>2026-02-10T12:34:34.000Z</time>
      </trkpt>
      <trkpt lat="43.61751" lon="6.04841">
        <ele>665</ele>
        <time>2026-02-10T12:34:45.000Z</time>
      </trkpt>
      <trkpt lat="43.61751" lon="6.0484">
        <ele>665</ele>
        <time>2026-02-10T12:34:46.000Z</time>
      </trkpt>
      <trkpt lat="43.61751" lon="6.04838">
        <ele>665</ele>
        <time>2026-02-10T12:34:48.000Z</time>
      </trkpt>
      <trkpt lat="43.6175" lon="6.04837">
        <ele>665</ele>
        <time>2026-02-10T12:34:49.000Z</time>
      </trkpt>
      <trkpt lat="43.6175" lon="6.04836">
        <ele>665</ele>
        <time>2026-02-10T12:34:50.000Z</time>
      </trkpt>
      <trkpt lat="43.6175" lon="6.04834">
        <ele>665</ele>
        <time>2026-02-10T12:34:52.000Z</time>
      </trkpt>
      <trkpt lat="43.61749" lon="6.04833">
        <ele>665</ele>
        <time>2026-02-10T12:34:53.000Z</time>
      </trkpt>
      <trkpt lat="43.61749" lon="6.04832">
        <ele>665</ele>
        <time>2026-02-10T12:34:54.000Z</time>
      </trkpt>
      <trkpt lat="43.61749" lon="6.0483">
        <ele>665</ele>
        <time>2026-02-10T12:34:56.000Z</time>
      </trkpt>
      <trkpt lat="43.61748" lon="6.04829">
        <ele>666</ele>
        <time>2026-02-10T12:35:08.000Z</time>
      </trkpt>
      <trkpt lat="43.61748" lon="6.04828">
        <ele>666</ele>
        <time>2026-02-10T12:35:09.000Z</time>
      </trkpt>
      <trkpt lat="43.61748" lon="6.04827">
        <ele>666</ele>
        <time>2026-02-10T12:35:10.000Z</time>
      </trkpt>
      <trkpt lat="43.61747" lon="6.04826">
        <ele>666</ele>
        <time>2026-02-10T12:35:11.000Z</time>
      </trkpt>
      <trkpt lat="43.61747" lon="6.04824">
        <ele>666</ele>
        <time>2026-02-10T12:35:13.000Z</time>
      </trkpt>
      <trkpt lat="43.61746" lon="6.04823">
        <ele>666</ele>
        <time>2026-02-10T12:35:14.000Z</time>
      </trkpt>
      <trkpt lat="43.61746" lon="6.04821">
        <ele>666</ele>
        <time>2026-02-10T12:35:16.000Z</time>
      </trkpt>
      <trkpt lat="43.61747" lon="6.0482">
        <ele>666</ele>
        <time>2026-02-10T12:35:17.000Z</time>
      </trkpt>
      <trkpt lat="43.61746" lon="6.04819">
        <ele>666</ele>
        <time>2026-02-10T12:35:18.000Z</time>
      </trkpt>
      <trkpt lat="43.61746" lon="6.04818">
        <ele>667</ele>
        <time>2026-02-10T12:35:29.000Z</time>
      </trkpt>
      <trkpt lat="43.61746" lon="6.04817">
        <ele>667</ele>
        <time>2026-02-10T12:35:30.000Z</time>
      </trkpt>
      <trkpt lat="43.61745" lon="6.04816">
        <ele>667</ele>
        <time>2026-02-10T12:35:31.000Z</time>
      </trkpt>
      <trkpt lat="43.61744" lon="6.04814">
        <ele>667</ele>
        <time>2026-02-10T12:35:33.000Z</time>
      </trkpt>
      <trkpt lat="43.61744" lon="6.04813">
        <ele>667</ele>
        <time>2026-02-10T12:35:34.000Z</time>
      </trkpt>
      <trkpt lat="43.61744" lon="6.04812">
        <ele>667</ele>
        <time>2026-02-10T12:35:35.000Z</time>
      </trkpt>
      <trkpt lat="43.61744" lon="6.04811">
        <ele>667</ele>
        <time>2026-02-10T12:35:36.000Z</time>
      </trkpt>
      <trkpt lat="43.61744" lon="6.0481">
        <ele>667</ele>
        <time>2026-02-10T12:35:37.000Z</time>
      </trkpt>
      <trkpt lat="43.61744" lon="6.04808">
        <ele>667</ele>
        <time>2026-02-10T12:35:39.000Z</time>
      </trkpt>
      <trkpt lat="43.61744" lon="6.04807">
        <ele>668</ele>
        <time>2026-02-10T12:35:50.000Z</time>
      </trkpt>
      <trkpt lat="43.61743" lon="6.04806">
        <ele>668</ele>
        <time>2026-02-10T12:35:51.000Z</time>
      </trkpt>
      <trkpt lat="43.61743" lon="6.04804">
        <ele>668</ele>
        <time>2026-02-10T12:35:53.000Z</time>
      </trkpt>
      <trkpt lat="43.61742" lon="6.04803">
        <ele>668</ele>
        <time>2026-02-10T12:35:54.000Z</time>
      </trkpt>
      <trkpt lat="43.61742" lon="6.04802">
        <ele>668</ele>
        <time>2026-02-10T12:35:55.000Z</time>
      </trkpt>
      <trkpt lat="43.61742" lon="6.048">
        <ele>669</ele>
        <time>2026-02-10T12:36:07.000Z</time>
      </trkpt>
      <trkpt lat="43.61742" lon="6.04799">
        <ele>669</ele>
        <time>2026-02-10T12:36:08.000Z</time>
      </trkpt>
      <trkpt lat="43.61741" lon="6.04798">
        <ele>669</ele>
        <time>2026-02-10T12:36:09.000Z</time>
      </trkpt>
      <trkpt lat="43.61741" lon="6.04797">
        <ele>669</ele>
        <time>2026-02-10T12:36:10.000Z</time>
      </trkpt>
      <trkpt lat="43.61741" lon="6.04796">
        <ele>669</ele>
        <time>2026-02-10T12:36:11.000Z</time>
      </trkpt>
      <trkpt lat="43.6174" lon="6.04794">
        <ele>669</ele>
        <time>2026-02-10T12:36:13.000Z</time>
      </trkpt>
      <trkpt lat="43.6174" lon="6.04793">
        <ele>669</ele>
        <time>2026-02-10T12:36:14.000Z</time>
      </trkpt>
      <trkpt lat="43.6174" lon="6.04792">
        <ele>669</ele>
        <time>2026-02-10T12:36:15.000Z</time>
      </trkpt>
      <trkpt lat="43.61739" lon="6.04791">
        <ele>669</ele>
        <time>2026-02-10T12:36:16.000Z</time>
      </trkpt>
      <trkpt lat="43.61739" lon="6.04789">
        <ele>669</ele>
        <time>2026-02-10T12:36:18.000Z</time>
      </trkpt>
      <trkpt lat="43.61739" lon="6.04788">
        <ele>669</ele>
        <time>2026-02-10T12:36:19.000Z</time>
      </trkpt>
      <trkpt lat="43.61739" lon="6.04787">
        <ele>669</ele>
        <time>2026-02-10T12:36:20.000Z</time>
      </trkpt>
      <trkpt lat="43.61739" lon="6.04786">
        <ele>670</ele>
        <time>2026-02-10T12:36:31.000Z</time>
      </trkpt>
      <trkpt lat="43.61739" lon="6.04784">
        <ele>670</ele>
        <time>2026-02-10T12:36:33.000Z</time>
      </trkpt>
      <trkpt lat="43.61739" lon="6.04783">
        <ele>670</ele>
        <time>2026-02-10T12:36:34.000Z</time>
      </trkpt>
      <trkpt lat="43.61739" lon="6.04782">
        <ele>670</ele>
        <time>2026-02-10T12:36:35.000Z</time>
      </trkpt>
      <trkpt lat="43.61738" lon="6.04781">
        <ele>670</ele>
        <time>2026-02-10T12:36:36.000Z</time>
      </trkpt>
      <trkpt lat="43.61738" lon="6.0478">
        <ele>670</ele>
        <time>2026-02-10T12:36:37.000Z</time>
      </trkpt>
      <trkpt lat="43.61738" lon="6.04778">
        <ele>670</ele>
        <time>2026-02-10T12:36:39.000Z</time>
      </trkpt>
      <trkpt lat="43.61737" lon="6.04777">
        <ele>671</ele>
        <time>2026-02-10T12:36:51.000Z</time>
      </trkpt>
      <trkpt lat="43.61737" lon="6.04776">
        <ele>671</ele>
        <time>2026-02-10T12:36:52.000Z</time>
      </trkpt>
      <trkpt lat="43.61737" lon="6.04775">
        <ele>671</ele>
        <time>2026-02-10T12:36:53.000Z</time>
      </trkpt>
      <trkpt lat="43.61736" lon="6.04774">
        <ele>671</ele>
        <time>2026-02-10T12:36:54.000Z</time>
      </trkpt>
      <trkpt lat="43.61736" lon="6.04772">
        <ele>672</ele>
        <time>2026-02-10T12:37:06.000Z</time>
      </trkpt>
      <trkpt lat="43.61736" lon="6.04771">
        <ele>672</ele>
        <time>2026-02-10T12:37:07.000Z</time>
      </trkpt>
      <trkpt lat="43.61735" lon="6.0477">
        <ele>672</ele>
        <time>2026-02-10T12:37:08.000Z</time>
      </trkpt>
      <trkpt lat="43.61735" lon="6.04769">
        <ele>672</ele>
        <time>2026-02-10T12:37:09.000Z</time>
      </trkpt>
      <trkpt lat="43.61735" lon="6.04767">
        <ele>672</ele>
        <time>2026-02-10T12:37:11.000Z</time>
      </trkpt>
      <trkpt lat="43.61735" lon="6.04766">
        <ele>672</ele>
        <time>2026-02-10T12:37:12.000Z</time>
      </trkpt>
      <trkpt lat="43.61735" lon="6.04764">
        <ele>672</ele>
        <time>2026-02-10T12:37:14.000Z</time>
      </trkpt>
      <trkpt lat="43.61734" lon="6.04763">
        <ele>672</ele>
        <time>2026-02-10T12:37:15.000Z</time>
      </trkpt>
      <trkpt lat="43.61734" lon="6.04762">
        <ele>672</ele>
        <time>2026-02-10T12:37:16.000Z</time>
      </trkpt>
      <trkpt lat="43.61734" lon="6.04761">
        <ele>672</ele>
        <time>2026-02-10T12:37:17.000Z</time>
      </trkpt>
      <trkpt lat="43.61734" lon="6.04759">
        <ele>672</ele>
        <time>2026-02-10T12:37:19.000Z</time>
      </trkpt>
      <trkpt lat="43.61734" lon="6.04758">
        <ele>673</ele>
        <time>2026-02-10T12:37:30.000Z</time>
      </trkpt>
      <trkpt lat="43.61734" lon="6.04757">
        <ele>673</ele>
        <time>2026-02-10T12:37:31.000Z</time>
      </trkpt>
      <trkpt lat="43.61735" lon="6.04756">
        <ele>673</ele>
        <time>2026-02-10T12:37:32.000Z</time>
      </trkpt>
      <trkpt lat="43.61735" lon="6.04754">
        <ele>673</ele>
        <time>2026-02-10T12:37:34.000Z</time>
      </trkpt>
      <trkpt lat="43.61735" lon="6.04753">
        <ele>673</ele>
        <time>2026-02-10T12:37:35.000Z</time>
      </trkpt>
      <trkpt lat="43.61734" lon="6.04752">
        <ele>673</ele>
        <time>2026-02-10T12:37:36.000Z</time>
      </trkpt>
      <trkpt lat="43.61734" lon="6.0475">
        <ele>673</ele>
        <time>2026-02-10T12:37:38.000Z</time>
      </trkpt>
      <trkpt lat="43.61734" lon="6.04748">
        <ele>673</ele>
        <time>2026-02-10T12:37:40.000Z</time>
      </trkpt>
      <trkpt lat="43.61734" lon="6.04747">
        <ele>674</ele>
        <time>2026-02-10T12:37:51.000Z</time>
      </trkpt>
      <trkpt lat="43.61733" lon="6.04746">
        <ele>674</ele>
        <time>2026-02-10T12:37:52.000Z</time>
      </trkpt>
      <trkpt lat="43.61733" lon="6.04745">
        <ele>674</ele>
        <time>2026-02-10T12:37:53.000Z</time>
      </trkpt>
      <trkpt lat="43.61733" lon="6.04744">
        <ele>674</ele>
        <time>2026-02-10T12:37:54.000Z</time>
      </trkpt>
      <trkpt lat="43.61733" lon="6.04743">
        <ele>674</ele>
        <time>2026-02-10T12:37:55.000Z</time>
      </trkpt>
      <trkpt lat="43.61733" lon="6.04741">
        <ele>675</ele>
        <time>2026-02-10T12:38:07.000Z</time>
      </trkpt>
      <trkpt lat="43.61732" lon="6.0474">
        <ele>675</ele>
        <time>2026-02-10T12:38:08.000Z</time>
      </trkpt>
      <trkpt lat="43.61733" lon="6.04739">
        <ele>675</ele>
        <time>2026-02-10T12:38:09.000Z</time>
      </trkpt>
      <trkpt lat="43.61732" lon="6.04738">
        <ele>675</ele>
        <time>2026-02-10T12:38:10.000Z</time>
      </trkpt>
      <trkpt lat="43.61732" lon="6.04737">
        <ele>676</ele>
        <time>2026-02-10T12:38:21.000Z</time>
      </trkpt>
      <trkpt lat="43.61731" lon="6.04735">
        <ele>676</ele>
        <time>2026-02-10T12:38:23.000Z</time>
      </trkpt>
      <trkpt lat="43.61731" lon="6.04734">
        <ele>676</ele>
        <time>2026-02-10T12:38:24.000Z</time>
      </trkpt>
      <trkpt lat="43.61731" lon="6.04733">
        <ele>676</ele>
        <time>2026-02-10T12:38:25.000Z</time>
      </trkpt>
      <trkpt lat="43.61731" lon="6.04732">
        <ele>676</ele>
        <time>2026-02-10T12:38:26.000Z</time>
      </trkpt>
      <trkpt lat="43.6173" lon="6.0473">
        <ele>676</ele>
        <time>2026-02-10T12:38:28.000Z</time>
      </trkpt>
      <trkpt lat="43.6173" lon="6.04729">
        <ele>676</ele>
        <time>2026-02-10T12:38:29.000Z</time>
      </trkpt>
      <trkpt lat="43.61729" lon="6.04728">
        <ele>676</ele>
        <time>2026-02-10T12:38:30.000Z</time>
      </trkpt>
      <trkpt lat="43.61729" lon="6.04726">
        <ele>676</ele>
        <time>2026-02-10T12:38:32.000Z</time>
      </trkpt>
      <trkpt lat="43.61729" lon="6.04725">
        <ele>676</ele>
        <time>2026-02-10T12:38:33.000Z</time>
      </trkpt>
      <trkpt lat="43.61728" lon="6.04724">
        <ele>676</ele>
        <time>2026-02-10T12:38:34.000Z</time>
      </trkpt>
      <trkpt lat="43.61727" lon="6.04723">
        <ele>677</ele>
        <time>2026-02-10T12:38:46.000Z</time>
      </trkpt>
      <trkpt lat="43.61727" lon="6.04722">
        <ele>677</ele>
        <time>2026-02-10T12:38:47.000Z</time>
      </trkpt>
      <trkpt lat="43.61727" lon="6.04721">
        <ele>677</ele>
        <time>2026-02-10T12:38:48.000Z</time>
      </trkpt>
      <trkpt lat="43.61726" lon="6.0472">
        <ele>677</ele>
        <time>2026-02-10T12:38:49.000Z</time>
      </trkpt>
      <trkpt lat="43.61726" lon="6.04719">
        <ele>677</ele>
        <time>2026-02-10T12:38:50.000Z</time>
      </trkpt>
      <trkpt lat="43.61725" lon="6.04718">
        <ele>677</ele>
        <time>2026-02-10T12:38:51.000Z</time>
      </trkpt>
      <trkpt lat="43.61725" lon="6.04716">
        <ele>677</ele>
        <time>2026-02-10T12:38:53.000Z</time>
      </trkpt>
      <trkpt lat="43.61724" lon="6.04715">
        <ele>677</ele>
        <time>2026-02-10T12:38:54.000Z</time>
      </trkpt>
      <trkpt lat="43.61724" lon="6.04714">
        <ele>677</ele>
        <time>2026-02-10T12:38:55.000Z</time>
      </trkpt>
      <trkpt lat="43.61723" lon="6.04712">
        <ele>678</ele>
        <time>2026-02-10T12:39:07.000Z</time>
      </trkpt>
      <trkpt lat="43.61723" lon="6.04711">
        <ele>678</ele>
        <time>2026-02-10T12:39:08.000Z</time>
      </trkpt>
      <trkpt lat="43.61722" lon="6.0471">
        <ele>678</ele>
        <time>2026-02-10T12:39:09.000Z</time>
      </trkpt>
      <trkpt lat="43.61722" lon="6.04709">
        <ele>678</ele>
        <time>2026-02-10T12:39:10.000Z</time>
      </trkpt>
      <trkpt lat="43.61722" lon="6.04708">
        <ele>678</ele>
        <time>2026-02-10T12:39:11.000Z</time>
      </trkpt>
      <trkpt lat="43.61721" lon="6.04706">
        <ele>678</ele>
        <time>2026-02-10T12:39:13.000Z</time>
      </trkpt>
      <trkpt lat="43.61721" lon="6.04705">
        <ele>678</ele>
        <time>2026-02-10T12:39:14.000Z</time>
      </trkpt>
      <trkpt lat="43.61721" lon="6.04704">
        <ele>679</ele>
        <time>2026-02-10T12:39:25.000Z</time>
      </trkpt>
      <trkpt lat="43.6172" lon="6.04703">
        <ele>679</ele>
        <time>2026-02-10T12:39:26.000Z</time>
      </trkpt>
      <trkpt lat="43.6172" lon="6.04702">
        <ele>679</ele>
        <time>2026-02-10T12:39:27.000Z</time>
      </trkpt>
      <trkpt lat="43.6172" lon="6.04701">
        <ele>679</ele>
        <time>2026-02-10T12:39:28.000Z</time>
      </trkpt>
      <trkpt lat="43.61719" lon="6.04699">
        <ele>679</ele>
        <time>2026-02-10T12:39:30.000Z</time>
      </trkpt>
      <trkpt lat="43.61719" lon="6.04698">
        <ele>679</ele>
        <time>2026-02-10T12:39:31.000Z</time>
      </trkpt>
      <trkpt lat="43.61718" lon="6.04697">
        <ele>679</ele>
        <time>2026-02-10T12:39:32.000Z</time>
      </trkpt>
      <trkpt lat="43.61718" lon="6.04696">
        <ele>679</ele>
        <time>2026-02-10T12:39:33.000Z</time>
      </trkpt>
      <trkpt lat="43.61717" lon="6.04695">
        <ele>679</ele>
        <time>2026-02-10T12:39:34.000Z</time>
      </trkpt>
      <trkpt lat="43.61717" lon="6.04694">
        <ele>679</ele>
        <time>2026-02-10T12:39:35.000Z</time>
      </trkpt>
      <trkpt lat="43.61717" lon="6.04692">
        <ele>679</ele>
        <time>2026-02-10T12:39:37.000Z</time>
      </trkpt>
      <trkpt lat="43.61716" lon="6.04691">
        <ele>680</ele>
        <time>2026-02-10T12:39:49.000Z</time>
      </trkpt>
      <trkpt lat="43.61716" lon="6.0469">
        <ele>680</ele>
        <time>2026-02-10T12:39:50.000Z</time>
      </trkpt>
      <trkpt lat="43.61716" lon="6.04688">
        <ele>680</ele>
        <time>2026-02-10T12:39:52.000Z</time>
      </trkpt>
      <trkpt lat="43.61716" lon="6.04687">
        <ele>680</ele>
        <time>2026-02-10T12:39:53.000Z</time>
      </trkpt>
      <trkpt lat="43.61716" lon="6.04686">
        <ele>680</ele>
        <time>2026-02-10T12:39:54.000Z</time>
      </trkpt>
      <trkpt lat="43.61715" lon="6.04684">
        <ele>681</ele>
        <time>2026-02-10T12:40:06.000Z</time>
      </trkpt>
      <trkpt lat="43.61715" lon="6.04683">
        <ele>681</ele>
        <time>2026-02-10T12:40:07.000Z</time>
      </trkpt>
      <trkpt lat="43.61714" lon="6.04682">
        <ele>681</ele>
        <time>2026-02-10T12:40:08.000Z</time>
      </trkpt>
      <trkpt lat="43.61714" lon="6.0468">
        <ele>681</ele>
        <time>2026-02-10T12:40:10.000Z</time>
      </trkpt>
      <trkpt lat="43.61713" lon="6.04679">
        <ele>681</ele>
        <time>2026-02-10T12:40:11.000Z</time>
      </trkpt>
      <trkpt lat="43.61713" lon="6.04678">
        <ele>682</ele>
        <time>2026-02-10T12:40:22.000Z</time>
      </trkpt>
      <trkpt lat="43.61712" lon="6.04676">
        <ele>682</ele>
        <time>2026-02-10T12:40:24.000Z</time>
      </trkpt>
      <trkpt lat="43.61712" lon="6.04675">
        <ele>682</ele>
        <time>2026-02-10T12:40:25.000Z</time>
      </trkpt>
      <trkpt lat="43.61712" lon="6.04674">
        <ele>682</ele>
        <time>2026-02-10T12:40:26.000Z</time>
      </trkpt>
      <trkpt lat="43.61712" lon="6.04672">
        <ele>682</ele>
        <time>2026-02-10T12:40:28.000Z</time>
      </trkpt>
      <trkpt lat="43.61712" lon="6.04671">
        <ele>682</ele>
        <time>2026-02-10T12:40:29.000Z</time>
      </trkpt>
      <trkpt lat="43.61712" lon="6.04669">
        <ele>682</ele>
        <time>2026-02-10T12:40:31.000Z</time>
      </trkpt>
      <trkpt lat="43.61711" lon="6.04668">
        <ele>682</ele>
        <time>2026-02-10T12:40:32.000Z</time>
      </trkpt>
      <trkpt lat="43.61711" lon="6.04666">
        <ele>682</ele>
        <time>2026-02-10T12:40:34.000Z</time>
      </trkpt>
      <trkpt lat="43.61711" lon="6.04664">
        <ele>683</ele>
        <time>2026-02-10T12:40:46.000Z</time>
      </trkpt>
      <trkpt lat="43.61711" lon="6.04663">
        <ele>683</ele>
        <time>2026-02-10T12:40:47.000Z</time>
      </trkpt>
      <trkpt lat="43.61711" lon="6.04662">
        <ele>683</ele>
        <time>2026-02-10T12:40:48.000Z</time>
      </trkpt>
      <trkpt lat="43.61711" lon="6.0466">
        <ele>683</ele>
        <time>2026-02-10T12:40:50.000Z</time>
      </trkpt>
      <trkpt lat="43.6171" lon="6.04659">
        <ele>683</ele>
        <time>2026-02-10T12:40:51.000Z</time>
      </trkpt>
      <trkpt lat="43.61711" lon="6.04657">
        <ele>683</ele>
        <time>2026-02-10T12:40:53.000Z</time>
      </trkpt>
      <trkpt lat="43.6171" lon="6.04655">
        <ele>683</ele>
        <time>2026-02-10T12:40:55.000Z</time>
      </trkpt>
      <trkpt lat="43.6171" lon="6.04654">
        <ele>683</ele>
        <time>2026-02-10T12:40:56.000Z</time>
      </trkpt>
      <trkpt lat="43.61711" lon="6.04653">
        <ele>683</ele>
        <time>2026-02-10T12:40:57.000Z</time>
      </trkpt>
      <trkpt lat="43.61711" lon="6.04651">
        <ele>684</ele>
        <time>2026-02-10T12:41:09.000Z</time>
      </trkpt>
      <trkpt lat="43.61711" lon="6.04649">
        <ele>684</ele>
        <time>2026-02-10T12:41:11.000Z</time>
      </trkpt>
      <trkpt lat="43.61711" lon="6.04648">
        <ele>684</ele>
        <time>2026-02-10T12:41:12.000Z</time>
      </trkpt>
      <trkpt lat="43.61712" lon="6.04646">
        <ele>684</ele>
        <time>2026-02-10T12:41:14.000Z</time>
      </trkpt>
      <trkpt lat="43.61712" lon="6.04645">
        <ele>684</ele>
        <time>2026-02-10T12:41:15.000Z</time>
      </trkpt>
      <trkpt lat="43.61711" lon="6.04643">
        <ele>684</ele>
        <time>2026-02-10T12:41:17.000Z</time>
      </trkpt>
      <trkpt lat="43.61712" lon="6.04642">
        <ele>684</ele>
        <time>2026-02-10T12:41:18.000Z</time>
      </trkpt>
      <trkpt lat="43.61712" lon="6.04641">
        <ele>684</ele>
        <time>2026-02-10T12:41:19.000Z</time>
      </trkpt>
      <trkpt lat="43.61712" lon="6.04639">
        <ele>684</ele>
        <time>2026-02-10T12:41:21.000Z</time>
      </trkpt>
      <trkpt lat="43.61711" lon="6.04638">
        <ele>684</ele>
        <time>2026-02-10T12:41:22.000Z</time>
      </trkpt>
      <trkpt lat="43.61712" lon="6.04637">
        <ele>684</ele>
        <time>2026-02-10T12:41:23.000Z</time>
      </trkpt>
      <trkpt lat="43.61711" lon="6.04636">
        <ele>684</ele>
        <time>2026-02-10T12:41:24.000Z</time>
      </trkpt>
      <trkpt lat="43.61711" lon="6.04635">
        <ele>684</ele>
        <time>2026-02-10T12:41:25.000Z</time>
      </trkpt>
      <trkpt lat="43.61711" lon="6.04634">
        <ele>684</ele>
        <time>2026-02-10T12:41:26.000Z</time>
      </trkpt>
      <trkpt lat="43.61711" lon="6.04634">
        <ele>684</ele>
        <time>2026-02-10T12:41:26.000Z</time>
      </trkpt>
      <trkpt lat="43.61712" lon="6.04634">
        <ele>684</ele>
        <time>2026-02-10T12:41:27.000Z</time>
      </trkpt>
      <trkpt lat="43.61712" lon="6.04633">
        <ele>684</ele>
        <time>2026-02-10T12:41:28.000Z</time>
      </trkpt>
      <trkpt lat="43.61712" lon="6.04633">
        <ele>684</ele>
        <time>2026-02-10T12:41:28.000Z</time>
      </trkpt>
      <trkpt lat="43.61712" lon="6.04633">
        <ele>684</ele>
        <time>2026-02-10T12:41:28.000Z</time>
      </trkpt>
      <trkpt lat="43.61711" lon="6.04633">
        <ele>684</ele>
        <time>2026-02-10T12:41:29.000Z</time>
      </trkpt>
      <trkpt lat="43.61711" lon="6.04633">
        <ele>684</ele>
        <time>2026-02-10T12:41:29.000Z</time>
      </trkpt>
      <trkpt lat="43.61711" lon="6.04633">
        <ele>684</ele>
        <time>2026-02-10T12:41:29.000Z</time>
      </trkpt>
      <trkpt lat="43.61711" lon="6.04632">
        <ele>684</ele>
        <time>2026-02-10T12:41:30.000Z</time>
      </trkpt>
      <trkpt lat="43.6171" lon="6.04631">
        <ele>684</ele>
        <time>2026-02-10T12:41:31.000Z</time>
      </trkpt>
      <trkpt lat="43.6171" lon="6.0463">
        <ele>684</ele>
        <time>2026-02-10T12:41:32.000Z</time>
      </trkpt>
      <trkpt lat="43.6171" lon="6.04628">
        <ele>684</ele>
        <time>2026-02-10T12:41:34.000Z</time>
      </trkpt>
      <trkpt lat="43.6171" lon="6.04627">
        <ele>684</ele>
        <time>2026-02-10T12:41:35.000Z</time>
      </trkpt>
      <trkpt lat="43.61711" lon="6.04625">
        <ele>684</ele>
        <time>2026-02-10T12:41:37.000Z</time>
      </trkpt>
      <trkpt lat="43.6171" lon="6.04623">
        <ele>684</ele>
        <time>2026-02-10T12:41:39.000Z</time>
      </trkpt>
      <trkpt lat="43.6171" lon="6.04622">
        <ele>684</ele>
        <time>2026-02-10T12:41:40.000Z</time>
      </trkpt>
      <trkpt lat="43.6171" lon="6.0462">
        <ele>684</ele>
        <time>2026-02-10T12:41:42.000Z</time>
      </trkpt>
      <trkpt lat="43.6171" lon="6.04618">
        <ele>684</ele>
        <time>2026-02-10T12:41:44.000Z</time>
      </trkpt>
      <trkpt lat="43.6171" lon="6.04617">
        <ele>684</ele>
        <time>2026-02-10T12:41:45.000Z</time>
      </trkpt>
      <trkpt lat="43.61711" lon="6.04615">
        <ele>684</ele>
        <time>2026-02-10T12:41:47.000Z</time>
      </trkpt>
      <trkpt lat="43.6171" lon="6.04613">
        <ele>684</ele>
        <time>2026-02-10T12:41:49.000Z</time>
      </trkpt>
      <trkpt lat="43.6171" lon="6.04612">
        <ele>684</ele>
        <time>2026-02-10T12:41:50.000Z</time>
      </trkpt>
      <trkpt lat="43.6171" lon="6.0461">
        <ele>684</ele>
        <time>2026-02-10T12:41:52.000Z</time>
      </trkpt>
      <trkpt lat="43.6171" lon="6.04608">
        <ele>684</ele>
        <time>2026-02-10T12:41:54.000Z</time>
      </trkpt>
      <trkpt lat="43.6171" lon="6.04607">
        <ele>684</ele>
        <time>2026-02-10T12:41:55.000Z</time>
      </trkpt>
      <trkpt lat="43.6171" lon="6.04605">
        <ele>684</ele>
        <time>2026-02-10T12:41:57.000Z</time>
      </trkpt>
      <trkpt lat="43.61711" lon="6.04603">
        <ele>684</ele>
        <time>2026-02-10T12:41:59.000Z</time>
      </trkpt>
      <trkpt lat="43.61711" lon="6.04601">
        <ele>684</ele>
        <time>2026-02-10T12:42:01.000Z</time>
      </trkpt>
      <trkpt lat="43.61711" lon="6.04599">
        <ele>684</ele>
        <time>2026-02-10T12:42:03.000Z</time>
      </trkpt>
      <trkpt lat="43.61711" lon="6.04598">
        <ele>684</ele>
        <time>2026-02-10T12:42:04.000Z</time>
      </trkpt>
      <trkpt lat="43.61711" lon="6.04596">
        <ele>685</ele>
        <time>2026-02-10T12:42:16.000Z</time>
      </trkpt>
      <trkpt lat="43.61711" lon="6.04594">
        <ele>685</ele>
        <time>2026-02-10T12:42:18.000Z</time>
      </trkpt>
      <trkpt lat="43.61712" lon="6.04593">
        <ele>685</ele>
        <time>2026-02-10T12:42:19.000Z</time>
      </trkpt>
      <trkpt lat="43.61712" lon="6.04591">
        <ele>685</ele>
        <time>2026-02-10T12:42:21.000Z</time>
      </trkpt>
      <trkpt lat="43.61712" lon="6.04589">
        <ele>685</ele>
        <time>2026-02-10T12:42:23.000Z</time>
      </trkpt>
      <trkpt lat="43.61712" lon="6.04587">
        <ele>685</ele>
        <time>2026-02-10T12:42:25.000Z</time>
      </trkpt>
      <trkpt lat="43.61712" lon="6.04585">
        <ele>685</ele>
        <time>2026-02-10T12:42:27.000Z</time>
      </trkpt>
      <trkpt lat="43.61712" lon="6.04583">
        <ele>685</ele>
        <time>2026-02-10T12:42:29.000Z</time>
      </trkpt>
      <trkpt lat="43.61712" lon="6.04581">
        <ele>685</ele>
        <time>2026-02-10T12:42:31.000Z</time>
      </trkpt>
      <trkpt lat="43.61713" lon="6.0458">
        <ele>685</ele>
        <time>2026-02-10T12:42:32.000Z</time>
      </trkpt>
      <trkpt lat="43.61712" lon="6.04578">
        <ele>685</ele>
        <time>2026-02-10T12:42:34.000Z</time>
      </trkpt>
      <trkpt lat="43.61713" lon="6.04576">
        <ele>685</ele>
        <time>2026-02-10T12:42:36.000Z</time>
      </trkpt>
      <trkpt lat="43.61713" lon="6.04574">
        <ele>685</ele>
        <time>2026-02-10T12:42:38.000Z</time>
      </trkpt>
      <trkpt lat="43.61713" lon="6.04572">
        <ele>685</ele>
        <time>2026-02-10T12:42:40.000Z</time>
      </trkpt>
      <trkpt lat="43.61713" lon="6.0457">
        <ele>685</ele>
        <time>2026-02-10T12:42:42.000Z</time>
      </trkpt>
      <trkpt lat="43.61713" lon="6.04568">
        <ele>685</ele>
        <time>2026-02-10T12:42:44.000Z</time>
      </trkpt>
      <trkpt lat="43.61713" lon="6.04566">
        <ele>685</ele>
        <time>2026-02-10T12:42:46.000Z</time>
      </trkpt>
      <trkpt lat="43.61713" lon="6.04565">
        <ele>685</ele>
        <time>2026-02-10T12:42:47.000Z</time>
      </trkpt>
      <trkpt lat="43.61713" lon="6.04563">
        <ele>685</ele>
        <time>2026-02-10T12:42:49.000Z</time>
      </trkpt>
      <trkpt lat="43.61713" lon="6.04561">
        <ele>685</ele>
        <time>2026-02-10T12:42:51.000Z</time>
      </trkpt>
      <trkpt lat="43.61713" lon="6.04559">
        <ele>685</ele>
        <time>2026-02-10T12:42:53.000Z</time>
      </trkpt>
      <trkpt lat="43.61713" lon="6.04557">
        <ele>685</ele>
        <time>2026-02-10T12:42:55.000Z</time>
      </trkpt>
      <trkpt lat="43.61713" lon="6.04556">
        <ele>685</ele>
        <time>2026-02-10T12:42:56.000Z</time>
      </trkpt>
      <trkpt lat="43.61713" lon="6.04554">
        <ele>685</ele>
        <time>2026-02-10T12:42:58.000Z</time>
      </trkpt>
      <trkpt lat="43.61714" lon="6.04553">
        <ele>685</ele>
        <time>2026-02-10T12:42:59.000Z</time>
      </trkpt>
      <trkpt lat="43.61714" lon="6.04551">
        <ele>685</ele>
        <time>2026-02-10T12:43:01.000Z</time>
      </trkpt>
      <trkpt lat="43.61714" lon="6.04549">
        <ele>685</ele>
        <time>2026-02-10T12:43:03.000Z</time>
      </trkpt>
      <trkpt lat="43.61714" lon="6.04548">
        <ele>685</ele>
        <time>2026-02-10T12:43:04.000Z</time>
      </trkpt>
      <trkpt lat="43.61715" lon="6.04546">
        <ele>685</ele>
        <time>2026-02-10T12:43:06.000Z</time>
      </trkpt>
      <trkpt lat="43.61715" lon="6.04545">
        <ele>685</ele>
        <time>2026-02-10T12:43:07.000Z</time>
      </trkpt>
      <trkpt lat="43.61715" lon="6.04543">
        <ele>685</ele>
        <time>2026-02-10T12:43:09.000Z</time>
      </trkpt>
      <trkpt lat="43.61715" lon="6.04541">
        <ele>685</ele>
        <time>2026-02-10T12:43:11.000Z</time>
      </trkpt>
      <trkpt lat="43.61716" lon="6.0454">
        <ele>684</ele>
        <time>2026-02-10T12:43:12.000Z</time>
      </trkpt>
      <trkpt lat="43.61716" lon="6.04538">
        <ele>684</ele>
        <time>2026-02-10T12:43:14.000Z</time>
      </trkpt>
      <trkpt lat="43.61717" lon="6.04536">
        <ele>684</ele>
        <time>2026-02-10T12:43:16.000Z</time>
      </trkpt>
      <trkpt lat="43.61717" lon="6.04535">
        <ele>684</ele>
        <time>2026-02-10T12:43:17.000Z</time>
      </trkpt>
      <trkpt lat="43.61718" lon="6.04533">
        <ele>684</ele>
        <time>2026-02-10T12:43:19.000Z</time>
      </trkpt>
      <trkpt lat="43.61717" lon="6.04532">
        <ele>684</ele>
        <time>2026-02-10T12:43:20.000Z</time>
      </trkpt>
      <trkpt lat="43.61718" lon="6.0453">
        <ele>684</ele>
        <time>2026-02-10T12:43:22.000Z</time>
      </trkpt>
      <trkpt lat="43.61718" lon="6.04528">
        <ele>684</ele>
        <time>2026-02-10T12:43:24.000Z</time>
      </trkpt>
      <trkpt lat="43.61718" lon="6.04526">
        <ele>684</ele>
        <time>2026-02-10T12:43:26.000Z</time>
      </trkpt>
      <trkpt lat="43.61718" lon="6.04525">
        <ele>684</ele>
        <time>2026-02-10T12:43:27.000Z</time>
      </trkpt>
      <trkpt lat="43.61719" lon="6.04524">
        <ele>684</ele>
        <time>2026-02-10T12:43:28.000Z</time>
      </trkpt>
      <trkpt lat="43.6172" lon="6.04522">
        <ele>684</ele>
        <time>2026-02-10T12:43:30.000Z</time>
      </trkpt>
      <trkpt lat="43.61721" lon="6.04521">
        <ele>683</ele>
        <time>2026-02-10T12:43:31.000Z</time>
      </trkpt>
      <trkpt lat="43.61721" lon="6.04519">
        <ele>683</ele>
        <time>2026-02-10T12:43:33.000Z</time>
      </trkpt>
      <trkpt lat="43.61722" lon="6.04518">
        <ele>683</ele>
        <time>2026-02-10T12:43:34.000Z</time>
      </trkpt>
      <trkpt lat="43.61723" lon="6.04516">
        <ele>683</ele>
        <time>2026-02-10T12:43:36.000Z</time>
      </trkpt>
      <trkpt lat="43.61723" lon="6.04514">
        <ele>683</ele>
        <time>2026-02-10T12:43:38.000Z</time>
      </trkpt>
      <trkpt lat="43.61724" lon="6.04512">
        <ele>683</ele>
        <time>2026-02-10T12:43:40.000Z</time>
      </trkpt>
      <trkpt lat="43.61724" lon="6.04511">
        <ele>683</ele>
        <time>2026-02-10T12:43:41.000Z</time>
      </trkpt>
      <trkpt lat="43.61724" lon="6.04509">
        <ele>683</ele>
        <time>2026-02-10T12:43:43.000Z</time>
      </trkpt>
      <trkpt lat="43.61725" lon="6.04508">
        <ele>683</ele>
        <time>2026-02-10T12:43:44.000Z</time>
      </trkpt>
      <trkpt lat="43.61725" lon="6.04506">
        <ele>683</ele>
        <time>2026-02-10T12:43:46.000Z</time>
      </trkpt>
      <trkpt lat="43.61726" lon="6.04504">
        <ele>683</ele>
        <time>2026-02-10T12:43:48.000Z</time>
      </trkpt>
      <trkpt lat="43.61726" lon="6.04503">
        <ele>683</ele>
        <time>2026-02-10T12:43:49.000Z</time>
      </trkpt>
      <trkpt lat="43.61727" lon="6.04501">
        <ele>683</ele>
        <time>2026-02-10T12:43:51.000Z</time>
      </trkpt>
      <trkpt lat="43.61727" lon="6.04499">
        <ele>683</ele>
        <time>2026-02-10T12:43:53.000Z</time>
      </trkpt>
      <trkpt lat="43.61727" lon="6.04498">
        <ele>683</ele>
        <time>2026-02-10T12:43:54.000Z</time>
      </trkpt>
      <trkpt lat="43.61728" lon="6.04496">
        <ele>683</ele>
        <time>2026-02-10T12:43:56.000Z</time>
      </trkpt>
      <trkpt lat="43.61728" lon="6.04494">
        <ele>682</ele>
        <time>2026-02-10T12:43:58.000Z</time>
      </trkpt>
      <trkpt lat="43.61729" lon="6.04493">
        <ele>682</ele>
        <time>2026-02-10T12:43:59.000Z</time>
      </trkpt>
      <trkpt lat="43.6173" lon="6.04491">
        <ele>682</ele>
        <time>2026-02-10T12:44:01.000Z</time>
      </trkpt>
      <trkpt lat="43.6173" lon="6.04489">
        <ele>682</ele>
        <time>2026-02-10T12:44:03.000Z</time>
      </trkpt>
      <trkpt lat="43.6173" lon="6.04488">
        <ele>682</ele>
        <time>2026-02-10T12:44:04.000Z</time>
      </trkpt>
      <trkpt lat="43.6173" lon="6.04486">
        <ele>682</ele>
        <time>2026-02-10T12:44:06.000Z</time>
      </trkpt>
      <trkpt lat="43.6173" lon="6.04485">
        <ele>682</ele>
        <time>2026-02-10T12:44:07.000Z</time>
      </trkpt>
      <trkpt lat="43.6173" lon="6.04484">
        <ele>682</ele>
        <time>2026-02-10T12:44:08.000Z</time>
      </trkpt>
      <trkpt lat="43.6173" lon="6.04482">
        <ele>682</ele>
        <time>2026-02-10T12:44:10.000Z</time>
      </trkpt>
      <trkpt lat="43.61729" lon="6.0448">
        <ele>682</ele>
        <time>2026-02-10T12:44:12.000Z</time>
      </trkpt>
      <trkpt lat="43.61729" lon="6.04478">
        <ele>682</ele>
        <time>2026-02-10T12:44:14.000Z</time>
      </trkpt>
      <trkpt lat="43.61728" lon="6.04476">
        <ele>682</ele>
        <time>2026-02-10T12:44:16.000Z</time>
      </trkpt>
      <trkpt lat="43.61728" lon="6.04475">
        <ele>682</ele>
        <time>2026-02-10T12:44:17.000Z</time>
      </trkpt>
      <trkpt lat="43.61728" lon="6.04473">
        <ele>682</ele>
        <time>2026-02-10T12:44:19.000Z</time>
      </trkpt>
      <trkpt lat="43.61727" lon="6.04471">
        <ele>682</ele>
        <time>2026-02-10T12:44:21.000Z</time>
      </trkpt>
      <trkpt lat="43.61727" lon="6.0447">
        <ele>682</ele>
        <time>2026-02-10T12:44:22.000Z</time>
      </trkpt>
      <trkpt lat="43.61726" lon="6.04468">
        <ele>683</ele>
        <time>2026-02-10T12:44:34.000Z</time>
      </trkpt>
      <trkpt lat="43.61726" lon="6.04466">
        <ele>683</ele>
        <time>2026-02-10T12:44:36.000Z</time>
      </trkpt>
      <trkpt lat="43.61725" lon="6.04465">
        <ele>683</ele>
        <time>2026-02-10T12:44:37.000Z</time>
      </trkpt>
      <trkpt lat="43.61725" lon="6.04463">
        <ele>683</ele>
        <time>2026-02-10T12:44:39.000Z</time>
      </trkpt>
      <trkpt lat="43.61724" lon="6.04461">
        <ele>682</ele>
        <time>2026-02-10T12:44:41.000Z</time>
      </trkpt>
      <trkpt lat="43.61724" lon="6.0446">
        <ele>682</ele>
        <time>2026-02-10T12:44:42.000Z</time>
      </trkpt>
      <trkpt lat="43.61724" lon="6.04458">
        <ele>682</ele>
        <time>2026-02-10T12:44:44.000Z</time>
      </trkpt>
      <trkpt lat="43.61723" lon="6.04456">
        <ele>682</ele>
        <time>2026-02-10T12:44:46.000Z</time>
      </trkpt>
      <trkpt lat="43.61723" lon="6.04454">
        <ele>682</ele>
        <time>2026-02-10T12:44:48.000Z</time>
      </trkpt>
      <trkpt lat="43.61723" lon="6.04452">
        <ele>682</ele>
        <time>2026-02-10T12:44:50.000Z</time>
      </trkpt>
      <trkpt lat="43.61723" lon="6.04451">
        <ele>682</ele>
        <time>2026-02-10T12:44:51.000Z</time>
      </trkpt>
      <trkpt lat="43.61723" lon="6.04449">
        <ele>682</ele>
        <time>2026-02-10T12:44:53.000Z</time>
      </trkpt>
      <trkpt lat="43.61722" lon="6.04447">
        <ele>682</ele>
        <time>2026-02-10T12:44:55.000Z</time>
      </trkpt>
      <trkpt lat="43.61722" lon="6.04445">
        <ele>682</ele>
        <time>2026-02-10T12:44:57.000Z</time>
      </trkpt>
      <trkpt lat="43.61721" lon="6.04443">
        <ele>682</ele>
        <time>2026-02-10T12:44:59.000Z</time>
      </trkpt>
      <trkpt lat="43.6172" lon="6.04442">
        <ele>682</ele>
        <time>2026-02-10T12:45:00.000Z</time>
      </trkpt>
      <trkpt lat="43.6172" lon="6.04441">
        <ele>682</ele>
        <time>2026-02-10T12:45:01.000Z</time>
      </trkpt>
      <trkpt lat="43.61719" lon="6.04439">
        <ele>682</ele>
        <time>2026-02-10T12:45:03.000Z</time>
      </trkpt>
      <trkpt lat="43.61718" lon="6.04437">
        <ele>682</ele>
        <time>2026-02-10T12:45:05.000Z</time>
      </trkpt>
      <trkpt lat="43.61718" lon="6.04436">
        <ele>682</ele>
        <time>2026-02-10T12:45:06.000Z</time>
      </trkpt>
      <trkpt lat="43.61717" lon="6.04435">
        <ele>682</ele>
        <time>2026-02-10T12:45:07.000Z</time>
      </trkpt>
      <trkpt lat="43.61716" lon="6.04434">
        <ele>682</ele>
        <time>2026-02-10T12:45:08.000Z</time>
      </trkpt>
      <trkpt lat="43.61715" lon="6.04432">
        <ele>683</ele>
        <time>2026-02-10T12:45:20.000Z</time>
      </trkpt>
      <trkpt lat="43.61714" lon="6.04431">
        <ele>683</ele>
        <time>2026-02-10T12:45:21.000Z</time>
      </trkpt>
      <trkpt lat="43.61714" lon="6.0443">
        <ele>683</ele>
        <time>2026-02-10T12:45:22.000Z</time>
      </trkpt>
      <trkpt lat="43.61713" lon="6.04429">
        <ele>683</ele>
        <time>2026-02-10T12:45:23.000Z</time>
      </trkpt>
      <trkpt lat="43.61712" lon="6.04428">
        <ele>683</ele>
        <time>2026-02-10T12:45:24.000Z</time>
      </trkpt>
      <trkpt lat="43.61711" lon="6.04427">
        <ele>683</ele>
        <time>2026-02-10T12:45:25.000Z</time>
      </trkpt>
      <trkpt lat="43.61711" lon="6.04425">
        <ele>683</ele>
        <time>2026-02-10T12:45:27.000Z</time>
      </trkpt>
      <trkpt lat="43.6171" lon="6.04424">
        <ele>683</ele>
        <time>2026-02-10T12:45:28.000Z</time>
      </trkpt>
      <trkpt lat="43.61709" lon="6.04422">
        <ele>683</ele>
        <time>2026-02-10T12:45:30.000Z</time>
      </trkpt>
      <trkpt lat="43.61708" lon="6.04421">
        <ele>683</ele>
        <time>2026-02-10T12:45:31.000Z</time>
      </trkpt>
      <trkpt lat="43.61708" lon="6.0442">
        <ele>683</ele>
        <time>2026-02-10T12:45:32.000Z</time>
      </trkpt>
      <trkpt lat="43.61706" lon="6.04419">
        <ele>683</ele>
        <time>2026-02-10T12:45:34.000Z</time>
      </trkpt>
      <trkpt lat="43.61705" lon="6.04417">
        <ele>683</ele>
        <time>2026-02-10T12:45:36.000Z</time>
      </trkpt>
      <trkpt lat="43.61705" lon="6.04416">
        <ele>683</ele>
        <time>2026-02-10T12:45:37.000Z</time>
      </trkpt>
      <trkpt lat="43.61704" lon="6.04415">
        <ele>683</ele>
        <time>2026-02-10T12:45:38.000Z</time>
      </trkpt>
      <trkpt lat="43.61703" lon="6.04414">
        <ele>683</ele>
        <time>2026-02-10T12:45:39.000Z</time>
      </trkpt>
      <trkpt lat="43.61703" lon="6.04413">
        <ele>683</ele>
        <time>2026-02-10T12:45:40.000Z</time>
      </trkpt>
      <trkpt lat="43.61702" lon="6.04412">
        <ele>683</ele>
        <time>2026-02-10T12:45:41.000Z</time>
      </trkpt>
      <trkpt lat="43.61702" lon="6.04411">
        <ele>683</ele>
        <time>2026-02-10T12:45:42.000Z</time>
      </trkpt>
      <trkpt lat="43.61702" lon="6.04409">
        <ele>683</ele>
        <time>2026-02-10T12:45:44.000Z</time>
      </trkpt>
      <trkpt lat="43.61701" lon="6.04407">
        <ele>683</ele>
        <time>2026-02-10T12:45:46.000Z</time>
      </trkpt>
      <trkpt lat="43.617" lon="6.04406">
        <ele>683</ele>
        <time>2026-02-10T12:45:47.000Z</time>
      </trkpt>
      <trkpt lat="43.617" lon="6.04405">
        <ele>683</ele>
        <time>2026-02-10T12:45:48.000Z</time>
      </trkpt>
      <trkpt lat="43.61699" lon="6.04403">
        <ele>683</ele>
        <time>2026-02-10T12:45:50.000Z</time>
      </trkpt>
      <trkpt lat="43.61699" lon="6.04402">
        <ele>683</ele>
        <time>2026-02-10T12:45:51.000Z</time>
      </trkpt>
      <trkpt lat="43.61698" lon="6.04401">
        <ele>683</ele>
        <time>2026-02-10T12:45:52.000Z</time>
      </trkpt>
      <trkpt lat="43.61697" lon="6.04399">
        <ele>683</ele>
        <time>2026-02-10T12:45:54.000Z</time>
      </trkpt>
      <trkpt lat="43.61696" lon="6.04398">
        <ele>683</ele>
        <time>2026-02-10T12:45:55.000Z</time>
      </trkpt>
      <trkpt lat="43.61696" lon="6.04396">
        <ele>683</ele>
        <time>2026-02-10T12:45:57.000Z</time>
      </trkpt>
      <trkpt lat="43.61695" lon="6.04395">
        <ele>683</ele>
        <time>2026-02-10T12:45:58.000Z</time>
      </trkpt>
      <trkpt lat="43.61695" lon="6.04393">
        <ele>683</ele>
        <time>2026-02-10T12:46:00.000Z</time>
      </trkpt>
      <trkpt lat="43.61694" lon="6.04392">
        <ele>683</ele>
        <time>2026-02-10T12:46:01.000Z</time>
      </trkpt>
      <trkpt lat="43.61693" lon="6.0439">
        <ele>684</ele>
        <time>2026-02-10T12:46:13.000Z</time>
      </trkpt>
      <trkpt lat="43.61693" lon="6.04389">
        <ele>684</ele>
        <time>2026-02-10T12:46:14.000Z</time>
      </trkpt>
      <trkpt lat="43.61692" lon="6.04387">
        <ele>684</ele>
        <time>2026-02-10T12:46:16.000Z</time>
      </trkpt>
      <trkpt lat="43.61692" lon="6.04386">
        <ele>684</ele>
        <time>2026-02-10T12:46:17.000Z</time>
      </trkpt>
      <trkpt lat="43.61691" lon="6.04385">
        <ele>684</ele>
        <time>2026-02-10T12:46:18.000Z</time>
      </trkpt>
      <trkpt lat="43.6169" lon="6.04383">
        <ele>684</ele>
        <time>2026-02-10T12:46:20.000Z</time>
      </trkpt>
      <trkpt lat="43.61689" lon="6.04382">
        <ele>684</ele>
        <time>2026-02-10T12:46:21.000Z</time>
      </trkpt>
      <trkpt lat="43.61689" lon="6.04381">
        <ele>684</ele>
        <time>2026-02-10T12:46:22.000Z</time>
      </trkpt>
      <trkpt lat="43.61688" lon="6.04379">
        <ele>684</ele>
        <time>2026-02-10T12:46:24.000Z</time>
      </trkpt>
      <trkpt lat="43.61688" lon="6.04378">
        <ele>684</ele>
        <time>2026-02-10T12:46:25.000Z</time>
      </trkpt>
      <trkpt lat="43.61687" lon="6.04376">
        <ele>684</ele>
        <time>2026-02-10T12:46:27.000Z</time>
      </trkpt>
      <trkpt lat="43.61687" lon="6.04375">
        <ele>684</ele>
        <time>2026-02-10T12:46:28.000Z</time>
      </trkpt>
      <trkpt lat="43.61686" lon="6.04374">
        <ele>684</ele>
        <time>2026-02-10T12:46:29.000Z</time>
      </trkpt>
      <trkpt lat="43.61686" lon="6.04372">
        <ele>684</ele>
        <time>2026-02-10T12:46:31.000Z</time>
      </trkpt>
      <trkpt lat="43.61686" lon="6.04371">
        <ele>685</ele>
        <time>2026-02-10T12:46:42.000Z</time>
      </trkpt>
      <trkpt lat="43.61685" lon="6.04369">
        <ele>685</ele>
        <time>2026-02-10T12:46:44.000Z</time>
      </trkpt>
      <trkpt lat="43.61685" lon="6.04368">
        <ele>685</ele>
        <time>2026-02-10T12:46:45.000Z</time>
      </trkpt>
      <trkpt lat="43.61685" lon="6.04367">
        <ele>685</ele>
        <time>2026-02-10T12:46:46.000Z</time>
      </trkpt>
      <trkpt lat="43.61685" lon="6.04365">
        <ele>685</ele>
        <time>2026-02-10T12:46:48.000Z</time>
      </trkpt>
      <trkpt lat="43.61685" lon="6.04363">
        <ele>685</ele>
        <time>2026-02-10T12:46:50.000Z</time>
      </trkpt>
      <trkpt lat="43.61684" lon="6.04362">
        <ele>685</ele>
        <time>2026-02-10T12:46:51.000Z</time>
      </trkpt>
      <trkpt lat="43.61684" lon="6.0436">
        <ele>685</ele>
        <time>2026-02-10T12:46:53.000Z</time>
      </trkpt>
      <trkpt lat="43.61684" lon="6.04359">
        <ele>685</ele>
        <time>2026-02-10T12:46:54.000Z</time>
      </trkpt>
      <trkpt lat="43.61683" lon="6.04358">
        <ele>685</ele>
        <time>2026-02-10T12:46:55.000Z</time>
      </trkpt>
      <trkpt lat="43.61683" lon="6.04357">
        <ele>686</ele>
        <time>2026-02-10T12:47:06.000Z</time>
      </trkpt>
      <trkpt lat="43.61683" lon="6.04356">
        <ele>686</ele>
        <time>2026-02-10T12:47:07.000Z</time>
      </trkpt>
      <trkpt lat="43.61682" lon="6.04354">
        <ele>686</ele>
        <time>2026-02-10T12:47:09.000Z</time>
      </trkpt>
      <trkpt lat="43.61682" lon="6.04353">
        <ele>686</ele>
        <time>2026-02-10T12:47:10.000Z</time>
      </trkpt>
      <trkpt lat="43.61682" lon="6.04351">
        <ele>686</ele>
        <time>2026-02-10T12:47:12.000Z</time>
      </trkpt>
      <trkpt lat="43.61681" lon="6.0435">
        <ele>686</ele>
        <time>2026-02-10T12:47:13.000Z</time>
      </trkpt>
      <trkpt lat="43.61681" lon="6.04349">
        <ele>686</ele>
        <time>2026-02-10T12:47:14.000Z</time>
      </trkpt>
      <trkpt lat="43.6168" lon="6.04348">
        <ele>686</ele>
        <time>2026-02-10T12:47:15.000Z</time>
      </trkpt>
      <trkpt lat="43.6168" lon="6.04346">
        <ele>686</ele>
        <time>2026-02-10T12:47:17.000Z</time>
      </trkpt>
      <trkpt lat="43.61679" lon="6.04345">
        <ele>686</ele>
        <time>2026-02-10T12:47:18.000Z</time>
      </trkpt>
      <trkpt lat="43.61679" lon="6.04344">
        <ele>687</ele>
        <time>2026-02-10T12:47:29.000Z</time>
      </trkpt>
      <trkpt lat="43.61679" lon="6.04342">
        <ele>687</ele>
        <time>2026-02-10T12:47:31.000Z</time>
      </trkpt>
      <trkpt lat="43.61679" lon="6.04341">
        <ele>687</ele>
        <time>2026-02-10T12:47:32.000Z</time>
      </trkpt>
      <trkpt lat="43.61679" lon="6.0434">
        <ele>687</ele>
        <time>2026-02-10T12:47:33.000Z</time>
      </trkpt>
      <trkpt lat="43.61678" lon="6.04338">
        <ele>687</ele>
        <time>2026-02-10T12:47:35.000Z</time>
      </trkpt>
      <trkpt lat="43.61678" lon="6.04337">
        <ele>687</ele>
        <time>2026-02-10T12:47:36.000Z</time>
      </trkpt>
      <trkpt lat="43.61678" lon="6.04335">
        <ele>687</ele>
        <time>2026-02-10T12:47:38.000Z</time>
      </trkpt>
      <trkpt lat="43.61678" lon="6.04334">
        <ele>688</ele>
        <time>2026-02-10T12:47:49.000Z</time>
      </trkpt>
      <trkpt lat="43.61677" lon="6.04333">
        <ele>688</ele>
        <time>2026-02-10T12:47:50.000Z</time>
      </trkpt>
      <trkpt lat="43.61677" lon="6.04331">
        <ele>688</ele>
        <time>2026-02-10T12:47:52.000Z</time>
      </trkpt>
      <trkpt lat="43.61677" lon="6.0433">
        <ele>688</ele>
        <time>2026-02-10T12:47:53.000Z</time>
      </trkpt>
      <trkpt lat="43.61676" lon="6.04328">
        <ele>688</ele>
        <time>2026-02-10T12:47:55.000Z</time>
      </trkpt>
      <trkpt lat="43.61676" lon="6.04327">
        <ele>688</ele>
        <time>2026-02-10T12:47:56.000Z</time>
      </trkpt>
      <trkpt lat="43.61676" lon="6.04326">
        <ele>688</ele>
        <time>2026-02-10T12:47:57.000Z</time>
      </trkpt>
      <trkpt lat="43.61675" lon="6.04324">
        <ele>688</ele>
        <time>2026-02-10T12:47:59.000Z</time>
      </trkpt>
      <trkpt lat="43.61675" lon="6.04323">
        <ele>688</ele>
        <time>2026-02-10T12:48:00.000Z</time>
      </trkpt>
      <trkpt lat="43.61674" lon="6.04321">
        <ele>688</ele>
        <time>2026-02-10T12:48:02.000Z</time>
      </trkpt>
      <trkpt lat="43.61674" lon="6.0432">
        <ele>688</ele>
        <time>2026-02-10T12:48:03.000Z</time>
      </trkpt>
      <trkpt lat="43.61673" lon="6.04318">
        <ele>688</ele>
        <time>2026-02-10T12:48:05.000Z</time>
      </trkpt>
      <trkpt lat="43.61673" lon="6.04317">
        <ele>688</ele>
        <time>2026-02-10T12:48:06.000Z</time>
      </trkpt>
      <trkpt lat="43.61673" lon="6.04316">
        <ele>688</ele>
        <time>2026-02-10T12:48:07.000Z</time>
      </trkpt>
      <trkpt lat="43.61673" lon="6.04314">
        <ele>688</ele>
        <time>2026-02-10T12:48:09.000Z</time>
      </trkpt>
      <trkpt lat="43.61673" lon="6.04312">
        <ele>688</ele>
        <time>2026-02-10T12:48:11.000Z</time>
      </trkpt>
      <trkpt lat="43.61673" lon="6.0431">
        <ele>689</ele>
        <time>2026-02-10T12:48:23.000Z</time>
      </trkpt>
      <trkpt lat="43.61673" lon="6.04308">
        <ele>689</ele>
        <time>2026-02-10T12:48:25.000Z</time>
      </trkpt>
      <trkpt lat="43.61673" lon="6.04307">
        <ele>689</ele>
        <time>2026-02-10T12:48:26.000Z</time>
      </trkpt>
      <trkpt lat="43.61672" lon="6.04305">
        <ele>689</ele>
        <time>2026-02-10T12:48:28.000Z</time>
      </trkpt>
      <trkpt lat="43.61672" lon="6.04303">
        <ele>689</ele>
        <time>2026-02-10T12:48:30.000Z</time>
      </trkpt>
      <trkpt lat="43.61671" lon="6.04302">
        <ele>689</ele>
        <time>2026-02-10T12:48:31.000Z</time>
      </trkpt>
      <trkpt lat="43.61671" lon="6.04301">
        <ele>689</ele>
        <time>2026-02-10T12:48:32.000Z</time>
      </trkpt>
      <trkpt lat="43.61671" lon="6.04299">
        <ele>689</ele>
        <time>2026-02-10T12:48:34.000Z</time>
      </trkpt>
      <trkpt lat="43.6167" lon="6.04297">
        <ele>689</ele>
        <time>2026-02-10T12:48:36.000Z</time>
      </trkpt>
      <trkpt lat="43.6167" lon="6.04296">
        <ele>689</ele>
        <time>2026-02-10T12:48:37.000Z</time>
      </trkpt>
      <trkpt lat="43.6167" lon="6.04295">
        <ele>689</ele>
        <time>2026-02-10T12:48:38.000Z</time>
      </trkpt>
      <trkpt lat="43.61669" lon="6.04293">
        <ele>689</ele>
        <time>2026-02-10T12:48:40.000Z</time>
      </trkpt>
      <trkpt lat="43.61669" lon="6.04292">
        <ele>689</ele>
        <time>2026-02-10T12:48:41.000Z</time>
      </trkpt>
      <trkpt lat="43.61668" lon="6.0429">
        <ele>689</ele>
        <time>2026-02-10T12:48:43.000Z</time>
      </trkpt>
      <trkpt lat="43.61668" lon="6.04288">
        <ele>689</ele>
        <time>2026-02-10T12:48:45.000Z</time>
      </trkpt>
      <trkpt lat="43.61668" lon="6.04287">
        <ele>689</ele>
        <time>2026-02-10T12:48:46.000Z</time>
      </trkpt>
      <trkpt lat="43.61668" lon="6.04285">
        <ele>689</ele>
        <time>2026-02-10T12:48:48.000Z</time>
      </trkpt>
      <trkpt lat="43.61668" lon="6.04283">
        <ele>690</ele>
        <time>2026-02-10T12:49:00.000Z</time>
      </trkpt>
      <trkpt lat="43.61668" lon="6.04281">
        <ele>690</ele>
        <time>2026-02-10T12:49:02.000Z</time>
      </trkpt>
      <trkpt lat="43.61667" lon="6.0428">
        <ele>690</ele>
        <time>2026-02-10T12:49:03.000Z</time>
      </trkpt>
      <trkpt lat="43.61667" lon="6.04278">
        <ele>690</ele>
        <time>2026-02-10T12:49:05.000Z</time>
      </trkpt>
      <trkpt lat="43.61667" lon="6.04277">
        <ele>690</ele>
        <time>2026-02-10T12:49:06.000Z</time>
      </trkpt>
      <trkpt lat="43.61666" lon="6.04275">
        <ele>690</ele>
        <time>2026-02-10T12:49:08.000Z</time>
      </trkpt>
      <trkpt lat="43.61666" lon="6.04274">
        <ele>690</ele>
        <time>2026-02-10T12:49:09.000Z</time>
      </trkpt>
      <trkpt lat="43.61666" lon="6.04272">
        <ele>690</ele>
        <time>2026-02-10T12:49:11.000Z</time>
      </trkpt>
      <trkpt lat="43.61665" lon="6.04271">
        <ele>689</ele>
        <time>2026-02-10T12:49:12.000Z</time>
      </trkpt>
      <trkpt lat="43.61665" lon="6.04269">
        <ele>689</ele>
        <time>2026-02-10T12:49:14.000Z</time>
      </trkpt>
      <trkpt lat="43.61664" lon="6.04267">
        <ele>689</ele>
        <time>2026-02-10T12:49:16.000Z</time>
      </trkpt>
      <trkpt lat="43.61664" lon="6.04266">
        <ele>689</ele>
        <time>2026-02-10T12:49:17.000Z</time>
      </trkpt>
      <trkpt lat="43.61663" lon="6.04264">
        <ele>689</ele>
        <time>2026-02-10T12:49:19.000Z</time>
      </trkpt>
      <trkpt lat="43.61662" lon="6.04263">
        <ele>689</ele>
        <time>2026-02-10T12:49:20.000Z</time>
      </trkpt>
      <trkpt lat="43.61662" lon="6.04262">
        <ele>689</ele>
        <time>2026-02-10T12:49:21.000Z</time>
      </trkpt>
      <trkpt lat="43.61661" lon="6.0426">
        <ele>690</ele>
        <time>2026-02-10T12:49:33.000Z</time>
      </trkpt>
      <trkpt lat="43.6166" lon="6.04258">
        <ele>690</ele>
        <time>2026-02-10T12:49:35.000Z</time>
      </trkpt>
      <trkpt lat="43.61659" lon="6.04257">
        <ele>689</ele>
        <time>2026-02-10T12:49:36.000Z</time>
      </trkpt>
      <trkpt lat="43.61659" lon="6.04256">
        <ele>689</ele>
        <time>2026-02-10T12:49:37.000Z</time>
      </trkpt>
      <trkpt lat="43.61658" lon="6.04255">
        <ele>689</ele>
        <time>2026-02-10T12:49:38.000Z</time>
      </trkpt>
      <trkpt lat="43.61657" lon="6.04254">
        <ele>689</ele>
        <time>2026-02-10T12:49:39.000Z</time>
      </trkpt>
      <trkpt lat="43.61656" lon="6.04253">
        <ele>689</ele>
        <time>2026-02-10T12:49:40.000Z</time>
      </trkpt>
      <trkpt lat="43.61655" lon="6.04252">
        <ele>689</ele>
        <time>2026-02-10T12:49:41.000Z</time>
      </trkpt>
      <trkpt lat="43.61654" lon="6.04252">
        <ele>689</ele>
        <time>2026-02-10T12:49:42.000Z</time>
      </trkpt>
      <trkpt lat="43.61653" lon="6.04251">
        <ele>689</ele>
        <time>2026-02-10T12:49:43.000Z</time>
      </trkpt>
      <trkpt lat="43.61652" lon="6.04251">
        <ele>689</ele>
        <time>2026-02-10T12:49:44.000Z</time>
      </trkpt>
      <trkpt lat="43.6165" lon="6.0425">
        <ele>689</ele>
        <time>2026-02-10T12:49:46.000Z</time>
      </trkpt>
      <trkpt lat="43.61648" lon="6.0425">
        <ele>689</ele>
        <time>2026-02-10T12:49:48.000Z</time>
      </trkpt>
      <trkpt lat="43.61647" lon="6.0425">
        <ele>689</ele>
        <time>2026-02-10T12:49:49.000Z</time>
      </trkpt>
      <trkpt lat="43.61646" lon="6.04249">
        <ele>689</ele>
        <time>2026-02-10T12:49:50.000Z</time>
      </trkpt>
      <trkpt lat="43.61645" lon="6.04249">
        <ele>689</ele>
        <time>2026-02-10T12:49:51.000Z</time>
      </trkpt>
      <trkpt lat="43.61644" lon="6.04249">
        <ele>689</ele>
        <time>2026-02-10T12:49:52.000Z</time>
      </trkpt>
      <trkpt lat="43.61642" lon="6.04249">
        <ele>689</ele>
        <time>2026-02-10T12:49:54.000Z</time>
      </trkpt>
      <trkpt lat="43.61641" lon="6.04248">
        <ele>689</ele>
        <time>2026-02-10T12:49:55.000Z</time>
      </trkpt>
      <trkpt lat="43.6164" lon="6.04249">
        <ele>689</ele>
        <time>2026-02-10T12:49:56.000Z</time>
      </trkpt>
      <trkpt lat="43.61639" lon="6.04249">
        <ele>689</ele>
        <time>2026-02-10T12:49:57.000Z</time>
      </trkpt>
      <trkpt lat="43.61638" lon="6.04249">
        <ele>689</ele>
        <time>2026-02-10T12:49:58.000Z</time>
      </trkpt>
      <trkpt lat="43.61637" lon="6.04249">
        <ele>689</ele>
        <time>2026-02-10T12:49:59.000Z</time>
      </trkpt>
      <trkpt lat="43.61636" lon="6.04248">
        <ele>689</ele>
        <time>2026-02-10T12:50:00.000Z</time>
      </trkpt>
      <trkpt lat="43.61635" lon="6.04248">
        <ele>689</ele>
        <time>2026-02-10T12:50:01.000Z</time>
      </trkpt>
      <trkpt lat="43.61634" lon="6.04248">
        <ele>689</ele>
        <time>2026-02-10T12:50:02.000Z</time>
      </trkpt>
      <trkpt lat="43.61632" lon="6.04247">
        <ele>689</ele>
        <time>2026-02-10T12:50:04.000Z</time>
      </trkpt>
      <trkpt lat="43.61631" lon="6.04247">
        <ele>689</ele>
        <time>2026-02-10T12:50:05.000Z</time>
      </trkpt>
      <trkpt lat="43.6163" lon="6.04246">
        <ele>689</ele>
        <time>2026-02-10T12:50:06.000Z</time>
      </trkpt>
      <trkpt lat="43.61629" lon="6.04246">
        <ele>689</ele>
        <time>2026-02-10T12:50:07.000Z</time>
      </trkpt>
      <trkpt lat="43.61628" lon="6.04246">
        <ele>689</ele>
        <time>2026-02-10T12:50:08.000Z</time>
      </trkpt>
      <trkpt lat="43.61627" lon="6.04246">
        <ele>688</ele>
        <time>2026-02-10T12:50:09.000Z</time>
      </trkpt>
      <trkpt lat="43.61626" lon="6.04245">
        <ele>688</ele>
        <time>2026-02-10T12:50:10.000Z</time>
      </trkpt>
      <trkpt lat="43.61625" lon="6.04245">
        <ele>688</ele>
        <time>2026-02-10T12:50:11.000Z</time>
      </trkpt>
      <trkpt lat="43.61624" lon="6.04245">
        <ele>688</ele>
        <time>2026-02-10T12:50:12.000Z</time>
      </trkpt>
      <trkpt lat="43.61623" lon="6.04245">
        <ele>688</ele>
        <time>2026-02-10T12:50:13.000Z</time>
      </trkpt>
      <trkpt lat="43.61621" lon="6.04245">
        <ele>688</ele>
        <time>2026-02-10T12:50:15.000Z</time>
      </trkpt>
      <trkpt lat="43.6162" lon="6.04245">
        <ele>688</ele>
        <time>2026-02-10T12:50:16.000Z</time>
      </trkpt>
      <trkpt lat="43.61619" lon="6.04245">
        <ele>688</ele>
        <time>2026-02-10T12:50:17.000Z</time>
      </trkpt>
      <trkpt lat="43.61618" lon="6.04245">
        <ele>688</ele>
        <time>2026-02-10T12:50:18.000Z</time>
      </trkpt>
      <trkpt lat="43.61617" lon="6.04245">
        <ele>687</ele>
        <time>2026-02-10T12:50:19.000Z</time>
      </trkpt>
      <trkpt lat="43.61616" lon="6.04245">
        <ele>687</ele>
        <time>2026-02-10T12:50:20.000Z</time>
      </trkpt>
      <trkpt lat="43.61615" lon="6.04244">
        <ele>687</ele>
        <time>2026-02-10T12:50:21.000Z</time>
      </trkpt>
      <trkpt lat="43.61613" lon="6.04244">
        <ele>687</ele>
        <time>2026-02-10T12:50:23.000Z</time>
      </trkpt>
      <trkpt lat="43.61612" lon="6.04244">
        <ele>687</ele>
        <time>2026-02-10T12:50:24.000Z</time>
      </trkpt>
      <trkpt lat="43.61611" lon="6.04244">
        <ele>687</ele>
        <time>2026-02-10T12:50:25.000Z</time>
      </trkpt>
      <trkpt lat="43.6161" lon="6.04244">
        <ele>687</ele>
        <time>2026-02-10T12:50:26.000Z</time>
      </trkpt>
      <trkpt lat="43.61609" lon="6.04244">
        <ele>687</ele>
        <time>2026-02-10T12:50:27.000Z</time>
      </trkpt>
      <trkpt lat="43.61608" lon="6.04244">
        <ele>687</ele>
        <time>2026-02-10T12:50:28.000Z</time>
      </trkpt>
      <trkpt lat="43.61607" lon="6.04244">
        <ele>686</ele>
        <time>2026-02-10T12:50:29.000Z</time>
      </trkpt>
      <trkpt lat="43.61606" lon="6.04244">
        <ele>686</ele>
        <time>2026-02-10T12:50:30.000Z</time>
      </trkpt>
      <trkpt lat="43.61605" lon="6.04244">
        <ele>686</ele>
        <time>2026-02-10T12:50:31.000Z</time>
      </trkpt>
      <trkpt lat="43.61604" lon="6.04245">
        <ele>686</ele>
        <time>2026-02-10T12:50:32.000Z</time>
      </trkpt>
      <trkpt lat="43.61603" lon="6.04245">
        <ele>686</ele>
        <time>2026-02-10T12:50:33.000Z</time>
      </trkpt>
      <trkpt lat="43.61602" lon="6.04246">
        <ele>686</ele>
        <time>2026-02-10T12:50:34.000Z</time>
      </trkpt>
      <trkpt lat="43.61601" lon="6.04247">
        <ele>685</ele>
        <time>2026-02-10T12:50:35.000Z</time>
      </trkpt>
      <trkpt lat="43.616" lon="6.04247">
        <ele>685</ele>
        <time>2026-02-10T12:50:36.000Z</time>
      </trkpt>
      <trkpt lat="43.61599" lon="6.04247">
        <ele>685</ele>
        <time>2026-02-10T12:50:37.000Z</time>
      </trkpt>
      <trkpt lat="43.61598" lon="6.04248">
        <ele>685</ele>
        <time>2026-02-10T12:50:38.000Z</time>
      </trkpt>
      <trkpt lat="43.61597" lon="6.04249">
        <ele>684</ele>
        <time>2026-02-10T12:50:39.000Z</time>
      </trkpt>
      <trkpt lat="43.61596" lon="6.0425">
        <ele>684</ele>
        <time>2026-02-10T12:50:40.000Z</time>
      </trkpt>
      <trkpt lat="43.61595" lon="6.0425">
        <ele>684</ele>
        <time>2026-02-10T12:50:41.000Z</time>
      </trkpt>
      <trkpt lat="43.61595" lon="6.04251">
        <ele>684</ele>
        <time>2026-02-10T12:50:42.000Z</time>
      </trkpt>
      <trkpt lat="43.61594" lon="6.04252">
        <ele>684</ele>
        <time>2026-02-10T12:50:43.000Z</time>
      </trkpt>
      <trkpt lat="43.61594" lon="6.04252">
        <ele>684</ele>
        <time>2026-02-10T12:50:43.000Z</time>
      </trkpt>
      <trkpt lat="43.61593" lon="6.04252">
        <ele>684</ele>
        <time>2026-02-10T12:50:44.000Z</time>
      </trkpt>
      <trkpt lat="43.61592" lon="6.04252">
        <ele>684</ele>
        <time>2026-02-10T12:50:45.000Z</time>
      </trkpt>
      <trkpt lat="43.6159" lon="6.04253">
        <ele>684</ele>
        <time>2026-02-10T12:50:47.000Z</time>
      </trkpt>
      <trkpt lat="43.6159" lon="6.04253">
        <ele>684</ele>
        <time>2026-02-10T12:50:47.000Z</time>
      </trkpt>
      <trkpt lat="43.61589" lon="6.04254">
        <ele>684</ele>
        <time>2026-02-10T12:50:48.000Z</time>
      </trkpt>
      <trkpt lat="43.61588" lon="6.04255">
        <ele>684</ele>
        <time>2026-02-10T12:50:49.000Z</time>
      </trkpt>
      <trkpt lat="43.61588" lon="6.04256">
        <ele>684</ele>
        <time>2026-02-10T12:50:50.000Z</time>
      </trkpt>
      <trkpt lat="43.61587" lon="6.04255">
        <ele>683</ele>
        <time>2026-02-10T12:50:51.000Z</time>
      </trkpt>
      <trkpt lat="43.61586" lon="6.04255">
        <ele>683</ele>
        <time>2026-02-10T12:50:52.000Z</time>
      </trkpt>
      <trkpt lat="43.61585" lon="6.04255">
        <ele>683</ele>
        <time>2026-02-10T12:50:53.000Z</time>
      </trkpt>
      <trkpt lat="43.61583" lon="6.04254">
        <ele>683</ele>
        <time>2026-02-10T12:50:55.000Z</time>
      </trkpt>
      <trkpt lat="43.61582" lon="6.04254">
        <ele>683</ele>
        <time>2026-02-10T12:50:56.000Z</time>
      </trkpt>
      <trkpt lat="43.61581" lon="6.04254">
        <ele>683</ele>
        <time>2026-02-10T12:50:57.000Z</time>
      </trkpt>
      <trkpt lat="43.6158" lon="6.04253">
        <ele>682</ele>
        <time>2026-02-10T12:50:58.000Z</time>
      </trkpt>
      <trkpt lat="43.61579" lon="6.04252">
        <ele>682</ele>
        <time>2026-02-10T12:50:59.000Z</time>
      </trkpt>
      <trkpt lat="43.61578" lon="6.04251">
        <ele>682</ele>
        <time>2026-02-10T12:51:00.000Z</time>
      </trkpt>
      <trkpt lat="43.61578" lon="6.04251">
        <ele>682</ele>
        <time>2026-02-10T12:51:00.000Z</time>
      </trkpt>
      <trkpt lat="43.61577" lon="6.0425">
        <ele>682</ele>
        <time>2026-02-10T12:51:01.000Z</time>
      </trkpt>
      <trkpt lat="43.61576" lon="6.0425">
        <ele>682</ele>
        <time>2026-02-10T12:51:02.000Z</time>
      </trkpt>
      <trkpt lat="43.61575" lon="6.04249">
        <ele>682</ele>
        <time>2026-02-10T12:51:03.000Z</time>
      </trkpt>
      <trkpt lat="43.61574" lon="6.04249">
        <ele>682</ele>
        <time>2026-02-10T12:51:04.000Z</time>
      </trkpt>
      <trkpt lat="43.61573" lon="6.04248">
        <ele>682</ele>
        <time>2026-02-10T12:51:05.000Z</time>
      </trkpt>
      <trkpt lat="43.61573" lon="6.04248">
        <ele>682</ele>
        <time>2026-02-10T12:51:05.000Z</time>
      </trkpt>
      <trkpt lat="43.61572" lon="6.04247">
        <ele>682</ele>
        <time>2026-02-10T12:51:06.000Z</time>
      </trkpt>
      <trkpt lat="43.61571" lon="6.04247">
        <ele>681</ele>
        <time>2026-02-10T12:51:07.000Z</time>
      </trkpt>
      <trkpt lat="43.6157" lon="6.04246">
        <ele>681</ele>
        <time>2026-02-10T12:51:08.000Z</time>
      </trkpt>
      <trkpt lat="43.61569" lon="6.04246">
        <ele>680</ele>
        <time>2026-02-10T12:51:09.000Z</time>
      </trkpt>
      <trkpt lat="43.61568" lon="6.04246">
        <ele>680</ele>
        <time>2026-02-10T12:51:10.000Z</time>
      </trkpt>
      <trkpt lat="43.61568" lon="6.04246">
        <ele>680</ele>
        <time>2026-02-10T12:51:10.000Z</time>
      </trkpt>
      <trkpt lat="43.61567" lon="6.04246">
        <ele>680</ele>
        <time>2026-02-10T12:51:11.000Z</time>
      </trkpt>
      <trkpt lat="43.61566" lon="6.04246">
        <ele>680</ele>
        <time>2026-02-10T12:51:12.000Z</time>
      </trkpt>
      <trkpt lat="43.61566" lon="6.04246">
        <ele>680</ele>
        <time>2026-02-10T12:51:12.000Z</time>
      </trkpt>
      <trkpt lat="43.61565" lon="6.04245">
        <ele>680</ele>
        <time>2026-02-10T12:51:13.000Z</time>
      </trkpt>
      <trkpt lat="43.61565" lon="6.04244">
        <ele>680</ele>
        <time>2026-02-10T12:51:14.000Z</time>
      </trkpt>
      <trkpt lat="43.61564" lon="6.04244">
        <ele>679</ele>
        <time>2026-02-10T12:51:15.000Z</time>
      </trkpt>
      <trkpt lat="43.61563" lon="6.04244">
        <ele>679</ele>
        <time>2026-02-10T12:51:16.000Z</time>
      </trkpt>
      <trkpt lat="43.61562" lon="6.04244">
        <ele>679</ele>
        <time>2026-02-10T12:51:17.000Z</time>
      </trkpt>
      <trkpt lat="43.61562" lon="6.04244">
        <ele>679</ele>
        <time>2026-02-10T12:51:17.000Z</time>
      </trkpt>
      <trkpt lat="43.61561" lon="6.04244">
        <ele>679</ele>
        <time>2026-02-10T12:51:18.000Z</time>
      </trkpt>
      <trkpt lat="43.61561" lon="6.04244">
        <ele>679</ele>
        <time>2026-02-10T12:51:18.000Z</time>
      </trkpt>
      <trkpt lat="43.61561" lon="6.04244">
        <ele>679</ele>
        <time>2026-02-10T12:51:18.000Z</time>
      </trkpt>
      <trkpt lat="43.61562" lon="6.04244">
        <ele>679</ele>
        <time>2026-02-10T12:51:19.000Z</time>
      </trkpt>
      <trkpt lat="43.61561" lon="6.04244">
        <ele>679</ele>
        <time>2026-02-10T12:51:20.000Z</time>
      </trkpt>
      <trkpt lat="43.61561" lon="6.04243">
        <ele>679</ele>
        <time>2026-02-10T12:51:21.000Z</time>
      </trkpt>
      <trkpt lat="43.61561" lon="6.04244">
        <ele>679</ele>
        <time>2026-02-10T12:51:22.000Z</time>
      </trkpt>
      <trkpt lat="43.61562" lon="6.04244">
        <ele>679</ele>
        <time>2026-02-10T12:51:23.000Z</time>
      </trkpt>
      <trkpt lat="43.61561" lon="6.04243">
        <ele>679</ele>
        <time>2026-02-10T12:51:24.000Z</time>
      </trkpt>
      <trkpt lat="43.61561" lon="6.04243">
        <ele>679</ele>
        <time>2026-02-10T12:51:24.000Z</time>
      </trkpt>
      <trkpt lat="43.61561" lon="6.04242">
        <ele>679</ele>
        <time>2026-02-10T12:51:25.000Z</time>
      </trkpt>
      <trkpt lat="43.6156" lon="6.04241">
        <ele>679</ele>
        <time>2026-02-10T12:51:26.000Z</time>
      </trkpt>
      <trkpt lat="43.6156" lon="6.04241">
        <ele>679</ele>
        <time>2026-02-10T12:51:26.000Z</time>
      </trkpt>
      <trkpt lat="43.61559" lon="6.04241">
        <ele>679</ele>
        <time>2026-02-10T12:51:27.000Z</time>
      </trkpt>
      <trkpt lat="43.61559" lon="6.0424">
        <ele>679</ele>
        <time>2026-02-10T12:51:28.000Z</time>
      </trkpt>
      <trkpt lat="43.61559" lon="6.0424">
        <ele>679</ele>
        <time>2026-02-10T12:51:28.000Z</time>
      </trkpt>
      <trkpt lat="43.61559" lon="6.0424">
        <ele>679</ele>
        <time>2026-02-10T12:51:28.000Z</time>
      </trkpt>
      <trkpt lat="43.61559" lon="6.04239">
        <ele>679</ele>
        <time>2026-02-10T12:51:29.000Z</time>
      </trkpt>
      <trkpt lat="43.61559" lon="6.04239">
        <ele>679</ele>
        <time>2026-02-10T12:51:29.000Z</time>
      </trkpt>
      <trkpt lat="43.61559" lon="6.04239">
        <ele>679</ele>
        <time>2026-02-10T12:51:29.000Z</time>
      </trkpt>
      <trkpt lat="43.61559" lon="6.04238">
        <ele>679</ele>
        <time>2026-02-10T12:51:30.000Z</time>
      </trkpt>
      <trkpt lat="43.61559" lon="6.04237">
        <ele>679</ele>
        <time>2026-02-10T12:51:31.000Z</time>
      </trkpt>
      <trkpt lat="43.61558" lon="6.04236">
        <ele>679</ele>
        <time>2026-02-10T12:51:32.000Z</time>
      </trkpt>
      <trkpt lat="43.61558" lon="6.04235">
        <ele>679</ele>
        <time>2026-02-10T12:51:33.000Z</time>
      </trkpt>
      <trkpt lat="43.61558" lon="6.04234">
        <ele>679</ele>
        <time>2026-02-10T12:51:34.000Z</time>
      </trkpt>
      <trkpt lat="43.61558" lon="6.04233">
        <ele>679</ele>
        <time>2026-02-10T12:51:35.000Z</time>
      </trkpt>
      <trkpt lat="43.61558" lon="6.04231">
        <ele>679</ele>
        <time>2026-02-10T12:51:37.000Z</time>
      </trkpt>
      <trkpt lat="43.61558" lon="6.0423">
        <ele>679</ele>
        <time>2026-02-10T12:51:38.000Z</time>
      </trkpt>
      <trkpt lat="43.61558" lon="6.04229">
        <ele>679</ele>
        <time>2026-02-10T12:51:39.000Z</time>
      </trkpt>
      <trkpt lat="43.61558" lon="6.04228">
        <ele>679</ele>
        <time>2026-02-10T12:51:40.000Z</time>
      </trkpt>
      <trkpt lat="43.61558" lon="6.04226">
        <ele>679</ele>
        <time>2026-02-10T12:51:42.000Z</time>
      </trkpt>
      <trkpt lat="43.61557" lon="6.04225">
        <ele>679</ele>
        <time>2026-02-10T12:51:43.000Z</time>
      </trkpt>
      <trkpt lat="43.61557" lon="6.04224">
        <ele>679</ele>
        <time>2026-02-10T12:51:44.000Z</time>
      </trkpt>
      <trkpt lat="43.61557" lon="6.04222">
        <ele>679</ele>
        <time>2026-02-10T12:51:46.000Z</time>
      </trkpt>
      <trkpt lat="43.61557" lon="6.04221">
        <ele>679</ele>
        <time>2026-02-10T12:51:47.000Z</time>
      </trkpt>
      <trkpt lat="43.61556" lon="6.0422">
        <ele>679</ele>
        <time>2026-02-10T12:51:48.000Z</time>
      </trkpt>
      <trkpt lat="43.61556" lon="6.04219">
        <ele>679</ele>
        <time>2026-02-10T12:51:49.000Z</time>
      </trkpt>
      <trkpt lat="43.61556" lon="6.04218">
        <ele>679</ele>
        <time>2026-02-10T12:51:50.000Z</time>
      </trkpt>
      <trkpt lat="43.61555" lon="6.04217">
        <ele>678</ele>
        <time>2026-02-10T12:51:51.000Z</time>
      </trkpt>
      <trkpt lat="43.61555" lon="6.04215">
        <ele>678</ele>
        <time>2026-02-10T12:51:53.000Z</time>
      </trkpt>
      <trkpt lat="43.61554" lon="6.04214">
        <ele>677</ele>
        <time>2026-02-10T12:51:54.000Z</time>
      </trkpt>
      <trkpt lat="43.61554" lon="6.04213">
        <ele>677</ele>
        <time>2026-02-10T12:51:55.000Z</time>
      </trkpt>
      <trkpt lat="43.61554" lon="6.04212">
        <ele>677</ele>
        <time>2026-02-10T12:51:56.000Z</time>
      </trkpt>
      <trkpt lat="43.61554" lon="6.04211">
        <ele>677</ele>
        <time>2026-02-10T12:51:57.000Z</time>
      </trkpt>
      <trkpt lat="43.61553" lon="6.04209">
        <ele>677</ele>
        <time>2026-02-10T12:51:59.000Z</time>
      </trkpt>
      <trkpt lat="43.61553" lon="6.04208">
        <ele>677</ele>
        <time>2026-02-10T12:52:00.000Z</time>
      </trkpt>
      <trkpt lat="43.61553" lon="6.04207">
        <ele>677</ele>
        <time>2026-02-10T12:52:01.000Z</time>
      </trkpt>
      <trkpt lat="43.61552" lon="6.04205">
        <ele>676</ele>
        <time>2026-02-10T12:52:03.000Z</time>
      </trkpt>
      <trkpt lat="43.61552" lon="6.04204">
        <ele>676</ele>
        <time>2026-02-10T12:52:04.000Z</time>
      </trkpt>
      <trkpt lat="43.61551" lon="6.04202">
        <ele>676</ele>
        <time>2026-02-10T12:52:06.000Z</time>
      </trkpt>
      <trkpt lat="43.61551" lon="6.04201">
        <ele>676</ele>
        <time>2026-02-10T12:52:07.000Z</time>
      </trkpt>
      <trkpt lat="43.6155" lon="6.042">
        <ele>676</ele>
        <time>2026-02-10T12:52:08.000Z</time>
      </trkpt>
      <trkpt lat="43.61549" lon="6.04199">
        <ele>676</ele>
        <time>2026-02-10T12:52:09.000Z</time>
      </trkpt>
      <trkpt lat="43.6155" lon="6.04197">
        <ele>676</ele>
        <time>2026-02-10T12:52:11.000Z</time>
      </trkpt>
      <trkpt lat="43.61549" lon="6.04196">
        <ele>676</ele>
        <time>2026-02-10T12:52:12.000Z</time>
      </trkpt>
      <trkpt lat="43.61549" lon="6.04195">
        <ele>676</ele>
        <time>2026-02-10T12:52:13.000Z</time>
      </trkpt>
      <trkpt lat="43.61549" lon="6.04194">
        <ele>676</ele>
        <time>2026-02-10T12:52:14.000Z</time>
      </trkpt>
      <trkpt lat="43.61549" lon="6.04192">
        <ele>676</ele>
        <time>2026-02-10T12:52:16.000Z</time>
      </trkpt>
      <trkpt lat="43.61548" lon="6.04191">
        <ele>675</ele>
        <time>2026-02-10T12:52:17.000Z</time>
      </trkpt>
      <trkpt lat="43.61548" lon="6.0419">
        <ele>675</ele>
        <time>2026-02-10T12:52:18.000Z</time>
      </trkpt>
      <trkpt lat="43.61548" lon="6.04189">
        <ele>675</ele>
        <time>2026-02-10T12:52:19.000Z</time>
      </trkpt>
      <trkpt lat="43.61548" lon="6.04188">
        <ele>675</ele>
        <time>2026-02-10T12:52:20.000Z</time>
      </trkpt>
      <trkpt lat="43.61548" lon="6.04187">
        <ele>675</ele>
        <time>2026-02-10T12:52:21.000Z</time>
      </trkpt>
      <trkpt lat="43.61548" lon="6.04186">
        <ele>675</ele>
        <time>2026-02-10T12:52:22.000Z</time>
      </trkpt>
      <trkpt lat="43.61547" lon="6.04184">
        <ele>675</ele>
        <time>2026-02-10T12:52:24.000Z</time>
      </trkpt>
      <trkpt lat="43.61547" lon="6.04184">
        <ele>675</ele>
        <time>2026-02-10T12:52:24.000Z</time>
      </trkpt>
      <trkpt lat="43.61546" lon="6.04182">
        <ele>675</ele>
        <time>2026-02-10T12:52:26.000Z</time>
      </trkpt>
      <trkpt lat="43.61546" lon="6.04181">
        <ele>675</ele>
        <time>2026-02-10T12:52:27.000Z</time>
      </trkpt>
      <trkpt lat="43.61546" lon="6.04179">
        <ele>675</ele>
        <time>2026-02-10T12:52:29.000Z</time>
      </trkpt>
      <trkpt lat="43.61546" lon="6.04178">
        <ele>675</ele>
        <time>2026-02-10T12:52:30.000Z</time>
      </trkpt>
      <trkpt lat="43.61545" lon="6.04177">
        <ele>675</ele>
        <time>2026-02-10T12:52:31.000Z</time>
      </trkpt>
      <trkpt lat="43.61545" lon="6.04176">
        <ele>675</ele>
        <time>2026-02-10T12:52:32.000Z</time>
      </trkpt>
      <trkpt lat="43.61544" lon="6.04175">
        <ele>675</ele>
        <time>2026-02-10T12:52:33.000Z</time>
      </trkpt>
      <trkpt lat="43.61544" lon="6.04174">
        <ele>675</ele>
        <time>2026-02-10T12:52:34.000Z</time>
      </trkpt>
      <trkpt lat="43.61544" lon="6.04173">
        <ele>674</ele>
        <time>2026-02-10T12:52:35.000Z</time>
      </trkpt>
      <trkpt lat="43.61544" lon="6.04171">
        <ele>674</ele>
        <time>2026-02-10T12:52:37.000Z</time>
      </trkpt>
      <trkpt lat="43.61544" lon="6.04169">
        <ele>674</ele>
        <time>2026-02-10T12:52:39.000Z</time>
      </trkpt>
      <trkpt lat="43.61543" lon="6.04169">
        <ele>674</ele>
        <time>2026-02-10T12:52:40.000Z</time>
      </trkpt>
      <trkpt lat="43.61542" lon="6.04167">
        <ele>673</ele>
        <time>2026-02-10T12:52:42.000Z</time>
      </trkpt>
      <trkpt lat="43.61542" lon="6.04166">
        <ele>673</ele>
        <time>2026-02-10T12:52:43.000Z</time>
      </trkpt>
      <trkpt lat="43.61542" lon="6.04165">
        <ele>673</ele>
        <time>2026-02-10T12:52:44.000Z</time>
      </trkpt>
      <trkpt lat="43.61541" lon="6.04163">
        <ele>673</ele>
        <time>2026-02-10T12:52:46.000Z</time>
      </trkpt>
      <trkpt lat="43.61541" lon="6.04162">
        <ele>673</ele>
        <time>2026-02-10T12:52:47.000Z</time>
      </trkpt>
      <trkpt lat="43.61541" lon="6.04161">
        <ele>673</ele>
        <time>2026-02-10T12:52:48.000Z</time>
      </trkpt>
      <trkpt lat="43.6154" lon="6.04159">
        <ele>673</ele>
        <time>2026-02-10T12:52:50.000Z</time>
      </trkpt>
      <trkpt lat="43.6154" lon="6.04158">
        <ele>673</ele>
        <time>2026-02-10T12:52:51.000Z</time>
      </trkpt>
      <trkpt lat="43.6154" lon="6.04157">
        <ele>673</ele>
        <time>2026-02-10T12:52:52.000Z</time>
      </trkpt>
      <trkpt lat="43.6154" lon="6.04155">
        <ele>673</ele>
        <time>2026-02-10T12:52:54.000Z</time>
      </trkpt>
      <trkpt lat="43.6154" lon="6.04154">
        <ele>673</ele>
        <time>2026-02-10T12:52:55.000Z</time>
      </trkpt>
      <trkpt lat="43.61539" lon="6.04153">
        <ele>673</ele>
        <time>2026-02-10T12:52:56.000Z</time>
      </trkpt>
      <trkpt lat="43.61539" lon="6.04152">
        <ele>673</ele>
        <time>2026-02-10T12:52:57.000Z</time>
      </trkpt>
      <trkpt lat="43.61538" lon="6.04151">
        <ele>672</ele>
        <time>2026-02-10T12:52:58.000Z</time>
      </trkpt>
      <trkpt lat="43.61538" lon="6.04149">
        <ele>672</ele>
        <time>2026-02-10T12:53:00.000Z</time>
      </trkpt>
      <trkpt lat="43.61537" lon="6.04148">
        <ele>672</ele>
        <time>2026-02-10T12:53:01.000Z</time>
      </trkpt>
      <trkpt lat="43.61537" lon="6.04147">
        <ele>672</ele>
        <time>2026-02-10T12:53:02.000Z</time>
      </trkpt>
      <trkpt lat="43.61537" lon="6.04146">
        <ele>671</ele>
        <time>2026-02-10T12:53:03.000Z</time>
      </trkpt>
      <trkpt lat="43.61536" lon="6.04146">
        <ele>671</ele>
        <time>2026-02-10T12:53:04.000Z</time>
      </trkpt>
      <trkpt lat="43.61537" lon="6.04144">
        <ele>671</ele>
        <time>2026-02-10T12:53:06.000Z</time>
      </trkpt>
      <trkpt lat="43.61537" lon="6.04143">
        <ele>671</ele>
        <time>2026-02-10T12:53:07.000Z</time>
      </trkpt>
      <trkpt lat="43.61536" lon="6.04142">
        <ele>671</ele>
        <time>2026-02-10T12:53:08.000Z</time>
      </trkpt>
      <trkpt lat="43.61536" lon="6.04141">
        <ele>671</ele>
        <time>2026-02-10T12:53:09.000Z</time>
      </trkpt>
      <trkpt lat="43.61536" lon="6.0414">
        <ele>671</ele>
        <time>2026-02-10T12:53:10.000Z</time>
      </trkpt>
      <trkpt lat="43.61535" lon="6.04139">
        <ele>670</ele>
        <time>2026-02-10T12:53:11.000Z</time>
      </trkpt>
      <trkpt lat="43.61535" lon="6.04138">
        <ele>670</ele>
        <time>2026-02-10T12:53:12.000Z</time>
      </trkpt>
      <trkpt lat="43.61535" lon="6.04137">
        <ele>670</ele>
        <time>2026-02-10T12:53:13.000Z</time>
      </trkpt>
      <trkpt lat="43.61534" lon="6.04136">
        <ele>670</ele>
        <time>2026-02-10T12:53:14.000Z</time>
      </trkpt>
      <trkpt lat="43.61534" lon="6.04134">
        <ele>670</ele>
        <time>2026-02-10T12:53:16.000Z</time>
      </trkpt>
      <trkpt lat="43.61534" lon="6.04133">
        <ele>670</ele>
        <time>2026-02-10T12:53:17.000Z</time>
      </trkpt>
      <trkpt lat="43.61533" lon="6.04132">
        <ele>670</ele>
        <time>2026-02-10T12:53:18.000Z</time>
      </trkpt>
      <trkpt lat="43.61533" lon="6.04131">
        <ele>670</ele>
        <time>2026-02-10T12:53:19.000Z</time>
      </trkpt>
      <trkpt lat="43.61533" lon="6.0413">
        <ele>670</ele>
        <time>2026-02-10T12:53:20.000Z</time>
      </trkpt>
      <trkpt lat="43.61532" lon="6.04129">
        <ele>670</ele>
        <time>2026-02-10T12:53:21.000Z</time>
      </trkpt>
      <trkpt lat="43.61532" lon="6.04128">
        <ele>670</ele>
        <time>2026-02-10T12:53:22.000Z</time>
      </trkpt>
      <trkpt lat="43.61532" lon="6.04127">
        <ele>670</ele>
        <time>2026-02-10T12:53:23.000Z</time>
      </trkpt>
      <trkpt lat="43.61531" lon="6.04126">
        <ele>669</ele>
        <time>2026-02-10T12:53:24.000Z</time>
      </trkpt>
      <trkpt lat="43.61531" lon="6.04124">
        <ele>669</ele>
        <time>2026-02-10T12:53:26.000Z</time>
      </trkpt>
      <trkpt lat="43.6153" lon="6.04123">
        <ele>669</ele>
        <time>2026-02-10T12:53:27.000Z</time>
      </trkpt>
      <trkpt lat="43.6153" lon="6.04123">
        <ele>669</ele>
        <time>2026-02-10T12:53:27.000Z</time>
      </trkpt>
      <trkpt lat="43.6153" lon="6.04121">
        <ele>669</ele>
        <time>2026-02-10T12:53:29.000Z</time>
      </trkpt>
      <trkpt lat="43.6153" lon="6.0412">
        <ele>668</ele>
        <time>2026-02-10T12:53:30.000Z</time>
      </trkpt>
      <trkpt lat="43.6153" lon="6.04119">
        <ele>668</ele>
        <time>2026-02-10T12:53:31.000Z</time>
      </trkpt>
      <trkpt lat="43.61529" lon="6.04118">
        <ele>668</ele>
        <time>2026-02-10T12:53:32.000Z</time>
      </trkpt>
      <trkpt lat="43.61529" lon="6.04117">
        <ele>668</ele>
        <time>2026-02-10T12:53:33.000Z</time>
      </trkpt>
      <trkpt lat="43.61529" lon="6.04116">
        <ele>668</ele>
        <time>2026-02-10T12:53:34.000Z</time>
      </trkpt>
      <trkpt lat="43.61528" lon="6.04114">
        <ele>668</ele>
        <time>2026-02-10T12:53:36.000Z</time>
      </trkpt>
      <trkpt lat="43.61528" lon="6.04113">
        <ele>668</ele>
        <time>2026-02-10T12:53:37.000Z</time>
      </trkpt>
      <trkpt lat="43.61528" lon="6.04112">
        <ele>668</ele>
        <time>2026-02-10T12:53:38.000Z</time>
      </trkpt>
      <trkpt lat="43.61528" lon="6.04111">
        <ele>668</ele>
        <time>2026-02-10T12:53:39.000Z</time>
      </trkpt>
      <trkpt lat="43.61528" lon="6.0411">
        <ele>668</ele>
        <time>2026-02-10T12:53:40.000Z</time>
      </trkpt>
      <trkpt lat="43.61528" lon="6.04109">
        <ele>668</ele>
        <time>2026-02-10T12:53:41.000Z</time>
      </trkpt>
      <trkpt lat="43.61527" lon="6.04108">
        <ele>668</ele>
        <time>2026-02-10T12:53:42.000Z</time>
      </trkpt>
      <trkpt lat="43.61527" lon="6.04107">
        <ele>668</ele>
        <time>2026-02-10T12:53:43.000Z</time>
      </trkpt>
      <trkpt lat="43.61526" lon="6.04106">
        <ele>667</ele>
        <time>2026-02-10T12:53:44.000Z</time>
      </trkpt>
      <trkpt lat="43.61526" lon="6.04104">
        <ele>667</ele>
        <time>2026-02-10T12:53:46.000Z</time>
      </trkpt>
      <trkpt lat="43.61526" lon="6.04103">
        <ele>667</ele>
        <time>2026-02-10T12:53:47.000Z</time>
      </trkpt>
      <trkpt lat="43.61525" lon="6.04101">
        <ele>667</ele>
        <time>2026-02-10T12:53:49.000Z</time>
      </trkpt>
      <trkpt lat="43.61525" lon="6.041">
        <ele>667</ele>
        <time>2026-02-10T12:53:50.000Z</time>
      </trkpt>
      <trkpt lat="43.61525" lon="6.04099">
        <ele>666</ele>
        <time>2026-02-10T12:53:51.000Z</time>
      </trkpt>
      <trkpt lat="43.61524" lon="6.04098">
        <ele>666</ele>
        <time>2026-02-10T12:53:52.000Z</time>
      </trkpt>
      <trkpt lat="43.61524" lon="6.04096">
        <ele>666</ele>
        <time>2026-02-10T12:53:54.000Z</time>
      </trkpt>
      <trkpt lat="43.61524" lon="6.04095">
        <ele>666</ele>
        <time>2026-02-10T12:53:55.000Z</time>
      </trkpt>
      <trkpt lat="43.61524" lon="6.04094">
        <ele>666</ele>
        <time>2026-02-10T12:53:56.000Z</time>
      </trkpt>
      <trkpt lat="43.61523" lon="6.04093">
        <ele>666</ele>
        <time>2026-02-10T12:53:57.000Z</time>
      </trkpt>
      <trkpt lat="43.61523" lon="6.04091">
        <ele>666</ele>
        <time>2026-02-10T12:53:59.000Z</time>
      </trkpt>
      <trkpt lat="43.61522" lon="6.0409">
        <ele>666</ele>
        <time>2026-02-10T12:54:00.000Z</time>
      </trkpt>
      <trkpt lat="43.61522" lon="6.04088">
        <ele>666</ele>
        <time>2026-02-10T12:54:02.000Z</time>
      </trkpt>
      <trkpt lat="43.61522" lon="6.04087">
        <ele>666</ele>
        <time>2026-02-10T12:54:03.000Z</time>
      </trkpt>
      <trkpt lat="43.61521" lon="6.04086">
        <ele>666</ele>
        <time>2026-02-10T12:54:04.000Z</time>
      </trkpt>
      <trkpt lat="43.61521" lon="6.04084">
        <ele>666</ele>
        <time>2026-02-10T12:54:06.000Z</time>
      </trkpt>
      <trkpt lat="43.6152" lon="6.04083">
        <ele>665</ele>
        <time>2026-02-10T12:54:07.000Z</time>
      </trkpt>
      <trkpt lat="43.6152" lon="6.04082">
        <ele>665</ele>
        <time>2026-02-10T12:54:08.000Z</time>
      </trkpt>
      <trkpt lat="43.6152" lon="6.0408">
        <ele>665</ele>
        <time>2026-02-10T12:54:10.000Z</time>
      </trkpt>
      <trkpt lat="43.6152" lon="6.04079">
        <ele>665</ele>
        <time>2026-02-10T12:54:11.000Z</time>
      </trkpt>
      <trkpt lat="43.61521" lon="6.04077">
        <ele>665</ele>
        <time>2026-02-10T12:54:13.000Z</time>
      </trkpt>
      <trkpt lat="43.61521" lon="6.04076">
        <ele>665</ele>
        <time>2026-02-10T12:54:14.000Z</time>
      </trkpt>
      <trkpt lat="43.6152" lon="6.04074">
        <ele>664</ele>
        <time>2026-02-10T12:54:16.000Z</time>
      </trkpt>
      <trkpt lat="43.6152" lon="6.04073">
        <ele>664</ele>
        <time>2026-02-10T12:54:17.000Z</time>
      </trkpt>
      <trkpt lat="43.61519" lon="6.04072">
        <ele>664</ele>
        <time>2026-02-10T12:54:18.000Z</time>
      </trkpt>
      <trkpt lat="43.61519" lon="6.04071">
        <ele>664</ele>
        <time>2026-02-10T12:54:19.000Z</time>
      </trkpt>
      <trkpt lat="43.61519" lon="6.04069">
        <ele>664</ele>
        <time>2026-02-10T12:54:21.000Z</time>
      </trkpt>
      <trkpt lat="43.61519" lon="6.04067">
        <ele>664</ele>
        <time>2026-02-10T12:54:23.000Z</time>
      </trkpt>
      <trkpt lat="43.61518" lon="6.04066">
        <ele>664</ele>
        <time>2026-02-10T12:54:24.000Z</time>
      </trkpt>
      <trkpt lat="43.61519" lon="6.04064">
        <ele>664</ele>
        <time>2026-02-10T12:54:26.000Z</time>
      </trkpt>
      <trkpt lat="43.61519" lon="6.04062">
        <ele>664</ele>
        <time>2026-02-10T12:54:28.000Z</time>
      </trkpt>
      <trkpt lat="43.61518" lon="6.04061">
        <ele>664</ele>
        <time>2026-02-10T12:54:29.000Z</time>
      </trkpt>
      <trkpt lat="43.61518" lon="6.0406">
        <ele>664</ele>
        <time>2026-02-10T12:54:30.000Z</time>
      </trkpt>
      <trkpt lat="43.61517" lon="6.04059">
        <ele>664</ele>
        <time>2026-02-10T12:54:31.000Z</time>
      </trkpt>
      <trkpt lat="43.61517" lon="6.04057">
        <ele>664</ele>
        <time>2026-02-10T12:54:33.000Z</time>
      </trkpt>
      <trkpt lat="43.61516" lon="6.04056">
        <ele>664</ele>
        <time>2026-02-10T12:54:34.000Z</time>
      </trkpt>
      <trkpt lat="43.61516" lon="6.04055">
        <ele>664</ele>
        <time>2026-02-10T12:54:35.000Z</time>
      </trkpt>
      <trkpt lat="43.61515" lon="6.04054">
        <ele>664</ele>
        <time>2026-02-10T12:54:36.000Z</time>
      </trkpt>
      <trkpt lat="43.61514" lon="6.04052">
        <ele>663</ele>
        <time>2026-02-10T12:54:38.000Z</time>
      </trkpt>
      <trkpt lat="43.61514" lon="6.04051">
        <ele>663</ele>
        <time>2026-02-10T12:54:39.000Z</time>
      </trkpt>
      <trkpt lat="43.61514" lon="6.0405">
        <ele>663</ele>
        <time>2026-02-10T12:54:40.000Z</time>
      </trkpt>
      <trkpt lat="43.61513" lon="6.04048">
        <ele>663</ele>
        <time>2026-02-10T12:54:42.000Z</time>
      </trkpt>
      <trkpt lat="43.61512" lon="6.04047">
        <ele>663</ele>
        <time>2026-02-10T12:54:43.000Z</time>
      </trkpt>
      <trkpt lat="43.61512" lon="6.04046">
        <ele>663</ele>
        <time>2026-02-10T12:54:44.000Z</time>
      </trkpt>
      <trkpt lat="43.61511" lon="6.04044">
        <ele>663</ele>
        <time>2026-02-10T12:54:46.000Z</time>
      </trkpt>
      <trkpt lat="43.61511" lon="6.04043">
        <ele>664</ele>
        <time>2026-02-10T12:54:57.000Z</time>
      </trkpt>
      <trkpt lat="43.61511" lon="6.0404">
        <ele>664</ele>
        <time>2026-02-10T12:54:59.000Z</time>
      </trkpt>
      <trkpt lat="43.6151" lon="6.04039">
        <ele>664</ele>
        <time>2026-02-10T12:55:00.000Z</time>
      </trkpt>
      <trkpt lat="43.61509" lon="6.04038">
        <ele>664</ele>
        <time>2026-02-10T12:55:01.000Z</time>
      </trkpt>
      <trkpt lat="43.61508" lon="6.04036">
        <ele>664</ele>
        <time>2026-02-10T12:55:03.000Z</time>
      </trkpt>
      <trkpt lat="43.61507" lon="6.04034">
        <ele>664</ele>
        <time>2026-02-10T12:55:05.000Z</time>
      </trkpt>
      <trkpt lat="43.61507" lon="6.04033">
        <ele>664</ele>
        <time>2026-02-10T12:55:06.000Z</time>
      </trkpt>
      <trkpt lat="43.61506" lon="6.04032">
        <ele>664</ele>
        <time>2026-02-10T12:55:07.000Z</time>
      </trkpt>
      <trkpt lat="43.61504" lon="6.04031">
        <ele>664</ele>
        <time>2026-02-10T12:55:09.000Z</time>
      </trkpt>
      <trkpt lat="43.61503" lon="6.04031">
        <ele>663</ele>
        <time>2026-02-10T12:55:10.000Z</time>
      </trkpt>
      <trkpt lat="43.61503" lon="6.0403">
        <ele>663</ele>
        <time>2026-02-10T12:55:11.000Z</time>
      </trkpt>
      <trkpt lat="43.61502" lon="6.04029">
        <ele>663</ele>
        <time>2026-02-10T12:55:12.000Z</time>
      </trkpt>
      <trkpt lat="43.61501" lon="6.04028">
        <ele>663</ele>
        <time>2026-02-10T12:55:13.000Z</time>
      </trkpt>
      <trkpt lat="43.61501" lon="6.04026">
        <ele>664</ele>
        <time>2026-02-10T12:55:25.000Z</time>
      </trkpt>
      <trkpt lat="43.61501" lon="6.04025">
        <ele>664</ele>
        <time>2026-02-10T12:55:26.000Z</time>
      </trkpt>
      <trkpt lat="43.615" lon="6.04023">
        <ele>664</ele>
        <time>2026-02-10T12:55:28.000Z</time>
      </trkpt>
      <trkpt lat="43.61499" lon="6.04021">
        <ele>664</ele>
        <time>2026-02-10T12:55:30.000Z</time>
      </trkpt>
      <trkpt lat="43.61499" lon="6.0402">
        <ele>664</ele>
        <time>2026-02-10T12:55:31.000Z</time>
      </trkpt>
      <trkpt lat="43.61498" lon="6.04019">
        <ele>664</ele>
        <time>2026-02-10T12:55:32.000Z</time>
      </trkpt>
      <trkpt lat="43.61498" lon="6.04017">
        <ele>664</ele>
        <time>2026-02-10T12:55:34.000Z</time>
      </trkpt>
      <trkpt lat="43.61497" lon="6.04016">
        <ele>663</ele>
        <time>2026-02-10T12:55:35.000Z</time>
      </trkpt>
      <trkpt lat="43.61496" lon="6.04015">
        <ele>663</ele>
        <time>2026-02-10T12:55:36.000Z</time>
      </trkpt>
      <trkpt lat="43.61496" lon="6.04013">
        <ele>663</ele>
        <time>2026-02-10T12:55:38.000Z</time>
      </trkpt>
      <trkpt lat="43.61495" lon="6.04012">
        <ele>663</ele>
        <time>2026-02-10T12:55:39.000Z</time>
      </trkpt>
      <trkpt lat="43.61494" lon="6.0401">
        <ele>663</ele>
        <time>2026-02-10T12:55:41.000Z</time>
      </trkpt>
      <trkpt lat="43.61494" lon="6.04009">
        <ele>663</ele>
        <time>2026-02-10T12:55:42.000Z</time>
      </trkpt>
      <trkpt lat="43.61493" lon="6.04007">
        <ele>663</ele>
        <time>2026-02-10T12:55:44.000Z</time>
      </trkpt>
      <trkpt lat="43.61493" lon="6.04005">
        <ele>663</ele>
        <time>2026-02-10T12:55:46.000Z</time>
      </trkpt>
      <trkpt lat="43.61492" lon="6.04003">
        <ele>663</ele>
        <time>2026-02-10T12:55:48.000Z</time>
      </trkpt>
      <trkpt lat="43.61491" lon="6.04002">
        <ele>663</ele>
        <time>2026-02-10T12:55:49.000Z</time>
      </trkpt>
      <trkpt lat="43.61491" lon="6.04">
        <ele>663</ele>
        <time>2026-02-10T12:55:51.000Z</time>
      </trkpt>
      <trkpt lat="43.6149" lon="6.03999">
        <ele>663</ele>
        <time>2026-02-10T12:55:52.000Z</time>
      </trkpt>
      <trkpt lat="43.61489" lon="6.03997">
        <ele>663</ele>
        <time>2026-02-10T12:55:54.000Z</time>
      </trkpt>
      <trkpt lat="43.61489" lon="6.03996">
        <ele>663</ele>
        <time>2026-02-10T12:55:55.000Z</time>
      </trkpt>
      <trkpt lat="43.61488" lon="6.03995">
        <ele>663</ele>
        <time>2026-02-10T12:55:56.000Z</time>
      </trkpt>
      <trkpt lat="43.61487" lon="6.03993">
        <ele>663</ele>
        <time>2026-02-10T12:55:58.000Z</time>
      </trkpt>
      <trkpt lat="43.61486" lon="6.03991">
        <ele>663</ele>
        <time>2026-02-10T12:56:00.000Z</time>
      </trkpt>
      <trkpt lat="43.61486" lon="6.0399">
        <ele>663</ele>
        <time>2026-02-10T12:56:01.000Z</time>
      </trkpt>
      <trkpt lat="43.61485" lon="6.03989">
        <ele>663</ele>
        <time>2026-02-10T12:56:02.000Z</time>
      </trkpt>
      <trkpt lat="43.61484" lon="6.03987">
        <ele>663</ele>
        <time>2026-02-10T12:56:04.000Z</time>
      </trkpt>
      <trkpt lat="43.61483" lon="6.03986">
        <ele>663</ele>
        <time>2026-02-10T12:56:05.000Z</time>
      </trkpt>
      <trkpt lat="43.61483" lon="6.03985">
        <ele>663</ele>
        <time>2026-02-10T12:56:06.000Z</time>
      </trkpt>
      <trkpt lat="43.61483" lon="6.03983">
        <ele>663</ele>
        <time>2026-02-10T12:56:08.000Z</time>
      </trkpt>
      <trkpt lat="43.61482" lon="6.03981">
        <ele>663</ele>
        <time>2026-02-10T12:56:10.000Z</time>
      </trkpt>
      <trkpt lat="43.61482" lon="6.03979">
        <ele>663</ele>
        <time>2026-02-10T12:56:12.000Z</time>
      </trkpt>
      <trkpt lat="43.61481" lon="6.03978">
        <ele>662</ele>
        <time>2026-02-10T12:56:13.000Z</time>
      </trkpt>
      <trkpt lat="43.61481" lon="6.03976">
        <ele>662</ele>
        <time>2026-02-10T12:56:15.000Z</time>
      </trkpt>
      <trkpt lat="43.61481" lon="6.03975">
        <ele>662</ele>
        <time>2026-02-10T12:56:16.000Z</time>
      </trkpt>
      <trkpt lat="43.61481" lon="6.03973">
        <ele>662</ele>
        <time>2026-02-10T12:56:18.000Z</time>
      </trkpt>
      <trkpt lat="43.6148" lon="6.03972">
        <ele>662</ele>
        <time>2026-02-10T12:56:19.000Z</time>
      </trkpt>
      <trkpt lat="43.61479" lon="6.0397">
        <ele>662</ele>
        <time>2026-02-10T12:56:21.000Z</time>
      </trkpt>
      <trkpt lat="43.61479" lon="6.03968">
        <ele>662</ele>
        <time>2026-02-10T12:56:23.000Z</time>
      </trkpt>
      <trkpt lat="43.61479" lon="6.03967">
        <ele>662</ele>
        <time>2026-02-10T12:56:24.000Z</time>
      </trkpt>
      <trkpt lat="43.61478" lon="6.03965">
        <ele>662</ele>
        <time>2026-02-10T12:56:26.000Z</time>
      </trkpt>
      <trkpt lat="43.61478" lon="6.03964">
        <ele>662</ele>
        <time>2026-02-10T12:56:27.000Z</time>
      </trkpt>
      <trkpt lat="43.61478" lon="6.03962">
        <ele>662</ele>
        <time>2026-02-10T12:56:29.000Z</time>
      </trkpt>
      <trkpt lat="43.61477" lon="6.03961">
        <ele>662</ele>
        <time>2026-02-10T12:56:30.000Z</time>
      </trkpt>
      <trkpt lat="43.61477" lon="6.03959">
        <ele>662</ele>
        <time>2026-02-10T12:56:32.000Z</time>
      </trkpt>
      <trkpt lat="43.61476" lon="6.03957">
        <ele>662</ele>
        <time>2026-02-10T12:56:34.000Z</time>
      </trkpt>
      <trkpt lat="43.61476" lon="6.03955">
        <ele>662</ele>
        <time>2026-02-10T12:56:36.000Z</time>
      </trkpt>
      <trkpt lat="43.61475" lon="6.03954">
        <ele>662</ele>
        <time>2026-02-10T12:56:37.000Z</time>
      </trkpt>
      <trkpt lat="43.61475" lon="6.03953">
        <ele>662</ele>
        <time>2026-02-10T12:56:38.000Z</time>
      </trkpt>
      <trkpt lat="43.61474" lon="6.03951">
        <ele>662</ele>
        <time>2026-02-10T12:56:40.000Z</time>
      </trkpt>
      <trkpt lat="43.61474" lon="6.03949">
        <ele>662</ele>
        <time>2026-02-10T12:56:42.000Z</time>
      </trkpt>
      <trkpt lat="43.61473" lon="6.03948">
        <ele>661</ele>
        <time>2026-02-10T12:56:43.000Z</time>
      </trkpt>
      <trkpt lat="43.61473" lon="6.03947">
        <ele>661</ele>
        <time>2026-02-10T12:56:44.000Z</time>
      </trkpt>
      <trkpt lat="43.61473" lon="6.03945">
        <ele>661</ele>
        <time>2026-02-10T12:56:46.000Z</time>
      </trkpt>
      <trkpt lat="43.61473" lon="6.03943">
        <ele>662</ele>
        <time>2026-02-10T12:56:58.000Z</time>
      </trkpt>
      <trkpt lat="43.61472" lon="6.03942">
        <ele>662</ele>
        <time>2026-02-10T12:56:59.000Z</time>
      </trkpt>
      <trkpt lat="43.61472" lon="6.03941">
        <ele>662</ele>
        <time>2026-02-10T12:57:00.000Z</time>
      </trkpt>
      <trkpt lat="43.61471" lon="6.03939">
        <ele>662</ele>
        <time>2026-02-10T12:57:02.000Z</time>
      </trkpt>
      <trkpt lat="43.61471" lon="6.03937">
        <ele>662</ele>
        <time>2026-02-10T12:57:04.000Z</time>
      </trkpt>
      <trkpt lat="43.6147" lon="6.03936">
        <ele>661</ele>
        <time>2026-02-10T12:57:05.000Z</time>
      </trkpt>
      <trkpt lat="43.61469" lon="6.03935">
        <ele>661</ele>
        <time>2026-02-10T12:57:06.000Z</time>
      </trkpt>
      <trkpt lat="43.61469" lon="6.03933">
        <ele>661</ele>
        <time>2026-02-10T12:57:08.000Z</time>
      </trkpt>
      <trkpt lat="43.61468" lon="6.03932">
        <ele>661</ele>
        <time>2026-02-10T12:57:09.000Z</time>
      </trkpt>
      <trkpt lat="43.61468" lon="6.0393">
        <ele>661</ele>
        <time>2026-02-10T12:57:11.000Z</time>
      </trkpt>
      <trkpt lat="43.61468" lon="6.03928">
        <ele>661</ele>
        <time>2026-02-10T12:57:13.000Z</time>
      </trkpt>
      <trkpt lat="43.61467" lon="6.03927">
        <ele>661</ele>
        <time>2026-02-10T12:57:14.000Z</time>
      </trkpt>
      <trkpt lat="43.61467" lon="6.03925">
        <ele>661</ele>
        <time>2026-02-10T12:57:16.000Z</time>
      </trkpt>
      <trkpt lat="43.61467" lon="6.03924">
        <ele>661</ele>
        <time>2026-02-10T12:57:17.000Z</time>
      </trkpt>
      <trkpt lat="43.61466" lon="6.03923">
        <ele>661</ele>
        <time>2026-02-10T12:57:18.000Z</time>
      </trkpt>
      <trkpt lat="43.61465" lon="6.03921">
        <ele>661</ele>
        <time>2026-02-10T12:57:20.000Z</time>
      </trkpt>
      <trkpt lat="43.61464" lon="6.0392">
        <ele>660</ele>
        <time>2026-02-10T12:57:21.000Z</time>
      </trkpt>
      <trkpt lat="43.61464" lon="6.03919">
        <ele>660</ele>
        <time>2026-02-10T12:57:22.000Z</time>
      </trkpt>
      <trkpt lat="43.61464" lon="6.03917">
        <ele>660</ele>
        <time>2026-02-10T12:57:24.000Z</time>
      </trkpt>
      <trkpt lat="43.61463" lon="6.03916">
        <ele>660</ele>
        <time>2026-02-10T12:57:25.000Z</time>
      </trkpt>
      <trkpt lat="43.61463" lon="6.03914">
        <ele>660</ele>
        <time>2026-02-10T12:57:27.000Z</time>
      </trkpt>
      <trkpt lat="43.61463" lon="6.03913">
        <ele>660</ele>
        <time>2026-02-10T12:57:28.000Z</time>
      </trkpt>
      <trkpt lat="43.61462" lon="6.03911">
        <ele>660</ele>
        <time>2026-02-10T12:57:30.000Z</time>
      </trkpt>
      <trkpt lat="43.61462" lon="6.0391">
        <ele>660</ele>
        <time>2026-02-10T12:57:31.000Z</time>
      </trkpt>
      <trkpt lat="43.61461" lon="6.03909">
        <ele>660</ele>
        <time>2026-02-10T12:57:32.000Z</time>
      </trkpt>
      <trkpt lat="43.61461" lon="6.03908">
        <ele>660</ele>
        <time>2026-02-10T12:57:33.000Z</time>
      </trkpt>
      <trkpt lat="43.6146" lon="6.03907">
        <ele>660</ele>
        <time>2026-02-10T12:57:34.000Z</time>
      </trkpt>
      <trkpt lat="43.6146" lon="6.03906">
        <ele>660</ele>
        <time>2026-02-10T12:57:35.000Z</time>
      </trkpt>
      <trkpt lat="43.61459" lon="6.03904">
        <ele>660</ele>
        <time>2026-02-10T12:57:37.000Z</time>
      </trkpt>
      <trkpt lat="43.61459" lon="6.03902">
        <ele>660</ele>
        <time>2026-02-10T12:57:39.000Z</time>
      </trkpt>
      <trkpt lat="43.61458" lon="6.03901">
        <ele>659</ele>
        <time>2026-02-10T12:57:40.000Z</time>
      </trkpt>
      <trkpt lat="43.61458" lon="6.03899">
        <ele>659</ele>
        <time>2026-02-10T12:57:42.000Z</time>
      </trkpt>
      <trkpt lat="43.61457" lon="6.03898">
        <ele>659</ele>
        <time>2026-02-10T12:57:43.000Z</time>
      </trkpt>
      <trkpt lat="43.61457" lon="6.03896">
        <ele>659</ele>
        <time>2026-02-10T12:57:45.000Z</time>
      </trkpt>
      <trkpt lat="43.61456" lon="6.03895">
        <ele>659</ele>
        <time>2026-02-10T12:57:46.000Z</time>
      </trkpt>
      <trkpt lat="43.61456" lon="6.03893">
        <ele>659</ele>
        <time>2026-02-10T12:57:48.000Z</time>
      </trkpt>
      <trkpt lat="43.61455" lon="6.03892">
        <ele>659</ele>
        <time>2026-02-10T12:57:49.000Z</time>
      </trkpt>
      <trkpt lat="43.61455" lon="6.0389">
        <ele>659</ele>
        <time>2026-02-10T12:57:51.000Z</time>
      </trkpt>
      <trkpt lat="43.61454" lon="6.03888">
        <ele>659</ele>
        <time>2026-02-10T12:57:53.000Z</time>
      </trkpt>
      <trkpt lat="43.61454" lon="6.03886">
        <ele>659</ele>
        <time>2026-02-10T12:57:55.000Z</time>
      </trkpt>
      <trkpt lat="43.61454" lon="6.03885">
        <ele>659</ele>
        <time>2026-02-10T12:57:56.000Z</time>
      </trkpt>
      <trkpt lat="43.61453" lon="6.03883">
        <ele>659</ele>
        <time>2026-02-10T12:57:58.000Z</time>
      </trkpt>
      <trkpt lat="43.61453" lon="6.03882">
        <ele>659</ele>
        <time>2026-02-10T12:57:59.000Z</time>
      </trkpt>
      <trkpt lat="43.61452" lon="6.0388">
        <ele>659</ele>
        <time>2026-02-10T12:58:01.000Z</time>
      </trkpt>
      <trkpt lat="43.61452" lon="6.03879">
        <ele>659</ele>
        <time>2026-02-10T12:58:02.000Z</time>
      </trkpt>
      <trkpt lat="43.61451" lon="6.03877">
        <ele>659</ele>
        <time>2026-02-10T12:58:04.000Z</time>
      </trkpt>
      <trkpt lat="43.61451" lon="6.03876">
        <ele>658</ele>
        <time>2026-02-10T12:58:05.000Z</time>
      </trkpt>
      <trkpt lat="43.6145" lon="6.03874">
        <ele>658</ele>
        <time>2026-02-10T12:58:07.000Z</time>
      </trkpt>
      <trkpt lat="43.6145" lon="6.03872">
        <ele>658</ele>
        <time>2026-02-10T12:58:09.000Z</time>
      </trkpt>
      <trkpt lat="43.6145" lon="6.0387">
        <ele>658</ele>
        <time>2026-02-10T12:58:11.000Z</time>
      </trkpt>
      <trkpt lat="43.61449" lon="6.03869">
        <ele>658</ele>
        <time>2026-02-10T12:58:12.000Z</time>
      </trkpt>
      <trkpt lat="43.61449" lon="6.03867">
        <ele>658</ele>
        <time>2026-02-10T12:58:14.000Z</time>
      </trkpt>
      <trkpt lat="43.61449" lon="6.03866">
        <ele>658</ele>
        <time>2026-02-10T12:58:15.000Z</time>
      </trkpt>
      <trkpt lat="43.61448" lon="6.03864">
        <ele>658</ele>
        <time>2026-02-10T12:58:17.000Z</time>
      </trkpt>
      <trkpt lat="43.61447" lon="6.03863">
        <ele>658</ele>
        <time>2026-02-10T12:58:18.000Z</time>
      </trkpt>
      <trkpt lat="43.61447" lon="6.03861">
        <ele>658</ele>
        <time>2026-02-10T12:58:20.000Z</time>
      </trkpt>
      <trkpt lat="43.61447" lon="6.0386">
        <ele>658</ele>
        <time>2026-02-10T12:58:21.000Z</time>
      </trkpt>
      <trkpt lat="43.61447" lon="6.03858">
        <ele>658</ele>
        <time>2026-02-10T12:58:23.000Z</time>
      </trkpt>
      <trkpt lat="43.61446" lon="6.03856">
        <ele>658</ele>
        <time>2026-02-10T12:58:25.000Z</time>
      </trkpt>
      <trkpt lat="43.61446" lon="6.03855">
        <ele>658</ele>
        <time>2026-02-10T12:58:26.000Z</time>
      </trkpt>
      <trkpt lat="43.61446" lon="6.03853">
        <ele>658</ele>
        <time>2026-02-10T12:58:28.000Z</time>
      </trkpt>
      <trkpt lat="43.61445" lon="6.03852">
        <ele>658</ele>
        <time>2026-02-10T12:58:29.000Z</time>
      </trkpt>
      <trkpt lat="43.61445" lon="6.0385">
        <ele>658</ele>
        <time>2026-02-10T12:58:31.000Z</time>
      </trkpt>
      <trkpt lat="43.61445" lon="6.03849">
        <ele>658</ele>
        <time>2026-02-10T12:58:32.000Z</time>
      </trkpt>
      <trkpt lat="43.61445" lon="6.03847">
        <ele>658</ele>
        <time>2026-02-10T12:58:34.000Z</time>
      </trkpt>
      <trkpt lat="43.61444" lon="6.03845">
        <ele>658</ele>
        <time>2026-02-10T12:58:36.000Z</time>
      </trkpt>
      <trkpt lat="43.61444" lon="6.03844">
        <ele>658</ele>
        <time>2026-02-10T12:58:37.000Z</time>
      </trkpt>
      <trkpt lat="43.61445" lon="6.03842">
        <ele>657</ele>
        <time>2026-02-10T12:58:39.000Z</time>
      </trkpt>
      <trkpt lat="43.61445" lon="6.03841">
        <ele>657</ele>
        <time>2026-02-10T12:58:40.000Z</time>
      </trkpt>
      <trkpt lat="43.61445" lon="6.03839">
        <ele>657</ele>
        <time>2026-02-10T12:58:42.000Z</time>
      </trkpt>
      <trkpt lat="43.61445" lon="6.03837">
        <ele>657</ele>
        <time>2026-02-10T12:58:44.000Z</time>
      </trkpt>
      <trkpt lat="43.61445" lon="6.03836">
        <ele>657</ele>
        <time>2026-02-10T12:58:45.000Z</time>
      </trkpt>
      <trkpt lat="43.61445" lon="6.03834">
        <ele>657</ele>
        <time>2026-02-10T12:58:47.000Z</time>
      </trkpt>
      <trkpt lat="43.61445" lon="6.03833">
        <ele>657</ele>
        <time>2026-02-10T12:58:48.000Z</time>
      </trkpt>
      <trkpt lat="43.61444" lon="6.03831">
        <ele>657</ele>
        <time>2026-02-10T12:58:50.000Z</time>
      </trkpt>
      <trkpt lat="43.61444" lon="6.0383">
        <ele>657</ele>
        <time>2026-02-10T12:58:51.000Z</time>
      </trkpt>
      <trkpt lat="43.61444" lon="6.03829">
        <ele>657</ele>
        <time>2026-02-10T12:58:52.000Z</time>
      </trkpt>
      <trkpt lat="43.61444" lon="6.03827">
        <ele>656</ele>
        <time>2026-02-10T12:58:54.000Z</time>
      </trkpt>
      <trkpt lat="43.61444" lon="6.03825">
        <ele>656</ele>
        <time>2026-02-10T12:58:56.000Z</time>
      </trkpt>
      <trkpt lat="43.61444" lon="6.03823">
        <ele>656</ele>
        <time>2026-02-10T12:58:58.000Z</time>
      </trkpt>
      <trkpt lat="43.61443" lon="6.03821">
        <ele>656</ele>
        <time>2026-02-10T12:59:00.000Z</time>
      </trkpt>
      <trkpt lat="43.61443" lon="6.0382">
        <ele>656</ele>
        <time>2026-02-10T12:59:01.000Z</time>
      </trkpt>
      <trkpt lat="43.61443" lon="6.03818">
        <ele>656</ele>
        <time>2026-02-10T12:59:03.000Z</time>
      </trkpt>
      <trkpt lat="43.61443" lon="6.03817">
        <ele>656</ele>
        <time>2026-02-10T12:59:04.000Z</time>
      </trkpt>
      <trkpt lat="43.61443" lon="6.03815">
        <ele>656</ele>
        <time>2026-02-10T12:59:06.000Z</time>
      </trkpt>
      <trkpt lat="43.61442" lon="6.03813">
        <ele>656</ele>
        <time>2026-02-10T12:59:08.000Z</time>
      </trkpt>
      <trkpt lat="43.61442" lon="6.03812">
        <ele>656</ele>
        <time>2026-02-10T12:59:09.000Z</time>
      </trkpt>
      <trkpt lat="43.61442" lon="6.0381">
        <ele>656</ele>
        <time>2026-02-10T12:59:11.000Z</time>
      </trkpt>
      <trkpt lat="43.61443" lon="6.03809">
        <ele>655</ele>
        <time>2026-02-10T12:59:12.000Z</time>
      </trkpt>
      <trkpt lat="43.61443" lon="6.03807">
        <ele>655</ele>
        <time>2026-02-10T12:59:14.000Z</time>
      </trkpt>
      <trkpt lat="43.61442" lon="6.03805">
        <ele>655</ele>
        <time>2026-02-10T12:59:16.000Z</time>
      </trkpt>
      <trkpt lat="43.61442" lon="6.03804">
        <ele>655</ele>
        <time>2026-02-10T12:59:17.000Z</time>
      </trkpt>
      <trkpt lat="43.61442" lon="6.03802">
        <ele>655</ele>
        <time>2026-02-10T12:59:19.000Z</time>
      </trkpt>
      <trkpt lat="43.61442" lon="6.038">
        <ele>655</ele>
        <time>2026-02-10T12:59:21.000Z</time>
      </trkpt>
      <trkpt lat="43.61441" lon="6.03799">
        <ele>655</ele>
        <time>2026-02-10T12:59:22.000Z</time>
      </trkpt>
      <trkpt lat="43.61441" lon="6.03798">
        <ele>654</ele>
        <time>2026-02-10T12:59:23.000Z</time>
      </trkpt>
      <trkpt lat="43.61441" lon="6.03797">
        <ele>654</ele>
        <time>2026-02-10T12:59:24.000Z</time>
      </trkpt>
      <trkpt lat="43.6144" lon="6.03795">
        <ele>654</ele>
        <time>2026-02-10T12:59:26.000Z</time>
      </trkpt>
      <trkpt lat="43.6144" lon="6.03794">
        <ele>654</ele>
        <time>2026-02-10T12:59:27.000Z</time>
      </trkpt>
      <trkpt lat="43.61439" lon="6.03792">
        <ele>654</ele>
        <time>2026-02-10T12:59:29.000Z</time>
      </trkpt>
      <trkpt lat="43.61439" lon="6.03791">
        <ele>654</ele>
        <time>2026-02-10T12:59:30.000Z</time>
      </trkpt>
      <trkpt lat="43.61439" lon="6.0379">
        <ele>654</ele>
        <time>2026-02-10T12:59:31.000Z</time>
      </trkpt>
      <trkpt lat="43.61438" lon="6.03788">
        <ele>654</ele>
        <time>2026-02-10T12:59:33.000Z</time>
      </trkpt>
      <trkpt lat="43.61437" lon="6.03788">
        <ele>654</ele>
        <time>2026-02-10T12:59:34.000Z</time>
      </trkpt>
      <trkpt lat="43.61437" lon="6.03787">
        <ele>654</ele>
        <time>2026-02-10T12:59:35.000Z</time>
      </trkpt>
      <trkpt lat="43.61436" lon="6.03786">
        <ele>654</ele>
        <time>2026-02-10T12:59:36.000Z</time>
      </trkpt>
      <trkpt lat="43.61436" lon="6.03786">
        <ele>654</ele>
        <time>2026-02-10T12:59:36.000Z</time>
      </trkpt>
      <trkpt lat="43.61436" lon="6.03786">
        <ele>654</ele>
        <time>2026-02-10T12:59:36.000Z</time>
      </trkpt>
      <trkpt lat="43.61436" lon="6.03786">
        <ele>654</ele>
        <time>2026-02-10T12:59:36.000Z</time>
      </trkpt>
      <trkpt lat="43.61436" lon="6.03786">
        <ele>654</ele>
        <time>2026-02-10T12:59:36.000Z</time>
      </trkpt>
      <trkpt lat="43.61435" lon="6.03786">
        <ele>653</ele>
        <time>2026-02-10T12:59:37.000Z</time>
      </trkpt>
      <trkpt lat="43.61435" lon="6.03785">
        <ele>653</ele>
        <time>2026-02-10T12:59:38.000Z</time>
      </trkpt>
      <trkpt lat="43.61435" lon="6.03785">
        <ele>653</ele>
        <time>2026-02-10T12:59:38.000Z</time>
      </trkpt>
      <trkpt lat="43.61435" lon="6.03784">
        <ele>653</ele>
        <time>2026-02-10T12:59:39.000Z</time>
      </trkpt>
      <trkpt lat="43.61435" lon="6.03784">
        <ele>653</ele>
        <time>2026-02-10T12:59:39.000Z</time>
      </trkpt>
      <trkpt lat="43.61435" lon="6.03783">
        <ele>653</ele>
        <time>2026-02-10T12:59:40.000Z</time>
      </trkpt>
      <trkpt lat="43.61436" lon="6.03783">
        <ele>653</ele>
        <time>2026-02-10T12:59:41.000Z</time>
      </trkpt>
      <trkpt lat="43.61436" lon="6.03783">
        <ele>653</ele>
        <time>2026-02-10T12:59:41.000Z</time>
      </trkpt>
      <trkpt lat="43.61435" lon="6.03783">
        <ele>653</ele>
        <time>2026-02-10T12:59:42.000Z</time>
      </trkpt>
      <trkpt lat="43.61435" lon="6.03782">
        <ele>653</ele>
        <time>2026-02-10T12:59:43.000Z</time>
      </trkpt>
      <trkpt lat="43.61435" lon="6.03782">
        <ele>653</ele>
        <time>2026-02-10T12:59:43.000Z</time>
      </trkpt>
      <trkpt lat="43.61435" lon="6.03782">
        <ele>653</ele>
        <time>2026-02-10T12:59:43.000Z</time>
      </trkpt>
      <trkpt lat="43.61435" lon="6.03782">
        <ele>653</ele>
        <time>2026-02-10T12:59:43.000Z</time>
      </trkpt>
      <trkpt lat="43.61435" lon="6.03782">
        <ele>653</ele>
        <time>2026-02-10T12:59:43.000Z</time>
      </trkpt>
      <trkpt lat="43.61435" lon="6.03782">
        <ele>653</ele>
        <time>2026-02-10T12:59:43.000Z</time>
      </trkpt>
      <trkpt lat="43.61435" lon="6.03781">
        <ele>653</ele>
        <time>2026-02-10T12:59:44.000Z</time>
      </trkpt>
      <trkpt lat="43.61435" lon="6.03781">
        <ele>653</ele>
        <time>2026-02-10T12:59:44.000Z</time>
      </trkpt>
      <trkpt lat="43.61435" lon="6.03782">
        <ele>653</ele>
        <time>2026-02-10T12:59:45.000Z</time>
      </trkpt>
      <trkpt lat="43.61435" lon="6.03782">
        <ele>653</ele>
        <time>2026-02-10T12:59:45.000Z</time>
      </trkpt>
      <trkpt lat="43.61435" lon="6.03782">
        <ele>653</ele>
        <time>2026-02-10T12:59:45.000Z</time>
      </trkpt>
      <trkpt lat="43.61435" lon="6.03782">
        <ele>653</ele>
        <time>2026-02-10T12:59:45.000Z</time>
      </trkpt>
      <trkpt lat="43.61435" lon="6.03782">
        <ele>653</ele>
        <time>2026-02-10T12:59:45.000Z</time>
      </trkpt>
      <trkpt lat="43.61435" lon="6.03782">
        <ele>653</ele>
        <time>2026-02-10T12:59:45.000Z</time>
      </trkpt>
      <trkpt lat="43.61435" lon="6.03782">
        <ele>653</ele>
        <time>2026-02-10T12:59:45.000Z</time>
      </trkpt>
      <trkpt lat="43.61435" lon="6.03781">
        <ele>653</ele>
        <time>2026-02-10T12:59:46.000Z</time>
      </trkpt>
      <trkpt lat="43.61435" lon="6.0378">
        <ele>653</ele>
        <time>2026-02-10T12:59:47.000Z</time>
      </trkpt>
      <trkpt lat="43.61435" lon="6.03779">
        <ele>653</ele>
        <time>2026-02-10T12:59:48.000Z</time>
      </trkpt>
      <trkpt lat="43.61435" lon="6.03778">
        <ele>653</ele>
        <time>2026-02-10T12:59:49.000Z</time>
      </trkpt>
      <trkpt lat="43.61434" lon="6.03777">
        <ele>653</ele>
        <time>2026-02-10T12:59:50.000Z</time>
      </trkpt>
      <trkpt lat="43.61434" lon="6.03775">
        <ele>653</ele>
        <time>2026-02-10T12:59:52.000Z</time>
      </trkpt>
      <trkpt lat="43.61434" lon="6.03774">
        <ele>653</ele>
        <time>2026-02-10T12:59:53.000Z</time>
      </trkpt>
      <trkpt lat="43.61434" lon="6.03773">
        <ele>653</ele>
        <time>2026-02-10T12:59:54.000Z</time>
      </trkpt>
      <trkpt lat="43.61433" lon="6.03772">
        <ele>653</ele>
        <time>2026-02-10T12:59:55.000Z</time>
      </trkpt>
      <trkpt lat="43.61433" lon="6.03771">
        <ele>653</ele>
        <time>2026-02-10T12:59:56.000Z</time>
      </trkpt>
      <trkpt lat="43.61432" lon="6.0377">
        <ele>653</ele>
        <time>2026-02-10T12:59:57.000Z</time>
      </trkpt>
      <trkpt lat="43.61432" lon="6.0377">
        <ele>653</ele>
        <time>2026-02-10T12:59:57.000Z</time>
      </trkpt>
      <trkpt lat="43.61432" lon="6.0377">
        <ele>653</ele>
        <time>2026-02-10T12:59:57.000Z</time>
      </trkpt>
      <trkpt lat="43.61432" lon="6.0377">
        <ele>653</ele>
        <time>2026-02-10T12:59:57.000Z</time>
      </trkpt>
      <trkpt lat="43.61432" lon="6.0377">
        <ele>653</ele>
        <time>2026-02-10T12:59:57.000Z</time>
      </trkpt>
      <trkpt lat="43.61432" lon="6.0377">
        <ele>653</ele>
        <time>2026-02-10T12:59:57.000Z</time>
      </trkpt>
      <trkpt lat="43.61432" lon="6.0377">
        <ele>653</ele>
        <time>2026-02-10T12:59:57.000Z</time>
      </trkpt>
      <trkpt lat="43.61432" lon="6.0377">
        <ele>653</ele>
        <time>2026-02-10T12:59:57.000Z</time>
      </trkpt>
      <trkpt lat="43.61432" lon="6.0377">
        <ele>653</ele>
        <time>2026-02-10T12:59:57.000Z</time>
      </trkpt>
      <trkpt lat="43.61432" lon="6.03769">
        <ele>653</ele>
        <time>2026-02-10T12:59:58.000Z</time>
      </trkpt>
      <trkpt lat="43.61432" lon="6.03769">
        <ele>653</ele>
        <time>2026-02-10T12:59:58.000Z</time>
      </trkpt>
      <trkpt lat="43.61431" lon="6.03768">
        <ele>652</ele>
        <time>2026-02-10T12:59:59.000Z</time>
      </trkpt>
      <trkpt lat="43.61431" lon="6.03767">
        <ele>652</ele>
        <time>2026-02-10T13:00:00.000Z</time>
      </trkpt>
      <trkpt lat="43.61431" lon="6.03766">
        <ele>652</ele>
        <time>2026-02-10T13:00:01.000Z</time>
      </trkpt>
      <trkpt lat="43.6143" lon="6.03765">
        <ele>652</ele>
        <time>2026-02-10T13:00:02.000Z</time>
      </trkpt>
      <trkpt lat="43.6143" lon="6.03764">
        <ele>652</ele>
        <time>2026-02-10T13:00:03.000Z</time>
      </trkpt>
      <trkpt lat="43.61429" lon="6.03763">
        <ele>652</ele>
        <time>2026-02-10T13:00:04.000Z</time>
      </trkpt>
      <trkpt lat="43.61429" lon="6.03762">
        <ele>652</ele>
        <time>2026-02-10T13:00:05.000Z</time>
      </trkpt>
      <trkpt lat="43.61428" lon="6.03761">
        <ele>652</ele>
        <time>2026-02-10T13:00:06.000Z</time>
      </trkpt>
      <trkpt lat="43.61428" lon="6.03759">
        <ele>651</ele>
        <time>2026-02-10T13:00:08.000Z</time>
      </trkpt>
      <trkpt lat="43.61427" lon="6.03758">
        <ele>651</ele>
        <time>2026-02-10T13:00:09.000Z</time>
      </trkpt>
      <trkpt lat="43.61426" lon="6.03757">
        <ele>651</ele>
        <time>2026-02-10T13:00:10.000Z</time>
      </trkpt>
      <trkpt lat="43.61426" lon="6.03755">
        <ele>651</ele>
        <time>2026-02-10T13:00:12.000Z</time>
      </trkpt>
      <trkpt lat="43.61425" lon="6.03754">
        <ele>650</ele>
        <time>2026-02-10T13:00:13.000Z</time>
      </trkpt>
      <trkpt lat="43.61425" lon="6.03753">
        <ele>650</ele>
        <time>2026-02-10T13:00:14.000Z</time>
      </trkpt>
      <trkpt lat="43.61424" lon="6.03752">
        <ele>650</ele>
        <time>2026-02-10T13:00:15.000Z</time>
      </trkpt>
      <trkpt lat="43.61424" lon="6.0375">
        <ele>650</ele>
        <time>2026-02-10T13:00:17.000Z</time>
      </trkpt>
      <trkpt lat="43.61423" lon="6.03749">
        <ele>650</ele>
        <time>2026-02-10T13:00:18.000Z</time>
      </trkpt>
      <trkpt lat="43.61423" lon="6.03748">
        <ele>650</ele>
        <time>2026-02-10T13:00:19.000Z</time>
      </trkpt>
      <trkpt lat="43.61423" lon="6.03747">
        <ele>650</ele>
        <time>2026-02-10T13:00:20.000Z</time>
      </trkpt>
      <trkpt lat="43.61423" lon="6.03747">
        <ele>650</ele>
        <time>2026-02-10T13:00:20.000Z</time>
      </trkpt>
      <trkpt lat="43.61423" lon="6.03747">
        <ele>650</ele>
        <time>2026-02-10T13:00:20.000Z</time>
      </trkpt>
      <trkpt lat="43.61423" lon="6.03747">
        <ele>650</ele>
        <time>2026-02-10T13:00:20.000Z</time>
      </trkpt>
      <trkpt lat="43.61423" lon="6.03746">
        <ele>650</ele>
        <time>2026-02-10T13:00:21.000Z</time>
      </trkpt>
      <trkpt lat="43.61423" lon="6.03746">
        <ele>650</ele>
        <time>2026-02-10T13:00:21.000Z</time>
      </trkpt>
      <trkpt lat="43.61423" lon="6.03746">
        <ele>650</ele>
        <time>2026-02-10T13:00:21.000Z</time>
      </trkpt>
      <trkpt lat="43.61423" lon="6.03746">
        <ele>650</ele>
        <time>2026-02-10T13:00:21.000Z</time>
      </trkpt>
      <trkpt lat="43.61423" lon="6.03746">
        <ele>650</ele>
        <time>2026-02-10T13:00:21.000Z</time>
      </trkpt>
      <trkpt lat="43.61423" lon="6.03746">
        <ele>650</ele>
        <time>2026-02-10T13:00:21.000Z</time>
      </trkpt>
      <trkpt lat="43.61422" lon="6.03746">
        <ele>650</ele>
        <time>2026-02-10T13:00:22.000Z</time>
      </trkpt>
      <trkpt lat="43.61422" lon="6.03746">
        <ele>650</ele>
        <time>2026-02-10T13:00:22.000Z</time>
      </trkpt>
      <trkpt lat="43.61422" lon="6.03746">
        <ele>650</ele>
        <time>2026-02-10T13:00:22.000Z</time>
      </trkpt>
      <trkpt lat="43.61422" lon="6.03746">
        <ele>650</ele>
        <time>2026-02-10T13:00:22.000Z</time>
      </trkpt>
      <trkpt lat="43.61422" lon="6.03746">
        <ele>650</ele>
        <time>2026-02-10T13:00:22.000Z</time>
      </trkpt>
      <trkpt lat="43.61422" lon="6.03746">
        <ele>650</ele>
        <time>2026-02-10T13:00:22.000Z</time>
      </trkpt>
      <trkpt lat="43.61422" lon="6.03746">
        <ele>650</ele>
        <time>2026-02-10T13:00:22.000Z</time>
      </trkpt>
      <trkpt lat="43.61422" lon="6.03746">
        <ele>650</ele>
        <time>2026-02-10T13:00:22.000Z</time>
      </trkpt>
      <trkpt lat="43.61423" lon="6.03746">
        <ele>650</ele>
        <time>2026-02-10T13:00:23.000Z</time>
      </trkpt>
      <trkpt lat="43.61423" lon="6.03746">
        <ele>650</ele>
        <time>2026-02-10T13:00:23.000Z</time>
      </trkpt>
      <trkpt lat="43.61423" lon="6.03746">
        <ele>650</ele>
        <time>2026-02-10T13:00:23.000Z</time>
      </trkpt>
      <trkpt lat="43.61423" lon="6.03746">
        <ele>650</ele>
        <time>2026-02-10T13:00:23.000Z</time>
      </trkpt>
      <trkpt lat="43.61423" lon="6.03746">
        <ele>650</ele>
        <time>2026-02-10T13:00:23.000Z</time>
      </trkpt>
      <trkpt lat="43.61423" lon="6.03746">
        <ele>650</ele>
        <time>2026-02-10T13:00:23.000Z</time>
      </trkpt>
      <trkpt lat="43.61423" lon="6.03746">
        <ele>650</ele>
        <time>2026-02-10T13:00:23.000Z</time>
      </trkpt>
      <trkpt lat="43.61423" lon="6.03746">
        <ele>650</ele>
        <time>2026-02-10T13:00:23.000Z</time>
      </trkpt>
      <trkpt lat="43.61423" lon="6.03746">
        <ele>650</ele>
        <time>2026-02-10T13:00:23.000Z</time>
      </trkpt>
      <trkpt lat="43.61423" lon="6.03746">
        <ele>650</ele>
        <time>2026-02-10T13:00:23.000Z</time>
      </trkpt>
      <trkpt lat="43.61423" lon="6.03746">
        <ele>650</ele>
        <time>2026-02-10T13:00:23.000Z</time>
      </trkpt>
      <trkpt lat="43.61423" lon="6.03745">
        <ele>650</ele>
        <time>2026-02-10T13:00:24.000Z</time>
      </trkpt>
      <trkpt lat="43.61423" lon="6.03746">
        <ele>650</ele>
        <time>2026-02-10T13:00:25.000Z</time>
      </trkpt>
      <trkpt lat="43.61423" lon="6.03745">
        <ele>650</ele>
        <time>2026-02-10T13:00:26.000Z</time>
      </trkpt>
      <trkpt lat="43.61423" lon="6.03745">
        <ele>650</ele>
        <time>2026-02-10T13:00:26.000Z</time>
      </trkpt>
      <trkpt lat="43.61423" lon="6.03745">
        <ele>650</ele>
        <time>2026-02-10T13:00:26.000Z</time>
      </trkpt>
      <trkpt lat="43.61423" lon="6.03745">
        <ele>650</ele>
        <time>2026-02-10T13:00:26.000Z</time>
      </trkpt>
      <trkpt lat="43.61423" lon="6.03745">
        <ele>650</ele>
        <time>2026-02-10T13:00:26.000Z</time>
      </trkpt>
      <trkpt lat="43.61423" lon="6.03745">
        <ele>650</ele>
        <time>2026-02-10T13:00:26.000Z</time>
      </trkpt>
      <trkpt lat="43.61423" lon="6.03745">
        <ele>650</ele>
        <time>2026-02-10T13:00:26.000Z</time>
      </trkpt>
      <trkpt lat="43.61423" lon="6.03745">
        <ele>650</ele>
        <time>2026-02-10T13:00:26.000Z</time>
      </trkpt>
      <trkpt lat="43.61423" lon="6.03745">
        <ele>650</ele>
        <time>2026-02-10T13:00:26.000Z</time>
      </trkpt>
      <trkpt lat="43.61423" lon="6.03745">
        <ele>650</ele>
        <time>2026-02-10T13:00:26.000Z</time>
      </trkpt>
      <trkpt lat="43.61423" lon="6.03745">
        <ele>650</ele>
        <time>2026-02-10T13:00:26.000Z</time>
      </trkpt>
      <trkpt lat="43.61423" lon="6.03746">
        <ele>650</ele>
        <time>2026-02-10T13:00:27.000Z</time>
      </trkpt>
      <trkpt lat="43.61423" lon="6.03746">
        <ele>650</ele>
        <time>2026-02-10T13:00:27.000Z</time>
      </trkpt>
      <trkpt lat="43.61423" lon="6.03745">
        <ele>650</ele>
        <time>2026-02-10T13:00:28.000Z</time>
      </trkpt>
      <trkpt lat="43.61423" lon="6.03745">
        <ele>650</ele>
        <time>2026-02-10T13:00:28.000Z</time>
      </trkpt>
      <trkpt lat="43.61422" lon="6.03745">
        <ele>650</ele>
        <time>2026-02-10T13:00:29.000Z</time>
      </trkpt>
      <trkpt lat="43.61421" lon="6.03745">
        <ele>650</ele>
        <time>2026-02-10T13:00:30.000Z</time>
      </trkpt>
      <trkpt lat="43.6142" lon="6.03744">
        <ele>650</ele>
        <time>2026-02-10T13:00:31.000Z</time>
      </trkpt>
      <trkpt lat="43.61419" lon="6.03743">
        <ele>649</ele>
        <time>2026-02-10T13:00:32.000Z</time>
      </trkpt>
      <trkpt lat="43.61419" lon="6.03741">
        <ele>649</ele>
        <time>2026-02-10T13:00:34.000Z</time>
      </trkpt>
      <trkpt lat="43.61418" lon="6.0374">
        <ele>649</ele>
        <time>2026-02-10T13:00:35.000Z</time>
      </trkpt>
      <trkpt lat="43.61417" lon="6.03738">
        <ele>649</ele>
        <time>2026-02-10T13:00:37.000Z</time>
      </trkpt>
      <trkpt lat="43.61417" lon="6.03736">
        <ele>649</ele>
        <time>2026-02-10T13:00:39.000Z</time>
      </trkpt>
      <trkpt lat="43.61416" lon="6.03735">
        <ele>649</ele>
        <time>2026-02-10T13:00:40.000Z</time>
      </trkpt>
      <trkpt lat="43.61414" lon="6.03733">
        <ele>648</ele>
        <time>2026-02-10T13:00:43.000Z</time>
      </trkpt>
      <trkpt lat="43.61413" lon="6.03731">
        <ele>648</ele>
        <time>2026-02-10T13:00:45.000Z</time>
      </trkpt>
      <trkpt lat="43.61412" lon="6.03729">
        <ele>648</ele>
        <time>2026-02-10T13:00:47.000Z</time>
      </trkpt>
      <trkpt lat="43.6141" lon="6.03728">
        <ele>648</ele>
        <time>2026-02-10T13:00:49.000Z</time>
      </trkpt>
      <trkpt lat="43.61409" lon="6.03727">
        <ele>648</ele>
        <time>2026-02-10T13:00:50.000Z</time>
      </trkpt>
      <trkpt lat="43.61408" lon="6.03726">
        <ele>647</ele>
        <time>2026-02-10T13:00:51.000Z</time>
      </trkpt>
      <trkpt lat="43.61408" lon="6.03724">
        <ele>647</ele>
        <time>2026-02-10T13:00:53.000Z</time>
      </trkpt>
      <trkpt lat="43.61407" lon="6.03722">
        <ele>647</ele>
        <time>2026-02-10T13:00:55.000Z</time>
      </trkpt>
      <trkpt lat="43.61406" lon="6.03721">
        <ele>647</ele>
        <time>2026-02-10T13:00:56.000Z</time>
      </trkpt>
      <trkpt lat="43.61405" lon="6.03719">
        <ele>647</ele>
        <time>2026-02-10T13:00:58.000Z</time>
      </trkpt>
      <trkpt lat="43.61404" lon="6.03717">
        <ele>647</ele>
        <time>2026-02-10T13:01:00.000Z</time>
      </trkpt>
      <trkpt lat="43.61403" lon="6.03715">
        <ele>646</ele>
        <time>2026-02-10T13:01:02.000Z</time>
      </trkpt>
      <trkpt lat="43.61402" lon="6.03714">
        <ele>646</ele>
        <time>2026-02-10T13:01:03.000Z</time>
      </trkpt>
      <trkpt lat="43.61401" lon="6.03712">
        <ele>646</ele>
        <time>2026-02-10T13:01:05.000Z</time>
      </trkpt>
      <trkpt lat="43.61401" lon="6.0371">
        <ele>646</ele>
        <time>2026-02-10T13:01:07.000Z</time>
      </trkpt>
      <trkpt lat="43.614" lon="6.03708">
        <ele>646</ele>
        <time>2026-02-10T13:01:09.000Z</time>
      </trkpt>
      <trkpt lat="43.61399" lon="6.03707">
        <ele>646</ele>
        <time>2026-02-10T13:01:10.000Z</time>
      </trkpt>
      <trkpt lat="43.61398" lon="6.03705">
        <ele>646</ele>
        <time>2026-02-10T13:01:12.000Z</time>
      </trkpt>
      <trkpt lat="43.61397" lon="6.03703">
        <ele>646</ele>
        <time>2026-02-10T13:01:14.000Z</time>
      </trkpt>
      <trkpt lat="43.61396" lon="6.03702">
        <ele>646</ele>
        <time>2026-02-10T13:01:15.000Z</time>
      </trkpt>
      <trkpt lat="43.61396" lon="6.037">
        <ele>646</ele>
        <time>2026-02-10T13:01:17.000Z</time>
      </trkpt>
      <trkpt lat="43.61396" lon="6.03698">
        <ele>645</ele>
        <time>2026-02-10T13:01:19.000Z</time>
      </trkpt>
      <trkpt lat="43.61395" lon="6.03696">
        <ele>645</ele>
        <time>2026-02-10T13:01:21.000Z</time>
      </trkpt>
      <trkpt lat="43.61395" lon="6.03694">
        <ele>645</ele>
        <time>2026-02-10T13:01:23.000Z</time>
      </trkpt>
      <trkpt lat="43.61394" lon="6.03692">
        <ele>644</ele>
        <time>2026-02-10T13:01:25.000Z</time>
      </trkpt>
      <trkpt lat="43.61394" lon="6.03691">
        <ele>644</ele>
        <time>2026-02-10T13:01:26.000Z</time>
      </trkpt>
      <trkpt lat="43.61393" lon="6.03689">
        <ele>644</ele>
        <time>2026-02-10T13:01:28.000Z</time>
      </trkpt>
      <trkpt lat="43.61393" lon="6.03687">
        <ele>644</ele>
        <time>2026-02-10T13:01:30.000Z</time>
      </trkpt>
      <trkpt lat="43.61393" lon="6.03686">
        <ele>644</ele>
        <time>2026-02-10T13:01:31.000Z</time>
      </trkpt>
      <trkpt lat="43.61392" lon="6.03684">
        <ele>644</ele>
        <time>2026-02-10T13:01:33.000Z</time>
      </trkpt>
      <trkpt lat="43.61392" lon="6.03682">
        <ele>644</ele>
        <time>2026-02-10T13:01:35.000Z</time>
      </trkpt>
      <trkpt lat="43.61392" lon="6.0368">
        <ele>643</ele>
        <time>2026-02-10T13:01:37.000Z</time>
      </trkpt>
      <trkpt lat="43.61391" lon="6.03678">
        <ele>643</ele>
        <time>2026-02-10T13:01:39.000Z</time>
      </trkpt>
      <trkpt lat="43.61391" lon="6.03676">
        <ele>643</ele>
        <time>2026-02-10T13:01:41.000Z</time>
      </trkpt>
      <trkpt lat="43.6139" lon="6.03675">
        <ele>642</ele>
        <time>2026-02-10T13:01:42.000Z</time>
      </trkpt>
      <trkpt lat="43.6139" lon="6.03673">
        <ele>642</ele>
        <time>2026-02-10T13:01:44.000Z</time>
      </trkpt>
      <trkpt lat="43.61389" lon="6.03671">
        <ele>642</ele>
        <time>2026-02-10T13:01:46.000Z</time>
      </trkpt>
      <trkpt lat="43.61389" lon="6.03669">
        <ele>642</ele>
        <time>2026-02-10T13:01:48.000Z</time>
      </trkpt>
      <trkpt lat="43.61389" lon="6.03667">
        <ele>642</ele>
        <time>2026-02-10T13:01:50.000Z</time>
      </trkpt>
      <trkpt lat="43.61388" lon="6.03666">
        <ele>642</ele>
        <time>2026-02-10T13:01:51.000Z</time>
      </trkpt>
      <trkpt lat="43.61388" lon="6.03664">
        <ele>642</ele>
        <time>2026-02-10T13:01:53.000Z</time>
      </trkpt>
      <trkpt lat="43.61387" lon="6.03662">
        <ele>642</ele>
        <time>2026-02-10T13:01:55.000Z</time>
      </trkpt>
      <trkpt lat="43.61387" lon="6.03661">
        <ele>642</ele>
        <time>2026-02-10T13:01:56.000Z</time>
      </trkpt>
      <trkpt lat="43.61386" lon="6.03659">
        <ele>642</ele>
        <time>2026-02-10T13:01:58.000Z</time>
      </trkpt>
      <trkpt lat="43.61386" lon="6.03657">
        <ele>641</ele>
        <time>2026-02-10T13:02:00.000Z</time>
      </trkpt>
      <trkpt lat="43.61386" lon="6.03655">
        <ele>641</ele>
        <time>2026-02-10T13:02:02.000Z</time>
      </trkpt>
      <trkpt lat="43.61385" lon="6.03653">
        <ele>641</ele>
        <time>2026-02-10T13:02:04.000Z</time>
      </trkpt>
      <trkpt lat="43.61385" lon="6.03652">
        <ele>641</ele>
        <time>2026-02-10T13:02:05.000Z</time>
      </trkpt>
      <trkpt lat="43.61384" lon="6.0365">
        <ele>641</ele>
        <time>2026-02-10T13:02:07.000Z</time>
      </trkpt>
      <trkpt lat="43.61384" lon="6.03648">
        <ele>641</ele>
        <time>2026-02-10T13:02:09.000Z</time>
      </trkpt>
      <trkpt lat="43.61383" lon="6.03646">
        <ele>641</ele>
        <time>2026-02-10T13:02:11.000Z</time>
      </trkpt>
      <trkpt lat="43.61382" lon="6.03645">
        <ele>641</ele>
        <time>2026-02-10T13:02:12.000Z</time>
      </trkpt>
      <trkpt lat="43.61381" lon="6.03643">
        <ele>640</ele>
        <time>2026-02-10T13:02:14.000Z</time>
      </trkpt>
      <trkpt lat="43.61381" lon="6.03642">
        <ele>640</ele>
        <time>2026-02-10T13:02:15.000Z</time>
      </trkpt>
      <trkpt lat="43.61381" lon="6.0364">
        <ele>640</ele>
        <time>2026-02-10T13:02:17.000Z</time>
      </trkpt>
      <trkpt lat="43.6138" lon="6.03638">
        <ele>640</ele>
        <time>2026-02-10T13:02:19.000Z</time>
      </trkpt>
      <trkpt lat="43.6138" lon="6.03637">
        <ele>640</ele>
        <time>2026-02-10T13:02:20.000Z</time>
      </trkpt>
      <trkpt lat="43.61379" lon="6.03635">
        <ele>639</ele>
        <time>2026-02-10T13:02:22.000Z</time>
      </trkpt>
      <trkpt lat="43.61379" lon="6.03633">
        <ele>639</ele>
        <time>2026-02-10T13:02:24.000Z</time>
      </trkpt>
      <trkpt lat="43.61378" lon="6.03632">
        <ele>639</ele>
        <time>2026-02-10T13:02:25.000Z</time>
      </trkpt>
      <trkpt lat="43.61378" lon="6.0363">
        <ele>639</ele>
        <time>2026-02-10T13:02:27.000Z</time>
      </trkpt>
      <trkpt lat="43.61377" lon="6.03628">
        <ele>639</ele>
        <time>2026-02-10T13:02:29.000Z</time>
      </trkpt>
      <trkpt lat="43.61377" lon="6.03627">
        <ele>639</ele>
        <time>2026-02-10T13:02:30.000Z</time>
      </trkpt>
      <trkpt lat="43.61376" lon="6.03625">
        <ele>639</ele>
        <time>2026-02-10T13:02:32.000Z</time>
      </trkpt>
      <trkpt lat="43.61375" lon="6.03623">
        <ele>639</ele>
        <time>2026-02-10T13:02:34.000Z</time>
      </trkpt>
      <trkpt lat="43.61374" lon="6.03621">
        <ele>639</ele>
        <time>2026-02-10T13:02:36.000Z</time>
      </trkpt>
      <trkpt lat="43.61374" lon="6.0362">
        <ele>639</ele>
        <time>2026-02-10T13:02:37.000Z</time>
      </trkpt>
      <trkpt lat="43.61373" lon="6.03618">
        <ele>639</ele>
        <time>2026-02-10T13:02:39.000Z</time>
      </trkpt>
      <trkpt lat="43.61372" lon="6.03616">
        <ele>639</ele>
        <time>2026-02-10T13:02:41.000Z</time>
      </trkpt>
      <trkpt lat="43.61372" lon="6.03615">
        <ele>639</ele>
        <time>2026-02-10T13:02:42.000Z</time>
      </trkpt>
      <trkpt lat="43.61371" lon="6.03613">
        <ele>639</ele>
        <time>2026-02-10T13:02:44.000Z</time>
      </trkpt>
      <trkpt lat="43.61371" lon="6.03611">
        <ele>639</ele>
        <time>2026-02-10T13:02:46.000Z</time>
      </trkpt>
      <trkpt lat="43.6137" lon="6.03609">
        <ele>638</ele>
        <time>2026-02-10T13:02:48.000Z</time>
      </trkpt>
      <trkpt lat="43.6137" lon="6.03607">
        <ele>638</ele>
        <time>2026-02-10T13:02:50.000Z</time>
      </trkpt>
      <trkpt lat="43.61369" lon="6.03606">
        <ele>638</ele>
        <time>2026-02-10T13:02:51.000Z</time>
      </trkpt>
      <trkpt lat="43.61369" lon="6.03605">
        <ele>638</ele>
        <time>2026-02-10T13:02:52.000Z</time>
      </trkpt>
      <trkpt lat="43.61368" lon="6.03603">
        <ele>638</ele>
        <time>2026-02-10T13:02:54.000Z</time>
      </trkpt>
      <trkpt lat="43.61368" lon="6.03601">
        <ele>638</ele>
        <time>2026-02-10T13:02:56.000Z</time>
      </trkpt>
      <trkpt lat="43.61368" lon="6.036">
        <ele>638</ele>
        <time>2026-02-10T13:02:57.000Z</time>
      </trkpt>
      <trkpt lat="43.61368" lon="6.03598">
        <ele>638</ele>
        <time>2026-02-10T13:02:59.000Z</time>
      </trkpt>
      <trkpt lat="43.61367" lon="6.03596">
        <ele>638</ele>
        <time>2026-02-10T13:03:01.000Z</time>
      </trkpt>
      <trkpt lat="43.61367" lon="6.03595">
        <ele>638</ele>
        <time>2026-02-10T13:03:02.000Z</time>
      </trkpt>
      <trkpt lat="43.61366" lon="6.03593">
        <ele>638</ele>
        <time>2026-02-10T13:03:04.000Z</time>
      </trkpt>
      <trkpt lat="43.61365" lon="6.03592">
        <ele>638</ele>
        <time>2026-02-10T13:03:05.000Z</time>
      </trkpt>
      <trkpt lat="43.61365" lon="6.0359">
        <ele>638</ele>
        <time>2026-02-10T13:03:07.000Z</time>
      </trkpt>
      <trkpt lat="43.61364" lon="6.03588">
        <ele>637</ele>
        <time>2026-02-10T13:03:09.000Z</time>
      </trkpt>
      <trkpt lat="43.61364" lon="6.03587">
        <ele>637</ele>
        <time>2026-02-10T13:03:10.000Z</time>
      </trkpt>
      <trkpt lat="43.61364" lon="6.03585">
        <ele>637</ele>
        <time>2026-02-10T13:03:12.000Z</time>
      </trkpt>
      <trkpt lat="43.61363" lon="6.03583">
        <ele>637</ele>
        <time>2026-02-10T13:03:14.000Z</time>
      </trkpt>
      <trkpt lat="43.61363" lon="6.03582">
        <ele>637</ele>
        <time>2026-02-10T13:03:15.000Z</time>
      </trkpt>
      <trkpt lat="43.61362" lon="6.0358">
        <ele>637</ele>
        <time>2026-02-10T13:03:17.000Z</time>
      </trkpt>
      <trkpt lat="43.61362" lon="6.03578">
        <ele>637</ele>
        <time>2026-02-10T13:03:19.000Z</time>
      </trkpt>
      <trkpt lat="43.61362" lon="6.03577">
        <ele>637</ele>
        <time>2026-02-10T13:03:20.000Z</time>
      </trkpt>
      <trkpt lat="43.61362" lon="6.03575">
        <ele>636</ele>
        <time>2026-02-10T13:03:22.000Z</time>
      </trkpt>
      <trkpt lat="43.61361" lon="6.03574">
        <ele>636</ele>
        <time>2026-02-10T13:03:23.000Z</time>
      </trkpt>
      <trkpt lat="43.6136" lon="6.03572">
        <ele>636</ele>
        <time>2026-02-10T13:03:25.000Z</time>
      </trkpt>
      <trkpt lat="43.6136" lon="6.0357">
        <ele>636</ele>
        <time>2026-02-10T13:03:27.000Z</time>
      </trkpt>
      <trkpt lat="43.6136" lon="6.03568">
        <ele>636</ele>
        <time>2026-02-10T13:03:29.000Z</time>
      </trkpt>
      <trkpt lat="43.6136" lon="6.03566">
        <ele>636</ele>
        <time>2026-02-10T13:03:31.000Z</time>
      </trkpt>
      <trkpt lat="43.61359" lon="6.03564">
        <ele>636</ele>
        <time>2026-02-10T13:03:33.000Z</time>
      </trkpt>
      <trkpt lat="43.61359" lon="6.03563">
        <ele>636</ele>
        <time>2026-02-10T13:03:34.000Z</time>
      </trkpt>
      <trkpt lat="43.61358" lon="6.0356">
        <ele>636</ele>
        <time>2026-02-10T13:03:37.000Z</time>
      </trkpt>
      <trkpt lat="43.61358" lon="6.03558">
        <ele>636</ele>
        <time>2026-02-10T13:03:39.000Z</time>
      </trkpt>
      <trkpt lat="43.61358" lon="6.03556">
        <ele>635</ele>
        <time>2026-02-10T13:03:41.000Z</time>
      </trkpt>
      <trkpt lat="43.61357" lon="6.03554">
        <ele>635</ele>
        <time>2026-02-10T13:03:43.000Z</time>
      </trkpt>
      <trkpt lat="43.61357" lon="6.03552">
        <ele>635</ele>
        <time>2026-02-10T13:03:45.000Z</time>
      </trkpt>
      <trkpt lat="43.61357" lon="6.0355">
        <ele>635</ele>
        <time>2026-02-10T13:03:47.000Z</time>
      </trkpt>
      <trkpt lat="43.61356" lon="6.03548">
        <ele>635</ele>
        <time>2026-02-10T13:03:49.000Z</time>
      </trkpt>
      <trkpt lat="43.61355" lon="6.03545">
        <ele>635</ele>
        <time>2026-02-10T13:03:52.000Z</time>
      </trkpt>
      <trkpt lat="43.61356" lon="6.03542">
        <ele>635</ele>
        <time>2026-02-10T13:03:55.000Z</time>
      </trkpt>
      <trkpt lat="43.61355" lon="6.0354">
        <ele>635</ele>
        <time>2026-02-10T13:03:57.000Z</time>
      </trkpt>
      <trkpt lat="43.61355" lon="6.03537">
        <ele>635</ele>
        <time>2026-02-10T13:03:59.000Z</time>
      </trkpt>
      <trkpt lat="43.61355" lon="6.03534">
        <ele>635</ele>
        <time>2026-02-10T13:04:01.000Z</time>
      </trkpt>
      <trkpt lat="43.61354" lon="6.03531">
        <ele>634</ele>
        <time>2026-02-10T13:04:04.000Z</time>
      </trkpt>
      <trkpt lat="43.61354" lon="6.03529">
        <ele>634</ele>
        <time>2026-02-10T13:04:06.000Z</time>
      </trkpt>
      <trkpt lat="43.61353" lon="6.03527">
        <ele>634</ele>
        <time>2026-02-10T13:04:08.000Z</time>
      </trkpt>
      <trkpt lat="43.61352" lon="6.03525">
        <ele>634</ele>
        <time>2026-02-10T13:04:10.000Z</time>
      </trkpt>
      <trkpt lat="43.61351" lon="6.03523">
        <ele>634</ele>
        <time>2026-02-10T13:04:12.000Z</time>
      </trkpt>
      <trkpt lat="43.6135" lon="6.03521">
        <ele>634</ele>
        <time>2026-02-10T13:04:14.000Z</time>
      </trkpt>
      <trkpt lat="43.61349" lon="6.0352">
        <ele>634</ele>
        <time>2026-02-10T13:04:15.000Z</time>
      </trkpt>
      <trkpt lat="43.61349" lon="6.03517">
        <ele>634</ele>
        <time>2026-02-10T13:04:17.000Z</time>
      </trkpt>
      <trkpt lat="43.61349" lon="6.03516">
        <ele>634</ele>
        <time>2026-02-10T13:04:18.000Z</time>
      </trkpt>
      <trkpt lat="43.61348" lon="6.03514">
        <ele>634</ele>
        <time>2026-02-10T13:04:20.000Z</time>
      </trkpt>
      <trkpt lat="43.61348" lon="6.03512">
        <ele>633</ele>
        <time>2026-02-10T13:04:22.000Z</time>
      </trkpt>
      <trkpt lat="43.61347" lon="6.0351">
        <ele>633</ele>
        <time>2026-02-10T13:04:24.000Z</time>
      </trkpt>
      <trkpt lat="43.61347" lon="6.03508">
        <ele>633</ele>
        <time>2026-02-10T13:04:26.000Z</time>
      </trkpt>
      <trkpt lat="43.61346" lon="6.03506">
        <ele>633</ele>
        <time>2026-02-10T13:04:28.000Z</time>
      </trkpt>
      <trkpt lat="43.61346" lon="6.03504">
        <ele>633</ele>
        <time>2026-02-10T13:04:30.000Z</time>
      </trkpt>
      <trkpt lat="43.61345" lon="6.03502">
        <ele>633</ele>
        <time>2026-02-10T13:04:32.000Z</time>
      </trkpt>
      <trkpt lat="43.61345" lon="6.035">
        <ele>633</ele>
        <time>2026-02-10T13:04:34.000Z</time>
      </trkpt>
      <trkpt lat="43.61344" lon="6.03497">
        <ele>632</ele>
        <time>2026-02-10T13:04:37.000Z</time>
      </trkpt>
      <trkpt lat="43.61344" lon="6.03495">
        <ele>632</ele>
        <time>2026-02-10T13:04:39.000Z</time>
      </trkpt>
      <trkpt lat="43.61343" lon="6.03493">
        <ele>632</ele>
        <time>2026-02-10T13:04:41.000Z</time>
      </trkpt>
      <trkpt lat="43.61343" lon="6.03491">
        <ele>632</ele>
        <time>2026-02-10T13:04:43.000Z</time>
      </trkpt>
      <trkpt lat="43.61343" lon="6.03489">
        <ele>632</ele>
        <time>2026-02-10T13:04:45.000Z</time>
      </trkpt>
      <trkpt lat="43.61342" lon="6.03487">
        <ele>631</ele>
        <time>2026-02-10T13:04:47.000Z</time>
      </trkpt>
      <trkpt lat="43.61342" lon="6.03485">
        <ele>631</ele>
        <time>2026-02-10T13:04:49.000Z</time>
      </trkpt>
      <trkpt lat="43.61341" lon="6.03483">
        <ele>631</ele>
        <time>2026-02-10T13:04:51.000Z</time>
      </trkpt>
      <trkpt lat="43.61341" lon="6.03481">
        <ele>631</ele>
        <time>2026-02-10T13:04:53.000Z</time>
      </trkpt>
      <trkpt lat="43.61341" lon="6.03479">
        <ele>631</ele>
        <time>2026-02-10T13:04:55.000Z</time>
      </trkpt>
      <trkpt lat="43.6134" lon="6.03476">
        <ele>631</ele>
        <time>2026-02-10T13:04:58.000Z</time>
      </trkpt>
      <trkpt lat="43.6134" lon="6.03474">
        <ele>631</ele>
        <time>2026-02-10T13:05:00.000Z</time>
      </trkpt>
      <trkpt lat="43.61339" lon="6.03471">
        <ele>631</ele>
        <time>2026-02-10T13:05:03.000Z</time>
      </trkpt>
      <trkpt lat="43.61338" lon="6.03468">
        <ele>631</ele>
        <time>2026-02-10T13:05:06.000Z</time>
      </trkpt>
      <trkpt lat="43.61337" lon="6.03466">
        <ele>631</ele>
        <time>2026-02-10T13:05:08.000Z</time>
      </trkpt>
      <trkpt lat="43.61336" lon="6.03465">
        <ele>631</ele>
        <time>2026-02-10T13:05:09.000Z</time>
      </trkpt>
      <trkpt lat="43.61335" lon="6.03463">
        <ele>630</ele>
        <time>2026-02-10T13:05:11.000Z</time>
      </trkpt>
      <trkpt lat="43.61334" lon="6.03462">
        <ele>630</ele>
        <time>2026-02-10T13:05:12.000Z</time>
      </trkpt>
      <trkpt lat="43.61334" lon="6.0346">
        <ele>630</ele>
        <time>2026-02-10T13:05:14.000Z</time>
      </trkpt>
      <trkpt lat="43.61333" lon="6.03459">
        <ele>630</ele>
        <time>2026-02-10T13:05:15.000Z</time>
      </trkpt>
      <trkpt lat="43.61332" lon="6.03457">
        <ele>630</ele>
        <time>2026-02-10T13:05:17.000Z</time>
      </trkpt>
      <trkpt lat="43.61331" lon="6.03456">
        <ele>630</ele>
        <time>2026-02-10T13:05:18.000Z</time>
      </trkpt>
      <trkpt lat="43.61331" lon="6.03454">
        <ele>630</ele>
        <time>2026-02-10T13:05:20.000Z</time>
      </trkpt>
      <trkpt lat="43.6133" lon="6.03452">
        <ele>630</ele>
        <time>2026-02-10T13:05:22.000Z</time>
      </trkpt>
      <trkpt lat="43.61329" lon="6.0345">
        <ele>630</ele>
        <time>2026-02-10T13:05:24.000Z</time>
      </trkpt>
      <trkpt lat="43.61328" lon="6.03448">
        <ele>630</ele>
        <time>2026-02-10T13:05:26.000Z</time>
      </trkpt>
      <trkpt lat="43.61327" lon="6.03447">
        <ele>629</ele>
        <time>2026-02-10T13:05:27.000Z</time>
      </trkpt>
      <trkpt lat="43.61326" lon="6.03445">
        <ele>629</ele>
        <time>2026-02-10T13:05:29.000Z</time>
      </trkpt>
      <trkpt lat="43.61326" lon="6.03443">
        <ele>629</ele>
        <time>2026-02-10T13:05:31.000Z</time>
      </trkpt>
      <trkpt lat="43.61325" lon="6.03441">
        <ele>629</ele>
        <time>2026-02-10T13:05:33.000Z</time>
      </trkpt>
      <trkpt lat="43.61324" lon="6.0344">
        <ele>628</ele>
        <time>2026-02-10T13:05:34.000Z</time>
      </trkpt>
      <trkpt lat="43.61323" lon="6.03438">
        <ele>628</ele>
        <time>2026-02-10T13:05:36.000Z</time>
      </trkpt>
      <trkpt lat="43.61322" lon="6.03436">
        <ele>628</ele>
        <time>2026-02-10T13:05:38.000Z</time>
      </trkpt>
      <trkpt lat="43.61322" lon="6.03435">
        <ele>628</ele>
        <time>2026-02-10T13:05:39.000Z</time>
      </trkpt>
      <trkpt lat="43.61321" lon="6.03433">
        <ele>628</ele>
        <time>2026-02-10T13:05:41.000Z</time>
      </trkpt>
      <trkpt lat="43.6132" lon="6.03432">
        <ele>628</ele>
        <time>2026-02-10T13:05:42.000Z</time>
      </trkpt>
      <trkpt lat="43.61319" lon="6.03431">
        <ele>628</ele>
        <time>2026-02-10T13:05:43.000Z</time>
      </trkpt>
      <trkpt lat="43.61318" lon="6.0343">
        <ele>628</ele>
        <time>2026-02-10T13:05:44.000Z</time>
      </trkpt>
      <trkpt lat="43.61317" lon="6.03429">
        <ele>628</ele>
        <time>2026-02-10T13:05:45.000Z</time>
      </trkpt>
      <trkpt lat="43.61317" lon="6.03428">
        <ele>628</ele>
        <time>2026-02-10T13:05:46.000Z</time>
      </trkpt>
      <trkpt lat="43.61316" lon="6.03427">
        <ele>628</ele>
        <time>2026-02-10T13:05:47.000Z</time>
      </trkpt>
      <trkpt lat="43.61314" lon="6.03426">
        <ele>628</ele>
        <time>2026-02-10T13:05:49.000Z</time>
      </trkpt>
      <trkpt lat="43.61313" lon="6.03424">
        <ele>627</ele>
        <time>2026-02-10T13:05:51.000Z</time>
      </trkpt>
      <trkpt lat="43.61312" lon="6.03423">
        <ele>627</ele>
        <time>2026-02-10T13:05:52.000Z</time>
      </trkpt>
      <trkpt lat="43.61311" lon="6.03422">
        <ele>627</ele>
        <time>2026-02-10T13:05:53.000Z</time>
      </trkpt>
      <trkpt lat="43.61311" lon="6.03421">
        <ele>627</ele>
        <time>2026-02-10T13:05:54.000Z</time>
      </trkpt>
      <trkpt lat="43.6131" lon="6.0342">
        <ele>627</ele>
        <time>2026-02-10T13:05:55.000Z</time>
      </trkpt>
      <trkpt lat="43.61309" lon="6.03418">
        <ele>627</ele>
        <time>2026-02-10T13:05:57.000Z</time>
      </trkpt>
      <trkpt lat="43.61308" lon="6.03417">
        <ele>627</ele>
        <time>2026-02-10T13:05:58.000Z</time>
      </trkpt>
      <trkpt lat="43.61308" lon="6.03415">
        <ele>627</ele>
        <time>2026-02-10T13:06:00.000Z</time>
      </trkpt>
      <trkpt lat="43.61307" lon="6.03414">
        <ele>627</ele>
        <time>2026-02-10T13:06:01.000Z</time>
      </trkpt>
      <trkpt lat="43.61307" lon="6.03412">
        <ele>626</ele>
        <time>2026-02-10T13:06:03.000Z</time>
      </trkpt>
      <trkpt lat="43.61307" lon="6.0341">
        <ele>626</ele>
        <time>2026-02-10T13:06:05.000Z</time>
      </trkpt>
      <trkpt lat="43.61307" lon="6.03409">
        <ele>626</ele>
        <time>2026-02-10T13:06:06.000Z</time>
      </trkpt>
      <trkpt lat="43.61307" lon="6.03407">
        <ele>626</ele>
        <time>2026-02-10T13:06:08.000Z</time>
      </trkpt>
      <trkpt lat="43.61307" lon="6.03404">
        <ele>626</ele>
        <time>2026-02-10T13:06:10.000Z</time>
      </trkpt>
      <trkpt lat="43.61307" lon="6.03402">
        <ele>626</ele>
        <time>2026-02-10T13:06:12.000Z</time>
      </trkpt>
      <trkpt lat="43.61306" lon="6.03401">
        <ele>626</ele>
        <time>2026-02-10T13:06:13.000Z</time>
      </trkpt>
      <trkpt lat="43.61306" lon="6.03399">
        <ele>626</ele>
        <time>2026-02-10T13:06:15.000Z</time>
      </trkpt>
      <trkpt lat="43.61305" lon="6.03397">
        <ele>625</ele>
        <time>2026-02-10T13:06:17.000Z</time>
      </trkpt>
      <trkpt lat="43.61305" lon="6.03396">
        <ele>625</ele>
        <time>2026-02-10T13:06:18.000Z</time>
      </trkpt>
      <trkpt lat="43.61304" lon="6.03394">
        <ele>625</ele>
        <time>2026-02-10T13:06:20.000Z</time>
      </trkpt>
      <trkpt lat="43.61304" lon="6.03393">
        <ele>625</ele>
        <time>2026-02-10T13:06:21.000Z</time>
      </trkpt>
      <trkpt lat="43.61303" lon="6.03391">
        <ele>625</ele>
        <time>2026-02-10T13:06:23.000Z</time>
      </trkpt>
      <trkpt lat="43.61303" lon="6.03389">
        <ele>625</ele>
        <time>2026-02-10T13:06:25.000Z</time>
      </trkpt>
      <trkpt lat="43.61302" lon="6.03388">
        <ele>625</ele>
        <time>2026-02-10T13:06:26.000Z</time>
      </trkpt>
      <trkpt lat="43.61302" lon="6.03386">
        <ele>624</ele>
        <time>2026-02-10T13:06:28.000Z</time>
      </trkpt>
      <trkpt lat="43.61301" lon="6.03385">
        <ele>624</ele>
        <time>2026-02-10T13:06:29.000Z</time>
      </trkpt>
      <trkpt lat="43.61301" lon="6.03384">
        <ele>624</ele>
        <time>2026-02-10T13:06:30.000Z</time>
      </trkpt>
      <trkpt lat="43.61301" lon="6.03382">
        <ele>624</ele>
        <time>2026-02-10T13:06:32.000Z</time>
      </trkpt>
      <trkpt lat="43.61301" lon="6.03381">
        <ele>624</ele>
        <time>2026-02-10T13:06:33.000Z</time>
      </trkpt>
      <trkpt lat="43.613" lon="6.03379">
        <ele>624</ele>
        <time>2026-02-10T13:06:35.000Z</time>
      </trkpt>
      <trkpt lat="43.61299" lon="6.03378">
        <ele>624</ele>
        <time>2026-02-10T13:06:36.000Z</time>
      </trkpt>
      <trkpt lat="43.61299" lon="6.03377">
        <ele>624</ele>
        <time>2026-02-10T13:06:37.000Z</time>
      </trkpt>
      <trkpt lat="43.61298" lon="6.03376">
        <ele>624</ele>
        <time>2026-02-10T13:06:38.000Z</time>
      </trkpt>
      <trkpt lat="43.61298" lon="6.03375">
        <ele>624</ele>
        <time>2026-02-10T13:06:39.000Z</time>
      </trkpt>
      <trkpt lat="43.61297" lon="6.03374">
        <ele>624</ele>
        <time>2026-02-10T13:06:40.000Z</time>
      </trkpt>
      <trkpt lat="43.61296" lon="6.03373">
        <ele>624</ele>
        <time>2026-02-10T13:06:41.000Z</time>
      </trkpt>
      <trkpt lat="43.61296" lon="6.03371">
        <ele>624</ele>
        <time>2026-02-10T13:06:43.000Z</time>
      </trkpt>
      <trkpt lat="43.61295" lon="6.0337">
        <ele>624</ele>
        <time>2026-02-10T13:06:44.000Z</time>
      </trkpt>
      <trkpt lat="43.61295" lon="6.03369">
        <ele>624</ele>
        <time>2026-02-10T13:06:45.000Z</time>
      </trkpt>
      <trkpt lat="43.61294" lon="6.03368">
        <ele>624</ele>
        <time>2026-02-10T13:06:46.000Z</time>
      </trkpt>
      <trkpt lat="43.61294" lon="6.03367">
        <ele>624</ele>
        <time>2026-02-10T13:06:47.000Z</time>
      </trkpt>
      <trkpt lat="43.61293" lon="6.03366">
        <ele>624</ele>
        <time>2026-02-10T13:06:48.000Z</time>
      </trkpt>
      <trkpt lat="43.61293" lon="6.03365">
        <ele>624</ele>
        <time>2026-02-10T13:06:49.000Z</time>
      </trkpt>
      <trkpt lat="43.61293" lon="6.03365">
        <ele>624</ele>
        <time>2026-02-10T13:06:49.000Z</time>
      </trkpt>
      <trkpt lat="43.61293" lon="6.03364">
        <ele>624</ele>
        <time>2026-02-10T13:06:50.000Z</time>
      </trkpt>
      <trkpt lat="43.61293" lon="6.03365">
        <ele>624</ele>
        <time>2026-02-10T13:06:51.000Z</time>
      </trkpt>
      <trkpt lat="43.61293" lon="6.03365">
        <ele>624</ele>
        <time>2026-02-10T13:06:51.000Z</time>
      </trkpt>
      <trkpt lat="43.61293" lon="6.03365">
        <ele>624</ele>
        <time>2026-02-10T13:06:51.000Z</time>
      </trkpt>
      <trkpt lat="43.61292" lon="6.03365">
        <ele>624</ele>
        <time>2026-02-10T13:06:52.000Z</time>
      </trkpt>
      <trkpt lat="43.61292" lon="6.03365">
        <ele>624</ele>
        <time>2026-02-10T13:06:52.000Z</time>
      </trkpt>
      <trkpt lat="43.61292" lon="6.03365">
        <ele>624</ele>
        <time>2026-02-10T13:06:52.000Z</time>
      </trkpt>
      <trkpt lat="43.61292" lon="6.03365">
        <ele>624</ele>
        <time>2026-02-10T13:06:52.000Z</time>
      </trkpt>
      <trkpt lat="43.61291" lon="6.03365">
        <ele>624</ele>
        <time>2026-02-10T13:06:53.000Z</time>
      </trkpt>
      <trkpt lat="43.61291" lon="6.03365">
        <ele>624</ele>
        <time>2026-02-10T13:06:53.000Z</time>
      </trkpt>
      <trkpt lat="43.61291" lon="6.03365">
        <ele>624</ele>
        <time>2026-02-10T13:06:53.000Z</time>
      </trkpt>
      <trkpt lat="43.61291" lon="6.03364">
        <ele>624</ele>
        <time>2026-02-10T13:06:54.000Z</time>
      </trkpt>
      <trkpt lat="43.61291" lon="6.03364">
        <ele>624</ele>
        <time>2026-02-10T13:06:54.000Z</time>
      </trkpt>
      <trkpt lat="43.61292" lon="6.03364">
        <ele>624</ele>
        <time>2026-02-10T13:06:55.000Z</time>
      </trkpt>
      <trkpt lat="43.61292" lon="6.03364">
        <ele>624</ele>
        <time>2026-02-10T13:06:55.000Z</time>
      </trkpt>
      <trkpt lat="43.61292" lon="6.03364">
        <ele>624</ele>
        <time>2026-02-10T13:06:55.000Z</time>
      </trkpt>
      <trkpt lat="43.61292" lon="6.03364">
        <ele>624</ele>
        <time>2026-02-10T13:06:55.000Z</time>
      </trkpt>
      <trkpt lat="43.61292" lon="6.03364">
        <ele>624</ele>
        <time>2026-02-10T13:06:55.000Z</time>
      </trkpt>
      <trkpt lat="43.61292" lon="6.03363">
        <ele>624</ele>
        <time>2026-02-10T13:06:56.000Z</time>
      </trkpt>
      <trkpt lat="43.61292" lon="6.03363">
        <ele>624</ele>
        <time>2026-02-10T13:06:56.000Z</time>
      </trkpt>
      <trkpt lat="43.61292" lon="6.03363">
        <ele>624</ele>
        <time>2026-02-10T13:06:56.000Z</time>
      </trkpt>
      <trkpt lat="43.61292" lon="6.03363">
        <ele>624</ele>
        <time>2026-02-10T13:06:56.000Z</time>
      </trkpt>
      <trkpt lat="43.61292" lon="6.03363">
        <ele>624</ele>
        <time>2026-02-10T13:06:56.000Z</time>
      </trkpt>
      <trkpt lat="43.61292" lon="6.03363">
        <ele>624</ele>
        <time>2026-02-10T13:06:56.000Z</time>
      </trkpt>
      <trkpt lat="43.61292" lon="6.03363">
        <ele>624</ele>
        <time>2026-02-10T13:06:56.000Z</time>
      </trkpt>
      <trkpt lat="43.61292" lon="6.03363">
        <ele>624</ele>
        <time>2026-02-10T13:06:56.000Z</time>
      </trkpt>
      <trkpt lat="43.61292" lon="6.03363">
        <ele>624</ele>
        <time>2026-02-10T13:06:56.000Z</time>
      </trkpt>
      <trkpt lat="43.61292" lon="6.03363">
        <ele>624</ele>
        <time>2026-02-10T13:06:56.000Z</time>
      </trkpt>
      <trkpt lat="43.61292" lon="6.03362">
        <ele>624</ele>
        <time>2026-02-10T13:06:57.000Z</time>
      </trkpt>
      <trkpt lat="43.61292" lon="6.03362">
        <ele>624</ele>
        <time>2026-02-10T13:06:57.000Z</time>
      </trkpt>
      <trkpt lat="43.61292" lon="6.03362">
        <ele>624</ele>
        <time>2026-02-10T13:06:57.000Z</time>
      </trkpt>
      <trkpt lat="43.61292" lon="6.03362">
        <ele>624</ele>
        <time>2026-02-10T13:06:57.000Z</time>
      </trkpt>
      <trkpt lat="43.61293" lon="6.03361">
        <ele>624</ele>
        <time>2026-02-10T13:06:58.000Z</time>
      </trkpt>
      <trkpt lat="43.61292" lon="6.0336">
        <ele>624</ele>
        <time>2026-02-10T13:06:59.000Z</time>
      </trkpt>
      <trkpt lat="43.61292" lon="6.03358">
        <ele>623</ele>
        <time>2026-02-10T13:07:01.000Z</time>
      </trkpt>
      <trkpt lat="43.61292" lon="6.03357">
        <ele>623</ele>
        <time>2026-02-10T13:07:02.000Z</time>
      </trkpt>
      <trkpt lat="43.61291" lon="6.03355">
        <ele>623</ele>
        <time>2026-02-10T13:07:04.000Z</time>
      </trkpt>
      <trkpt lat="43.61291" lon="6.03354">
        <ele>623</ele>
        <time>2026-02-10T13:07:05.000Z</time>
      </trkpt>
      <trkpt lat="43.61292" lon="6.03353">
        <ele>623</ele>
        <time>2026-02-10T13:07:06.000Z</time>
      </trkpt>
      <trkpt lat="43.61292" lon="6.03352">
        <ele>623</ele>
        <time>2026-02-10T13:07:07.000Z</time>
      </trkpt>
      <trkpt lat="43.61292" lon="6.0335">
        <ele>623</ele>
        <time>2026-02-10T13:07:09.000Z</time>
      </trkpt>
      <trkpt lat="43.61292" lon="6.03348">
        <ele>623</ele>
        <time>2026-02-10T13:07:11.000Z</time>
      </trkpt>
      <trkpt lat="43.61292" lon="6.03347">
        <ele>623</ele>
        <time>2026-02-10T13:07:12.000Z</time>
      </trkpt>
      <trkpt lat="43.61292" lon="6.03347">
        <ele>623</ele>
        <time>2026-02-10T13:07:12.000Z</time>
      </trkpt>
      <trkpt lat="43.61293" lon="6.03345">
        <ele>623</ele>
        <time>2026-02-10T13:07:14.000Z</time>
      </trkpt>
      <trkpt lat="43.61292" lon="6.03344">
        <ele>623</ele>
        <time>2026-02-10T13:07:15.000Z</time>
      </trkpt>
      <trkpt lat="43.61293" lon="6.03343">
        <ele>623</ele>
        <time>2026-02-10T13:07:16.000Z</time>
      </trkpt>
      <trkpt lat="43.61292" lon="6.03341">
        <ele>623</ele>
        <time>2026-02-10T13:07:18.000Z</time>
      </trkpt>
      <trkpt lat="43.61292" lon="6.0334">
        <ele>623</ele>
        <time>2026-02-10T13:07:19.000Z</time>
      </trkpt>
      <trkpt lat="43.61293" lon="6.03338">
        <ele>622</ele>
        <time>2026-02-10T13:07:21.000Z</time>
      </trkpt>
      <trkpt lat="43.61293" lon="6.03337">
        <ele>622</ele>
        <time>2026-02-10T13:07:22.000Z</time>
      </trkpt>
      <trkpt lat="43.61293" lon="6.03335">
        <ele>622</ele>
        <time>2026-02-10T13:07:24.000Z</time>
      </trkpt>
      <trkpt lat="43.61293" lon="6.03334">
        <ele>622</ele>
        <time>2026-02-10T13:07:25.000Z</time>
      </trkpt>
      <trkpt lat="43.61293" lon="6.03332">
        <ele>622</ele>
        <time>2026-02-10T13:07:27.000Z</time>
      </trkpt>
      <trkpt lat="43.61293" lon="6.03331">
        <ele>622</ele>
        <time>2026-02-10T13:07:28.000Z</time>
      </trkpt>
      <trkpt lat="43.61293" lon="6.03329">
        <ele>621</ele>
        <time>2026-02-10T13:07:30.000Z</time>
      </trkpt>
      <trkpt lat="43.61292" lon="6.03327">
        <ele>621</ele>
        <time>2026-02-10T13:07:32.000Z</time>
      </trkpt>
      <trkpt lat="43.61292" lon="6.03326">
        <ele>621</ele>
        <time>2026-02-10T13:07:33.000Z</time>
      </trkpt>
      <trkpt lat="43.61292" lon="6.03324">
        <ele>621</ele>
        <time>2026-02-10T13:07:35.000Z</time>
      </trkpt>
      <trkpt lat="43.61292" lon="6.03322">
        <ele>621</ele>
        <time>2026-02-10T13:07:37.000Z</time>
      </trkpt>
      <trkpt lat="43.61292" lon="6.03321">
        <ele>621</ele>
        <time>2026-02-10T13:07:38.000Z</time>
      </trkpt>
      <trkpt lat="43.61292" lon="6.03319">
        <ele>621</ele>
        <time>2026-02-10T13:07:40.000Z</time>
      </trkpt>
      <trkpt lat="43.61292" lon="6.03317">
        <ele>621</ele>
        <time>2026-02-10T13:07:42.000Z</time>
      </trkpt>
      <trkpt lat="43.61292" lon="6.03316">
        <ele>621</ele>
        <time>2026-02-10T13:07:43.000Z</time>
      </trkpt>
      <trkpt lat="43.61292" lon="6.03314">
        <ele>621</ele>
        <time>2026-02-10T13:07:45.000Z</time>
      </trkpt>
      <trkpt lat="43.61291" lon="6.03313">
        <ele>621</ele>
        <time>2026-02-10T13:07:46.000Z</time>
      </trkpt>
      <trkpt lat="43.61291" lon="6.03312">
        <ele>621</ele>
        <time>2026-02-10T13:07:47.000Z</time>
      </trkpt>
      <trkpt lat="43.6129" lon="6.03311">
        <ele>621</ele>
        <time>2026-02-10T13:07:48.000Z</time>
      </trkpt>
      <trkpt lat="43.6129" lon="6.03309">
        <ele>621</ele>
        <time>2026-02-10T13:07:50.000Z</time>
      </trkpt>
      <trkpt lat="43.6129" lon="6.03308">
        <ele>621</ele>
        <time>2026-02-10T13:07:51.000Z</time>
      </trkpt>
      <trkpt lat="43.61289" lon="6.03306">
        <ele>621</ele>
        <time>2026-02-10T13:07:53.000Z</time>
      </trkpt>
      <trkpt lat="43.61288" lon="6.03305">
        <ele>621</ele>
        <time>2026-02-10T13:07:54.000Z</time>
      </trkpt>
      <trkpt lat="43.61288" lon="6.03303">
        <ele>621</ele>
        <time>2026-02-10T13:07:56.000Z</time>
      </trkpt>
      <trkpt lat="43.61287" lon="6.03302">
        <ele>620</ele>
        <time>2026-02-10T13:07:57.000Z</time>
      </trkpt>
      <trkpt lat="43.61287" lon="6.03301">
        <ele>620</ele>
        <time>2026-02-10T13:07:58.000Z</time>
      </trkpt>
      <trkpt lat="43.61287" lon="6.03299">
        <ele>620</ele>
        <time>2026-02-10T13:08:00.000Z</time>
      </trkpt>
      <trkpt lat="43.61286" lon="6.03298">
        <ele>620</ele>
        <time>2026-02-10T13:08:01.000Z</time>
      </trkpt>
      <trkpt lat="43.61286" lon="6.03296">
        <ele>620</ele>
        <time>2026-02-10T13:08:03.000Z</time>
      </trkpt>
      <trkpt lat="43.61285" lon="6.03295">
        <ele>620</ele>
        <time>2026-02-10T13:08:04.000Z</time>
      </trkpt>
      <trkpt lat="43.61285" lon="6.03294">
        <ele>620</ele>
        <time>2026-02-10T13:08:05.000Z</time>
      </trkpt>
      <trkpt lat="43.61284" lon="6.03292">
        <ele>620</ele>
        <time>2026-02-10T13:08:07.000Z</time>
      </trkpt>
      <trkpt lat="43.61284" lon="6.03292">
        <ele>620</ele>
        <time>2026-02-10T13:08:07.000Z</time>
      </trkpt>
      <trkpt lat="43.61283" lon="6.03291">
        <ele>620</ele>
        <time>2026-02-10T13:08:08.000Z</time>
      </trkpt>
      <trkpt lat="43.61283" lon="6.03291">
        <ele>620</ele>
        <time>2026-02-10T13:08:08.000Z</time>
      </trkpt>
      <trkpt lat="43.61283" lon="6.03291">
        <ele>620</ele>
        <time>2026-02-10T13:08:08.000Z</time>
      </trkpt>
      <trkpt lat="43.61283" lon="6.0329">
        <ele>620</ele>
        <time>2026-02-10T13:08:09.000Z</time>
      </trkpt>
      <trkpt lat="43.61283" lon="6.0329">
        <ele>620</ele>
        <time>2026-02-10T13:08:09.000Z</time>
      </trkpt>
      <trkpt lat="43.61283" lon="6.0329">
        <ele>620</ele>
        <time>2026-02-10T13:08:09.000Z</time>
      </trkpt>
      <trkpt lat="43.61283" lon="6.0329">
        <ele>620</ele>
        <time>2026-02-10T13:08:09.000Z</time>
      </trkpt>
      <trkpt lat="43.61283" lon="6.0329">
        <ele>620</ele>
        <time>2026-02-10T13:08:09.000Z</time>
      </trkpt>
      <trkpt lat="43.61283" lon="6.03289">
        <ele>620</ele>
        <time>2026-02-10T13:08:10.000Z</time>
      </trkpt>
      <trkpt lat="43.61282" lon="6.03288">
        <ele>620</ele>
        <time>2026-02-10T13:08:11.000Z</time>
      </trkpt>
      <trkpt lat="43.61281" lon="6.03287">
        <ele>620</ele>
        <time>2026-02-10T13:08:12.000Z</time>
      </trkpt>
      <trkpt lat="43.61281" lon="6.03286">
        <ele>620</ele>
        <time>2026-02-10T13:08:13.000Z</time>
      </trkpt>
      <trkpt lat="43.6128" lon="6.03285">
        <ele>620</ele>
        <time>2026-02-10T13:08:14.000Z</time>
      </trkpt>
      <trkpt lat="43.6128" lon="6.03284">
        <ele>620</ele>
        <time>2026-02-10T13:08:15.000Z</time>
      </trkpt>
      <trkpt lat="43.61279" lon="6.03283">
        <ele>620</ele>
        <time>2026-02-10T13:08:16.000Z</time>
      </trkpt>
      <trkpt lat="43.61278" lon="6.03282">
        <ele>620</ele>
        <time>2026-02-10T13:08:17.000Z</time>
      </trkpt>
      <trkpt lat="43.61278" lon="6.03281">
        <ele>620</ele>
        <time>2026-02-10T13:08:18.000Z</time>
      </trkpt>
      <trkpt lat="43.61277" lon="6.0328">
        <ele>620</ele>
        <time>2026-02-10T13:08:19.000Z</time>
      </trkpt>
      <trkpt lat="43.61277" lon="6.03279">
        <ele>620</ele>
        <time>2026-02-10T13:08:20.000Z</time>
      </trkpt>
      <trkpt lat="43.61276" lon="6.03278">
        <ele>620</ele>
        <time>2026-02-10T13:08:21.000Z</time>
      </trkpt>
      <trkpt lat="43.61275" lon="6.03277">
        <ele>620</ele>
        <time>2026-02-10T13:08:22.000Z</time>
      </trkpt>
      <trkpt lat="43.61275" lon="6.03276">
        <ele>620</ele>
        <time>2026-02-10T13:08:23.000Z</time>
      </trkpt>
      <trkpt lat="43.61275" lon="6.03275">
        <ele>620</ele>
        <time>2026-02-10T13:08:24.000Z</time>
      </trkpt>
      <trkpt lat="43.61274" lon="6.03273">
        <ele>620</ele>
        <time>2026-02-10T13:08:26.000Z</time>
      </trkpt>
      <trkpt lat="43.61273" lon="6.03272">
        <ele>620</ele>
        <time>2026-02-10T13:08:27.000Z</time>
      </trkpt>
      <trkpt lat="43.61272" lon="6.03271">
        <ele>620</ele>
        <time>2026-02-10T13:08:28.000Z</time>
      </trkpt>
      <trkpt lat="43.61271" lon="6.03269">
        <ele>620</ele>
        <time>2026-02-10T13:08:30.000Z</time>
      </trkpt>
      <trkpt lat="43.6127" lon="6.03268">
        <ele>620</ele>
        <time>2026-02-10T13:08:31.000Z</time>
      </trkpt>
      <trkpt lat="43.61269" lon="6.03267">
        <ele>620</ele>
        <time>2026-02-10T13:08:32.000Z</time>
      </trkpt>
      <trkpt lat="43.61268" lon="6.03266">
        <ele>620</ele>
        <time>2026-02-10T13:08:33.000Z</time>
      </trkpt>
      <trkpt lat="43.61267" lon="6.03265">
        <ele>620</ele>
        <time>2026-02-10T13:08:34.000Z</time>
      </trkpt>
      <trkpt lat="43.61266" lon="6.03263">
        <ele>620</ele>
        <time>2026-02-10T13:08:36.000Z</time>
      </trkpt>
      <trkpt lat="43.61265" lon="6.03262">
        <ele>620</ele>
        <time>2026-02-10T13:08:37.000Z</time>
      </trkpt>
      <trkpt lat="43.61264" lon="6.03262">
        <ele>620</ele>
        <time>2026-02-10T13:08:38.000Z</time>
      </trkpt>
      <trkpt lat="43.61263" lon="6.03261">
        <ele>619</ele>
        <time>2026-02-10T13:08:39.000Z</time>
      </trkpt>
      <trkpt lat="43.61262" lon="6.0326">
        <ele>619</ele>
        <time>2026-02-10T13:08:40.000Z</time>
      </trkpt>
      <trkpt lat="43.61261" lon="6.03259">
        <ele>619</ele>
        <time>2026-02-10T13:08:41.000Z</time>
      </trkpt>
      <trkpt lat="43.6126" lon="6.03259">
        <ele>619</ele>
        <time>2026-02-10T13:08:42.000Z</time>
      </trkpt>
      <trkpt lat="43.61259" lon="6.03258">
        <ele>620</ele>
        <time>2026-02-10T13:08:54.000Z</time>
      </trkpt>
      <trkpt lat="43.61259" lon="6.03257">
        <ele>620</ele>
        <time>2026-02-10T13:08:55.000Z</time>
      </trkpt>
      <trkpt lat="43.61258" lon="6.03256">
        <ele>620</ele>
        <time>2026-02-10T13:08:56.000Z</time>
      </trkpt>
      <trkpt lat="43.61258" lon="6.03255">
        <ele>620</ele>
        <time>2026-02-10T13:08:57.000Z</time>
      </trkpt>
      <trkpt lat="43.61257" lon="6.03253">
        <ele>620</ele>
        <time>2026-02-10T13:08:59.000Z</time>
      </trkpt>
      <trkpt lat="43.61256" lon="6.03252">
        <ele>620</ele>
        <time>2026-02-10T13:09:00.000Z</time>
      </trkpt>
      <trkpt lat="43.61255" lon="6.03251">
        <ele>620</ele>
        <time>2026-02-10T13:09:01.000Z</time>
      </trkpt>
      <trkpt lat="43.61254" lon="6.0325">
        <ele>620</ele>
        <time>2026-02-10T13:09:02.000Z</time>
      </trkpt>
      <trkpt lat="43.61253" lon="6.03248">
        <ele>619</ele>
        <time>2026-02-10T13:09:04.000Z</time>
      </trkpt>
      <trkpt lat="43.61252" lon="6.03247">
        <ele>619</ele>
        <time>2026-02-10T13:09:05.000Z</time>
      </trkpt>
      <trkpt lat="43.61251" lon="6.03246">
        <ele>619</ele>
        <time>2026-02-10T13:09:06.000Z</time>
      </trkpt>
      <trkpt lat="43.6125" lon="6.03244">
        <ele>619</ele>
        <time>2026-02-10T13:09:08.000Z</time>
      </trkpt>
      <trkpt lat="43.61249" lon="6.03243">
        <ele>619</ele>
        <time>2026-02-10T13:09:09.000Z</time>
      </trkpt>
      <trkpt lat="43.61248" lon="6.03242">
        <ele>619</ele>
        <time>2026-02-10T13:09:10.000Z</time>
      </trkpt>
      <trkpt lat="43.61248" lon="6.03241">
        <ele>619</ele>
        <time>2026-02-10T13:09:11.000Z</time>
      </trkpt>
      <trkpt lat="43.61247" lon="6.03239">
        <ele>619</ele>
        <time>2026-02-10T13:09:13.000Z</time>
      </trkpt>
      <trkpt lat="43.61246" lon="6.03238">
        <ele>619</ele>
        <time>2026-02-10T13:09:14.000Z</time>
      </trkpt>
      <trkpt lat="43.61245" lon="6.03237">
        <ele>619</ele>
        <time>2026-02-10T13:09:15.000Z</time>
      </trkpt>
      <trkpt lat="43.61244" lon="6.03236">
        <ele>619</ele>
        <time>2026-02-10T13:09:16.000Z</time>
      </trkpt>
      <trkpt lat="43.61243" lon="6.03235">
        <ele>619</ele>
        <time>2026-02-10T13:09:17.000Z</time>
      </trkpt>
      <trkpt lat="43.61243" lon="6.03234">
        <ele>620</ele>
        <time>2026-02-10T13:09:28.000Z</time>
      </trkpt>
      <trkpt lat="43.61242" lon="6.03233">
        <ele>620</ele>
        <time>2026-02-10T13:09:29.000Z</time>
      </trkpt>
      <trkpt lat="43.61241" lon="6.03232">
        <ele>619</ele>
        <time>2026-02-10T13:09:30.000Z</time>
      </trkpt>
      <trkpt lat="43.6124" lon="6.03231">
        <ele>619</ele>
        <time>2026-02-10T13:09:31.000Z</time>
      </trkpt>
      <trkpt lat="43.61239" lon="6.03231">
        <ele>619</ele>
        <time>2026-02-10T13:09:32.000Z</time>
      </trkpt>
      <trkpt lat="43.61239" lon="6.0323">
        <ele>619</ele>
        <time>2026-02-10T13:09:33.000Z</time>
      </trkpt>
      <trkpt lat="43.61238" lon="6.03228">
        <ele>619</ele>
        <time>2026-02-10T13:09:35.000Z</time>
      </trkpt>
      <trkpt lat="43.61237" lon="6.03227">
        <ele>619</ele>
        <time>2026-02-10T13:09:36.000Z</time>
      </trkpt>
      <trkpt lat="43.61237" lon="6.03226">
        <ele>619</ele>
        <time>2026-02-10T13:09:37.000Z</time>
      </trkpt>
      <trkpt lat="43.61236" lon="6.03225">
        <ele>619</ele>
        <time>2026-02-10T13:09:38.000Z</time>
      </trkpt>
      <trkpt lat="43.61235" lon="6.03224">
        <ele>619</ele>
        <time>2026-02-10T13:09:39.000Z</time>
      </trkpt>
      <trkpt lat="43.61234" lon="6.03224">
        <ele>619</ele>
        <time>2026-02-10T13:09:40.000Z</time>
      </trkpt>
      <trkpt lat="43.61233" lon="6.03223">
        <ele>619</ele>
        <time>2026-02-10T13:09:41.000Z</time>
      </trkpt>
      <trkpt lat="43.61232" lon="6.03222">
        <ele>619</ele>
        <time>2026-02-10T13:09:42.000Z</time>
      </trkpt>
      <trkpt lat="43.61232" lon="6.0322">
        <ele>619</ele>
        <time>2026-02-10T13:09:44.000Z</time>
      </trkpt>
      <trkpt lat="43.61231" lon="6.03219">
        <ele>619</ele>
        <time>2026-02-10T13:09:45.000Z</time>
      </trkpt>
      <trkpt lat="43.6123" lon="6.03218">
        <ele>618</ele>
        <time>2026-02-10T13:09:46.000Z</time>
      </trkpt>
      <trkpt lat="43.61229" lon="6.03218">
        <ele>618</ele>
        <time>2026-02-10T13:09:47.000Z</time>
      </trkpt>
      <trkpt lat="43.61228" lon="6.03216">
        <ele>618</ele>
        <time>2026-02-10T13:09:49.000Z</time>
      </trkpt>
      <trkpt lat="43.61227" lon="6.03215">
        <ele>618</ele>
        <time>2026-02-10T13:09:50.000Z</time>
      </trkpt>
      <trkpt lat="43.61226" lon="6.03214">
        <ele>618</ele>
        <time>2026-02-10T13:09:51.000Z</time>
      </trkpt>
      <trkpt lat="43.61225" lon="6.03213">
        <ele>618</ele>
        <time>2026-02-10T13:09:52.000Z</time>
      </trkpt>
      <trkpt lat="43.61224" lon="6.03212">
        <ele>618</ele>
        <time>2026-02-10T13:09:53.000Z</time>
      </trkpt>
      <trkpt lat="43.61223" lon="6.03212">
        <ele>618</ele>
        <time>2026-02-10T13:09:54.000Z</time>
      </trkpt>
      <trkpt lat="43.61222" lon="6.03211">
        <ele>618</ele>
        <time>2026-02-10T13:09:55.000Z</time>
      </trkpt>
      <trkpt lat="43.61221" lon="6.0321">
        <ele>618</ele>
        <time>2026-02-10T13:09:56.000Z</time>
      </trkpt>
      <trkpt lat="43.6122" lon="6.03209">
        <ele>618</ele>
        <time>2026-02-10T13:09:57.000Z</time>
      </trkpt>
      <trkpt lat="43.61219" lon="6.03208">
        <ele>618</ele>
        <time>2026-02-10T13:09:58.000Z</time>
      </trkpt>
      <trkpt lat="43.61218" lon="6.03206">
        <ele>618</ele>
        <time>2026-02-10T13:10:00.000Z</time>
      </trkpt>
      <trkpt lat="43.61217" lon="6.03205">
        <ele>618</ele>
        <time>2026-02-10T13:10:01.000Z</time>
      </trkpt>
      <trkpt lat="43.61216" lon="6.03204">
        <ele>618</ele>
        <time>2026-02-10T13:10:02.000Z</time>
      </trkpt>
      <trkpt lat="43.61215" lon="6.03203">
        <ele>618</ele>
        <time>2026-02-10T13:10:03.000Z</time>
      </trkpt>
      <trkpt lat="43.61214" lon="6.03202">
        <ele>618</ele>
        <time>2026-02-10T13:10:04.000Z</time>
      </trkpt>
      <trkpt lat="43.61213" lon="6.03201">
        <ele>618</ele>
        <time>2026-02-10T13:10:05.000Z</time>
      </trkpt>
      <trkpt lat="43.61213" lon="6.032">
        <ele>618</ele>
        <time>2026-02-10T13:10:06.000Z</time>
      </trkpt>
      <trkpt lat="43.61212" lon="6.032">
        <ele>618</ele>
        <time>2026-02-10T13:10:07.000Z</time>
      </trkpt>
      <trkpt lat="43.61212" lon="6.03198">
        <ele>618</ele>
        <time>2026-02-10T13:10:09.000Z</time>
      </trkpt>
      <trkpt lat="43.61211" lon="6.03197">
        <ele>618</ele>
        <time>2026-02-10T13:10:10.000Z</time>
      </trkpt>
      <trkpt lat="43.6121" lon="6.03195">
        <ele>618</ele>
        <time>2026-02-10T13:10:12.000Z</time>
      </trkpt>
      <trkpt lat="43.6121" lon="6.03193">
        <ele>618</ele>
        <time>2026-02-10T13:10:14.000Z</time>
      </trkpt>
      <trkpt lat="43.6121" lon="6.03192">
        <ele>618</ele>
        <time>2026-02-10T13:10:15.000Z</time>
      </trkpt>
      <trkpt lat="43.6121" lon="6.03191">
        <ele>618</ele>
        <time>2026-02-10T13:10:16.000Z</time>
      </trkpt>
      <trkpt lat="43.6121" lon="6.0319">
        <ele>618</ele>
        <time>2026-02-10T13:10:17.000Z</time>
      </trkpt>
      <trkpt lat="43.61209" lon="6.03188">
        <ele>618</ele>
        <time>2026-02-10T13:10:19.000Z</time>
      </trkpt>
      <trkpt lat="43.61209" lon="6.03187">
        <ele>618</ele>
        <time>2026-02-10T13:10:20.000Z</time>
      </trkpt>
      <trkpt lat="43.61209" lon="6.03185">
        <ele>618</ele>
        <time>2026-02-10T13:10:22.000Z</time>
      </trkpt>
      <trkpt lat="43.61209" lon="6.03184">
        <ele>618</ele>
        <time>2026-02-10T13:10:23.000Z</time>
      </trkpt>
      <trkpt lat="43.6121" lon="6.03182">
        <ele>618</ele>
        <time>2026-02-10T13:10:25.000Z</time>
      </trkpt>
      <trkpt lat="43.6121" lon="6.03181">
        <ele>618</ele>
        <time>2026-02-10T13:10:26.000Z</time>
      </trkpt>
      <trkpt lat="43.6121" lon="6.03179">
        <ele>618</ele>
        <time>2026-02-10T13:10:28.000Z</time>
      </trkpt>
      <trkpt lat="43.6121" lon="6.03178">
        <ele>618</ele>
        <time>2026-02-10T13:10:29.000Z</time>
      </trkpt>
      <trkpt lat="43.6121" lon="6.03176">
        <ele>618</ele>
        <time>2026-02-10T13:10:31.000Z</time>
      </trkpt>
      <trkpt lat="43.6121" lon="6.03175">
        <ele>618</ele>
        <time>2026-02-10T13:10:32.000Z</time>
      </trkpt>
      <trkpt lat="43.6121" lon="6.03173">
        <ele>618</ele>
        <time>2026-02-10T13:10:34.000Z</time>
      </trkpt>
      <trkpt lat="43.6121" lon="6.03172">
        <ele>618</ele>
        <time>2026-02-10T13:10:35.000Z</time>
      </trkpt>
      <trkpt lat="43.6121" lon="6.0317">
        <ele>618</ele>
        <time>2026-02-10T13:10:37.000Z</time>
      </trkpt>
      <trkpt lat="43.6121" lon="6.03169">
        <ele>618</ele>
        <time>2026-02-10T13:10:38.000Z</time>
      </trkpt>
      <trkpt lat="43.6121" lon="6.03167">
        <ele>618</ele>
        <time>2026-02-10T13:10:40.000Z</time>
      </trkpt>
      <trkpt lat="43.6121" lon="6.03166">
        <ele>618</ele>
        <time>2026-02-10T13:10:41.000Z</time>
      </trkpt>
      <trkpt lat="43.6121" lon="6.03165">
        <ele>618</ele>
        <time>2026-02-10T13:10:42.000Z</time>
      </trkpt>
      <trkpt lat="43.6121" lon="6.03163">
        <ele>618</ele>
        <time>2026-02-10T13:10:44.000Z</time>
      </trkpt>
      <trkpt lat="43.6121" lon="6.03162">
        <ele>618</ele>
        <time>2026-02-10T13:10:45.000Z</time>
      </trkpt>
      <trkpt lat="43.6121" lon="6.0316">
        <ele>618</ele>
        <time>2026-02-10T13:10:47.000Z</time>
      </trkpt>
      <trkpt lat="43.61211" lon="6.03159">
        <ele>618</ele>
        <time>2026-02-10T13:10:48.000Z</time>
      </trkpt>
      <trkpt lat="43.61211" lon="6.03158">
        <ele>618</ele>
        <time>2026-02-10T13:10:49.000Z</time>
      </trkpt>
      <trkpt lat="43.61211" lon="6.03156">
        <ele>618</ele>
        <time>2026-02-10T13:10:51.000Z</time>
      </trkpt>
      <trkpt lat="43.61211" lon="6.03155">
        <ele>618</ele>
        <time>2026-02-10T13:10:52.000Z</time>
      </trkpt>
      <trkpt lat="43.61211" lon="6.03153">
        <ele>618</ele>
        <time>2026-02-10T13:10:54.000Z</time>
      </trkpt>
      <trkpt lat="43.61211" lon="6.03152">
        <ele>618</ele>
        <time>2026-02-10T13:10:55.000Z</time>
      </trkpt>
      <trkpt lat="43.6121" lon="6.0315">
        <ele>618</ele>
        <time>2026-02-10T13:10:57.000Z</time>
      </trkpt>
      <trkpt lat="43.6121" lon="6.03149">
        <ele>618</ele>
        <time>2026-02-10T13:10:58.000Z</time>
      </trkpt>
      <trkpt lat="43.6121" lon="6.03147">
        <ele>618</ele>
        <time>2026-02-10T13:11:00.000Z</time>
      </trkpt>
      <trkpt lat="43.61209" lon="6.03146">
        <ele>618</ele>
        <time>2026-02-10T13:11:01.000Z</time>
      </trkpt>
      <trkpt lat="43.61209" lon="6.03144">
        <ele>618</ele>
        <time>2026-02-10T13:11:03.000Z</time>
      </trkpt>
      <trkpt lat="43.61209" lon="6.03143">
        <ele>618</ele>
        <time>2026-02-10T13:11:04.000Z</time>
      </trkpt>
      <trkpt lat="43.61209" lon="6.03141">
        <ele>618</ele>
        <time>2026-02-10T13:11:06.000Z</time>
      </trkpt>
      <trkpt lat="43.61209" lon="6.03139">
        <ele>618</ele>
        <time>2026-02-10T13:11:08.000Z</time>
      </trkpt>
      <trkpt lat="43.61208" lon="6.03138">
        <ele>617</ele>
        <time>2026-02-10T13:11:09.000Z</time>
      </trkpt>
      <trkpt lat="43.61208" lon="6.03137">
        <ele>617</ele>
        <time>2026-02-10T13:11:10.000Z</time>
      </trkpt>
      <trkpt lat="43.61207" lon="6.03135">
        <ele>617</ele>
        <time>2026-02-10T13:11:12.000Z</time>
      </trkpt>
      <trkpt lat="43.61207" lon="6.03134">
        <ele>617</ele>
        <time>2026-02-10T13:11:13.000Z</time>
      </trkpt>
      <trkpt lat="43.61206" lon="6.03133">
        <ele>617</ele>
        <time>2026-02-10T13:11:14.000Z</time>
      </trkpt>
      <trkpt lat="43.61206" lon="6.03132">
        <ele>617</ele>
        <time>2026-02-10T13:11:15.000Z</time>
      </trkpt>
      <trkpt lat="43.61205" lon="6.03131">
        <ele>617</ele>
        <time>2026-02-10T13:11:16.000Z</time>
      </trkpt>
      <trkpt lat="43.61204" lon="6.03129">
        <ele>617</ele>
        <time>2026-02-10T13:11:18.000Z</time>
      </trkpt>
      <trkpt lat="43.61203" lon="6.03128">
        <ele>617</ele>
        <time>2026-02-10T13:11:19.000Z</time>
      </trkpt>
      <trkpt lat="43.61203" lon="6.03126">
        <ele>617</ele>
        <time>2026-02-10T13:11:21.000Z</time>
      </trkpt>
      <trkpt lat="43.61202" lon="6.03125">
        <ele>617</ele>
        <time>2026-02-10T13:11:22.000Z</time>
      </trkpt>
      <trkpt lat="43.61202" lon="6.03124">
        <ele>617</ele>
        <time>2026-02-10T13:11:23.000Z</time>
      </trkpt>
      <trkpt lat="43.612" lon="6.03123">
        <ele>617</ele>
        <time>2026-02-10T13:11:25.000Z</time>
      </trkpt>
      <trkpt lat="43.61199" lon="6.03122">
        <ele>617</ele>
        <time>2026-02-10T13:11:26.000Z</time>
      </trkpt>
      <trkpt lat="43.61198" lon="6.0312">
        <ele>617</ele>
        <time>2026-02-10T13:11:28.000Z</time>
      </trkpt>
      <trkpt lat="43.61198" lon="6.03119">
        <ele>617</ele>
        <time>2026-02-10T13:11:29.000Z</time>
      </trkpt>
      <trkpt lat="43.61197" lon="6.03118">
        <ele>617</ele>
        <time>2026-02-10T13:11:30.000Z</time>
      </trkpt>
      <trkpt lat="43.61196" lon="6.03117">
        <ele>616</ele>
        <time>2026-02-10T13:11:31.000Z</time>
      </trkpt>
      <trkpt lat="43.61195" lon="6.03117">
        <ele>616</ele>
        <time>2026-02-10T13:11:32.000Z</time>
      </trkpt>
      <trkpt lat="43.61195" lon="6.03116">
        <ele>616</ele>
        <time>2026-02-10T13:11:33.000Z</time>
      </trkpt>
      <trkpt lat="43.61195" lon="6.03115">
        <ele>616</ele>
        <time>2026-02-10T13:11:34.000Z</time>
      </trkpt>
      <trkpt lat="43.61194" lon="6.03114">
        <ele>616</ele>
        <time>2026-02-10T13:11:35.000Z</time>
      </trkpt>
      <trkpt lat="43.61194" lon="6.03113">
        <ele>616</ele>
        <time>2026-02-10T13:11:36.000Z</time>
      </trkpt>
      <trkpt lat="43.61195" lon="6.03113">
        <ele>616</ele>
        <time>2026-02-10T13:11:37.000Z</time>
      </trkpt>
      <trkpt lat="43.61194" lon="6.03112">
        <ele>616</ele>
        <time>2026-02-10T13:11:38.000Z</time>
      </trkpt>
      <trkpt lat="43.61194" lon="6.03111">
        <ele>616</ele>
        <time>2026-02-10T13:11:39.000Z</time>
      </trkpt>
      <trkpt lat="43.61193" lon="6.03111">
        <ele>616</ele>
        <time>2026-02-10T13:11:40.000Z</time>
      </trkpt>
      <trkpt lat="43.61192" lon="6.03109">
        <ele>616</ele>
        <time>2026-02-10T13:11:42.000Z</time>
      </trkpt>
      <trkpt lat="43.61191" lon="6.03108">
        <ele>616</ele>
        <time>2026-02-10T13:11:43.000Z</time>
      </trkpt>
      <trkpt lat="43.6119" lon="6.03107">
        <ele>616</ele>
        <time>2026-02-10T13:11:44.000Z</time>
      </trkpt>
      <trkpt lat="43.6119" lon="6.03106">
        <ele>616</ele>
        <time>2026-02-10T13:11:45.000Z</time>
      </trkpt>
      <trkpt lat="43.61189" lon="6.03105">
        <ele>616</ele>
        <time>2026-02-10T13:11:46.000Z</time>
      </trkpt>
      <trkpt lat="43.61188" lon="6.03103">
        <ele>616</ele>
        <time>2026-02-10T13:11:48.000Z</time>
      </trkpt>
      <trkpt lat="43.61187" lon="6.03102">
        <ele>616</ele>
        <time>2026-02-10T13:11:49.000Z</time>
      </trkpt>
      <trkpt lat="43.61187" lon="6.031">
        <ele>616</ele>
        <time>2026-02-10T13:11:51.000Z</time>
      </trkpt>
      <trkpt lat="43.61186" lon="6.03099">
        <ele>616</ele>
        <time>2026-02-10T13:11:52.000Z</time>
      </trkpt>
      <trkpt lat="43.61185" lon="6.03097">
        <ele>615</ele>
        <time>2026-02-10T13:11:54.000Z</time>
      </trkpt>
      <trkpt lat="43.61184" lon="6.03096">
        <ele>615</ele>
        <time>2026-02-10T13:11:55.000Z</time>
      </trkpt>
      <trkpt lat="43.61184" lon="6.03095">
        <ele>615</ele>
        <time>2026-02-10T13:11:56.000Z</time>
      </trkpt>
      <trkpt lat="43.61183" lon="6.03094">
        <ele>615</ele>
        <time>2026-02-10T13:11:57.000Z</time>
      </trkpt>
      <trkpt lat="43.61182" lon="6.03093">
        <ele>615</ele>
        <time>2026-02-10T13:11:58.000Z</time>
      </trkpt>
      <trkpt lat="43.61182" lon="6.03092">
        <ele>615</ele>
        <time>2026-02-10T13:11:59.000Z</time>
      </trkpt>
      <trkpt lat="43.61181" lon="6.03091">
        <ele>615</ele>
        <time>2026-02-10T13:12:00.000Z</time>
      </trkpt>
      <trkpt lat="43.61181" lon="6.03089">
        <ele>615</ele>
        <time>2026-02-10T13:12:02.000Z</time>
      </trkpt>
      <trkpt lat="43.6118" lon="6.03089">
        <ele>615</ele>
        <time>2026-02-10T13:12:03.000Z</time>
      </trkpt>
      <trkpt lat="43.61179" lon="6.03087">
        <ele>615</ele>
        <time>2026-02-10T13:12:05.000Z</time>
      </trkpt>
      <trkpt lat="43.61178" lon="6.03086">
        <ele>615</ele>
        <time>2026-02-10T13:12:06.000Z</time>
      </trkpt>
      <trkpt lat="43.61177" lon="6.03086">
        <ele>615</ele>
        <time>2026-02-10T13:12:07.000Z</time>
      </trkpt>
      <trkpt lat="43.61176" lon="6.03084">
        <ele>615</ele>
        <time>2026-02-10T13:12:09.000Z</time>
      </trkpt>
      <trkpt lat="43.61175" lon="6.03082">
        <ele>615</ele>
        <time>2026-02-10T13:12:11.000Z</time>
      </trkpt>
      <trkpt lat="43.61174" lon="6.03081">
        <ele>614</ele>
        <time>2026-02-10T13:12:12.000Z</time>
      </trkpt>
      <trkpt lat="43.61173" lon="6.0308">
        <ele>614</ele>
        <time>2026-02-10T13:12:13.000Z</time>
      </trkpt>
      <trkpt lat="43.61172" lon="6.03079">
        <ele>614</ele>
        <time>2026-02-10T13:12:14.000Z</time>
      </trkpt>
      <trkpt lat="43.61171" lon="6.03078">
        <ele>614</ele>
        <time>2026-02-10T13:12:15.000Z</time>
      </trkpt>
      <trkpt lat="43.6117" lon="6.03077">
        <ele>614</ele>
        <time>2026-02-10T13:12:16.000Z</time>
      </trkpt>
      <trkpt lat="43.61169" lon="6.03075">
        <ele>614</ele>
        <time>2026-02-10T13:12:18.000Z</time>
      </trkpt>
      <trkpt lat="43.61168" lon="6.03074">
        <ele>614</ele>
        <time>2026-02-10T13:12:19.000Z</time>
      </trkpt>
      <trkpt lat="43.61167" lon="6.03073">
        <ele>614</ele>
        <time>2026-02-10T13:12:20.000Z</time>
      </trkpt>
      <trkpt lat="43.61167" lon="6.03072">
        <ele>614</ele>
        <time>2026-02-10T13:12:21.000Z</time>
      </trkpt>
      <trkpt lat="43.61166" lon="6.0307">
        <ele>614</ele>
        <time>2026-02-10T13:12:23.000Z</time>
      </trkpt>
      <trkpt lat="43.61165" lon="6.03069">
        <ele>614</ele>
        <time>2026-02-10T13:12:24.000Z</time>
      </trkpt>
      <trkpt lat="43.61165" lon="6.03067">
        <ele>614</ele>
        <time>2026-02-10T13:12:26.000Z</time>
      </trkpt>
      <trkpt lat="43.61164" lon="6.03065">
        <ele>614</ele>
        <time>2026-02-10T13:12:28.000Z</time>
      </trkpt>
      <trkpt lat="43.61163" lon="6.03064">
        <ele>613</ele>
        <time>2026-02-10T13:12:29.000Z</time>
      </trkpt>
      <trkpt lat="43.61163" lon="6.03062">
        <ele>613</ele>
        <time>2026-02-10T13:12:31.000Z</time>
      </trkpt>
      <trkpt lat="43.61162" lon="6.03061">
        <ele>613</ele>
        <time>2026-02-10T13:12:32.000Z</time>
      </trkpt>
      <trkpt lat="43.61161" lon="6.03059">
        <ele>613</ele>
        <time>2026-02-10T13:12:34.000Z</time>
      </trkpt>
      <trkpt lat="43.61161" lon="6.03058">
        <ele>613</ele>
        <time>2026-02-10T13:12:35.000Z</time>
      </trkpt>
      <trkpt lat="43.6116" lon="6.03056">
        <ele>613</ele>
        <time>2026-02-10T13:12:37.000Z</time>
      </trkpt>
      <trkpt lat="43.61159" lon="6.03055">
        <ele>613</ele>
        <time>2026-02-10T13:12:38.000Z</time>
      </trkpt>
      <trkpt lat="43.61159" lon="6.03052">
        <ele>613</ele>
        <time>2026-02-10T13:12:40.000Z</time>
      </trkpt>
      <trkpt lat="43.61159" lon="6.03051">
        <ele>613</ele>
        <time>2026-02-10T13:12:41.000Z</time>
      </trkpt>
      <trkpt lat="43.61158" lon="6.0305">
        <ele>613</ele>
        <time>2026-02-10T13:12:42.000Z</time>
      </trkpt>
      <trkpt lat="43.61158" lon="6.03048">
        <ele>612</ele>
        <time>2026-02-10T13:12:44.000Z</time>
      </trkpt>
      <trkpt lat="43.61158" lon="6.03047">
        <ele>612</ele>
        <time>2026-02-10T13:12:45.000Z</time>
      </trkpt>
      <trkpt lat="43.61157" lon="6.03046">
        <ele>612</ele>
        <time>2026-02-10T13:12:46.000Z</time>
      </trkpt>
      <trkpt lat="43.61157" lon="6.03044">
        <ele>612</ele>
        <time>2026-02-10T13:12:48.000Z</time>
      </trkpt>
      <trkpt lat="43.61158" lon="6.03043">
        <ele>612</ele>
        <time>2026-02-10T13:12:49.000Z</time>
      </trkpt>
      <trkpt lat="43.61158" lon="6.03041">
        <ele>612</ele>
        <time>2026-02-10T13:12:51.000Z</time>
      </trkpt>
      <trkpt lat="43.61158" lon="6.03039">
        <ele>612</ele>
        <time>2026-02-10T13:12:53.000Z</time>
      </trkpt>
      <trkpt lat="43.61158" lon="6.03038">
        <ele>612</ele>
        <time>2026-02-10T13:12:54.000Z</time>
      </trkpt>
      <trkpt lat="43.61158" lon="6.03036">
        <ele>612</ele>
        <time>2026-02-10T13:12:56.000Z</time>
      </trkpt>
      <trkpt lat="43.61158" lon="6.03035">
        <ele>612</ele>
        <time>2026-02-10T13:12:57.000Z</time>
      </trkpt>
      <trkpt lat="43.61158" lon="6.03033">
        <ele>612</ele>
        <time>2026-02-10T13:12:59.000Z</time>
      </trkpt>
      <trkpt lat="43.61158" lon="6.03032">
        <ele>612</ele>
        <time>2026-02-10T13:13:00.000Z</time>
      </trkpt>
      <trkpt lat="43.61158" lon="6.03031">
        <ele>612</ele>
        <time>2026-02-10T13:13:01.000Z</time>
      </trkpt>
      <trkpt lat="43.61158" lon="6.03029">
        <ele>612</ele>
        <time>2026-02-10T13:13:03.000Z</time>
      </trkpt>
      <trkpt lat="43.61158" lon="6.03027">
        <ele>612</ele>
        <time>2026-02-10T13:13:05.000Z</time>
      </trkpt>
      <trkpt lat="43.61158" lon="6.03025">
        <ele>611</ele>
        <time>2026-02-10T13:13:07.000Z</time>
      </trkpt>
      <trkpt lat="43.61157" lon="6.03024">
        <ele>611</ele>
        <time>2026-02-10T13:13:08.000Z</time>
      </trkpt>
      <trkpt lat="43.61157" lon="6.03022">
        <ele>611</ele>
        <time>2026-02-10T13:13:10.000Z</time>
      </trkpt>
      <trkpt lat="43.61156" lon="6.03021">
        <ele>611</ele>
        <time>2026-02-10T13:13:11.000Z</time>
      </trkpt>
      <trkpt lat="43.61156" lon="6.03019">
        <ele>611</ele>
        <time>2026-02-10T13:13:13.000Z</time>
      </trkpt>
      <trkpt lat="43.61155" lon="6.03018">
        <ele>611</ele>
        <time>2026-02-10T13:13:14.000Z</time>
      </trkpt>
      <trkpt lat="43.61155" lon="6.03016">
        <ele>611</ele>
        <time>2026-02-10T13:13:16.000Z</time>
      </trkpt>
      <trkpt lat="43.61154" lon="6.03015">
        <ele>611</ele>
        <time>2026-02-10T13:13:17.000Z</time>
      </trkpt>
      <trkpt lat="43.61154" lon="6.03013">
        <ele>611</ele>
        <time>2026-02-10T13:13:19.000Z</time>
      </trkpt>
      <trkpt lat="43.61153" lon="6.03011">
        <ele>611</ele>
        <time>2026-02-10T13:13:21.000Z</time>
      </trkpt>
      <trkpt lat="43.61152" lon="6.0301">
        <ele>610</ele>
        <time>2026-02-10T13:13:22.000Z</time>
      </trkpt>
      <trkpt lat="43.61152" lon="6.03009">
        <ele>610</ele>
        <time>2026-02-10T13:13:23.000Z</time>
      </trkpt>
      <trkpt lat="43.61151" lon="6.03008">
        <ele>610</ele>
        <time>2026-02-10T13:13:24.000Z</time>
      </trkpt>
      <trkpt lat="43.61151" lon="6.03006">
        <ele>610</ele>
        <time>2026-02-10T13:13:26.000Z</time>
      </trkpt>
      <trkpt lat="43.61151" lon="6.03006">
        <ele>610</ele>
        <time>2026-02-10T13:13:26.000Z</time>
      </trkpt>
      <trkpt lat="43.6115" lon="6.03005">
        <ele>610</ele>
        <time>2026-02-10T13:13:27.000Z</time>
      </trkpt>
      <trkpt lat="43.61149" lon="6.03004">
        <ele>610</ele>
        <time>2026-02-10T13:13:28.000Z</time>
      </trkpt>
      <trkpt lat="43.61148" lon="6.03002">
        <ele>610</ele>
        <time>2026-02-10T13:13:30.000Z</time>
      </trkpt>
      <trkpt lat="43.61148" lon="6.03001">
        <ele>610</ele>
        <time>2026-02-10T13:13:31.000Z</time>
      </trkpt>
      <trkpt lat="43.61148" lon="6.02999">
        <ele>610</ele>
        <time>2026-02-10T13:13:33.000Z</time>
      </trkpt>
      <trkpt lat="43.61147" lon="6.02998">
        <ele>610</ele>
        <time>2026-02-10T13:13:34.000Z</time>
      </trkpt>
      <trkpt lat="43.61146" lon="6.02997">
        <ele>610</ele>
        <time>2026-02-10T13:13:35.000Z</time>
      </trkpt>
      <trkpt lat="43.61146" lon="6.02996">
        <ele>610</ele>
        <time>2026-02-10T13:13:36.000Z</time>
      </trkpt>
      <trkpt lat="43.61146" lon="6.02995">
        <ele>610</ele>
        <time>2026-02-10T13:13:37.000Z</time>
      </trkpt>
      <trkpt lat="43.61145" lon="6.02994">
        <ele>610</ele>
        <time>2026-02-10T13:13:38.000Z</time>
      </trkpt>
      <trkpt lat="43.61144" lon="6.02992">
        <ele>610</ele>
        <time>2026-02-10T13:13:40.000Z</time>
      </trkpt>
      <trkpt lat="43.61144" lon="6.02991">
        <ele>610</ele>
        <time>2026-02-10T13:13:41.000Z</time>
      </trkpt>
      <trkpt lat="43.61143" lon="6.0299">
        <ele>610</ele>
        <time>2026-02-10T13:13:42.000Z</time>
      </trkpt>
      <trkpt lat="43.61142" lon="6.02989">
        <ele>610</ele>
        <time>2026-02-10T13:13:43.000Z</time>
      </trkpt>
      <trkpt lat="43.61141" lon="6.02987">
        <ele>610</ele>
        <time>2026-02-10T13:13:45.000Z</time>
      </trkpt>
      <trkpt lat="43.61141" lon="6.02986">
        <ele>610</ele>
        <time>2026-02-10T13:13:46.000Z</time>
      </trkpt>
      <trkpt lat="43.6114" lon="6.02985">
        <ele>610</ele>
        <time>2026-02-10T13:13:47.000Z</time>
      </trkpt>
      <trkpt lat="43.6114" lon="6.02983">
        <ele>610</ele>
        <time>2026-02-10T13:13:49.000Z</time>
      </trkpt>
      <trkpt lat="43.61139" lon="6.02981">
        <ele>610</ele>
        <time>2026-02-10T13:13:51.000Z</time>
      </trkpt>
      <trkpt lat="43.61139" lon="6.0298">
        <ele>610</ele>
        <time>2026-02-10T13:13:52.000Z</time>
      </trkpt>
      <trkpt lat="43.61138" lon="6.02978">
        <ele>610</ele>
        <time>2026-02-10T13:13:54.000Z</time>
      </trkpt>
      <trkpt lat="43.61138" lon="6.02976">
        <ele>610</ele>
        <time>2026-02-10T13:13:56.000Z</time>
      </trkpt>
      <trkpt lat="43.61138" lon="6.02974">
        <ele>610</ele>
        <time>2026-02-10T13:13:58.000Z</time>
      </trkpt>
      <trkpt lat="43.61137" lon="6.02973">
        <ele>609</ele>
        <time>2026-02-10T13:13:59.000Z</time>
      </trkpt>
      <trkpt lat="43.61137" lon="6.02971">
        <ele>609</ele>
        <time>2026-02-10T13:14:01.000Z</time>
      </trkpt>
      <trkpt lat="43.61136" lon="6.0297">
        <ele>609</ele>
        <time>2026-02-10T13:14:02.000Z</time>
      </trkpt>
      <trkpt lat="43.61136" lon="6.02969">
        <ele>609</ele>
        <time>2026-02-10T13:14:03.000Z</time>
      </trkpt>
      <trkpt lat="43.61135" lon="6.02967">
        <ele>609</ele>
        <time>2026-02-10T13:14:05.000Z</time>
      </trkpt>
      <trkpt lat="43.61135" lon="6.02966">
        <ele>609</ele>
        <time>2026-02-10T13:14:06.000Z</time>
      </trkpt>
      <trkpt lat="43.61135" lon="6.02964">
        <ele>609</ele>
        <time>2026-02-10T13:14:08.000Z</time>
      </trkpt>
      <trkpt lat="43.61134" lon="6.02963">
        <ele>609</ele>
        <time>2026-02-10T13:14:09.000Z</time>
      </trkpt>
      <trkpt lat="43.61134" lon="6.02961">
        <ele>608</ele>
        <time>2026-02-10T13:14:11.000Z</time>
      </trkpt>
      <trkpt lat="43.61134" lon="6.0296">
        <ele>608</ele>
        <time>2026-02-10T13:14:12.000Z</time>
      </trkpt>
      <trkpt lat="43.61134" lon="6.02959">
        <ele>608</ele>
        <time>2026-02-10T13:14:13.000Z</time>
      </trkpt>
      <trkpt lat="43.61133" lon="6.02957">
        <ele>608</ele>
        <time>2026-02-10T13:14:15.000Z</time>
      </trkpt>
      <trkpt lat="43.61133" lon="6.02956">
        <ele>608</ele>
        <time>2026-02-10T13:14:16.000Z</time>
      </trkpt>
      <trkpt lat="43.61133" lon="6.02954">
        <ele>608</ele>
        <time>2026-02-10T13:14:18.000Z</time>
      </trkpt>
      <trkpt lat="43.61133" lon="6.02953">
        <ele>608</ele>
        <time>2026-02-10T13:14:19.000Z</time>
      </trkpt>
      <trkpt lat="43.61133" lon="6.02952">
        <ele>608</ele>
        <time>2026-02-10T13:14:20.000Z</time>
      </trkpt>
      <trkpt lat="43.61133" lon="6.02952">
        <ele>608</ele>
        <time>2026-02-10T13:14:20.000Z</time>
      </trkpt>
      <trkpt lat="43.61132" lon="6.02952">
        <ele>608</ele>
        <time>2026-02-10T13:14:21.000Z</time>
      </trkpt>
      <trkpt lat="43.61132" lon="6.02953">
        <ele>608</ele>
        <time>2026-02-10T13:14:22.000Z</time>
      </trkpt>
      <trkpt lat="43.61132" lon="6.02955">
        <ele>608</ele>
        <time>2026-02-10T13:14:24.000Z</time>
      </trkpt>
      <trkpt lat="43.61131" lon="6.02956">
        <ele>608</ele>
        <time>2026-02-10T13:14:25.000Z</time>
      </trkpt>
      <trkpt lat="43.61132" lon="6.02958">
        <ele>608</ele>
        <time>2026-02-10T13:14:27.000Z</time>
      </trkpt>
      <trkpt lat="43.61132" lon="6.02959">
        <ele>608</ele>
        <time>2026-02-10T13:14:28.000Z</time>
      </trkpt>
      <trkpt lat="43.61132" lon="6.02959">
        <ele>608</ele>
        <time>2026-02-10T13:14:28.000Z</time>
      </trkpt>
      <trkpt lat="43.61132" lon="6.02959">
        <ele>608</ele>
        <time>2026-02-10T13:14:28.000Z</time>
      </trkpt>
      <trkpt lat="43.61132" lon="6.02959">
        <ele>608</ele>
        <time>2026-02-10T13:14:28.000Z</time>
      </trkpt>
      <trkpt lat="43.61132" lon="6.02959">
        <ele>608</ele>
        <time>2026-02-10T13:14:28.000Z</time>
      </trkpt>
      <trkpt lat="43.61132" lon="6.02958">
        <ele>608</ele>
        <time>2026-02-10T13:14:29.000Z</time>
      </trkpt>
      <trkpt lat="43.61131" lon="6.02957">
        <ele>608</ele>
        <time>2026-02-10T13:14:30.000Z</time>
      </trkpt>
      <trkpt lat="43.61131" lon="6.02956">
        <ele>608</ele>
        <time>2026-02-10T13:14:31.000Z</time>
      </trkpt>
      <trkpt lat="43.61131" lon="6.02955">
        <ele>608</ele>
        <time>2026-02-10T13:14:32.000Z</time>
      </trkpt>
      <trkpt lat="43.61131" lon="6.02954">
        <ele>608</ele>
        <time>2026-02-10T13:14:33.000Z</time>
      </trkpt>
      <trkpt lat="43.61131" lon="6.02952">
        <ele>608</ele>
        <time>2026-02-10T13:14:35.000Z</time>
      </trkpt>
      <trkpt lat="43.6113" lon="6.02951">
        <ele>608</ele>
        <time>2026-02-10T13:14:36.000Z</time>
      </trkpt>
      <trkpt lat="43.61131" lon="6.0295">
        <ele>608</ele>
        <time>2026-02-10T13:14:37.000Z</time>
      </trkpt>
      <trkpt lat="43.61131" lon="6.02948">
        <ele>608</ele>
        <time>2026-02-10T13:14:39.000Z</time>
      </trkpt>
      <trkpt lat="43.6113" lon="6.02947">
        <ele>608</ele>
        <time>2026-02-10T13:14:40.000Z</time>
      </trkpt>
      <trkpt lat="43.6113" lon="6.02945">
        <ele>608</ele>
        <time>2026-02-10T13:14:42.000Z</time>
      </trkpt>
      <trkpt lat="43.61131" lon="6.02944">
        <ele>609</ele>
        <time>2026-02-10T13:14:54.000Z</time>
      </trkpt>
      <trkpt lat="43.61131" lon="6.02943">
        <ele>609</ele>
        <time>2026-02-10T13:14:55.000Z</time>
      </trkpt>
      <trkpt lat="43.61131" lon="6.02941">
        <ele>608</ele>
        <time>2026-02-10T13:14:57.000Z</time>
      </trkpt>
      <trkpt lat="43.61131" lon="6.02939">
        <ele>608</ele>
        <time>2026-02-10T13:14:59.000Z</time>
      </trkpt>
      <trkpt lat="43.61132" lon="6.02937">
        <ele>608</ele>
        <time>2026-02-10T13:15:01.000Z</time>
      </trkpt>
      <trkpt lat="43.61132" lon="6.02936">
        <ele>608</ele>
        <time>2026-02-10T13:15:02.000Z</time>
      </trkpt>
      <trkpt lat="43.61132" lon="6.02934">
        <ele>608</ele>
        <time>2026-02-10T13:15:04.000Z</time>
      </trkpt>
      <trkpt lat="43.61133" lon="6.02933">
        <ele>608</ele>
        <time>2026-02-10T13:15:05.000Z</time>
      </trkpt>
      <trkpt lat="43.61133" lon="6.02931">
        <ele>608</ele>
        <time>2026-02-10T13:15:07.000Z</time>
      </trkpt>
      <trkpt lat="43.61134" lon="6.0293">
        <ele>608</ele>
        <time>2026-02-10T13:15:08.000Z</time>
      </trkpt>
      <trkpt lat="43.61134" lon="6.02928">
        <ele>608</ele>
        <time>2026-02-10T13:15:10.000Z</time>
      </trkpt>
      <trkpt lat="43.61134" lon="6.02927">
        <ele>608</ele>
        <time>2026-02-10T13:15:11.000Z</time>
      </trkpt>
      <trkpt lat="43.61134" lon="6.02925">
        <ele>608</ele>
        <time>2026-02-10T13:15:13.000Z</time>
      </trkpt>
      <trkpt lat="43.61134" lon="6.02924">
        <ele>608</ele>
        <time>2026-02-10T13:15:14.000Z</time>
      </trkpt>
      <trkpt lat="43.61134" lon="6.02922">
        <ele>608</ele>
        <time>2026-02-10T13:15:16.000Z</time>
      </trkpt>
      <trkpt lat="43.61134" lon="6.02921">
        <ele>608</ele>
        <time>2026-02-10T13:15:17.000Z</time>
      </trkpt>
      <trkpt lat="43.61135" lon="6.02919">
        <ele>608</ele>
        <time>2026-02-10T13:15:19.000Z</time>
      </trkpt>
      <trkpt lat="43.61136" lon="6.02918">
        <ele>608</ele>
        <time>2026-02-10T13:15:20.000Z</time>
      </trkpt>
      <trkpt lat="43.61136" lon="6.02916">
        <ele>608</ele>
        <time>2026-02-10T13:15:22.000Z</time>
      </trkpt>
      <trkpt lat="43.61136" lon="6.02915">
        <ele>608</ele>
        <time>2026-02-10T13:15:23.000Z</time>
      </trkpt>
      <trkpt lat="43.61136" lon="6.02913">
        <ele>608</ele>
        <time>2026-02-10T13:15:25.000Z</time>
      </trkpt>
      <trkpt lat="43.61136" lon="6.02911">
        <ele>608</ele>
        <time>2026-02-10T13:15:27.000Z</time>
      </trkpt>
      <trkpt lat="43.61136" lon="6.02909">
        <ele>608</ele>
        <time>2026-02-10T13:15:29.000Z</time>
      </trkpt>
      <trkpt lat="43.61136" lon="6.02908">
        <ele>608</ele>
        <time>2026-02-10T13:15:30.000Z</time>
      </trkpt>
      <trkpt lat="43.61136" lon="6.02906">
        <ele>608</ele>
        <time>2026-02-10T13:15:32.000Z</time>
      </trkpt>
      <trkpt lat="43.61136" lon="6.02905">
        <ele>608</ele>
        <time>2026-02-10T13:15:33.000Z</time>
      </trkpt>
      <trkpt lat="43.61136" lon="6.02903">
        <ele>608</ele>
        <time>2026-02-10T13:15:35.000Z</time>
      </trkpt>
      <trkpt lat="43.61136" lon="6.02901">
        <ele>608</ele>
        <time>2026-02-10T13:15:37.000Z</time>
      </trkpt>
      <trkpt lat="43.61136" lon="6.02899">
        <ele>608</ele>
        <time>2026-02-10T13:15:39.000Z</time>
      </trkpt>
      <trkpt lat="43.61136" lon="6.02897">
        <ele>608</ele>
        <time>2026-02-10T13:15:41.000Z</time>
      </trkpt>
      <trkpt lat="43.61136" lon="6.02895">
        <ele>608</ele>
        <time>2026-02-10T13:15:43.000Z</time>
      </trkpt>
      <trkpt lat="43.61136" lon="6.02894">
        <ele>608</ele>
        <time>2026-02-10T13:15:44.000Z</time>
      </trkpt>
      <trkpt lat="43.61136" lon="6.02892">
        <ele>607</ele>
        <time>2026-02-10T13:15:46.000Z</time>
      </trkpt>
      <trkpt lat="43.61136" lon="6.0289">
        <ele>607</ele>
        <time>2026-02-10T13:15:48.000Z</time>
      </trkpt>
      <trkpt lat="43.61136" lon="6.02889">
        <ele>607</ele>
        <time>2026-02-10T13:15:49.000Z</time>
      </trkpt>
      <trkpt lat="43.61135" lon="6.02887">
        <ele>608</ele>
        <time>2026-02-10T13:16:01.000Z</time>
      </trkpt>
      <trkpt lat="43.61135" lon="6.02885">
        <ele>608</ele>
        <time>2026-02-10T13:16:03.000Z</time>
      </trkpt>
      <trkpt lat="43.61135" lon="6.02884">
        <ele>608</ele>
        <time>2026-02-10T13:16:04.000Z</time>
      </trkpt>
      <trkpt lat="43.61134" lon="6.02883">
        <ele>608</ele>
        <time>2026-02-10T13:16:05.000Z</time>
      </trkpt>
      <trkpt lat="43.61134" lon="6.02881">
        <ele>608</ele>
        <time>2026-02-10T13:16:07.000Z</time>
      </trkpt>
      <trkpt lat="43.61134" lon="6.02879">
        <ele>607</ele>
        <time>2026-02-10T13:16:09.000Z</time>
      </trkpt>
      <trkpt lat="43.61134" lon="6.02878">
        <ele>607</ele>
        <time>2026-02-10T13:16:10.000Z</time>
      </trkpt>
      <trkpt lat="43.61134" lon="6.02876">
        <ele>607</ele>
        <time>2026-02-10T13:16:12.000Z</time>
      </trkpt>
      <trkpt lat="43.61133" lon="6.02874">
        <ele>607</ele>
        <time>2026-02-10T13:16:14.000Z</time>
      </trkpt>
      <trkpt lat="43.61133" lon="6.02872">
        <ele>608</ele>
        <time>2026-02-10T13:16:26.000Z</time>
      </trkpt>
      <trkpt lat="43.61132" lon="6.02871">
        <ele>608</ele>
        <time>2026-02-10T13:16:27.000Z</time>
      </trkpt>
      <trkpt lat="43.61132" lon="6.02869">
        <ele>608</ele>
        <time>2026-02-10T13:16:29.000Z</time>
      </trkpt>
      <trkpt lat="43.61131" lon="6.02868">
        <ele>608</ele>
        <time>2026-02-10T13:16:30.000Z</time>
      </trkpt>
      <trkpt lat="43.61131" lon="6.02866">
        <ele>608</ele>
        <time>2026-02-10T13:16:32.000Z</time>
      </trkpt>
      <trkpt lat="43.6113" lon="6.02865">
        <ele>608</ele>
        <time>2026-02-10T13:16:33.000Z</time>
      </trkpt>
      <trkpt lat="43.61129" lon="6.02864">
        <ele>608</ele>
        <time>2026-02-10T13:16:34.000Z</time>
      </trkpt>
      <trkpt lat="43.61129" lon="6.02862">
        <ele>608</ele>
        <time>2026-02-10T13:16:36.000Z</time>
      </trkpt>
      <trkpt lat="43.61128" lon="6.02861">
        <ele>608</ele>
        <time>2026-02-10T13:16:37.000Z</time>
      </trkpt>
      <trkpt lat="43.61128" lon="6.0286">
        <ele>608</ele>
        <time>2026-02-10T13:16:38.000Z</time>
      </trkpt>
      <trkpt lat="43.61127" lon="6.02859">
        <ele>608</ele>
        <time>2026-02-10T13:16:39.000Z</time>
      </trkpt>
      <trkpt lat="43.61126" lon="6.02858">
        <ele>608</ele>
        <time>2026-02-10T13:16:40.000Z</time>
      </trkpt>
      <trkpt lat="43.61125" lon="6.02856">
        <ele>608</ele>
        <time>2026-02-10T13:16:42.000Z</time>
      </trkpt>
      <trkpt lat="43.61125" lon="6.02855">
        <ele>608</ele>
        <time>2026-02-10T13:16:43.000Z</time>
      </trkpt>
      <trkpt lat="43.61124" lon="6.02854">
        <ele>608</ele>
        <time>2026-02-10T13:16:44.000Z</time>
      </trkpt>
      <trkpt lat="43.61123" lon="6.02853">
        <ele>608</ele>
        <time>2026-02-10T13:16:45.000Z</time>
      </trkpt>
      <trkpt lat="43.61123" lon="6.02852">
        <ele>608</ele>
        <time>2026-02-10T13:16:46.000Z</time>
      </trkpt>
      <trkpt lat="43.61122" lon="6.02851">
        <ele>608</ele>
        <time>2026-02-10T13:16:47.000Z</time>
      </trkpt>
      <trkpt lat="43.61121" lon="6.0285">
        <ele>608</ele>
        <time>2026-02-10T13:16:48.000Z</time>
      </trkpt>
      <trkpt lat="43.61121" lon="6.02848">
        <ele>608</ele>
        <time>2026-02-10T13:16:50.000Z</time>
      </trkpt>
      <trkpt lat="43.6112" lon="6.02848">
        <ele>608</ele>
        <time>2026-02-10T13:16:51.000Z</time>
      </trkpt>
      <trkpt lat="43.61119" lon="6.02847">
        <ele>608</ele>
        <time>2026-02-10T13:16:52.000Z</time>
      </trkpt>
      <trkpt lat="43.61118" lon="6.02845">
        <ele>608</ele>
        <time>2026-02-10T13:16:54.000Z</time>
      </trkpt>
      <trkpt lat="43.61117" lon="6.02844">
        <ele>608</ele>
        <time>2026-02-10T13:16:55.000Z</time>
      </trkpt>
      <trkpt lat="43.61116" lon="6.02843">
        <ele>608</ele>
        <time>2026-02-10T13:16:56.000Z</time>
      </trkpt>
      <trkpt lat="43.61115" lon="6.02842">
        <ele>608</ele>
        <time>2026-02-10T13:16:57.000Z</time>
      </trkpt>
      <trkpt lat="43.61114" lon="6.02841">
        <ele>608</ele>
        <time>2026-02-10T13:16:58.000Z</time>
      </trkpt>
      <trkpt lat="43.61113" lon="6.02841">
        <ele>608</ele>
        <time>2026-02-10T13:16:59.000Z</time>
      </trkpt>
      <trkpt lat="43.61112" lon="6.0284">
        <ele>608</ele>
        <time>2026-02-10T13:17:00.000Z</time>
      </trkpt>
      <trkpt lat="43.61111" lon="6.02839">
        <ele>608</ele>
        <time>2026-02-10T13:17:01.000Z</time>
      </trkpt>
      <trkpt lat="43.6111" lon="6.02838">
        <ele>608</ele>
        <time>2026-02-10T13:17:02.000Z</time>
      </trkpt>
      <trkpt lat="43.61109" lon="6.02837">
        <ele>608</ele>
        <time>2026-02-10T13:17:03.000Z</time>
      </trkpt>
      <trkpt lat="43.61108" lon="6.02836">
        <ele>608</ele>
        <time>2026-02-10T13:17:04.000Z</time>
      </trkpt>
      <trkpt lat="43.61108" lon="6.02834">
        <ele>608</ele>
        <time>2026-02-10T13:17:06.000Z</time>
      </trkpt>
      <trkpt lat="43.61107" lon="6.02833">
        <ele>608</ele>
        <time>2026-02-10T13:17:07.000Z</time>
      </trkpt>
      <trkpt lat="43.61106" lon="6.02832">
        <ele>608</ele>
        <time>2026-02-10T13:17:08.000Z</time>
      </trkpt>
      <trkpt lat="43.61105" lon="6.0283">
        <ele>608</ele>
        <time>2026-02-10T13:17:10.000Z</time>
      </trkpt>
      <trkpt lat="43.61104" lon="6.02829">
        <ele>608</ele>
        <time>2026-02-10T13:17:11.000Z</time>
      </trkpt>
      <trkpt lat="43.61104" lon="6.02828">
        <ele>608</ele>
        <time>2026-02-10T13:17:12.000Z</time>
      </trkpt>
      <trkpt lat="43.61103" lon="6.02827">
        <ele>608</ele>
        <time>2026-02-10T13:17:13.000Z</time>
      </trkpt>
      <trkpt lat="43.61102" lon="6.02825">
        <ele>608</ele>
        <time>2026-02-10T13:17:15.000Z</time>
      </trkpt>
      <trkpt lat="43.61101" lon="6.02825">
        <ele>608</ele>
        <time>2026-02-10T13:17:16.000Z</time>
      </trkpt>
      <trkpt lat="43.611" lon="6.02824">
        <ele>608</ele>
        <time>2026-02-10T13:17:17.000Z</time>
      </trkpt>
      <trkpt lat="43.611" lon="6.02824">
        <ele>608</ele>
        <time>2026-02-10T13:17:17.000Z</time>
      </trkpt>
      <trkpt lat="43.61099" lon="6.02823">
        <ele>608</ele>
        <time>2026-02-10T13:17:18.000Z</time>
      </trkpt>
      <trkpt lat="43.61099" lon="6.02823">
        <ele>608</ele>
        <time>2026-02-10T13:17:18.000Z</time>
      </trkpt>
      <trkpt lat="43.61097" lon="6.02823">
        <ele>608</ele>
        <time>2026-02-10T13:17:20.000Z</time>
      </trkpt>
      <trkpt lat="43.61097" lon="6.02823">
        <ele>608</ele>
        <time>2026-02-10T13:17:20.000Z</time>
      </trkpt>
      <trkpt lat="43.61097" lon="6.02823">
        <ele>608</ele>
        <time>2026-02-10T13:17:20.000Z</time>
      </trkpt>
      <trkpt lat="43.61097" lon="6.02823">
        <ele>608</ele>
        <time>2026-02-10T13:17:20.000Z</time>
      </trkpt>
      <trkpt lat="43.61096" lon="6.02823">
        <ele>608</ele>
        <time>2026-02-10T13:17:21.000Z</time>
      </trkpt>
      <trkpt lat="43.61096" lon="6.02823">
        <ele>608</ele>
        <time>2026-02-10T13:17:21.000Z</time>
      </trkpt>
      <trkpt lat="43.61095" lon="6.02823">
        <ele>608</ele>
        <time>2026-02-10T13:17:22.000Z</time>
      </trkpt>
      <trkpt lat="43.61095" lon="6.02823">
        <ele>608</ele>
        <time>2026-02-10T13:17:22.000Z</time>
      </trkpt>
      <trkpt lat="43.61094" lon="6.02822">
        <ele>608</ele>
        <time>2026-02-10T13:17:23.000Z</time>
      </trkpt>
      <trkpt lat="43.61093" lon="6.02822">
        <ele>608</ele>
        <time>2026-02-10T13:17:24.000Z</time>
      </trkpt>
      <trkpt lat="43.61092" lon="6.02822">
        <ele>608</ele>
        <time>2026-02-10T13:17:25.000Z</time>
      </trkpt>
      <trkpt lat="43.61091" lon="6.02822">
        <ele>608</ele>
        <time>2026-02-10T13:17:26.000Z</time>
      </trkpt>
      <trkpt lat="43.6109" lon="6.02823">
        <ele>608</ele>
        <time>2026-02-10T13:17:27.000Z</time>
      </trkpt>
      <trkpt lat="43.61089" lon="6.02824">
        <ele>608</ele>
        <time>2026-02-10T13:17:28.000Z</time>
      </trkpt>
      <trkpt lat="43.61089" lon="6.02824">
        <ele>608</ele>
        <time>2026-02-10T13:17:28.000Z</time>
      </trkpt>
      <trkpt lat="43.61089" lon="6.02824">
        <ele>608</ele>
        <time>2026-02-10T13:17:28.000Z</time>
      </trkpt>
      <trkpt lat="43.61089" lon="6.02823">
        <ele>608</ele>
        <time>2026-02-10T13:17:29.000Z</time>
      </trkpt>
      <trkpt lat="43.61088" lon="6.02823">
        <ele>608</ele>
        <time>2026-02-10T13:17:30.000Z</time>
      </trkpt>
      <trkpt lat="43.61088" lon="6.02822">
        <ele>608</ele>
        <time>2026-02-10T13:17:31.000Z</time>
      </trkpt>
      <trkpt lat="43.61088" lon="6.02822">
        <ele>608</ele>
        <time>2026-02-10T13:17:31.000Z</time>
      </trkpt>
      <trkpt lat="43.61087" lon="6.02821">
        <ele>608</ele>
        <time>2026-02-10T13:17:32.000Z</time>
      </trkpt>
      <trkpt lat="43.61087" lon="6.02821">
        <ele>608</ele>
        <time>2026-02-10T13:17:32.000Z</time>
      </trkpt>
      <trkpt lat="43.61087" lon="6.0282">
        <ele>608</ele>
        <time>2026-02-10T13:17:33.000Z</time>
      </trkpt>
      <trkpt lat="43.61086" lon="6.0282">
        <ele>608</ele>
        <time>2026-02-10T13:17:34.000Z</time>
      </trkpt>
      <trkpt lat="43.61086" lon="6.0282">
        <ele>608</ele>
        <time>2026-02-10T13:17:34.000Z</time>
      </trkpt>
      <trkpt lat="43.61085" lon="6.02819">
        <ele>608</ele>
        <time>2026-02-10T13:17:35.000Z</time>
      </trkpt>
      <trkpt lat="43.61085" lon="6.02819">
        <ele>608</ele>
        <time>2026-02-10T13:17:35.000Z</time>
      </trkpt>
      <trkpt lat="43.61085" lon="6.02819">
        <ele>608</ele>
        <time>2026-02-10T13:17:35.000Z</time>
      </trkpt>
      <trkpt lat="43.61085" lon="6.0282">
        <ele>608</ele>
        <time>2026-02-10T13:17:36.000Z</time>
      </trkpt>
      <trkpt lat="43.61085" lon="6.02819">
        <ele>608</ele>
        <time>2026-02-10T13:17:37.000Z</time>
      </trkpt>
      <trkpt lat="43.61085" lon="6.02819">
        <ele>608</ele>
        <time>2026-02-10T13:17:37.000Z</time>
      </trkpt>
      <trkpt lat="43.61084" lon="6.02819">
        <ele>608</ele>
        <time>2026-02-10T13:17:38.000Z</time>
      </trkpt>
      <trkpt lat="43.61084" lon="6.02819">
        <ele>608</ele>
        <time>2026-02-10T13:17:38.000Z</time>
      </trkpt>
      <trkpt lat="43.61084" lon="6.02819">
        <ele>608</ele>
        <time>2026-02-10T13:17:38.000Z</time>
      </trkpt>
      <trkpt lat="43.61084" lon="6.02819">
        <ele>608</ele>
        <time>2026-02-10T13:17:38.000Z</time>
      </trkpt>
      <trkpt lat="43.61084" lon="6.02819">
        <ele>608</ele>
        <time>2026-02-10T13:17:38.000Z</time>
      </trkpt>
      <trkpt lat="43.61084" lon="6.02819">
        <ele>608</ele>
        <time>2026-02-10T13:17:38.000Z</time>
      </trkpt>
      <trkpt lat="43.61084" lon="6.0282">
        <ele>608</ele>
        <time>2026-02-10T13:17:39.000Z</time>
      </trkpt>
      <trkpt lat="43.61084" lon="6.02819">
        <ele>608</ele>
        <time>2026-02-10T13:17:40.000Z</time>
      </trkpt>
      <trkpt lat="43.61084" lon="6.02819">
        <ele>608</ele>
        <time>2026-02-10T13:17:40.000Z</time>
      </trkpt>
      <trkpt lat="43.61084" lon="6.0282">
        <ele>608</ele>
        <time>2026-02-10T13:17:41.000Z</time>
      </trkpt>
      <trkpt lat="43.61084" lon="6.02819">
        <ele>608</ele>
        <time>2026-02-10T13:17:42.000Z</time>
      </trkpt>
      <trkpt lat="43.61084" lon="6.0282">
        <ele>608</ele>
        <time>2026-02-10T13:17:43.000Z</time>
      </trkpt>
      <trkpt lat="43.61084" lon="6.0282">
        <ele>608</ele>
        <time>2026-02-10T13:17:43.000Z</time>
      </trkpt>
      <trkpt lat="43.61084" lon="6.0282">
        <ele>608</ele>
        <time>2026-02-10T13:17:43.000Z</time>
      </trkpt>
      <trkpt lat="43.61084" lon="6.0282">
        <ele>608</ele>
        <time>2026-02-10T13:17:43.000Z</time>
      </trkpt>
      <trkpt lat="43.61083" lon="6.0282">
        <ele>608</ele>
        <time>2026-02-10T13:17:44.000Z</time>
      </trkpt>
      <trkpt lat="43.61083" lon="6.0282">
        <ele>608</ele>
        <time>2026-02-10T13:17:44.000Z</time>
      </trkpt>
      <trkpt lat="43.61083" lon="6.0282">
        <ele>608</ele>
        <time>2026-02-10T13:17:44.000Z</time>
      </trkpt>
      <trkpt lat="43.61083" lon="6.0282">
        <ele>608</ele>
        <time>2026-02-10T13:17:44.000Z</time>
      </trkpt>
      <trkpt lat="43.61083" lon="6.0282">
        <ele>608</ele>
        <time>2026-02-10T13:17:44.000Z</time>
      </trkpt>
      <trkpt lat="43.61082" lon="6.0282">
        <ele>608</ele>
        <time>2026-02-10T13:17:45.000Z</time>
      </trkpt>
      <trkpt lat="43.61082" lon="6.0282">
        <ele>608</ele>
        <time>2026-02-10T13:17:45.000Z</time>
      </trkpt>
      <trkpt lat="43.61082" lon="6.0282">
        <ele>608</ele>
        <time>2026-02-10T13:17:45.000Z</time>
      </trkpt>
      <trkpt lat="43.61082" lon="6.0282">
        <ele>608</ele>
        <time>2026-02-10T13:17:45.000Z</time>
      </trkpt>
      <trkpt lat="43.61082" lon="6.0282">
        <ele>608</ele>
        <time>2026-02-10T13:17:45.000Z</time>
      </trkpt>
      <trkpt lat="43.61082" lon="6.0282">
        <ele>608</ele>
        <time>2026-02-10T13:17:45.000Z</time>
      </trkpt>
      <trkpt lat="43.61082" lon="6.02821">
        <ele>608</ele>
        <time>2026-02-10T13:17:46.000Z</time>
      </trkpt>
      <trkpt lat="43.61082" lon="6.02821">
        <ele>608</ele>
        <time>2026-02-10T13:17:46.000Z</time>
      </trkpt>
      <trkpt lat="43.61082" lon="6.02821">
        <ele>608</ele>
        <time>2026-02-10T13:17:46.000Z</time>
      </trkpt>
      <trkpt lat="43.61082" lon="6.02821">
        <ele>608</ele>
        <time>2026-02-10T13:17:46.000Z</time>
      </trkpt>
      <trkpt lat="43.61082" lon="6.02821">
        <ele>608</ele>
        <time>2026-02-10T13:17:46.000Z</time>
      </trkpt>
      <trkpt lat="43.61082" lon="6.02821">
        <ele>608</ele>
        <time>2026-02-10T13:17:46.000Z</time>
      </trkpt>
      <trkpt lat="43.61083" lon="6.02821">
        <ele>608</ele>
        <time>2026-02-10T13:17:47.000Z</time>
      </trkpt>
      <trkpt lat="43.61083" lon="6.02821">
        <ele>608</ele>
        <time>2026-02-10T13:17:47.000Z</time>
      </trkpt>
      <trkpt lat="43.61083" lon="6.02821">
        <ele>608</ele>
        <time>2026-02-10T13:17:47.000Z</time>
      </trkpt>
      <trkpt lat="43.61083" lon="6.02821">
        <ele>608</ele>
        <time>2026-02-10T13:17:47.000Z</time>
      </trkpt>
      <trkpt lat="43.61082" lon="6.02821">
        <ele>608</ele>
        <time>2026-02-10T13:17:48.000Z</time>
      </trkpt>
      <trkpt lat="43.61082" lon="6.02821">
        <ele>608</ele>
        <time>2026-02-10T13:17:48.000Z</time>
      </trkpt>
      <trkpt lat="43.61082" lon="6.02821">
        <ele>608</ele>
        <time>2026-02-10T13:17:48.000Z</time>
      </trkpt>
      <trkpt lat="43.61082" lon="6.02821">
        <ele>608</ele>
        <time>2026-02-10T13:17:48.000Z</time>
      </trkpt>
      <trkpt lat="43.61082" lon="6.02821">
        <ele>608</ele>
        <time>2026-02-10T13:17:48.000Z</time>
      </trkpt>
      <trkpt lat="43.61082" lon="6.02821">
        <ele>608</ele>
        <time>2026-02-10T13:17:48.000Z</time>
      </trkpt>
      <trkpt lat="43.61082" lon="6.0282">
        <ele>608</ele>
        <time>2026-02-10T13:17:49.000Z</time>
      </trkpt>
      <trkpt lat="43.61083" lon="6.0282">
        <ele>608</ele>
        <time>2026-02-10T13:17:50.000Z</time>
      </trkpt>
      <trkpt lat="43.61083" lon="6.0282">
        <ele>608</ele>
        <time>2026-02-10T13:17:50.000Z</time>
      </trkpt>
      <trkpt lat="43.61083" lon="6.0282">
        <ele>608</ele>
        <time>2026-02-10T13:17:50.000Z</time>
      </trkpt>
      <trkpt lat="43.61083" lon="6.0282">
        <ele>608</ele>
        <time>2026-02-10T13:17:50.000Z</time>
      </trkpt>
      <trkpt lat="43.61083" lon="6.0282">
        <ele>608</ele>
        <time>2026-02-10T13:17:50.000Z</time>
      </trkpt>
      <trkpt lat="43.61083" lon="6.0282">
        <ele>608</ele>
        <time>2026-02-10T13:17:50.000Z</time>
      </trkpt>
      <trkpt lat="43.61083" lon="6.0282">
        <ele>608</ele>
        <time>2026-02-10T13:17:50.000Z</time>
      </trkpt>
      <trkpt lat="43.61083" lon="6.0282">
        <ele>608</ele>
        <time>2026-02-10T13:17:50.000Z</time>
      </trkpt>
      <trkpt lat="43.61083" lon="6.0282">
        <ele>608</ele>
        <time>2026-02-10T13:17:50.000Z</time>
      </trkpt>
      <trkpt lat="43.61083" lon="6.0282">
        <ele>608</ele>
        <time>2026-02-10T13:17:50.000Z</time>
      </trkpt>
      <trkpt lat="43.61083" lon="6.0282">
        <ele>608</ele>
        <time>2026-02-10T13:17:50.000Z</time>
      </trkpt>
      <trkpt lat="43.61083" lon="6.02819">
        <ele>608</ele>
        <time>2026-02-10T13:17:51.000Z</time>
      </trkpt>
      <trkpt lat="43.61083" lon="6.02819">
        <ele>608</ele>
        <time>2026-02-10T13:17:51.000Z</time>
      </trkpt>
      <trkpt lat="43.61083" lon="6.02819">
        <ele>608</ele>
        <time>2026-02-10T13:17:51.000Z</time>
      </trkpt>
      <trkpt lat="43.61083" lon="6.02818">
        <ele>608</ele>
        <time>2026-02-10T13:17:52.000Z</time>
      </trkpt>
      <trkpt lat="43.61083" lon="6.02818">
        <ele>608</ele>
        <time>2026-02-10T13:17:52.000Z</time>
      </trkpt>
      <trkpt lat="43.61083" lon="6.02817">
        <ele>608</ele>
        <time>2026-02-10T13:17:53.000Z</time>
      </trkpt>
      <trkpt lat="43.61082" lon="6.02817">
        <ele>608</ele>
        <time>2026-02-10T13:17:54.000Z</time>
      </trkpt>
      <trkpt lat="43.61082" lon="6.02817">
        <ele>608</ele>
        <time>2026-02-10T13:17:54.000Z</time>
      </trkpt>
      <trkpt lat="43.61082" lon="6.02817">
        <ele>608</ele>
        <time>2026-02-10T13:17:54.000Z</time>
      </trkpt>
      <trkpt lat="43.61082" lon="6.02817">
        <ele>608</ele>
        <time>2026-02-10T13:17:54.000Z</time>
      </trkpt>
      <trkpt lat="43.61082" lon="6.02818">
        <ele>608</ele>
        <time>2026-02-10T13:17:55.000Z</time>
      </trkpt>
      <trkpt lat="43.61082" lon="6.02817">
        <ele>608</ele>
        <time>2026-02-10T13:17:56.000Z</time>
      </trkpt>
      <trkpt lat="43.61082" lon="6.02817">
        <ele>608</ele>
        <time>2026-02-10T13:17:56.000Z</time>
      </trkpt>
      <trkpt lat="43.61082" lon="6.02817">
        <ele>608</ele>
        <time>2026-02-10T13:17:56.000Z</time>
      </trkpt>
      <trkpt lat="43.61082" lon="6.02817">
        <ele>608</ele>
        <time>2026-02-10T13:17:56.000Z</time>
      </trkpt>
      <trkpt lat="43.61082" lon="6.02817">
        <ele>608</ele>
        <time>2026-02-10T13:17:56.000Z</time>
      </trkpt>
      <trkpt lat="43.61082" lon="6.02817">
        <ele>608</ele>
        <time>2026-02-10T13:17:56.000Z</time>
      </trkpt>
      <trkpt lat="43.61082" lon="6.02817">
        <ele>608</ele>
        <time>2026-02-10T13:17:56.000Z</time>
      </trkpt>
      <trkpt lat="43.61082" lon="6.02817">
        <ele>608</ele>
        <time>2026-02-10T13:17:56.000Z</time>
      </trkpt>
      <trkpt lat="43.61082" lon="6.02817">
        <ele>608</ele>
        <time>2026-02-10T13:17:56.000Z</time>
      </trkpt>
      <trkpt lat="43.61082" lon="6.02817">
        <ele>608</ele>
        <time>2026-02-10T13:17:56.000Z</time>
      </trkpt>
      <trkpt lat="43.61082" lon="6.02817">
        <ele>608</ele>
        <time>2026-02-10T13:17:56.000Z</time>
      </trkpt>
      <trkpt lat="43.61082" lon="6.02817">
        <ele>608</ele>
        <time>2026-02-10T13:17:56.000Z</time>
      </trkpt>
      <trkpt lat="43.61082" lon="6.02817">
        <ele>608</ele>
        <time>2026-02-10T13:17:56.000Z</time>
      </trkpt>
      <trkpt lat="43.61082" lon="6.02817">
        <ele>608</ele>
        <time>2026-02-10T13:17:56.000Z</time>
      </trkpt>
      <trkpt lat="43.61082" lon="6.02817">
        <ele>608</ele>
        <time>2026-02-10T13:17:56.000Z</time>
      </trkpt>
      <trkpt lat="43.61082" lon="6.02817">
        <ele>608</ele>
        <time>2026-02-10T13:17:56.000Z</time>
      </trkpt>
      <trkpt lat="43.61082" lon="6.02817">
        <ele>608</ele>
        <time>2026-02-10T13:17:56.000Z</time>
      </trkpt>
      <trkpt lat="43.61082" lon="6.02817">
        <ele>608</ele>
        <time>2026-02-10T13:17:56.000Z</time>
      </trkpt>
      <trkpt lat="43.61082" lon="6.02818">
        <ele>608</ele>
        <time>2026-02-10T13:17:57.000Z</time>
      </trkpt>
      <trkpt lat="43.61082" lon="6.02818">
        <ele>608</ele>
        <time>2026-02-10T13:17:57.000Z</time>
      </trkpt>
      <trkpt lat="43.61081" lon="6.02818">
        <ele>608</ele>
        <time>2026-02-10T13:17:58.000Z</time>
      </trkpt>
      <trkpt lat="43.61081" lon="6.02818">
        <ele>608</ele>
        <time>2026-02-10T13:17:58.000Z</time>
      </trkpt>
      <trkpt lat="43.61081" lon="6.02818">
        <ele>608</ele>
        <time>2026-02-10T13:17:58.000Z</time>
      </trkpt>
      <trkpt lat="43.61081" lon="6.02818">
        <ele>608</ele>
        <time>2026-02-10T13:17:58.000Z</time>
      </trkpt>
      <trkpt lat="43.61081" lon="6.02818">
        <ele>608</ele>
        <time>2026-02-10T13:17:58.000Z</time>
      </trkpt>
      <trkpt lat="43.61081" lon="6.02819">
        <ele>608</ele>
        <time>2026-02-10T13:17:59.000Z</time>
      </trkpt>
      <trkpt lat="43.61081" lon="6.02819">
        <ele>608</ele>
        <time>2026-02-10T13:17:59.000Z</time>
      </trkpt>
      <trkpt lat="43.61081" lon="6.02819">
        <ele>608</ele>
        <time>2026-02-10T13:17:59.000Z</time>
      </trkpt>
      <trkpt lat="43.61081" lon="6.02819">
        <ele>608</ele>
        <time>2026-02-10T13:17:59.000Z</time>
      </trkpt>
      <trkpt lat="43.61081" lon="6.02819">
        <ele>608</ele>
        <time>2026-02-10T13:17:59.000Z</time>
      </trkpt>
      <trkpt lat="43.61081" lon="6.02819">
        <ele>608</ele>
        <time>2026-02-10T13:17:59.000Z</time>
      </trkpt>
      <trkpt lat="43.61081" lon="6.02819">
        <ele>608</ele>
        <time>2026-02-10T13:17:59.000Z</time>
      </trkpt>
      <trkpt lat="43.61081" lon="6.0282">
        <ele>608</ele>
        <time>2026-02-10T13:18:00.000Z</time>
      </trkpt>
      <trkpt lat="43.61081" lon="6.0282">
        <ele>608</ele>
        <time>2026-02-10T13:18:00.000Z</time>
      </trkpt>
      <trkpt lat="43.61081" lon="6.0282">
        <ele>608</ele>
        <time>2026-02-10T13:18:00.000Z</time>
      </trkpt>
      <trkpt lat="43.61081" lon="6.0282">
        <ele>608</ele>
        <time>2026-02-10T13:18:00.000Z</time>
      </trkpt>
      <trkpt lat="43.61081" lon="6.0282">
        <ele>608</ele>
        <time>2026-02-10T13:18:00.000Z</time>
      </trkpt>
      <trkpt lat="43.61081" lon="6.0282">
        <ele>608</ele>
        <time>2026-02-10T13:18:00.000Z</time>
      </trkpt>
      <trkpt lat="43.61081" lon="6.0282">
        <ele>608</ele>
        <time>2026-02-10T13:18:00.000Z</time>
      </trkpt>
      <trkpt lat="43.61081" lon="6.0282">
        <ele>608</ele>
        <time>2026-02-10T13:18:00.000Z</time>
      </trkpt>
      <trkpt lat="43.61081" lon="6.02821">
        <ele>608</ele>
        <time>2026-02-10T13:18:01.000Z</time>
      </trkpt>
      <trkpt lat="43.61081" lon="6.02821">
        <ele>608</ele>
        <time>2026-02-10T13:18:01.000Z</time>
      </trkpt>
      <trkpt lat="43.61081" lon="6.02821">
        <ele>608</ele>
        <time>2026-02-10T13:18:01.000Z</time>
      </trkpt>
      <trkpt lat="43.61081" lon="6.02821">
        <ele>608</ele>
        <time>2026-02-10T13:18:01.000Z</time>
      </trkpt>
      <trkpt lat="43.61081" lon="6.02821">
        <ele>608</ele>
        <time>2026-02-10T13:18:01.000Z</time>
      </trkpt>
      <trkpt lat="43.61081" lon="6.02821">
        <ele>608</ele>
        <time>2026-02-10T13:18:01.000Z</time>
      </trkpt>
      <trkpt lat="43.61081" lon="6.02821">
        <ele>608</ele>
        <time>2026-02-10T13:18:01.000Z</time>
      </trkpt>
      <trkpt lat="43.61081" lon="6.02822">
        <ele>608</ele>
        <time>2026-02-10T13:18:02.000Z</time>
      </trkpt>
      <trkpt lat="43.61081" lon="6.02822">
        <ele>608</ele>
        <time>2026-02-10T13:18:02.000Z</time>
      </trkpt>
      <trkpt lat="43.61081" lon="6.02822">
        <ele>608</ele>
        <time>2026-02-10T13:18:02.000Z</time>
      </trkpt>
      <trkpt lat="43.61081" lon="6.02822">
        <ele>608</ele>
        <time>2026-02-10T13:18:02.000Z</time>
      </trkpt>
      <trkpt lat="43.61081" lon="6.02822">
        <ele>608</ele>
        <time>2026-02-10T13:18:02.000Z</time>
      </trkpt>
      <trkpt lat="43.61081" lon="6.02822">
        <ele>608</ele>
        <time>2026-02-10T13:18:02.000Z</time>
      </trkpt>
      <trkpt lat="43.61081" lon="6.02822">
        <ele>608</ele>
        <time>2026-02-10T13:18:02.000Z</time>
      </trkpt>
      <trkpt lat="43.61081" lon="6.02822">
        <ele>608</ele>
        <time>2026-02-10T13:18:02.000Z</time>
      </trkpt>
      <trkpt lat="43.61081" lon="6.02823">
        <ele>608</ele>
        <time>2026-02-10T13:18:03.000Z</time>
      </trkpt>
      <trkpt lat="43.61081" lon="6.02823">
        <ele>608</ele>
        <time>2026-02-10T13:18:03.000Z</time>
      </trkpt>
      <trkpt lat="43.61081" lon="6.02823">
        <ele>608</ele>
        <time>2026-02-10T13:18:03.000Z</time>
      </trkpt>
      <trkpt lat="43.61081" lon="6.02823">
        <ele>608</ele>
        <time>2026-02-10T13:18:03.000Z</time>
      </trkpt>
      <trkpt lat="43.61081" lon="6.02823">
        <ele>608</ele>
        <time>2026-02-10T13:18:03.000Z</time>
      </trkpt>
      <trkpt lat="43.61081" lon="6.02823">
        <ele>608</ele>
        <time>2026-02-10T13:18:03.000Z</time>
      </trkpt>
      <trkpt lat="43.61081" lon="6.02823">
        <ele>608</ele>
        <time>2026-02-10T13:18:03.000Z</time>
      </trkpt>
      <trkpt lat="43.61081" lon="6.02823">
        <ele>608</ele>
        <time>2026-02-10T13:18:03.000Z</time>
      </trkpt>
      <trkpt lat="43.61081" lon="6.02823">
        <ele>608</ele>
        <time>2026-02-10T13:18:03.000Z</time>
      </trkpt>
      <trkpt lat="43.61081" lon="6.02823">
        <ele>608</ele>
        <time>2026-02-10T13:18:03.000Z</time>
      </trkpt>
      <trkpt lat="43.61081" lon="6.02823">
        <ele>608</ele>
        <time>2026-02-10T13:18:03.000Z</time>
      </trkpt>
      <trkpt lat="43.61081" lon="6.02823">
        <ele>608</ele>
        <time>2026-02-10T13:18:03.000Z</time>
      </trkpt>
      <trkpt lat="43.61081" lon="6.02823">
        <ele>608</ele>
        <time>2026-02-10T13:18:03.000Z</time>
      </trkpt>
      <trkpt lat="43.61081" lon="6.02823">
        <ele>608</ele>
        <time>2026-02-10T13:18:03.000Z</time>
      </trkpt>
      <trkpt lat="43.61081" lon="6.02823">
        <ele>608</ele>
        <time>2026-02-10T13:18:03.000Z</time>
      </trkpt>
      <trkpt lat="43.61081" lon="6.02824">
        <ele>608</ele>
        <time>2026-02-10T13:18:04.000Z</time>
      </trkpt>
      <trkpt lat="43.61081" lon="6.02823">
        <ele>608</ele>
        <time>2026-02-10T13:18:05.000Z</time>
      </trkpt>
      <trkpt lat="43.61081" lon="6.02823">
        <ele>608</ele>
        <time>2026-02-10T13:18:05.000Z</time>
      </trkpt>
      <trkpt lat="43.61081" lon="6.02823">
        <ele>608</ele>
        <time>2026-02-10T13:18:05.000Z</time>
      </trkpt>
      <trkpt lat="43.61081" lon="6.02823">
        <ele>608</ele>
        <time>2026-02-10T13:18:05.000Z</time>
      </trkpt>
      <trkpt lat="43.61081" lon="6.02823">
        <ele>608</ele>
        <time>2026-02-10T13:18:05.000Z</time>
      </trkpt>
      <trkpt lat="43.61081" lon="6.02823">
        <ele>608</ele>
        <time>2026-02-10T13:18:05.000Z</time>
      </trkpt>
      <trkpt lat="43.61081" lon="6.02822">
        <ele>608</ele>
        <time>2026-02-10T13:18:06.000Z</time>
      </trkpt>
      <trkpt lat="43.61081" lon="6.02822">
        <ele>608</ele>
        <time>2026-02-10T13:18:06.000Z</time>
      </trkpt>
      <trkpt lat="43.61081" lon="6.02822">
        <ele>608</ele>
        <time>2026-02-10T13:18:06.000Z</time>
      </trkpt>
      <trkpt lat="43.61081" lon="6.02822">
        <ele>608</ele>
        <time>2026-02-10T13:18:06.000Z</time>
      </trkpt>
      <trkpt lat="43.61081" lon="6.02822">
        <ele>608</ele>
        <time>2026-02-10T13:18:06.000Z</time>
      </trkpt>
      <trkpt lat="43.61081" lon="6.02822">
        <ele>608</ele>
        <time>2026-02-10T13:18:06.000Z</time>
      </trkpt>
      <trkpt lat="43.61081" lon="6.02822">
        <ele>608</ele>
        <time>2026-02-10T13:18:06.000Z</time>
      </trkpt>
      <trkpt lat="43.61081" lon="6.02822">
        <ele>608</ele>
        <time>2026-02-10T13:18:06.000Z</time>
      </trkpt>
      <trkpt lat="43.61081" lon="6.02822">
        <ele>608</ele>
        <time>2026-02-10T13:18:06.000Z</time>
      </trkpt>
      <trkpt lat="43.61081" lon="6.02822">
        <ele>608</ele>
        <time>2026-02-10T13:18:06.000Z</time>
      </trkpt>
      <trkpt lat="43.61081" lon="6.02822">
        <ele>608</ele>
        <time>2026-02-10T13:18:06.000Z</time>
      </trkpt>
      <trkpt lat="43.61081" lon="6.02822">
        <ele>608</ele>
        <time>2026-02-10T13:18:06.000Z</time>
      </trkpt>
      <trkpt lat="43.61081" lon="6.02822">
        <ele>608</ele>
        <time>2026-02-10T13:18:06.000Z</time>
      </trkpt>
      <trkpt lat="43.61081" lon="6.02822">
        <ele>608</ele>
        <time>2026-02-10T13:18:06.000Z</time>
      </trkpt>
      <trkpt lat="43.61081" lon="6.02822">
        <ele>608</ele>
        <time>2026-02-10T13:18:06.000Z</time>
      </trkpt>
      <trkpt lat="43.61081" lon="6.02822">
        <ele>608</ele>
        <time>2026-02-10T13:18:06.000Z</time>
      </trkpt>
      <trkpt lat="43.61081" lon="6.02822">
        <ele>608</ele>
        <time>2026-02-10T13:18:06.000Z</time>
      </trkpt>
      <trkpt lat="43.61081" lon="6.02822">
        <ele>608</ele>
        <time>2026-02-10T13:18:06.000Z</time>
      </trkpt>
      <trkpt lat="43.61081" lon="6.02823">
        <ele>608</ele>
        <time>2026-02-10T13:18:07.000Z</time>
      </trkpt>
      <trkpt lat="43.61081" lon="6.02823">
        <ele>608</ele>
        <time>2026-02-10T13:18:07.000Z</time>
      </trkpt>
      <trkpt lat="43.61081" lon="6.02822">
        <ele>608</ele>
        <time>2026-02-10T13:18:08.000Z</time>
      </trkpt>
      <trkpt lat="43.61081" lon="6.02822">
        <ele>608</ele>
        <time>2026-02-10T13:18:08.000Z</time>
      </trkpt>
      <trkpt lat="43.61081" lon="6.02822">
        <ele>608</ele>
        <time>2026-02-10T13:18:08.000Z</time>
      </trkpt>
      <trkpt lat="43.61081" lon="6.02822">
        <ele>608</ele>
        <time>2026-02-10T13:18:08.000Z</time>
      </trkpt>
      <trkpt lat="43.61081" lon="6.02822">
        <ele>608</ele>
        <time>2026-02-10T13:18:08.000Z</time>
      </trkpt>
      <trkpt lat="43.61081" lon="6.02822">
        <ele>608</ele>
        <time>2026-02-10T13:18:08.000Z</time>
      </trkpt>
      <trkpt lat="43.61081" lon="6.02822">
        <ele>608</ele>
        <time>2026-02-10T13:18:08.000Z</time>
      </trkpt>
      <trkpt lat="43.61081" lon="6.02821">
        <ele>608</ele>
        <time>2026-02-10T13:18:09.000Z</time>
      </trkpt>
      <trkpt lat="43.61081" lon="6.02821">
        <ele>608</ele>
        <time>2026-02-10T13:18:09.000Z</time>
      </trkpt>
      <trkpt lat="43.61082" lon="6.02821">
        <ele>608</ele>
        <time>2026-02-10T13:18:10.000Z</time>
      </trkpt>
      <trkpt lat="43.61082" lon="6.02821">
        <ele>608</ele>
        <time>2026-02-10T13:18:10.000Z</time>
      </trkpt>
      <trkpt lat="43.61082" lon="6.02821">
        <ele>608</ele>
        <time>2026-02-10T13:18:10.000Z</time>
      </trkpt>
      <trkpt lat="43.61082" lon="6.02821">
        <ele>608</ele>
        <time>2026-02-10T13:18:10.000Z</time>
      </trkpt>
      <trkpt lat="43.61083" lon="6.02821">
        <ele>608</ele>
        <time>2026-02-10T13:18:11.000Z</time>
      </trkpt>
      <trkpt lat="43.61083" lon="6.02821">
        <ele>608</ele>
        <time>2026-02-10T13:18:11.000Z</time>
      </trkpt>
      <trkpt lat="43.61083" lon="6.0282">
        <ele>608</ele>
        <time>2026-02-10T13:18:12.000Z</time>
      </trkpt>
      <trkpt lat="43.61083" lon="6.0282">
        <ele>608</ele>
        <time>2026-02-10T13:18:12.000Z</time>
      </trkpt>
      <trkpt lat="43.61083" lon="6.0282">
        <ele>608</ele>
        <time>2026-02-10T13:18:12.000Z</time>
      </trkpt>
      <trkpt lat="43.61083" lon="6.0282">
        <ele>608</ele>
        <time>2026-02-10T13:18:12.000Z</time>
      </trkpt>
      <trkpt lat="43.61083" lon="6.0282">
        <ele>608</ele>
        <time>2026-02-10T13:18:12.000Z</time>
      </trkpt>
      <trkpt lat="43.61083" lon="6.0282">
        <ele>608</ele>
        <time>2026-02-10T13:18:12.000Z</time>
      </trkpt>
      <trkpt lat="43.61083" lon="6.02819">
        <ele>608</ele>
        <time>2026-02-10T13:18:13.000Z</time>
      </trkpt>
      <trkpt lat="43.61083" lon="6.02819">
        <ele>608</ele>
        <time>2026-02-10T13:18:13.000Z</time>
      </trkpt>
      <trkpt lat="43.61083" lon="6.02819">
        <ele>608</ele>
        <time>2026-02-10T13:18:13.000Z</time>
      </trkpt>
      <trkpt lat="43.61083" lon="6.02819">
        <ele>608</ele>
        <time>2026-02-10T13:18:13.000Z</time>
      </trkpt>
      <trkpt lat="43.61083" lon="6.02819">
        <ele>608</ele>
        <time>2026-02-10T13:18:13.000Z</time>
      </trkpt>
      <trkpt lat="43.61083" lon="6.0282">
        <ele>608</ele>
        <time>2026-02-10T13:18:14.000Z</time>
      </trkpt>
      <trkpt lat="43.61083" lon="6.0282">
        <ele>608</ele>
        <time>2026-02-10T13:18:14.000Z</time>
      </trkpt>
      <trkpt lat="43.61082" lon="6.0282">
        <ele>608</ele>
        <time>2026-02-10T13:18:15.000Z</time>
      </trkpt>
      <trkpt lat="43.61082" lon="6.0282">
        <ele>608</ele>
        <time>2026-02-10T13:18:15.000Z</time>
      </trkpt>
      <trkpt lat="43.61083" lon="6.02819">
        <ele>608</ele>
        <time>2026-02-10T13:18:16.000Z</time>
      </trkpt>
      <trkpt lat="43.61083" lon="6.02819">
        <ele>608</ele>
        <time>2026-02-10T13:18:16.000Z</time>
      </trkpt>
      <trkpt lat="43.61083" lon="6.02819">
        <ele>608</ele>
        <time>2026-02-10T13:18:16.000Z</time>
      </trkpt>
      <trkpt lat="43.61083" lon="6.02819">
        <ele>608</ele>
        <time>2026-02-10T13:18:16.000Z</time>
      </trkpt>
      <trkpt lat="43.61083" lon="6.02819">
        <ele>608</ele>
        <time>2026-02-10T13:18:16.000Z</time>
      </trkpt>
      <trkpt lat="43.61083" lon="6.0282">
        <ele>608</ele>
        <time>2026-02-10T13:18:17.000Z</time>
      </trkpt>
      <trkpt lat="43.61083" lon="6.0282">
        <ele>608</ele>
        <time>2026-02-10T13:18:17.000Z</time>
      </trkpt>
      <trkpt lat="43.61083" lon="6.02819">
        <ele>608</ele>
        <time>2026-02-10T13:18:18.000Z</time>
      </trkpt>
      <trkpt lat="43.61083" lon="6.02819">
        <ele>608</ele>
        <time>2026-02-10T13:18:18.000Z</time>
      </trkpt>
      <trkpt lat="43.61083" lon="6.02819">
        <ele>608</ele>
        <time>2026-02-10T13:18:18.000Z</time>
      </trkpt>
      <trkpt lat="43.61082" lon="6.02819">
        <ele>608</ele>
        <time>2026-02-10T13:18:19.000Z</time>
      </trkpt>
      <trkpt lat="43.61083" lon="6.02819">
        <ele>608</ele>
        <time>2026-02-10T13:18:20.000Z</time>
      </trkpt>
      <trkpt lat="43.61083" lon="6.02819">
        <ele>608</ele>
        <time>2026-02-10T13:18:20.000Z</time>
      </trkpt>
      <trkpt lat="43.61083" lon="6.02819">
        <ele>608</ele>
        <time>2026-02-10T13:18:20.000Z</time>
      </trkpt>
      <trkpt lat="43.61083" lon="6.02819">
        <ele>608</ele>
        <time>2026-02-10T13:18:20.000Z</time>
      </trkpt>
      <trkpt lat="43.61083" lon="6.02819">
        <ele>608</ele>
        <time>2026-02-10T13:18:20.000Z</time>
      </trkpt>
      <trkpt lat="43.61083" lon="6.02819">
        <ele>608</ele>
        <time>2026-02-10T13:18:20.000Z</time>
      </trkpt>
      <trkpt lat="43.61083" lon="6.02819">
        <ele>608</ele>
        <time>2026-02-10T13:18:20.000Z</time>
      </trkpt>
      <trkpt lat="43.61083" lon="6.0282">
        <ele>608</ele>
        <time>2026-02-10T13:18:21.000Z</time>
      </trkpt>
      <trkpt lat="43.61082" lon="6.0282">
        <ele>608</ele>
        <time>2026-02-10T13:18:22.000Z</time>
      </trkpt>
      <trkpt lat="43.61082" lon="6.0282">
        <ele>608</ele>
        <time>2026-02-10T13:18:22.000Z</time>
      </trkpt>
      <trkpt lat="43.61083" lon="6.0282">
        <ele>608</ele>
        <time>2026-02-10T13:18:23.000Z</time>
      </trkpt>
      <trkpt lat="43.61082" lon="6.02821">
        <ele>608</ele>
        <time>2026-02-10T13:18:24.000Z</time>
      </trkpt>
      <trkpt lat="43.61083" lon="6.02821">
        <ele>608</ele>
        <time>2026-02-10T13:18:25.000Z</time>
      </trkpt>
      <trkpt lat="43.61083" lon="6.02821">
        <ele>608</ele>
        <time>2026-02-10T13:18:25.000Z</time>
      </trkpt>
      <trkpt lat="43.61083" lon="6.0282">
        <ele>608</ele>
        <time>2026-02-10T13:18:26.000Z</time>
      </trkpt>
      <trkpt lat="43.61082" lon="6.02821">
        <ele>608</ele>
        <time>2026-02-10T13:18:27.000Z</time>
      </trkpt>
      <trkpt lat="43.61081" lon="6.02821">
        <ele>608</ele>
        <time>2026-02-10T13:18:28.000Z</time>
      </trkpt>
      <trkpt lat="43.61082" lon="6.0282">
        <ele>608</ele>
        <time>2026-02-10T13:18:29.000Z</time>
      </trkpt>
      <trkpt lat="43.61082" lon="6.0282">
        <ele>608</ele>
        <time>2026-02-10T13:18:29.000Z</time>
      </trkpt>
      <trkpt lat="43.61082" lon="6.0282">
        <ele>608</ele>
        <time>2026-02-10T13:18:29.000Z</time>
      </trkpt>
      <trkpt lat="43.61082" lon="6.0282">
        <ele>608</ele>
        <time>2026-02-10T13:18:29.000Z</time>
      </trkpt>
      <trkpt lat="43.61082" lon="6.0282">
        <ele>608</ele>
        <time>2026-02-10T13:18:29.000Z</time>
      </trkpt>
      <trkpt lat="43.61082" lon="6.0282">
        <ele>608</ele>
        <time>2026-02-10T13:18:29.000Z</time>
      </trkpt>
      <trkpt lat="43.61082" lon="6.0282">
        <ele>608</ele>
        <time>2026-02-10T13:18:29.000Z</time>
      </trkpt>
      <trkpt lat="43.61082" lon="6.0282">
        <ele>608</ele>
        <time>2026-02-10T13:18:29.000Z</time>
      </trkpt>
      <trkpt lat="43.61082" lon="6.0282">
        <ele>608</ele>
        <time>2026-02-10T13:18:29.000Z</time>
      </trkpt>
      <trkpt lat="43.61081" lon="6.0282">
        <ele>608</ele>
        <time>2026-02-10T13:18:30.000Z</time>
      </trkpt>
      <trkpt lat="43.61082" lon="6.0282">
        <ele>608</ele>
        <time>2026-02-10T13:18:31.000Z</time>
      </trkpt>
      <trkpt lat="43.61081" lon="6.02821">
        <ele>608</ele>
        <time>2026-02-10T13:18:32.000Z</time>
      </trkpt>
      <trkpt lat="43.61081" lon="6.02821">
        <ele>608</ele>
        <time>2026-02-10T13:18:32.000Z</time>
      </trkpt>
      <trkpt lat="43.61081" lon="6.02821">
        <ele>608</ele>
        <time>2026-02-10T13:18:32.000Z</time>
      </trkpt>
      <trkpt lat="43.61081" lon="6.02821">
        <ele>608</ele>
        <time>2026-02-10T13:18:32.000Z</time>
      </trkpt>
      <trkpt lat="43.61081" lon="6.02822">
        <ele>608</ele>
        <time>2026-02-10T13:18:33.000Z</time>
      </trkpt>
      <trkpt lat="43.61081" lon="6.02822">
        <ele>608</ele>
        <time>2026-02-10T13:18:33.000Z</time>
      </trkpt>
      <trkpt lat="43.6108" lon="6.02822">
        <ele>608</ele>
        <time>2026-02-10T13:18:34.000Z</time>
      </trkpt>
      <trkpt lat="43.6108" lon="6.02822">
        <ele>608</ele>
        <time>2026-02-10T13:18:34.000Z</time>
      </trkpt>
      <trkpt lat="43.6108" lon="6.02822">
        <ele>608</ele>
        <time>2026-02-10T13:18:34.000Z</time>
      </trkpt>
      <trkpt lat="43.6108" lon="6.02822">
        <ele>608</ele>
        <time>2026-02-10T13:18:34.000Z</time>
      </trkpt>
      <trkpt lat="43.6108" lon="6.02823">
        <ele>608</ele>
        <time>2026-02-10T13:18:35.000Z</time>
      </trkpt>
      <trkpt lat="43.6108" lon="6.02823">
        <ele>608</ele>
        <time>2026-02-10T13:18:35.000Z</time>
      </trkpt>
      <trkpt lat="43.61081" lon="6.02823">
        <ele>608</ele>
        <time>2026-02-10T13:18:36.000Z</time>
      </trkpt>
      <trkpt lat="43.61081" lon="6.02823">
        <ele>608</ele>
        <time>2026-02-10T13:18:36.000Z</time>
      </trkpt>
      <trkpt lat="43.61081" lon="6.02823">
        <ele>608</ele>
        <time>2026-02-10T13:18:36.000Z</time>
      </trkpt>
      <trkpt lat="43.61081" lon="6.02823">
        <ele>608</ele>
        <time>2026-02-10T13:18:36.000Z</time>
      </trkpt>
      <trkpt lat="43.61081" lon="6.02823">
        <ele>608</ele>
        <time>2026-02-10T13:18:36.000Z</time>
      </trkpt>
      <trkpt lat="43.61081" lon="6.02822">
        <ele>608</ele>
        <time>2026-02-10T13:18:37.000Z</time>
      </trkpt>
      <trkpt lat="43.61082" lon="6.02821">
        <ele>608</ele>
        <time>2026-02-10T13:18:38.000Z</time>
      </trkpt>
      <trkpt lat="43.61082" lon="6.02821">
        <ele>608</ele>
        <time>2026-02-10T13:18:38.000Z</time>
      </trkpt>
      <trkpt lat="43.61083" lon="6.0282">
        <ele>608</ele>
        <time>2026-02-10T13:18:39.000Z</time>
      </trkpt>
      <trkpt lat="43.61083" lon="6.0282">
        <ele>608</ele>
        <time>2026-02-10T13:18:39.000Z</time>
      </trkpt>
      <trkpt lat="43.61083" lon="6.0282">
        <ele>608</ele>
        <time>2026-02-10T13:18:39.000Z</time>
      </trkpt>
      <trkpt lat="43.61083" lon="6.0282">
        <ele>608</ele>
        <time>2026-02-10T13:18:39.000Z</time>
      </trkpt>
      <trkpt lat="43.61083" lon="6.0282">
        <ele>608</ele>
        <time>2026-02-10T13:18:39.000Z</time>
      </trkpt>
      <trkpt lat="43.61084" lon="6.02819">
        <ele>608</ele>
        <time>2026-02-10T13:18:40.000Z</time>
      </trkpt>
      <trkpt lat="43.61084" lon="6.02819">
        <ele>608</ele>
        <time>2026-02-10T13:18:40.000Z</time>
      </trkpt>
      <trkpt lat="43.61084" lon="6.02819">
        <ele>608</ele>
        <time>2026-02-10T13:18:40.000Z</time>
      </trkpt>
      <trkpt lat="43.61084" lon="6.02819">
        <ele>608</ele>
        <time>2026-02-10T13:18:40.000Z</time>
      </trkpt>
      <trkpt lat="43.61084" lon="6.02819">
        <ele>608</ele>
        <time>2026-02-10T13:18:40.000Z</time>
      </trkpt>
      <trkpt lat="43.61085" lon="6.02819">
        <ele>608</ele>
        <time>2026-02-10T13:18:41.000Z</time>
      </trkpt>
      <trkpt lat="43.61084" lon="6.02819">
        <ele>608</ele>
        <time>2026-02-10T13:18:42.000Z</time>
      </trkpt>
      <trkpt lat="43.61084" lon="6.0282">
        <ele>608</ele>
        <time>2026-02-10T13:18:43.000Z</time>
      </trkpt>
      <trkpt lat="43.61084" lon="6.0282">
        <ele>608</ele>
        <time>2026-02-10T13:18:43.000Z</time>
      </trkpt>
      <trkpt lat="43.61084" lon="6.0282">
        <ele>608</ele>
        <time>2026-02-10T13:18:43.000Z</time>
      </trkpt>
      <trkpt lat="43.61084" lon="6.0282">
        <ele>608</ele>
        <time>2026-02-10T13:18:43.000Z</time>
      </trkpt>
      <trkpt lat="43.61083" lon="6.0282">
        <ele>608</ele>
        <time>2026-02-10T13:18:44.000Z</time>
      </trkpt>
      <trkpt lat="43.61083" lon="6.0282">
        <ele>608</ele>
        <time>2026-02-10T13:18:44.000Z</time>
      </trkpt>
      <trkpt lat="43.61083" lon="6.0282">
        <ele>608</ele>
        <time>2026-02-10T13:18:44.000Z</time>
      </trkpt>
      <trkpt lat="43.61083" lon="6.0282">
        <ele>608</ele>
        <time>2026-02-10T13:18:44.000Z</time>
      </trkpt>
      <trkpt lat="43.61083" lon="6.0282">
        <ele>608</ele>
        <time>2026-02-10T13:18:44.000Z</time>
      </trkpt>
      <trkpt lat="43.61083" lon="6.0282">
        <ele>608</ele>
        <time>2026-02-10T13:18:44.000Z</time>
      </trkpt>
      <trkpt lat="43.61083" lon="6.02821">
        <ele>608</ele>
        <time>2026-02-10T13:18:45.000Z</time>
      </trkpt>
      <trkpt lat="43.61082" lon="6.02821">
        <ele>608</ele>
        <time>2026-02-10T13:18:46.000Z</time>
      </trkpt>
      <trkpt lat="43.61082" lon="6.02821">
        <ele>608</ele>
        <time>2026-02-10T13:18:46.000Z</time>
      </trkpt>
      <trkpt lat="43.61082" lon="6.02821">
        <ele>608</ele>
        <time>2026-02-10T13:18:46.000Z</time>
      </trkpt>
      <trkpt lat="43.61082" lon="6.02821">
        <ele>608</ele>
        <time>2026-02-10T13:18:46.000Z</time>
      </trkpt>
      <trkpt lat="43.61082" lon="6.02821">
        <ele>608</ele>
        <time>2026-02-10T13:18:46.000Z</time>
      </trkpt>
      <trkpt lat="43.61082" lon="6.02821">
        <ele>608</ele>
        <time>2026-02-10T13:18:46.000Z</time>
      </trkpt>
      <trkpt lat="43.61082" lon="6.02821">
        <ele>608</ele>
        <time>2026-02-10T13:18:46.000Z</time>
      </trkpt>
      <trkpt lat="43.61082" lon="6.02821">
        <ele>608</ele>
        <time>2026-02-10T13:18:46.000Z</time>
      </trkpt>
      <trkpt lat="43.61081" lon="6.02821">
        <ele>608</ele>
        <time>2026-02-10T13:18:47.000Z</time>
      </trkpt>
      <trkpt lat="43.61082" lon="6.02821">
        <ele>608</ele>
        <time>2026-02-10T13:18:48.000Z</time>
      </trkpt>
      <trkpt lat="43.61082" lon="6.02821">
        <ele>608</ele>
        <time>2026-02-10T13:18:48.000Z</time>
      </trkpt>
      <trkpt lat="43.61082" lon="6.02821">
        <ele>608</ele>
        <time>2026-02-10T13:18:48.000Z</time>
      </trkpt>
      <trkpt lat="43.61082" lon="6.02821">
        <ele>608</ele>
        <time>2026-02-10T13:18:48.000Z</time>
      </trkpt>
      <trkpt lat="43.61081" lon="6.0282">
        <ele>608</ele>
        <time>2026-02-10T13:18:49.000Z</time>
      </trkpt>
      <trkpt lat="43.61081" lon="6.0282">
        <ele>608</ele>
        <time>2026-02-10T13:18:49.000Z</time>
      </trkpt>
      <trkpt lat="43.61081" lon="6.0282">
        <ele>608</ele>
        <time>2026-02-10T13:18:49.000Z</time>
      </trkpt>
      <trkpt lat="43.61081" lon="6.0282">
        <ele>608</ele>
        <time>2026-02-10T13:18:49.000Z</time>
      </trkpt>
      <trkpt lat="43.61081" lon="6.0282">
        <ele>608</ele>
        <time>2026-02-10T13:18:49.000Z</time>
      </trkpt>
      <trkpt lat="43.6108" lon="6.0282">
        <ele>608</ele>
        <time>2026-02-10T13:18:50.000Z</time>
      </trkpt>
      <trkpt lat="43.6108" lon="6.0282">
        <ele>608</ele>
        <time>2026-02-10T13:18:50.000Z</time>
      </trkpt>
      <trkpt lat="43.61081" lon="6.0282">
        <ele>608</ele>
        <time>2026-02-10T13:18:51.000Z</time>
      </trkpt>
      <trkpt lat="43.6108" lon="6.02821">
        <ele>608</ele>
        <time>2026-02-10T13:18:52.000Z</time>
      </trkpt>
      <trkpt lat="43.6108" lon="6.02821">
        <ele>608</ele>
        <time>2026-02-10T13:18:52.000Z</time>
      </trkpt>
      <trkpt lat="43.6108" lon="6.02821">
        <ele>608</ele>
        <time>2026-02-10T13:18:52.000Z</time>
      </trkpt>
      <trkpt lat="43.6108" lon="6.02821">
        <ele>608</ele>
        <time>2026-02-10T13:18:52.000Z</time>
      </trkpt>
      <trkpt lat="43.61081" lon="6.02821">
        <ele>608</ele>
        <time>2026-02-10T13:18:53.000Z</time>
      </trkpt>
      <trkpt lat="43.61081" lon="6.02821">
        <ele>608</ele>
        <time>2026-02-10T13:18:53.000Z</time>
      </trkpt>
      <trkpt lat="43.6108" lon="6.02821">
        <ele>608</ele>
        <time>2026-02-10T13:18:54.000Z</time>
      </trkpt>
      <trkpt lat="43.6108" lon="6.0282">
        <ele>608</ele>
        <time>2026-02-10T13:18:55.000Z</time>
      </trkpt>
      <trkpt lat="43.6108" lon="6.02819">
        <ele>608</ele>
        <time>2026-02-10T13:18:56.000Z</time>
      </trkpt>
      <trkpt lat="43.6108" lon="6.02818">
        <ele>608</ele>
        <time>2026-02-10T13:18:57.000Z</time>
      </trkpt>
      <trkpt lat="43.61079" lon="6.02817">
        <ele>608</ele>
        <time>2026-02-10T13:18:58.000Z</time>
      </trkpt>
      <trkpt lat="43.61079" lon="6.02817">
        <ele>608</ele>
        <time>2026-02-10T13:18:58.000Z</time>
      </trkpt>
      <trkpt lat="43.61078" lon="6.02816">
        <ele>608</ele>
        <time>2026-02-10T13:18:59.000Z</time>
      </trkpt>
      <trkpt lat="43.61079" lon="6.02814">
        <ele>608</ele>
        <time>2026-02-10T13:19:01.000Z</time>
      </trkpt>
      <trkpt lat="43.61079" lon="6.02814">
        <ele>608</ele>
        <time>2026-02-10T13:19:01.000Z</time>
      </trkpt>
      <trkpt lat="43.6108" lon="6.02814">
        <ele>608</ele>
        <time>2026-02-10T13:19:02.000Z</time>
      </trkpt>
      <trkpt lat="43.6108" lon="6.02813">
        <ele>608</ele>
        <time>2026-02-10T13:19:03.000Z</time>
      </trkpt>
      <trkpt lat="43.61081" lon="6.02812">
        <ele>608</ele>
        <time>2026-02-10T13:19:04.000Z</time>
      </trkpt>
      <trkpt lat="43.61081" lon="6.02812">
        <ele>608</ele>
        <time>2026-02-10T13:19:04.000Z</time>
      </trkpt>
      <trkpt lat="43.61081" lon="6.02811">
        <ele>608</ele>
        <time>2026-02-10T13:19:05.000Z</time>
      </trkpt>
      <trkpt lat="43.61082" lon="6.0281">
        <ele>608</ele>
        <time>2026-02-10T13:19:06.000Z</time>
      </trkpt>
      <trkpt lat="43.61082" lon="6.0281">
        <ele>608</ele>
        <time>2026-02-10T13:19:06.000Z</time>
      </trkpt>
      <trkpt lat="43.61082" lon="6.02809">
        <ele>608</ele>
        <time>2026-02-10T13:19:07.000Z</time>
      </trkpt>
      <trkpt lat="43.61083" lon="6.02808">
        <ele>608</ele>
        <time>2026-02-10T13:19:08.000Z</time>
      </trkpt>
      <trkpt lat="43.61083" lon="6.02806">
        <ele>608</ele>
        <time>2026-02-10T13:19:10.000Z</time>
      </trkpt>
      <trkpt lat="43.61083" lon="6.02806">
        <ele>608</ele>
        <time>2026-02-10T13:19:10.000Z</time>
      </trkpt>
      <trkpt lat="43.61084" lon="6.02805">
        <ele>608</ele>
        <time>2026-02-10T13:19:11.000Z</time>
      </trkpt>
      <trkpt lat="43.61084" lon="6.02804">
        <ele>608</ele>
        <time>2026-02-10T13:19:12.000Z</time>
      </trkpt>
      <trkpt lat="43.61084" lon="6.02803">
        <ele>608</ele>
        <time>2026-02-10T13:19:13.000Z</time>
      </trkpt>
      <trkpt lat="43.61083" lon="6.02803">
        <ele>608</ele>
        <time>2026-02-10T13:19:14.000Z</time>
      </trkpt>
      <trkpt lat="43.61083" lon="6.02803">
        <ele>608</ele>
        <time>2026-02-10T13:19:14.000Z</time>
      </trkpt>
      <trkpt lat="43.61082" lon="6.02803">
        <ele>608</ele>
        <time>2026-02-10T13:19:15.000Z</time>
      </trkpt>
      <trkpt lat="43.61082" lon="6.02803">
        <ele>608</ele>
        <time>2026-02-10T13:19:15.000Z</time>
      </trkpt>
      <trkpt lat="43.61082" lon="6.02802">
        <ele>608</ele>
        <time>2026-02-10T13:19:16.000Z</time>
      </trkpt>
      <trkpt lat="43.61082" lon="6.02802">
        <ele>608</ele>
        <time>2026-02-10T13:19:16.000Z</time>
      </trkpt>
      <trkpt lat="43.61082" lon="6.02802">
        <ele>608</ele>
        <time>2026-02-10T13:19:16.000Z</time>
      </trkpt>
      <trkpt lat="43.61082" lon="6.028">
        <ele>608</ele>
        <time>2026-02-10T13:19:18.000Z</time>
      </trkpt>
      <trkpt lat="43.61082" lon="6.02799">
        <ele>608</ele>
        <time>2026-02-10T13:19:19.000Z</time>
      </trkpt>
      <trkpt lat="43.61082" lon="6.02798">
        <ele>608</ele>
        <time>2026-02-10T13:19:20.000Z</time>
      </trkpt>
      <trkpt lat="43.61081" lon="6.02797">
        <ele>608</ele>
        <time>2026-02-10T13:19:21.000Z</time>
      </trkpt>
      <trkpt lat="43.61081" lon="6.02796">
        <ele>608</ele>
        <time>2026-02-10T13:19:22.000Z</time>
      </trkpt>
      <trkpt lat="43.61082" lon="6.02795">
        <ele>609</ele>
        <time>2026-02-10T13:19:34.000Z</time>
      </trkpt>
      <trkpt lat="43.61082" lon="6.02794">
        <ele>609</ele>
        <time>2026-02-10T13:19:35.000Z</time>
      </trkpt>
      <trkpt lat="43.61081" lon="6.02793">
        <ele>609</ele>
        <time>2026-02-10T13:19:36.000Z</time>
      </trkpt>
      <trkpt lat="43.61082" lon="6.02792">
        <ele>609</ele>
        <time>2026-02-10T13:19:37.000Z</time>
      </trkpt>
      <trkpt lat="43.61082" lon="6.0279">
        <ele>609</ele>
        <time>2026-02-10T13:19:39.000Z</time>
      </trkpt>
      <trkpt lat="43.61082" lon="6.02789">
        <ele>609</ele>
        <time>2026-02-10T13:19:40.000Z</time>
      </trkpt>
      <trkpt lat="43.61082" lon="6.02788">
        <ele>609</ele>
        <time>2026-02-10T13:19:41.000Z</time>
      </trkpt>
      <trkpt lat="43.61082" lon="6.02786">
        <ele>609</ele>
        <time>2026-02-10T13:19:43.000Z</time>
      </trkpt>
      <trkpt lat="43.61082" lon="6.02785">
        <ele>609</ele>
        <time>2026-02-10T13:19:44.000Z</time>
      </trkpt>
      <trkpt lat="43.61083" lon="6.02784">
        <ele>609</ele>
        <time>2026-02-10T13:19:45.000Z</time>
      </trkpt>
      <trkpt lat="43.61082" lon="6.02782">
        <ele>609</ele>
        <time>2026-02-10T13:19:47.000Z</time>
      </trkpt>
      <trkpt lat="43.61082" lon="6.02781">
        <ele>609</ele>
        <time>2026-02-10T13:19:48.000Z</time>
      </trkpt>
      <trkpt lat="43.61082" lon="6.0278">
        <ele>609</ele>
        <time>2026-02-10T13:19:49.000Z</time>
      </trkpt>
      <trkpt lat="43.61082" lon="6.02779">
        <ele>609</ele>
        <time>2026-02-10T13:19:50.000Z</time>
      </trkpt>
      <trkpt lat="43.61083" lon="6.02777">
        <ele>609</ele>
        <time>2026-02-10T13:19:52.000Z</time>
      </trkpt>
      <trkpt lat="43.61083" lon="6.02776">
        <ele>609</ele>
        <time>2026-02-10T13:19:53.000Z</time>
      </trkpt>
      <trkpt lat="43.61083" lon="6.02775">
        <ele>609</ele>
        <time>2026-02-10T13:19:54.000Z</time>
      </trkpt>
      <trkpt lat="43.61084" lon="6.02774">
        <ele>609</ele>
        <time>2026-02-10T13:19:55.000Z</time>
      </trkpt>
      <trkpt lat="43.61084" lon="6.02772">
        <ele>609</ele>
        <time>2026-02-10T13:19:57.000Z</time>
      </trkpt>
      <trkpt lat="43.61085" lon="6.02772">
        <ele>609</ele>
        <time>2026-02-10T13:19:58.000Z</time>
      </trkpt>
      <trkpt lat="43.61086" lon="6.02771">
        <ele>609</ele>
        <time>2026-02-10T13:19:59.000Z</time>
      </trkpt>
      <trkpt lat="43.61087" lon="6.0277">
        <ele>609</ele>
        <time>2026-02-10T13:20:00.000Z</time>
      </trkpt>
      <trkpt lat="43.61088" lon="6.02769">
        <ele>609</ele>
        <time>2026-02-10T13:20:01.000Z</time>
      </trkpt>
      <trkpt lat="43.61088" lon="6.02768">
        <ele>609</ele>
        <time>2026-02-10T13:20:02.000Z</time>
      </trkpt>
      <trkpt lat="43.61089" lon="6.02767">
        <ele>610</ele>
        <time>2026-02-10T13:20:14.000Z</time>
      </trkpt>
      <trkpt lat="43.61089" lon="6.02766">
        <ele>610</ele>
        <time>2026-02-10T13:20:15.000Z</time>
      </trkpt>
      <trkpt lat="43.6109" lon="6.02766">
        <ele>610</ele>
        <time>2026-02-10T13:20:16.000Z</time>
      </trkpt>
      <trkpt lat="43.6109" lon="6.02765">
        <ele>610</ele>
        <time>2026-02-10T13:20:17.000Z</time>
      </trkpt>
      <trkpt lat="43.61091" lon="6.02764">
        <ele>610</ele>
        <time>2026-02-10T13:20:18.000Z</time>
      </trkpt>
      <trkpt lat="43.61092" lon="6.02763">
        <ele>610</ele>
        <time>2026-02-10T13:20:19.000Z</time>
      </trkpt>
      <trkpt lat="43.61093" lon="6.02762">
        <ele>610</ele>
        <time>2026-02-10T13:20:20.000Z</time>
      </trkpt>
      <trkpt lat="43.61094" lon="6.02762">
        <ele>610</ele>
        <time>2026-02-10T13:20:21.000Z</time>
      </trkpt>
      <trkpt lat="43.61095" lon="6.02762">
        <ele>610</ele>
        <time>2026-02-10T13:20:22.000Z</time>
      </trkpt>
      <trkpt lat="43.61095" lon="6.02761">
        <ele>611</ele>
        <time>2026-02-10T13:20:33.000Z</time>
      </trkpt>
      <trkpt lat="43.61096" lon="6.0276">
        <ele>611</ele>
        <time>2026-02-10T13:20:34.000Z</time>
      </trkpt>
      <trkpt lat="43.61097" lon="6.02759">
        <ele>610</ele>
        <time>2026-02-10T13:20:35.000Z</time>
      </trkpt>
      <trkpt lat="43.61098" lon="6.02759">
        <ele>610</ele>
        <time>2026-02-10T13:20:36.000Z</time>
      </trkpt>
      <trkpt lat="43.61099" lon="6.02759">
        <ele>610</ele>
        <time>2026-02-10T13:20:37.000Z</time>
      </trkpt>
      <trkpt lat="43.611" lon="6.02758">
        <ele>610</ele>
        <time>2026-02-10T13:20:38.000Z</time>
      </trkpt>
      <trkpt lat="43.61101" lon="6.02758">
        <ele>610</ele>
        <time>2026-02-10T13:20:39.000Z</time>
      </trkpt>
      <trkpt lat="43.61102" lon="6.02758">
        <ele>610</ele>
        <time>2026-02-10T13:20:40.000Z</time>
      </trkpt>
      <trkpt lat="43.61103" lon="6.02758">
        <ele>610</ele>
        <time>2026-02-10T13:20:41.000Z</time>
      </trkpt>
      <trkpt lat="43.61104" lon="6.02757">
        <ele>610</ele>
        <time>2026-02-10T13:20:42.000Z</time>
      </trkpt>
      <trkpt lat="43.61105" lon="6.02757">
        <ele>610</ele>
        <time>2026-02-10T13:20:43.000Z</time>
      </trkpt>
      <trkpt lat="43.61106" lon="6.02757">
        <ele>610</ele>
        <time>2026-02-10T13:20:44.000Z</time>
      </trkpt>
      <trkpt lat="43.61107" lon="6.02757">
        <ele>610</ele>
        <time>2026-02-10T13:20:45.000Z</time>
      </trkpt>
      <trkpt lat="43.61108" lon="6.02756">
        <ele>610</ele>
        <time>2026-02-10T13:20:46.000Z</time>
      </trkpt>
      <trkpt lat="43.61109" lon="6.02756">
        <ele>610</ele>
        <time>2026-02-10T13:20:47.000Z</time>
      </trkpt>
      <trkpt lat="43.6111" lon="6.02756">
        <ele>610</ele>
        <time>2026-02-10T13:20:48.000Z</time>
      </trkpt>
      <trkpt lat="43.6111" lon="6.02756">
        <ele>610</ele>
        <time>2026-02-10T13:20:48.000Z</time>
      </trkpt>
      <trkpt lat="43.61111" lon="6.02756">
        <ele>610</ele>
        <time>2026-02-10T13:20:49.000Z</time>
      </trkpt>
      <trkpt lat="43.61112" lon="6.02755">
        <ele>610</ele>
        <time>2026-02-10T13:20:50.000Z</time>
      </trkpt>
      <trkpt lat="43.61113" lon="6.02754">
        <ele>610</ele>
        <time>2026-02-10T13:20:51.000Z</time>
      </trkpt>
      <trkpt lat="43.61114" lon="6.02753">
        <ele>610</ele>
        <time>2026-02-10T13:20:52.000Z</time>
      </trkpt>
      <trkpt lat="43.61114" lon="6.02752">
        <ele>610</ele>
        <time>2026-02-10T13:20:53.000Z</time>
      </trkpt>
      <trkpt lat="43.61115" lon="6.02751">
        <ele>610</ele>
        <time>2026-02-10T13:20:54.000Z</time>
      </trkpt>
      <trkpt lat="43.61115" lon="6.02749">
        <ele>610</ele>
        <time>2026-02-10T13:20:56.000Z</time>
      </trkpt>
      <trkpt lat="43.61116" lon="6.02748">
        <ele>610</ele>
        <time>2026-02-10T13:20:57.000Z</time>
      </trkpt>
      <trkpt lat="43.61117" lon="6.02747">
        <ele>610</ele>
        <time>2026-02-10T13:20:58.000Z</time>
      </trkpt>
      <trkpt lat="43.61117" lon="6.02746">
        <ele>610</ele>
        <time>2026-02-10T13:20:59.000Z</time>
      </trkpt>
      <trkpt lat="43.61117" lon="6.02744">
        <ele>609</ele>
        <time>2026-02-10T13:21:01.000Z</time>
      </trkpt>
      <trkpt lat="43.61118" lon="6.02743">
        <ele>609</ele>
        <time>2026-02-10T13:21:02.000Z</time>
      </trkpt>
      <trkpt lat="43.61119" lon="6.02741">
        <ele>609</ele>
        <time>2026-02-10T13:21:04.000Z</time>
      </trkpt>
      <trkpt lat="43.6112" lon="6.02739">
        <ele>609</ele>
        <time>2026-02-10T13:21:06.000Z</time>
      </trkpt>
      <trkpt lat="43.6112" lon="6.02738">
        <ele>609</ele>
        <time>2026-02-10T13:21:07.000Z</time>
      </trkpt>
      <trkpt lat="43.6112" lon="6.02736">
        <ele>609</ele>
        <time>2026-02-10T13:21:09.000Z</time>
      </trkpt>
      <trkpt lat="43.6112" lon="6.02735">
        <ele>609</ele>
        <time>2026-02-10T13:21:10.000Z</time>
      </trkpt>
      <trkpt lat="43.61121" lon="6.02733">
        <ele>609</ele>
        <time>2026-02-10T13:21:12.000Z</time>
      </trkpt>
      <trkpt lat="43.61121" lon="6.02732">
        <ele>609</ele>
        <time>2026-02-10T13:21:13.000Z</time>
      </trkpt>
      <trkpt lat="43.61122" lon="6.0273">
        <ele>609</ele>
        <time>2026-02-10T13:21:15.000Z</time>
      </trkpt>
      <trkpt lat="43.61122" lon="6.02729">
        <ele>609</ele>
        <time>2026-02-10T13:21:16.000Z</time>
      </trkpt>
      <trkpt lat="43.61122" lon="6.02728">
        <ele>609</ele>
        <time>2026-02-10T13:21:17.000Z</time>
      </trkpt>
      <trkpt lat="43.61122" lon="6.02727">
        <ele>609</ele>
        <time>2026-02-10T13:21:18.000Z</time>
      </trkpt>
      <trkpt lat="43.61123" lon="6.02725">
        <ele>609</ele>
        <time>2026-02-10T13:21:20.000Z</time>
      </trkpt>
      <trkpt lat="43.61123" lon="6.02724">
        <ele>609</ele>
        <time>2026-02-10T13:21:21.000Z</time>
      </trkpt>
      <trkpt lat="43.61124" lon="6.02722">
        <ele>609</ele>
        <time>2026-02-10T13:21:23.000Z</time>
      </trkpt>
      <trkpt lat="43.61124" lon="6.0272">
        <ele>609</ele>
        <time>2026-02-10T13:21:25.000Z</time>
      </trkpt>
      <trkpt lat="43.61124" lon="6.02719">
        <ele>609</ele>
        <time>2026-02-10T13:21:26.000Z</time>
      </trkpt>
      <trkpt lat="43.61123" lon="6.02718">
        <ele>609</ele>
        <time>2026-02-10T13:21:27.000Z</time>
      </trkpt>
      <trkpt lat="43.61122" lon="6.02716">
        <ele>609</ele>
        <time>2026-02-10T13:21:29.000Z</time>
      </trkpt>
      <trkpt lat="43.61122" lon="6.02715">
        <ele>609</ele>
        <time>2026-02-10T13:21:30.000Z</time>
      </trkpt>
      <trkpt lat="43.61121" lon="6.02713">
        <ele>609</ele>
        <time>2026-02-10T13:21:32.000Z</time>
      </trkpt>
      <trkpt lat="43.61121" lon="6.02711">
        <ele>609</ele>
        <time>2026-02-10T13:21:34.000Z</time>
      </trkpt>
      <trkpt lat="43.6112" lon="6.02709">
        <ele>609</ele>
        <time>2026-02-10T13:21:36.000Z</time>
      </trkpt>
      <trkpt lat="43.61121" lon="6.02708">
        <ele>609</ele>
        <time>2026-02-10T13:21:37.000Z</time>
      </trkpt>
      <trkpt lat="43.61121" lon="6.02708">
        <ele>609</ele>
        <time>2026-02-10T13:21:37.000Z</time>
      </trkpt>
      <trkpt lat="43.61121" lon="6.02706">
        <ele>609</ele>
        <time>2026-02-10T13:21:39.000Z</time>
      </trkpt>
      <trkpt lat="43.61121" lon="6.02704">
        <ele>609</ele>
        <time>2026-02-10T13:21:41.000Z</time>
      </trkpt>
      <trkpt lat="43.6112" lon="6.02703">
        <ele>609</ele>
        <time>2026-02-10T13:21:42.000Z</time>
      </trkpt>
      <trkpt lat="43.6112" lon="6.02701">
        <ele>609</ele>
        <time>2026-02-10T13:21:44.000Z</time>
      </trkpt>
      <trkpt lat="43.6112" lon="6.02699">
        <ele>609</ele>
        <time>2026-02-10T13:21:46.000Z</time>
      </trkpt>
      <trkpt lat="43.6112" lon="6.02697">
        <ele>609</ele>
        <time>2026-02-10T13:21:48.000Z</time>
      </trkpt>
      <trkpt lat="43.6112" lon="6.02695">
        <ele>609</ele>
        <time>2026-02-10T13:21:50.000Z</time>
      </trkpt>
      <trkpt lat="43.6112" lon="6.02694">
        <ele>609</ele>
        <time>2026-02-10T13:21:51.000Z</time>
      </trkpt>
      <trkpt lat="43.6112" lon="6.02692">
        <ele>609</ele>
        <time>2026-02-10T13:21:53.000Z</time>
      </trkpt>
      <trkpt lat="43.61119" lon="6.0269">
        <ele>609</ele>
        <time>2026-02-10T13:21:55.000Z</time>
      </trkpt>
      <trkpt lat="43.61119" lon="6.02688">
        <ele>609</ele>
        <time>2026-02-10T13:21:57.000Z</time>
      </trkpt>
      <trkpt lat="43.61118" lon="6.02687">
        <ele>610</ele>
        <time>2026-02-10T13:22:09.000Z</time>
      </trkpt>
      <trkpt lat="43.61118" lon="6.02685">
        <ele>610</ele>
        <time>2026-02-10T13:22:11.000Z</time>
      </trkpt>
      <trkpt lat="43.61117" lon="6.02684">
        <ele>610</ele>
        <time>2026-02-10T13:22:12.000Z</time>
      </trkpt>
      <trkpt lat="43.61116" lon="6.02682">
        <ele>610</ele>
        <time>2026-02-10T13:22:14.000Z</time>
      </trkpt>
      <trkpt lat="43.61116" lon="6.02681">
        <ele>610</ele>
        <time>2026-02-10T13:22:15.000Z</time>
      </trkpt>
      <trkpt lat="43.61115" lon="6.02679">
        <ele>610</ele>
        <time>2026-02-10T13:22:17.000Z</time>
      </trkpt>
      <trkpt lat="43.61115" lon="6.02678">
        <ele>610</ele>
        <time>2026-02-10T13:22:18.000Z</time>
      </trkpt>
      <trkpt lat="43.61114" lon="6.02676">
        <ele>610</ele>
        <time>2026-02-10T13:22:20.000Z</time>
      </trkpt>
      <trkpt lat="43.61114" lon="6.02675">
        <ele>610</ele>
        <time>2026-02-10T13:22:21.000Z</time>
      </trkpt>
      <trkpt lat="43.61113" lon="6.02673">
        <ele>610</ele>
        <time>2026-02-10T13:22:23.000Z</time>
      </trkpt>
      <trkpt lat="43.61113" lon="6.02672">
        <ele>610</ele>
        <time>2026-02-10T13:22:24.000Z</time>
      </trkpt>
      <trkpt lat="43.61112" lon="6.0267">
        <ele>610</ele>
        <time>2026-02-10T13:22:26.000Z</time>
      </trkpt>
      <trkpt lat="43.61111" lon="6.02669">
        <ele>610</ele>
        <time>2026-02-10T13:22:27.000Z</time>
      </trkpt>
      <trkpt lat="43.61111" lon="6.02668">
        <ele>610</ele>
        <time>2026-02-10T13:22:28.000Z</time>
      </trkpt>
      <trkpt lat="43.6111" lon="6.02666">
        <ele>610</ele>
        <time>2026-02-10T13:22:30.000Z</time>
      </trkpt>
      <trkpt lat="43.6111" lon="6.02664">
        <ele>610</ele>
        <time>2026-02-10T13:22:32.000Z</time>
      </trkpt>
      <trkpt lat="43.61109" lon="6.02662">
        <ele>610</ele>
        <time>2026-02-10T13:22:34.000Z</time>
      </trkpt>
      <trkpt lat="43.61109" lon="6.02661">
        <ele>610</ele>
        <time>2026-02-10T13:22:35.000Z</time>
      </trkpt>
      <trkpt lat="43.61107" lon="6.02659">
        <ele>611</ele>
        <time>2026-02-10T13:22:48.000Z</time>
      </trkpt>
      <trkpt lat="43.61105" lon="6.02658">
        <ele>611</ele>
        <time>2026-02-10T13:22:50.000Z</time>
      </trkpt>
      <trkpt lat="43.61104" lon="6.02657">
        <ele>611</ele>
        <time>2026-02-10T13:22:51.000Z</time>
      </trkpt>
      <trkpt lat="43.61102" lon="6.02655">
        <ele>611</ele>
        <time>2026-02-10T13:22:54.000Z</time>
      </trkpt>
      <trkpt lat="43.61101" lon="6.02654">
        <ele>612</ele>
        <time>2026-02-10T13:23:06.000Z</time>
      </trkpt>
      <trkpt lat="43.61099" lon="6.02652">
        <ele>612</ele>
        <time>2026-02-10T13:23:09.000Z</time>
      </trkpt>
      <trkpt lat="43.61099" lon="6.02651">
        <ele>612</ele>
        <time>2026-02-10T13:23:10.000Z</time>
      </trkpt>
      <trkpt lat="43.61096" lon="6.02648">
        <ele>612</ele>
        <time>2026-02-10T13:23:14.000Z</time>
      </trkpt>
      <trkpt lat="43.61096" lon="6.02645">
        <ele>612</ele>
        <time>2026-02-10T13:23:16.000Z</time>
      </trkpt>
      <trkpt lat="43.61095" lon="6.02643">
        <ele>612</ele>
        <time>2026-02-10T13:23:18.000Z</time>
      </trkpt>
      <trkpt lat="43.61094" lon="6.02642">
        <ele>612</ele>
        <time>2026-02-10T13:23:19.000Z</time>
      </trkpt>
      <trkpt lat="43.61093" lon="6.02641">
        <ele>612</ele>
        <time>2026-02-10T13:23:20.000Z</time>
      </trkpt>
      <trkpt lat="43.61093" lon="6.02639">
        <ele>612</ele>
        <time>2026-02-10T13:23:22.000Z</time>
      </trkpt>
      <trkpt lat="43.61092" lon="6.02638">
        <ele>612</ele>
        <time>2026-02-10T13:23:23.000Z</time>
      </trkpt>
      <trkpt lat="43.61091" lon="6.02636">
        <ele>612</ele>
        <time>2026-02-10T13:23:25.000Z</time>
      </trkpt>
      <trkpt lat="43.61091" lon="6.02635">
        <ele>612</ele>
        <time>2026-02-10T13:23:26.000Z</time>
      </trkpt>
      <trkpt lat="43.6109" lon="6.02633">
        <ele>612</ele>
        <time>2026-02-10T13:23:28.000Z</time>
      </trkpt>
      <trkpt lat="43.6109" lon="6.02632">
        <ele>612</ele>
        <time>2026-02-10T13:23:29.000Z</time>
      </trkpt>
      <trkpt lat="43.61089" lon="6.0263">
        <ele>612</ele>
        <time>2026-02-10T13:23:31.000Z</time>
      </trkpt>
      <trkpt lat="43.61089" lon="6.02628">
        <ele>612</ele>
        <time>2026-02-10T13:23:33.000Z</time>
      </trkpt>
      <trkpt lat="43.61088" lon="6.02627">
        <ele>612</ele>
        <time>2026-02-10T13:23:34.000Z</time>
      </trkpt>
      <trkpt lat="43.61088" lon="6.02625">
        <ele>612</ele>
        <time>2026-02-10T13:23:36.000Z</time>
      </trkpt>
      <trkpt lat="43.61087" lon="6.02624">
        <ele>612</ele>
        <time>2026-02-10T13:23:37.000Z</time>
      </trkpt>
      <trkpt lat="43.61086" lon="6.02623">
        <ele>612</ele>
        <time>2026-02-10T13:23:38.000Z</time>
      </trkpt>
      <trkpt lat="43.61085" lon="6.02621">
        <ele>612</ele>
        <time>2026-02-10T13:23:40.000Z</time>
      </trkpt>
      <trkpt lat="43.61084" lon="6.0262">
        <ele>612</ele>
        <time>2026-02-10T13:23:41.000Z</time>
      </trkpt>
      <trkpt lat="43.61083" lon="6.02618">
        <ele>612</ele>
        <time>2026-02-10T13:23:43.000Z</time>
      </trkpt>
      <trkpt lat="43.61082" lon="6.02616">
        <ele>612</ele>
        <time>2026-02-10T13:23:45.000Z</time>
      </trkpt>
      <trkpt lat="43.61082" lon="6.02614">
        <ele>612</ele>
        <time>2026-02-10T13:23:47.000Z</time>
      </trkpt>
      <trkpt lat="43.61082" lon="6.02612">
        <ele>612</ele>
        <time>2026-02-10T13:23:49.000Z</time>
      </trkpt>
      <trkpt lat="43.61081" lon="6.02611">
        <ele>612</ele>
        <time>2026-02-10T13:23:50.000Z</time>
      </trkpt>
      <trkpt lat="43.6108" lon="6.02609">
        <ele>612</ele>
        <time>2026-02-10T13:23:52.000Z</time>
      </trkpt>
      <trkpt lat="43.6108" lon="6.02607">
        <ele>613</ele>
        <time>2026-02-10T13:24:04.000Z</time>
      </trkpt>
      <trkpt lat="43.61079" lon="6.02606">
        <ele>613</ele>
        <time>2026-02-10T13:24:05.000Z</time>
      </trkpt>
      <trkpt lat="43.61079" lon="6.02604">
        <ele>613</ele>
        <time>2026-02-10T13:24:07.000Z</time>
      </trkpt>
      <trkpt lat="43.61079" lon="6.02602">
        <ele>613</ele>
        <time>2026-02-10T13:24:09.000Z</time>
      </trkpt>
      <trkpt lat="43.61079" lon="6.026">
        <ele>613</ele>
        <time>2026-02-10T13:24:11.000Z</time>
      </trkpt>
      <trkpt lat="43.61078" lon="6.02598">
        <ele>613</ele>
        <time>2026-02-10T13:24:13.000Z</time>
      </trkpt>
      <trkpt lat="43.61078" lon="6.02596">
        <ele>613</ele>
        <time>2026-02-10T13:24:15.000Z</time>
      </trkpt>
      <trkpt lat="43.61078" lon="6.02594">
        <ele>613</ele>
        <time>2026-02-10T13:24:17.000Z</time>
      </trkpt>
      <trkpt lat="43.61077" lon="6.02593">
        <ele>613</ele>
        <time>2026-02-10T13:24:18.000Z</time>
      </trkpt>
      <trkpt lat="43.61077" lon="6.02592">
        <ele>613</ele>
        <time>2026-02-10T13:24:19.000Z</time>
      </trkpt>
      <trkpt lat="43.61077" lon="6.02591">
        <ele>613</ele>
        <time>2026-02-10T13:24:20.000Z</time>
      </trkpt>
      <trkpt lat="43.61077" lon="6.0259">
        <ele>613</ele>
        <time>2026-02-10T13:24:21.000Z</time>
      </trkpt>
      <trkpt lat="43.61076" lon="6.02589">
        <ele>613</ele>
        <time>2026-02-10T13:24:22.000Z</time>
      </trkpt>
      <trkpt lat="43.61076" lon="6.02588">
        <ele>613</ele>
        <time>2026-02-10T13:24:23.000Z</time>
      </trkpt>
      <trkpt lat="43.61076" lon="6.02587">
        <ele>613</ele>
        <time>2026-02-10T13:24:24.000Z</time>
      </trkpt>
      <trkpt lat="43.61076" lon="6.02587">
        <ele>613</ele>
        <time>2026-02-10T13:24:24.000Z</time>
      </trkpt>
      <trkpt lat="43.61077" lon="6.02587">
        <ele>613</ele>
        <time>2026-02-10T13:24:25.000Z</time>
      </trkpt>
      <trkpt lat="43.61078" lon="6.02587">
        <ele>613</ele>
        <time>2026-02-10T13:24:26.000Z</time>
      </trkpt>
      <trkpt lat="43.61079" lon="6.02586">
        <ele>613</ele>
        <time>2026-02-10T13:24:27.000Z</time>
      </trkpt>
      <trkpt lat="43.6108" lon="6.02586">
        <ele>613</ele>
        <time>2026-02-10T13:24:28.000Z</time>
      </trkpt>
      <trkpt lat="43.61081" lon="6.02586">
        <ele>613</ele>
        <time>2026-02-10T13:24:29.000Z</time>
      </trkpt>
      <trkpt lat="43.61082" lon="6.02587">
        <ele>613</ele>
        <time>2026-02-10T13:24:30.000Z</time>
      </trkpt>
      <trkpt lat="43.61083" lon="6.02587">
        <ele>613</ele>
        <time>2026-02-10T13:24:31.000Z</time>
      </trkpt>
      <trkpt lat="43.61084" lon="6.02587">
        <ele>613</ele>
        <time>2026-02-10T13:24:32.000Z</time>
      </trkpt>
      <trkpt lat="43.61086" lon="6.02586">
        <ele>613</ele>
        <time>2026-02-10T13:24:34.000Z</time>
      </trkpt>
      <trkpt lat="43.61087" lon="6.02587">
        <ele>613</ele>
        <time>2026-02-10T13:24:35.000Z</time>
      </trkpt>
      <trkpt lat="43.61089" lon="6.02587">
        <ele>613</ele>
        <time>2026-02-10T13:24:37.000Z</time>
      </trkpt>
      <trkpt lat="43.6109" lon="6.02587">
        <ele>613</ele>
        <time>2026-02-10T13:24:38.000Z</time>
      </trkpt>
      <trkpt lat="43.61091" lon="6.02586">
        <ele>613</ele>
        <time>2026-02-10T13:24:39.000Z</time>
      </trkpt>
      <trkpt lat="43.61092" lon="6.02586">
        <ele>613</ele>
        <time>2026-02-10T13:24:40.000Z</time>
      </trkpt>
      <trkpt lat="43.61093" lon="6.02586">
        <ele>613</ele>
        <time>2026-02-10T13:24:41.000Z</time>
      </trkpt>
      <trkpt lat="43.61094" lon="6.02586">
        <ele>613</ele>
        <time>2026-02-10T13:24:42.000Z</time>
      </trkpt>
      <trkpt lat="43.61096" lon="6.02587">
        <ele>613</ele>
        <time>2026-02-10T13:24:44.000Z</time>
      </trkpt>
      <trkpt lat="43.61097" lon="6.02587">
        <ele>613</ele>
        <time>2026-02-10T13:24:45.000Z</time>
      </trkpt>
      <trkpt lat="43.61098" lon="6.02587">
        <ele>613</ele>
        <time>2026-02-10T13:24:46.000Z</time>
      </trkpt>
      <trkpt lat="43.61099" lon="6.02587">
        <ele>613</ele>
        <time>2026-02-10T13:24:47.000Z</time>
      </trkpt>
      <trkpt lat="43.611" lon="6.02587">
        <ele>613</ele>
        <time>2026-02-10T13:24:48.000Z</time>
      </trkpt>
      <trkpt lat="43.61101" lon="6.02586">
        <ele>613</ele>
        <time>2026-02-10T13:24:49.000Z</time>
      </trkpt>
      <trkpt lat="43.61102" lon="6.02585">
        <ele>613</ele>
        <time>2026-02-10T13:24:50.000Z</time>
      </trkpt>
      <trkpt lat="43.61103" lon="6.02585">
        <ele>613</ele>
        <time>2026-02-10T13:24:51.000Z</time>
      </trkpt>
      <trkpt lat="43.61104" lon="6.02585">
        <ele>613</ele>
        <time>2026-02-10T13:24:52.000Z</time>
      </trkpt>
      <trkpt lat="43.61105" lon="6.02584">
        <ele>613</ele>
        <time>2026-02-10T13:24:53.000Z</time>
      </trkpt>
      <trkpt lat="43.61106" lon="6.02584">
        <ele>613</ele>
        <time>2026-02-10T13:24:54.000Z</time>
      </trkpt>
      <trkpt lat="43.61107" lon="6.02585">
        <ele>613</ele>
        <time>2026-02-10T13:24:55.000Z</time>
      </trkpt>
      <trkpt lat="43.61109" lon="6.02585">
        <ele>613</ele>
        <time>2026-02-10T13:24:57.000Z</time>
      </trkpt>
      <trkpt lat="43.6111" lon="6.02584">
        <ele>613</ele>
        <time>2026-02-10T13:24:58.000Z</time>
      </trkpt>
      <trkpt lat="43.61111" lon="6.02585">
        <ele>613</ele>
        <time>2026-02-10T13:24:59.000Z</time>
      </trkpt>
      <trkpt lat="43.61112" lon="6.02584">
        <ele>613</ele>
        <time>2026-02-10T13:25:00.000Z</time>
      </trkpt>
      <trkpt lat="43.61113" lon="6.02584">
        <ele>613</ele>
        <time>2026-02-10T13:25:01.000Z</time>
      </trkpt>
      <trkpt lat="43.61115" lon="6.02584">
        <ele>613</ele>
        <time>2026-02-10T13:25:03.000Z</time>
      </trkpt>
      <trkpt lat="43.61116" lon="6.02584">
        <ele>613</ele>
        <time>2026-02-10T13:25:04.000Z</time>
      </trkpt>
      <trkpt lat="43.61117" lon="6.02584">
        <ele>613</ele>
        <time>2026-02-10T13:25:05.000Z</time>
      </trkpt>
      <trkpt lat="43.61118" lon="6.02583">
        <ele>613</ele>
        <time>2026-02-10T13:25:06.000Z</time>
      </trkpt>
      <trkpt lat="43.61119" lon="6.02583">
        <ele>613</ele>
        <time>2026-02-10T13:25:07.000Z</time>
      </trkpt>
      <trkpt lat="43.61121" lon="6.02583">
        <ele>613</ele>
        <time>2026-02-10T13:25:09.000Z</time>
      </trkpt>
      <trkpt lat="43.61122" lon="6.02582">
        <ele>613</ele>
        <time>2026-02-10T13:25:10.000Z</time>
      </trkpt>
      <trkpt lat="43.61124" lon="6.02582">
        <ele>613</ele>
        <time>2026-02-10T13:25:12.000Z</time>
      </trkpt>
      <trkpt lat="43.61125" lon="6.02582">
        <ele>613</ele>
        <time>2026-02-10T13:25:13.000Z</time>
      </trkpt>
      <trkpt lat="43.61127" lon="6.02582">
        <ele>613</ele>
        <time>2026-02-10T13:25:15.000Z</time>
      </trkpt>
      <trkpt lat="43.61128" lon="6.02582">
        <ele>613</ele>
        <time>2026-02-10T13:25:16.000Z</time>
      </trkpt>
      <trkpt lat="43.61129" lon="6.02582">
        <ele>613</ele>
        <time>2026-02-10T13:25:17.000Z</time>
      </trkpt>
      <trkpt lat="43.6113" lon="6.02582">
        <ele>613</ele>
        <time>2026-02-10T13:25:18.000Z</time>
      </trkpt>
      <trkpt lat="43.61131" lon="6.02582">
        <ele>613</ele>
        <time>2026-02-10T13:25:19.000Z</time>
      </trkpt>
      <trkpt lat="43.61132" lon="6.02582">
        <ele>613</ele>
        <time>2026-02-10T13:25:20.000Z</time>
      </trkpt>
      <trkpt lat="43.61133" lon="6.02582">
        <ele>613</ele>
        <time>2026-02-10T13:25:21.000Z</time>
      </trkpt>
      <trkpt lat="43.61134" lon="6.02583">
        <ele>613</ele>
        <time>2026-02-10T13:25:22.000Z</time>
      </trkpt>
      <trkpt lat="43.61136" lon="6.02582">
        <ele>612</ele>
        <time>2026-02-10T13:25:24.000Z</time>
      </trkpt>
      <trkpt lat="43.61137" lon="6.02581">
        <ele>612</ele>
        <time>2026-02-10T13:25:25.000Z</time>
      </trkpt>
      <trkpt lat="43.61138" lon="6.0258">
        <ele>612</ele>
        <time>2026-02-10T13:25:26.000Z</time>
      </trkpt>
      <trkpt lat="43.61139" lon="6.02579">
        <ele>612</ele>
        <time>2026-02-10T13:25:27.000Z</time>
      </trkpt>
      <trkpt lat="43.6114" lon="6.02579">
        <ele>612</ele>
        <time>2026-02-10T13:25:28.000Z</time>
      </trkpt>
      <trkpt lat="43.6114" lon="6.02578">
        <ele>612</ele>
        <time>2026-02-10T13:25:29.000Z</time>
      </trkpt>
      <trkpt lat="43.61141" lon="6.02578">
        <ele>612</ele>
        <time>2026-02-10T13:25:30.000Z</time>
      </trkpt>
      <trkpt lat="43.61143" lon="6.02577">
        <ele>612</ele>
        <time>2026-02-10T13:25:32.000Z</time>
      </trkpt>
      <trkpt lat="43.61144" lon="6.02576">
        <ele>612</ele>
        <time>2026-02-10T13:25:33.000Z</time>
      </trkpt>
      <trkpt lat="43.61145" lon="6.02574">
        <ele>612</ele>
        <time>2026-02-10T13:25:35.000Z</time>
      </trkpt>
      <trkpt lat="43.61147" lon="6.02572">
        <ele>612</ele>
        <time>2026-02-10T13:25:38.000Z</time>
      </trkpt>
      <trkpt lat="43.6115" lon="6.02571">
        <ele>612</ele>
        <time>2026-02-10T13:25:42.000Z</time>
      </trkpt>
      <trkpt lat="43.61151" lon="6.0257">
        <ele>612</ele>
        <time>2026-02-10T13:25:43.000Z</time>
      </trkpt>
      <trkpt lat="43.61152" lon="6.02568">
        <ele>612</ele>
        <time>2026-02-10T13:25:45.000Z</time>
      </trkpt>
      <trkpt lat="43.61152" lon="6.02567">
        <ele>612</ele>
        <time>2026-02-10T13:25:46.000Z</time>
      </trkpt>
      <trkpt lat="43.61152" lon="6.02565">
        <ele>612</ele>
        <time>2026-02-10T13:25:48.000Z</time>
      </trkpt>
      <trkpt lat="43.61153" lon="6.02563">
        <ele>611</ele>
        <time>2026-02-10T13:25:50.000Z</time>
      </trkpt>
      <trkpt lat="43.61154" lon="6.02562">
        <ele>611</ele>
        <time>2026-02-10T13:25:51.000Z</time>
      </trkpt>
      <trkpt lat="43.61155" lon="6.02561">
        <ele>611</ele>
        <time>2026-02-10T13:25:52.000Z</time>
      </trkpt>
      <trkpt lat="43.61155" lon="6.02559">
        <ele>611</ele>
        <time>2026-02-10T13:25:54.000Z</time>
      </trkpt>
      <trkpt lat="43.61155" lon="6.02557">
        <ele>611</ele>
        <time>2026-02-10T13:25:56.000Z</time>
      </trkpt>
      <trkpt lat="43.61156" lon="6.02556">
        <ele>611</ele>
        <time>2026-02-10T13:25:57.000Z</time>
      </trkpt>
      <trkpt lat="43.61157" lon="6.02554">
        <ele>611</ele>
        <time>2026-02-10T13:25:59.000Z</time>
      </trkpt>
      <trkpt lat="43.61158" lon="6.02553">
        <ele>611</ele>
        <time>2026-02-10T13:26:00.000Z</time>
      </trkpt>
      <trkpt lat="43.61158" lon="6.02551">
        <ele>611</ele>
        <time>2026-02-10T13:26:02.000Z</time>
      </trkpt>
      <trkpt lat="43.61159" lon="6.0255">
        <ele>611</ele>
        <time>2026-02-10T13:26:03.000Z</time>
      </trkpt>
      <trkpt lat="43.6116" lon="6.02548">
        <ele>611</ele>
        <time>2026-02-10T13:26:05.000Z</time>
      </trkpt>
      <trkpt lat="43.6116" lon="6.02546">
        <ele>611</ele>
        <time>2026-02-10T13:26:07.000Z</time>
      </trkpt>
      <trkpt lat="43.6116" lon="6.02545">
        <ele>611</ele>
        <time>2026-02-10T13:26:08.000Z</time>
      </trkpt>
      <trkpt lat="43.6116" lon="6.02544">
        <ele>611</ele>
        <time>2026-02-10T13:26:09.000Z</time>
      </trkpt>
      <trkpt lat="43.6116" lon="6.02542">
        <ele>611</ele>
        <time>2026-02-10T13:26:11.000Z</time>
      </trkpt>
      <trkpt lat="43.61161" lon="6.02541">
        <ele>611</ele>
        <time>2026-02-10T13:26:12.000Z</time>
      </trkpt>
      <trkpt lat="43.61162" lon="6.02539">
        <ele>611</ele>
        <time>2026-02-10T13:26:14.000Z</time>
      </trkpt>
      <trkpt lat="43.61162" lon="6.02538">
        <ele>611</ele>
        <time>2026-02-10T13:26:15.000Z</time>
      </trkpt>
      <trkpt lat="43.61163" lon="6.02536">
        <ele>611</ele>
        <time>2026-02-10T13:26:17.000Z</time>
      </trkpt>
      <trkpt lat="43.61164" lon="6.02535">
        <ele>611</ele>
        <time>2026-02-10T13:26:18.000Z</time>
      </trkpt>
      <trkpt lat="43.61164" lon="6.02534">
        <ele>611</ele>
        <time>2026-02-10T13:26:19.000Z</time>
      </trkpt>
      <trkpt lat="43.61165" lon="6.02533">
        <ele>611</ele>
        <time>2026-02-10T13:26:20.000Z</time>
      </trkpt>
      <trkpt lat="43.61166" lon="6.02532">
        <ele>611</ele>
        <time>2026-02-10T13:26:21.000Z</time>
      </trkpt>
      <trkpt lat="43.61167" lon="6.0253">
        <ele>611</ele>
        <time>2026-02-10T13:26:23.000Z</time>
      </trkpt>
      <trkpt lat="43.61168" lon="6.02529">
        <ele>611</ele>
        <time>2026-02-10T13:26:24.000Z</time>
      </trkpt>
      <trkpt lat="43.61169" lon="6.02528">
        <ele>611</ele>
        <time>2026-02-10T13:26:25.000Z</time>
      </trkpt>
      <trkpt lat="43.6117" lon="6.02527">
        <ele>610</ele>
        <time>2026-02-10T13:26:26.000Z</time>
      </trkpt>
      <trkpt lat="43.61171" lon="6.02526">
        <ele>610</ele>
        <time>2026-02-10T13:26:27.000Z</time>
      </trkpt>
      <trkpt lat="43.61172" lon="6.02525">
        <ele>610</ele>
        <time>2026-02-10T13:26:28.000Z</time>
      </trkpt>
      <trkpt lat="43.61173" lon="6.02524">
        <ele>610</ele>
        <time>2026-02-10T13:26:29.000Z</time>
      </trkpt>
      <trkpt lat="43.61173" lon="6.02523">
        <ele>610</ele>
        <time>2026-02-10T13:26:30.000Z</time>
      </trkpt>
      <trkpt lat="43.61175" lon="6.02522">
        <ele>610</ele>
        <time>2026-02-10T13:26:32.000Z</time>
      </trkpt>
      <trkpt lat="43.61176" lon="6.02521">
        <ele>610</ele>
        <time>2026-02-10T13:26:33.000Z</time>
      </trkpt>
      <trkpt lat="43.61176" lon="6.0252">
        <ele>610</ele>
        <time>2026-02-10T13:26:34.000Z</time>
      </trkpt>
      <trkpt lat="43.61177" lon="6.0252">
        <ele>610</ele>
        <time>2026-02-10T13:26:35.000Z</time>
      </trkpt>
      <trkpt lat="43.61178" lon="6.0252">
        <ele>610</ele>
        <time>2026-02-10T13:26:36.000Z</time>
      </trkpt>
      <trkpt lat="43.61179" lon="6.0252">
        <ele>610</ele>
        <time>2026-02-10T13:26:37.000Z</time>
      </trkpt>
      <trkpt lat="43.6118" lon="6.02518">
        <ele>610</ele>
        <time>2026-02-10T13:26:39.000Z</time>
      </trkpt>
      <trkpt lat="43.61182" lon="6.02518">
        <ele>610</ele>
        <time>2026-02-10T13:26:41.000Z</time>
      </trkpt>
      <trkpt lat="43.61183" lon="6.02517">
        <ele>610</ele>
        <time>2026-02-10T13:26:42.000Z</time>
      </trkpt>
      <trkpt lat="43.61185" lon="6.02516">
        <ele>609</ele>
        <time>2026-02-10T13:26:44.000Z</time>
      </trkpt>
      <trkpt lat="43.61186" lon="6.02516">
        <ele>609</ele>
        <time>2026-02-10T13:26:45.000Z</time>
      </trkpt>
      <trkpt lat="43.61187" lon="6.02515">
        <ele>609</ele>
        <time>2026-02-10T13:26:46.000Z</time>
      </trkpt>
      <trkpt lat="43.61188" lon="6.02515">
        <ele>609</ele>
        <time>2026-02-10T13:26:47.000Z</time>
      </trkpt>
      <trkpt lat="43.61189" lon="6.02514">
        <ele>609</ele>
        <time>2026-02-10T13:26:48.000Z</time>
      </trkpt>
      <trkpt lat="43.6119" lon="6.02513">
        <ele>609</ele>
        <time>2026-02-10T13:26:49.000Z</time>
      </trkpt>
      <trkpt lat="43.61192" lon="6.02512">
        <ele>608</ele>
        <time>2026-02-10T13:26:51.000Z</time>
      </trkpt>
      <trkpt lat="43.61193" lon="6.02512">
        <ele>608</ele>
        <time>2026-02-10T13:26:52.000Z</time>
      </trkpt>
      <trkpt lat="43.61194" lon="6.02511">
        <ele>608</ele>
        <time>2026-02-10T13:26:53.000Z</time>
      </trkpt>
      <trkpt lat="43.61195" lon="6.0251">
        <ele>608</ele>
        <time>2026-02-10T13:26:54.000Z</time>
      </trkpt>
      <trkpt lat="43.61196" lon="6.02509">
        <ele>608</ele>
        <time>2026-02-10T13:26:55.000Z</time>
      </trkpt>
      <trkpt lat="43.61197" lon="6.02508">
        <ele>607</ele>
        <time>2026-02-10T13:26:56.000Z</time>
      </trkpt>
      <trkpt lat="43.61198" lon="6.02508">
        <ele>607</ele>
        <time>2026-02-10T13:26:57.000Z</time>
      </trkpt>
      <trkpt lat="43.61199" lon="6.02506">
        <ele>607</ele>
        <time>2026-02-10T13:26:59.000Z</time>
      </trkpt>
      <trkpt lat="43.612" lon="6.02505">
        <ele>607</ele>
        <time>2026-02-10T13:27:00.000Z</time>
      </trkpt>
      <trkpt lat="43.61201" lon="6.02503">
        <ele>607</ele>
        <time>2026-02-10T13:27:02.000Z</time>
      </trkpt>
      <trkpt lat="43.61201" lon="6.02502">
        <ele>607</ele>
        <time>2026-02-10T13:27:03.000Z</time>
      </trkpt>
      <trkpt lat="43.61202" lon="6.02501">
        <ele>607</ele>
        <time>2026-02-10T13:27:04.000Z</time>
      </trkpt>
      <trkpt lat="43.61203" lon="6.02499">
        <ele>606</ele>
        <time>2026-02-10T13:27:06.000Z</time>
      </trkpt>
      <trkpt lat="43.61204" lon="6.02498">
        <ele>606</ele>
        <time>2026-02-10T13:27:07.000Z</time>
      </trkpt>
      <trkpt lat="43.61205" lon="6.02497">
        <ele>606</ele>
        <time>2026-02-10T13:27:08.000Z</time>
      </trkpt>
      <trkpt lat="43.61206" lon="6.02495">
        <ele>606</ele>
        <time>2026-02-10T13:27:10.000Z</time>
      </trkpt>
      <trkpt lat="43.61206" lon="6.02494">
        <ele>606</ele>
        <time>2026-02-10T13:27:11.000Z</time>
      </trkpt>
      <trkpt lat="43.61206" lon="6.02492">
        <ele>606</ele>
        <time>2026-02-10T13:27:13.000Z</time>
      </trkpt>
      <trkpt lat="43.61206" lon="6.0249">
        <ele>606</ele>
        <time>2026-02-10T13:27:15.000Z</time>
      </trkpt>
      <trkpt lat="43.61207" lon="6.02488">
        <ele>606</ele>
        <time>2026-02-10T13:27:17.000Z</time>
      </trkpt>
      <trkpt lat="43.61207" lon="6.02487">
        <ele>606</ele>
        <time>2026-02-10T13:27:18.000Z</time>
      </trkpt>
      <trkpt lat="43.61208" lon="6.02485">
        <ele>606</ele>
        <time>2026-02-10T13:27:20.000Z</time>
      </trkpt>
      <trkpt lat="43.61208" lon="6.02484">
        <ele>606</ele>
        <time>2026-02-10T13:27:21.000Z</time>
      </trkpt>
      <trkpt lat="43.6121" lon="6.02482">
        <ele>605</ele>
        <time>2026-02-10T13:27:24.000Z</time>
      </trkpt>
      <trkpt lat="43.61211" lon="6.02481">
        <ele>605</ele>
        <time>2026-02-10T13:27:25.000Z</time>
      </trkpt>
      <trkpt lat="43.61212" lon="6.0248">
        <ele>605</ele>
        <time>2026-02-10T13:27:26.000Z</time>
      </trkpt>
      <trkpt lat="43.61212" lon="6.02478">
        <ele>605</ele>
        <time>2026-02-10T13:27:28.000Z</time>
      </trkpt>
      <trkpt lat="43.61211" lon="6.02477">
        <ele>605</ele>
        <time>2026-02-10T13:27:29.000Z</time>
      </trkpt>
      <trkpt lat="43.61212" lon="6.02475">
        <ele>605</ele>
        <time>2026-02-10T13:27:31.000Z</time>
      </trkpt>
      <trkpt lat="43.61212" lon="6.02474">
        <ele>605</ele>
        <time>2026-02-10T13:27:32.000Z</time>
      </trkpt>
      <trkpt lat="43.61212" lon="6.02472">
        <ele>605</ele>
        <time>2026-02-10T13:27:34.000Z</time>
      </trkpt>
      <trkpt lat="43.61213" lon="6.02471">
        <ele>605</ele>
        <time>2026-02-10T13:27:35.000Z</time>
      </trkpt>
      <trkpt lat="43.61213" lon="6.02469">
        <ele>605</ele>
        <time>2026-02-10T13:27:37.000Z</time>
      </trkpt>
      <trkpt lat="43.61214" lon="6.02468">
        <ele>604</ele>
        <time>2026-02-10T13:27:38.000Z</time>
      </trkpt>
      <trkpt lat="43.61215" lon="6.02466">
        <ele>604</ele>
        <time>2026-02-10T13:27:40.000Z</time>
      </trkpt>
      <trkpt lat="43.61215" lon="6.02465">
        <ele>604</ele>
        <time>2026-02-10T13:27:41.000Z</time>
      </trkpt>
      <trkpt lat="43.61216" lon="6.02463">
        <ele>604</ele>
        <time>2026-02-10T13:27:43.000Z</time>
      </trkpt>
      <trkpt lat="43.61216" lon="6.02461">
        <ele>604</ele>
        <time>2026-02-10T13:27:45.000Z</time>
      </trkpt>
      <trkpt lat="43.61216" lon="6.02459">
        <ele>604</ele>
        <time>2026-02-10T13:27:47.000Z</time>
      </trkpt>
      <trkpt lat="43.61215" lon="6.02457">
        <ele>604</ele>
        <time>2026-02-10T13:27:49.000Z</time>
      </trkpt>
      <trkpt lat="43.61216" lon="6.02455">
        <ele>604</ele>
        <time>2026-02-10T13:27:51.000Z</time>
      </trkpt>
      <trkpt lat="43.61216" lon="6.02453">
        <ele>604</ele>
        <time>2026-02-10T13:27:53.000Z</time>
      </trkpt>
      <trkpt lat="43.61216" lon="6.02452">
        <ele>604</ele>
        <time>2026-02-10T13:27:54.000Z</time>
      </trkpt>
      <trkpt lat="43.61215" lon="6.0245">
        <ele>604</ele>
        <time>2026-02-10T13:27:56.000Z</time>
      </trkpt>
      <trkpt lat="43.61215" lon="6.02448">
        <ele>604</ele>
        <time>2026-02-10T13:27:58.000Z</time>
      </trkpt>
      <trkpt lat="43.61215" lon="6.02446">
        <ele>604</ele>
        <time>2026-02-10T13:28:00.000Z</time>
      </trkpt>
      <trkpt lat="43.61215" lon="6.02444">
        <ele>604</ele>
        <time>2026-02-10T13:28:02.000Z</time>
      </trkpt>
      <trkpt lat="43.61216" lon="6.02442">
        <ele>604</ele>
        <time>2026-02-10T13:28:04.000Z</time>
      </trkpt>
      <trkpt lat="43.61215" lon="6.02441">
        <ele>604</ele>
        <time>2026-02-10T13:28:05.000Z</time>
      </trkpt>
      <trkpt lat="43.61215" lon="6.02439">
        <ele>604</ele>
        <time>2026-02-10T13:28:07.000Z</time>
      </trkpt>
      <trkpt lat="43.61215" lon="6.02437">
        <ele>604</ele>
        <time>2026-02-10T13:28:09.000Z</time>
      </trkpt>
      <trkpt lat="43.61215" lon="6.02436">
        <ele>604</ele>
        <time>2026-02-10T13:28:10.000Z</time>
      </trkpt>
      <trkpt lat="43.61215" lon="6.02434">
        <ele>604</ele>
        <time>2026-02-10T13:28:12.000Z</time>
      </trkpt>
      <trkpt lat="43.61215" lon="6.02432">
        <ele>604</ele>
        <time>2026-02-10T13:28:14.000Z</time>
      </trkpt>
      <trkpt lat="43.61215" lon="6.0243">
        <ele>604</ele>
        <time>2026-02-10T13:28:16.000Z</time>
      </trkpt>
      <trkpt lat="43.61215" lon="6.02428">
        <ele>604</ele>
        <time>2026-02-10T13:28:18.000Z</time>
      </trkpt>
      <trkpt lat="43.61214" lon="6.02426">
        <ele>604</ele>
        <time>2026-02-10T13:28:20.000Z</time>
      </trkpt>
      <trkpt lat="43.61214" lon="6.02424">
        <ele>603</ele>
        <time>2026-02-10T13:28:22.000Z</time>
      </trkpt>
      <trkpt lat="43.61213" lon="6.02422">
        <ele>603</ele>
        <time>2026-02-10T13:28:24.000Z</time>
      </trkpt>
      <trkpt lat="43.61213" lon="6.0242">
        <ele>603</ele>
        <time>2026-02-10T13:28:26.000Z</time>
      </trkpt>
      <trkpt lat="43.61212" lon="6.02418">
        <ele>603</ele>
        <time>2026-02-10T13:28:28.000Z</time>
      </trkpt>
      <trkpt lat="43.61212" lon="6.02416">
        <ele>603</ele>
        <time>2026-02-10T13:28:30.000Z</time>
      </trkpt>
      <trkpt lat="43.61212" lon="6.02414">
        <ele>603</ele>
        <time>2026-02-10T13:28:32.000Z</time>
      </trkpt>
      <trkpt lat="43.61212" lon="6.02412">
        <ele>603</ele>
        <time>2026-02-10T13:28:34.000Z</time>
      </trkpt>
      <trkpt lat="43.61212" lon="6.02411">
        <ele>603</ele>
        <time>2026-02-10T13:28:35.000Z</time>
      </trkpt>
      <trkpt lat="43.61212" lon="6.02409">
        <ele>603</ele>
        <time>2026-02-10T13:28:37.000Z</time>
      </trkpt>
      <trkpt lat="43.61211" lon="6.02407">
        <ele>603</ele>
        <time>2026-02-10T13:28:39.000Z</time>
      </trkpt>
      <trkpt lat="43.61211" lon="6.02406">
        <ele>603</ele>
        <time>2026-02-10T13:28:40.000Z</time>
      </trkpt>
      <trkpt lat="43.6121" lon="6.02404">
        <ele>603</ele>
        <time>2026-02-10T13:28:42.000Z</time>
      </trkpt>
      <trkpt lat="43.61209" lon="6.02402">
        <ele>603</ele>
        <time>2026-02-10T13:28:44.000Z</time>
      </trkpt>
      <trkpt lat="43.61208" lon="6.02401">
        <ele>603</ele>
        <time>2026-02-10T13:28:45.000Z</time>
      </trkpt>
      <trkpt lat="43.61208" lon="6.02399">
        <ele>603</ele>
        <time>2026-02-10T13:28:47.000Z</time>
      </trkpt>
      <trkpt lat="43.61208" lon="6.02397">
        <ele>603</ele>
        <time>2026-02-10T13:28:49.000Z</time>
      </trkpt>
      <trkpt lat="43.61208" lon="6.02396">
        <ele>604</ele>
        <time>2026-02-10T13:29:00.000Z</time>
      </trkpt>
      <trkpt lat="43.61207" lon="6.02394">
        <ele>604</ele>
        <time>2026-02-10T13:29:02.000Z</time>
      </trkpt>
      <trkpt lat="43.61207" lon="6.02393">
        <ele>604</ele>
        <time>2026-02-10T13:29:03.000Z</time>
      </trkpt>
      <trkpt lat="43.61207" lon="6.02392">
        <ele>604</ele>
        <time>2026-02-10T13:29:04.000Z</time>
      </trkpt>
      <trkpt lat="43.61206" lon="6.02391">
        <ele>604</ele>
        <time>2026-02-10T13:29:05.000Z</time>
      </trkpt>
      <trkpt lat="43.61206" lon="6.0239">
        <ele>604</ele>
        <time>2026-02-10T13:29:06.000Z</time>
      </trkpt>
      <trkpt lat="43.61206" lon="6.02389">
        <ele>604</ele>
        <time>2026-02-10T13:29:07.000Z</time>
      </trkpt>
      <trkpt lat="43.61206" lon="6.02387">
        <ele>604</ele>
        <time>2026-02-10T13:29:09.000Z</time>
      </trkpt>
      <trkpt lat="43.61207" lon="6.02385">
        <ele>604</ele>
        <time>2026-02-10T13:29:11.000Z</time>
      </trkpt>
      <trkpt lat="43.61207" lon="6.02384">
        <ele>604</ele>
        <time>2026-02-10T13:29:12.000Z</time>
      </trkpt>
      <trkpt lat="43.61208" lon="6.02382">
        <ele>604</ele>
        <time>2026-02-10T13:29:14.000Z</time>
      </trkpt>
      <trkpt lat="43.61209" lon="6.02381">
        <ele>604</ele>
        <time>2026-02-10T13:29:15.000Z</time>
      </trkpt>
      <trkpt lat="43.61209" lon="6.0238">
        <ele>604</ele>
        <time>2026-02-10T13:29:16.000Z</time>
      </trkpt>
      <trkpt lat="43.61209" lon="6.02379">
        <ele>604</ele>
        <time>2026-02-10T13:29:17.000Z</time>
      </trkpt>
      <trkpt lat="43.6121" lon="6.02377">
        <ele>604</ele>
        <time>2026-02-10T13:29:19.000Z</time>
      </trkpt>
      <trkpt lat="43.61211" lon="6.02376">
        <ele>604</ele>
        <time>2026-02-10T13:29:20.000Z</time>
      </trkpt>
      <trkpt lat="43.61211" lon="6.02374">
        <ele>604</ele>
        <time>2026-02-10T13:29:22.000Z</time>
      </trkpt>
      <trkpt lat="43.61212" lon="6.02373">
        <ele>604</ele>
        <time>2026-02-10T13:29:23.000Z</time>
      </trkpt>
      <trkpt lat="43.61212" lon="6.02373">
        <ele>604</ele>
        <time>2026-02-10T13:29:23.000Z</time>
      </trkpt>
      <trkpt lat="43.61212" lon="6.02371">
        <ele>605</ele>
        <time>2026-02-10T13:29:35.000Z</time>
      </trkpt>
      <trkpt lat="43.61212" lon="6.0237">
        <ele>605</ele>
        <time>2026-02-10T13:29:36.000Z</time>
      </trkpt>
      <trkpt lat="43.61212" lon="6.02369">
        <ele>605</ele>
        <time>2026-02-10T13:29:37.000Z</time>
      </trkpt>
      <trkpt lat="43.61212" lon="6.02368">
        <ele>605</ele>
        <time>2026-02-10T13:29:38.000Z</time>
      </trkpt>
      <trkpt lat="43.61214" lon="6.02367">
        <ele>605</ele>
        <time>2026-02-10T13:29:40.000Z</time>
      </trkpt>
      <trkpt lat="43.61215" lon="6.02366">
        <ele>605</ele>
        <time>2026-02-10T13:29:41.000Z</time>
      </trkpt>
      <trkpt lat="43.61216" lon="6.02366">
        <ele>605</ele>
        <time>2026-02-10T13:29:42.000Z</time>
      </trkpt>
      <trkpt lat="43.61217" lon="6.02365">
        <ele>605</ele>
        <time>2026-02-10T13:29:43.000Z</time>
      </trkpt>
      <trkpt lat="43.61218" lon="6.02364">
        <ele>605</ele>
        <time>2026-02-10T13:29:44.000Z</time>
      </trkpt>
      <trkpt lat="43.61219" lon="6.02364">
        <ele>605</ele>
        <time>2026-02-10T13:29:45.000Z</time>
      </trkpt>
      <trkpt lat="43.61219" lon="6.02363">
        <ele>605</ele>
        <time>2026-02-10T13:29:46.000Z</time>
      </trkpt>
      <trkpt lat="43.6122" lon="6.02363">
        <ele>605</ele>
        <time>2026-02-10T13:29:47.000Z</time>
      </trkpt>
      <trkpt lat="43.61221" lon="6.02362">
        <ele>605</ele>
        <time>2026-02-10T13:29:48.000Z</time>
      </trkpt>
      <trkpt lat="43.61222" lon="6.02361">
        <ele>605</ele>
        <time>2026-02-10T13:29:49.000Z</time>
      </trkpt>
      <trkpt lat="43.61224" lon="6.0236">
        <ele>605</ele>
        <time>2026-02-10T13:29:51.000Z</time>
      </trkpt>
      <trkpt lat="43.61225" lon="6.02359">
        <ele>605</ele>
        <time>2026-02-10T13:29:52.000Z</time>
      </trkpt>
      <trkpt lat="43.61224" lon="6.02359">
        <ele>605</ele>
        <time>2026-02-10T13:29:53.000Z</time>
      </trkpt>
      <trkpt lat="43.61224" lon="6.02359">
        <ele>605</ele>
        <time>2026-02-10T13:29:53.000Z</time>
      </trkpt>
      <trkpt lat="43.61225" lon="6.02359">
        <ele>605</ele>
        <time>2026-02-10T13:29:54.000Z</time>
      </trkpt>
      <trkpt lat="43.61226" lon="6.02358">
        <ele>605</ele>
        <time>2026-02-10T13:29:55.000Z</time>
      </trkpt>
      <trkpt lat="43.61226" lon="6.02358">
        <ele>605</ele>
        <time>2026-02-10T13:29:55.000Z</time>
      </trkpt>
      <trkpt lat="43.61228" lon="6.02357">
        <ele>605</ele>
        <time>2026-02-10T13:29:57.000Z</time>
      </trkpt>
      <trkpt lat="43.61228" lon="6.02357">
        <ele>605</ele>
        <time>2026-02-10T13:29:57.000Z</time>
      </trkpt>
      <trkpt lat="43.61229" lon="6.02357">
        <ele>605</ele>
        <time>2026-02-10T13:29:58.000Z</time>
      </trkpt>
      <trkpt lat="43.61231" lon="6.02356">
        <ele>605</ele>
        <time>2026-02-10T13:30:00.000Z</time>
      </trkpt>
      <trkpt lat="43.61233" lon="6.02356">
        <ele>605</ele>
        <time>2026-02-10T13:30:02.000Z</time>
      </trkpt>
      <trkpt lat="43.61233" lon="6.02355">
        <ele>606</ele>
        <time>2026-02-10T13:30:13.000Z</time>
      </trkpt>
      <trkpt lat="43.61234" lon="6.02355">
        <ele>606</ele>
        <time>2026-02-10T13:30:14.000Z</time>
      </trkpt>
      <trkpt lat="43.61236" lon="6.02355">
        <ele>606</ele>
        <time>2026-02-10T13:30:16.000Z</time>
      </trkpt>
      <trkpt lat="43.61237" lon="6.02355">
        <ele>606</ele>
        <time>2026-02-10T13:30:17.000Z</time>
      </trkpt>
      <trkpt lat="43.61238" lon="6.02353">
        <ele>606</ele>
        <time>2026-02-10T13:30:19.000Z</time>
      </trkpt>
      <trkpt lat="43.61239" lon="6.02352">
        <ele>606</ele>
        <time>2026-02-10T13:30:20.000Z</time>
      </trkpt>
      <trkpt lat="43.61241" lon="6.02352">
        <ele>606</ele>
        <time>2026-02-10T13:30:22.000Z</time>
      </trkpt>
      <trkpt lat="43.61243" lon="6.02353">
        <ele>605</ele>
        <time>2026-02-10T13:30:24.000Z</time>
      </trkpt>
      <trkpt lat="43.61243" lon="6.02352">
        <ele>605</ele>
        <time>2026-02-10T13:30:25.000Z</time>
      </trkpt>
      <trkpt lat="43.61244" lon="6.02353">
        <ele>605</ele>
        <time>2026-02-10T13:30:26.000Z</time>
      </trkpt>
      <trkpt lat="43.61245" lon="6.02352">
        <ele>605</ele>
        <time>2026-02-10T13:30:27.000Z</time>
      </trkpt>
      <trkpt lat="43.61245" lon="6.02351">
        <ele>605</ele>
        <time>2026-02-10T13:30:28.000Z</time>
      </trkpt>
      <trkpt lat="43.61245" lon="6.0235">
        <ele>605</ele>
        <time>2026-02-10T13:30:29.000Z</time>
      </trkpt>
      <trkpt lat="43.61246" lon="6.0235">
        <ele>605</ele>
        <time>2026-02-10T13:30:30.000Z</time>
      </trkpt>
      <trkpt lat="43.61247" lon="6.02349">
        <ele>605</ele>
        <time>2026-02-10T13:30:31.000Z</time>
      </trkpt>
      <trkpt lat="43.61248" lon="6.02347">
        <ele>605</ele>
        <time>2026-02-10T13:30:33.000Z</time>
      </trkpt>
      <trkpt lat="43.61248" lon="6.02345">
        <ele>606</ele>
        <time>2026-02-10T13:30:45.000Z</time>
      </trkpt>
      <trkpt lat="43.61249" lon="6.02344">
        <ele>606</ele>
        <time>2026-02-10T13:30:46.000Z</time>
      </trkpt>
      <trkpt lat="43.61249" lon="6.02343">
        <ele>606</ele>
        <time>2026-02-10T13:30:47.000Z</time>
      </trkpt>
      <trkpt lat="43.61251" lon="6.02341">
        <ele>606</ele>
        <time>2026-02-10T13:30:50.000Z</time>
      </trkpt>
      <trkpt lat="43.61252" lon="6.02339">
        <ele>607</ele>
        <time>2026-02-10T13:31:02.000Z</time>
      </trkpt>
      <trkpt lat="43.61253" lon="6.02337">
        <ele>607</ele>
        <time>2026-02-10T13:31:04.000Z</time>
      </trkpt>
      <trkpt lat="43.61253" lon="6.02335">
        <ele>608</ele>
        <time>2026-02-10T13:31:16.000Z</time>
      </trkpt>
      <trkpt lat="43.61253" lon="6.02333">
        <ele>608</ele>
        <time>2026-02-10T13:31:18.000Z</time>
      </trkpt>
      <trkpt lat="43.61252" lon="6.02332">
        <ele>609</ele>
        <time>2026-02-10T13:31:30.000Z</time>
      </trkpt>
      <trkpt lat="43.61253" lon="6.02331">
        <ele>609</ele>
        <time>2026-02-10T13:31:31.000Z</time>
      </trkpt>
      <trkpt lat="43.61252" lon="6.0233">
        <ele>609</ele>
        <time>2026-02-10T13:31:32.000Z</time>
      </trkpt>
      <trkpt lat="43.61252" lon="6.02328">
        <ele>609</ele>
        <time>2026-02-10T13:31:34.000Z</time>
      </trkpt>
      <trkpt lat="43.61252" lon="6.02327">
        <ele>609</ele>
        <time>2026-02-10T13:31:35.000Z</time>
      </trkpt>
      <trkpt lat="43.61251" lon="6.02327">
        <ele>609</ele>
        <time>2026-02-10T13:31:36.000Z</time>
      </trkpt>
      <trkpt lat="43.6125" lon="6.02326">
        <ele>609</ele>
        <time>2026-02-10T13:31:37.000Z</time>
      </trkpt>
      <trkpt lat="43.61249" lon="6.02325">
        <ele>609</ele>
        <time>2026-02-10T13:31:38.000Z</time>
      </trkpt>
      <trkpt lat="43.61248" lon="6.02324">
        <ele>609</ele>
        <time>2026-02-10T13:31:39.000Z</time>
      </trkpt>
      <trkpt lat="43.61248" lon="6.02322">
        <ele>610</ele>
        <time>2026-02-10T13:31:51.000Z</time>
      </trkpt>
      <trkpt lat="43.61248" lon="6.02321">
        <ele>610</ele>
        <time>2026-02-10T13:31:52.000Z</time>
      </trkpt>
      <trkpt lat="43.61249" lon="6.02318">
        <ele>611</ele>
        <time>2026-02-10T13:32:05.000Z</time>
      </trkpt>
      <trkpt lat="43.6125" lon="6.02316">
        <ele>611</ele>
        <time>2026-02-10T13:32:07.000Z</time>
      </trkpt>
      <trkpt lat="43.61251" lon="6.02315">
        <ele>611</ele>
        <time>2026-02-10T13:32:08.000Z</time>
      </trkpt>
      <trkpt lat="43.61249" lon="6.02314">
        <ele>611</ele>
        <time>2026-02-10T13:32:10.000Z</time>
      </trkpt>
      <trkpt lat="43.61247" lon="6.02314">
        <ele>610</ele>
        <time>2026-02-10T13:32:12.000Z</time>
      </trkpt>
      <trkpt lat="43.61246" lon="6.02314">
        <ele>610</ele>
        <time>2026-02-10T13:32:13.000Z</time>
      </trkpt>
      <trkpt lat="43.61245" lon="6.02312">
        <ele>611</ele>
        <time>2026-02-10T13:32:25.000Z</time>
      </trkpt>
      <trkpt lat="43.61244" lon="6.02311">
        <ele>611</ele>
        <time>2026-02-10T13:32:26.000Z</time>
      </trkpt>
      <trkpt lat="43.61243" lon="6.02309">
        <ele>612</ele>
        <time>2026-02-10T13:32:38.000Z</time>
      </trkpt>
      <trkpt lat="43.61242" lon="6.02308">
        <ele>612</ele>
        <time>2026-02-10T13:32:39.000Z</time>
      </trkpt>
      <trkpt lat="43.61241" lon="6.02308">
        <ele>612</ele>
        <time>2026-02-10T13:32:40.000Z</time>
      </trkpt>
      <trkpt lat="43.61241" lon="6.02307">
        <ele>612</ele>
        <time>2026-02-10T13:32:41.000Z</time>
      </trkpt>
      <trkpt lat="43.6124" lon="6.02306">
        <ele>612</ele>
        <time>2026-02-10T13:32:42.000Z</time>
      </trkpt>
      <trkpt lat="43.61239" lon="6.02303">
        <ele>612</ele>
        <time>2026-02-10T13:32:45.000Z</time>
      </trkpt>
      <trkpt lat="43.61239" lon="6.02301">
        <ele>612</ele>
        <time>2026-02-10T13:32:47.000Z</time>
      </trkpt>
      <trkpt lat="43.61238" lon="6.023">
        <ele>613</ele>
        <time>2026-02-10T13:32:59.000Z</time>
      </trkpt>
      <trkpt lat="43.61238" lon="6.02299">
        <ele>613</ele>
        <time>2026-02-10T13:33:00.000Z</time>
      </trkpt>
      <trkpt lat="43.61238" lon="6.02298">
        <ele>613</ele>
        <time>2026-02-10T13:33:01.000Z</time>
      </trkpt>
      <trkpt lat="43.61237" lon="6.02296">
        <ele>614</ele>
        <time>2026-02-10T13:33:13.000Z</time>
      </trkpt>
      <trkpt lat="43.61237" lon="6.02295">
        <ele>614</ele>
        <time>2026-02-10T13:33:14.000Z</time>
      </trkpt>
      <trkpt lat="43.61236" lon="6.02293">
        <ele>614</ele>
        <time>2026-02-10T13:33:16.000Z</time>
      </trkpt>
      <trkpt lat="43.61235" lon="6.02292">
        <ele>615</ele>
        <time>2026-02-10T13:33:28.000Z</time>
      </trkpt>
      <trkpt lat="43.61234" lon="6.02291">
        <ele>615</ele>
        <time>2026-02-10T13:33:29.000Z</time>
      </trkpt>
      <trkpt lat="43.61234" lon="6.0229">
        <ele>615</ele>
        <time>2026-02-10T13:33:30.000Z</time>
      </trkpt>
      <trkpt lat="43.61233" lon="6.02288">
        <ele>615</ele>
        <time>2026-02-10T13:33:32.000Z</time>
      </trkpt>
      <trkpt lat="43.61232" lon="6.02287">
        <ele>615</ele>
        <time>2026-02-10T13:33:33.000Z</time>
      </trkpt>
      <trkpt lat="43.61231" lon="6.02286">
        <ele>615</ele>
        <time>2026-02-10T13:33:34.000Z</time>
      </trkpt>
      <trkpt lat="43.61229" lon="6.02286">
        <ele>615</ele>
        <time>2026-02-10T13:33:36.000Z</time>
      </trkpt>
      <trkpt lat="43.61228" lon="6.02284">
        <ele>615</ele>
        <time>2026-02-10T13:33:38.000Z</time>
      </trkpt>
      <trkpt lat="43.61227" lon="6.02283">
        <ele>615</ele>
        <time>2026-02-10T13:33:39.000Z</time>
      </trkpt>
      <trkpt lat="43.61228" lon="6.02282">
        <ele>615</ele>
        <time>2026-02-10T13:33:40.000Z</time>
      </trkpt>
      <trkpt lat="43.61228" lon="6.02281">
        <ele>615</ele>
        <time>2026-02-10T13:33:41.000Z</time>
      </trkpt>
      <trkpt lat="43.61228" lon="6.0228">
        <ele>615</ele>
        <time>2026-02-10T13:33:42.000Z</time>
      </trkpt>
      <trkpt lat="43.61227" lon="6.02279">
        <ele>615</ele>
        <time>2026-02-10T13:33:43.000Z</time>
      </trkpt>
      <trkpt lat="43.61227" lon="6.02278">
        <ele>615</ele>
        <time>2026-02-10T13:33:44.000Z</time>
      </trkpt>
      <trkpt lat="43.61227" lon="6.02277">
        <ele>615</ele>
        <time>2026-02-10T13:33:45.000Z</time>
      </trkpt>
      <trkpt lat="43.61226" lon="6.02276">
        <ele>615</ele>
        <time>2026-02-10T13:33:46.000Z</time>
      </trkpt>
      <trkpt lat="43.61226" lon="6.02274">
        <ele>616</ele>
        <time>2026-02-10T13:33:58.000Z</time>
      </trkpt>
      <trkpt lat="43.61226" lon="6.02272">
        <ele>616</ele>
        <time>2026-02-10T13:34:00.000Z</time>
      </trkpt>
      <trkpt lat="43.61226" lon="6.02271">
        <ele>616</ele>
        <time>2026-02-10T13:34:01.000Z</time>
      </trkpt>
      <trkpt lat="43.61225" lon="6.02269">
        <ele>616</ele>
        <time>2026-02-10T13:34:03.000Z</time>
      </trkpt>
      <trkpt lat="43.61224" lon="6.02269">
        <ele>616</ele>
        <time>2026-02-10T13:34:04.000Z</time>
      </trkpt>
      <trkpt lat="43.61222" lon="6.02267">
        <ele>616</ele>
        <time>2026-02-10T13:34:07.000Z</time>
      </trkpt>
      <trkpt lat="43.61222" lon="6.02266">
        <ele>616</ele>
        <time>2026-02-10T13:34:08.000Z</time>
      </trkpt>
      <trkpt lat="43.61221" lon="6.02265">
        <ele>617</ele>
        <time>2026-02-10T13:34:20.000Z</time>
      </trkpt>
      <trkpt lat="43.6122" lon="6.02264">
        <ele>617</ele>
        <time>2026-02-10T13:34:21.000Z</time>
      </trkpt>
      <trkpt lat="43.61221" lon="6.02263">
        <ele>617</ele>
        <time>2026-02-10T13:34:22.000Z</time>
      </trkpt>
      <trkpt lat="43.6122" lon="6.02262">
        <ele>617</ele>
        <time>2026-02-10T13:34:23.000Z</time>
      </trkpt>
      <trkpt lat="43.6122" lon="6.02261">
        <ele>617</ele>
        <time>2026-02-10T13:34:24.000Z</time>
      </trkpt>
      <trkpt lat="43.61219" lon="6.02259">
        <ele>617</ele>
        <time>2026-02-10T13:34:26.000Z</time>
      </trkpt>
      <trkpt lat="43.61218" lon="6.02258">
        <ele>617</ele>
        <time>2026-02-10T13:34:27.000Z</time>
      </trkpt>
      <trkpt lat="43.61218" lon="6.02257">
        <ele>617</ele>
        <time>2026-02-10T13:34:28.000Z</time>
      </trkpt>
      <trkpt lat="43.61217" lon="6.02255">
        <ele>618</ele>
        <time>2026-02-10T13:34:40.000Z</time>
      </trkpt>
      <trkpt lat="43.61216" lon="6.02253">
        <ele>618</ele>
        <time>2026-02-10T13:34:42.000Z</time>
      </trkpt>
      <trkpt lat="43.61215" lon="6.02252">
        <ele>618</ele>
        <time>2026-02-10T13:34:43.000Z</time>
      </trkpt>
      <trkpt lat="43.61214" lon="6.0225">
        <ele>618</ele>
        <time>2026-02-10T13:34:45.000Z</time>
      </trkpt>
      <trkpt lat="43.61213" lon="6.02249">
        <ele>618</ele>
        <time>2026-02-10T13:34:46.000Z</time>
      </trkpt>
      <trkpt lat="43.61212" lon="6.02248">
        <ele>618</ele>
        <time>2026-02-10T13:34:47.000Z</time>
      </trkpt>
      <trkpt lat="43.61212" lon="6.02248">
        <ele>618</ele>
        <time>2026-02-10T13:34:47.000Z</time>
      </trkpt>
      <trkpt lat="43.61212" lon="6.02247">
        <ele>618</ele>
        <time>2026-02-10T13:34:48.000Z</time>
      </trkpt>
      <trkpt lat="43.61211" lon="6.02245">
        <ele>618</ele>
        <time>2026-02-10T13:34:50.000Z</time>
      </trkpt>
      <trkpt lat="43.6121" lon="6.02243">
        <ele>618</ele>
        <time>2026-02-10T13:34:52.000Z</time>
      </trkpt>
      <trkpt lat="43.6121" lon="6.02241">
        <ele>618</ele>
        <time>2026-02-10T13:34:54.000Z</time>
      </trkpt>
      <trkpt lat="43.61208" lon="6.0224">
        <ele>618</ele>
        <time>2026-02-10T13:34:56.000Z</time>
      </trkpt>
      <trkpt lat="43.61207" lon="6.02238">
        <ele>618</ele>
        <time>2026-02-10T13:34:58.000Z</time>
      </trkpt>
      <trkpt lat="43.61206" lon="6.02237">
        <ele>618</ele>
        <time>2026-02-10T13:34:59.000Z</time>
      </trkpt>
      <trkpt lat="43.61204" lon="6.02235">
        <ele>618</ele>
        <time>2026-02-10T13:35:02.000Z</time>
      </trkpt>
      <trkpt lat="43.61204" lon="6.02235">
        <ele>618</ele>
        <time>2026-02-10T13:35:02.000Z</time>
      </trkpt>
      <trkpt lat="43.61204" lon="6.02233">
        <ele>618</ele>
        <time>2026-02-10T13:35:04.000Z</time>
      </trkpt>
      <trkpt lat="43.61204" lon="6.02232">
        <ele>619</ele>
        <time>2026-02-10T13:35:15.000Z</time>
      </trkpt>
      <trkpt lat="43.61204" lon="6.02231">
        <ele>619</ele>
        <time>2026-02-10T13:35:16.000Z</time>
      </trkpt>
      <trkpt lat="43.61203" lon="6.0223">
        <ele>619</ele>
        <time>2026-02-10T13:35:17.000Z</time>
      </trkpt>
      <trkpt lat="43.61203" lon="6.02229">
        <ele>619</ele>
        <time>2026-02-10T13:35:18.000Z</time>
      </trkpt>
      <trkpt lat="43.61202" lon="6.02228">
        <ele>619</ele>
        <time>2026-02-10T13:35:19.000Z</time>
      </trkpt>
      <trkpt lat="43.61201" lon="6.02227">
        <ele>619</ele>
        <time>2026-02-10T13:35:20.000Z</time>
      </trkpt>
      <trkpt lat="43.61201" lon="6.02226">
        <ele>619</ele>
        <time>2026-02-10T13:35:21.000Z</time>
      </trkpt>
      <trkpt lat="43.61198" lon="6.02223">
        <ele>620</ele>
        <time>2026-02-10T13:35:36.000Z</time>
      </trkpt>
      <trkpt lat="43.61197" lon="6.02222">
        <ele>620</ele>
        <time>2026-02-10T13:35:37.000Z</time>
      </trkpt>
      <trkpt lat="43.61196" lon="6.0222">
        <ele>621</ele>
        <time>2026-02-10T13:35:49.000Z</time>
      </trkpt>
      <trkpt lat="43.61195" lon="6.02219">
        <ele>621</ele>
        <time>2026-02-10T13:35:50.000Z</time>
      </trkpt>
      <trkpt lat="43.61194" lon="6.02218">
        <ele>621</ele>
        <time>2026-02-10T13:35:51.000Z</time>
      </trkpt>
      <trkpt lat="43.61194" lon="6.02216">
        <ele>621</ele>
        <time>2026-02-10T13:35:53.000Z</time>
      </trkpt>
      <trkpt lat="43.61193" lon="6.02215">
        <ele>621</ele>
        <time>2026-02-10T13:35:54.000Z</time>
      </trkpt>
      <trkpt lat="43.61192" lon="6.02213">
        <ele>622</ele>
        <time>2026-02-10T13:36:06.000Z</time>
      </trkpt>
      <trkpt lat="43.6119" lon="6.02211">
        <ele>622</ele>
        <time>2026-02-10T13:36:09.000Z</time>
      </trkpt>
      <trkpt lat="43.61189" lon="6.0221">
        <ele>622</ele>
        <time>2026-02-10T13:36:10.000Z</time>
      </trkpt>
      <trkpt lat="43.61189" lon="6.02209">
        <ele>622</ele>
        <time>2026-02-10T13:36:11.000Z</time>
      </trkpt>
      <trkpt lat="43.61189" lon="6.02208">
        <ele>622</ele>
        <time>2026-02-10T13:36:12.000Z</time>
      </trkpt>
      <trkpt lat="43.61188" lon="6.02207">
        <ele>622</ele>
        <time>2026-02-10T13:36:13.000Z</time>
      </trkpt>
      <trkpt lat="43.61187" lon="6.02206">
        <ele>622</ele>
        <time>2026-02-10T13:36:14.000Z</time>
      </trkpt>
      <trkpt lat="43.61186" lon="6.02206">
        <ele>622</ele>
        <time>2026-02-10T13:36:15.000Z</time>
      </trkpt>
      <trkpt lat="43.61184" lon="6.02205">
        <ele>622</ele>
        <time>2026-02-10T13:36:17.000Z</time>
      </trkpt>
      <trkpt lat="43.61183" lon="6.02204">
        <ele>622</ele>
        <time>2026-02-10T13:36:18.000Z</time>
      </trkpt>
      <trkpt lat="43.61182" lon="6.02203">
        <ele>622</ele>
        <time>2026-02-10T13:36:19.000Z</time>
      </trkpt>
      <trkpt lat="43.61181" lon="6.02201">
        <ele>622</ele>
        <time>2026-02-10T13:36:21.000Z</time>
      </trkpt>
      <trkpt lat="43.6118" lon="6.022">
        <ele>622</ele>
        <time>2026-02-10T13:36:22.000Z</time>
      </trkpt>
      <trkpt lat="43.6118" lon="6.022">
        <ele>622</ele>
        <time>2026-02-10T13:36:22.000Z</time>
      </trkpt>
      <trkpt lat="43.6118" lon="6.02199">
        <ele>622</ele>
        <time>2026-02-10T13:36:23.000Z</time>
      </trkpt>
      <trkpt lat="43.61178" lon="6.02199">
        <ele>622</ele>
        <time>2026-02-10T13:36:25.000Z</time>
      </trkpt>
      <trkpt lat="43.61177" lon="6.02198">
        <ele>622</ele>
        <time>2026-02-10T13:36:26.000Z</time>
      </trkpt>
      <trkpt lat="43.61176" lon="6.02198">
        <ele>622</ele>
        <time>2026-02-10T13:36:27.000Z</time>
      </trkpt>
      <trkpt lat="43.61175" lon="6.02197">
        <ele>622</ele>
        <time>2026-02-10T13:36:28.000Z</time>
      </trkpt>
      <trkpt lat="43.61174" lon="6.02195">
        <ele>622</ele>
        <time>2026-02-10T13:36:30.000Z</time>
      </trkpt>
      <trkpt lat="43.61174" lon="6.02194">
        <ele>622</ele>
        <time>2026-02-10T13:36:31.000Z</time>
      </trkpt>
      <trkpt lat="43.61173" lon="6.02193">
        <ele>623</ele>
        <time>2026-02-10T13:36:43.000Z</time>
      </trkpt>
      <trkpt lat="43.61173" lon="6.02192">
        <ele>623</ele>
        <time>2026-02-10T13:36:44.000Z</time>
      </trkpt>
      <trkpt lat="43.61172" lon="6.02192">
        <ele>623</ele>
        <time>2026-02-10T13:36:45.000Z</time>
      </trkpt>
      <trkpt lat="43.61171" lon="6.02191">
        <ele>623</ele>
        <time>2026-02-10T13:36:46.000Z</time>
      </trkpt>
      <trkpt lat="43.61171" lon="6.0219">
        <ele>623</ele>
        <time>2026-02-10T13:36:47.000Z</time>
      </trkpt>
      <trkpt lat="43.6117" lon="6.02189">
        <ele>623</ele>
        <time>2026-02-10T13:36:48.000Z</time>
      </trkpt>
      <trkpt lat="43.6117" lon="6.02188">
        <ele>623</ele>
        <time>2026-02-10T13:36:49.000Z</time>
      </trkpt>
      <trkpt lat="43.61168" lon="6.02186">
        <ele>623</ele>
        <time>2026-02-10T13:36:52.000Z</time>
      </trkpt>
      <trkpt lat="43.61167" lon="6.02185">
        <ele>623</ele>
        <time>2026-02-10T13:36:53.000Z</time>
      </trkpt>
      <trkpt lat="43.61167" lon="6.02184">
        <ele>623</ele>
        <time>2026-02-10T13:36:54.000Z</time>
      </trkpt>
      <trkpt lat="43.61166" lon="6.02183">
        <ele>623</ele>
        <time>2026-02-10T13:36:55.000Z</time>
      </trkpt>
      <trkpt lat="43.61166" lon="6.02182">
        <ele>624</ele>
        <time>2026-02-10T13:37:06.000Z</time>
      </trkpt>
      <trkpt lat="43.61165" lon="6.02181">
        <ele>624</ele>
        <time>2026-02-10T13:37:07.000Z</time>
      </trkpt>
      <trkpt lat="43.61164" lon="6.02179">
        <ele>624</ele>
        <time>2026-02-10T13:37:09.000Z</time>
      </trkpt>
      <trkpt lat="43.61163" lon="6.02178">
        <ele>623</ele>
        <time>2026-02-10T13:37:10.000Z</time>
      </trkpt>
      <trkpt lat="43.61162" lon="6.02177">
        <ele>623</ele>
        <time>2026-02-10T13:37:11.000Z</time>
      </trkpt>
      <trkpt lat="43.61161" lon="6.02176">
        <ele>623</ele>
        <time>2026-02-10T13:37:12.000Z</time>
      </trkpt>
      <trkpt lat="43.6116" lon="6.02174">
        <ele>623</ele>
        <time>2026-02-10T13:37:14.000Z</time>
      </trkpt>
      <trkpt lat="43.6116" lon="6.02173">
        <ele>623</ele>
        <time>2026-02-10T13:37:15.000Z</time>
      </trkpt>
      <trkpt lat="43.6116" lon="6.02172">
        <ele>623</ele>
        <time>2026-02-10T13:37:16.000Z</time>
      </trkpt>
      <trkpt lat="43.61159" lon="6.0217">
        <ele>624</ele>
        <time>2026-02-10T13:37:28.000Z</time>
      </trkpt>
      <trkpt lat="43.61159" lon="6.0217">
        <ele>624</ele>
        <time>2026-02-10T13:37:28.000Z</time>
      </trkpt>
      <trkpt lat="43.61158" lon="6.02168">
        <ele>624</ele>
        <time>2026-02-10T13:37:30.000Z</time>
      </trkpt>
      <trkpt lat="43.61158" lon="6.02167">
        <ele>624</ele>
        <time>2026-02-10T13:37:31.000Z</time>
      </trkpt>
      <trkpt lat="43.61158" lon="6.02166">
        <ele>624</ele>
        <time>2026-02-10T13:37:32.000Z</time>
      </trkpt>
      <trkpt lat="43.61158" lon="6.02165">
        <ele>625</ele>
        <time>2026-02-10T13:37:43.000Z</time>
      </trkpt>
      <trkpt lat="43.61158" lon="6.02163">
        <ele>625</ele>
        <time>2026-02-10T13:37:45.000Z</time>
      </trkpt>
      <trkpt lat="43.61158" lon="6.02162">
        <ele>625</ele>
        <time>2026-02-10T13:37:46.000Z</time>
      </trkpt>
      <trkpt lat="43.61158" lon="6.02161">
        <ele>625</ele>
        <time>2026-02-10T13:37:47.000Z</time>
      </trkpt>
      <trkpt lat="43.61158" lon="6.0216">
        <ele>625</ele>
        <time>2026-02-10T13:37:48.000Z</time>
      </trkpt>
      <trkpt lat="43.61157" lon="6.02159">
        <ele>626</ele>
        <time>2026-02-10T13:38:00.000Z</time>
      </trkpt>
      <trkpt lat="43.61157" lon="6.02157">
        <ele>626</ele>
        <time>2026-02-10T13:38:02.000Z</time>
      </trkpt>
      <trkpt lat="43.61157" lon="6.02156">
        <ele>626</ele>
        <time>2026-02-10T13:38:03.000Z</time>
      </trkpt>
      <trkpt lat="43.61158" lon="6.02154">
        <ele>626</ele>
        <time>2026-02-10T13:38:05.000Z</time>
      </trkpt>
      <trkpt lat="43.61158" lon="6.02153">
        <ele>626</ele>
        <time>2026-02-10T13:38:06.000Z</time>
      </trkpt>
      <trkpt lat="43.61158" lon="6.02151">
        <ele>627</ele>
        <time>2026-02-10T13:38:18.000Z</time>
      </trkpt>
      <trkpt lat="43.61159" lon="6.0215">
        <ele>627</ele>
        <time>2026-02-10T13:38:19.000Z</time>
      </trkpt>
      <trkpt lat="43.61159" lon="6.02148">
        <ele>627</ele>
        <time>2026-02-10T13:38:21.000Z</time>
      </trkpt>
      <trkpt lat="43.61159" lon="6.02147">
        <ele>627</ele>
        <time>2026-02-10T13:38:22.000Z</time>
      </trkpt>
      <trkpt lat="43.61159" lon="6.02146">
        <ele>627</ele>
        <time>2026-02-10T13:38:23.000Z</time>
      </trkpt>
      <trkpt lat="43.61159" lon="6.02145">
        <ele>627</ele>
        <time>2026-02-10T13:38:24.000Z</time>
      </trkpt>
      <trkpt lat="43.6116" lon="6.02143">
        <ele>627</ele>
        <time>2026-02-10T13:38:26.000Z</time>
      </trkpt>
      <trkpt lat="43.6116" lon="6.02142">
        <ele>627</ele>
        <time>2026-02-10T13:38:27.000Z</time>
      </trkpt>
      <trkpt lat="43.6116" lon="6.02141">
        <ele>627</ele>
        <time>2026-02-10T13:38:28.000Z</time>
      </trkpt>
      <trkpt lat="43.6116" lon="6.0214">
        <ele>627</ele>
        <time>2026-02-10T13:38:29.000Z</time>
      </trkpt>
      <trkpt lat="43.6116" lon="6.02138">
        <ele>627</ele>
        <time>2026-02-10T13:38:31.000Z</time>
      </trkpt>
      <trkpt lat="43.6116" lon="6.02136">
        <ele>627</ele>
        <time>2026-02-10T13:38:33.000Z</time>
      </trkpt>
      <trkpt lat="43.61159" lon="6.02134">
        <ele>627</ele>
        <time>2026-02-10T13:38:35.000Z</time>
      </trkpt>
      <trkpt lat="43.61159" lon="6.02133">
        <ele>627</ele>
        <time>2026-02-10T13:38:36.000Z</time>
      </trkpt>
      <trkpt lat="43.61159" lon="6.02131">
        <ele>627</ele>
        <time>2026-02-10T13:38:38.000Z</time>
      </trkpt>
      <trkpt lat="43.61159" lon="6.02129">
        <ele>628</ele>
        <time>2026-02-10T13:38:50.000Z</time>
      </trkpt>
      <trkpt lat="43.61159" lon="6.02127">
        <ele>628</ele>
        <time>2026-02-10T13:38:52.000Z</time>
      </trkpt>
      <trkpt lat="43.6116" lon="6.02125">
        <ele>628</ele>
        <time>2026-02-10T13:38:54.000Z</time>
      </trkpt>
      <trkpt lat="43.61159" lon="6.02123">
        <ele>628</ele>
        <time>2026-02-10T13:38:56.000Z</time>
      </trkpt>
      <trkpt lat="43.61158" lon="6.02122">
        <ele>628</ele>
        <time>2026-02-10T13:38:57.000Z</time>
      </trkpt>
      <trkpt lat="43.61159" lon="6.0212">
        <ele>628</ele>
        <time>2026-02-10T13:38:59.000Z</time>
      </trkpt>
      <trkpt lat="43.61159" lon="6.02119">
        <ele>628</ele>
        <time>2026-02-10T13:39:00.000Z</time>
      </trkpt>
      <trkpt lat="43.61159" lon="6.02117">
        <ele>628</ele>
        <time>2026-02-10T13:39:02.000Z</time>
      </trkpt>
      <trkpt lat="43.61159" lon="6.02115">
        <ele>628</ele>
        <time>2026-02-10T13:39:04.000Z</time>
      </trkpt>
      <trkpt lat="43.6116" lon="6.02114">
        <ele>628</ele>
        <time>2026-02-10T13:39:05.000Z</time>
      </trkpt>
      <trkpt lat="43.6116" lon="6.02112">
        <ele>628</ele>
        <time>2026-02-10T13:39:07.000Z</time>
      </trkpt>
      <trkpt lat="43.6116" lon="6.0211">
        <ele>628</ele>
        <time>2026-02-10T13:39:09.000Z</time>
      </trkpt>
      <trkpt lat="43.6116" lon="6.02108">
        <ele>629</ele>
        <time>2026-02-10T13:39:21.000Z</time>
      </trkpt>
      <trkpt lat="43.6116" lon="6.02107">
        <ele>629</ele>
        <time>2026-02-10T13:39:22.000Z</time>
      </trkpt>
      <trkpt lat="43.6116" lon="6.02104">
        <ele>629</ele>
        <time>2026-02-10T13:39:24.000Z</time>
      </trkpt>
      <trkpt lat="43.6116" lon="6.02103">
        <ele>629</ele>
        <time>2026-02-10T13:39:25.000Z</time>
      </trkpt>
      <trkpt lat="43.61159" lon="6.02101">
        <ele>629</ele>
        <time>2026-02-10T13:39:27.000Z</time>
      </trkpt>
      <trkpt lat="43.61159" lon="6.02099">
        <ele>629</ele>
        <time>2026-02-10T13:39:29.000Z</time>
      </trkpt>
      <trkpt lat="43.6116" lon="6.02098">
        <ele>629</ele>
        <time>2026-02-10T13:39:30.000Z</time>
      </trkpt>
      <trkpt lat="43.6116" lon="6.02096">
        <ele>629</ele>
        <time>2026-02-10T13:39:32.000Z</time>
      </trkpt>
      <trkpt lat="43.6116" lon="6.02095">
        <ele>629</ele>
        <time>2026-02-10T13:39:33.000Z</time>
      </trkpt>
      <trkpt lat="43.6116" lon="6.02094">
        <ele>629</ele>
        <time>2026-02-10T13:39:34.000Z</time>
      </trkpt>
      <trkpt lat="43.6116" lon="6.02093">
        <ele>629</ele>
        <time>2026-02-10T13:39:35.000Z</time>
      </trkpt>
      <trkpt lat="43.6116" lon="6.02091">
        <ele>629</ele>
        <time>2026-02-10T13:39:37.000Z</time>
      </trkpt>
      <trkpt lat="43.6116" lon="6.02089">
        <ele>629</ele>
        <time>2026-02-10T13:39:39.000Z</time>
      </trkpt>
      <trkpt lat="43.6116" lon="6.02087">
        <ele>629</ele>
        <time>2026-02-10T13:39:41.000Z</time>
      </trkpt>
      <trkpt lat="43.61161" lon="6.02086">
        <ele>629</ele>
        <time>2026-02-10T13:39:42.000Z</time>
      </trkpt>
      <trkpt lat="43.61161" lon="6.02084">
        <ele>629</ele>
        <time>2026-02-10T13:39:44.000Z</time>
      </trkpt>
      <trkpt lat="43.61162" lon="6.02083">
        <ele>629</ele>
        <time>2026-02-10T13:39:45.000Z</time>
      </trkpt>
      <trkpt lat="43.61161" lon="6.0208">
        <ele>629</ele>
        <time>2026-02-10T13:39:48.000Z</time>
      </trkpt>
      <trkpt lat="43.61162" lon="6.02079">
        <ele>629</ele>
        <time>2026-02-10T13:39:49.000Z</time>
      </trkpt>
      <trkpt lat="43.61162" lon="6.02078">
        <ele>629</ele>
        <time>2026-02-10T13:39:50.000Z</time>
      </trkpt>
      <trkpt lat="43.61163" lon="6.02076">
        <ele>629</ele>
        <time>2026-02-10T13:39:52.000Z</time>
      </trkpt>
      <trkpt lat="43.61164" lon="6.02074">
        <ele>630</ele>
        <time>2026-02-10T13:40:04.000Z</time>
      </trkpt>
      <trkpt lat="43.61164" lon="6.02072">
        <ele>630</ele>
        <time>2026-02-10T13:40:06.000Z</time>
      </trkpt>
      <trkpt lat="43.61164" lon="6.0207">
        <ele>630</ele>
        <time>2026-02-10T13:40:08.000Z</time>
      </trkpt>
      <trkpt lat="43.61163" lon="6.02068">
        <ele>629</ele>
        <time>2026-02-10T13:40:10.000Z</time>
      </trkpt>
      <trkpt lat="43.61164" lon="6.02066">
        <ele>630</ele>
        <time>2026-02-10T13:40:22.000Z</time>
      </trkpt>
      <trkpt lat="43.61164" lon="6.02065">
        <ele>630</ele>
        <time>2026-02-10T13:40:23.000Z</time>
      </trkpt>
      <trkpt lat="43.61164" lon="6.02063">
        <ele>630</ele>
        <time>2026-02-10T13:40:25.000Z</time>
      </trkpt>
      <trkpt lat="43.61163" lon="6.02061">
        <ele>629</ele>
        <time>2026-02-10T13:40:27.000Z</time>
      </trkpt>
      <trkpt lat="43.61163" lon="6.02059">
        <ele>629</ele>
        <time>2026-02-10T13:40:29.000Z</time>
      </trkpt>
      <trkpt lat="43.61162" lon="6.02057">
        <ele>629</ele>
        <time>2026-02-10T13:40:31.000Z</time>
      </trkpt>
      <trkpt lat="43.61162" lon="6.02055">
        <ele>629</ele>
        <time>2026-02-10T13:40:33.000Z</time>
      </trkpt>
      <trkpt lat="43.61161" lon="6.02054">
        <ele>630</ele>
        <time>2026-02-10T13:40:45.000Z</time>
      </trkpt>
      <trkpt lat="43.61161" lon="6.02052">
        <ele>630</ele>
        <time>2026-02-10T13:40:47.000Z</time>
      </trkpt>
      <trkpt lat="43.61161" lon="6.02051">
        <ele>630</ele>
        <time>2026-02-10T13:40:48.000Z</time>
      </trkpt>
      <trkpt lat="43.61161" lon="6.02049">
        <ele>630</ele>
        <time>2026-02-10T13:40:50.000Z</time>
      </trkpt>
      <trkpt lat="43.61162" lon="6.02047">
        <ele>630</ele>
        <time>2026-02-10T13:40:52.000Z</time>
      </trkpt>
      <trkpt lat="43.61161" lon="6.02045">
        <ele>630</ele>
        <time>2026-02-10T13:40:54.000Z</time>
      </trkpt>
      <trkpt lat="43.61161" lon="6.02044">
        <ele>630</ele>
        <time>2026-02-10T13:40:55.000Z</time>
      </trkpt>
      <trkpt lat="43.61161" lon="6.02041">
        <ele>630</ele>
        <time>2026-02-10T13:40:57.000Z</time>
      </trkpt>
      <trkpt lat="43.6116" lon="6.0204">
        <ele>630</ele>
        <time>2026-02-10T13:40:58.000Z</time>
      </trkpt>
      <trkpt lat="43.6116" lon="6.02038">
        <ele>630</ele>
        <time>2026-02-10T13:41:00.000Z</time>
      </trkpt>
      <trkpt lat="43.6116" lon="6.02036">
        <ele>629</ele>
        <time>2026-02-10T13:41:02.000Z</time>
      </trkpt>
      <trkpt lat="43.61161" lon="6.02034">
        <ele>629</ele>
        <time>2026-02-10T13:41:04.000Z</time>
      </trkpt>
      <trkpt lat="43.6116" lon="6.02033">
        <ele>629</ele>
        <time>2026-02-10T13:41:05.000Z</time>
      </trkpt>
      <trkpt lat="43.6116" lon="6.02031">
        <ele>629</ele>
        <time>2026-02-10T13:41:07.000Z</time>
      </trkpt>
      <trkpt lat="43.6116" lon="6.0203">
        <ele>629</ele>
        <time>2026-02-10T13:41:08.000Z</time>
      </trkpt>
      <trkpt lat="43.61161" lon="6.02028">
        <ele>629</ele>
        <time>2026-02-10T13:41:10.000Z</time>
      </trkpt>
      <trkpt lat="43.61161" lon="6.02026">
        <ele>629</ele>
        <time>2026-02-10T13:41:12.000Z</time>
      </trkpt>
      <trkpt lat="43.61161" lon="6.02024">
        <ele>629</ele>
        <time>2026-02-10T13:41:14.000Z</time>
      </trkpt>
      <trkpt lat="43.61161" lon="6.02022">
        <ele>629</ele>
        <time>2026-02-10T13:41:16.000Z</time>
      </trkpt>
      <trkpt lat="43.61161" lon="6.02021">
        <ele>629</ele>
        <time>2026-02-10T13:41:17.000Z</time>
      </trkpt>
      <trkpt lat="43.61161" lon="6.02019">
        <ele>629</ele>
        <time>2026-02-10T13:41:19.000Z</time>
      </trkpt>
      <trkpt lat="43.61162" lon="6.02018">
        <ele>629</ele>
        <time>2026-02-10T13:41:20.000Z</time>
      </trkpt>
      <trkpt lat="43.61163" lon="6.02016">
        <ele>630</ele>
        <time>2026-02-10T13:41:32.000Z</time>
      </trkpt>
      <trkpt lat="43.61163" lon="6.02015">
        <ele>630</ele>
        <time>2026-02-10T13:41:33.000Z</time>
      </trkpt>
      <trkpt lat="43.61164" lon="6.02014">
        <ele>630</ele>
        <time>2026-02-10T13:41:34.000Z</time>
      </trkpt>
      <trkpt lat="43.61164" lon="6.02012">
        <ele>630</ele>
        <time>2026-02-10T13:41:36.000Z</time>
      </trkpt>
      <trkpt lat="43.61165" lon="6.02011">
        <ele>631</ele>
        <time>2026-02-10T13:41:48.000Z</time>
      </trkpt>
      <trkpt lat="43.61165" lon="6.0201">
        <ele>631</ele>
        <time>2026-02-10T13:41:49.000Z</time>
      </trkpt>
      <trkpt lat="43.61166" lon="6.02009">
        <ele>631</ele>
        <time>2026-02-10T13:41:50.000Z</time>
      </trkpt>
      <trkpt lat="43.61166" lon="6.02007">
        <ele>631</ele>
        <time>2026-02-10T13:41:52.000Z</time>
      </trkpt>
      <trkpt lat="43.61165" lon="6.02006">
        <ele>630</ele>
        <time>2026-02-10T13:41:53.000Z</time>
      </trkpt>
      <trkpt lat="43.61165" lon="6.02005">
        <ele>630</ele>
        <time>2026-02-10T13:41:54.000Z</time>
      </trkpt>
      <trkpt lat="43.61165" lon="6.02003">
        <ele>630</ele>
        <time>2026-02-10T13:41:56.000Z</time>
      </trkpt>
      <trkpt lat="43.61166" lon="6.02002">
        <ele>630</ele>
        <time>2026-02-10T13:41:57.000Z</time>
      </trkpt>
      <trkpt lat="43.61166" lon="6.02001">
        <ele>630</ele>
        <time>2026-02-10T13:41:58.000Z</time>
      </trkpt>
      <trkpt lat="43.61167" lon="6.01999">
        <ele>630</ele>
        <time>2026-02-10T13:42:00.000Z</time>
      </trkpt>
      <trkpt lat="43.61168" lon="6.01998">
        <ele>630</ele>
        <time>2026-02-10T13:42:01.000Z</time>
      </trkpt>
      <trkpt lat="43.61169" lon="6.01996">
        <ele>630</ele>
        <time>2026-02-10T13:42:03.000Z</time>
      </trkpt>
      <trkpt lat="43.61169" lon="6.01996">
        <ele>630</ele>
        <time>2026-02-10T13:42:03.000Z</time>
      </trkpt>
      <trkpt lat="43.6117" lon="6.01995">
        <ele>631</ele>
        <time>2026-02-10T13:42:15.000Z</time>
      </trkpt>
      <trkpt lat="43.6117" lon="6.01995">
        <ele>631</ele>
        <time>2026-02-10T13:42:15.000Z</time>
      </trkpt>
      <trkpt lat="43.61171" lon="6.01994">
        <ele>631</ele>
        <time>2026-02-10T13:42:16.000Z</time>
      </trkpt>
      <trkpt lat="43.61171" lon="6.01993">
        <ele>631</ele>
        <time>2026-02-10T13:42:17.000Z</time>
      </trkpt>
      <trkpt lat="43.61172" lon="6.01993">
        <ele>631</ele>
        <time>2026-02-10T13:42:18.000Z</time>
      </trkpt>
      <trkpt lat="43.61171" lon="6.01994">
        <ele>631</ele>
        <time>2026-02-10T13:42:19.000Z</time>
      </trkpt>
      <trkpt lat="43.61172" lon="6.01994">
        <ele>631</ele>
        <time>2026-02-10T13:42:20.000Z</time>
      </trkpt>
      <trkpt lat="43.61172" lon="6.01994">
        <ele>631</ele>
        <time>2026-02-10T13:42:20.000Z</time>
      </trkpt>
      <trkpt lat="43.61172" lon="6.01994">
        <ele>631</ele>
        <time>2026-02-10T13:42:20.000Z</time>
      </trkpt>
      <trkpt lat="43.61172" lon="6.01994">
        <ele>631</ele>
        <time>2026-02-10T13:42:20.000Z</time>
      </trkpt>
      <trkpt lat="43.61171" lon="6.01993">
        <ele>631</ele>
        <time>2026-02-10T13:42:21.000Z</time>
      </trkpt>
      <trkpt lat="43.61172" lon="6.01993">
        <ele>631</ele>
        <time>2026-02-10T13:42:22.000Z</time>
      </trkpt>
      <trkpt lat="43.61173" lon="6.01992">
        <ele>631</ele>
        <time>2026-02-10T13:42:23.000Z</time>
      </trkpt>
      <trkpt lat="43.61174" lon="6.01993">
        <ele>631</ele>
        <time>2026-02-10T13:42:24.000Z</time>
      </trkpt>
      <trkpt lat="43.61175" lon="6.01992">
        <ele>631</ele>
        <time>2026-02-10T13:42:25.000Z</time>
      </trkpt>
      <trkpt lat="43.61176" lon="6.01993">
        <ele>631</ele>
        <time>2026-02-10T13:42:26.000Z</time>
      </trkpt>
      <trkpt lat="43.61177" lon="6.01993">
        <ele>631</ele>
        <time>2026-02-10T13:42:27.000Z</time>
      </trkpt>
      <trkpt lat="43.61177" lon="6.01994">
        <ele>631</ele>
        <time>2026-02-10T13:42:28.000Z</time>
      </trkpt>
      <trkpt lat="43.61178" lon="6.01994">
        <ele>631</ele>
        <time>2026-02-10T13:42:29.000Z</time>
      </trkpt>
      <trkpt lat="43.61179" lon="6.01994">
        <ele>631</ele>
        <time>2026-02-10T13:42:30.000Z</time>
      </trkpt>
      <trkpt lat="43.6118" lon="6.01993">
        <ele>631</ele>
        <time>2026-02-10T13:42:31.000Z</time>
      </trkpt>
      <trkpt lat="43.61182" lon="6.01994">
        <ele>632</ele>
        <time>2026-02-10T13:42:44.000Z</time>
      </trkpt>
      <trkpt lat="43.61184" lon="6.01994">
        <ele>632</ele>
        <time>2026-02-10T13:42:46.000Z</time>
      </trkpt>
      <trkpt lat="43.61185" lon="6.01994">
        <ele>632</ele>
        <time>2026-02-10T13:42:47.000Z</time>
      </trkpt>
      <trkpt lat="43.61186" lon="6.01995">
        <ele>632</ele>
        <time>2026-02-10T13:42:48.000Z</time>
      </trkpt>
      <trkpt lat="43.61187" lon="6.01995">
        <ele>633</ele>
        <time>2026-02-10T13:42:59.000Z</time>
      </trkpt>
      <trkpt lat="43.61187" lon="6.01995">
        <ele>633</ele>
        <time>2026-02-10T13:42:59.000Z</time>
      </trkpt>
      <trkpt lat="43.61189" lon="6.01996">
        <ele>633</ele>
        <time>2026-02-10T13:43:01.000Z</time>
      </trkpt>
      <trkpt lat="43.6119" lon="6.01996">
        <ele>633</ele>
        <time>2026-02-10T13:43:02.000Z</time>
      </trkpt>
      <trkpt lat="43.61191" lon="6.01997">
        <ele>633</ele>
        <time>2026-02-10T13:43:03.000Z</time>
      </trkpt>
      <trkpt lat="43.61192" lon="6.01997">
        <ele>633</ele>
        <time>2026-02-10T13:43:04.000Z</time>
      </trkpt>
      <trkpt lat="43.61194" lon="6.01998">
        <ele>633</ele>
        <time>2026-02-10T13:43:06.000Z</time>
      </trkpt>
      <trkpt lat="43.61194" lon="6.01999">
        <ele>633</ele>
        <time>2026-02-10T13:43:07.000Z</time>
      </trkpt>
      <trkpt lat="43.61196" lon="6.02">
        <ele>633</ele>
        <time>2026-02-10T13:43:09.000Z</time>
      </trkpt>
      <trkpt lat="43.61197" lon="6.02">
        <ele>634</ele>
        <time>2026-02-10T13:43:20.000Z</time>
      </trkpt>
      <trkpt lat="43.61198" lon="6.02001">
        <ele>634</ele>
        <time>2026-02-10T13:43:21.000Z</time>
      </trkpt>
      <trkpt lat="43.61198" lon="6.02003">
        <ele>634</ele>
        <time>2026-02-10T13:43:23.000Z</time>
      </trkpt>
      <trkpt lat="43.612" lon="6.02003">
        <ele>634</ele>
        <time>2026-02-10T13:43:25.000Z</time>
      </trkpt>
      <trkpt lat="43.61202" lon="6.02003">
        <ele>634</ele>
        <time>2026-02-10T13:43:27.000Z</time>
      </trkpt>
      <trkpt lat="43.61203" lon="6.02003">
        <ele>634</ele>
        <time>2026-02-10T13:43:28.000Z</time>
      </trkpt>
      <trkpt lat="43.61204" lon="6.02003">
        <ele>634</ele>
        <time>2026-02-10T13:43:29.000Z</time>
      </trkpt>
      <trkpt lat="43.61206" lon="6.02003">
        <ele>634</ele>
        <time>2026-02-10T13:43:31.000Z</time>
      </trkpt>
      <trkpt lat="43.61206" lon="6.02003">
        <ele>634</ele>
        <time>2026-02-10T13:43:31.000Z</time>
      </trkpt>
      <trkpt lat="43.61207" lon="6.02004">
        <ele>634</ele>
        <time>2026-02-10T13:43:32.000Z</time>
      </trkpt>
      <trkpt lat="43.61208" lon="6.02005">
        <ele>634</ele>
        <time>2026-02-10T13:43:33.000Z</time>
      </trkpt>
      <trkpt lat="43.61209" lon="6.02004">
        <ele>634</ele>
        <time>2026-02-10T13:43:34.000Z</time>
      </trkpt>
      <trkpt lat="43.6121" lon="6.02004">
        <ele>634</ele>
        <time>2026-02-10T13:43:35.000Z</time>
      </trkpt>
      <trkpt lat="43.61212" lon="6.02004">
        <ele>634</ele>
        <time>2026-02-10T13:43:37.000Z</time>
      </trkpt>
      <trkpt lat="43.61214" lon="6.02004">
        <ele>634</ele>
        <time>2026-02-10T13:43:39.000Z</time>
      </trkpt>
      <trkpt lat="43.61215" lon="6.02004">
        <ele>634</ele>
        <time>2026-02-10T13:43:40.000Z</time>
      </trkpt>
      <trkpt lat="43.61217" lon="6.02003">
        <ele>634</ele>
        <time>2026-02-10T13:43:42.000Z</time>
      </trkpt>
      <trkpt lat="43.61218" lon="6.02003">
        <ele>635</ele>
        <time>2026-02-10T13:43:53.000Z</time>
      </trkpt>
      <trkpt lat="43.61219" lon="6.02002">
        <ele>635</ele>
        <time>2026-02-10T13:43:54.000Z</time>
      </trkpt>
      <trkpt lat="43.61221" lon="6.02001">
        <ele>635</ele>
        <time>2026-02-10T13:43:56.000Z</time>
      </trkpt>
      <trkpt lat="43.61222" lon="6.01999">
        <ele>635</ele>
        <time>2026-02-10T13:43:58.000Z</time>
      </trkpt>
      <trkpt lat="43.61223" lon="6.01998">
        <ele>635</ele>
        <time>2026-02-10T13:43:59.000Z</time>
      </trkpt>
      <trkpt lat="43.61224" lon="6.01997">
        <ele>635</ele>
        <time>2026-02-10T13:44:00.000Z</time>
      </trkpt>
      <trkpt lat="43.61224" lon="6.01996">
        <ele>635</ele>
        <time>2026-02-10T13:44:01.000Z</time>
      </trkpt>
      <trkpt lat="43.61225" lon="6.01995">
        <ele>635</ele>
        <time>2026-02-10T13:44:02.000Z</time>
      </trkpt>
      <trkpt lat="43.61227" lon="6.01992">
        <ele>635</ele>
        <time>2026-02-10T13:44:05.000Z</time>
      </trkpt>
      <trkpt lat="43.61227" lon="6.01991">
        <ele>635</ele>
        <time>2026-02-10T13:44:06.000Z</time>
      </trkpt>
      <trkpt lat="43.61228" lon="6.01988">
        <ele>635</ele>
        <time>2026-02-10T13:44:09.000Z</time>
      </trkpt>
      <trkpt lat="43.61228" lon="6.01986">
        <ele>635</ele>
        <time>2026-02-10T13:44:11.000Z</time>
      </trkpt>
      <trkpt lat="43.61229" lon="6.01984">
        <ele>635</ele>
        <time>2026-02-10T13:44:13.000Z</time>
      </trkpt>
      <trkpt lat="43.61229" lon="6.01982">
        <ele>636</ele>
        <time>2026-02-10T13:44:25.000Z</time>
      </trkpt>
      <trkpt lat="43.61228" lon="6.01981">
        <ele>636</ele>
        <time>2026-02-10T13:44:26.000Z</time>
      </trkpt>
      <trkpt lat="43.61229" lon="6.01978">
        <ele>636</ele>
        <time>2026-02-10T13:44:29.000Z</time>
      </trkpt>
      <trkpt lat="43.6123" lon="6.01976">
        <ele>636</ele>
        <time>2026-02-10T13:44:31.000Z</time>
      </trkpt>
      <trkpt lat="43.6123" lon="6.01974">
        <ele>636</ele>
        <time>2026-02-10T13:44:33.000Z</time>
      </trkpt>
      <trkpt lat="43.6123" lon="6.01972">
        <ele>636</ele>
        <time>2026-02-10T13:44:35.000Z</time>
      </trkpt>
      <trkpt lat="43.6123" lon="6.0197">
        <ele>636</ele>
        <time>2026-02-10T13:44:37.000Z</time>
      </trkpt>
      <trkpt lat="43.61231" lon="6.01968">
        <ele>636</ele>
        <time>2026-02-10T13:44:39.000Z</time>
      </trkpt>
      <trkpt lat="43.61231" lon="6.01967">
        <ele>636</ele>
        <time>2026-02-10T13:44:40.000Z</time>
      </trkpt>
      <trkpt lat="43.61232" lon="6.01965">
        <ele>636</ele>
        <time>2026-02-10T13:44:42.000Z</time>
      </trkpt>
      <trkpt lat="43.61232" lon="6.01964">
        <ele>636</ele>
        <time>2026-02-10T13:44:43.000Z</time>
      </trkpt>
      <trkpt lat="43.61233" lon="6.01962">
        <ele>636</ele>
        <time>2026-02-10T13:44:45.000Z</time>
      </trkpt>
      <trkpt lat="43.61234" lon="6.0196">
        <ele>636</ele>
        <time>2026-02-10T13:44:47.000Z</time>
      </trkpt>
      <trkpt lat="43.61234" lon="6.01958">
        <ele>636</ele>
        <time>2026-02-10T13:44:49.000Z</time>
      </trkpt>
      <trkpt lat="43.61234" lon="6.01956">
        <ele>636</ele>
        <time>2026-02-10T13:44:51.000Z</time>
      </trkpt>
      <trkpt lat="43.61234" lon="6.01954">
        <ele>636</ele>
        <time>2026-02-10T13:44:53.000Z</time>
      </trkpt>
      <trkpt lat="43.61234" lon="6.01952">
        <ele>636</ele>
        <time>2026-02-10T13:44:55.000Z</time>
      </trkpt>
      <trkpt lat="43.61235" lon="6.01951">
        <ele>636</ele>
        <time>2026-02-10T13:44:56.000Z</time>
      </trkpt>
      <trkpt lat="43.61235" lon="6.01949">
        <ele>636</ele>
        <time>2026-02-10T13:44:58.000Z</time>
      </trkpt>
      <trkpt lat="43.61235" lon="6.01948">
        <ele>636</ele>
        <time>2026-02-10T13:44:59.000Z</time>
      </trkpt>
      <trkpt lat="43.61235" lon="6.01946">
        <ele>636</ele>
        <time>2026-02-10T13:45:01.000Z</time>
      </trkpt>
      <trkpt lat="43.61236" lon="6.01944">
        <ele>636</ele>
        <time>2026-02-10T13:45:03.000Z</time>
      </trkpt>
      <trkpt lat="43.61236" lon="6.01943">
        <ele>636</ele>
        <time>2026-02-10T13:45:04.000Z</time>
      </trkpt>
      <trkpt lat="43.61236" lon="6.01941">
        <ele>636</ele>
        <time>2026-02-10T13:45:06.000Z</time>
      </trkpt>
      <trkpt lat="43.61236" lon="6.01939">
        <ele>636</ele>
        <time>2026-02-10T13:45:08.000Z</time>
      </trkpt>
      <trkpt lat="43.61236" lon="6.01938">
        <ele>636</ele>
        <time>2026-02-10T13:45:09.000Z</time>
      </trkpt>
      <trkpt lat="43.61237" lon="6.01936">
        <ele>636</ele>
        <time>2026-02-10T13:45:11.000Z</time>
      </trkpt>
      <trkpt lat="43.61237" lon="6.01934">
        <ele>636</ele>
        <time>2026-02-10T13:45:13.000Z</time>
      </trkpt>
      <trkpt lat="43.61238" lon="6.01932">
        <ele>636</ele>
        <time>2026-02-10T13:45:15.000Z</time>
      </trkpt>
      <trkpt lat="43.61238" lon="6.0193">
        <ele>636</ele>
        <time>2026-02-10T13:45:17.000Z</time>
      </trkpt>
      <trkpt lat="43.61239" lon="6.01928">
        <ele>636</ele>
        <time>2026-02-10T13:45:19.000Z</time>
      </trkpt>
      <trkpt lat="43.61238" lon="6.01926">
        <ele>636</ele>
        <time>2026-02-10T13:45:21.000Z</time>
      </trkpt>
      <trkpt lat="43.61239" lon="6.01925">
        <ele>636</ele>
        <time>2026-02-10T13:45:22.000Z</time>
      </trkpt>
      <trkpt lat="43.61239" lon="6.01923">
        <ele>636</ele>
        <time>2026-02-10T13:45:24.000Z</time>
      </trkpt>
      <trkpt lat="43.61239" lon="6.01921">
        <ele>636</ele>
        <time>2026-02-10T13:45:26.000Z</time>
      </trkpt>
      <trkpt lat="43.6124" lon="6.01919">
        <ele>636</ele>
        <time>2026-02-10T13:45:28.000Z</time>
      </trkpt>
      <trkpt lat="43.6124" lon="6.01917">
        <ele>636</ele>
        <time>2026-02-10T13:45:30.000Z</time>
      </trkpt>
      <trkpt lat="43.61241" lon="6.01915">
        <ele>636</ele>
        <time>2026-02-10T13:45:32.000Z</time>
      </trkpt>
      <trkpt lat="43.61242" lon="6.01914">
        <ele>637</ele>
        <time>2026-02-10T13:45:44.000Z</time>
      </trkpt>
      <trkpt lat="43.61242" lon="6.01912">
        <ele>637</ele>
        <time>2026-02-10T13:45:46.000Z</time>
      </trkpt>
      <trkpt lat="43.61242" lon="6.01911">
        <ele>637</ele>
        <time>2026-02-10T13:45:47.000Z</time>
      </trkpt>
      <trkpt lat="43.61242" lon="6.01909">
        <ele>637</ele>
        <time>2026-02-10T13:45:49.000Z</time>
      </trkpt>
      <trkpt lat="43.61242" lon="6.01907">
        <ele>637</ele>
        <time>2026-02-10T13:45:51.000Z</time>
      </trkpt>
      <trkpt lat="43.61243" lon="6.01906">
        <ele>637</ele>
        <time>2026-02-10T13:45:52.000Z</time>
      </trkpt>
      <trkpt lat="43.61244" lon="6.01904">
        <ele>637</ele>
        <time>2026-02-10T13:45:54.000Z</time>
      </trkpt>
      <trkpt lat="43.61245" lon="6.01903">
        <ele>637</ele>
        <time>2026-02-10T13:45:55.000Z</time>
      </trkpt>
      <trkpt lat="43.61245" lon="6.01901">
        <ele>637</ele>
        <time>2026-02-10T13:45:57.000Z</time>
      </trkpt>
      <trkpt lat="43.61245" lon="6.019">
        <ele>637</ele>
        <time>2026-02-10T13:45:58.000Z</time>
      </trkpt>
      <trkpt lat="43.61246" lon="6.01899">
        <ele>637</ele>
        <time>2026-02-10T13:45:59.000Z</time>
      </trkpt>
      <trkpt lat="43.61247" lon="6.01897">
        <ele>637</ele>
        <time>2026-02-10T13:46:01.000Z</time>
      </trkpt>
      <trkpt lat="43.61247" lon="6.01895">
        <ele>637</ele>
        <time>2026-02-10T13:46:03.000Z</time>
      </trkpt>
      <trkpt lat="43.61248" lon="6.01894">
        <ele>637</ele>
        <time>2026-02-10T13:46:04.000Z</time>
      </trkpt>
      <trkpt lat="43.61249" lon="6.01893">
        <ele>637</ele>
        <time>2026-02-10T13:46:05.000Z</time>
      </trkpt>
      <trkpt lat="43.6125" lon="6.01891">
        <ele>637</ele>
        <time>2026-02-10T13:46:07.000Z</time>
      </trkpt>
      <trkpt lat="43.61251" lon="6.0189">
        <ele>637</ele>
        <time>2026-02-10T13:46:08.000Z</time>
      </trkpt>
      <trkpt lat="43.61252" lon="6.01888">
        <ele>637</ele>
        <time>2026-02-10T13:46:10.000Z</time>
      </trkpt>
      <trkpt lat="43.61252" lon="6.01886">
        <ele>637</ele>
        <time>2026-02-10T13:46:12.000Z</time>
      </trkpt>
      <trkpt lat="43.61252" lon="6.01884">
        <ele>637</ele>
        <time>2026-02-10T13:46:14.000Z</time>
      </trkpt>
      <trkpt lat="43.61253" lon="6.01882">
        <ele>637</ele>
        <time>2026-02-10T13:46:16.000Z</time>
      </trkpt>
      <trkpt lat="43.61253" lon="6.01879">
        <ele>637</ele>
        <time>2026-02-10T13:46:18.000Z</time>
      </trkpt>
      <trkpt lat="43.61253" lon="6.01877">
        <ele>637</ele>
        <time>2026-02-10T13:46:20.000Z</time>
      </trkpt>
      <trkpt lat="43.61253" lon="6.01876">
        <ele>637</ele>
        <time>2026-02-10T13:46:21.000Z</time>
      </trkpt>
      <trkpt lat="43.61254" lon="6.01875">
        <ele>637</ele>
        <time>2026-02-10T13:46:22.000Z</time>
      </trkpt>
      <trkpt lat="43.61254" lon="6.01873">
        <ele>637</ele>
        <time>2026-02-10T13:46:24.000Z</time>
      </trkpt>
      <trkpt lat="43.61254" lon="6.01872">
        <ele>637</ele>
        <time>2026-02-10T13:46:25.000Z</time>
      </trkpt>
      <trkpt lat="43.61254" lon="6.0187">
        <ele>637</ele>
        <time>2026-02-10T13:46:27.000Z</time>
      </trkpt>
      <trkpt lat="43.61254" lon="6.01869">
        <ele>637</ele>
        <time>2026-02-10T13:46:28.000Z</time>
      </trkpt>
      <trkpt lat="43.61254" lon="6.01867">
        <ele>637</ele>
        <time>2026-02-10T13:46:30.000Z</time>
      </trkpt>
      <trkpt lat="43.61254" lon="6.01865">
        <ele>637</ele>
        <time>2026-02-10T13:46:32.000Z</time>
      </trkpt>
      <trkpt lat="43.61254" lon="6.01863">
        <ele>637</ele>
        <time>2026-02-10T13:46:34.000Z</time>
      </trkpt>
      <trkpt lat="43.61254" lon="6.01861">
        <ele>637</ele>
        <time>2026-02-10T13:46:36.000Z</time>
      </trkpt>
      <trkpt lat="43.61253" lon="6.0186">
        <ele>637</ele>
        <time>2026-02-10T13:46:37.000Z</time>
      </trkpt>
      <trkpt lat="43.61253" lon="6.01858">
        <ele>637</ele>
        <time>2026-02-10T13:46:39.000Z</time>
      </trkpt>
      <trkpt lat="43.61253" lon="6.01855">
        <ele>637</ele>
        <time>2026-02-10T13:46:41.000Z</time>
      </trkpt>
      <trkpt lat="43.61253" lon="6.01854">
        <ele>637</ele>
        <time>2026-02-10T13:46:42.000Z</time>
      </trkpt>
      <trkpt lat="43.61254" lon="6.01852">
        <ele>637</ele>
        <time>2026-02-10T13:46:44.000Z</time>
      </trkpt>
      <trkpt lat="43.61255" lon="6.01851">
        <ele>637</ele>
        <time>2026-02-10T13:46:45.000Z</time>
      </trkpt>
      <trkpt lat="43.61255" lon="6.0185">
        <ele>637</ele>
        <time>2026-02-10T13:46:46.000Z</time>
      </trkpt>
      <trkpt lat="43.61256" lon="6.01848">
        <ele>637</ele>
        <time>2026-02-10T13:46:48.000Z</time>
      </trkpt>
      <trkpt lat="43.61256" lon="6.01847">
        <ele>637</ele>
        <time>2026-02-10T13:46:49.000Z</time>
      </trkpt>
      <trkpt lat="43.61257" lon="6.01846">
        <ele>637</ele>
        <time>2026-02-10T13:46:50.000Z</time>
      </trkpt>
      <trkpt lat="43.61258" lon="6.01845">
        <ele>637</ele>
        <time>2026-02-10T13:46:51.000Z</time>
      </trkpt>
      <trkpt lat="43.61259" lon="6.01843">
        <ele>637</ele>
        <time>2026-02-10T13:46:53.000Z</time>
      </trkpt>
      <trkpt lat="43.61259" lon="6.01842">
        <ele>637</ele>
        <time>2026-02-10T13:46:54.000Z</time>
      </trkpt>
      <trkpt lat="43.6126" lon="6.0184">
        <ele>637</ele>
        <time>2026-02-10T13:46:56.000Z</time>
      </trkpt>
      <trkpt lat="43.61259" lon="6.01839">
        <ele>637</ele>
        <time>2026-02-10T13:46:57.000Z</time>
      </trkpt>
      <trkpt lat="43.6126" lon="6.01838">
        <ele>637</ele>
        <time>2026-02-10T13:46:58.000Z</time>
      </trkpt>
      <trkpt lat="43.6126" lon="6.01836">
        <ele>638</ele>
        <time>2026-02-10T13:47:10.000Z</time>
      </trkpt>
      <trkpt lat="43.6126" lon="6.01834">
        <ele>638</ele>
        <time>2026-02-10T13:47:12.000Z</time>
      </trkpt>
      <trkpt lat="43.61261" lon="6.01833">
        <ele>638</ele>
        <time>2026-02-10T13:47:13.000Z</time>
      </trkpt>
      <trkpt lat="43.61261" lon="6.01831">
        <ele>637</ele>
        <time>2026-02-10T13:47:15.000Z</time>
      </trkpt>
      <trkpt lat="43.61261" lon="6.0183">
        <ele>637</ele>
        <time>2026-02-10T13:47:16.000Z</time>
      </trkpt>
      <trkpt lat="43.61261" lon="6.01828">
        <ele>637</ele>
        <time>2026-02-10T13:47:18.000Z</time>
      </trkpt>
      <trkpt lat="43.61261" lon="6.01827">
        <ele>637</ele>
        <time>2026-02-10T13:47:19.000Z</time>
      </trkpt>
      <trkpt lat="43.61261" lon="6.01825">
        <ele>637</ele>
        <time>2026-02-10T13:47:21.000Z</time>
      </trkpt>
      <trkpt lat="43.61262" lon="6.01823">
        <ele>637</ele>
        <time>2026-02-10T13:47:23.000Z</time>
      </trkpt>
      <trkpt lat="43.61262" lon="6.01822">
        <ele>637</ele>
        <time>2026-02-10T13:47:24.000Z</time>
      </trkpt>
      <trkpt lat="43.61263" lon="6.0182">
        <ele>637</ele>
        <time>2026-02-10T13:47:26.000Z</time>
      </trkpt>
      <trkpt lat="43.61262" lon="6.01818">
        <ele>637</ele>
        <time>2026-02-10T13:47:28.000Z</time>
      </trkpt>
      <trkpt lat="43.61262" lon="6.01817">
        <ele>637</ele>
        <time>2026-02-10T13:47:29.000Z</time>
      </trkpt>
      <trkpt lat="43.61262" lon="6.01815">
        <ele>637</ele>
        <time>2026-02-10T13:47:31.000Z</time>
      </trkpt>
      <trkpt lat="43.61262" lon="6.01814">
        <ele>637</ele>
        <time>2026-02-10T13:47:32.000Z</time>
      </trkpt>
      <trkpt lat="43.61263" lon="6.01812">
        <ele>637</ele>
        <time>2026-02-10T13:47:34.000Z</time>
      </trkpt>
      <trkpt lat="43.61263" lon="6.0181">
        <ele>637</ele>
        <time>2026-02-10T13:47:36.000Z</time>
      </trkpt>
      <trkpt lat="43.61263" lon="6.01809">
        <ele>637</ele>
        <time>2026-02-10T13:47:37.000Z</time>
      </trkpt>
      <trkpt lat="43.61263" lon="6.01807">
        <ele>637</ele>
        <time>2026-02-10T13:47:39.000Z</time>
      </trkpt>
      <trkpt lat="43.61263" lon="6.01805">
        <ele>637</ele>
        <time>2026-02-10T13:47:41.000Z</time>
      </trkpt>
      <trkpt lat="43.61263" lon="6.01804">
        <ele>637</ele>
        <time>2026-02-10T13:47:42.000Z</time>
      </trkpt>
      <trkpt lat="43.61264" lon="6.01802">
        <ele>637</ele>
        <time>2026-02-10T13:47:44.000Z</time>
      </trkpt>
      <trkpt lat="43.61265" lon="6.01801">
        <ele>637</ele>
        <time>2026-02-10T13:47:45.000Z</time>
      </trkpt>
      <trkpt lat="43.61265" lon="6.01799">
        <ele>637</ele>
        <time>2026-02-10T13:47:47.000Z</time>
      </trkpt>
      <trkpt lat="43.61265" lon="6.01797">
        <ele>637</ele>
        <time>2026-02-10T13:47:49.000Z</time>
      </trkpt>
      <trkpt lat="43.61265" lon="6.01796">
        <ele>637</ele>
        <time>2026-02-10T13:47:50.000Z</time>
      </trkpt>
      <trkpt lat="43.61265" lon="6.01794">
        <ele>637</ele>
        <time>2026-02-10T13:47:52.000Z</time>
      </trkpt>
      <trkpt lat="43.61266" lon="6.01793">
        <ele>637</ele>
        <time>2026-02-10T13:47:53.000Z</time>
      </trkpt>
      <trkpt lat="43.61266" lon="6.0179">
        <ele>637</ele>
        <time>2026-02-10T13:47:55.000Z</time>
      </trkpt>
      <trkpt lat="43.61267" lon="6.01788">
        <ele>637</ele>
        <time>2026-02-10T13:47:57.000Z</time>
      </trkpt>
      <trkpt lat="43.61267" lon="6.01787">
        <ele>637</ele>
        <time>2026-02-10T13:47:58.000Z</time>
      </trkpt>
      <trkpt lat="43.61267" lon="6.01785">
        <ele>637</ele>
        <time>2026-02-10T13:48:00.000Z</time>
      </trkpt>
      <trkpt lat="43.61267" lon="6.01783">
        <ele>637</ele>
        <time>2026-02-10T13:48:02.000Z</time>
      </trkpt>
      <trkpt lat="43.61267" lon="6.01782">
        <ele>637</ele>
        <time>2026-02-10T13:48:03.000Z</time>
      </trkpt>
      <trkpt lat="43.61267" lon="6.0178">
        <ele>637</ele>
        <time>2026-02-10T13:48:05.000Z</time>
      </trkpt>
      <trkpt lat="43.61267" lon="6.01778">
        <ele>637</ele>
        <time>2026-02-10T13:48:07.000Z</time>
      </trkpt>
      <trkpt lat="43.61267" lon="6.01776">
        <ele>637</ele>
        <time>2026-02-10T13:48:09.000Z</time>
      </trkpt>
      <trkpt lat="43.61267" lon="6.01774">
        <ele>636</ele>
        <time>2026-02-10T13:48:11.000Z</time>
      </trkpt>
      <trkpt lat="43.61268" lon="6.01772">
        <ele>636</ele>
        <time>2026-02-10T13:48:13.000Z</time>
      </trkpt>
      <trkpt lat="43.61268" lon="6.0177">
        <ele>636</ele>
        <time>2026-02-10T13:48:15.000Z</time>
      </trkpt>
      <trkpt lat="43.61268" lon="6.01769">
        <ele>636</ele>
        <time>2026-02-10T13:48:16.000Z</time>
      </trkpt>
      <trkpt lat="43.61268" lon="6.01767">
        <ele>636</ele>
        <time>2026-02-10T13:48:18.000Z</time>
      </trkpt>
      <trkpt lat="43.61269" lon="6.01765">
        <ele>636</ele>
        <time>2026-02-10T13:48:20.000Z</time>
      </trkpt>
      <trkpt lat="43.61269" lon="6.01763">
        <ele>636</ele>
        <time>2026-02-10T13:48:22.000Z</time>
      </trkpt>
      <trkpt lat="43.61269" lon="6.01762">
        <ele>636</ele>
        <time>2026-02-10T13:48:23.000Z</time>
      </trkpt>
      <trkpt lat="43.61269" lon="6.0176">
        <ele>636</ele>
        <time>2026-02-10T13:48:25.000Z</time>
      </trkpt>
      <trkpt lat="43.6127" lon="6.01758">
        <ele>636</ele>
        <time>2026-02-10T13:48:27.000Z</time>
      </trkpt>
      <trkpt lat="43.6127" lon="6.01756">
        <ele>636</ele>
        <time>2026-02-10T13:48:29.000Z</time>
      </trkpt>
      <trkpt lat="43.6127" lon="6.01755">
        <ele>636</ele>
        <time>2026-02-10T13:48:30.000Z</time>
      </trkpt>
      <trkpt lat="43.6127" lon="6.01752">
        <ele>636</ele>
        <time>2026-02-10T13:48:32.000Z</time>
      </trkpt>
      <trkpt lat="43.61268" lon="6.01751">
        <ele>636</ele>
        <time>2026-02-10T13:48:34.000Z</time>
      </trkpt>
      <trkpt lat="43.61268" lon="6.01749">
        <ele>636</ele>
        <time>2026-02-10T13:48:36.000Z</time>
      </trkpt>
      <trkpt lat="43.61268" lon="6.01748">
        <ele>636</ele>
        <time>2026-02-10T13:48:37.000Z</time>
      </trkpt>
      <trkpt lat="43.61269" lon="6.01747">
        <ele>636</ele>
        <time>2026-02-10T13:48:38.000Z</time>
      </trkpt>
      <trkpt lat="43.61269" lon="6.01745">
        <ele>636</ele>
        <time>2026-02-10T13:48:40.000Z</time>
      </trkpt>
      <trkpt lat="43.6127" lon="6.01744">
        <ele>636</ele>
        <time>2026-02-10T13:48:41.000Z</time>
      </trkpt>
      <trkpt lat="43.61271" lon="6.01743">
        <ele>636</ele>
        <time>2026-02-10T13:48:42.000Z</time>
      </trkpt>
      <trkpt lat="43.61271" lon="6.01742">
        <ele>636</ele>
        <time>2026-02-10T13:48:43.000Z</time>
      </trkpt>
      <trkpt lat="43.61272" lon="6.01741">
        <ele>636</ele>
        <time>2026-02-10T13:48:44.000Z</time>
      </trkpt>
      <trkpt lat="43.61273" lon="6.01739">
        <ele>636</ele>
        <time>2026-02-10T13:48:46.000Z</time>
      </trkpt>
      <trkpt lat="43.61274" lon="6.01738">
        <ele>636</ele>
        <time>2026-02-10T13:48:47.000Z</time>
      </trkpt>
      <trkpt lat="43.61275" lon="6.01736">
        <ele>636</ele>
        <time>2026-02-10T13:48:49.000Z</time>
      </trkpt>
      <trkpt lat="43.61276" lon="6.01735">
        <ele>636</ele>
        <time>2026-02-10T13:48:50.000Z</time>
      </trkpt>
      <trkpt lat="43.61277" lon="6.01734">
        <ele>636</ele>
        <time>2026-02-10T13:48:51.000Z</time>
      </trkpt>
      <trkpt lat="43.61278" lon="6.01733">
        <ele>636</ele>
        <time>2026-02-10T13:48:52.000Z</time>
      </trkpt>
      <trkpt lat="43.61279" lon="6.01732">
        <ele>636</ele>
        <time>2026-02-10T13:48:53.000Z</time>
      </trkpt>
      <trkpt lat="43.61279" lon="6.01731">
        <ele>636</ele>
        <time>2026-02-10T13:48:54.000Z</time>
      </trkpt>
      <trkpt lat="43.6128" lon="6.0173">
        <ele>636</ele>
        <time>2026-02-10T13:48:55.000Z</time>
      </trkpt>
      <trkpt lat="43.61281" lon="6.01728">
        <ele>636</ele>
        <time>2026-02-10T13:48:57.000Z</time>
      </trkpt>
      <trkpt lat="43.61282" lon="6.01727">
        <ele>636</ele>
        <time>2026-02-10T13:48:58.000Z</time>
      </trkpt>
      <trkpt lat="43.61282" lon="6.01725">
        <ele>636</ele>
        <time>2026-02-10T13:49:00.000Z</time>
      </trkpt>
      <trkpt lat="43.61284" lon="6.01723">
        <ele>636</ele>
        <time>2026-02-10T13:49:03.000Z</time>
      </trkpt>
      <trkpt lat="43.61285" lon="6.01722">
        <ele>636</ele>
        <time>2026-02-10T13:49:04.000Z</time>
      </trkpt>
      <trkpt lat="43.61286" lon="6.01721">
        <ele>636</ele>
        <time>2026-02-10T13:49:05.000Z</time>
      </trkpt>
      <trkpt lat="43.61287" lon="6.0172">
        <ele>636</ele>
        <time>2026-02-10T13:49:06.000Z</time>
      </trkpt>
      <trkpt lat="43.61288" lon="6.01719">
        <ele>636</ele>
        <time>2026-02-10T13:49:07.000Z</time>
      </trkpt>
      <trkpt lat="43.61289" lon="6.01718">
        <ele>636</ele>
        <time>2026-02-10T13:49:08.000Z</time>
      </trkpt>
      <trkpt lat="43.61289" lon="6.01717">
        <ele>636</ele>
        <time>2026-02-10T13:49:09.000Z</time>
      </trkpt>
      <trkpt lat="43.6129" lon="6.01716">
        <ele>636</ele>
        <time>2026-02-10T13:49:10.000Z</time>
      </trkpt>
      <trkpt lat="43.61291" lon="6.01714">
        <ele>636</ele>
        <time>2026-02-10T13:49:12.000Z</time>
      </trkpt>
      <trkpt lat="43.61291" lon="6.01714">
        <ele>636</ele>
        <time>2026-02-10T13:49:12.000Z</time>
      </trkpt>
      <trkpt lat="43.61292" lon="6.01713">
        <ele>637</ele>
        <time>2026-02-10T13:49:24.000Z</time>
      </trkpt>
      <trkpt lat="43.61293" lon="6.01712">
        <ele>637</ele>
        <time>2026-02-10T13:49:25.000Z</time>
      </trkpt>
      <trkpt lat="43.61294" lon="6.01711">
        <ele>637</ele>
        <time>2026-02-10T13:49:26.000Z</time>
      </trkpt>
      <trkpt lat="43.61295" lon="6.01709">
        <ele>637</ele>
        <time>2026-02-10T13:49:28.000Z</time>
      </trkpt>
      <trkpt lat="43.61296" lon="6.01708">
        <ele>637</ele>
        <time>2026-02-10T13:49:29.000Z</time>
      </trkpt>
      <trkpt lat="43.61297" lon="6.01707">
        <ele>637</ele>
        <time>2026-02-10T13:49:30.000Z</time>
      </trkpt>
      <trkpt lat="43.61298" lon="6.01706">
        <ele>637</ele>
        <time>2026-02-10T13:49:31.000Z</time>
      </trkpt>
      <trkpt lat="43.61299" lon="6.01705">
        <ele>637</ele>
        <time>2026-02-10T13:49:32.000Z</time>
      </trkpt>
      <trkpt lat="43.61299" lon="6.01704">
        <ele>637</ele>
        <time>2026-02-10T13:49:33.000Z</time>
      </trkpt>
      <trkpt lat="43.613" lon="6.01702">
        <ele>637</ele>
        <time>2026-02-10T13:49:35.000Z</time>
      </trkpt>
      <trkpt lat="43.61301" lon="6.01702">
        <ele>637</ele>
        <time>2026-02-10T13:49:36.000Z</time>
      </trkpt>
      <trkpt lat="43.61301" lon="6.01701">
        <ele>637</ele>
        <time>2026-02-10T13:49:37.000Z</time>
      </trkpt>
      <trkpt lat="43.61302" lon="6.01701">
        <ele>637</ele>
        <time>2026-02-10T13:49:38.000Z</time>
      </trkpt>
      <trkpt lat="43.61303" lon="6.017">
        <ele>637</ele>
        <time>2026-02-10T13:49:39.000Z</time>
      </trkpt>
      <trkpt lat="43.61304" lon="6.01699">
        <ele>637</ele>
        <time>2026-02-10T13:49:40.000Z</time>
      </trkpt>
      <trkpt lat="43.61305" lon="6.01699">
        <ele>637</ele>
        <time>2026-02-10T13:49:41.000Z</time>
      </trkpt>
      <trkpt lat="43.61307" lon="6.01698">
        <ele>637</ele>
        <time>2026-02-10T13:49:43.000Z</time>
      </trkpt>
      <trkpt lat="43.61308" lon="6.01698">
        <ele>637</ele>
        <time>2026-02-10T13:49:44.000Z</time>
      </trkpt>
      <trkpt lat="43.61309" lon="6.01697">
        <ele>637</ele>
        <time>2026-02-10T13:49:45.000Z</time>
      </trkpt>
      <trkpt lat="43.6131" lon="6.01696">
        <ele>637</ele>
        <time>2026-02-10T13:49:46.000Z</time>
      </trkpt>
      <trkpt lat="43.61311" lon="6.01696">
        <ele>637</ele>
        <time>2026-02-10T13:49:47.000Z</time>
      </trkpt>
      <trkpt lat="43.61312" lon="6.01695">
        <ele>637</ele>
        <time>2026-02-10T13:49:48.000Z</time>
      </trkpt>
      <trkpt lat="43.61313" lon="6.01694">
        <ele>637</ele>
        <time>2026-02-10T13:49:49.000Z</time>
      </trkpt>
      <trkpt lat="43.61314" lon="6.01694">
        <ele>637</ele>
        <time>2026-02-10T13:49:50.000Z</time>
      </trkpt>
      <trkpt lat="43.61315" lon="6.01693">
        <ele>637</ele>
        <time>2026-02-10T13:49:51.000Z</time>
      </trkpt>
      <trkpt lat="43.61315" lon="6.01693">
        <ele>637</ele>
        <time>2026-02-10T13:49:51.000Z</time>
      </trkpt>
      <trkpt lat="43.61316" lon="6.01692">
        <ele>637</ele>
        <time>2026-02-10T13:49:52.000Z</time>
      </trkpt>
      <trkpt lat="43.61317" lon="6.0169">
        <ele>637</ele>
        <time>2026-02-10T13:49:54.000Z</time>
      </trkpt>
      <trkpt lat="43.61318" lon="6.01689">
        <ele>637</ele>
        <time>2026-02-10T13:49:55.000Z</time>
      </trkpt>
      <trkpt lat="43.61319" lon="6.01688">
        <ele>637</ele>
        <time>2026-02-10T13:49:56.000Z</time>
      </trkpt>
      <trkpt lat="43.61319" lon="6.01688">
        <ele>637</ele>
        <time>2026-02-10T13:49:56.000Z</time>
      </trkpt>
      <trkpt lat="43.6132" lon="6.01687">
        <ele>637</ele>
        <time>2026-02-10T13:49:57.000Z</time>
      </trkpt>
      <trkpt lat="43.61321" lon="6.01686">
        <ele>637</ele>
        <time>2026-02-10T13:49:58.000Z</time>
      </trkpt>
      <trkpt lat="43.61322" lon="6.01685">
        <ele>637</ele>
        <time>2026-02-10T13:49:59.000Z</time>
      </trkpt>
      <trkpt lat="43.61323" lon="6.01684">
        <ele>637</ele>
        <time>2026-02-10T13:50:00.000Z</time>
      </trkpt>
      <trkpt lat="43.61323" lon="6.01683">
        <ele>637</ele>
        <time>2026-02-10T13:50:01.000Z</time>
      </trkpt>
      <trkpt lat="43.61324" lon="6.01681">
        <ele>637</ele>
        <time>2026-02-10T13:50:03.000Z</time>
      </trkpt>
      <trkpt lat="43.61325" lon="6.0168">
        <ele>637</ele>
        <time>2026-02-10T13:50:04.000Z</time>
      </trkpt>
      <trkpt lat="43.61326" lon="6.01679">
        <ele>637</ele>
        <time>2026-02-10T13:50:05.000Z</time>
      </trkpt>
      <trkpt lat="43.61327" lon="6.01678">
        <ele>637</ele>
        <time>2026-02-10T13:50:06.000Z</time>
      </trkpt>
      <trkpt lat="43.61328" lon="6.01677">
        <ele>637</ele>
        <time>2026-02-10T13:50:07.000Z</time>
      </trkpt>
      <trkpt lat="43.61329" lon="6.01676">
        <ele>637</ele>
        <time>2026-02-10T13:50:08.000Z</time>
      </trkpt>
      <trkpt lat="43.61329" lon="6.01674">
        <ele>637</ele>
        <time>2026-02-10T13:50:10.000Z</time>
      </trkpt>
      <trkpt lat="43.61331" lon="6.01672">
        <ele>637</ele>
        <time>2026-02-10T13:50:13.000Z</time>
      </trkpt>
      <trkpt lat="43.61331" lon="6.01672">
        <ele>637</ele>
        <time>2026-02-10T13:50:13.000Z</time>
      </trkpt>
      <trkpt lat="43.61332" lon="6.0167">
        <ele>637</ele>
        <time>2026-02-10T13:50:15.000Z</time>
      </trkpt>
      <trkpt lat="43.61333" lon="6.01669">
        <ele>637</ele>
        <time>2026-02-10T13:50:16.000Z</time>
      </trkpt>
      <trkpt lat="43.61334" lon="6.01668">
        <ele>637</ele>
        <time>2026-02-10T13:50:17.000Z</time>
      </trkpt>
      <trkpt lat="43.61335" lon="6.01667">
        <ele>637</ele>
        <time>2026-02-10T13:50:18.000Z</time>
      </trkpt>
      <trkpt lat="43.61335" lon="6.01666">
        <ele>637</ele>
        <time>2026-02-10T13:50:19.000Z</time>
      </trkpt>
      <trkpt lat="43.61336" lon="6.01664">
        <ele>637</ele>
        <time>2026-02-10T13:50:21.000Z</time>
      </trkpt>
      <trkpt lat="43.61336" lon="6.01663">
        <ele>637</ele>
        <time>2026-02-10T13:50:22.000Z</time>
      </trkpt>
      <trkpt lat="43.61337" lon="6.01661">
        <ele>637</ele>
        <time>2026-02-10T13:50:24.000Z</time>
      </trkpt>
      <trkpt lat="43.61337" lon="6.01659">
        <ele>637</ele>
        <time>2026-02-10T13:50:26.000Z</time>
      </trkpt>
      <trkpt lat="43.61338" lon="6.01657">
        <ele>637</ele>
        <time>2026-02-10T13:50:28.000Z</time>
      </trkpt>
      <trkpt lat="43.61338" lon="6.01656">
        <ele>637</ele>
        <time>2026-02-10T13:50:29.000Z</time>
      </trkpt>
      <trkpt lat="43.61339" lon="6.01655">
        <ele>637</ele>
        <time>2026-02-10T13:50:30.000Z</time>
      </trkpt>
      <trkpt lat="43.6134" lon="6.01653">
        <ele>637</ele>
        <time>2026-02-10T13:50:32.000Z</time>
      </trkpt>
      <trkpt lat="43.61341" lon="6.01652">
        <ele>637</ele>
        <time>2026-02-10T13:50:33.000Z</time>
      </trkpt>
      <trkpt lat="43.61342" lon="6.0165">
        <ele>637</ele>
        <time>2026-02-10T13:50:35.000Z</time>
      </trkpt>
      <trkpt lat="43.61342" lon="6.01648">
        <ele>637</ele>
        <time>2026-02-10T13:50:37.000Z</time>
      </trkpt>
      <trkpt lat="43.61343" lon="6.01647">
        <ele>637</ele>
        <time>2026-02-10T13:50:38.000Z</time>
      </trkpt>
      <trkpt lat="43.61343" lon="6.01645">
        <ele>637</ele>
        <time>2026-02-10T13:50:40.000Z</time>
      </trkpt>
      <trkpt lat="43.61344" lon="6.01644">
        <ele>637</ele>
        <time>2026-02-10T13:50:41.000Z</time>
      </trkpt>
      <trkpt lat="43.61344" lon="6.01642">
        <ele>637</ele>
        <time>2026-02-10T13:50:43.000Z</time>
      </trkpt>
      <trkpt lat="43.61344" lon="6.01641">
        <ele>637</ele>
        <time>2026-02-10T13:50:44.000Z</time>
      </trkpt>
      <trkpt lat="43.61345" lon="6.0164">
        <ele>637</ele>
        <time>2026-02-10T13:50:45.000Z</time>
      </trkpt>
      <trkpt lat="43.61346" lon="6.01638">
        <ele>637</ele>
        <time>2026-02-10T13:50:47.000Z</time>
      </trkpt>
      <trkpt lat="43.61346" lon="6.01637">
        <ele>637</ele>
        <time>2026-02-10T13:50:48.000Z</time>
      </trkpt>
      <trkpt lat="43.61346" lon="6.01635">
        <ele>637</ele>
        <time>2026-02-10T13:50:50.000Z</time>
      </trkpt>
      <trkpt lat="43.61346" lon="6.01633">
        <ele>637</ele>
        <time>2026-02-10T13:50:52.000Z</time>
      </trkpt>
      <trkpt lat="43.61346" lon="6.01632">
        <ele>637</ele>
        <time>2026-02-10T13:50:53.000Z</time>
      </trkpt>
      <trkpt lat="43.61347" lon="6.0163">
        <ele>637</ele>
        <time>2026-02-10T13:50:55.000Z</time>
      </trkpt>
      <trkpt lat="43.61347" lon="6.01629">
        <ele>637</ele>
        <time>2026-02-10T13:50:56.000Z</time>
      </trkpt>
      <trkpt lat="43.61346" lon="6.01627">
        <ele>637</ele>
        <time>2026-02-10T13:50:58.000Z</time>
      </trkpt>
      <trkpt lat="43.61347" lon="6.01625">
        <ele>637</ele>
        <time>2026-02-10T13:51:00.000Z</time>
      </trkpt>
      <trkpt lat="43.61347" lon="6.01624">
        <ele>637</ele>
        <time>2026-02-10T13:51:01.000Z</time>
      </trkpt>
      <trkpt lat="43.61347" lon="6.01622">
        <ele>637</ele>
        <time>2026-02-10T13:51:03.000Z</time>
      </trkpt>
      <trkpt lat="43.61347" lon="6.01621">
        <ele>637</ele>
        <time>2026-02-10T13:51:04.000Z</time>
      </trkpt>
      <trkpt lat="43.61348" lon="6.01619">
        <ele>636</ele>
        <time>2026-02-10T13:51:06.000Z</time>
      </trkpt>
      <trkpt lat="43.61348" lon="6.01618">
        <ele>636</ele>
        <time>2026-02-10T13:51:07.000Z</time>
      </trkpt>
      <trkpt lat="43.61348" lon="6.01616">
        <ele>636</ele>
        <time>2026-02-10T13:51:09.000Z</time>
      </trkpt>
      <trkpt lat="43.61348" lon="6.01615">
        <ele>636</ele>
        <time>2026-02-10T13:51:10.000Z</time>
      </trkpt>
      <trkpt lat="43.61348" lon="6.01614">
        <ele>636</ele>
        <time>2026-02-10T13:51:11.000Z</time>
      </trkpt>
      <trkpt lat="43.61349" lon="6.01612">
        <ele>636</ele>
        <time>2026-02-10T13:51:13.000Z</time>
      </trkpt>
      <trkpt lat="43.61349" lon="6.01611">
        <ele>636</ele>
        <time>2026-02-10T13:51:14.000Z</time>
      </trkpt>
      <trkpt lat="43.6135" lon="6.01609">
        <ele>636</ele>
        <time>2026-02-10T13:51:16.000Z</time>
      </trkpt>
      <trkpt lat="43.6135" lon="6.01607">
        <ele>636</ele>
        <time>2026-02-10T13:51:18.000Z</time>
      </trkpt>
      <trkpt lat="43.61351" lon="6.01605">
        <ele>636</ele>
        <time>2026-02-10T13:51:20.000Z</time>
      </trkpt>
      <trkpt lat="43.61352" lon="6.01604">
        <ele>636</ele>
        <time>2026-02-10T13:51:21.000Z</time>
      </trkpt>
      <trkpt lat="43.61352" lon="6.01603">
        <ele>636</ele>
        <time>2026-02-10T13:51:22.000Z</time>
      </trkpt>
      <trkpt lat="43.61353" lon="6.01602">
        <ele>636</ele>
        <time>2026-02-10T13:51:23.000Z</time>
      </trkpt>
      <trkpt lat="43.61353" lon="6.016">
        <ele>636</ele>
        <time>2026-02-10T13:51:25.000Z</time>
      </trkpt>
      <trkpt lat="43.61354" lon="6.01598">
        <ele>636</ele>
        <time>2026-02-10T13:51:27.000Z</time>
      </trkpt>
      <trkpt lat="43.61355" lon="6.01597">
        <ele>636</ele>
        <time>2026-02-10T13:51:28.000Z</time>
      </trkpt>
      <trkpt lat="43.61355" lon="6.01595">
        <ele>636</ele>
        <time>2026-02-10T13:51:30.000Z</time>
      </trkpt>
      <trkpt lat="43.61356" lon="6.01593">
        <ele>636</ele>
        <time>2026-02-10T13:51:32.000Z</time>
      </trkpt>
      <trkpt lat="43.61356" lon="6.01592">
        <ele>636</ele>
        <time>2026-02-10T13:51:33.000Z</time>
      </trkpt>
      <trkpt lat="43.61357" lon="6.0159">
        <ele>636</ele>
        <time>2026-02-10T13:51:35.000Z</time>
      </trkpt>
      <trkpt lat="43.61358" lon="6.01587">
        <ele>636</ele>
        <time>2026-02-10T13:51:38.000Z</time>
      </trkpt>
      <trkpt lat="43.61359" lon="6.01586">
        <ele>636</ele>
        <time>2026-02-10T13:51:39.000Z</time>
      </trkpt>
      <trkpt lat="43.6136" lon="6.01584">
        <ele>636</ele>
        <time>2026-02-10T13:51:41.000Z</time>
      </trkpt>
      <trkpt lat="43.6136" lon="6.01583">
        <ele>636</ele>
        <time>2026-02-10T13:51:42.000Z</time>
      </trkpt>
      <trkpt lat="43.61361" lon="6.01581">
        <ele>636</ele>
        <time>2026-02-10T13:51:44.000Z</time>
      </trkpt>
      <trkpt lat="43.61362" lon="6.01579">
        <ele>636</ele>
        <time>2026-02-10T13:51:46.000Z</time>
      </trkpt>
      <trkpt lat="43.61362" lon="6.01578">
        <ele>636</ele>
        <time>2026-02-10T13:51:47.000Z</time>
      </trkpt>
      <trkpt lat="43.61363" lon="6.01576">
        <ele>636</ele>
        <time>2026-02-10T13:51:49.000Z</time>
      </trkpt>
      <trkpt lat="43.61364" lon="6.01568">
        <ele>636</ele>
        <time>2026-02-10T13:51:56.000Z</time>
      </trkpt>
      <trkpt lat="43.61358" lon="6.01516">
        <ele>634</ele>
        <time>2026-02-10T13:52:39.000Z</time>
      </trkpt>
      <trkpt lat="43.61346" lon="6.01483">
        <ele>632</ele>
        <time>2026-02-10T13:53:10.000Z</time>
      </trkpt>
      <trkpt lat="43.61344" lon="6.01459">
        <ele>631</ele>
        <time>2026-02-10T13:53:30.000Z</time>
      </trkpt>
      <trkpt lat="43.61344" lon="6.01452">
        <ele>630</ele>
        <time>2026-02-10T13:53:36.000Z</time>
      </trkpt>
      <trkpt lat="43.61347" lon="6.01415">
        <ele>627</ele>
        <time>2026-02-10T13:54:07.000Z</time>
      </trkpt>
      <trkpt lat="43.6134" lon="6.01406">
        <ele>625</ele>
        <time>2026-02-10T13:54:18.000Z</time>
      </trkpt>
      <trkpt lat="43.6133" lon="6.01392">
        <ele>623</ele>
        <time>2026-02-10T13:54:35.000Z</time>
      </trkpt>
      <trkpt lat="43.6132" lon="6.01392">
        <ele>623</ele>
        <time>2026-02-10T13:54:46.000Z</time>
      </trkpt>
      <trkpt lat="43.61302" lon="6.01403">
        <ele>621</ele>
        <time>2026-02-10T13:55:08.000Z</time>
      </trkpt>
      <trkpt lat="43.61304" lon="6.01402">
        <ele>621</ele>
        <time>2026-02-10T13:55:10.000Z</time>
      </trkpt>
      <trkpt lat="43.6132" lon="6.01392">
        <ele>623</ele>
        <time>2026-02-10T13:55:51.000Z</time>
      </trkpt>
      <trkpt lat="43.6133" lon="6.01392">
        <ele>623</ele>
        <time>2026-02-10T13:56:02.000Z</time>
      </trkpt>
      <trkpt lat="43.61347" lon="6.01415">
        <ele>627</ele>
        <time>2026-02-10T13:57:11.000Z</time>
      </trkpt>
      <trkpt lat="43.61346" lon="6.01425">
        <ele>629</ele>
        <time>2026-02-10T13:57:40.000Z</time>
      </trkpt>
      <trkpt lat="43.61344" lon="6.01475">
        <ele>631</ele>
        <time>2026-02-10T13:58:42.000Z</time>
      </trkpt>
      <trkpt lat="43.61358" lon="6.01516">
        <ele>634</ele>
        <time>2026-02-10T13:59:51.000Z</time>
      </trkpt>
      <trkpt lat="43.61363" lon="6.01574">
        <ele>636</ele>
        <time>2026-02-10T14:01:00.000Z</time>
      </trkpt>
      <trkpt lat="43.61363" lon="6.01579">
        <ele>636</ele>
        <time>2026-02-10T14:01:04.000Z</time>
      </trkpt>
      <trkpt lat="43.61346" lon="6.01633">
        <ele>637</ele>
        <time>2026-02-10T14:02:03.000Z</time>
      </trkpt>
      <trkpt lat="43.61332" lon="6.01664">
        <ele>637</ele>
        <time>2026-02-10T14:02:33.000Z</time>
      </trkpt>
      <trkpt lat="43.61313" lon="6.01689">
        <ele>637</ele>
        <time>2026-02-10T14:03:03.000Z</time>
      </trkpt>
      <trkpt lat="43.61302" lon="6.01696">
        <ele>637</ele>
        <time>2026-02-10T14:03:16.000Z</time>
      </trkpt>
      <trkpt lat="43.61291" lon="6.01705">
        <ele>636</ele>
        <time>2026-02-10T14:03:31.000Z</time>
      </trkpt>
      <trkpt lat="43.61266" lon="6.01734">
        <ele>636</ele>
        <time>2026-02-10T14:04:09.000Z</time>
      </trkpt>
      <trkpt lat="43.61262" lon="6.01743">
        <ele>635</ele>
        <time>2026-02-10T14:04:17.000Z</time>
      </trkpt>
      <trkpt lat="43.6126" lon="6.01785">
        <ele>636</ele>
        <time>2026-02-10T14:05:02.000Z</time>
      </trkpt>
      <trkpt lat="43.6125" lon="6.01876">
        <ele>637</ele>
        <time>2026-02-10T14:06:28.000Z</time>
      </trkpt>
      <trkpt lat="43.61241" lon="6.01905">
        <ele>636</ele>
        <time>2026-02-10T14:06:54.000Z</time>
      </trkpt>
      <trkpt lat="43.61237" lon="6.01921">
        <ele>636</ele>
        <time>2026-02-10T14:07:08.000Z</time>
      </trkpt>
      <trkpt lat="43.61234" lon="6.01937">
        <ele>636</ele>
        <time>2026-02-10T14:07:21.000Z</time>
      </trkpt>
      <trkpt lat="43.61231" lon="6.01988">
        <ele>636</ele>
        <time>2026-02-10T14:08:04.000Z</time>
      </trkpt>
      <trkpt lat="43.61227" lon="6.01993">
        <ele>635</ele>
        <time>2026-02-10T14:08:11.000Z</time>
      </trkpt>
      <trkpt lat="43.61224" lon="6.01995">
        <ele>635</ele>
        <time>2026-02-10T14:08:14.000Z</time>
      </trkpt>
      <trkpt lat="43.6117" lon="6.01983">
        <ele>631</ele>
        <time>2026-02-10T14:09:16.000Z</time>
      </trkpt>
      <trkpt lat="43.61167" lon="6.01988">
        <ele>630</ele>
        <time>2026-02-10T14:09:22.000Z</time>
      </trkpt>
      <trkpt lat="43.61159" lon="6.02014">
        <ele>629</ele>
        <time>2026-02-10T14:09:45.000Z</time>
      </trkpt>
      <trkpt lat="43.6116" lon="6.0206">
        <ele>629</ele>
        <time>2026-02-10T14:10:23.000Z</time>
      </trkpt>
      <trkpt lat="43.61155" lon="6.02094">
        <ele>628</ele>
        <time>2026-02-10T14:10:52.000Z</time>
      </trkpt>
      <trkpt lat="43.61153" lon="6.02167">
        <ele>624</ele>
        <time>2026-02-10T14:11:53.000Z</time>
      </trkpt>
      <trkpt lat="43.61153" lon="6.02169">
        <ele>624</ele>
        <time>2026-02-10T14:11:55.000Z</time>
      </trkpt>
      <trkpt lat="43.61163" lon="6.02189">
        <ele>622</ele>
        <time>2026-02-10T14:12:14.000Z</time>
      </trkpt>
      <trkpt lat="43.61187" lon="6.02213">
        <ele>621</ele>
        <time>2026-02-10T14:12:48.000Z</time>
      </trkpt>
      <trkpt lat="43.612" lon="6.02236">
        <ele>618</ele>
        <time>2026-02-10T14:13:13.000Z</time>
      </trkpt>
      <trkpt lat="43.61221" lon="6.02284">
        <ele>615</ele>
        <time>2026-02-10T14:13:59.000Z</time>
      </trkpt>
      <trkpt lat="43.61235" lon="6.02302">
        <ele>613</ele>
        <time>2026-02-10T14:14:21.000Z</time>
      </trkpt>
      <trkpt lat="43.61243" lon="6.02311">
        <ele>611</ele>
        <time>2026-02-10T14:14:32.000Z</time>
      </trkpt>
      <trkpt lat="43.61249" lon="6.02316">
        <ele>611</ele>
        <time>2026-02-10T14:14:40.000Z</time>
      </trkpt>
      <trkpt lat="43.61251" lon="6.02324">
        <ele>609</ele>
        <time>2026-02-10T14:14:47.000Z</time>
      </trkpt>
      <trkpt lat="43.61251" lon="6.02326">
        <ele>609</ele>
        <time>2026-02-10T14:14:49.000Z</time>
      </trkpt>
      <trkpt lat="43.61233" lon="6.02343">
        <ele>608</ele>
        <time>2026-02-10T14:15:14.000Z</time>
      </trkpt>
      <trkpt lat="43.61205" lon="6.02362">
        <ele>605</ele>
        <time>2026-02-10T14:15:50.000Z</time>
      </trkpt>
      <trkpt lat="43.61201" lon="6.02376">
        <ele>604</ele>
        <time>2026-02-10T14:16:02.000Z</time>
      </trkpt>
      <trkpt lat="43.61201" lon="6.02376">
        <ele>604</ele>
        <time>2026-02-10T14:16:02.000Z</time>
      </trkpt>
      <trkpt lat="43.61202" lon="6.02395">
        <ele>604</ele>
        <time>2026-02-10T14:16:18.000Z</time>
      </trkpt>
      <trkpt lat="43.61212" lon="6.02432">
        <ele>604</ele>
        <time>2026-02-10T14:16:51.000Z</time>
      </trkpt>
      <trkpt lat="43.61207" lon="6.02484">
        <ele>606</ele>
        <time>2026-02-10T14:17:55.000Z</time>
      </trkpt>
      <trkpt lat="43.61206" lon="6.02487">
        <ele>606</ele>
        <time>2026-02-10T14:17:58.000Z</time>
      </trkpt>
      <trkpt lat="43.61196" lon="6.02502">
        <ele>608</ele>
        <time>2026-02-10T14:18:36.000Z</time>
      </trkpt>
      <trkpt lat="43.61168" lon="6.02519">
        <ele>611</ele>
        <time>2026-02-10T14:19:42.000Z</time>
      </trkpt>
      <trkpt lat="43.61159" lon="6.02535">
        <ele>611</ele>
        <time>2026-02-10T14:19:59.000Z</time>
      </trkpt>
      <trkpt lat="43.61151" lon="6.0256">
        <ele>612</ele>
        <time>2026-02-10T14:20:32.000Z</time>
      </trkpt>
      <trkpt lat="43.61143" lon="6.0257">
        <ele>612</ele>
        <time>2026-02-10T14:20:44.000Z</time>
      </trkpt>
      <trkpt lat="43.61115" lon="6.02578">
        <ele>613</ele>
        <time>2026-02-10T14:21:28.000Z</time>
      </trkpt>
      <trkpt lat="43.61078" lon="6.0258">
        <ele>613</ele>
        <time>2026-02-10T14:22:10.000Z</time>
      </trkpt>
      <trkpt lat="43.61071" lon="6.02585">
        <ele>613</ele>
        <time>2026-02-10T14:22:19.000Z</time>
      </trkpt>
      <trkpt lat="43.6107" lon="6.02587">
        <ele>613</ele>
        <time>2026-02-10T14:22:21.000Z</time>
      </trkpt>
      <trkpt lat="43.61073" lon="6.02608">
        <ele>612</ele>
        <time>2026-02-10T14:22:39.000Z</time>
      </trkpt>
      <trkpt lat="43.61119" lon="6.02693">
        <ele>609</ele>
        <time>2026-02-10T14:24:07.000Z</time>
      </trkpt>
      <trkpt lat="43.61121" lon="6.02727">
        <ele>609</ele>
        <time>2026-02-10T14:24:35.000Z</time>
      </trkpt>
      <trkpt lat="43.61119" lon="6.02735">
        <ele>609</ele>
        <time>2026-02-10T14:24:42.000Z</time>
      </trkpt>
      <trkpt lat="43.61113" lon="6.02745">
        <ele>610</ele>
        <time>2026-02-10T14:25:03.000Z</time>
      </trkpt>
      <trkpt lat="43.61102" lon="6.02746">
        <ele>610</ele>
        <time>2026-02-10T14:25:16.000Z</time>
      </trkpt>
      <trkpt lat="43.61095" lon="6.02751">
        <ele>610</ele>
        <time>2026-02-10T14:25:25.000Z</time>
      </trkpt>
      <trkpt lat="43.61083" lon="6.0277">
        <ele>609</ele>
        <time>2026-02-10T14:25:46.000Z</time>
      </trkpt>
      <trkpt lat="43.61083" lon="6.02784">
        <ele>609</ele>
        <time>2026-02-10T14:25:57.000Z</time>
      </trkpt>
      <trkpt lat="43.61083" lon="6.0279">
        <ele>609</ele>
        <time>2026-02-10T14:26:02.000Z</time>
      </trkpt>
      <trkpt lat="43.61082" lon="6.0281">
        <ele>608</ele>
        <time>2026-02-10T14:26:19.000Z</time>
      </trkpt>
      <trkpt lat="43.61099" lon="6.02818">
        <ele>608</ele>
        <time>2026-02-10T14:26:39.000Z</time>
      </trkpt>
      <trkpt lat="43.61111" lon="6.02814">
        <ele>608</ele>
        <time>2026-02-10T14:26:54.000Z</time>
      </trkpt>
      <trkpt lat="43.61113" lon="6.02813">
        <ele>607</ele>
        <time>2026-02-10T14:26:56.000Z</time>
      </trkpt>
      <trkpt lat="43.61137" lon="6.02797">
        <ele>604</ele>
        <time>2026-02-10T14:27:27.000Z</time>
      </trkpt>
      <trkpt lat="43.6115" lon="6.02794">
        <ele>603</ele>
        <time>2026-02-10T14:27:42.000Z</time>
      </trkpt>
      <trkpt lat="43.61163" lon="6.02809">
        <ele>602</ele>
        <time>2026-02-10T14:28:02.000Z</time>
      </trkpt>
      <trkpt lat="43.6118" lon="6.02837">
        <ele>599</ele>
        <time>2026-02-10T14:28:33.000Z</time>
      </trkpt>
      <trkpt lat="43.61187" lon="6.02867">
        <ele>598</ele>
        <time>2026-02-10T14:28:59.000Z</time>
      </trkpt>
      <trkpt lat="43.61196" lon="6.02873">
        <ele>597</ele>
        <time>2026-02-10T14:29:11.000Z</time>
      </trkpt>
      <trkpt lat="43.612" lon="6.02871">
        <ele>597</ele>
        <time>2026-02-10T14:29:16.000Z</time>
      </trkpt>
      <trkpt lat="43.61202" lon="6.02866">
        <ele>597</ele>
        <time>2026-02-10T14:29:20.000Z</time>
      </trkpt>
      <trkpt lat="43.61198" lon="6.0283">
        <ele>595</ele>
        <time>2026-02-10T14:29:50.000Z</time>
      </trkpt>
      <trkpt lat="43.61197" lon="6.02784">
        <ele>593</ele>
        <time>2026-02-10T14:30:29.000Z</time>
      </trkpt>
      <trkpt lat="43.612" lon="6.02751">
        <ele>592</ele>
        <time>2026-02-10T14:30:56.000Z</time>
      </trkpt>
      <trkpt lat="43.61217" lon="6.02691">
        <ele>589</ele>
        <time>2026-02-10T14:31:49.000Z</time>
      </trkpt>
      <trkpt lat="43.6123" lon="6.02663">
        <ele>588</ele>
        <time>2026-02-10T14:32:17.000Z</time>
      </trkpt>
      <trkpt lat="43.61307" lon="6.0256">
        <ele>580</ele>
        <time>2026-02-10T14:34:20.000Z</time>
      </trkpt>
      <trkpt lat="43.6131" lon="6.02556">
        <ele>580</ele>
        <time>2026-02-10T14:34:24.000Z</time>
      </trkpt>
      <trkpt lat="43.61334" lon="6.02522">
        <ele>577</ele>
        <time>2026-02-10T14:35:04.000Z</time>
      </trkpt>
      <trkpt lat="43.61379" lon="6.02481">
        <ele>574</ele>
        <time>2026-02-10T14:36:05.000Z</time>
      </trkpt>
      <trkpt lat="43.61401" lon="6.02473">
        <ele>572</ele>
        <time>2026-02-10T14:36:32.000Z</time>
      </trkpt>
      <trkpt lat="43.61436" lon="6.02467">
        <ele>570</ele>
        <time>2026-02-10T14:37:12.000Z</time>
      </trkpt>
      <trkpt lat="43.61498" lon="6.0244">
        <ele>565</ele>
        <time>2026-02-10T14:38:25.000Z</time>
      </trkpt>
      <trkpt lat="43.61529" lon="6.02418">
        <ele>562</ele>
        <time>2026-02-10T14:39:05.000Z</time>
      </trkpt>
      <trkpt lat="43.61622" lon="6.02364">
        <ele>555</ele>
        <time>2026-02-10T14:41:00.000Z</time>
      </trkpt>
      <trkpt lat="43.61672" lon="6.02317">
        <ele>553</ele>
        <time>2026-02-10T14:42:09.000Z</time>
      </trkpt>
      <trkpt lat="43.6174" lon="6.02276">
        <ele>549</ele>
        <time>2026-02-10T14:43:35.000Z</time>
      </trkpt>
      <trkpt lat="43.61744" lon="6.02274">
        <ele>549</ele>
        <time>2026-02-10T14:43:39.000Z</time>
      </trkpt>
      <trkpt lat="43.61764" lon="6.02269">
        <ele>549</ele>
        <time>2026-02-10T14:44:02.000Z</time>
      </trkpt>
      <trkpt lat="43.61794" lon="6.02246">
        <ele>547</ele>
        <time>2026-02-10T14:44:41.000Z</time>
      </trkpt>
      <trkpt lat="43.6183" lon="6.02226">
        <ele>546</ele>
        <time>2026-02-10T14:45:26.000Z</time>
      </trkpt>
      <trkpt lat="43.61859" lon="6.0219">
        <ele>545</ele>
        <time>2026-02-10T14:46:10.000Z</time>
      </trkpt>
      <trkpt lat="43.61865" lon="6.02171">
        <ele>545</ele>
        <time>2026-02-10T14:46:27.000Z</time>
      </trkpt>
      <trkpt lat="43.61868" lon="6.02154">
        <ele>544</ele>
        <time>2026-02-10T14:46:41.000Z</time>
      </trkpt>
      <trkpt lat="43.61887" lon="6.0212">
        <ele>543</ele>
        <time>2026-02-10T14:47:16.000Z</time>
      </trkpt>
      <trkpt lat="43.6191" lon="6.02101">
        <ele>541</ele>
        <time>2026-02-10T14:47:47.000Z</time>
      </trkpt>
      <trkpt lat="43.61914" lon="6.02073">
        <ele>541</ele>
        <time>2026-02-10T14:48:10.000Z</time>
      </trkpt>
      <trkpt lat="43.61923" lon="6.02043">
        <ele>541</ele>
        <time>2026-02-10T14:48:37.000Z</time>
      </trkpt>
      <trkpt lat="43.61948" lon="6.02004">
        <ele>539</ele>
        <time>2026-02-10T14:49:20.000Z</time>
      </trkpt>
      <trkpt lat="43.61951" lon="6.01999">
        <ele>539</ele>
        <time>2026-02-10T14:49:25.000Z</time>
      </trkpt>
      <trkpt lat="43.61963" lon="6.01979">
        <ele>539</ele>
        <time>2026-02-10T14:49:47.000Z</time>
      </trkpt>
      <trkpt lat="43.61967" lon="6.01942">
        <ele>538</ele>
        <time>2026-02-10T14:50:18.000Z</time>
      </trkpt>
      <trkpt lat="43.61974" lon="6.01937">
        <ele>538</ele>
        <time>2026-02-10T14:50:27.000Z</time>
      </trkpt>
      <trkpt lat="43.61987" lon="6.01941">
        <ele>537</ele>
        <time>2026-02-10T14:50:42.000Z</time>
      </trkpt>
      <trkpt lat="43.61998" lon="6.01935">
        <ele>537</ele>
        <time>2026-02-10T14:50:56.000Z</time>
      </trkpt>
      <trkpt lat="43.62059" lon="6.01948">
        <ele>534</ele>
        <time>2026-02-10T14:52:06.000Z</time>
      </trkpt>
      <trkpt lat="43.62113" lon="6.01975">
        <ele>533</ele>
        <time>2026-02-10T14:53:13.000Z</time>
      </trkpt>
      <trkpt lat="43.62158" lon="6.01967">
        <ele>535</ele>
        <time>2026-02-10T14:54:25.000Z</time>
      </trkpt>
      <trkpt lat="43.62234" lon="6.01975">
        <ele>540</ele>
        <time>2026-02-10T14:56:43.000Z</time>
      </trkpt>
      <trkpt lat="43.62242" lon="6.01976">
        <ele>540</ele>
        <time>2026-02-10T14:56:53.000Z</time>
      </trkpt>
      <trkpt lat="43.62256" lon="6.01979">
        <ele>541</ele>
        <time>2026-02-10T14:57:20.000Z</time>
      </trkpt>
      <trkpt lat="43.62266" lon="6.02006">
        <ele>541</ele>
        <time>2026-02-10T14:57:45.000Z</time>
      </trkpt>
      <trkpt lat="43.62276" lon="6.02016">
        <ele>542</ele>
        <time>2026-02-10T14:58:09.000Z</time>
      </trkpt>
      <trkpt lat="43.62278" lon="6.02013">
        <ele>542</ele>
        <time>2026-02-10T14:58:12.000Z</time>
      </trkpt>
      <trkpt lat="43.62285" lon="6.0196">
        <ele>541</ele>
        <time>2026-02-10T14:58:57.000Z</time>
      </trkpt>
      <trkpt lat="43.62303" lon="6.01926">
        <ele>541</ele>
        <time>2026-02-10T14:59:31.000Z</time>
      </trkpt>
      <trkpt lat="43.62312" lon="6.01919">
        <ele>541</ele>
        <time>2026-02-10T14:59:44.000Z</time>
      </trkpt>
      <trkpt lat="43.62365" lon="6.01901">
        <ele>541</ele>
        <time>2026-02-10T15:00:45.000Z</time>
      </trkpt>
      <trkpt lat="43.62373" lon="6.01894">
        <ele>541</ele>
        <time>2026-02-10T15:00:56.000Z</time>
      </trkpt>
      <trkpt lat="43.62393" lon="6.01856">
        <ele>541</ele>
        <time>2026-02-10T15:01:35.000Z</time>
      </trkpt>
      <trkpt lat="43.62407" lon="6.01846">
        <ele>541</ele>
        <time>2026-02-10T15:01:53.000Z</time>
      </trkpt>
      <trkpt lat="43.62417" lon="6.01823">
        <ele>541</ele>
        <time>2026-02-10T15:02:15.000Z</time>
      </trkpt>
      <trkpt lat="43.62433" lon="6.01807">
        <ele>541</ele>
        <time>2026-02-10T15:02:38.000Z</time>
      </trkpt>
      <trkpt lat="43.62441" lon="6.01787">
        <ele>541</ele>
        <time>2026-02-10T15:02:57.000Z</time>
      </trkpt>
      <trkpt lat="43.6245" lon="6.01781">
        <ele>541</ele>
        <time>2026-02-10T15:03:08.000Z</time>
      </trkpt>
      <trkpt lat="43.62469" lon="6.01781">
        <ele>540</ele>
        <time>2026-02-10T15:03:30.000Z</time>
      </trkpt>
      <trkpt lat="43.62561" lon="6.01784">
        <ele>539</ele>
        <time>2026-02-10T15:05:16.000Z</time>
      </trkpt>
      <trkpt lat="43.62591" lon="6.01781">
        <ele>540</ele>
        <time>2026-02-10T15:06:00.000Z</time>
      </trkpt>
      <trkpt lat="43.62609" lon="6.01774">
        <ele>540</ele>
        <time>2026-02-10T15:06:22.000Z</time>
      </trkpt>
      <trkpt lat="43.62661" lon="6.01737">
        <ele>539</ele>
        <time>2026-02-10T15:07:30.000Z</time>
      </trkpt>
      <trkpt lat="43.62676" lon="6.01717">
        <ele>538</ele>
        <time>2026-02-10T15:07:54.000Z</time>
      </trkpt>
      <trkpt lat="43.62746" lon="6.01584">
        <ele>541</ele>
        <time>2026-02-10T15:10:41.000Z</time>
      </trkpt>
      <trkpt lat="43.62772" lon="6.01512">
        <ele>541</ele>
        <time>2026-02-10T15:11:47.000Z</time>
      </trkpt>
      <trkpt lat="43.62775" lon="6.01502">
        <ele>541</ele>
        <time>2026-02-10T15:11:56.000Z</time>
      </trkpt>
      <trkpt lat="43.62853" lon="6.0132">
        <ele>543</ele>
        <time>2026-02-10T15:15:12.000Z</time>
      </trkpt>
      <trkpt lat="43.62884" lon="6.01313">
        <ele>543</ele>
        <time>2026-02-10T15:15:48.000Z</time>
      </trkpt>
      <trkpt lat="43.62893" lon="6.01305">
        <ele>543</ele>
        <time>2026-02-10T15:16:00.000Z</time>
      </trkpt>
      <trkpt lat="43.62897" lon="6.01295">
        <ele>543</ele>
        <time>2026-02-10T15:16:10.000Z</time>
      </trkpt>
      <trkpt lat="43.629" lon="6.01302">
        <ele>543</ele>
        <time>2026-02-10T15:16:16.000Z</time>
      </trkpt>
    </trkseg>
  </trk>
</gpx>